<?xml version="1.0" encoding="UTF-8" standalone="no" ?>
<gpx xmlns="http://www.topografix.com/GPX/1/1" xmlns:xsi="http://www.w3.org/2001/XMLSchema-instance" xsi:schemaLocation="http://www.topografix.com/GPX/1/1 http://www.topografix.com/GPX/1/1/gpx.xsd" version="1.1" creator="VisuGPX - https://www.visugpx.com">
  <metadata>
    <name>Marais aux vaches</name>
  </metadata>
  <trk>
    <name><![CDATA[Marais aux vaches_1]]></name>
    <trkseg>
      <trkpt lat="49.87768" lon="2.33987">
        <ele>26.6</ele>
        <time>2023-10-06T12:00:51Z</time>
      </trkpt>
      <trkpt lat="49.87768" lon="2.33987">
        <ele>26.6</ele>
        <time>2023-10-06T12:00:52Z</time>
      </trkpt>
      <trkpt lat="49.87768" lon="2.33987">
        <ele>26.6</ele>
        <time>2023-10-06T12:00:53Z</time>
      </trkpt>
      <trkpt lat="49.87768" lon="2.33986">
        <ele>26.6</ele>
        <time>2023-10-06T12:00:54Z</time>
      </trkpt>
      <trkpt lat="49.87768" lon="2.33986">
        <ele>26.6</ele>
        <time>2023-10-06T12:00:55Z</time>
      </trkpt>
      <trkpt lat="49.87768" lon="2.33986">
        <ele>26.6</ele>
        <time>2023-10-06T12:00:56Z</time>
      </trkpt>
      <trkpt lat="49.87768" lon="2.33986">
        <ele>26.6</ele>
        <time>2023-10-06T12:00:57Z</time>
      </trkpt>
      <trkpt lat="49.87768" lon="2.33986">
        <ele>26.6</ele>
        <time>2023-10-06T12:00:58Z</time>
      </trkpt>
      <trkpt lat="49.87768" lon="2.33986">
        <ele>26.6</ele>
        <time>2023-10-06T12:00:59Z</time>
      </trkpt>
      <trkpt lat="49.87768" lon="2.33986">
        <ele>26.6</ele>
        <time>2023-10-06T12:01:00Z</time>
      </trkpt>
      <trkpt lat="49.87768" lon="2.33986">
        <ele>26.6</ele>
        <time>2023-10-06T12:01:01Z</time>
      </trkpt>
      <trkpt lat="49.87768" lon="2.33986">
        <ele>26.6</ele>
        <time>2023-10-06T12:01:02Z</time>
      </trkpt>
      <trkpt lat="49.87769" lon="2.33986">
        <ele>26.6</ele>
        <time>2023-10-06T12:01:03Z</time>
      </trkpt>
      <trkpt lat="49.87769" lon="2.33986">
        <ele>26.6</ele>
        <time>2023-10-06T12:01:04Z</time>
      </trkpt>
      <trkpt lat="49.87769" lon="2.33986">
        <ele>26.6</ele>
        <time>2023-10-06T12:01:05Z</time>
      </trkpt>
      <trkpt lat="49.87769" lon="2.33985">
        <ele>26.6</ele>
        <time>2023-10-06T12:01:06Z</time>
      </trkpt>
      <trkpt lat="49.87769" lon="2.33985">
        <ele>26.6</ele>
        <time>2023-10-06T12:01:07Z</time>
      </trkpt>
      <trkpt lat="49.87769" lon="2.33985">
        <ele>26.6</ele>
        <time>2023-10-06T12:01:08Z</time>
      </trkpt>
      <trkpt lat="49.87769" lon="2.33985">
        <ele>26.6</ele>
        <time>2023-10-06T12:01:09Z</time>
      </trkpt>
      <trkpt lat="49.87769" lon="2.33985">
        <ele>26.6</ele>
        <time>2023-10-06T12:01:10Z</time>
      </trkpt>
      <trkpt lat="49.87769" lon="2.33985">
        <ele>26.6</ele>
        <time>2023-10-06T12:01:11Z</time>
      </trkpt>
      <trkpt lat="49.87769" lon="2.33985">
        <ele>26.6</ele>
        <time>2023-10-06T12:01:12Z</time>
      </trkpt>
      <trkpt lat="49.87769" lon="2.33985">
        <ele>26.6</ele>
        <time>2023-10-06T12:01:13Z</time>
      </trkpt>
      <trkpt lat="49.87769" lon="2.33985">
        <ele>26.6</ele>
        <time>2023-10-06T12:01:14Z</time>
      </trkpt>
      <trkpt lat="49.87769" lon="2.33985">
        <ele>26.6</ele>
        <time>2023-10-06T12:01:15Z</time>
      </trkpt>
      <trkpt lat="49.87769" lon="2.33985">
        <ele>26.6</ele>
        <time>2023-10-06T12:01:16Z</time>
      </trkpt>
      <trkpt lat="49.87769" lon="2.33984">
        <ele>26.6</ele>
        <time>2023-10-06T12:01:17Z</time>
      </trkpt>
      <trkpt lat="49.87769" lon="2.33984">
        <ele>26.6</ele>
        <time>2023-10-06T12:01:18Z</time>
      </trkpt>
      <trkpt lat="49.87769" lon="2.33984">
        <ele>26.6</ele>
        <time>2023-10-06T12:01:19Z</time>
      </trkpt>
      <trkpt lat="49.87769" lon="2.33984">
        <ele>26.6</ele>
        <time>2023-10-06T12:01:20Z</time>
      </trkpt>
      <trkpt lat="49.87769" lon="2.33984">
        <ele>26.6</ele>
        <time>2023-10-06T12:01:21Z</time>
      </trkpt>
      <trkpt lat="49.87769" lon="2.33984">
        <ele>26.6</ele>
        <time>2023-10-06T12:01:22Z</time>
      </trkpt>
      <trkpt lat="49.87769" lon="2.33984">
        <ele>26.6</ele>
        <time>2023-10-06T12:01:23Z</time>
      </trkpt>
      <trkpt lat="49.87769" lon="2.33984">
        <ele>26.6</ele>
        <time>2023-10-06T12:01:24Z</time>
      </trkpt>
      <trkpt lat="49.87769" lon="2.33984">
        <ele>26.6</ele>
        <time>2023-10-06T12:01:25Z</time>
      </trkpt>
      <trkpt lat="49.87769" lon="2.33984">
        <ele>26.6</ele>
        <time>2023-10-06T12:01:26Z</time>
      </trkpt>
      <trkpt lat="49.87769" lon="2.33984">
        <ele>26.6</ele>
        <time>2023-10-06T12:01:27Z</time>
      </trkpt>
      <trkpt lat="49.87769" lon="2.33984">
        <ele>26.6</ele>
        <time>2023-10-06T12:01:28Z</time>
      </trkpt>
      <trkpt lat="49.8777" lon="2.33983">
        <ele>26.6</ele>
        <time>2023-10-06T12:01:29Z</time>
      </trkpt>
      <trkpt lat="49.8777" lon="2.33983">
        <ele>26.6</ele>
        <time>2023-10-06T12:01:30Z</time>
      </trkpt>
      <trkpt lat="49.8777" lon="2.33983">
        <ele>26.6</ele>
        <time>2023-10-06T12:01:31Z</time>
      </trkpt>
      <trkpt lat="49.8777" lon="2.33983">
        <ele>26.6</ele>
        <time>2023-10-06T12:01:32Z</time>
      </trkpt>
      <trkpt lat="49.8777" lon="2.33983">
        <ele>26.6</ele>
        <time>2023-10-06T12:01:33Z</time>
      </trkpt>
      <trkpt lat="49.8777" lon="2.33983">
        <ele>26.6</ele>
        <time>2023-10-06T12:01:34Z</time>
      </trkpt>
      <trkpt lat="49.8777" lon="2.33983">
        <ele>26.6</ele>
        <time>2023-10-06T12:01:35Z</time>
      </trkpt>
      <trkpt lat="49.8777" lon="2.33983">
        <ele>26.6</ele>
        <time>2023-10-06T12:01:36Z</time>
      </trkpt>
      <trkpt lat="49.8777" lon="2.33983">
        <ele>26.6</ele>
        <time>2023-10-06T12:01:37Z</time>
      </trkpt>
      <trkpt lat="49.8777" lon="2.33983">
        <ele>26.6</ele>
        <time>2023-10-06T12:01:38Z</time>
      </trkpt>
      <trkpt lat="49.8777" lon="2.33983">
        <ele>26.6</ele>
        <time>2023-10-06T12:01:39Z</time>
      </trkpt>
      <trkpt lat="49.8777" lon="2.33982">
        <ele>26.7</ele>
        <time>2023-10-06T12:01:40Z</time>
      </trkpt>
      <trkpt lat="49.8777" lon="2.33982">
        <ele>26.7</ele>
        <time>2023-10-06T12:01:41Z</time>
      </trkpt>
      <trkpt lat="49.8777" lon="2.33982">
        <ele>26.7</ele>
        <time>2023-10-06T12:01:42Z</time>
      </trkpt>
      <trkpt lat="49.8777" lon="2.33982">
        <ele>26.7</ele>
        <time>2023-10-06T12:01:43Z</time>
      </trkpt>
      <trkpt lat="49.8777" lon="2.33982">
        <ele>26.7</ele>
        <time>2023-10-06T12:01:44Z</time>
      </trkpt>
      <trkpt lat="49.8777" lon="2.33982">
        <ele>26.7</ele>
        <time>2023-10-06T12:01:45Z</time>
      </trkpt>
      <trkpt lat="49.8777" lon="2.33982">
        <ele>26.7</ele>
        <time>2023-10-06T12:01:46Z</time>
      </trkpt>
      <trkpt lat="49.8777" lon="2.33982">
        <ele>26.7</ele>
        <time>2023-10-06T12:01:47Z</time>
      </trkpt>
      <trkpt lat="49.8777" lon="2.33982">
        <ele>26.7</ele>
        <time>2023-10-06T12:01:48Z</time>
      </trkpt>
      <trkpt lat="49.8777" lon="2.33982">
        <ele>26.7</ele>
        <time>2023-10-06T12:01:49Z</time>
      </trkpt>
      <trkpt lat="49.8777" lon="2.33982">
        <ele>26.7</ele>
        <time>2023-10-06T12:01:50Z</time>
      </trkpt>
      <trkpt lat="49.8777" lon="2.33982">
        <ele>26.7</ele>
        <time>2023-10-06T12:01:51Z</time>
      </trkpt>
      <trkpt lat="49.8777" lon="2.33981">
        <ele>26.7</ele>
        <time>2023-10-06T12:01:52Z</time>
      </trkpt>
      <trkpt lat="49.8777" lon="2.33981">
        <ele>26.7</ele>
        <time>2023-10-06T12:01:53Z</time>
      </trkpt>
      <trkpt lat="49.8777" lon="2.33981">
        <ele>26.7</ele>
        <time>2023-10-06T12:01:54Z</time>
      </trkpt>
      <trkpt lat="49.87771" lon="2.33981">
        <ele>26.7</ele>
        <time>2023-10-06T12:01:55Z</time>
      </trkpt>
      <trkpt lat="49.87771" lon="2.33981">
        <ele>26.7</ele>
        <time>2023-10-06T12:01:56Z</time>
      </trkpt>
      <trkpt lat="49.87771" lon="2.33981">
        <ele>26.7</ele>
        <time>2023-10-06T12:01:57Z</time>
      </trkpt>
      <trkpt lat="49.87771" lon="2.33981">
        <ele>26.7</ele>
        <time>2023-10-06T12:01:58Z</time>
      </trkpt>
      <trkpt lat="49.87772" lon="2.33977">
        <ele>26.7</ele>
        <time>2023-10-06T12:01:59Z</time>
      </trkpt>
      <trkpt lat="49.87772" lon="2.33976">
        <ele>26.7</ele>
        <time>2023-10-06T12:02:00Z</time>
      </trkpt>
      <trkpt lat="49.87773" lon="2.33974">
        <ele>26.8</ele>
        <time>2023-10-06T12:02:01Z</time>
      </trkpt>
      <trkpt lat="49.87774" lon="2.33972">
        <ele>26.8</ele>
        <time>2023-10-06T12:02:02Z</time>
      </trkpt>
      <trkpt lat="49.87774" lon="2.33971">
        <ele>26.8</ele>
        <time>2023-10-06T12:02:03Z</time>
      </trkpt>
      <trkpt lat="49.87775" lon="2.3397">
        <ele>26.8</ele>
        <time>2023-10-06T12:02:04Z</time>
      </trkpt>
      <trkpt lat="49.87776" lon="2.33969">
        <ele>26.8</ele>
        <time>2023-10-06T12:02:05Z</time>
      </trkpt>
      <trkpt lat="49.87776" lon="2.33969">
        <ele>26.8</ele>
        <time>2023-10-06T12:02:06Z</time>
      </trkpt>
      <trkpt lat="49.87777" lon="2.33968">
        <ele>26.8</ele>
        <time>2023-10-06T12:02:07Z</time>
      </trkpt>
      <trkpt lat="49.87778" lon="2.33968">
        <ele>26.8</ele>
        <time>2023-10-06T12:02:08Z</time>
      </trkpt>
      <trkpt lat="49.87778" lon="2.33968">
        <ele>26.9</ele>
        <time>2023-10-06T12:02:09Z</time>
      </trkpt>
      <trkpt lat="49.87779" lon="2.33967">
        <ele>26.9</ele>
        <time>2023-10-06T12:02:10Z</time>
      </trkpt>
      <trkpt lat="49.8778" lon="2.33966">
        <ele>26.9</ele>
        <time>2023-10-06T12:02:11Z</time>
      </trkpt>
      <trkpt lat="49.87781" lon="2.33966">
        <ele>26.9</ele>
        <time>2023-10-06T12:02:12Z</time>
      </trkpt>
      <trkpt lat="49.87782" lon="2.33965">
        <ele>26.9</ele>
        <time>2023-10-06T12:02:13Z</time>
      </trkpt>
      <trkpt lat="49.87783" lon="2.33965">
        <ele>26.9</ele>
        <time>2023-10-06T12:02:14Z</time>
      </trkpt>
      <trkpt lat="49.87784" lon="2.33965">
        <ele>26.9</ele>
        <time>2023-10-06T12:02:15Z</time>
      </trkpt>
      <trkpt lat="49.87785" lon="2.33964">
        <ele>26.9</ele>
        <time>2023-10-06T12:02:16Z</time>
      </trkpt>
      <trkpt lat="49.87786" lon="2.33964">
        <ele>26.9</ele>
        <time>2023-10-06T12:02:17Z</time>
      </trkpt>
      <trkpt lat="49.87786" lon="2.33963">
        <ele>27</ele>
        <time>2023-10-06T12:02:18Z</time>
      </trkpt>
      <trkpt lat="49.87788" lon="2.33963">
        <ele>27</ele>
        <time>2023-10-06T12:02:19Z</time>
      </trkpt>
      <trkpt lat="49.87788" lon="2.33962">
        <ele>27</ele>
        <time>2023-10-06T12:02:20Z</time>
      </trkpt>
      <trkpt lat="49.87789" lon="2.33961">
        <ele>27</ele>
        <time>2023-10-06T12:02:21Z</time>
      </trkpt>
      <trkpt lat="49.8779" lon="2.3396">
        <ele>27</ele>
        <time>2023-10-06T12:02:22Z</time>
      </trkpt>
      <trkpt lat="49.87791" lon="2.33959">
        <ele>27</ele>
        <time>2023-10-06T12:02:23Z</time>
      </trkpt>
      <trkpt lat="49.87792" lon="2.33958">
        <ele>27</ele>
        <time>2023-10-06T12:02:24Z</time>
      </trkpt>
      <trkpt lat="49.87793" lon="2.33957">
        <ele>27</ele>
        <time>2023-10-06T12:02:25Z</time>
      </trkpt>
      <trkpt lat="49.87793" lon="2.33955">
        <ele>27</ele>
        <time>2023-10-06T12:02:26Z</time>
      </trkpt>
      <trkpt lat="49.87794" lon="2.33954">
        <ele>27.1</ele>
        <time>2023-10-06T12:02:27Z</time>
      </trkpt>
      <trkpt lat="49.87794" lon="2.33953">
        <ele>27.1</ele>
        <time>2023-10-06T12:02:28Z</time>
      </trkpt>
      <trkpt lat="49.87794" lon="2.33951">
        <ele>27.1</ele>
        <time>2023-10-06T12:02:29Z</time>
      </trkpt>
      <trkpt lat="49.87795" lon="2.3395">
        <ele>27.1</ele>
        <time>2023-10-06T12:02:30Z</time>
      </trkpt>
      <trkpt lat="49.87795" lon="2.33948">
        <ele>27.1</ele>
        <time>2023-10-06T12:02:31Z</time>
      </trkpt>
      <trkpt lat="49.87795" lon="2.33947">
        <ele>27.1</ele>
        <time>2023-10-06T12:02:32Z</time>
      </trkpt>
      <trkpt lat="49.87795" lon="2.33946">
        <ele>27.1</ele>
        <time>2023-10-06T12:02:33Z</time>
      </trkpt>
      <trkpt lat="49.87795" lon="2.33945">
        <ele>27.1</ele>
        <time>2023-10-06T12:02:34Z</time>
      </trkpt>
      <trkpt lat="49.87795" lon="2.33944">
        <ele>27.1</ele>
        <time>2023-10-06T12:02:35Z</time>
      </trkpt>
      <trkpt lat="49.87795" lon="2.33943">
        <ele>27.1</ele>
        <time>2023-10-06T12:02:36Z</time>
      </trkpt>
      <trkpt lat="49.87795" lon="2.33943">
        <ele>27.1</ele>
        <time>2023-10-06T12:02:37Z</time>
      </trkpt>
      <trkpt lat="49.87795" lon="2.33943">
        <ele>27.1</ele>
        <time>2023-10-06T12:02:38Z</time>
      </trkpt>
      <trkpt lat="49.87796" lon="2.33943">
        <ele>27.1</ele>
        <time>2023-10-06T12:02:39Z</time>
      </trkpt>
      <trkpt lat="49.87796" lon="2.33943">
        <ele>27.1</ele>
        <time>2023-10-06T12:02:40Z</time>
      </trkpt>
      <trkpt lat="49.87796" lon="2.33943">
        <ele>27.1</ele>
        <time>2023-10-06T12:02:41Z</time>
      </trkpt>
      <trkpt lat="49.87796" lon="2.33942">
        <ele>27.1</ele>
        <time>2023-10-06T12:02:42Z</time>
      </trkpt>
      <trkpt lat="49.87797" lon="2.33942">
        <ele>27.1</ele>
        <time>2023-10-06T12:02:43Z</time>
      </trkpt>
      <trkpt lat="49.87797" lon="2.33942">
        <ele>27.1</ele>
        <time>2023-10-06T12:02:44Z</time>
      </trkpt>
      <trkpt lat="49.87797" lon="2.33942">
        <ele>27.1</ele>
        <time>2023-10-06T12:02:45Z</time>
      </trkpt>
      <trkpt lat="49.87798" lon="2.33942">
        <ele>27.1</ele>
        <time>2023-10-06T12:02:46Z</time>
      </trkpt>
      <trkpt lat="49.87798" lon="2.33941">
        <ele>27.1</ele>
        <time>2023-10-06T12:02:47Z</time>
      </trkpt>
      <trkpt lat="49.87798" lon="2.33941">
        <ele>27.1</ele>
        <time>2023-10-06T12:02:48Z</time>
      </trkpt>
      <trkpt lat="49.87798" lon="2.33941">
        <ele>27.1</ele>
        <time>2023-10-06T12:02:49Z</time>
      </trkpt>
      <trkpt lat="49.87799" lon="2.33941">
        <ele>27.2</ele>
        <time>2023-10-06T12:02:50Z</time>
      </trkpt>
      <trkpt lat="49.87799" lon="2.3394">
        <ele>27.2</ele>
        <time>2023-10-06T12:02:51Z</time>
      </trkpt>
      <trkpt lat="49.87799" lon="2.33939">
        <ele>27.2</ele>
        <time>2023-10-06T12:02:52Z</time>
      </trkpt>
      <trkpt lat="49.87799" lon="2.33939">
        <ele>27.2</ele>
        <time>2023-10-06T12:02:53Z</time>
      </trkpt>
      <trkpt lat="49.87799" lon="2.33938">
        <ele>27.2</ele>
        <time>2023-10-06T12:02:54Z</time>
      </trkpt>
      <trkpt lat="49.87799" lon="2.33938">
        <ele>27.2</ele>
        <time>2023-10-06T12:02:55Z</time>
      </trkpt>
      <trkpt lat="49.87799" lon="2.33938">
        <ele>27.2</ele>
        <time>2023-10-06T12:02:56Z</time>
      </trkpt>
      <trkpt lat="49.87799" lon="2.33938">
        <ele>27.2</ele>
        <time>2023-10-06T12:02:57Z</time>
      </trkpt>
      <trkpt lat="49.87799" lon="2.33938">
        <ele>27.2</ele>
        <time>2023-10-06T12:02:58Z</time>
      </trkpt>
      <trkpt lat="49.87799" lon="2.33938">
        <ele>27.2</ele>
        <time>2023-10-06T12:02:59Z</time>
      </trkpt>
      <trkpt lat="49.87799" lon="2.33938">
        <ele>27.2</ele>
        <time>2023-10-06T12:03:00Z</time>
      </trkpt>
      <trkpt lat="49.87799" lon="2.33938">
        <ele>27.2</ele>
        <time>2023-10-06T12:03:01Z</time>
      </trkpt>
      <trkpt lat="49.87799" lon="2.33938">
        <ele>27.2</ele>
        <time>2023-10-06T12:03:02Z</time>
      </trkpt>
      <trkpt lat="49.87799" lon="2.33938">
        <ele>27.2</ele>
        <time>2023-10-06T12:03:03Z</time>
      </trkpt>
      <trkpt lat="49.87799" lon="2.33938">
        <ele>27.2</ele>
        <time>2023-10-06T12:03:04Z</time>
      </trkpt>
      <trkpt lat="49.87799" lon="2.33938">
        <ele>27.2</ele>
        <time>2023-10-06T12:03:05Z</time>
      </trkpt>
      <trkpt lat="49.87799" lon="2.33938">
        <ele>27.2</ele>
        <time>2023-10-06T12:03:06Z</time>
      </trkpt>
      <trkpt lat="49.87799" lon="2.33938">
        <ele>27.2</ele>
        <time>2023-10-06T12:03:07Z</time>
      </trkpt>
      <trkpt lat="49.87799" lon="2.33938">
        <ele>27.2</ele>
        <time>2023-10-06T12:03:08Z</time>
      </trkpt>
      <trkpt lat="49.87799" lon="2.33938">
        <ele>27.2</ele>
        <time>2023-10-06T12:03:09Z</time>
      </trkpt>
      <trkpt lat="49.87799" lon="2.33938">
        <ele>27.2</ele>
        <time>2023-10-06T12:03:10Z</time>
      </trkpt>
      <trkpt lat="49.87799" lon="2.33938">
        <ele>27.2</ele>
        <time>2023-10-06T12:03:11Z</time>
      </trkpt>
      <trkpt lat="49.87799" lon="2.33938">
        <ele>27.2</ele>
        <time>2023-10-06T12:03:12Z</time>
      </trkpt>
      <trkpt lat="49.87799" lon="2.33938">
        <ele>27.2</ele>
        <time>2023-10-06T12:03:13Z</time>
      </trkpt>
      <trkpt lat="49.87799" lon="2.33937">
        <ele>27.2</ele>
        <time>2023-10-06T12:03:14Z</time>
      </trkpt>
      <trkpt lat="49.87799" lon="2.33936">
        <ele>27.2</ele>
        <time>2023-10-06T12:03:15Z</time>
      </trkpt>
      <trkpt lat="49.87799" lon="2.33936">
        <ele>27.2</ele>
        <time>2023-10-06T12:03:16Z</time>
      </trkpt>
      <trkpt lat="49.87799" lon="2.33935">
        <ele>27.2</ele>
        <time>2023-10-06T12:03:17Z</time>
      </trkpt>
      <trkpt lat="49.87799" lon="2.33935">
        <ele>27.2</ele>
        <time>2023-10-06T12:03:18Z</time>
      </trkpt>
      <trkpt lat="49.878" lon="2.33935">
        <ele>27.2</ele>
        <time>2023-10-06T12:03:19Z</time>
      </trkpt>
      <trkpt lat="49.878" lon="2.33935">
        <ele>27.2</ele>
        <time>2023-10-06T12:03:20Z</time>
      </trkpt>
      <trkpt lat="49.878" lon="2.33934">
        <ele>27.2</ele>
        <time>2023-10-06T12:03:21Z</time>
      </trkpt>
      <trkpt lat="49.878" lon="2.33934">
        <ele>27.2</ele>
        <time>2023-10-06T12:03:22Z</time>
      </trkpt>
      <trkpt lat="49.878" lon="2.33933">
        <ele>27.2</ele>
        <time>2023-10-06T12:03:23Z</time>
      </trkpt>
      <trkpt lat="49.878" lon="2.33931">
        <ele>27.2</ele>
        <time>2023-10-06T12:03:24Z</time>
      </trkpt>
      <trkpt lat="49.87801" lon="2.3393">
        <ele>27.2</ele>
        <time>2023-10-06T12:03:25Z</time>
      </trkpt>
      <trkpt lat="49.87801" lon="2.33929">
        <ele>27.2</ele>
        <time>2023-10-06T12:03:26Z</time>
      </trkpt>
      <trkpt lat="49.87801" lon="2.33927">
        <ele>27.2</ele>
        <time>2023-10-06T12:03:27Z</time>
      </trkpt>
      <trkpt lat="49.87801" lon="2.33926">
        <ele>27.2</ele>
        <time>2023-10-06T12:03:28Z</time>
      </trkpt>
      <trkpt lat="49.87802" lon="2.33925">
        <ele>27.2</ele>
        <time>2023-10-06T12:03:29Z</time>
      </trkpt>
      <trkpt lat="49.87802" lon="2.33924">
        <ele>27.3</ele>
        <time>2023-10-06T12:03:30Z</time>
      </trkpt>
      <trkpt lat="49.87802" lon="2.33922">
        <ele>27.3</ele>
        <time>2023-10-06T12:03:31Z</time>
      </trkpt>
      <trkpt lat="49.87802" lon="2.33921">
        <ele>27.3</ele>
        <time>2023-10-06T12:03:32Z</time>
      </trkpt>
      <trkpt lat="49.87803" lon="2.33919">
        <ele>27.3</ele>
        <time>2023-10-06T12:03:33Z</time>
      </trkpt>
      <trkpt lat="49.87803" lon="2.33918">
        <ele>27.3</ele>
        <time>2023-10-06T12:03:34Z</time>
      </trkpt>
      <trkpt lat="49.87803" lon="2.33916">
        <ele>27.3</ele>
        <time>2023-10-06T12:03:35Z</time>
      </trkpt>
      <trkpt lat="49.87803" lon="2.33915">
        <ele>27.3</ele>
        <time>2023-10-06T12:03:36Z</time>
      </trkpt>
      <trkpt lat="49.87804" lon="2.33913">
        <ele>27.3</ele>
        <time>2023-10-06T12:03:37Z</time>
      </trkpt>
      <trkpt lat="49.87804" lon="2.33912">
        <ele>27.3</ele>
        <time>2023-10-06T12:03:38Z</time>
      </trkpt>
      <trkpt lat="49.87804" lon="2.33911">
        <ele>27.3</ele>
        <time>2023-10-06T12:03:39Z</time>
      </trkpt>
      <trkpt lat="49.87804" lon="2.33909">
        <ele>27.3</ele>
        <time>2023-10-06T12:03:40Z</time>
      </trkpt>
      <trkpt lat="49.87805" lon="2.33908">
        <ele>27.3</ele>
        <time>2023-10-06T12:03:41Z</time>
      </trkpt>
      <trkpt lat="49.87805" lon="2.33906">
        <ele>27.3</ele>
        <time>2023-10-06T12:03:42Z</time>
      </trkpt>
      <trkpt lat="49.87805" lon="2.33904">
        <ele>27.3</ele>
        <time>2023-10-06T12:03:43Z</time>
      </trkpt>
      <trkpt lat="49.87806" lon="2.33902">
        <ele>27.4</ele>
        <time>2023-10-06T12:03:44Z</time>
      </trkpt>
      <trkpt lat="49.87806" lon="2.339">
        <ele>27.4</ele>
        <time>2023-10-06T12:03:45Z</time>
      </trkpt>
      <trkpt lat="49.87807" lon="2.33898">
        <ele>27.4</ele>
        <time>2023-10-06T12:03:46Z</time>
      </trkpt>
      <trkpt lat="49.87807" lon="2.33896">
        <ele>27.4</ele>
        <time>2023-10-06T12:03:47Z</time>
      </trkpt>
      <trkpt lat="49.87807" lon="2.33894">
        <ele>27.4</ele>
        <time>2023-10-06T12:03:48Z</time>
      </trkpt>
      <trkpt lat="49.87808" lon="2.33893">
        <ele>27.4</ele>
        <time>2023-10-06T12:03:49Z</time>
      </trkpt>
      <trkpt lat="49.87808" lon="2.33891">
        <ele>27.4</ele>
        <time>2023-10-06T12:03:50Z</time>
      </trkpt>
      <trkpt lat="49.87809" lon="2.3389">
        <ele>27.4</ele>
        <time>2023-10-06T12:03:51Z</time>
      </trkpt>
      <trkpt lat="49.87809" lon="2.33888">
        <ele>27.4</ele>
        <time>2023-10-06T12:03:52Z</time>
      </trkpt>
      <trkpt lat="49.8781" lon="2.33887">
        <ele>27.4</ele>
        <time>2023-10-06T12:03:53Z</time>
      </trkpt>
      <trkpt lat="49.8781" lon="2.33885">
        <ele>27.4</ele>
        <time>2023-10-06T12:03:54Z</time>
      </trkpt>
      <trkpt lat="49.87811" lon="2.33884">
        <ele>27.5</ele>
        <time>2023-10-06T12:03:55Z</time>
      </trkpt>
      <trkpt lat="49.87811" lon="2.33882">
        <ele>27.5</ele>
        <time>2023-10-06T12:03:56Z</time>
      </trkpt>
      <trkpt lat="49.87812" lon="2.33881">
        <ele>27.5</ele>
        <time>2023-10-06T12:03:57Z</time>
      </trkpt>
      <trkpt lat="49.87812" lon="2.33879">
        <ele>27.5</ele>
        <time>2023-10-06T12:03:58Z</time>
      </trkpt>
      <trkpt lat="49.87813" lon="2.33878">
        <ele>27.5</ele>
        <time>2023-10-06T12:03:59Z</time>
      </trkpt>
      <trkpt lat="49.87813" lon="2.33877">
        <ele>27.5</ele>
        <time>2023-10-06T12:04:00Z</time>
      </trkpt>
      <trkpt lat="49.87814" lon="2.33875">
        <ele>27.5</ele>
        <time>2023-10-06T12:04:01Z</time>
      </trkpt>
      <trkpt lat="49.87815" lon="2.33874">
        <ele>27.5</ele>
        <time>2023-10-06T12:04:02Z</time>
      </trkpt>
      <trkpt lat="49.87815" lon="2.33872">
        <ele>27.5</ele>
        <time>2023-10-06T12:04:03Z</time>
      </trkpt>
      <trkpt lat="49.87816" lon="2.33871">
        <ele>27.5</ele>
        <time>2023-10-06T12:04:04Z</time>
      </trkpt>
      <trkpt lat="49.87816" lon="2.3387">
        <ele>27.6</ele>
        <time>2023-10-06T12:04:05Z</time>
      </trkpt>
      <trkpt lat="49.87817" lon="2.33869">
        <ele>27.6</ele>
        <time>2023-10-06T12:04:06Z</time>
      </trkpt>
      <trkpt lat="49.87817" lon="2.33868">
        <ele>27.6</ele>
        <time>2023-10-06T12:04:07Z</time>
      </trkpt>
      <trkpt lat="49.87818" lon="2.33866">
        <ele>27.6</ele>
        <time>2023-10-06T12:04:08Z</time>
      </trkpt>
      <trkpt lat="49.87818" lon="2.33865">
        <ele>27.6</ele>
        <time>2023-10-06T12:04:09Z</time>
      </trkpt>
      <trkpt lat="49.87819" lon="2.33864">
        <ele>27.6</ele>
        <time>2023-10-06T12:04:10Z</time>
      </trkpt>
      <trkpt lat="49.87819" lon="2.33863">
        <ele>27.6</ele>
        <time>2023-10-06T12:04:11Z</time>
      </trkpt>
      <trkpt lat="49.8782" lon="2.33862">
        <ele>27.6</ele>
        <time>2023-10-06T12:04:12Z</time>
      </trkpt>
      <trkpt lat="49.8782" lon="2.33861">
        <ele>27.6</ele>
        <time>2023-10-06T12:04:13Z</time>
      </trkpt>
      <trkpt lat="49.87821" lon="2.3386">
        <ele>27.6</ele>
        <time>2023-10-06T12:04:14Z</time>
      </trkpt>
      <trkpt lat="49.87821" lon="2.33859">
        <ele>27.6</ele>
        <time>2023-10-06T12:04:15Z</time>
      </trkpt>
      <trkpt lat="49.87822" lon="2.33858">
        <ele>27.6</ele>
        <time>2023-10-06T12:04:16Z</time>
      </trkpt>
      <trkpt lat="49.87822" lon="2.33857">
        <ele>27.6</ele>
        <time>2023-10-06T12:04:17Z</time>
      </trkpt>
      <trkpt lat="49.87822" lon="2.33857">
        <ele>27.7</ele>
        <time>2023-10-06T12:04:18Z</time>
      </trkpt>
      <trkpt lat="49.87822" lon="2.33856">
        <ele>27.7</ele>
        <time>2023-10-06T12:04:19Z</time>
      </trkpt>
      <trkpt lat="49.87823" lon="2.33855">
        <ele>27.7</ele>
        <time>2023-10-06T12:04:20Z</time>
      </trkpt>
      <trkpt lat="49.87823" lon="2.33853">
        <ele>27.7</ele>
        <time>2023-10-06T12:04:21Z</time>
      </trkpt>
      <trkpt lat="49.87823" lon="2.33852">
        <ele>27.7</ele>
        <time>2023-10-06T12:04:22Z</time>
      </trkpt>
      <trkpt lat="49.87823" lon="2.33851">
        <ele>27.7</ele>
        <time>2023-10-06T12:04:23Z</time>
      </trkpt>
      <trkpt lat="49.87823" lon="2.3385">
        <ele>27.7</ele>
        <time>2023-10-06T12:04:24Z</time>
      </trkpt>
      <trkpt lat="49.87824" lon="2.33849">
        <ele>27.7</ele>
        <time>2023-10-06T12:04:25Z</time>
      </trkpt>
      <trkpt lat="49.87824" lon="2.33848">
        <ele>27.7</ele>
        <time>2023-10-06T12:04:26Z</time>
      </trkpt>
      <trkpt lat="49.87824" lon="2.33847">
        <ele>27.7</ele>
        <time>2023-10-06T12:04:27Z</time>
      </trkpt>
      <trkpt lat="49.87824" lon="2.33846">
        <ele>27.7</ele>
        <time>2023-10-06T12:04:28Z</time>
      </trkpt>
      <trkpt lat="49.87824" lon="2.33845">
        <ele>27.7</ele>
        <time>2023-10-06T12:04:29Z</time>
      </trkpt>
      <trkpt lat="49.87825" lon="2.33844">
        <ele>27.7</ele>
        <time>2023-10-06T12:04:30Z</time>
      </trkpt>
      <trkpt lat="49.87825" lon="2.33842">
        <ele>27.7</ele>
        <time>2023-10-06T12:04:31Z</time>
      </trkpt>
      <trkpt lat="49.87825" lon="2.3384">
        <ele>27.7</ele>
        <time>2023-10-06T12:04:32Z</time>
      </trkpt>
      <trkpt lat="49.87825" lon="2.33839">
        <ele>27.8</ele>
        <time>2023-10-06T12:04:33Z</time>
      </trkpt>
      <trkpt lat="49.87826" lon="2.33838">
        <ele>27.8</ele>
        <time>2023-10-06T12:04:34Z</time>
      </trkpt>
      <trkpt lat="49.87826" lon="2.33837">
        <ele>27.8</ele>
        <time>2023-10-06T12:04:35Z</time>
      </trkpt>
      <trkpt lat="49.87826" lon="2.33835">
        <ele>27.8</ele>
        <time>2023-10-06T12:04:36Z</time>
      </trkpt>
      <trkpt lat="49.87827" lon="2.33834">
        <ele>27.8</ele>
        <time>2023-10-06T12:04:37Z</time>
      </trkpt>
      <trkpt lat="49.87827" lon="2.33833">
        <ele>27.8</ele>
        <time>2023-10-06T12:04:38Z</time>
      </trkpt>
      <trkpt lat="49.87827" lon="2.33831">
        <ele>27.8</ele>
        <time>2023-10-06T12:04:39Z</time>
      </trkpt>
      <trkpt lat="49.87828" lon="2.3383">
        <ele>27.8</ele>
        <time>2023-10-06T12:04:40Z</time>
      </trkpt>
      <trkpt lat="49.87828" lon="2.33828">
        <ele>27.8</ele>
        <time>2023-10-06T12:04:41Z</time>
      </trkpt>
      <trkpt lat="49.87829" lon="2.33827">
        <ele>27.8</ele>
        <time>2023-10-06T12:04:42Z</time>
      </trkpt>
      <trkpt lat="49.87829" lon="2.33826">
        <ele>27.8</ele>
        <time>2023-10-06T12:04:43Z</time>
      </trkpt>
      <trkpt lat="49.87829" lon="2.33825">
        <ele>27.8</ele>
        <time>2023-10-06T12:04:44Z</time>
      </trkpt>
      <trkpt lat="49.8783" lon="2.33823">
        <ele>27.8</ele>
        <time>2023-10-06T12:04:45Z</time>
      </trkpt>
      <trkpt lat="49.8783" lon="2.33822">
        <ele>27.8</ele>
        <time>2023-10-06T12:04:46Z</time>
      </trkpt>
      <trkpt lat="49.8783" lon="2.33821">
        <ele>27.8</ele>
        <time>2023-10-06T12:04:47Z</time>
      </trkpt>
      <trkpt lat="49.87831" lon="2.3382">
        <ele>27.8</ele>
        <time>2023-10-06T12:04:48Z</time>
      </trkpt>
      <trkpt lat="49.87831" lon="2.33819">
        <ele>27.8</ele>
        <time>2023-10-06T12:04:49Z</time>
      </trkpt>
      <trkpt lat="49.87831" lon="2.33818">
        <ele>27.9</ele>
        <time>2023-10-06T12:04:50Z</time>
      </trkpt>
      <trkpt lat="49.87832" lon="2.33817">
        <ele>27.9</ele>
        <time>2023-10-06T12:04:51Z</time>
      </trkpt>
      <trkpt lat="49.87832" lon="2.33816">
        <ele>27.9</ele>
        <time>2023-10-06T12:04:52Z</time>
      </trkpt>
      <trkpt lat="49.87832" lon="2.33815">
        <ele>27.9</ele>
        <time>2023-10-06T12:04:53Z</time>
      </trkpt>
      <trkpt lat="49.87833" lon="2.33813">
        <ele>27.9</ele>
        <time>2023-10-06T12:04:54Z</time>
      </trkpt>
      <trkpt lat="49.87833" lon="2.33812">
        <ele>27.9</ele>
        <time>2023-10-06T12:04:55Z</time>
      </trkpt>
      <trkpt lat="49.87833" lon="2.33811">
        <ele>27.9</ele>
        <time>2023-10-06T12:04:56Z</time>
      </trkpt>
      <trkpt lat="49.87834" lon="2.3381">
        <ele>27.9</ele>
        <time>2023-10-06T12:04:57Z</time>
      </trkpt>
      <trkpt lat="49.87834" lon="2.33809">
        <ele>27.9</ele>
        <time>2023-10-06T12:04:58Z</time>
      </trkpt>
      <trkpt lat="49.87835" lon="2.33807">
        <ele>27.9</ele>
        <time>2023-10-06T12:04:59Z</time>
      </trkpt>
      <trkpt lat="49.87835" lon="2.33806">
        <ele>27.9</ele>
        <time>2023-10-06T12:05:00Z</time>
      </trkpt>
      <trkpt lat="49.87835" lon="2.33805">
        <ele>27.9</ele>
        <time>2023-10-06T12:05:01Z</time>
      </trkpt>
      <trkpt lat="49.87835" lon="2.33803">
        <ele>27.9</ele>
        <time>2023-10-06T12:05:02Z</time>
      </trkpt>
      <trkpt lat="49.87836" lon="2.33802">
        <ele>27.9</ele>
        <time>2023-10-06T12:05:03Z</time>
      </trkpt>
      <trkpt lat="49.87836" lon="2.33801">
        <ele>27.9</ele>
        <time>2023-10-06T12:05:04Z</time>
      </trkpt>
      <trkpt lat="49.87836" lon="2.338">
        <ele>27.9</ele>
        <time>2023-10-06T12:05:05Z</time>
      </trkpt>
      <trkpt lat="49.87836" lon="2.33798">
        <ele>28</ele>
        <time>2023-10-06T12:05:06Z</time>
      </trkpt>
      <trkpt lat="49.87837" lon="2.33797">
        <ele>28</ele>
        <time>2023-10-06T12:05:07Z</time>
      </trkpt>
      <trkpt lat="49.87837" lon="2.33795">
        <ele>28</ele>
        <time>2023-10-06T12:05:08Z</time>
      </trkpt>
      <trkpt lat="49.87838" lon="2.33793">
        <ele>28</ele>
        <time>2023-10-06T12:05:09Z</time>
      </trkpt>
      <trkpt lat="49.87838" lon="2.33792">
        <ele>28</ele>
        <time>2023-10-06T12:05:10Z</time>
      </trkpt>
      <trkpt lat="49.87838" lon="2.3379">
        <ele>28</ele>
        <time>2023-10-06T12:05:11Z</time>
      </trkpt>
      <trkpt lat="49.87839" lon="2.33789">
        <ele>28</ele>
        <time>2023-10-06T12:05:12Z</time>
      </trkpt>
      <trkpt lat="49.87839" lon="2.33788">
        <ele>28</ele>
        <time>2023-10-06T12:05:13Z</time>
      </trkpt>
      <trkpt lat="49.8784" lon="2.33786">
        <ele>28</ele>
        <time>2023-10-06T12:05:14Z</time>
      </trkpt>
      <trkpt lat="49.8784" lon="2.33784">
        <ele>28</ele>
        <time>2023-10-06T12:05:15Z</time>
      </trkpt>
      <trkpt lat="49.87841" lon="2.33783">
        <ele>28</ele>
        <time>2023-10-06T12:05:16Z</time>
      </trkpt>
      <trkpt lat="49.87841" lon="2.33781">
        <ele>28</ele>
        <time>2023-10-06T12:05:17Z</time>
      </trkpt>
      <trkpt lat="49.87842" lon="2.3378">
        <ele>28.1</ele>
        <time>2023-10-06T12:05:18Z</time>
      </trkpt>
      <trkpt lat="49.87842" lon="2.33778">
        <ele>28.1</ele>
        <time>2023-10-06T12:05:19Z</time>
      </trkpt>
      <trkpt lat="49.87843" lon="2.33777">
        <ele>28.1</ele>
        <time>2023-10-06T12:05:20Z</time>
      </trkpt>
      <trkpt lat="49.87843" lon="2.33775">
        <ele>28.1</ele>
        <time>2023-10-06T12:05:21Z</time>
      </trkpt>
      <trkpt lat="49.87844" lon="2.33774">
        <ele>28.1</ele>
        <time>2023-10-06T12:05:22Z</time>
      </trkpt>
      <trkpt lat="49.87844" lon="2.33772">
        <ele>28.1</ele>
        <time>2023-10-06T12:05:23Z</time>
      </trkpt>
      <trkpt lat="49.87845" lon="2.3377">
        <ele>28.1</ele>
        <time>2023-10-06T12:05:24Z</time>
      </trkpt>
      <trkpt lat="49.87845" lon="2.33769">
        <ele>28.2</ele>
        <time>2023-10-06T12:05:25Z</time>
      </trkpt>
      <trkpt lat="49.87846" lon="2.33766">
        <ele>28.2</ele>
        <time>2023-10-06T12:05:26Z</time>
      </trkpt>
      <trkpt lat="49.87847" lon="2.33765">
        <ele>28.2</ele>
        <time>2023-10-06T12:05:27Z</time>
      </trkpt>
      <trkpt lat="49.87847" lon="2.33764">
        <ele>28.2</ele>
        <time>2023-10-06T12:05:28Z</time>
      </trkpt>
      <trkpt lat="49.87848" lon="2.33762">
        <ele>28.2</ele>
        <time>2023-10-06T12:05:29Z</time>
      </trkpt>
      <trkpt lat="49.87849" lon="2.3376">
        <ele>28.2</ele>
        <time>2023-10-06T12:05:30Z</time>
      </trkpt>
      <trkpt lat="49.8785" lon="2.33757">
        <ele>28.3</ele>
        <time>2023-10-06T12:05:31Z</time>
      </trkpt>
      <trkpt lat="49.8785" lon="2.33755">
        <ele>28.3</ele>
        <time>2023-10-06T12:05:32Z</time>
      </trkpt>
      <trkpt lat="49.87851" lon="2.33753">
        <ele>28.3</ele>
        <time>2023-10-06T12:05:33Z</time>
      </trkpt>
      <trkpt lat="49.87852" lon="2.33751">
        <ele>28.3</ele>
        <time>2023-10-06T12:05:34Z</time>
      </trkpt>
      <trkpt lat="49.87852" lon="2.33749">
        <ele>28.3</ele>
        <time>2023-10-06T12:05:35Z</time>
      </trkpt>
      <trkpt lat="49.87853" lon="2.33747">
        <ele>28.3</ele>
        <time>2023-10-06T12:05:36Z</time>
      </trkpt>
      <trkpt lat="49.87854" lon="2.33745">
        <ele>28.4</ele>
        <time>2023-10-06T12:05:37Z</time>
      </trkpt>
      <trkpt lat="49.87855" lon="2.33742">
        <ele>28.4</ele>
        <time>2023-10-06T12:05:38Z</time>
      </trkpt>
      <trkpt lat="49.87855" lon="2.3374">
        <ele>28.4</ele>
        <time>2023-10-06T12:05:39Z</time>
      </trkpt>
      <trkpt lat="49.87856" lon="2.33737">
        <ele>28.4</ele>
        <time>2023-10-06T12:05:40Z</time>
      </trkpt>
      <trkpt lat="49.87857" lon="2.33735">
        <ele>28.4</ele>
        <time>2023-10-06T12:05:41Z</time>
      </trkpt>
      <trkpt lat="49.87858" lon="2.33733">
        <ele>28.5</ele>
        <time>2023-10-06T12:05:42Z</time>
      </trkpt>
      <trkpt lat="49.8786" lon="2.33731">
        <ele>28.5</ele>
        <time>2023-10-06T12:05:43Z</time>
      </trkpt>
      <trkpt lat="49.8786" lon="2.33731">
        <ele>28.5</ele>
        <time>2023-10-06T12:05:44Z</time>
      </trkpt>
      <trkpt lat="49.87861" lon="2.3373">
        <ele>28.5</ele>
        <time>2023-10-06T12:05:45Z</time>
      </trkpt>
      <trkpt lat="49.87862" lon="2.33729">
        <ele>28.5</ele>
        <time>2023-10-06T12:05:46Z</time>
      </trkpt>
      <trkpt lat="49.87863" lon="2.33728">
        <ele>28.5</ele>
        <time>2023-10-06T12:05:47Z</time>
      </trkpt>
      <trkpt lat="49.87864" lon="2.33727">
        <ele>28.5</ele>
        <time>2023-10-06T12:05:48Z</time>
      </trkpt>
      <trkpt lat="49.87865" lon="2.33726">
        <ele>28.6</ele>
        <time>2023-10-06T12:05:49Z</time>
      </trkpt>
      <trkpt lat="49.87865" lon="2.33724">
        <ele>28.6</ele>
        <time>2023-10-06T12:05:50Z</time>
      </trkpt>
      <trkpt lat="49.87866" lon="2.33723">
        <ele>28.6</ele>
        <time>2023-10-06T12:05:51Z</time>
      </trkpt>
      <trkpt lat="49.87866" lon="2.33722">
        <ele>28.6</ele>
        <time>2023-10-06T12:05:52Z</time>
      </trkpt>
      <trkpt lat="49.87867" lon="2.3372">
        <ele>28.6</ele>
        <time>2023-10-06T12:05:53Z</time>
      </trkpt>
      <trkpt lat="49.87867" lon="2.33719">
        <ele>28.6</ele>
        <time>2023-10-06T12:05:54Z</time>
      </trkpt>
      <trkpt lat="49.87868" lon="2.33718">
        <ele>28.6</ele>
        <time>2023-10-06T12:05:55Z</time>
      </trkpt>
      <trkpt lat="49.87868" lon="2.33717">
        <ele>28.6</ele>
        <time>2023-10-06T12:05:56Z</time>
      </trkpt>
      <trkpt lat="49.87868" lon="2.33716">
        <ele>28.6</ele>
        <time>2023-10-06T12:05:57Z</time>
      </trkpt>
      <trkpt lat="49.87868" lon="2.33715">
        <ele>28.6</ele>
        <time>2023-10-06T12:05:58Z</time>
      </trkpt>
      <trkpt lat="49.87869" lon="2.33714">
        <ele>28.6</ele>
        <time>2023-10-06T12:05:59Z</time>
      </trkpt>
      <trkpt lat="49.87869" lon="2.33713">
        <ele>28.6</ele>
        <time>2023-10-06T12:06:00Z</time>
      </trkpt>
      <trkpt lat="49.8787" lon="2.33712">
        <ele>28.6</ele>
        <time>2023-10-06T12:06:01Z</time>
      </trkpt>
      <trkpt lat="49.8787" lon="2.33711">
        <ele>28.6</ele>
        <time>2023-10-06T12:06:02Z</time>
      </trkpt>
      <trkpt lat="49.87871" lon="2.3371">
        <ele>28.6</ele>
        <time>2023-10-06T12:06:03Z</time>
      </trkpt>
      <trkpt lat="49.87871" lon="2.33708">
        <ele>28.7</ele>
        <time>2023-10-06T12:06:04Z</time>
      </trkpt>
      <trkpt lat="49.87872" lon="2.33707">
        <ele>28.7</ele>
        <time>2023-10-06T12:06:05Z</time>
      </trkpt>
      <trkpt lat="49.87872" lon="2.33705">
        <ele>28.7</ele>
        <time>2023-10-06T12:06:06Z</time>
      </trkpt>
      <trkpt lat="49.87872" lon="2.33704">
        <ele>28.7</ele>
        <time>2023-10-06T12:06:07Z</time>
      </trkpt>
      <trkpt lat="49.87873" lon="2.33703">
        <ele>28.7</ele>
        <time>2023-10-06T12:06:08Z</time>
      </trkpt>
      <trkpt lat="49.87873" lon="2.33702">
        <ele>28.7</ele>
        <time>2023-10-06T12:06:09Z</time>
      </trkpt>
      <trkpt lat="49.87873" lon="2.337">
        <ele>28.7</ele>
        <time>2023-10-06T12:06:10Z</time>
      </trkpt>
      <trkpt lat="49.87874" lon="2.33698">
        <ele>28.7</ele>
        <time>2023-10-06T12:06:11Z</time>
      </trkpt>
      <trkpt lat="49.87874" lon="2.33697">
        <ele>28.7</ele>
        <time>2023-10-06T12:06:12Z</time>
      </trkpt>
      <trkpt lat="49.87874" lon="2.33695">
        <ele>28.7</ele>
        <time>2023-10-06T12:06:13Z</time>
      </trkpt>
      <trkpt lat="49.87875" lon="2.33693">
        <ele>28.7</ele>
        <time>2023-10-06T12:06:14Z</time>
      </trkpt>
      <trkpt lat="49.87875" lon="2.33692">
        <ele>28.7</ele>
        <time>2023-10-06T12:06:15Z</time>
      </trkpt>
      <trkpt lat="49.87876" lon="2.33691">
        <ele>28.7</ele>
        <time>2023-10-06T12:06:16Z</time>
      </trkpt>
      <trkpt lat="49.87876" lon="2.3369">
        <ele>28.7</ele>
        <time>2023-10-06T12:06:17Z</time>
      </trkpt>
      <trkpt lat="49.87877" lon="2.33689">
        <ele>28.8</ele>
        <time>2023-10-06T12:06:18Z</time>
      </trkpt>
      <trkpt lat="49.87877" lon="2.33688">
        <ele>28.8</ele>
        <time>2023-10-06T12:06:19Z</time>
      </trkpt>
      <trkpt lat="49.87878" lon="2.33687">
        <ele>28.8</ele>
        <time>2023-10-06T12:06:20Z</time>
      </trkpt>
      <trkpt lat="49.87878" lon="2.33686">
        <ele>28.8</ele>
        <time>2023-10-06T12:06:21Z</time>
      </trkpt>
      <trkpt lat="49.87878" lon="2.33685">
        <ele>28.8</ele>
        <time>2023-10-06T12:06:22Z</time>
      </trkpt>
      <trkpt lat="49.87879" lon="2.33683">
        <ele>28.8</ele>
        <time>2023-10-06T12:06:23Z</time>
      </trkpt>
      <trkpt lat="49.87879" lon="2.33682">
        <ele>28.8</ele>
        <time>2023-10-06T12:06:24Z</time>
      </trkpt>
      <trkpt lat="49.87879" lon="2.33681">
        <ele>28.8</ele>
        <time>2023-10-06T12:06:25Z</time>
      </trkpt>
      <trkpt lat="49.87879" lon="2.3368">
        <ele>28.8</ele>
        <time>2023-10-06T12:06:26Z</time>
      </trkpt>
      <trkpt lat="49.87879" lon="2.33679">
        <ele>28.8</ele>
        <time>2023-10-06T12:06:27Z</time>
      </trkpt>
      <trkpt lat="49.87878" lon="2.33677">
        <ele>28.8</ele>
        <time>2023-10-06T12:06:28Z</time>
      </trkpt>
      <trkpt lat="49.87878" lon="2.33676">
        <ele>28.8</ele>
        <time>2023-10-06T12:06:29Z</time>
      </trkpt>
      <trkpt lat="49.87878" lon="2.33675">
        <ele>28.8</ele>
        <time>2023-10-06T12:06:30Z</time>
      </trkpt>
      <trkpt lat="49.87878" lon="2.33674">
        <ele>28.8</ele>
        <time>2023-10-06T12:06:31Z</time>
      </trkpt>
      <trkpt lat="49.87878" lon="2.33673">
        <ele>28.8</ele>
        <time>2023-10-06T12:06:32Z</time>
      </trkpt>
      <trkpt lat="49.87878" lon="2.33672">
        <ele>28.8</ele>
        <time>2023-10-06T12:06:33Z</time>
      </trkpt>
      <trkpt lat="49.87878" lon="2.33671">
        <ele>28.8</ele>
        <time>2023-10-06T12:06:34Z</time>
      </trkpt>
      <trkpt lat="49.87877" lon="2.3367">
        <ele>28.8</ele>
        <time>2023-10-06T12:06:35Z</time>
      </trkpt>
      <trkpt lat="49.87878" lon="2.33668">
        <ele>28.8</ele>
        <time>2023-10-06T12:06:36Z</time>
      </trkpt>
      <trkpt lat="49.87878" lon="2.33667">
        <ele>28.8</ele>
        <time>2023-10-06T12:06:37Z</time>
      </trkpt>
      <trkpt lat="49.87878" lon="2.33666">
        <ele>28.9</ele>
        <time>2023-10-06T12:06:38Z</time>
      </trkpt>
      <trkpt lat="49.87878" lon="2.33664">
        <ele>28.9</ele>
        <time>2023-10-06T12:06:39Z</time>
      </trkpt>
      <trkpt lat="49.87878" lon="2.33663">
        <ele>28.9</ele>
        <time>2023-10-06T12:06:40Z</time>
      </trkpt>
      <trkpt lat="49.87879" lon="2.33661">
        <ele>28.9</ele>
        <time>2023-10-06T12:06:41Z</time>
      </trkpt>
      <trkpt lat="49.87879" lon="2.3366">
        <ele>28.9</ele>
        <time>2023-10-06T12:06:42Z</time>
      </trkpt>
      <trkpt lat="49.8788" lon="2.33658">
        <ele>28.9</ele>
        <time>2023-10-06T12:06:43Z</time>
      </trkpt>
      <trkpt lat="49.8788" lon="2.33657">
        <ele>28.9</ele>
        <time>2023-10-06T12:06:44Z</time>
      </trkpt>
      <trkpt lat="49.87881" lon="2.33655">
        <ele>28.9</ele>
        <time>2023-10-06T12:06:45Z</time>
      </trkpt>
      <trkpt lat="49.87881" lon="2.33654">
        <ele>28.9</ele>
        <time>2023-10-06T12:06:46Z</time>
      </trkpt>
      <trkpt lat="49.87882" lon="2.33652">
        <ele>29</ele>
        <time>2023-10-06T12:06:47Z</time>
      </trkpt>
      <trkpt lat="49.87882" lon="2.33651">
        <ele>29</ele>
        <time>2023-10-06T12:06:48Z</time>
      </trkpt>
      <trkpt lat="49.87883" lon="2.33649">
        <ele>29</ele>
        <time>2023-10-06T12:06:49Z</time>
      </trkpt>
      <trkpt lat="49.87883" lon="2.33648">
        <ele>29</ele>
        <time>2023-10-06T12:06:50Z</time>
      </trkpt>
      <trkpt lat="49.87884" lon="2.33647">
        <ele>29</ele>
        <time>2023-10-06T12:06:51Z</time>
      </trkpt>
      <trkpt lat="49.87884" lon="2.33646">
        <ele>29</ele>
        <time>2023-10-06T12:06:52Z</time>
      </trkpt>
      <trkpt lat="49.87884" lon="2.33645">
        <ele>29</ele>
        <time>2023-10-06T12:06:53Z</time>
      </trkpt>
      <trkpt lat="49.87884" lon="2.33644">
        <ele>29</ele>
        <time>2023-10-06T12:06:54Z</time>
      </trkpt>
      <trkpt lat="49.87884" lon="2.33643">
        <ele>29</ele>
        <time>2023-10-06T12:06:55Z</time>
      </trkpt>
      <trkpt lat="49.87884" lon="2.33641">
        <ele>29</ele>
        <time>2023-10-06T12:06:56Z</time>
      </trkpt>
      <trkpt lat="49.87884" lon="2.3364">
        <ele>29.1</ele>
        <time>2023-10-06T12:06:57Z</time>
      </trkpt>
      <trkpt lat="49.87885" lon="2.33639">
        <ele>29.1</ele>
        <time>2023-10-06T12:06:58Z</time>
      </trkpt>
      <trkpt lat="49.87885" lon="2.33637">
        <ele>29.1</ele>
        <time>2023-10-06T12:06:59Z</time>
      </trkpt>
      <trkpt lat="49.87885" lon="2.33636">
        <ele>29.1</ele>
        <time>2023-10-06T12:07:00Z</time>
      </trkpt>
      <trkpt lat="49.87886" lon="2.33634">
        <ele>29.1</ele>
        <time>2023-10-06T12:07:01Z</time>
      </trkpt>
      <trkpt lat="49.87886" lon="2.33633">
        <ele>29.1</ele>
        <time>2023-10-06T12:07:02Z</time>
      </trkpt>
      <trkpt lat="49.87887" lon="2.33631">
        <ele>29.1</ele>
        <time>2023-10-06T12:07:03Z</time>
      </trkpt>
      <trkpt lat="49.87887" lon="2.33629">
        <ele>29.1</ele>
        <time>2023-10-06T12:07:04Z</time>
      </trkpt>
      <trkpt lat="49.87888" lon="2.33628">
        <ele>29.2</ele>
        <time>2023-10-06T12:07:05Z</time>
      </trkpt>
      <trkpt lat="49.87888" lon="2.33627">
        <ele>29.2</ele>
        <time>2023-10-06T12:07:06Z</time>
      </trkpt>
      <trkpt lat="49.87888" lon="2.33625">
        <ele>29.2</ele>
        <time>2023-10-06T12:07:07Z</time>
      </trkpt>
      <trkpt lat="49.87889" lon="2.33624">
        <ele>29.2</ele>
        <time>2023-10-06T12:07:08Z</time>
      </trkpt>
      <trkpt lat="49.87889" lon="2.33623">
        <ele>29.2</ele>
        <time>2023-10-06T12:07:09Z</time>
      </trkpt>
      <trkpt lat="49.8789" lon="2.33622">
        <ele>29.2</ele>
        <time>2023-10-06T12:07:10Z</time>
      </trkpt>
      <trkpt lat="49.8789" lon="2.33621">
        <ele>29.2</ele>
        <time>2023-10-06T12:07:11Z</time>
      </trkpt>
      <trkpt lat="49.87891" lon="2.33619">
        <ele>29.2</ele>
        <time>2023-10-06T12:07:12Z</time>
      </trkpt>
      <trkpt lat="49.87891" lon="2.33618">
        <ele>29.2</ele>
        <time>2023-10-06T12:07:13Z</time>
      </trkpt>
      <trkpt lat="49.87891" lon="2.33616">
        <ele>29.3</ele>
        <time>2023-10-06T12:07:14Z</time>
      </trkpt>
      <trkpt lat="49.87892" lon="2.33613">
        <ele>29.3</ele>
        <time>2023-10-06T12:07:15Z</time>
      </trkpt>
      <trkpt lat="49.87893" lon="2.33612">
        <ele>29.3</ele>
        <time>2023-10-06T12:07:16Z</time>
      </trkpt>
      <trkpt lat="49.87893" lon="2.3361">
        <ele>29.3</ele>
        <time>2023-10-06T12:07:17Z</time>
      </trkpt>
      <trkpt lat="49.87893" lon="2.33609">
        <ele>29.3</ele>
        <time>2023-10-06T12:07:18Z</time>
      </trkpt>
      <trkpt lat="49.87894" lon="2.33607">
        <ele>29.3</ele>
        <time>2023-10-06T12:07:19Z</time>
      </trkpt>
      <trkpt lat="49.87894" lon="2.33606">
        <ele>29.4</ele>
        <time>2023-10-06T12:07:20Z</time>
      </trkpt>
      <trkpt lat="49.87895" lon="2.33604">
        <ele>29.4</ele>
        <time>2023-10-06T12:07:21Z</time>
      </trkpt>
      <trkpt lat="49.87895" lon="2.33603">
        <ele>29.4</ele>
        <time>2023-10-06T12:07:22Z</time>
      </trkpt>
      <trkpt lat="49.87895" lon="2.33602">
        <ele>29.4</ele>
        <time>2023-10-06T12:07:23Z</time>
      </trkpt>
      <trkpt lat="49.87895" lon="2.33601">
        <ele>29.4</ele>
        <time>2023-10-06T12:07:24Z</time>
      </trkpt>
      <trkpt lat="49.87896" lon="2.33599">
        <ele>29.4</ele>
        <time>2023-10-06T12:07:25Z</time>
      </trkpt>
      <trkpt lat="49.87896" lon="2.33598">
        <ele>29.4</ele>
        <time>2023-10-06T12:07:26Z</time>
      </trkpt>
      <trkpt lat="49.87897" lon="2.33597">
        <ele>29.4</ele>
        <time>2023-10-06T12:07:27Z</time>
      </trkpt>
      <trkpt lat="49.87897" lon="2.33596">
        <ele>29.5</ele>
        <time>2023-10-06T12:07:28Z</time>
      </trkpt>
      <trkpt lat="49.87897" lon="2.33595">
        <ele>29.5</ele>
        <time>2023-10-06T12:07:29Z</time>
      </trkpt>
      <trkpt lat="49.87897" lon="2.33595">
        <ele>29.5</ele>
        <time>2023-10-06T12:07:30Z</time>
      </trkpt>
      <trkpt lat="49.87897" lon="2.33595">
        <ele>29.5</ele>
        <time>2023-10-06T12:07:31Z</time>
      </trkpt>
      <trkpt lat="49.87897" lon="2.33594">
        <ele>29.5</ele>
        <time>2023-10-06T12:07:32Z</time>
      </trkpt>
      <trkpt lat="49.87897" lon="2.33593">
        <ele>29.5</ele>
        <time>2023-10-06T12:07:33Z</time>
      </trkpt>
      <trkpt lat="49.87897" lon="2.33592">
        <ele>29.5</ele>
        <time>2023-10-06T12:07:34Z</time>
      </trkpt>
      <trkpt lat="49.87897" lon="2.33591">
        <ele>29.5</ele>
        <time>2023-10-06T12:07:35Z</time>
      </trkpt>
      <trkpt lat="49.87897" lon="2.33589">
        <ele>29.5</ele>
        <time>2023-10-06T12:07:36Z</time>
      </trkpt>
      <trkpt lat="49.87897" lon="2.33587">
        <ele>29.6</ele>
        <time>2023-10-06T12:07:37Z</time>
      </trkpt>
      <trkpt lat="49.87898" lon="2.33584">
        <ele>29.6</ele>
        <time>2023-10-06T12:07:38Z</time>
      </trkpt>
      <trkpt lat="49.87898" lon="2.33583">
        <ele>29.6</ele>
        <time>2023-10-06T12:07:39Z</time>
      </trkpt>
      <trkpt lat="49.87899" lon="2.33582">
        <ele>29.6</ele>
        <time>2023-10-06T12:07:40Z</time>
      </trkpt>
      <trkpt lat="49.87899" lon="2.3358">
        <ele>29.7</ele>
        <time>2023-10-06T12:07:41Z</time>
      </trkpt>
      <trkpt lat="49.879" lon="2.33578">
        <ele>29.7</ele>
        <time>2023-10-06T12:07:42Z</time>
      </trkpt>
      <trkpt lat="49.879" lon="2.33577">
        <ele>29.7</ele>
        <time>2023-10-06T12:07:43Z</time>
      </trkpt>
      <trkpt lat="49.879" lon="2.33575">
        <ele>29.7</ele>
        <time>2023-10-06T12:07:44Z</time>
      </trkpt>
      <trkpt lat="49.87901" lon="2.33574">
        <ele>29.8</ele>
        <time>2023-10-06T12:07:45Z</time>
      </trkpt>
      <trkpt lat="49.87901" lon="2.33573">
        <ele>29.8</ele>
        <time>2023-10-06T12:07:46Z</time>
      </trkpt>
      <trkpt lat="49.87901" lon="2.33572">
        <ele>29.8</ele>
        <time>2023-10-06T12:07:47Z</time>
      </trkpt>
      <trkpt lat="49.87902" lon="2.33571">
        <ele>29.8</ele>
        <time>2023-10-06T12:07:48Z</time>
      </trkpt>
      <trkpt lat="49.87902" lon="2.33569">
        <ele>29.8</ele>
        <time>2023-10-06T12:07:49Z</time>
      </trkpt>
      <trkpt lat="49.87903" lon="2.33568">
        <ele>29.8</ele>
        <time>2023-10-06T12:07:50Z</time>
      </trkpt>
      <trkpt lat="49.87903" lon="2.33567">
        <ele>29.9</ele>
        <time>2023-10-06T12:07:51Z</time>
      </trkpt>
      <trkpt lat="49.87904" lon="2.33566">
        <ele>29.9</ele>
        <time>2023-10-06T12:07:52Z</time>
      </trkpt>
      <trkpt lat="49.87904" lon="2.33564">
        <ele>29.9</ele>
        <time>2023-10-06T12:07:53Z</time>
      </trkpt>
      <trkpt lat="49.87904" lon="2.33563">
        <ele>29.9</ele>
        <time>2023-10-06T12:07:54Z</time>
      </trkpt>
      <trkpt lat="49.87905" lon="2.33561">
        <ele>30</ele>
        <time>2023-10-06T12:07:55Z</time>
      </trkpt>
      <trkpt lat="49.87905" lon="2.3356">
        <ele>30</ele>
        <time>2023-10-06T12:07:56Z</time>
      </trkpt>
      <trkpt lat="49.87905" lon="2.33558">
        <ele>30</ele>
        <time>2023-10-06T12:07:57Z</time>
      </trkpt>
      <trkpt lat="49.87905" lon="2.33557">
        <ele>30</ele>
        <time>2023-10-06T12:07:58Z</time>
      </trkpt>
      <trkpt lat="49.87906" lon="2.33555">
        <ele>30.1</ele>
        <time>2023-10-06T12:07:59Z</time>
      </trkpt>
      <trkpt lat="49.87906" lon="2.33554">
        <ele>30.1</ele>
        <time>2023-10-06T12:08:00Z</time>
      </trkpt>
      <trkpt lat="49.87906" lon="2.33553">
        <ele>30.1</ele>
        <time>2023-10-06T12:08:01Z</time>
      </trkpt>
      <trkpt lat="49.87907" lon="2.33552">
        <ele>30.1</ele>
        <time>2023-10-06T12:08:02Z</time>
      </trkpt>
      <trkpt lat="49.87907" lon="2.33551">
        <ele>30.1</ele>
        <time>2023-10-06T12:08:03Z</time>
      </trkpt>
      <trkpt lat="49.87908" lon="2.3355">
        <ele>30.1</ele>
        <time>2023-10-06T12:08:04Z</time>
      </trkpt>
      <trkpt lat="49.87908" lon="2.33549">
        <ele>30.2</ele>
        <time>2023-10-06T12:08:05Z</time>
      </trkpt>
      <trkpt lat="49.87908" lon="2.33549">
        <ele>30.1</ele>
        <time>2023-10-06T12:08:06Z</time>
      </trkpt>
      <trkpt lat="49.87909" lon="2.33548">
        <ele>30.1</ele>
        <time>2023-10-06T12:08:07Z</time>
      </trkpt>
      <trkpt lat="49.87909" lon="2.33548">
        <ele>30.1</ele>
        <time>2023-10-06T12:08:08Z</time>
      </trkpt>
      <trkpt lat="49.87909" lon="2.33547">
        <ele>30.1</ele>
        <time>2023-10-06T12:08:09Z</time>
      </trkpt>
      <trkpt lat="49.8791" lon="2.33547">
        <ele>30</ele>
        <time>2023-10-06T12:08:10Z</time>
      </trkpt>
      <trkpt lat="49.8791" lon="2.33546">
        <ele>30</ele>
        <time>2023-10-06T12:08:11Z</time>
      </trkpt>
      <trkpt lat="49.87911" lon="2.33545">
        <ele>30</ele>
        <time>2023-10-06T12:08:12Z</time>
      </trkpt>
      <trkpt lat="49.87911" lon="2.33545">
        <ele>30</ele>
        <time>2023-10-06T12:08:13Z</time>
      </trkpt>
      <trkpt lat="49.87912" lon="2.33545">
        <ele>30</ele>
        <time>2023-10-06T12:08:14Z</time>
      </trkpt>
      <trkpt lat="49.87912" lon="2.33545">
        <ele>30</ele>
        <time>2023-10-06T12:08:15Z</time>
      </trkpt>
      <trkpt lat="49.87912" lon="2.33545">
        <ele>30</ele>
        <time>2023-10-06T12:08:16Z</time>
      </trkpt>
      <trkpt lat="49.87912" lon="2.33545">
        <ele>30</ele>
        <time>2023-10-06T12:08:17Z</time>
      </trkpt>
      <trkpt lat="49.87912" lon="2.33546">
        <ele>30</ele>
        <time>2023-10-06T12:08:18Z</time>
      </trkpt>
      <trkpt lat="49.87912" lon="2.33546">
        <ele>30</ele>
        <time>2023-10-06T12:08:19Z</time>
      </trkpt>
      <trkpt lat="49.87912" lon="2.33546">
        <ele>30</ele>
        <time>2023-10-06T12:08:20Z</time>
      </trkpt>
      <trkpt lat="49.87911" lon="2.33546">
        <ele>30</ele>
        <time>2023-10-06T12:08:21Z</time>
      </trkpt>
      <trkpt lat="49.87911" lon="2.33546">
        <ele>30</ele>
        <time>2023-10-06T12:08:22Z</time>
      </trkpt>
      <trkpt lat="49.87911" lon="2.33546">
        <ele>30</ele>
        <time>2023-10-06T12:08:23Z</time>
      </trkpt>
      <trkpt lat="49.87911" lon="2.33547">
        <ele>30</ele>
        <time>2023-10-06T12:08:24Z</time>
      </trkpt>
      <trkpt lat="49.87911" lon="2.33547">
        <ele>30</ele>
        <time>2023-10-06T12:08:25Z</time>
      </trkpt>
      <trkpt lat="49.87911" lon="2.33547">
        <ele>30</ele>
        <time>2023-10-06T12:08:26Z</time>
      </trkpt>
      <trkpt lat="49.87911" lon="2.33547">
        <ele>30</ele>
        <time>2023-10-06T12:08:27Z</time>
      </trkpt>
      <trkpt lat="49.8791" lon="2.33547">
        <ele>30</ele>
        <time>2023-10-06T12:08:28Z</time>
      </trkpt>
      <trkpt lat="49.8791" lon="2.33547">
        <ele>30</ele>
        <time>2023-10-06T12:08:29Z</time>
      </trkpt>
      <trkpt lat="49.8791" lon="2.33547">
        <ele>30</ele>
        <time>2023-10-06T12:08:30Z</time>
      </trkpt>
      <trkpt lat="49.8791" lon="2.33548">
        <ele>30</ele>
        <time>2023-10-06T12:08:31Z</time>
      </trkpt>
      <trkpt lat="49.8791" lon="2.33548">
        <ele>30</ele>
        <time>2023-10-06T12:08:32Z</time>
      </trkpt>
      <trkpt lat="49.8791" lon="2.33548">
        <ele>30</ele>
        <time>2023-10-06T12:08:33Z</time>
      </trkpt>
      <trkpt lat="49.8791" lon="2.33548">
        <ele>30</ele>
        <time>2023-10-06T12:08:34Z</time>
      </trkpt>
      <trkpt lat="49.87909" lon="2.33548">
        <ele>30</ele>
        <time>2023-10-06T12:08:35Z</time>
      </trkpt>
      <trkpt lat="49.87909" lon="2.33548">
        <ele>30</ele>
        <time>2023-10-06T12:08:36Z</time>
      </trkpt>
      <trkpt lat="49.87909" lon="2.33549">
        <ele>30</ele>
        <time>2023-10-06T12:08:37Z</time>
      </trkpt>
      <trkpt lat="49.87909" lon="2.33549">
        <ele>30</ele>
        <time>2023-10-06T12:08:38Z</time>
      </trkpt>
      <trkpt lat="49.87909" lon="2.33549">
        <ele>30</ele>
        <time>2023-10-06T12:08:39Z</time>
      </trkpt>
      <trkpt lat="49.87909" lon="2.33549">
        <ele>30</ele>
        <time>2023-10-06T12:08:40Z</time>
      </trkpt>
      <trkpt lat="49.87908" lon="2.33549">
        <ele>30</ele>
        <time>2023-10-06T12:08:41Z</time>
      </trkpt>
      <trkpt lat="49.87908" lon="2.3355">
        <ele>29.9</ele>
        <time>2023-10-06T12:08:42Z</time>
      </trkpt>
      <trkpt lat="49.87908" lon="2.33551">
        <ele>29.9</ele>
        <time>2023-10-06T12:08:43Z</time>
      </trkpt>
      <trkpt lat="49.87908" lon="2.33552">
        <ele>29.9</ele>
        <time>2023-10-06T12:08:44Z</time>
      </trkpt>
      <trkpt lat="49.87908" lon="2.33553">
        <ele>29.9</ele>
        <time>2023-10-06T12:08:45Z</time>
      </trkpt>
      <trkpt lat="49.87909" lon="2.33555">
        <ele>29.9</ele>
        <time>2023-10-06T12:08:46Z</time>
      </trkpt>
      <trkpt lat="49.8791" lon="2.33556">
        <ele>29.9</ele>
        <time>2023-10-06T12:08:47Z</time>
      </trkpt>
      <trkpt lat="49.87911" lon="2.33558">
        <ele>29.9</ele>
        <time>2023-10-06T12:08:48Z</time>
      </trkpt>
      <trkpt lat="49.87912" lon="2.3356">
        <ele>29.9</ele>
        <time>2023-10-06T12:08:49Z</time>
      </trkpt>
      <trkpt lat="49.87914" lon="2.33561">
        <ele>29.8</ele>
        <time>2023-10-06T12:08:50Z</time>
      </trkpt>
      <trkpt lat="49.87916" lon="2.33563">
        <ele>29.8</ele>
        <time>2023-10-06T12:08:51Z</time>
      </trkpt>
      <trkpt lat="49.87917" lon="2.33564">
        <ele>29.8</ele>
        <time>2023-10-06T12:08:52Z</time>
      </trkpt>
      <trkpt lat="49.87919" lon="2.33565">
        <ele>29.8</ele>
        <time>2023-10-06T12:08:53Z</time>
      </trkpt>
      <trkpt lat="49.8792" lon="2.33566">
        <ele>29.8</ele>
        <time>2023-10-06T12:08:54Z</time>
      </trkpt>
      <trkpt lat="49.87921" lon="2.33567">
        <ele>29.8</ele>
        <time>2023-10-06T12:08:55Z</time>
      </trkpt>
      <trkpt lat="49.87922" lon="2.33568">
        <ele>29.8</ele>
        <time>2023-10-06T12:08:56Z</time>
      </trkpt>
      <trkpt lat="49.87923" lon="2.33568">
        <ele>29.8</ele>
        <time>2023-10-06T12:08:57Z</time>
      </trkpt>
      <trkpt lat="49.87924" lon="2.33569">
        <ele>29.8</ele>
        <time>2023-10-06T12:08:58Z</time>
      </trkpt>
      <trkpt lat="49.87925" lon="2.33568">
        <ele>29.8</ele>
        <time>2023-10-06T12:08:59Z</time>
      </trkpt>
      <trkpt lat="49.87925" lon="2.33567">
        <ele>29.8</ele>
        <time>2023-10-06T12:09:00Z</time>
      </trkpt>
      <trkpt lat="49.87926" lon="2.33566">
        <ele>29.8</ele>
        <time>2023-10-06T12:09:01Z</time>
      </trkpt>
      <trkpt lat="49.87926" lon="2.33565">
        <ele>29.8</ele>
        <time>2023-10-06T12:09:02Z</time>
      </trkpt>
      <trkpt lat="49.87927" lon="2.33564">
        <ele>29.8</ele>
        <time>2023-10-06T12:09:03Z</time>
      </trkpt>
      <trkpt lat="49.87927" lon="2.33563">
        <ele>29.8</ele>
        <time>2023-10-06T12:09:04Z</time>
      </trkpt>
      <trkpt lat="49.87927" lon="2.33561">
        <ele>29.9</ele>
        <time>2023-10-06T12:09:05Z</time>
      </trkpt>
      <trkpt lat="49.87927" lon="2.3356">
        <ele>29.9</ele>
        <time>2023-10-06T12:09:06Z</time>
      </trkpt>
      <trkpt lat="49.87927" lon="2.33558">
        <ele>29.9</ele>
        <time>2023-10-06T12:09:07Z</time>
      </trkpt>
      <trkpt lat="49.87926" lon="2.33556">
        <ele>29.9</ele>
        <time>2023-10-06T12:09:08Z</time>
      </trkpt>
      <trkpt lat="49.87925" lon="2.33554">
        <ele>29.9</ele>
        <time>2023-10-06T12:09:09Z</time>
      </trkpt>
      <trkpt lat="49.87924" lon="2.33552">
        <ele>30</ele>
        <time>2023-10-06T12:09:10Z</time>
      </trkpt>
      <trkpt lat="49.87924" lon="2.3355">
        <ele>30</ele>
        <time>2023-10-06T12:09:11Z</time>
      </trkpt>
      <trkpt lat="49.87924" lon="2.33548">
        <ele>30</ele>
        <time>2023-10-06T12:09:12Z</time>
      </trkpt>
      <trkpt lat="49.87924" lon="2.33547">
        <ele>30</ele>
        <time>2023-10-06T12:09:13Z</time>
      </trkpt>
      <trkpt lat="49.87924" lon="2.33543">
        <ele>30</ele>
        <time>2023-10-06T12:09:14Z</time>
      </trkpt>
      <trkpt lat="49.87924" lon="2.33542">
        <ele>30.1</ele>
        <time>2023-10-06T12:09:15Z</time>
      </trkpt>
      <trkpt lat="49.87925" lon="2.3354">
        <ele>30.1</ele>
        <time>2023-10-06T12:09:16Z</time>
      </trkpt>
      <trkpt lat="49.87926" lon="2.33538">
        <ele>30.1</ele>
        <time>2023-10-06T12:09:17Z</time>
      </trkpt>
      <trkpt lat="49.87926" lon="2.33536">
        <ele>30.1</ele>
        <time>2023-10-06T12:09:18Z</time>
      </trkpt>
      <trkpt lat="49.87927" lon="2.33535">
        <ele>30.1</ele>
        <time>2023-10-06T12:09:19Z</time>
      </trkpt>
      <trkpt lat="49.87927" lon="2.33534">
        <ele>30.1</ele>
        <time>2023-10-06T12:09:20Z</time>
      </trkpt>
      <trkpt lat="49.87928" lon="2.33533">
        <ele>30.2</ele>
        <time>2023-10-06T12:09:21Z</time>
      </trkpt>
      <trkpt lat="49.87929" lon="2.33532">
        <ele>30.2</ele>
        <time>2023-10-06T12:09:22Z</time>
      </trkpt>
      <trkpt lat="49.8793" lon="2.33532">
        <ele>30.2</ele>
        <time>2023-10-06T12:09:23Z</time>
      </trkpt>
      <trkpt lat="49.87931" lon="2.33531">
        <ele>30.2</ele>
        <time>2023-10-06T12:09:24Z</time>
      </trkpt>
      <trkpt lat="49.87931" lon="2.33531">
        <ele>30.2</ele>
        <time>2023-10-06T12:09:25Z</time>
      </trkpt>
      <trkpt lat="49.87932" lon="2.33531">
        <ele>30.2</ele>
        <time>2023-10-06T12:09:26Z</time>
      </trkpt>
      <trkpt lat="49.87933" lon="2.33531">
        <ele>30.2</ele>
        <time>2023-10-06T12:09:27Z</time>
      </trkpt>
      <trkpt lat="49.87934" lon="2.33531">
        <ele>30.1</ele>
        <time>2023-10-06T12:09:28Z</time>
      </trkpt>
      <trkpt lat="49.87935" lon="2.33532">
        <ele>30</ele>
        <time>2023-10-06T12:09:29Z</time>
      </trkpt>
      <trkpt lat="49.87937" lon="2.33532">
        <ele>29.9</ele>
        <time>2023-10-06T12:09:30Z</time>
      </trkpt>
      <trkpt lat="49.87938" lon="2.33532">
        <ele>29.8</ele>
        <time>2023-10-06T12:09:31Z</time>
      </trkpt>
      <trkpt lat="49.87939" lon="2.33533">
        <ele>29.8</ele>
        <time>2023-10-06T12:09:32Z</time>
      </trkpt>
      <trkpt lat="49.8794" lon="2.33533">
        <ele>29.7</ele>
        <time>2023-10-06T12:09:33Z</time>
      </trkpt>
      <trkpt lat="49.87941" lon="2.33534">
        <ele>29.6</ele>
        <time>2023-10-06T12:09:34Z</time>
      </trkpt>
      <trkpt lat="49.87942" lon="2.33534">
        <ele>29.6</ele>
        <time>2023-10-06T12:09:35Z</time>
      </trkpt>
      <trkpt lat="49.87943" lon="2.33535">
        <ele>29.5</ele>
        <time>2023-10-06T12:09:36Z</time>
      </trkpt>
      <trkpt lat="49.87944" lon="2.33535">
        <ele>29.4</ele>
        <time>2023-10-06T12:09:37Z</time>
      </trkpt>
      <trkpt lat="49.87945" lon="2.33534">
        <ele>29.4</ele>
        <time>2023-10-06T12:09:38Z</time>
      </trkpt>
      <trkpt lat="49.87946" lon="2.33533">
        <ele>29.3</ele>
        <time>2023-10-06T12:09:39Z</time>
      </trkpt>
      <trkpt lat="49.87946" lon="2.33532">
        <ele>29.3</ele>
        <time>2023-10-06T12:09:40Z</time>
      </trkpt>
      <trkpt lat="49.87946" lon="2.3353">
        <ele>29.2</ele>
        <time>2023-10-06T12:09:41Z</time>
      </trkpt>
      <trkpt lat="49.87946" lon="2.33529">
        <ele>29.2</ele>
        <time>2023-10-06T12:09:42Z</time>
      </trkpt>
      <trkpt lat="49.87946" lon="2.33528">
        <ele>29.1</ele>
        <time>2023-10-06T12:09:43Z</time>
      </trkpt>
      <trkpt lat="49.87946" lon="2.33527">
        <ele>29.1</ele>
        <time>2023-10-06T12:09:44Z</time>
      </trkpt>
      <trkpt lat="49.87946" lon="2.33527">
        <ele>29.1</ele>
        <time>2023-10-06T12:09:45Z</time>
      </trkpt>
      <trkpt lat="49.87947" lon="2.33527">
        <ele>29.1</ele>
        <time>2023-10-06T12:09:46Z</time>
      </trkpt>
      <trkpt lat="49.87947" lon="2.33527">
        <ele>29</ele>
        <time>2023-10-06T12:09:47Z</time>
      </trkpt>
      <trkpt lat="49.87947" lon="2.33527">
        <ele>29</ele>
        <time>2023-10-06T12:09:48Z</time>
      </trkpt>
      <trkpt lat="49.87947" lon="2.33527">
        <ele>29</ele>
        <time>2023-10-06T12:09:49Z</time>
      </trkpt>
      <trkpt lat="49.87948" lon="2.33527">
        <ele>29</ele>
        <time>2023-10-06T12:09:50Z</time>
      </trkpt>
      <trkpt lat="49.87948" lon="2.33527">
        <ele>29</ele>
        <time>2023-10-06T12:09:51Z</time>
      </trkpt>
      <trkpt lat="49.87949" lon="2.33527">
        <ele>28.9</ele>
        <time>2023-10-06T12:09:52Z</time>
      </trkpt>
      <trkpt lat="49.8795" lon="2.33528">
        <ele>28.9</ele>
        <time>2023-10-06T12:09:53Z</time>
      </trkpt>
      <trkpt lat="49.87951" lon="2.33529">
        <ele>28.8</ele>
        <time>2023-10-06T12:09:54Z</time>
      </trkpt>
      <trkpt lat="49.87952" lon="2.3353">
        <ele>28.7</ele>
        <time>2023-10-06T12:09:55Z</time>
      </trkpt>
      <trkpt lat="49.87953" lon="2.3353">
        <ele>28.7</ele>
        <time>2023-10-06T12:09:56Z</time>
      </trkpt>
      <trkpt lat="49.87953" lon="2.33531">
        <ele>28.6</ele>
        <time>2023-10-06T12:09:57Z</time>
      </trkpt>
      <trkpt lat="49.87954" lon="2.33532">
        <ele>28.6</ele>
        <time>2023-10-06T12:09:58Z</time>
      </trkpt>
      <trkpt lat="49.87956" lon="2.33533">
        <ele>28.5</ele>
        <time>2023-10-06T12:09:59Z</time>
      </trkpt>
      <trkpt lat="49.87957" lon="2.33534">
        <ele>28.4</ele>
        <time>2023-10-06T12:10:00Z</time>
      </trkpt>
      <trkpt lat="49.87958" lon="2.33535">
        <ele>28.4</ele>
        <time>2023-10-06T12:10:01Z</time>
      </trkpt>
      <trkpt lat="49.87959" lon="2.33536">
        <ele>28.3</ele>
        <time>2023-10-06T12:10:02Z</time>
      </trkpt>
      <trkpt lat="49.8796" lon="2.33537">
        <ele>28.3</ele>
        <time>2023-10-06T12:10:03Z</time>
      </trkpt>
      <trkpt lat="49.87961" lon="2.33538">
        <ele>28.2</ele>
        <time>2023-10-06T12:10:04Z</time>
      </trkpt>
      <trkpt lat="49.87962" lon="2.33539">
        <ele>28.1</ele>
        <time>2023-10-06T12:10:05Z</time>
      </trkpt>
      <trkpt lat="49.87963" lon="2.33539">
        <ele>28.1</ele>
        <time>2023-10-06T12:10:06Z</time>
      </trkpt>
      <trkpt lat="49.87964" lon="2.3354">
        <ele>28</ele>
        <time>2023-10-06T12:10:07Z</time>
      </trkpt>
      <trkpt lat="49.87966" lon="2.3354">
        <ele>28</ele>
        <time>2023-10-06T12:10:08Z</time>
      </trkpt>
      <trkpt lat="49.87967" lon="2.33541">
        <ele>27.9</ele>
        <time>2023-10-06T12:10:09Z</time>
      </trkpt>
      <trkpt lat="49.87969" lon="2.33542">
        <ele>27.8</ele>
        <time>2023-10-06T12:10:10Z</time>
      </trkpt>
      <trkpt lat="49.8797" lon="2.33542">
        <ele>27.8</ele>
        <time>2023-10-06T12:10:11Z</time>
      </trkpt>
      <trkpt lat="49.87971" lon="2.33542">
        <ele>27.7</ele>
        <time>2023-10-06T12:10:12Z</time>
      </trkpt>
      <trkpt lat="49.87974" lon="2.33543">
        <ele>27.7</ele>
        <time>2023-10-06T12:10:13Z</time>
      </trkpt>
      <trkpt lat="49.87974" lon="2.33543">
        <ele>27.6</ele>
        <time>2023-10-06T12:10:14Z</time>
      </trkpt>
      <trkpt lat="49.87975" lon="2.33543">
        <ele>27.6</ele>
        <time>2023-10-06T12:10:15Z</time>
      </trkpt>
      <trkpt lat="49.87976" lon="2.33544">
        <ele>27.6</ele>
        <time>2023-10-06T12:10:16Z</time>
      </trkpt>
      <trkpt lat="49.87977" lon="2.33544">
        <ele>27.6</ele>
        <time>2023-10-06T12:10:17Z</time>
      </trkpt>
      <trkpt lat="49.87977" lon="2.33544">
        <ele>27.5</ele>
        <time>2023-10-06T12:10:18Z</time>
      </trkpt>
      <trkpt lat="49.87977" lon="2.33544">
        <ele>27.5</ele>
        <time>2023-10-06T12:10:19Z</time>
      </trkpt>
      <trkpt lat="49.87978" lon="2.33544">
        <ele>27.5</ele>
        <time>2023-10-06T12:10:20Z</time>
      </trkpt>
      <trkpt lat="49.87978" lon="2.33544">
        <ele>27.5</ele>
        <time>2023-10-06T12:10:21Z</time>
      </trkpt>
      <trkpt lat="49.87978" lon="2.33544">
        <ele>27.5</ele>
        <time>2023-10-06T12:10:22Z</time>
      </trkpt>
      <trkpt lat="49.87979" lon="2.33544">
        <ele>27.5</ele>
        <time>2023-10-06T12:10:23Z</time>
      </trkpt>
      <trkpt lat="49.87979" lon="2.33545">
        <ele>27.5</ele>
        <time>2023-10-06T12:10:24Z</time>
      </trkpt>
      <trkpt lat="49.87979" lon="2.33545">
        <ele>27.5</ele>
        <time>2023-10-06T12:10:25Z</time>
      </trkpt>
      <trkpt lat="49.87979" lon="2.33545">
        <ele>27.5</ele>
        <time>2023-10-06T12:10:26Z</time>
      </trkpt>
      <trkpt lat="49.8798" lon="2.33545">
        <ele>27.5</ele>
        <time>2023-10-06T12:10:27Z</time>
      </trkpt>
      <trkpt lat="49.8798" lon="2.33545">
        <ele>27.4</ele>
        <time>2023-10-06T12:10:28Z</time>
      </trkpt>
      <trkpt lat="49.87981" lon="2.33545">
        <ele>27.4</ele>
        <time>2023-10-06T12:10:29Z</time>
      </trkpt>
      <trkpt lat="49.87981" lon="2.33546">
        <ele>27.4</ele>
        <time>2023-10-06T12:10:30Z</time>
      </trkpt>
      <trkpt lat="49.87982" lon="2.33546">
        <ele>27.4</ele>
        <time>2023-10-06T12:10:31Z</time>
      </trkpt>
      <trkpt lat="49.87983" lon="2.33546">
        <ele>27.4</ele>
        <time>2023-10-06T12:10:32Z</time>
      </trkpt>
      <trkpt lat="49.87984" lon="2.33547">
        <ele>27.3</ele>
        <time>2023-10-06T12:10:33Z</time>
      </trkpt>
      <trkpt lat="49.87985" lon="2.33547">
        <ele>27.3</ele>
        <time>2023-10-06T12:10:34Z</time>
      </trkpt>
      <trkpt lat="49.87987" lon="2.33548">
        <ele>27.2</ele>
        <time>2023-10-06T12:10:35Z</time>
      </trkpt>
      <trkpt lat="49.8799" lon="2.33549">
        <ele>27.2</ele>
        <time>2023-10-06T12:10:36Z</time>
      </trkpt>
      <trkpt lat="49.87991" lon="2.33549">
        <ele>27.1</ele>
        <time>2023-10-06T12:10:37Z</time>
      </trkpt>
      <trkpt lat="49.87994" lon="2.3355">
        <ele>27.1</ele>
        <time>2023-10-06T12:10:38Z</time>
      </trkpt>
      <trkpt lat="49.87995" lon="2.3355">
        <ele>27</ele>
        <time>2023-10-06T12:10:39Z</time>
      </trkpt>
      <trkpt lat="49.87996" lon="2.33551">
        <ele>27</ele>
        <time>2023-10-06T12:10:40Z</time>
      </trkpt>
      <trkpt lat="49.87998" lon="2.33552">
        <ele>27</ele>
        <time>2023-10-06T12:10:41Z</time>
      </trkpt>
      <trkpt lat="49.87999" lon="2.33552">
        <ele>26.9</ele>
        <time>2023-10-06T12:10:42Z</time>
      </trkpt>
      <trkpt lat="49.88001" lon="2.33552">
        <ele>26.9</ele>
        <time>2023-10-06T12:10:43Z</time>
      </trkpt>
      <trkpt lat="49.88003" lon="2.33553">
        <ele>26.8</ele>
        <time>2023-10-06T12:10:44Z</time>
      </trkpt>
      <trkpt lat="49.88004" lon="2.33553">
        <ele>26.8</ele>
        <time>2023-10-06T12:10:45Z</time>
      </trkpt>
      <trkpt lat="49.88005" lon="2.33553">
        <ele>26.8</ele>
        <time>2023-10-06T12:10:46Z</time>
      </trkpt>
      <trkpt lat="49.88006" lon="2.33554">
        <ele>26.8</ele>
        <time>2023-10-06T12:10:47Z</time>
      </trkpt>
      <trkpt lat="49.88007" lon="2.33554">
        <ele>26.8</ele>
        <time>2023-10-06T12:10:48Z</time>
      </trkpt>
      <trkpt lat="49.88008" lon="2.33554">
        <ele>26.8</ele>
        <time>2023-10-06T12:10:49Z</time>
      </trkpt>
      <trkpt lat="49.88009" lon="2.33555">
        <ele>26.7</ele>
        <time>2023-10-06T12:10:50Z</time>
      </trkpt>
      <trkpt lat="49.8801" lon="2.33555">
        <ele>26.7</ele>
        <time>2023-10-06T12:10:51Z</time>
      </trkpt>
      <trkpt lat="49.88011" lon="2.33556">
        <ele>26.7</ele>
        <time>2023-10-06T12:10:52Z</time>
      </trkpt>
      <trkpt lat="49.88012" lon="2.33556">
        <ele>26.7</ele>
        <time>2023-10-06T12:10:53Z</time>
      </trkpt>
      <trkpt lat="49.88013" lon="2.33556">
        <ele>26.7</ele>
        <time>2023-10-06T12:10:54Z</time>
      </trkpt>
      <trkpt lat="49.88014" lon="2.33557">
        <ele>26.7</ele>
        <time>2023-10-06T12:10:55Z</time>
      </trkpt>
      <trkpt lat="49.88015" lon="2.33557">
        <ele>26.6</ele>
        <time>2023-10-06T12:10:56Z</time>
      </trkpt>
      <trkpt lat="49.88016" lon="2.33557">
        <ele>26.6</ele>
        <time>2023-10-06T12:10:57Z</time>
      </trkpt>
      <trkpt lat="49.88017" lon="2.33558">
        <ele>26.6</ele>
        <time>2023-10-06T12:10:58Z</time>
      </trkpt>
      <trkpt lat="49.88018" lon="2.33558">
        <ele>26.6</ele>
        <time>2023-10-06T12:10:59Z</time>
      </trkpt>
      <trkpt lat="49.88019" lon="2.33559">
        <ele>26.6</ele>
        <time>2023-10-06T12:11:00Z</time>
      </trkpt>
      <trkpt lat="49.88021" lon="2.33559">
        <ele>26.6</ele>
        <time>2023-10-06T12:11:01Z</time>
      </trkpt>
      <trkpt lat="49.88023" lon="2.33561">
        <ele>26.5</ele>
        <time>2023-10-06T12:11:02Z</time>
      </trkpt>
      <trkpt lat="49.88023" lon="2.33561">
        <ele>26.5</ele>
        <time>2023-10-06T12:11:03Z</time>
      </trkpt>
      <trkpt lat="49.88024" lon="2.33561">
        <ele>26.5</ele>
        <time>2023-10-06T12:11:04Z</time>
      </trkpt>
      <trkpt lat="49.88026" lon="2.33563">
        <ele>26.5</ele>
        <time>2023-10-06T12:11:05Z</time>
      </trkpt>
      <trkpt lat="49.88027" lon="2.33563">
        <ele>26.5</ele>
        <time>2023-10-06T12:11:06Z</time>
      </trkpt>
      <trkpt lat="49.88028" lon="2.33563">
        <ele>26.5</ele>
        <time>2023-10-06T12:11:07Z</time>
      </trkpt>
      <trkpt lat="49.88029" lon="2.33564">
        <ele>26.5</ele>
        <time>2023-10-06T12:11:08Z</time>
      </trkpt>
      <trkpt lat="49.8803" lon="2.33565">
        <ele>26.5</ele>
        <time>2023-10-06T12:11:09Z</time>
      </trkpt>
      <trkpt lat="49.88031" lon="2.33565">
        <ele>26.4</ele>
        <time>2023-10-06T12:11:10Z</time>
      </trkpt>
      <trkpt lat="49.88032" lon="2.33566">
        <ele>26.4</ele>
        <time>2023-10-06T12:11:11Z</time>
      </trkpt>
      <trkpt lat="49.88033" lon="2.33566">
        <ele>26.4</ele>
        <time>2023-10-06T12:11:12Z</time>
      </trkpt>
      <trkpt lat="49.88034" lon="2.33567">
        <ele>26.4</ele>
        <time>2023-10-06T12:11:13Z</time>
      </trkpt>
      <trkpt lat="49.88036" lon="2.33568">
        <ele>26.4</ele>
        <time>2023-10-06T12:11:14Z</time>
      </trkpt>
      <trkpt lat="49.88037" lon="2.33568">
        <ele>26.4</ele>
        <time>2023-10-06T12:11:15Z</time>
      </trkpt>
      <trkpt lat="49.88038" lon="2.33568">
        <ele>26.3</ele>
        <time>2023-10-06T12:11:16Z</time>
      </trkpt>
      <trkpt lat="49.88039" lon="2.33569">
        <ele>26.3</ele>
        <time>2023-10-06T12:11:17Z</time>
      </trkpt>
      <trkpt lat="49.88041" lon="2.33569">
        <ele>26.3</ele>
        <time>2023-10-06T12:11:18Z</time>
      </trkpt>
      <trkpt lat="49.88042" lon="2.3357">
        <ele>26.3</ele>
        <time>2023-10-06T12:11:19Z</time>
      </trkpt>
      <trkpt lat="49.88043" lon="2.3357">
        <ele>26.3</ele>
        <time>2023-10-06T12:11:20Z</time>
      </trkpt>
      <trkpt lat="49.88045" lon="2.33571">
        <ele>26.3</ele>
        <time>2023-10-06T12:11:21Z</time>
      </trkpt>
      <trkpt lat="49.88046" lon="2.33571">
        <ele>26.2</ele>
        <time>2023-10-06T12:11:22Z</time>
      </trkpt>
      <trkpt lat="49.88048" lon="2.33572">
        <ele>26.2</ele>
        <time>2023-10-06T12:11:23Z</time>
      </trkpt>
      <trkpt lat="49.88049" lon="2.33572">
        <ele>26.2</ele>
        <time>2023-10-06T12:11:24Z</time>
      </trkpt>
      <trkpt lat="49.8805" lon="2.33573">
        <ele>26.2</ele>
        <time>2023-10-06T12:11:25Z</time>
      </trkpt>
      <trkpt lat="49.88052" lon="2.33573">
        <ele>26.2</ele>
        <time>2023-10-06T12:11:26Z</time>
      </trkpt>
      <trkpt lat="49.88053" lon="2.33574">
        <ele>26.2</ele>
        <time>2023-10-06T12:11:27Z</time>
      </trkpt>
      <trkpt lat="49.88054" lon="2.33574">
        <ele>26.2</ele>
        <time>2023-10-06T12:11:28Z</time>
      </trkpt>
      <trkpt lat="49.88056" lon="2.33574">
        <ele>26.2</ele>
        <time>2023-10-06T12:11:29Z</time>
      </trkpt>
      <trkpt lat="49.88057" lon="2.33574">
        <ele>26.2</ele>
        <time>2023-10-06T12:11:30Z</time>
      </trkpt>
      <trkpt lat="49.88058" lon="2.33575">
        <ele>26.2</ele>
        <time>2023-10-06T12:11:31Z</time>
      </trkpt>
      <trkpt lat="49.8806" lon="2.33575">
        <ele>26.2</ele>
        <time>2023-10-06T12:11:32Z</time>
      </trkpt>
      <trkpt lat="49.88061" lon="2.33575">
        <ele>26.2</ele>
        <time>2023-10-06T12:11:33Z</time>
      </trkpt>
      <trkpt lat="49.88062" lon="2.33575">
        <ele>26.2</ele>
        <time>2023-10-06T12:11:34Z</time>
      </trkpt>
      <trkpt lat="49.88063" lon="2.33575">
        <ele>26.2</ele>
        <time>2023-10-06T12:11:35Z</time>
      </trkpt>
      <trkpt lat="49.88064" lon="2.33576">
        <ele>26.2</ele>
        <time>2023-10-06T12:11:36Z</time>
      </trkpt>
      <trkpt lat="49.88065" lon="2.33576">
        <ele>26.2</ele>
        <time>2023-10-06T12:11:37Z</time>
      </trkpt>
      <trkpt lat="49.88066" lon="2.33576">
        <ele>26.2</ele>
        <time>2023-10-06T12:11:38Z</time>
      </trkpt>
      <trkpt lat="49.88067" lon="2.33576">
        <ele>26.2</ele>
        <time>2023-10-06T12:11:39Z</time>
      </trkpt>
      <trkpt lat="49.88068" lon="2.33576">
        <ele>26.2</ele>
        <time>2023-10-06T12:11:40Z</time>
      </trkpt>
      <trkpt lat="49.88069" lon="2.33576">
        <ele>26.2</ele>
        <time>2023-10-06T12:11:41Z</time>
      </trkpt>
      <trkpt lat="49.8807" lon="2.33576">
        <ele>26.2</ele>
        <time>2023-10-06T12:11:42Z</time>
      </trkpt>
      <trkpt lat="49.88071" lon="2.33577">
        <ele>26.2</ele>
        <time>2023-10-06T12:11:43Z</time>
      </trkpt>
      <trkpt lat="49.88072" lon="2.33577">
        <ele>26.2</ele>
        <time>2023-10-06T12:11:44Z</time>
      </trkpt>
      <trkpt lat="49.88072" lon="2.33577">
        <ele>26.2</ele>
        <time>2023-10-06T12:11:45Z</time>
      </trkpt>
      <trkpt lat="49.88073" lon="2.33577">
        <ele>26.2</ele>
        <time>2023-10-06T12:11:46Z</time>
      </trkpt>
      <trkpt lat="49.88074" lon="2.33577">
        <ele>26.2</ele>
        <time>2023-10-06T12:11:47Z</time>
      </trkpt>
      <trkpt lat="49.88075" lon="2.33578">
        <ele>26.2</ele>
        <time>2023-10-06T12:11:48Z</time>
      </trkpt>
      <trkpt lat="49.88076" lon="2.33578">
        <ele>26.2</ele>
        <time>2023-10-06T12:11:49Z</time>
      </trkpt>
      <trkpt lat="49.88076" lon="2.33578">
        <ele>26.2</ele>
        <time>2023-10-06T12:11:50Z</time>
      </trkpt>
      <trkpt lat="49.88077" lon="2.33578">
        <ele>26.2</ele>
        <time>2023-10-06T12:11:51Z</time>
      </trkpt>
      <trkpt lat="49.88078" lon="2.33578">
        <ele>26.2</ele>
        <time>2023-10-06T12:11:52Z</time>
      </trkpt>
      <trkpt lat="49.88079" lon="2.33578">
        <ele>26.2</ele>
        <time>2023-10-06T12:11:53Z</time>
      </trkpt>
      <trkpt lat="49.8808" lon="2.33578">
        <ele>26.2</ele>
        <time>2023-10-06T12:11:54Z</time>
      </trkpt>
      <trkpt lat="49.88081" lon="2.33578">
        <ele>26.2</ele>
        <time>2023-10-06T12:11:55Z</time>
      </trkpt>
      <trkpt lat="49.88082" lon="2.33578">
        <ele>26.2</ele>
        <time>2023-10-06T12:11:56Z</time>
      </trkpt>
      <trkpt lat="49.88083" lon="2.33578">
        <ele>26.2</ele>
        <time>2023-10-06T12:11:57Z</time>
      </trkpt>
      <trkpt lat="49.88084" lon="2.33578">
        <ele>26.2</ele>
        <time>2023-10-06T12:11:58Z</time>
      </trkpt>
      <trkpt lat="49.88085" lon="2.33579">
        <ele>26.2</ele>
        <time>2023-10-06T12:11:59Z</time>
      </trkpt>
      <trkpt lat="49.88086" lon="2.33579">
        <ele>26.2</ele>
        <time>2023-10-06T12:12:00Z</time>
      </trkpt>
      <trkpt lat="49.88087" lon="2.33579">
        <ele>26.2</ele>
        <time>2023-10-06T12:12:01Z</time>
      </trkpt>
      <trkpt lat="49.88088" lon="2.33579">
        <ele>26.2</ele>
        <time>2023-10-06T12:12:02Z</time>
      </trkpt>
      <trkpt lat="49.88089" lon="2.3358">
        <ele>26.2</ele>
        <time>2023-10-06T12:12:03Z</time>
      </trkpt>
      <trkpt lat="49.8809" lon="2.3358">
        <ele>26.2</ele>
        <time>2023-10-06T12:12:04Z</time>
      </trkpt>
      <trkpt lat="49.88091" lon="2.3358">
        <ele>26.2</ele>
        <time>2023-10-06T12:12:05Z</time>
      </trkpt>
      <trkpt lat="49.88092" lon="2.3358">
        <ele>26.2</ele>
        <time>2023-10-06T12:12:06Z</time>
      </trkpt>
      <trkpt lat="49.88093" lon="2.3358">
        <ele>26.3</ele>
        <time>2023-10-06T12:12:07Z</time>
      </trkpt>
      <trkpt lat="49.88095" lon="2.3358">
        <ele>26.3</ele>
        <time>2023-10-06T12:12:08Z</time>
      </trkpt>
      <trkpt lat="49.88096" lon="2.3358">
        <ele>26.3</ele>
        <time>2023-10-06T12:12:09Z</time>
      </trkpt>
      <trkpt lat="49.88097" lon="2.33581">
        <ele>26.3</ele>
        <time>2023-10-06T12:12:10Z</time>
      </trkpt>
      <trkpt lat="49.88098" lon="2.33581">
        <ele>26.3</ele>
        <time>2023-10-06T12:12:11Z</time>
      </trkpt>
      <trkpt lat="49.88099" lon="2.33581">
        <ele>26.3</ele>
        <time>2023-10-06T12:12:12Z</time>
      </trkpt>
      <trkpt lat="49.881" lon="2.33581">
        <ele>26.3</ele>
        <time>2023-10-06T12:12:13Z</time>
      </trkpt>
      <trkpt lat="49.88101" lon="2.33581">
        <ele>26.3</ele>
        <time>2023-10-06T12:12:14Z</time>
      </trkpt>
      <trkpt lat="49.88102" lon="2.33582">
        <ele>26.3</ele>
        <time>2023-10-06T12:12:15Z</time>
      </trkpt>
      <trkpt lat="49.88103" lon="2.33582">
        <ele>26.3</ele>
        <time>2023-10-06T12:12:16Z</time>
      </trkpt>
      <trkpt lat="49.88104" lon="2.33582">
        <ele>26.3</ele>
        <time>2023-10-06T12:12:17Z</time>
      </trkpt>
      <trkpt lat="49.88105" lon="2.33582">
        <ele>26.3</ele>
        <time>2023-10-06T12:12:18Z</time>
      </trkpt>
      <trkpt lat="49.88106" lon="2.33583">
        <ele>26.4</ele>
        <time>2023-10-06T12:12:19Z</time>
      </trkpt>
      <trkpt lat="49.88107" lon="2.33583">
        <ele>26.4</ele>
        <time>2023-10-06T12:12:20Z</time>
      </trkpt>
      <trkpt lat="49.88108" lon="2.33583">
        <ele>26.4</ele>
        <time>2023-10-06T12:12:21Z</time>
      </trkpt>
      <trkpt lat="49.88109" lon="2.33583">
        <ele>26.4</ele>
        <time>2023-10-06T12:12:22Z</time>
      </trkpt>
      <trkpt lat="49.8811" lon="2.33583">
        <ele>26.4</ele>
        <time>2023-10-06T12:12:23Z</time>
      </trkpt>
      <trkpt lat="49.88111" lon="2.33583">
        <ele>26.4</ele>
        <time>2023-10-06T12:12:24Z</time>
      </trkpt>
      <trkpt lat="49.88112" lon="2.33583">
        <ele>26.4</ele>
        <time>2023-10-06T12:12:25Z</time>
      </trkpt>
      <trkpt lat="49.88113" lon="2.33583">
        <ele>26.4</ele>
        <time>2023-10-06T12:12:26Z</time>
      </trkpt>
      <trkpt lat="49.88114" lon="2.33583">
        <ele>26.4</ele>
        <time>2023-10-06T12:12:27Z</time>
      </trkpt>
      <trkpt lat="49.88115" lon="2.33583">
        <ele>26.4</ele>
        <time>2023-10-06T12:12:28Z</time>
      </trkpt>
      <trkpt lat="49.88116" lon="2.33582">
        <ele>26.4</ele>
        <time>2023-10-06T12:12:29Z</time>
      </trkpt>
      <trkpt lat="49.88117" lon="2.33582">
        <ele>26.4</ele>
        <time>2023-10-06T12:12:30Z</time>
      </trkpt>
      <trkpt lat="49.88118" lon="2.33582">
        <ele>26.5</ele>
        <time>2023-10-06T12:12:31Z</time>
      </trkpt>
      <trkpt lat="49.88119" lon="2.33581">
        <ele>26.5</ele>
        <time>2023-10-06T12:12:32Z</time>
      </trkpt>
      <trkpt lat="49.8812" lon="2.33581">
        <ele>26.5</ele>
        <time>2023-10-06T12:12:33Z</time>
      </trkpt>
      <trkpt lat="49.88121" lon="2.33581">
        <ele>26.5</ele>
        <time>2023-10-06T12:12:34Z</time>
      </trkpt>
      <trkpt lat="49.88122" lon="2.33581">
        <ele>26.5</ele>
        <time>2023-10-06T12:12:35Z</time>
      </trkpt>
      <trkpt lat="49.88123" lon="2.33581">
        <ele>26.5</ele>
        <time>2023-10-06T12:12:36Z</time>
      </trkpt>
      <trkpt lat="49.88123" lon="2.33581">
        <ele>26.5</ele>
        <time>2023-10-06T12:12:37Z</time>
      </trkpt>
      <trkpt lat="49.88124" lon="2.33581">
        <ele>26.5</ele>
        <time>2023-10-06T12:12:38Z</time>
      </trkpt>
      <trkpt lat="49.88125" lon="2.33581">
        <ele>26.5</ele>
        <time>2023-10-06T12:12:39Z</time>
      </trkpt>
      <trkpt lat="49.88126" lon="2.33581">
        <ele>26.5</ele>
        <time>2023-10-06T12:12:40Z</time>
      </trkpt>
      <trkpt lat="49.88127" lon="2.33581">
        <ele>26.5</ele>
        <time>2023-10-06T12:12:41Z</time>
      </trkpt>
      <trkpt lat="49.88128" lon="2.33581">
        <ele>26.5</ele>
        <time>2023-10-06T12:12:42Z</time>
      </trkpt>
      <trkpt lat="49.88129" lon="2.33581">
        <ele>26.5</ele>
        <time>2023-10-06T12:12:43Z</time>
      </trkpt>
      <trkpt lat="49.8813" lon="2.33581">
        <ele>26.5</ele>
        <time>2023-10-06T12:12:44Z</time>
      </trkpt>
      <trkpt lat="49.88131" lon="2.33581">
        <ele>26.5</ele>
        <time>2023-10-06T12:12:45Z</time>
      </trkpt>
      <trkpt lat="49.88132" lon="2.33582">
        <ele>26.6</ele>
        <time>2023-10-06T12:12:46Z</time>
      </trkpt>
      <trkpt lat="49.88132" lon="2.33582">
        <ele>26.6</ele>
        <time>2023-10-06T12:12:47Z</time>
      </trkpt>
      <trkpt lat="49.88133" lon="2.33582">
        <ele>26.6</ele>
        <time>2023-10-06T12:12:48Z</time>
      </trkpt>
      <trkpt lat="49.88134" lon="2.33582">
        <ele>26.6</ele>
        <time>2023-10-06T12:12:49Z</time>
      </trkpt>
      <trkpt lat="49.88135" lon="2.33582">
        <ele>26.6</ele>
        <time>2023-10-06T12:12:50Z</time>
      </trkpt>
      <trkpt lat="49.88135" lon="2.33582">
        <ele>26.6</ele>
        <time>2023-10-06T12:12:51Z</time>
      </trkpt>
      <trkpt lat="49.88136" lon="2.33582">
        <ele>26.6</ele>
        <time>2023-10-06T12:12:52Z</time>
      </trkpt>
      <trkpt lat="49.88136" lon="2.33581">
        <ele>26.6</ele>
        <time>2023-10-06T12:12:53Z</time>
      </trkpt>
      <trkpt lat="49.88137" lon="2.3358">
        <ele>26.6</ele>
        <time>2023-10-06T12:12:54Z</time>
      </trkpt>
      <trkpt lat="49.88137" lon="2.33579">
        <ele>26.6</ele>
        <time>2023-10-06T12:12:55Z</time>
      </trkpt>
      <trkpt lat="49.88137" lon="2.33578">
        <ele>26.6</ele>
        <time>2023-10-06T12:12:56Z</time>
      </trkpt>
      <trkpt lat="49.88138" lon="2.33577">
        <ele>26.6</ele>
        <time>2023-10-06T12:12:57Z</time>
      </trkpt>
      <trkpt lat="49.88138" lon="2.33576">
        <ele>26.6</ele>
        <time>2023-10-06T12:12:58Z</time>
      </trkpt>
      <trkpt lat="49.88138" lon="2.33576">
        <ele>26.6</ele>
        <time>2023-10-06T12:12:59Z</time>
      </trkpt>
      <trkpt lat="49.88139" lon="2.33576">
        <ele>26.6</ele>
        <time>2023-10-06T12:13:00Z</time>
      </trkpt>
      <trkpt lat="49.88139" lon="2.33576">
        <ele>26.6</ele>
        <time>2023-10-06T12:13:01Z</time>
      </trkpt>
      <trkpt lat="49.8814" lon="2.33576">
        <ele>26.6</ele>
        <time>2023-10-06T12:13:02Z</time>
      </trkpt>
      <trkpt lat="49.8814" lon="2.33576">
        <ele>26.6</ele>
        <time>2023-10-06T12:13:03Z</time>
      </trkpt>
      <trkpt lat="49.88141" lon="2.33576">
        <ele>26.6</ele>
        <time>2023-10-06T12:13:04Z</time>
      </trkpt>
      <trkpt lat="49.88142" lon="2.33575">
        <ele>26.7</ele>
        <time>2023-10-06T12:13:05Z</time>
      </trkpt>
      <trkpt lat="49.88143" lon="2.33575">
        <ele>26.7</ele>
        <time>2023-10-06T12:13:06Z</time>
      </trkpt>
      <trkpt lat="49.88144" lon="2.33575">
        <ele>26.7</ele>
        <time>2023-10-06T12:13:07Z</time>
      </trkpt>
      <trkpt lat="49.88145" lon="2.33575">
        <ele>26.7</ele>
        <time>2023-10-06T12:13:08Z</time>
      </trkpt>
      <trkpt lat="49.88145" lon="2.33574">
        <ele>26.7</ele>
        <time>2023-10-06T12:13:09Z</time>
      </trkpt>
      <trkpt lat="49.88146" lon="2.33574">
        <ele>26.7</ele>
        <time>2023-10-06T12:13:10Z</time>
      </trkpt>
      <trkpt lat="49.88147" lon="2.33573">
        <ele>26.7</ele>
        <time>2023-10-06T12:13:11Z</time>
      </trkpt>
      <trkpt lat="49.88148" lon="2.33573">
        <ele>26.7</ele>
        <time>2023-10-06T12:13:12Z</time>
      </trkpt>
      <trkpt lat="49.88149" lon="2.33572">
        <ele>26.7</ele>
        <time>2023-10-06T12:13:13Z</time>
      </trkpt>
      <trkpt lat="49.8815" lon="2.33571">
        <ele>26.7</ele>
        <time>2023-10-06T12:13:14Z</time>
      </trkpt>
      <trkpt lat="49.88151" lon="2.33571">
        <ele>26.7</ele>
        <time>2023-10-06T12:13:15Z</time>
      </trkpt>
      <trkpt lat="49.88152" lon="2.3357">
        <ele>26.7</ele>
        <time>2023-10-06T12:13:16Z</time>
      </trkpt>
      <trkpt lat="49.88152" lon="2.33569">
        <ele>26.7</ele>
        <time>2023-10-06T12:13:17Z</time>
      </trkpt>
      <trkpt lat="49.88153" lon="2.33568">
        <ele>26.7</ele>
        <time>2023-10-06T12:13:18Z</time>
      </trkpt>
      <trkpt lat="49.88154" lon="2.33567">
        <ele>26.7</ele>
        <time>2023-10-06T12:13:19Z</time>
      </trkpt>
      <trkpt lat="49.88156" lon="2.33565">
        <ele>26.7</ele>
        <time>2023-10-06T12:13:20Z</time>
      </trkpt>
      <trkpt lat="49.88157" lon="2.33564">
        <ele>26.7</ele>
        <time>2023-10-06T12:13:21Z</time>
      </trkpt>
      <trkpt lat="49.88158" lon="2.33563">
        <ele>26.7</ele>
        <time>2023-10-06T12:13:22Z</time>
      </trkpt>
      <trkpt lat="49.88158" lon="2.33562">
        <ele>26.7</ele>
        <time>2023-10-06T12:13:23Z</time>
      </trkpt>
      <trkpt lat="49.88159" lon="2.33561">
        <ele>26.7</ele>
        <time>2023-10-06T12:13:24Z</time>
      </trkpt>
      <trkpt lat="49.8816" lon="2.3356">
        <ele>26.7</ele>
        <time>2023-10-06T12:13:25Z</time>
      </trkpt>
      <trkpt lat="49.88161" lon="2.33559">
        <ele>26.7</ele>
        <time>2023-10-06T12:13:26Z</time>
      </trkpt>
      <trkpt lat="49.88162" lon="2.33558">
        <ele>26.7</ele>
        <time>2023-10-06T12:13:27Z</time>
      </trkpt>
      <trkpt lat="49.88163" lon="2.33557">
        <ele>26.7</ele>
        <time>2023-10-06T12:13:28Z</time>
      </trkpt>
      <trkpt lat="49.88164" lon="2.33555">
        <ele>26.7</ele>
        <time>2023-10-06T12:13:29Z</time>
      </trkpt>
      <trkpt lat="49.88165" lon="2.33554">
        <ele>26.7</ele>
        <time>2023-10-06T12:13:30Z</time>
      </trkpt>
      <trkpt lat="49.88166" lon="2.33554">
        <ele>26.7</ele>
        <time>2023-10-06T12:13:31Z</time>
      </trkpt>
      <trkpt lat="49.88167" lon="2.33552">
        <ele>26.7</ele>
        <time>2023-10-06T12:13:32Z</time>
      </trkpt>
      <trkpt lat="49.88167" lon="2.33551">
        <ele>26.7</ele>
        <time>2023-10-06T12:13:33Z</time>
      </trkpt>
      <trkpt lat="49.88168" lon="2.3355">
        <ele>26.7</ele>
        <time>2023-10-06T12:13:34Z</time>
      </trkpt>
      <trkpt lat="49.88169" lon="2.33549">
        <ele>26.7</ele>
        <time>2023-10-06T12:13:35Z</time>
      </trkpt>
      <trkpt lat="49.8817" lon="2.33548">
        <ele>26.7</ele>
        <time>2023-10-06T12:13:36Z</time>
      </trkpt>
      <trkpt lat="49.88171" lon="2.33547">
        <ele>26.7</ele>
        <time>2023-10-06T12:13:37Z</time>
      </trkpt>
      <trkpt lat="49.88171" lon="2.33546">
        <ele>26.7</ele>
        <time>2023-10-06T12:13:38Z</time>
      </trkpt>
      <trkpt lat="49.88172" lon="2.33545">
        <ele>26.7</ele>
        <time>2023-10-06T12:13:39Z</time>
      </trkpt>
      <trkpt lat="49.88173" lon="2.33544">
        <ele>26.7</ele>
        <time>2023-10-06T12:13:40Z</time>
      </trkpt>
      <trkpt lat="49.88174" lon="2.33543">
        <ele>26.7</ele>
        <time>2023-10-06T12:13:41Z</time>
      </trkpt>
      <trkpt lat="49.88175" lon="2.33542">
        <ele>26.7</ele>
        <time>2023-10-06T12:13:42Z</time>
      </trkpt>
      <trkpt lat="49.88176" lon="2.33541">
        <ele>26.7</ele>
        <time>2023-10-06T12:13:43Z</time>
      </trkpt>
      <trkpt lat="49.88176" lon="2.3354">
        <ele>26.7</ele>
        <time>2023-10-06T12:13:44Z</time>
      </trkpt>
      <trkpt lat="49.88177" lon="2.33539">
        <ele>26.7</ele>
        <time>2023-10-06T12:13:45Z</time>
      </trkpt>
      <trkpt lat="49.88178" lon="2.33538">
        <ele>26.7</ele>
        <time>2023-10-06T12:13:46Z</time>
      </trkpt>
      <trkpt lat="49.88179" lon="2.33537">
        <ele>26.7</ele>
        <time>2023-10-06T12:13:47Z</time>
      </trkpt>
      <trkpt lat="49.8818" lon="2.33537">
        <ele>26.7</ele>
        <time>2023-10-06T12:13:48Z</time>
      </trkpt>
      <trkpt lat="49.88181" lon="2.33537">
        <ele>26.7</ele>
        <time>2023-10-06T12:13:49Z</time>
      </trkpt>
      <trkpt lat="49.88182" lon="2.33536">
        <ele>26.7</ele>
        <time>2023-10-06T12:13:50Z</time>
      </trkpt>
      <trkpt lat="49.88183" lon="2.33536">
        <ele>27</ele>
        <time>2023-10-06T12:13:51Z</time>
      </trkpt>
      <trkpt lat="49.88184" lon="2.33536">
        <ele>27.1</ele>
        <time>2023-10-06T12:13:52Z</time>
      </trkpt>
      <trkpt lat="49.88185" lon="2.33536">
        <ele>27.2</ele>
        <time>2023-10-06T12:13:53Z</time>
      </trkpt>
      <trkpt lat="49.88186" lon="2.33536">
        <ele>27.2</ele>
        <time>2023-10-06T12:13:54Z</time>
      </trkpt>
      <trkpt lat="49.88187" lon="2.33536">
        <ele>27.3</ele>
        <time>2023-10-06T12:13:55Z</time>
      </trkpt>
      <trkpt lat="49.88188" lon="2.33536">
        <ele>27.4</ele>
        <time>2023-10-06T12:13:56Z</time>
      </trkpt>
      <trkpt lat="49.88189" lon="2.33536">
        <ele>27.5</ele>
        <time>2023-10-06T12:13:57Z</time>
      </trkpt>
      <trkpt lat="49.8819" lon="2.33536">
        <ele>27.5</ele>
        <time>2023-10-06T12:13:58Z</time>
      </trkpt>
      <trkpt lat="49.88191" lon="2.33537">
        <ele>27.6</ele>
        <time>2023-10-06T12:13:59Z</time>
      </trkpt>
      <trkpt lat="49.88191" lon="2.33537">
        <ele>27.7</ele>
        <time>2023-10-06T12:14:00Z</time>
      </trkpt>
      <trkpt lat="49.88192" lon="2.33537">
        <ele>27.8</ele>
        <time>2023-10-06T12:14:01Z</time>
      </trkpt>
      <trkpt lat="49.88192" lon="2.33537">
        <ele>27.8</ele>
        <time>2023-10-06T12:14:02Z</time>
      </trkpt>
      <trkpt lat="49.88193" lon="2.33537">
        <ele>27.8</ele>
        <time>2023-10-06T12:14:03Z</time>
      </trkpt>
      <trkpt lat="49.88193" lon="2.33537">
        <ele>27.9</ele>
        <time>2023-10-06T12:14:04Z</time>
      </trkpt>
      <trkpt lat="49.88193" lon="2.33537">
        <ele>27.9</ele>
        <time>2023-10-06T12:14:05Z</time>
      </trkpt>
      <trkpt lat="49.88194" lon="2.33537">
        <ele>28</ele>
        <time>2023-10-06T12:14:06Z</time>
      </trkpt>
      <trkpt lat="49.88194" lon="2.33538">
        <ele>28</ele>
        <time>2023-10-06T12:14:07Z</time>
      </trkpt>
      <trkpt lat="49.88194" lon="2.33538">
        <ele>28.1</ele>
        <time>2023-10-06T12:14:08Z</time>
      </trkpt>
      <trkpt lat="49.88195" lon="2.33538">
        <ele>28.1</ele>
        <time>2023-10-06T12:14:09Z</time>
      </trkpt>
      <trkpt lat="49.88195" lon="2.33538">
        <ele>28.1</ele>
        <time>2023-10-06T12:14:10Z</time>
      </trkpt>
      <trkpt lat="49.88195" lon="2.33538">
        <ele>28.2</ele>
        <time>2023-10-06T12:14:11Z</time>
      </trkpt>
      <trkpt lat="49.88196" lon="2.33538">
        <ele>28.2</ele>
        <time>2023-10-06T12:14:12Z</time>
      </trkpt>
      <trkpt lat="49.88196" lon="2.33538">
        <ele>28.2</ele>
        <time>2023-10-06T12:14:13Z</time>
      </trkpt>
      <trkpt lat="49.88196" lon="2.33538">
        <ele>28.2</ele>
        <time>2023-10-06T12:14:14Z</time>
      </trkpt>
      <trkpt lat="49.88196" lon="2.33538">
        <ele>28.2</ele>
        <time>2023-10-06T12:14:15Z</time>
      </trkpt>
      <trkpt lat="49.88196" lon="2.33538">
        <ele>28.2</ele>
        <time>2023-10-06T12:14:16Z</time>
      </trkpt>
      <trkpt lat="49.88195" lon="2.33538">
        <ele>28.2</ele>
        <time>2023-10-06T12:14:17Z</time>
      </trkpt>
      <trkpt lat="49.88195" lon="2.33537">
        <ele>28.3</ele>
        <time>2023-10-06T12:14:18Z</time>
      </trkpt>
      <trkpt lat="49.88195" lon="2.33537">
        <ele>28.3</ele>
        <time>2023-10-06T12:14:19Z</time>
      </trkpt>
      <trkpt lat="49.88195" lon="2.33537">
        <ele>28.3</ele>
        <time>2023-10-06T12:14:20Z</time>
      </trkpt>
      <trkpt lat="49.88195" lon="2.33537">
        <ele>28.3</ele>
        <time>2023-10-06T12:14:21Z</time>
      </trkpt>
      <trkpt lat="49.88195" lon="2.33537">
        <ele>28.4</ele>
        <time>2023-10-06T12:14:22Z</time>
      </trkpt>
      <trkpt lat="49.88195" lon="2.33536">
        <ele>28.4</ele>
        <time>2023-10-06T12:14:23Z</time>
      </trkpt>
      <trkpt lat="49.88194" lon="2.33536">
        <ele>28.5</ele>
        <time>2023-10-06T12:14:24Z</time>
      </trkpt>
      <trkpt lat="49.88194" lon="2.33535">
        <ele>28.5</ele>
        <time>2023-10-06T12:14:25Z</time>
      </trkpt>
      <trkpt lat="49.88194" lon="2.33535">
        <ele>28.6</ele>
        <time>2023-10-06T12:14:26Z</time>
      </trkpt>
      <trkpt lat="49.88194" lon="2.33534">
        <ele>28.6</ele>
        <time>2023-10-06T12:14:27Z</time>
      </trkpt>
      <trkpt lat="49.88194" lon="2.33533">
        <ele>28.7</ele>
        <time>2023-10-06T12:14:28Z</time>
      </trkpt>
      <trkpt lat="49.88194" lon="2.33533">
        <ele>28.7</ele>
        <time>2023-10-06T12:14:29Z</time>
      </trkpt>
      <trkpt lat="49.88195" lon="2.33533">
        <ele>28.8</ele>
        <time>2023-10-06T12:14:30Z</time>
      </trkpt>
      <trkpt lat="49.88195" lon="2.33532">
        <ele>28.8</ele>
        <time>2023-10-06T12:14:31Z</time>
      </trkpt>
      <trkpt lat="49.88195" lon="2.33531">
        <ele>28.9</ele>
        <time>2023-10-06T12:14:32Z</time>
      </trkpt>
      <trkpt lat="49.88196" lon="2.33531">
        <ele>29</ele>
        <time>2023-10-06T12:14:33Z</time>
      </trkpt>
      <trkpt lat="49.88196" lon="2.3353">
        <ele>29.1</ele>
        <time>2023-10-06T12:14:34Z</time>
      </trkpt>
      <trkpt lat="49.88196" lon="2.3353">
        <ele>29.1</ele>
        <time>2023-10-06T12:14:35Z</time>
      </trkpt>
      <trkpt lat="49.88196" lon="2.33531">
        <ele>29.3</ele>
        <time>2023-10-06T12:14:36Z</time>
      </trkpt>
      <trkpt lat="49.88196" lon="2.33531">
        <ele>29.3</ele>
        <time>2023-10-06T12:14:37Z</time>
      </trkpt>
      <trkpt lat="49.88196" lon="2.3353">
        <ele>29.3</ele>
        <time>2023-10-06T12:14:38Z</time>
      </trkpt>
      <trkpt lat="49.88196" lon="2.3353">
        <ele>29.4</ele>
        <time>2023-10-06T12:14:39Z</time>
      </trkpt>
      <trkpt lat="49.88197" lon="2.33529">
        <ele>29.5</ele>
        <time>2023-10-06T12:14:40Z</time>
      </trkpt>
      <trkpt lat="49.88197" lon="2.33528">
        <ele>29.6</ele>
        <time>2023-10-06T12:14:41Z</time>
      </trkpt>
      <trkpt lat="49.88197" lon="2.33528">
        <ele>29.7</ele>
        <time>2023-10-06T12:14:42Z</time>
      </trkpt>
      <trkpt lat="49.88198" lon="2.33527">
        <ele>29.7</ele>
        <time>2023-10-06T12:14:43Z</time>
      </trkpt>
      <trkpt lat="49.88198" lon="2.33526">
        <ele>29.8</ele>
        <time>2023-10-06T12:14:44Z</time>
      </trkpt>
      <trkpt lat="49.88198" lon="2.33526">
        <ele>29.9</ele>
        <time>2023-10-06T12:14:45Z</time>
      </trkpt>
      <trkpt lat="49.88199" lon="2.33525">
        <ele>30</ele>
        <time>2023-10-06T12:14:46Z</time>
      </trkpt>
      <trkpt lat="49.88199" lon="2.33525">
        <ele>30</ele>
        <time>2023-10-06T12:14:47Z</time>
      </trkpt>
      <trkpt lat="49.88199" lon="2.33524">
        <ele>30.1</ele>
        <time>2023-10-06T12:14:48Z</time>
      </trkpt>
      <trkpt lat="49.88199" lon="2.33523">
        <ele>30.2</ele>
        <time>2023-10-06T12:14:49Z</time>
      </trkpt>
      <trkpt lat="49.882" lon="2.33523">
        <ele>30.3</ele>
        <time>2023-10-06T12:14:50Z</time>
      </trkpt>
      <trkpt lat="49.882" lon="2.33522">
        <ele>30.3</ele>
        <time>2023-10-06T12:14:51Z</time>
      </trkpt>
      <trkpt lat="49.882" lon="2.33522">
        <ele>30.4</ele>
        <time>2023-10-06T12:14:52Z</time>
      </trkpt>
      <trkpt lat="49.88201" lon="2.33521">
        <ele>30.5</ele>
        <time>2023-10-06T12:14:53Z</time>
      </trkpt>
      <trkpt lat="49.88201" lon="2.3352">
        <ele>30.6</ele>
        <time>2023-10-06T12:14:54Z</time>
      </trkpt>
      <trkpt lat="49.88201" lon="2.3352">
        <ele>30.6</ele>
        <time>2023-10-06T12:14:55Z</time>
      </trkpt>
      <trkpt lat="49.88201" lon="2.33519">
        <ele>30.7</ele>
        <time>2023-10-06T12:14:56Z</time>
      </trkpt>
      <trkpt lat="49.88202" lon="2.33519">
        <ele>30.7</ele>
        <time>2023-10-06T12:14:57Z</time>
      </trkpt>
      <trkpt lat="49.88202" lon="2.33518">
        <ele>30.8</ele>
        <time>2023-10-06T12:14:58Z</time>
      </trkpt>
      <trkpt lat="49.88202" lon="2.33518">
        <ele>30.9</ele>
        <time>2023-10-06T12:14:59Z</time>
      </trkpt>
      <trkpt lat="49.88202" lon="2.33517">
        <ele>30.9</ele>
        <time>2023-10-06T12:15:00Z</time>
      </trkpt>
      <trkpt lat="49.88202" lon="2.33517">
        <ele>31</ele>
        <time>2023-10-06T12:15:01Z</time>
      </trkpt>
      <trkpt lat="49.88203" lon="2.33516">
        <ele>31</ele>
        <time>2023-10-06T12:15:02Z</time>
      </trkpt>
      <trkpt lat="49.88203" lon="2.33516">
        <ele>31.1</ele>
        <time>2023-10-06T12:15:03Z</time>
      </trkpt>
      <trkpt lat="49.88203" lon="2.33516">
        <ele>31.1</ele>
        <time>2023-10-06T12:15:04Z</time>
      </trkpt>
      <trkpt lat="49.88203" lon="2.33516">
        <ele>31.1</ele>
        <time>2023-10-06T12:15:05Z</time>
      </trkpt>
      <trkpt lat="49.88203" lon="2.33515">
        <ele>31.1</ele>
        <time>2023-10-06T12:15:06Z</time>
      </trkpt>
      <trkpt lat="49.88203" lon="2.33515">
        <ele>31.1</ele>
        <time>2023-10-06T12:15:07Z</time>
      </trkpt>
      <trkpt lat="49.88203" lon="2.33515">
        <ele>31.1</ele>
        <time>2023-10-06T12:15:08Z</time>
      </trkpt>
      <trkpt lat="49.88203" lon="2.33515">
        <ele>31.2</ele>
        <time>2023-10-06T12:15:09Z</time>
      </trkpt>
      <trkpt lat="49.88203" lon="2.33515">
        <ele>31.2</ele>
        <time>2023-10-06T12:15:10Z</time>
      </trkpt>
      <trkpt lat="49.88203" lon="2.33515">
        <ele>31.2</ele>
        <time>2023-10-06T12:15:11Z</time>
      </trkpt>
      <trkpt lat="49.88204" lon="2.33514">
        <ele>31.2</ele>
        <time>2023-10-06T12:15:12Z</time>
      </trkpt>
      <trkpt lat="49.88203" lon="2.33514">
        <ele>31.3</ele>
        <time>2023-10-06T12:15:13Z</time>
      </trkpt>
      <trkpt lat="49.88203" lon="2.33514">
        <ele>31.3</ele>
        <time>2023-10-06T12:15:14Z</time>
      </trkpt>
      <trkpt lat="49.88203" lon="2.33514">
        <ele>31.3</ele>
        <time>2023-10-06T12:15:15Z</time>
      </trkpt>
      <trkpt lat="49.88203" lon="2.33515">
        <ele>31.3</ele>
        <time>2023-10-06T12:15:16Z</time>
      </trkpt>
      <trkpt lat="49.88203" lon="2.33515">
        <ele>31.3</ele>
        <time>2023-10-06T12:15:17Z</time>
      </trkpt>
      <trkpt lat="49.88203" lon="2.33514">
        <ele>31.3</ele>
        <time>2023-10-06T12:15:18Z</time>
      </trkpt>
      <trkpt lat="49.88203" lon="2.33514">
        <ele>31.4</ele>
        <time>2023-10-06T12:15:19Z</time>
      </trkpt>
      <trkpt lat="49.88203" lon="2.33514">
        <ele>31.4</ele>
        <time>2023-10-06T12:15:20Z</time>
      </trkpt>
      <trkpt lat="49.88203" lon="2.33513">
        <ele>31.4</ele>
        <time>2023-10-06T12:15:21Z</time>
      </trkpt>
      <trkpt lat="49.88204" lon="2.33513">
        <ele>31.5</ele>
        <time>2023-10-06T12:15:22Z</time>
      </trkpt>
      <trkpt lat="49.88204" lon="2.33513">
        <ele>31.5</ele>
        <time>2023-10-06T12:15:23Z</time>
      </trkpt>
      <trkpt lat="49.88203" lon="2.33513">
        <ele>31.5</ele>
        <time>2023-10-06T12:15:24Z</time>
      </trkpt>
      <trkpt lat="49.88204" lon="2.33512">
        <ele>31.6</ele>
        <time>2023-10-06T12:15:25Z</time>
      </trkpt>
      <trkpt lat="49.88204" lon="2.33512">
        <ele>31.6</ele>
        <time>2023-10-06T12:15:26Z</time>
      </trkpt>
      <trkpt lat="49.88204" lon="2.33512">
        <ele>31.7</ele>
        <time>2023-10-06T12:15:27Z</time>
      </trkpt>
      <trkpt lat="49.88204" lon="2.33511">
        <ele>31.7</ele>
        <time>2023-10-06T12:15:28Z</time>
      </trkpt>
      <trkpt lat="49.88205" lon="2.3351">
        <ele>31.8</ele>
        <time>2023-10-06T12:15:29Z</time>
      </trkpt>
      <trkpt lat="49.88205" lon="2.33509">
        <ele>31.9</ele>
        <time>2023-10-06T12:15:30Z</time>
      </trkpt>
      <trkpt lat="49.88206" lon="2.33508">
        <ele>32</ele>
        <time>2023-10-06T12:15:31Z</time>
      </trkpt>
      <trkpt lat="49.88207" lon="2.33506">
        <ele>32.2</ele>
        <time>2023-10-06T12:15:32Z</time>
      </trkpt>
      <trkpt lat="49.88208" lon="2.33505">
        <ele>32.3</ele>
        <time>2023-10-06T12:15:33Z</time>
      </trkpt>
      <trkpt lat="49.88209" lon="2.33504">
        <ele>32.4</ele>
        <time>2023-10-06T12:15:34Z</time>
      </trkpt>
      <trkpt lat="49.8821" lon="2.33503">
        <ele>32.5</ele>
        <time>2023-10-06T12:15:35Z</time>
      </trkpt>
      <trkpt lat="49.8821" lon="2.33502">
        <ele>32.6</ele>
        <time>2023-10-06T12:15:36Z</time>
      </trkpt>
      <trkpt lat="49.88211" lon="2.33502">
        <ele>32.7</ele>
        <time>2023-10-06T12:15:37Z</time>
      </trkpt>
      <trkpt lat="49.88211" lon="2.33501">
        <ele>32.7</ele>
        <time>2023-10-06T12:15:38Z</time>
      </trkpt>
      <trkpt lat="49.88212" lon="2.33501">
        <ele>32.8</ele>
        <time>2023-10-06T12:15:39Z</time>
      </trkpt>
      <trkpt lat="49.88212" lon="2.335">
        <ele>32.8</ele>
        <time>2023-10-06T12:15:40Z</time>
      </trkpt>
      <trkpt lat="49.88212" lon="2.335">
        <ele>32.9</ele>
        <time>2023-10-06T12:15:41Z</time>
      </trkpt>
      <trkpt lat="49.88213" lon="2.33499">
        <ele>32.9</ele>
        <time>2023-10-06T12:15:42Z</time>
      </trkpt>
      <trkpt lat="49.88213" lon="2.33499">
        <ele>32.9</ele>
        <time>2023-10-06T12:15:43Z</time>
      </trkpt>
      <trkpt lat="49.88213" lon="2.33499">
        <ele>33</ele>
        <time>2023-10-06T12:15:44Z</time>
      </trkpt>
      <trkpt lat="49.88213" lon="2.33499">
        <ele>33</ele>
        <time>2023-10-06T12:15:45Z</time>
      </trkpt>
      <trkpt lat="49.88213" lon="2.33499">
        <ele>33</ele>
        <time>2023-10-06T12:15:46Z</time>
      </trkpt>
      <trkpt lat="49.88214" lon="2.33499">
        <ele>33</ele>
        <time>2023-10-06T12:15:47Z</time>
      </trkpt>
      <trkpt lat="49.88214" lon="2.33498">
        <ele>33</ele>
        <time>2023-10-06T12:15:48Z</time>
      </trkpt>
      <trkpt lat="49.88214" lon="2.33498">
        <ele>33.1</ele>
        <time>2023-10-06T12:15:49Z</time>
      </trkpt>
      <trkpt lat="49.88214" lon="2.33498">
        <ele>33.1</ele>
        <time>2023-10-06T12:15:50Z</time>
      </trkpt>
      <trkpt lat="49.88214" lon="2.33497">
        <ele>33.1</ele>
        <time>2023-10-06T12:15:51Z</time>
      </trkpt>
      <trkpt lat="49.88214" lon="2.33497">
        <ele>33.1</ele>
        <time>2023-10-06T12:15:52Z</time>
      </trkpt>
      <trkpt lat="49.88215" lon="2.33497">
        <ele>33.1</ele>
        <time>2023-10-06T12:15:53Z</time>
      </trkpt>
      <trkpt lat="49.88215" lon="2.33497">
        <ele>33.1</ele>
        <time>2023-10-06T12:15:54Z</time>
      </trkpt>
      <trkpt lat="49.88215" lon="2.33496">
        <ele>33.2</ele>
        <time>2023-10-06T12:15:55Z</time>
      </trkpt>
      <trkpt lat="49.88215" lon="2.33496">
        <ele>33.2</ele>
        <time>2023-10-06T12:15:56Z</time>
      </trkpt>
      <trkpt lat="49.88215" lon="2.33496">
        <ele>33.2</ele>
        <time>2023-10-06T12:15:57Z</time>
      </trkpt>
      <trkpt lat="49.88215" lon="2.33496">
        <ele>33.2</ele>
        <time>2023-10-06T12:15:58Z</time>
      </trkpt>
      <trkpt lat="49.88215" lon="2.33495">
        <ele>33.2</ele>
        <time>2023-10-06T12:15:59Z</time>
      </trkpt>
      <trkpt lat="49.88215" lon="2.33495">
        <ele>33.3</ele>
        <time>2023-10-06T12:16:00Z</time>
      </trkpt>
      <trkpt lat="49.88216" lon="2.33495">
        <ele>33.3</ele>
        <time>2023-10-06T12:16:01Z</time>
      </trkpt>
      <trkpt lat="49.88216" lon="2.33495">
        <ele>33.3</ele>
        <time>2023-10-06T12:16:02Z</time>
      </trkpt>
      <trkpt lat="49.88216" lon="2.33494">
        <ele>33.3</ele>
        <time>2023-10-06T12:16:03Z</time>
      </trkpt>
      <trkpt lat="49.88216" lon="2.33494">
        <ele>33.4</ele>
        <time>2023-10-06T12:16:04Z</time>
      </trkpt>
      <trkpt lat="49.88217" lon="2.33493">
        <ele>33.4</ele>
        <time>2023-10-06T12:16:05Z</time>
      </trkpt>
      <trkpt lat="49.88217" lon="2.33492">
        <ele>33.4</ele>
        <time>2023-10-06T12:16:06Z</time>
      </trkpt>
      <trkpt lat="49.88217" lon="2.33492">
        <ele>33.4</ele>
        <time>2023-10-06T12:16:07Z</time>
      </trkpt>
      <trkpt lat="49.88217" lon="2.33491">
        <ele>33.5</ele>
        <time>2023-10-06T12:16:08Z</time>
      </trkpt>
      <trkpt lat="49.88217" lon="2.33491">
        <ele>33.5</ele>
        <time>2023-10-06T12:16:09Z</time>
      </trkpt>
      <trkpt lat="49.88218" lon="2.3349">
        <ele>33.5</ele>
        <time>2023-10-06T12:16:10Z</time>
      </trkpt>
      <trkpt lat="49.88218" lon="2.33489">
        <ele>33.6</ele>
        <time>2023-10-06T12:16:11Z</time>
      </trkpt>
      <trkpt lat="49.88218" lon="2.33488">
        <ele>33.6</ele>
        <time>2023-10-06T12:16:12Z</time>
      </trkpt>
      <trkpt lat="49.88218" lon="2.33487">
        <ele>33.7</ele>
        <time>2023-10-06T12:16:13Z</time>
      </trkpt>
      <trkpt lat="49.88219" lon="2.33486">
        <ele>33.7</ele>
        <time>2023-10-06T12:16:14Z</time>
      </trkpt>
      <trkpt lat="49.88219" lon="2.33484">
        <ele>33.8</ele>
        <time>2023-10-06T12:16:15Z</time>
      </trkpt>
      <trkpt lat="49.88219" lon="2.33483">
        <ele>33.8</ele>
        <time>2023-10-06T12:16:16Z</time>
      </trkpt>
      <trkpt lat="49.8822" lon="2.33482">
        <ele>33.9</ele>
        <time>2023-10-06T12:16:17Z</time>
      </trkpt>
      <trkpt lat="49.8822" lon="2.3348">
        <ele>33.9</ele>
        <time>2023-10-06T12:16:18Z</time>
      </trkpt>
      <trkpt lat="49.88221" lon="2.33479">
        <ele>33.9</ele>
        <time>2023-10-06T12:16:19Z</time>
      </trkpt>
      <trkpt lat="49.88221" lon="2.33478">
        <ele>34</ele>
        <time>2023-10-06T12:16:20Z</time>
      </trkpt>
      <trkpt lat="49.88222" lon="2.33477">
        <ele>34</ele>
        <time>2023-10-06T12:16:21Z</time>
      </trkpt>
      <trkpt lat="49.88222" lon="2.33476">
        <ele>34</ele>
        <time>2023-10-06T12:16:22Z</time>
      </trkpt>
      <trkpt lat="49.88222" lon="2.33475">
        <ele>34.1</ele>
        <time>2023-10-06T12:16:23Z</time>
      </trkpt>
      <trkpt lat="49.88222" lon="2.33474">
        <ele>34.1</ele>
        <time>2023-10-06T12:16:24Z</time>
      </trkpt>
      <trkpt lat="49.88222" lon="2.33473">
        <ele>34.1</ele>
        <time>2023-10-06T12:16:25Z</time>
      </trkpt>
      <trkpt lat="49.88223" lon="2.33472">
        <ele>34.1</ele>
        <time>2023-10-06T12:16:26Z</time>
      </trkpt>
      <trkpt lat="49.88223" lon="2.33471">
        <ele>34.1</ele>
        <time>2023-10-06T12:16:27Z</time>
      </trkpt>
      <trkpt lat="49.88223" lon="2.33469">
        <ele>34.2</ele>
        <time>2023-10-06T12:16:28Z</time>
      </trkpt>
      <trkpt lat="49.88223" lon="2.33468">
        <ele>34.2</ele>
        <time>2023-10-06T12:16:29Z</time>
      </trkpt>
      <trkpt lat="49.88224" lon="2.33467">
        <ele>34.2</ele>
        <time>2023-10-06T12:16:30Z</time>
      </trkpt>
      <trkpt lat="49.88224" lon="2.33466">
        <ele>34.2</ele>
        <time>2023-10-06T12:16:31Z</time>
      </trkpt>
      <trkpt lat="49.88224" lon="2.33465">
        <ele>34.2</ele>
        <time>2023-10-06T12:16:32Z</time>
      </trkpt>
      <trkpt lat="49.88224" lon="2.33463">
        <ele>34.2</ele>
        <time>2023-10-06T12:16:33Z</time>
      </trkpt>
      <trkpt lat="49.88225" lon="2.33462">
        <ele>34.2</ele>
        <time>2023-10-06T12:16:34Z</time>
      </trkpt>
      <trkpt lat="49.88225" lon="2.33461">
        <ele>34.2</ele>
        <time>2023-10-06T12:16:35Z</time>
      </trkpt>
      <trkpt lat="49.88225" lon="2.33461">
        <ele>34.2</ele>
        <time>2023-10-06T12:16:36Z</time>
      </trkpt>
      <trkpt lat="49.88225" lon="2.3346">
        <ele>34.3</ele>
        <time>2023-10-06T12:16:37Z</time>
      </trkpt>
      <trkpt lat="49.88226" lon="2.33459">
        <ele>34.3</ele>
        <time>2023-10-06T12:16:38Z</time>
      </trkpt>
      <trkpt lat="49.88226" lon="2.33458">
        <ele>34.3</ele>
        <time>2023-10-06T12:16:39Z</time>
      </trkpt>
      <trkpt lat="49.88226" lon="2.33458">
        <ele>34.3</ele>
        <time>2023-10-06T12:16:40Z</time>
      </trkpt>
      <trkpt lat="49.88227" lon="2.33457">
        <ele>34.3</ele>
        <time>2023-10-06T12:16:41Z</time>
      </trkpt>
      <trkpt lat="49.88227" lon="2.33457">
        <ele>34.3</ele>
        <time>2023-10-06T12:16:42Z</time>
      </trkpt>
      <trkpt lat="49.88227" lon="2.33456">
        <ele>34.3</ele>
        <time>2023-10-06T12:16:43Z</time>
      </trkpt>
      <trkpt lat="49.88228" lon="2.33455">
        <ele>34.3</ele>
        <time>2023-10-06T12:16:44Z</time>
      </trkpt>
      <trkpt lat="49.88228" lon="2.33455">
        <ele>34.3</ele>
        <time>2023-10-06T12:16:45Z</time>
      </trkpt>
      <trkpt lat="49.88228" lon="2.33454">
        <ele>34.3</ele>
        <time>2023-10-06T12:16:46Z</time>
      </trkpt>
      <trkpt lat="49.88229" lon="2.33453">
        <ele>34.3</ele>
        <time>2023-10-06T12:16:47Z</time>
      </trkpt>
      <trkpt lat="49.88229" lon="2.33453">
        <ele>34.3</ele>
        <time>2023-10-06T12:16:48Z</time>
      </trkpt>
      <trkpt lat="49.88229" lon="2.33453">
        <ele>34.3</ele>
        <time>2023-10-06T12:16:49Z</time>
      </trkpt>
      <trkpt lat="49.88229" lon="2.33453">
        <ele>34.3</ele>
        <time>2023-10-06T12:16:50Z</time>
      </trkpt>
      <trkpt lat="49.88228" lon="2.33453">
        <ele>34.3</ele>
        <time>2023-10-06T12:16:51Z</time>
      </trkpt>
      <trkpt lat="49.88228" lon="2.33453">
        <ele>34.3</ele>
        <time>2023-10-06T12:16:52Z</time>
      </trkpt>
      <trkpt lat="49.88228" lon="2.33453">
        <ele>34.3</ele>
        <time>2023-10-06T12:16:53Z</time>
      </trkpt>
      <trkpt lat="49.88228" lon="2.33453">
        <ele>34.3</ele>
        <time>2023-10-06T12:16:54Z</time>
      </trkpt>
      <trkpt lat="49.88228" lon="2.33453">
        <ele>34.2</ele>
        <time>2023-10-06T12:16:55Z</time>
      </trkpt>
      <trkpt lat="49.88228" lon="2.33453">
        <ele>34.2</ele>
        <time>2023-10-06T12:16:56Z</time>
      </trkpt>
      <trkpt lat="49.88228" lon="2.33453">
        <ele>34.2</ele>
        <time>2023-10-06T12:16:57Z</time>
      </trkpt>
      <trkpt lat="49.88228" lon="2.33453">
        <ele>34.2</ele>
        <time>2023-10-06T12:16:58Z</time>
      </trkpt>
      <trkpt lat="49.88228" lon="2.33453">
        <ele>34.2</ele>
        <time>2023-10-06T12:16:59Z</time>
      </trkpt>
      <trkpt lat="49.88228" lon="2.33453">
        <ele>34.2</ele>
        <time>2023-10-06T12:17:00Z</time>
      </trkpt>
      <trkpt lat="49.88228" lon="2.33453">
        <ele>34.2</ele>
        <time>2023-10-06T12:17:01Z</time>
      </trkpt>
      <trkpt lat="49.88228" lon="2.33453">
        <ele>34.2</ele>
        <time>2023-10-06T12:17:02Z</time>
      </trkpt>
      <trkpt lat="49.88228" lon="2.33453">
        <ele>34.2</ele>
        <time>2023-10-06T12:17:03Z</time>
      </trkpt>
      <trkpt lat="49.88228" lon="2.33453">
        <ele>34.2</ele>
        <time>2023-10-06T12:17:04Z</time>
      </trkpt>
      <trkpt lat="49.88228" lon="2.33453">
        <ele>34.2</ele>
        <time>2023-10-06T12:17:05Z</time>
      </trkpt>
      <trkpt lat="49.88228" lon="2.33453">
        <ele>34.2</ele>
        <time>2023-10-06T12:17:06Z</time>
      </trkpt>
      <trkpt lat="49.88228" lon="2.33453">
        <ele>34.2</ele>
        <time>2023-10-06T12:17:07Z</time>
      </trkpt>
      <trkpt lat="49.88228" lon="2.33453">
        <ele>34.2</ele>
        <time>2023-10-06T12:17:08Z</time>
      </trkpt>
      <trkpt lat="49.88228" lon="2.33453">
        <ele>34.2</ele>
        <time>2023-10-06T12:17:09Z</time>
      </trkpt>
      <trkpt lat="49.88228" lon="2.33453">
        <ele>34.2</ele>
        <time>2023-10-06T12:17:10Z</time>
      </trkpt>
      <trkpt lat="49.88228" lon="2.33453">
        <ele>34.2</ele>
        <time>2023-10-06T12:17:11Z</time>
      </trkpt>
      <trkpt lat="49.88228" lon="2.33453">
        <ele>34.2</ele>
        <time>2023-10-06T12:17:12Z</time>
      </trkpt>
      <trkpt lat="49.88228" lon="2.33453">
        <ele>34.2</ele>
        <time>2023-10-06T12:17:13Z</time>
      </trkpt>
      <trkpt lat="49.88228" lon="2.33453">
        <ele>34.2</ele>
        <time>2023-10-06T12:17:14Z</time>
      </trkpt>
      <trkpt lat="49.88228" lon="2.33453">
        <ele>34.2</ele>
        <time>2023-10-06T12:17:15Z</time>
      </trkpt>
      <trkpt lat="49.88228" lon="2.33453">
        <ele>34.2</ele>
        <time>2023-10-06T12:17:16Z</time>
      </trkpt>
      <trkpt lat="49.88228" lon="2.33453">
        <ele>34.2</ele>
        <time>2023-10-06T12:17:17Z</time>
      </trkpt>
      <trkpt lat="49.88228" lon="2.33453">
        <ele>34.2</ele>
        <time>2023-10-06T12:17:18Z</time>
      </trkpt>
      <trkpt lat="49.88228" lon="2.33453">
        <ele>34.2</ele>
        <time>2023-10-06T12:17:19Z</time>
      </trkpt>
      <trkpt lat="49.88228" lon="2.33453">
        <ele>34.2</ele>
        <time>2023-10-06T12:17:20Z</time>
      </trkpt>
      <trkpt lat="49.88228" lon="2.33453">
        <ele>34.2</ele>
        <time>2023-10-06T12:17:21Z</time>
      </trkpt>
      <trkpt lat="49.88228" lon="2.33453">
        <ele>34.2</ele>
        <time>2023-10-06T12:17:22Z</time>
      </trkpt>
      <trkpt lat="49.88228" lon="2.33453">
        <ele>34.2</ele>
        <time>2023-10-06T12:17:23Z</time>
      </trkpt>
      <trkpt lat="49.88228" lon="2.33453">
        <ele>34.2</ele>
        <time>2023-10-06T12:17:24Z</time>
      </trkpt>
      <trkpt lat="49.88228" lon="2.33453">
        <ele>34.2</ele>
        <time>2023-10-06T12:17:25Z</time>
      </trkpt>
      <trkpt lat="49.88228" lon="2.33453">
        <ele>34.2</ele>
        <time>2023-10-06T12:17:26Z</time>
      </trkpt>
      <trkpt lat="49.88228" lon="2.33453">
        <ele>34.2</ele>
        <time>2023-10-06T12:17:27Z</time>
      </trkpt>
      <trkpt lat="49.88228" lon="2.33453">
        <ele>34.2</ele>
        <time>2023-10-06T12:17:28Z</time>
      </trkpt>
      <trkpt lat="49.88228" lon="2.33453">
        <ele>34.2</ele>
        <time>2023-10-06T12:17:29Z</time>
      </trkpt>
      <trkpt lat="49.88228" lon="2.33453">
        <ele>34.2</ele>
        <time>2023-10-06T12:17:30Z</time>
      </trkpt>
      <trkpt lat="49.88228" lon="2.33453">
        <ele>34.2</ele>
        <time>2023-10-06T12:17:31Z</time>
      </trkpt>
      <trkpt lat="49.88228" lon="2.33453">
        <ele>34.2</ele>
        <time>2023-10-06T12:17:32Z</time>
      </trkpt>
      <trkpt lat="49.88228" lon="2.33453">
        <ele>34.2</ele>
        <time>2023-10-06T12:17:33Z</time>
      </trkpt>
      <trkpt lat="49.88228" lon="2.33453">
        <ele>34.2</ele>
        <time>2023-10-06T12:17:34Z</time>
      </trkpt>
      <trkpt lat="49.88228" lon="2.33453">
        <ele>34.2</ele>
        <time>2023-10-06T12:17:35Z</time>
      </trkpt>
      <trkpt lat="49.88227" lon="2.33453">
        <ele>34.2</ele>
        <time>2023-10-06T12:17:36Z</time>
      </trkpt>
      <trkpt lat="49.88227" lon="2.33453">
        <ele>34.2</ele>
        <time>2023-10-06T12:17:37Z</time>
      </trkpt>
      <trkpt lat="49.88227" lon="2.33453">
        <ele>34.2</ele>
        <time>2023-10-06T12:17:38Z</time>
      </trkpt>
      <trkpt lat="49.88227" lon="2.33453">
        <ele>34.2</ele>
        <time>2023-10-06T12:17:39Z</time>
      </trkpt>
      <trkpt lat="49.88227" lon="2.33453">
        <ele>34.2</ele>
        <time>2023-10-06T12:17:40Z</time>
      </trkpt>
      <trkpt lat="49.88227" lon="2.33453">
        <ele>34.2</ele>
        <time>2023-10-06T12:17:41Z</time>
      </trkpt>
      <trkpt lat="49.88227" lon="2.33453">
        <ele>34.2</ele>
        <time>2023-10-06T12:17:42Z</time>
      </trkpt>
      <trkpt lat="49.88227" lon="2.33453">
        <ele>34.2</ele>
        <time>2023-10-06T12:17:43Z</time>
      </trkpt>
      <trkpt lat="49.88227" lon="2.33453">
        <ele>34.2</ele>
        <time>2023-10-06T12:17:44Z</time>
      </trkpt>
      <trkpt lat="49.88227" lon="2.33453">
        <ele>34.2</ele>
        <time>2023-10-06T12:17:45Z</time>
      </trkpt>
      <trkpt lat="49.88227" lon="2.33453">
        <ele>34.2</ele>
        <time>2023-10-06T12:17:46Z</time>
      </trkpt>
      <trkpt lat="49.88227" lon="2.33453">
        <ele>34.2</ele>
        <time>2023-10-06T12:17:47Z</time>
      </trkpt>
      <trkpt lat="49.88227" lon="2.33453">
        <ele>34.2</ele>
        <time>2023-10-06T12:17:48Z</time>
      </trkpt>
      <trkpt lat="49.88227" lon="2.33453">
        <ele>34.2</ele>
        <time>2023-10-06T12:17:49Z</time>
      </trkpt>
      <trkpt lat="49.88227" lon="2.33453">
        <ele>34.2</ele>
        <time>2023-10-06T12:17:50Z</time>
      </trkpt>
      <trkpt lat="49.88227" lon="2.33453">
        <ele>34.2</ele>
        <time>2023-10-06T12:17:51Z</time>
      </trkpt>
      <trkpt lat="49.88227" lon="2.33453">
        <ele>34.2</ele>
        <time>2023-10-06T12:17:52Z</time>
      </trkpt>
      <trkpt lat="49.88227" lon="2.33453">
        <ele>34.2</ele>
        <time>2023-10-06T12:17:53Z</time>
      </trkpt>
      <trkpt lat="49.88227" lon="2.33453">
        <ele>34.2</ele>
        <time>2023-10-06T12:17:54Z</time>
      </trkpt>
      <trkpt lat="49.88227" lon="2.33453">
        <ele>34.2</ele>
        <time>2023-10-06T12:17:55Z</time>
      </trkpt>
      <trkpt lat="49.88227" lon="2.33453">
        <ele>34.2</ele>
        <time>2023-10-06T12:17:56Z</time>
      </trkpt>
      <trkpt lat="49.88227" lon="2.33453">
        <ele>34.2</ele>
        <time>2023-10-06T12:17:57Z</time>
      </trkpt>
      <trkpt lat="49.88227" lon="2.33453">
        <ele>34.2</ele>
        <time>2023-10-06T12:17:58Z</time>
      </trkpt>
      <trkpt lat="49.88227" lon="2.33453">
        <ele>34.2</ele>
        <time>2023-10-06T12:17:59Z</time>
      </trkpt>
      <trkpt lat="49.88227" lon="2.33453">
        <ele>34.2</ele>
        <time>2023-10-06T12:18:00Z</time>
      </trkpt>
      <trkpt lat="49.88227" lon="2.33453">
        <ele>34.2</ele>
        <time>2023-10-06T12:18:01Z</time>
      </trkpt>
      <trkpt lat="49.88227" lon="2.33453">
        <ele>34.2</ele>
        <time>2023-10-06T12:18:02Z</time>
      </trkpt>
      <trkpt lat="49.88227" lon="2.33454">
        <ele>34.2</ele>
        <time>2023-10-06T12:18:03Z</time>
      </trkpt>
      <trkpt lat="49.88227" lon="2.33454">
        <ele>34.2</ele>
        <time>2023-10-06T12:18:04Z</time>
      </trkpt>
      <trkpt lat="49.88227" lon="2.33454">
        <ele>34.2</ele>
        <time>2023-10-06T12:18:05Z</time>
      </trkpt>
      <trkpt lat="49.88227" lon="2.33454">
        <ele>34.2</ele>
        <time>2023-10-06T12:18:06Z</time>
      </trkpt>
      <trkpt lat="49.88227" lon="2.33454">
        <ele>34.2</ele>
        <time>2023-10-06T12:18:07Z</time>
      </trkpt>
      <trkpt lat="49.88227" lon="2.33454">
        <ele>34.2</ele>
        <time>2023-10-06T12:18:08Z</time>
      </trkpt>
      <trkpt lat="49.88227" lon="2.33454">
        <ele>34.2</ele>
        <time>2023-10-06T12:18:09Z</time>
      </trkpt>
      <trkpt lat="49.88227" lon="2.33454">
        <ele>34.2</ele>
        <time>2023-10-06T12:18:10Z</time>
      </trkpt>
      <trkpt lat="49.88227" lon="2.33454">
        <ele>34.2</ele>
        <time>2023-10-06T12:18:11Z</time>
      </trkpt>
      <trkpt lat="49.88227" lon="2.33454">
        <ele>34.2</ele>
        <time>2023-10-06T12:18:12Z</time>
      </trkpt>
      <trkpt lat="49.88227" lon="2.33454">
        <ele>34.2</ele>
        <time>2023-10-06T12:18:13Z</time>
      </trkpt>
      <trkpt lat="49.88227" lon="2.33454">
        <ele>34.2</ele>
        <time>2023-10-06T12:18:14Z</time>
      </trkpt>
      <trkpt lat="49.88227" lon="2.33454">
        <ele>34.2</ele>
        <time>2023-10-06T12:18:15Z</time>
      </trkpt>
      <trkpt lat="49.88227" lon="2.33454">
        <ele>34.2</ele>
        <time>2023-10-06T12:18:16Z</time>
      </trkpt>
      <trkpt lat="49.88227" lon="2.33454">
        <ele>34.2</ele>
        <time>2023-10-06T12:18:17Z</time>
      </trkpt>
      <trkpt lat="49.88227" lon="2.33454">
        <ele>34.2</ele>
        <time>2023-10-06T12:18:18Z</time>
      </trkpt>
      <trkpt lat="49.88227" lon="2.33454">
        <ele>34.2</ele>
        <time>2023-10-06T12:18:19Z</time>
      </trkpt>
      <trkpt lat="49.88227" lon="2.33454">
        <ele>34.2</ele>
        <time>2023-10-06T12:18:20Z</time>
      </trkpt>
      <trkpt lat="49.88226" lon="2.33454">
        <ele>34.2</ele>
        <time>2023-10-06T12:18:21Z</time>
      </trkpt>
      <trkpt lat="49.88226" lon="2.33454">
        <ele>34.2</ele>
        <time>2023-10-06T12:18:22Z</time>
      </trkpt>
      <trkpt lat="49.88226" lon="2.33454">
        <ele>34.2</ele>
        <time>2023-10-06T12:18:23Z</time>
      </trkpt>
      <trkpt lat="49.88226" lon="2.33454">
        <ele>34.2</ele>
        <time>2023-10-06T12:18:24Z</time>
      </trkpt>
      <trkpt lat="49.88226" lon="2.33454">
        <ele>34.2</ele>
        <time>2023-10-06T12:18:25Z</time>
      </trkpt>
      <trkpt lat="49.88226" lon="2.33454">
        <ele>34.2</ele>
        <time>2023-10-06T12:18:26Z</time>
      </trkpt>
      <trkpt lat="49.88226" lon="2.33454">
        <ele>34.2</ele>
        <time>2023-10-06T12:18:27Z</time>
      </trkpt>
      <trkpt lat="49.88226" lon="2.33454">
        <ele>34.2</ele>
        <time>2023-10-06T12:18:28Z</time>
      </trkpt>
      <trkpt lat="49.88226" lon="2.33454">
        <ele>34.2</ele>
        <time>2023-10-06T12:18:29Z</time>
      </trkpt>
      <trkpt lat="49.88226" lon="2.33454">
        <ele>34.2</ele>
        <time>2023-10-06T12:18:30Z</time>
      </trkpt>
      <trkpt lat="49.88226" lon="2.33454">
        <ele>34.2</ele>
        <time>2023-10-06T12:18:31Z</time>
      </trkpt>
      <trkpt lat="49.88226" lon="2.33454">
        <ele>34.2</ele>
        <time>2023-10-06T12:18:32Z</time>
      </trkpt>
      <trkpt lat="49.88226" lon="2.33454">
        <ele>34.2</ele>
        <time>2023-10-06T12:18:33Z</time>
      </trkpt>
      <trkpt lat="49.88226" lon="2.33454">
        <ele>34.2</ele>
        <time>2023-10-06T12:18:34Z</time>
      </trkpt>
      <trkpt lat="49.88226" lon="2.33454">
        <ele>34.2</ele>
        <time>2023-10-06T12:18:35Z</time>
      </trkpt>
      <trkpt lat="49.88226" lon="2.33454">
        <ele>34.2</ele>
        <time>2023-10-06T12:18:36Z</time>
      </trkpt>
      <trkpt lat="49.88226" lon="2.33454">
        <ele>34.2</ele>
        <time>2023-10-06T12:18:37Z</time>
      </trkpt>
      <trkpt lat="49.88226" lon="2.33454">
        <ele>34.2</ele>
        <time>2023-10-06T12:18:38Z</time>
      </trkpt>
      <trkpt lat="49.88226" lon="2.33454">
        <ele>34.2</ele>
        <time>2023-10-06T12:18:39Z</time>
      </trkpt>
      <trkpt lat="49.88226" lon="2.33454">
        <ele>34.2</ele>
        <time>2023-10-06T12:18:40Z</time>
      </trkpt>
      <trkpt lat="49.88226" lon="2.33454">
        <ele>34.2</ele>
        <time>2023-10-06T12:18:41Z</time>
      </trkpt>
      <trkpt lat="49.88226" lon="2.33454">
        <ele>34.2</ele>
        <time>2023-10-06T12:18:42Z</time>
      </trkpt>
      <trkpt lat="49.88226" lon="2.33454">
        <ele>34.2</ele>
        <time>2023-10-06T12:18:43Z</time>
      </trkpt>
      <trkpt lat="49.88226" lon="2.33454">
        <ele>34.2</ele>
        <time>2023-10-06T12:18:44Z</time>
      </trkpt>
      <trkpt lat="49.88226" lon="2.33454">
        <ele>34.2</ele>
        <time>2023-10-06T12:18:45Z</time>
      </trkpt>
      <trkpt lat="49.88226" lon="2.33454">
        <ele>34.2</ele>
        <time>2023-10-06T12:18:46Z</time>
      </trkpt>
      <trkpt lat="49.88226" lon="2.33454">
        <ele>34.2</ele>
        <time>2023-10-06T12:18:47Z</time>
      </trkpt>
      <trkpt lat="49.88226" lon="2.33454">
        <ele>34.2</ele>
        <time>2023-10-06T12:18:48Z</time>
      </trkpt>
      <trkpt lat="49.88226" lon="2.33454">
        <ele>34.2</ele>
        <time>2023-10-06T12:18:49Z</time>
      </trkpt>
      <trkpt lat="49.88226" lon="2.33454">
        <ele>34.2</ele>
        <time>2023-10-06T12:18:50Z</time>
      </trkpt>
      <trkpt lat="49.88226" lon="2.33454">
        <ele>34.2</ele>
        <time>2023-10-06T12:18:51Z</time>
      </trkpt>
      <trkpt lat="49.88226" lon="2.33454">
        <ele>34.2</ele>
        <time>2023-10-06T12:18:52Z</time>
      </trkpt>
      <trkpt lat="49.88226" lon="2.33454">
        <ele>34.2</ele>
        <time>2023-10-06T12:18:53Z</time>
      </trkpt>
      <trkpt lat="49.88226" lon="2.33454">
        <ele>34.2</ele>
        <time>2023-10-06T12:18:54Z</time>
      </trkpt>
      <trkpt lat="49.88226" lon="2.33454">
        <ele>34.2</ele>
        <time>2023-10-06T12:18:55Z</time>
      </trkpt>
      <trkpt lat="49.88226" lon="2.33454">
        <ele>34.2</ele>
        <time>2023-10-06T12:18:56Z</time>
      </trkpt>
      <trkpt lat="49.88226" lon="2.33454">
        <ele>34.2</ele>
        <time>2023-10-06T12:18:57Z</time>
      </trkpt>
      <trkpt lat="49.88226" lon="2.33454">
        <ele>34.2</ele>
        <time>2023-10-06T12:18:58Z</time>
      </trkpt>
      <trkpt lat="49.88226" lon="2.33454">
        <ele>34.2</ele>
        <time>2023-10-06T12:18:59Z</time>
      </trkpt>
      <trkpt lat="49.88226" lon="2.33454">
        <ele>34.2</ele>
        <time>2023-10-06T12:19:00Z</time>
      </trkpt>
      <trkpt lat="49.88226" lon="2.33454">
        <ele>34.2</ele>
        <time>2023-10-06T12:19:01Z</time>
      </trkpt>
      <trkpt lat="49.88226" lon="2.33454">
        <ele>34.2</ele>
        <time>2023-10-06T12:19:02Z</time>
      </trkpt>
      <trkpt lat="49.88226" lon="2.33454">
        <ele>34.2</ele>
        <time>2023-10-06T12:19:03Z</time>
      </trkpt>
      <trkpt lat="49.88226" lon="2.33454">
        <ele>34.2</ele>
        <time>2023-10-06T12:19:04Z</time>
      </trkpt>
      <trkpt lat="49.88226" lon="2.33454">
        <ele>34.2</ele>
        <time>2023-10-06T12:19:05Z</time>
      </trkpt>
      <trkpt lat="49.88225" lon="2.33454">
        <ele>34.2</ele>
        <time>2023-10-06T12:19:06Z</time>
      </trkpt>
      <trkpt lat="49.88225" lon="2.33454">
        <ele>34.2</ele>
        <time>2023-10-06T12:19:07Z</time>
      </trkpt>
      <trkpt lat="49.88225" lon="2.33454">
        <ele>34.2</ele>
        <time>2023-10-06T12:19:08Z</time>
      </trkpt>
      <trkpt lat="49.88225" lon="2.33454">
        <ele>34.2</ele>
        <time>2023-10-06T12:19:09Z</time>
      </trkpt>
      <trkpt lat="49.88225" lon="2.33454">
        <ele>34.2</ele>
        <time>2023-10-06T12:19:10Z</time>
      </trkpt>
      <trkpt lat="49.88225" lon="2.33454">
        <ele>34.2</ele>
        <time>2023-10-06T12:19:11Z</time>
      </trkpt>
      <trkpt lat="49.88225" lon="2.33454">
        <ele>34.2</ele>
        <time>2023-10-06T12:19:12Z</time>
      </trkpt>
      <trkpt lat="49.88225" lon="2.33454">
        <ele>34.2</ele>
        <time>2023-10-06T12:19:13Z</time>
      </trkpt>
      <trkpt lat="49.88225" lon="2.33454">
        <ele>34.2</ele>
        <time>2023-10-06T12:19:14Z</time>
      </trkpt>
      <trkpt lat="49.88225" lon="2.33454">
        <ele>34.2</ele>
        <time>2023-10-06T12:19:15Z</time>
      </trkpt>
      <trkpt lat="49.88225" lon="2.33454">
        <ele>34.2</ele>
        <time>2023-10-06T12:19:16Z</time>
      </trkpt>
      <trkpt lat="49.88225" lon="2.33454">
        <ele>34.2</ele>
        <time>2023-10-06T12:19:17Z</time>
      </trkpt>
      <trkpt lat="49.88225" lon="2.33454">
        <ele>34.2</ele>
        <time>2023-10-06T12:19:18Z</time>
      </trkpt>
      <trkpt lat="49.88225" lon="2.33454">
        <ele>34.2</ele>
        <time>2023-10-06T12:19:19Z</time>
      </trkpt>
      <trkpt lat="49.88225" lon="2.33454">
        <ele>34.2</ele>
        <time>2023-10-06T12:19:20Z</time>
      </trkpt>
      <trkpt lat="49.88225" lon="2.33454">
        <ele>34.2</ele>
        <time>2023-10-06T12:19:21Z</time>
      </trkpt>
      <trkpt lat="49.88225" lon="2.33454">
        <ele>34.2</ele>
        <time>2023-10-06T12:19:22Z</time>
      </trkpt>
      <trkpt lat="49.88225" lon="2.33454">
        <ele>34.2</ele>
        <time>2023-10-06T12:19:23Z</time>
      </trkpt>
      <trkpt lat="49.88225" lon="2.33454">
        <ele>34.2</ele>
        <time>2023-10-06T12:19:24Z</time>
      </trkpt>
      <trkpt lat="49.88225" lon="2.33454">
        <ele>34.2</ele>
        <time>2023-10-06T12:19:25Z</time>
      </trkpt>
      <trkpt lat="49.88225" lon="2.33454">
        <ele>34.2</ele>
        <time>2023-10-06T12:19:26Z</time>
      </trkpt>
      <trkpt lat="49.88225" lon="2.33454">
        <ele>34.2</ele>
        <time>2023-10-06T12:19:27Z</time>
      </trkpt>
      <trkpt lat="49.88225" lon="2.33454">
        <ele>34.2</ele>
        <time>2023-10-06T12:19:28Z</time>
      </trkpt>
      <trkpt lat="49.88225" lon="2.33454">
        <ele>34.2</ele>
        <time>2023-10-06T12:19:29Z</time>
      </trkpt>
      <trkpt lat="49.88225" lon="2.33454">
        <ele>34.2</ele>
        <time>2023-10-06T12:19:30Z</time>
      </trkpt>
      <trkpt lat="49.88225" lon="2.33454">
        <ele>34.2</ele>
        <time>2023-10-06T12:19:31Z</time>
      </trkpt>
      <trkpt lat="49.88225" lon="2.33454">
        <ele>34.2</ele>
        <time>2023-10-06T12:19:32Z</time>
      </trkpt>
      <trkpt lat="49.88225" lon="2.33454">
        <ele>34.2</ele>
        <time>2023-10-06T12:19:33Z</time>
      </trkpt>
      <trkpt lat="49.88225" lon="2.33454">
        <ele>34.2</ele>
        <time>2023-10-06T12:19:34Z</time>
      </trkpt>
      <trkpt lat="49.88225" lon="2.33454">
        <ele>34.2</ele>
        <time>2023-10-06T12:19:35Z</time>
      </trkpt>
      <trkpt lat="49.88225" lon="2.33454">
        <ele>34.2</ele>
        <time>2023-10-06T12:19:36Z</time>
      </trkpt>
      <trkpt lat="49.88225" lon="2.33454">
        <ele>34.2</ele>
        <time>2023-10-06T12:19:37Z</time>
      </trkpt>
      <trkpt lat="49.88225" lon="2.33454">
        <ele>34.2</ele>
        <time>2023-10-06T12:19:38Z</time>
      </trkpt>
      <trkpt lat="49.88225" lon="2.33454">
        <ele>34.2</ele>
        <time>2023-10-06T12:19:39Z</time>
      </trkpt>
      <trkpt lat="49.88225" lon="2.33454">
        <ele>34.2</ele>
        <time>2023-10-06T12:19:40Z</time>
      </trkpt>
      <trkpt lat="49.88225" lon="2.33454">
        <ele>34.2</ele>
        <time>2023-10-06T12:19:41Z</time>
      </trkpt>
      <trkpt lat="49.88225" lon="2.33454">
        <ele>34.2</ele>
        <time>2023-10-06T12:19:42Z</time>
      </trkpt>
      <trkpt lat="49.88225" lon="2.33454">
        <ele>34.2</ele>
        <time>2023-10-06T12:19:43Z</time>
      </trkpt>
      <trkpt lat="49.88225" lon="2.33454">
        <ele>34.2</ele>
        <time>2023-10-06T12:19:44Z</time>
      </trkpt>
      <trkpt lat="49.88225" lon="2.33454">
        <ele>34.2</ele>
        <time>2023-10-06T12:19:45Z</time>
      </trkpt>
      <trkpt lat="49.88225" lon="2.33454">
        <ele>34.2</ele>
        <time>2023-10-06T12:19:46Z</time>
      </trkpt>
      <trkpt lat="49.88225" lon="2.33454">
        <ele>34.2</ele>
        <time>2023-10-06T12:19:47Z</time>
      </trkpt>
      <trkpt lat="49.88225" lon="2.33454">
        <ele>34.2</ele>
        <time>2023-10-06T12:19:48Z</time>
      </trkpt>
      <trkpt lat="49.88225" lon="2.33454">
        <ele>34.2</ele>
        <time>2023-10-06T12:19:49Z</time>
      </trkpt>
      <trkpt lat="49.88225" lon="2.33454">
        <ele>34.2</ele>
        <time>2023-10-06T12:19:50Z</time>
      </trkpt>
      <trkpt lat="49.88224" lon="2.33454">
        <ele>34.2</ele>
        <time>2023-10-06T12:19:51Z</time>
      </trkpt>
      <trkpt lat="49.88224" lon="2.33454">
        <ele>34.2</ele>
        <time>2023-10-06T12:19:52Z</time>
      </trkpt>
      <trkpt lat="49.88224" lon="2.33454">
        <ele>34.2</ele>
        <time>2023-10-06T12:19:53Z</time>
      </trkpt>
      <trkpt lat="49.88224" lon="2.33454">
        <ele>34.2</ele>
        <time>2023-10-06T12:19:54Z</time>
      </trkpt>
      <trkpt lat="49.88224" lon="2.33454">
        <ele>34.2</ele>
        <time>2023-10-06T12:19:55Z</time>
      </trkpt>
      <trkpt lat="49.88224" lon="2.33454">
        <ele>34.2</ele>
        <time>2023-10-06T12:19:56Z</time>
      </trkpt>
      <trkpt lat="49.88223" lon="2.33452">
        <ele>34.2</ele>
        <time>2023-10-06T12:19:57Z</time>
      </trkpt>
      <trkpt lat="49.88223" lon="2.33451">
        <ele>34.2</ele>
        <time>2023-10-06T12:19:58Z</time>
      </trkpt>
      <trkpt lat="49.88223" lon="2.33449">
        <ele>34.2</ele>
        <time>2023-10-06T12:19:59Z</time>
      </trkpt>
      <trkpt lat="49.88224" lon="2.33448">
        <ele>34.1</ele>
        <time>2023-10-06T12:20:00Z</time>
      </trkpt>
      <trkpt lat="49.88224" lon="2.33447">
        <ele>34.1</ele>
        <time>2023-10-06T12:20:01Z</time>
      </trkpt>
      <trkpt lat="49.88224" lon="2.33446">
        <ele>34.1</ele>
        <time>2023-10-06T12:20:02Z</time>
      </trkpt>
      <trkpt lat="49.88225" lon="2.33445">
        <ele>34.1</ele>
        <time>2023-10-06T12:20:03Z</time>
      </trkpt>
      <trkpt lat="49.88225" lon="2.33444">
        <ele>34.1</ele>
        <time>2023-10-06T12:20:04Z</time>
      </trkpt>
      <trkpt lat="49.88226" lon="2.33443">
        <ele>34.2</ele>
        <time>2023-10-06T12:20:05Z</time>
      </trkpt>
      <trkpt lat="49.88226" lon="2.33442">
        <ele>34.3</ele>
        <time>2023-10-06T12:20:06Z</time>
      </trkpt>
      <trkpt lat="49.88227" lon="2.33441">
        <ele>34.5</ele>
        <time>2023-10-06T12:20:07Z</time>
      </trkpt>
      <trkpt lat="49.88227" lon="2.3344">
        <ele>34.6</ele>
        <time>2023-10-06T12:20:08Z</time>
      </trkpt>
      <trkpt lat="49.88227" lon="2.33439">
        <ele>34.7</ele>
        <time>2023-10-06T12:20:09Z</time>
      </trkpt>
      <trkpt lat="49.88228" lon="2.33438">
        <ele>34.8</ele>
        <time>2023-10-06T12:20:10Z</time>
      </trkpt>
      <trkpt lat="49.88228" lon="2.33437">
        <ele>34.9</ele>
        <time>2023-10-06T12:20:11Z</time>
      </trkpt>
      <trkpt lat="49.88229" lon="2.33436">
        <ele>35</ele>
        <time>2023-10-06T12:20:12Z</time>
      </trkpt>
      <trkpt lat="49.88229" lon="2.33435">
        <ele>35.1</ele>
        <time>2023-10-06T12:20:13Z</time>
      </trkpt>
      <trkpt lat="49.8823" lon="2.33434">
        <ele>35.2</ele>
        <time>2023-10-06T12:20:14Z</time>
      </trkpt>
      <trkpt lat="49.88231" lon="2.33433">
        <ele>35.4</ele>
        <time>2023-10-06T12:20:15Z</time>
      </trkpt>
      <trkpt lat="49.88231" lon="2.33432">
        <ele>35.5</ele>
        <time>2023-10-06T12:20:16Z</time>
      </trkpt>
      <trkpt lat="49.88232" lon="2.3343">
        <ele>35.7</ele>
        <time>2023-10-06T12:20:17Z</time>
      </trkpt>
      <trkpt lat="49.88233" lon="2.33429">
        <ele>35.8</ele>
        <time>2023-10-06T12:20:18Z</time>
      </trkpt>
      <trkpt lat="49.88234" lon="2.33428">
        <ele>35.9</ele>
        <time>2023-10-06T12:20:19Z</time>
      </trkpt>
      <trkpt lat="49.88234" lon="2.33427">
        <ele>36.1</ele>
        <time>2023-10-06T12:20:20Z</time>
      </trkpt>
      <trkpt lat="49.88235" lon="2.33426">
        <ele>36.2</ele>
        <time>2023-10-06T12:20:21Z</time>
      </trkpt>
      <trkpt lat="49.88236" lon="2.33425">
        <ele>36.4</ele>
        <time>2023-10-06T12:20:22Z</time>
      </trkpt>
      <trkpt lat="49.88236" lon="2.33423">
        <ele>36.5</ele>
        <time>2023-10-06T12:20:23Z</time>
      </trkpt>
      <trkpt lat="49.88237" lon="2.33422">
        <ele>36.6</ele>
        <time>2023-10-06T12:20:24Z</time>
      </trkpt>
      <trkpt lat="49.88238" lon="2.33421">
        <ele>36.7</ele>
        <time>2023-10-06T12:20:25Z</time>
      </trkpt>
      <trkpt lat="49.88238" lon="2.3342">
        <ele>36.8</ele>
        <time>2023-10-06T12:20:26Z</time>
      </trkpt>
      <trkpt lat="49.88239" lon="2.33419">
        <ele>37</ele>
        <time>2023-10-06T12:20:27Z</time>
      </trkpt>
      <trkpt lat="49.88239" lon="2.33417">
        <ele>37.1</ele>
        <time>2023-10-06T12:20:28Z</time>
      </trkpt>
      <trkpt lat="49.8824" lon="2.33416">
        <ele>37.2</ele>
        <time>2023-10-06T12:20:29Z</time>
      </trkpt>
      <trkpt lat="49.88241" lon="2.33415">
        <ele>37.3</ele>
        <time>2023-10-06T12:20:30Z</time>
      </trkpt>
      <trkpt lat="49.88242" lon="2.33412">
        <ele>37.6</ele>
        <time>2023-10-06T12:20:31Z</time>
      </trkpt>
      <trkpt lat="49.88243" lon="2.33411">
        <ele>37.7</ele>
        <time>2023-10-06T12:20:32Z</time>
      </trkpt>
      <trkpt lat="49.88243" lon="2.33411">
        <ele>37.8</ele>
        <time>2023-10-06T12:20:33Z</time>
      </trkpt>
      <trkpt lat="49.88244" lon="2.33409">
        <ele>37.9</ele>
        <time>2023-10-06T12:20:34Z</time>
      </trkpt>
      <trkpt lat="49.88245" lon="2.33408">
        <ele>38.1</ele>
        <time>2023-10-06T12:20:35Z</time>
      </trkpt>
      <trkpt lat="49.88246" lon="2.33407">
        <ele>38.2</ele>
        <time>2023-10-06T12:20:36Z</time>
      </trkpt>
      <trkpt lat="49.88247" lon="2.33406">
        <ele>38.3</ele>
        <time>2023-10-06T12:20:37Z</time>
      </trkpt>
      <trkpt lat="49.88248" lon="2.33405">
        <ele>38.5</ele>
        <time>2023-10-06T12:20:38Z</time>
      </trkpt>
      <trkpt lat="49.88248" lon="2.33404">
        <ele>38.6</ele>
        <time>2023-10-06T12:20:39Z</time>
      </trkpt>
      <trkpt lat="49.88249" lon="2.33403">
        <ele>38.7</ele>
        <time>2023-10-06T12:20:40Z</time>
      </trkpt>
      <trkpt lat="49.8825" lon="2.33402">
        <ele>38.8</ele>
        <time>2023-10-06T12:20:41Z</time>
      </trkpt>
      <trkpt lat="49.88251" lon="2.334">
        <ele>39</ele>
        <time>2023-10-06T12:20:42Z</time>
      </trkpt>
      <trkpt lat="49.88251" lon="2.33399">
        <ele>39.1</ele>
        <time>2023-10-06T12:20:43Z</time>
      </trkpt>
      <trkpt lat="49.88252" lon="2.33398">
        <ele>39.2</ele>
        <time>2023-10-06T12:20:44Z</time>
      </trkpt>
      <trkpt lat="49.88253" lon="2.33397">
        <ele>39.4</ele>
        <time>2023-10-06T12:20:45Z</time>
      </trkpt>
      <trkpt lat="49.88254" lon="2.33396">
        <ele>39.5</ele>
        <time>2023-10-06T12:20:46Z</time>
      </trkpt>
      <trkpt lat="49.88254" lon="2.33395">
        <ele>39.6</ele>
        <time>2023-10-06T12:20:47Z</time>
      </trkpt>
      <trkpt lat="49.88255" lon="2.33394">
        <ele>39.7</ele>
        <time>2023-10-06T12:20:48Z</time>
      </trkpt>
      <trkpt lat="49.88256" lon="2.33392">
        <ele>39.9</ele>
        <time>2023-10-06T12:20:49Z</time>
      </trkpt>
      <trkpt lat="49.88257" lon="2.33391">
        <ele>40</ele>
        <time>2023-10-06T12:20:50Z</time>
      </trkpt>
      <trkpt lat="49.88258" lon="2.3339">
        <ele>40.2</ele>
        <time>2023-10-06T12:20:51Z</time>
      </trkpt>
      <trkpt lat="49.88259" lon="2.33389">
        <ele>40.3</ele>
        <time>2023-10-06T12:20:52Z</time>
      </trkpt>
      <trkpt lat="49.8826" lon="2.33388">
        <ele>40.4</ele>
        <time>2023-10-06T12:20:53Z</time>
      </trkpt>
      <trkpt lat="49.88261" lon="2.33386">
        <ele>40.6</ele>
        <time>2023-10-06T12:20:54Z</time>
      </trkpt>
      <trkpt lat="49.88261" lon="2.33385">
        <ele>40.7</ele>
        <time>2023-10-06T12:20:55Z</time>
      </trkpt>
      <trkpt lat="49.88262" lon="2.33384">
        <ele>40.9</ele>
        <time>2023-10-06T12:20:56Z</time>
      </trkpt>
      <trkpt lat="49.88263" lon="2.33383">
        <ele>41</ele>
        <time>2023-10-06T12:20:57Z</time>
      </trkpt>
      <trkpt lat="49.88264" lon="2.33381">
        <ele>41.2</ele>
        <time>2023-10-06T12:20:58Z</time>
      </trkpt>
      <trkpt lat="49.88265" lon="2.3338">
        <ele>41.3</ele>
        <time>2023-10-06T12:20:59Z</time>
      </trkpt>
      <trkpt lat="49.88265" lon="2.33379">
        <ele>41.4</ele>
        <time>2023-10-06T12:21:00Z</time>
      </trkpt>
      <trkpt lat="49.88266" lon="2.33377">
        <ele>41.5</ele>
        <time>2023-10-06T12:21:01Z</time>
      </trkpt>
      <trkpt lat="49.88267" lon="2.33376">
        <ele>41.7</ele>
        <time>2023-10-06T12:21:02Z</time>
      </trkpt>
      <trkpt lat="49.88267" lon="2.33375">
        <ele>41.8</ele>
        <time>2023-10-06T12:21:03Z</time>
      </trkpt>
      <trkpt lat="49.88268" lon="2.33374">
        <ele>41.9</ele>
        <time>2023-10-06T12:21:04Z</time>
      </trkpt>
      <trkpt lat="49.88268" lon="2.33372">
        <ele>42</ele>
        <time>2023-10-06T12:21:05Z</time>
      </trkpt>
      <trkpt lat="49.88269" lon="2.33371">
        <ele>42.1</ele>
        <time>2023-10-06T12:21:06Z</time>
      </trkpt>
      <trkpt lat="49.8827" lon="2.3337">
        <ele>42.2</ele>
        <time>2023-10-06T12:21:07Z</time>
      </trkpt>
      <trkpt lat="49.8827" lon="2.33369">
        <ele>42.3</ele>
        <time>2023-10-06T12:21:08Z</time>
      </trkpt>
      <trkpt lat="49.88271" lon="2.33367">
        <ele>42.3</ele>
        <time>2023-10-06T12:21:09Z</time>
      </trkpt>
      <trkpt lat="49.88272" lon="2.33366">
        <ele>42.3</ele>
        <time>2023-10-06T12:21:10Z</time>
      </trkpt>
      <trkpt lat="49.88272" lon="2.33365">
        <ele>42.3</ele>
        <time>2023-10-06T12:21:11Z</time>
      </trkpt>
      <trkpt lat="49.88273" lon="2.33364">
        <ele>42.3</ele>
        <time>2023-10-06T12:21:12Z</time>
      </trkpt>
      <trkpt lat="49.88274" lon="2.33363">
        <ele>42.3</ele>
        <time>2023-10-06T12:21:13Z</time>
      </trkpt>
      <trkpt lat="49.88274" lon="2.33362">
        <ele>42.3</ele>
        <time>2023-10-06T12:21:14Z</time>
      </trkpt>
      <trkpt lat="49.88275" lon="2.33361">
        <ele>42.3</ele>
        <time>2023-10-06T12:21:15Z</time>
      </trkpt>
      <trkpt lat="49.88276" lon="2.3336">
        <ele>42.3</ele>
        <time>2023-10-06T12:21:16Z</time>
      </trkpt>
      <trkpt lat="49.88276" lon="2.33359">
        <ele>42.3</ele>
        <time>2023-10-06T12:21:17Z</time>
      </trkpt>
      <trkpt lat="49.88277" lon="2.33358">
        <ele>42.3</ele>
        <time>2023-10-06T12:21:18Z</time>
      </trkpt>
      <trkpt lat="49.88278" lon="2.33357">
        <ele>42.3</ele>
        <time>2023-10-06T12:21:19Z</time>
      </trkpt>
      <trkpt lat="49.88278" lon="2.33356">
        <ele>42.3</ele>
        <time>2023-10-06T12:21:20Z</time>
      </trkpt>
      <trkpt lat="49.88279" lon="2.33355">
        <ele>42.3</ele>
        <time>2023-10-06T12:21:21Z</time>
      </trkpt>
      <trkpt lat="49.88279" lon="2.33354">
        <ele>42.3</ele>
        <time>2023-10-06T12:21:22Z</time>
      </trkpt>
      <trkpt lat="49.8828" lon="2.33353">
        <ele>42.3</ele>
        <time>2023-10-06T12:21:23Z</time>
      </trkpt>
      <trkpt lat="49.8828" lon="2.33352">
        <ele>42.3</ele>
        <time>2023-10-06T12:21:24Z</time>
      </trkpt>
      <trkpt lat="49.88281" lon="2.33351">
        <ele>42.3</ele>
        <time>2023-10-06T12:21:25Z</time>
      </trkpt>
      <trkpt lat="49.88281" lon="2.3335">
        <ele>42.4</ele>
        <time>2023-10-06T12:21:26Z</time>
      </trkpt>
      <trkpt lat="49.88282" lon="2.33349">
        <ele>42.4</ele>
        <time>2023-10-06T12:21:27Z</time>
      </trkpt>
      <trkpt lat="49.88282" lon="2.33348">
        <ele>42.4</ele>
        <time>2023-10-06T12:21:28Z</time>
      </trkpt>
      <trkpt lat="49.88283" lon="2.33347">
        <ele>42.4</ele>
        <time>2023-10-06T12:21:29Z</time>
      </trkpt>
      <trkpt lat="49.88283" lon="2.33346">
        <ele>42.4</ele>
        <time>2023-10-06T12:21:30Z</time>
      </trkpt>
      <trkpt lat="49.88284" lon="2.33345">
        <ele>42.4</ele>
        <time>2023-10-06T12:21:31Z</time>
      </trkpt>
      <trkpt lat="49.88284" lon="2.33344">
        <ele>42.4</ele>
        <time>2023-10-06T12:21:32Z</time>
      </trkpt>
      <trkpt lat="49.88285" lon="2.33343">
        <ele>42.4</ele>
        <time>2023-10-06T12:21:33Z</time>
      </trkpt>
      <trkpt lat="49.88286" lon="2.33342">
        <ele>42.4</ele>
        <time>2023-10-06T12:21:34Z</time>
      </trkpt>
      <trkpt lat="49.88286" lon="2.33342">
        <ele>42.4</ele>
        <time>2023-10-06T12:21:35Z</time>
      </trkpt>
      <trkpt lat="49.88287" lon="2.33341">
        <ele>42.4</ele>
        <time>2023-10-06T12:21:36Z</time>
      </trkpt>
      <trkpt lat="49.88287" lon="2.3334">
        <ele>42.4</ele>
        <time>2023-10-06T12:21:37Z</time>
      </trkpt>
      <trkpt lat="49.88288" lon="2.33338">
        <ele>42.4</ele>
        <time>2023-10-06T12:21:38Z</time>
      </trkpt>
      <trkpt lat="49.88289" lon="2.33337">
        <ele>42.4</ele>
        <time>2023-10-06T12:21:39Z</time>
      </trkpt>
      <trkpt lat="49.88289" lon="2.33336">
        <ele>42.4</ele>
        <time>2023-10-06T12:21:40Z</time>
      </trkpt>
      <trkpt lat="49.8829" lon="2.33335">
        <ele>42.4</ele>
        <time>2023-10-06T12:21:41Z</time>
      </trkpt>
      <trkpt lat="49.88291" lon="2.33333">
        <ele>42.4</ele>
        <time>2023-10-06T12:21:42Z</time>
      </trkpt>
      <trkpt lat="49.88291" lon="2.33332">
        <ele>42.4</ele>
        <time>2023-10-06T12:21:43Z</time>
      </trkpt>
      <trkpt lat="49.88292" lon="2.33331">
        <ele>42.4</ele>
        <time>2023-10-06T12:21:44Z</time>
      </trkpt>
      <trkpt lat="49.88293" lon="2.3333">
        <ele>42.4</ele>
        <time>2023-10-06T12:21:45Z</time>
      </trkpt>
      <trkpt lat="49.88293" lon="2.33329">
        <ele>42.4</ele>
        <time>2023-10-06T12:21:46Z</time>
      </trkpt>
      <trkpt lat="49.88294" lon="2.33328">
        <ele>42.4</ele>
        <time>2023-10-06T12:21:47Z</time>
      </trkpt>
      <trkpt lat="49.88295" lon="2.33327">
        <ele>42.4</ele>
        <time>2023-10-06T12:21:48Z</time>
      </trkpt>
      <trkpt lat="49.88296" lon="2.33326">
        <ele>42.4</ele>
        <time>2023-10-06T12:21:49Z</time>
      </trkpt>
      <trkpt lat="49.88296" lon="2.33325">
        <ele>42.4</ele>
        <time>2023-10-06T12:21:50Z</time>
      </trkpt>
      <trkpt lat="49.88297" lon="2.33324">
        <ele>42.4</ele>
        <time>2023-10-06T12:21:51Z</time>
      </trkpt>
      <trkpt lat="49.88298" lon="2.33323">
        <ele>42.4</ele>
        <time>2023-10-06T12:21:52Z</time>
      </trkpt>
      <trkpt lat="49.883" lon="2.33323">
        <ele>42.4</ele>
        <time>2023-10-06T12:21:53Z</time>
      </trkpt>
      <trkpt lat="49.88301" lon="2.33322">
        <ele>42.4</ele>
        <time>2023-10-06T12:21:54Z</time>
      </trkpt>
      <trkpt lat="49.88301" lon="2.33321">
        <ele>42.4</ele>
        <time>2023-10-06T12:21:55Z</time>
      </trkpt>
      <trkpt lat="49.88302" lon="2.3332">
        <ele>42.4</ele>
        <time>2023-10-06T12:21:56Z</time>
      </trkpt>
      <trkpt lat="49.88303" lon="2.33319">
        <ele>42.4</ele>
        <time>2023-10-06T12:21:57Z</time>
      </trkpt>
      <trkpt lat="49.88304" lon="2.33317">
        <ele>42.4</ele>
        <time>2023-10-06T12:21:58Z</time>
      </trkpt>
      <trkpt lat="49.88305" lon="2.33316">
        <ele>42.4</ele>
        <time>2023-10-06T12:21:59Z</time>
      </trkpt>
      <trkpt lat="49.88306" lon="2.33314">
        <ele>42.4</ele>
        <time>2023-10-06T12:22:00Z</time>
      </trkpt>
      <trkpt lat="49.88307" lon="2.33313">
        <ele>42.4</ele>
        <time>2023-10-06T12:22:01Z</time>
      </trkpt>
      <trkpt lat="49.88308" lon="2.33312">
        <ele>42.4</ele>
        <time>2023-10-06T12:22:02Z</time>
      </trkpt>
      <trkpt lat="49.88309" lon="2.3331">
        <ele>42.4</ele>
        <time>2023-10-06T12:22:03Z</time>
      </trkpt>
      <trkpt lat="49.8831" lon="2.33309">
        <ele>42.4</ele>
        <time>2023-10-06T12:22:04Z</time>
      </trkpt>
      <trkpt lat="49.8831" lon="2.33308">
        <ele>42.4</ele>
        <time>2023-10-06T12:22:05Z</time>
      </trkpt>
      <trkpt lat="49.88312" lon="2.33305">
        <ele>42.4</ele>
        <time>2023-10-06T12:22:06Z</time>
      </trkpt>
      <trkpt lat="49.88312" lon="2.33304">
        <ele>42.4</ele>
        <time>2023-10-06T12:22:07Z</time>
      </trkpt>
      <trkpt lat="49.88313" lon="2.33303">
        <ele>42.4</ele>
        <time>2023-10-06T12:22:08Z</time>
      </trkpt>
      <trkpt lat="49.88314" lon="2.333">
        <ele>42.4</ele>
        <time>2023-10-06T12:22:09Z</time>
      </trkpt>
      <trkpt lat="49.88314" lon="2.33299">
        <ele>42.4</ele>
        <time>2023-10-06T12:22:10Z</time>
      </trkpt>
      <trkpt lat="49.88315" lon="2.33298">
        <ele>42.4</ele>
        <time>2023-10-06T12:22:11Z</time>
      </trkpt>
      <trkpt lat="49.88316" lon="2.33296">
        <ele>42.4</ele>
        <time>2023-10-06T12:22:12Z</time>
      </trkpt>
      <trkpt lat="49.88317" lon="2.33295">
        <ele>42.4</ele>
        <time>2023-10-06T12:22:13Z</time>
      </trkpt>
      <trkpt lat="49.88317" lon="2.33294">
        <ele>42.4</ele>
        <time>2023-10-06T12:22:14Z</time>
      </trkpt>
      <trkpt lat="49.88318" lon="2.33291">
        <ele>42.4</ele>
        <time>2023-10-06T12:22:15Z</time>
      </trkpt>
      <trkpt lat="49.88319" lon="2.3329">
        <ele>42.4</ele>
        <time>2023-10-06T12:22:16Z</time>
      </trkpt>
      <trkpt lat="49.88319" lon="2.33289">
        <ele>42.4</ele>
        <time>2023-10-06T12:22:17Z</time>
      </trkpt>
      <trkpt lat="49.8832" lon="2.33287">
        <ele>42.4</ele>
        <time>2023-10-06T12:22:18Z</time>
      </trkpt>
      <trkpt lat="49.88321" lon="2.33285">
        <ele>42.4</ele>
        <time>2023-10-06T12:22:19Z</time>
      </trkpt>
      <trkpt lat="49.88322" lon="2.33284">
        <ele>42.4</ele>
        <time>2023-10-06T12:22:20Z</time>
      </trkpt>
      <trkpt lat="49.88323" lon="2.33282">
        <ele>42.4</ele>
        <time>2023-10-06T12:22:21Z</time>
      </trkpt>
      <trkpt lat="49.88324" lon="2.3328">
        <ele>42.4</ele>
        <time>2023-10-06T12:22:22Z</time>
      </trkpt>
      <trkpt lat="49.88324" lon="2.33279">
        <ele>42.4</ele>
        <time>2023-10-06T12:22:23Z</time>
      </trkpt>
      <trkpt lat="49.88325" lon="2.33278">
        <ele>42.4</ele>
        <time>2023-10-06T12:22:24Z</time>
      </trkpt>
      <trkpt lat="49.88326" lon="2.33276">
        <ele>42.5</ele>
        <time>2023-10-06T12:22:25Z</time>
      </trkpt>
      <trkpt lat="49.88326" lon="2.33275">
        <ele>42.5</ele>
        <time>2023-10-06T12:22:26Z</time>
      </trkpt>
      <trkpt lat="49.88327" lon="2.33274">
        <ele>42.5</ele>
        <time>2023-10-06T12:22:27Z</time>
      </trkpt>
      <trkpt lat="49.88329" lon="2.33272">
        <ele>42.5</ele>
        <time>2023-10-06T12:22:28Z</time>
      </trkpt>
      <trkpt lat="49.88329" lon="2.33271">
        <ele>42.5</ele>
        <time>2023-10-06T12:22:29Z</time>
      </trkpt>
      <trkpt lat="49.8833" lon="2.3327">
        <ele>42.5</ele>
        <time>2023-10-06T12:22:30Z</time>
      </trkpt>
      <trkpt lat="49.88331" lon="2.33268">
        <ele>42.5</ele>
        <time>2023-10-06T12:22:31Z</time>
      </trkpt>
      <trkpt lat="49.88332" lon="2.33267">
        <ele>42.5</ele>
        <time>2023-10-06T12:22:32Z</time>
      </trkpt>
      <trkpt lat="49.88332" lon="2.33266">
        <ele>42.6</ele>
        <time>2023-10-06T12:22:33Z</time>
      </trkpt>
      <trkpt lat="49.88333" lon="2.33265">
        <ele>42.6</ele>
        <time>2023-10-06T12:22:34Z</time>
      </trkpt>
      <trkpt lat="49.88334" lon="2.33263">
        <ele>42.6</ele>
        <time>2023-10-06T12:22:35Z</time>
      </trkpt>
      <trkpt lat="49.88335" lon="2.33262">
        <ele>42.6</ele>
        <time>2023-10-06T12:22:36Z</time>
      </trkpt>
      <trkpt lat="49.88336" lon="2.33261">
        <ele>42.6</ele>
        <time>2023-10-06T12:22:37Z</time>
      </trkpt>
      <trkpt lat="49.88336" lon="2.3326">
        <ele>42.6</ele>
        <time>2023-10-06T12:22:38Z</time>
      </trkpt>
      <trkpt lat="49.88337" lon="2.33258">
        <ele>42.6</ele>
        <time>2023-10-06T12:22:39Z</time>
      </trkpt>
      <trkpt lat="49.88339" lon="2.33256">
        <ele>42.7</ele>
        <time>2023-10-06T12:22:40Z</time>
      </trkpt>
      <trkpt lat="49.88339" lon="2.33255">
        <ele>42.7</ele>
        <time>2023-10-06T12:22:41Z</time>
      </trkpt>
      <trkpt lat="49.8834" lon="2.33254">
        <ele>42.7</ele>
        <time>2023-10-06T12:22:42Z</time>
      </trkpt>
      <trkpt lat="49.88341" lon="2.33253">
        <ele>42.7</ele>
        <time>2023-10-06T12:22:43Z</time>
      </trkpt>
      <trkpt lat="49.88341" lon="2.33252">
        <ele>42.7</ele>
        <time>2023-10-06T12:22:44Z</time>
      </trkpt>
      <trkpt lat="49.88342" lon="2.33251">
        <ele>42.7</ele>
        <time>2023-10-06T12:22:45Z</time>
      </trkpt>
      <trkpt lat="49.88343" lon="2.33249">
        <ele>42.7</ele>
        <time>2023-10-06T12:22:46Z</time>
      </trkpt>
      <trkpt lat="49.88344" lon="2.33248">
        <ele>42.8</ele>
        <time>2023-10-06T12:22:47Z</time>
      </trkpt>
      <trkpt lat="49.88345" lon="2.33247">
        <ele>42.8</ele>
        <time>2023-10-06T12:22:48Z</time>
      </trkpt>
      <trkpt lat="49.88345" lon="2.33246">
        <ele>42.8</ele>
        <time>2023-10-06T12:22:49Z</time>
      </trkpt>
      <trkpt lat="49.88346" lon="2.33244">
        <ele>42.8</ele>
        <time>2023-10-06T12:22:50Z</time>
      </trkpt>
      <trkpt lat="49.88347" lon="2.33243">
        <ele>42.8</ele>
        <time>2023-10-06T12:22:51Z</time>
      </trkpt>
      <trkpt lat="49.88348" lon="2.33242">
        <ele>42.8</ele>
        <time>2023-10-06T12:22:52Z</time>
      </trkpt>
      <trkpt lat="49.88348" lon="2.3324">
        <ele>42.9</ele>
        <time>2023-10-06T12:22:53Z</time>
      </trkpt>
      <trkpt lat="49.88349" lon="2.33239">
        <ele>42.9</ele>
        <time>2023-10-06T12:22:54Z</time>
      </trkpt>
      <trkpt lat="49.88349" lon="2.33238">
        <ele>42.9</ele>
        <time>2023-10-06T12:22:55Z</time>
      </trkpt>
      <trkpt lat="49.8835" lon="2.33237">
        <ele>42.9</ele>
        <time>2023-10-06T12:22:56Z</time>
      </trkpt>
      <trkpt lat="49.88351" lon="2.33236">
        <ele>42.9</ele>
        <time>2023-10-06T12:22:57Z</time>
      </trkpt>
      <trkpt lat="49.88351" lon="2.33235">
        <ele>42.9</ele>
        <time>2023-10-06T12:22:58Z</time>
      </trkpt>
      <trkpt lat="49.88352" lon="2.33234">
        <ele>42.9</ele>
        <time>2023-10-06T12:22:59Z</time>
      </trkpt>
      <trkpt lat="49.88353" lon="2.33233">
        <ele>43</ele>
        <time>2023-10-06T12:23:00Z</time>
      </trkpt>
      <trkpt lat="49.88353" lon="2.33232">
        <ele>43</ele>
        <time>2023-10-06T12:23:01Z</time>
      </trkpt>
      <trkpt lat="49.88354" lon="2.33231">
        <ele>43</ele>
        <time>2023-10-06T12:23:02Z</time>
      </trkpt>
      <trkpt lat="49.88354" lon="2.3323">
        <ele>43</ele>
        <time>2023-10-06T12:23:03Z</time>
      </trkpt>
      <trkpt lat="49.88355" lon="2.33229">
        <ele>43</ele>
        <time>2023-10-06T12:23:04Z</time>
      </trkpt>
      <trkpt lat="49.88356" lon="2.33228">
        <ele>43</ele>
        <time>2023-10-06T12:23:05Z</time>
      </trkpt>
      <trkpt lat="49.88356" lon="2.33227">
        <ele>43</ele>
        <time>2023-10-06T12:23:06Z</time>
      </trkpt>
      <trkpt lat="49.88357" lon="2.33226">
        <ele>43.1</ele>
        <time>2023-10-06T12:23:07Z</time>
      </trkpt>
      <trkpt lat="49.88358" lon="2.33225">
        <ele>43.1</ele>
        <time>2023-10-06T12:23:08Z</time>
      </trkpt>
      <trkpt lat="49.88358" lon="2.33224">
        <ele>43.1</ele>
        <time>2023-10-06T12:23:09Z</time>
      </trkpt>
      <trkpt lat="49.88359" lon="2.33223">
        <ele>43.1</ele>
        <time>2023-10-06T12:23:10Z</time>
      </trkpt>
      <trkpt lat="49.8836" lon="2.33222">
        <ele>43.1</ele>
        <time>2023-10-06T12:23:11Z</time>
      </trkpt>
      <trkpt lat="49.88361" lon="2.33221">
        <ele>43.1</ele>
        <time>2023-10-06T12:23:12Z</time>
      </trkpt>
      <trkpt lat="49.88361" lon="2.3322">
        <ele>43.1</ele>
        <time>2023-10-06T12:23:13Z</time>
      </trkpt>
      <trkpt lat="49.88362" lon="2.33219">
        <ele>43.1</ele>
        <time>2023-10-06T12:23:14Z</time>
      </trkpt>
      <trkpt lat="49.88363" lon="2.33218">
        <ele>43.1</ele>
        <time>2023-10-06T12:23:15Z</time>
      </trkpt>
      <trkpt lat="49.88364" lon="2.33217">
        <ele>43.1</ele>
        <time>2023-10-06T12:23:16Z</time>
      </trkpt>
      <trkpt lat="49.88364" lon="2.33216">
        <ele>43.1</ele>
        <time>2023-10-06T12:23:17Z</time>
      </trkpt>
      <trkpt lat="49.88365" lon="2.33215">
        <ele>43.1</ele>
        <time>2023-10-06T12:23:18Z</time>
      </trkpt>
      <trkpt lat="49.88366" lon="2.33214">
        <ele>43.1</ele>
        <time>2023-10-06T12:23:19Z</time>
      </trkpt>
      <trkpt lat="49.88367" lon="2.33213">
        <ele>43.1</ele>
        <time>2023-10-06T12:23:20Z</time>
      </trkpt>
      <trkpt lat="49.88367" lon="2.33212">
        <ele>43.1</ele>
        <time>2023-10-06T12:23:21Z</time>
      </trkpt>
      <trkpt lat="49.88368" lon="2.33211">
        <ele>43.1</ele>
        <time>2023-10-06T12:23:22Z</time>
      </trkpt>
      <trkpt lat="49.88369" lon="2.3321">
        <ele>43.1</ele>
        <time>2023-10-06T12:23:23Z</time>
      </trkpt>
      <trkpt lat="49.88369" lon="2.33209">
        <ele>43.1</ele>
        <time>2023-10-06T12:23:24Z</time>
      </trkpt>
      <trkpt lat="49.8837" lon="2.33208">
        <ele>43.1</ele>
        <time>2023-10-06T12:23:25Z</time>
      </trkpt>
      <trkpt lat="49.88371" lon="2.33207">
        <ele>43.1</ele>
        <time>2023-10-06T12:23:26Z</time>
      </trkpt>
      <trkpt lat="49.88372" lon="2.33205">
        <ele>43.1</ele>
        <time>2023-10-06T12:23:27Z</time>
      </trkpt>
      <trkpt lat="49.88372" lon="2.33204">
        <ele>43.1</ele>
        <time>2023-10-06T12:23:28Z</time>
      </trkpt>
      <trkpt lat="49.88373" lon="2.33203">
        <ele>43.1</ele>
        <time>2023-10-06T12:23:29Z</time>
      </trkpt>
      <trkpt lat="49.88374" lon="2.33202">
        <ele>43.1</ele>
        <time>2023-10-06T12:23:30Z</time>
      </trkpt>
      <trkpt lat="49.88375" lon="2.33201">
        <ele>43.1</ele>
        <time>2023-10-06T12:23:31Z</time>
      </trkpt>
      <trkpt lat="49.88375" lon="2.332">
        <ele>43.1</ele>
        <time>2023-10-06T12:23:32Z</time>
      </trkpt>
      <trkpt lat="49.88376" lon="2.33199">
        <ele>43.1</ele>
        <time>2023-10-06T12:23:33Z</time>
      </trkpt>
      <trkpt lat="49.88377" lon="2.33198">
        <ele>43.1</ele>
        <time>2023-10-06T12:23:34Z</time>
      </trkpt>
      <trkpt lat="49.88378" lon="2.33198">
        <ele>43.1</ele>
        <time>2023-10-06T12:23:35Z</time>
      </trkpt>
      <trkpt lat="49.88379" lon="2.33197">
        <ele>43.1</ele>
        <time>2023-10-06T12:23:36Z</time>
      </trkpt>
      <trkpt lat="49.8838" lon="2.33196">
        <ele>43</ele>
        <time>2023-10-06T12:23:37Z</time>
      </trkpt>
      <trkpt lat="49.88381" lon="2.33194">
        <ele>43</ele>
        <time>2023-10-06T12:23:38Z</time>
      </trkpt>
      <trkpt lat="49.88382" lon="2.33193">
        <ele>43</ele>
        <time>2023-10-06T12:23:39Z</time>
      </trkpt>
      <trkpt lat="49.88383" lon="2.33192">
        <ele>43</ele>
        <time>2023-10-06T12:23:40Z</time>
      </trkpt>
      <trkpt lat="49.88384" lon="2.3319">
        <ele>43</ele>
        <time>2023-10-06T12:23:41Z</time>
      </trkpt>
      <trkpt lat="49.88385" lon="2.33189">
        <ele>43</ele>
        <time>2023-10-06T12:23:42Z</time>
      </trkpt>
      <trkpt lat="49.88386" lon="2.33188">
        <ele>43</ele>
        <time>2023-10-06T12:23:43Z</time>
      </trkpt>
      <trkpt lat="49.88386" lon="2.33187">
        <ele>42.9</ele>
        <time>2023-10-06T12:23:44Z</time>
      </trkpt>
      <trkpt lat="49.88387" lon="2.33186">
        <ele>42.9</ele>
        <time>2023-10-06T12:23:45Z</time>
      </trkpt>
      <trkpt lat="49.88388" lon="2.33185">
        <ele>42.9</ele>
        <time>2023-10-06T12:23:46Z</time>
      </trkpt>
      <trkpt lat="49.88389" lon="2.33183">
        <ele>42.9</ele>
        <time>2023-10-06T12:23:47Z</time>
      </trkpt>
      <trkpt lat="49.8839" lon="2.33182">
        <ele>42.9</ele>
        <time>2023-10-06T12:23:48Z</time>
      </trkpt>
      <trkpt lat="49.88391" lon="2.33181">
        <ele>42.9</ele>
        <time>2023-10-06T12:23:49Z</time>
      </trkpt>
      <trkpt lat="49.88391" lon="2.33179">
        <ele>42.9</ele>
        <time>2023-10-06T12:23:50Z</time>
      </trkpt>
      <trkpt lat="49.88392" lon="2.33178">
        <ele>42.9</ele>
        <time>2023-10-06T12:23:51Z</time>
      </trkpt>
      <trkpt lat="49.88393" lon="2.33177">
        <ele>42.9</ele>
        <time>2023-10-06T12:23:52Z</time>
      </trkpt>
      <trkpt lat="49.88393" lon="2.33175">
        <ele>42.9</ele>
        <time>2023-10-06T12:23:53Z</time>
      </trkpt>
      <trkpt lat="49.88394" lon="2.33174">
        <ele>42.9</ele>
        <time>2023-10-06T12:23:54Z</time>
      </trkpt>
      <trkpt lat="49.88395" lon="2.33172">
        <ele>42.9</ele>
        <time>2023-10-06T12:23:55Z</time>
      </trkpt>
      <trkpt lat="49.88395" lon="2.33171">
        <ele>42.9</ele>
        <time>2023-10-06T12:23:56Z</time>
      </trkpt>
      <trkpt lat="49.88396" lon="2.33169">
        <ele>42.9</ele>
        <time>2023-10-06T12:23:57Z</time>
      </trkpt>
      <trkpt lat="49.88397" lon="2.33168">
        <ele>42.9</ele>
        <time>2023-10-06T12:23:58Z</time>
      </trkpt>
      <trkpt lat="49.88397" lon="2.33166">
        <ele>42.9</ele>
        <time>2023-10-06T12:23:59Z</time>
      </trkpt>
      <trkpt lat="49.88398" lon="2.33165">
        <ele>42.9</ele>
        <time>2023-10-06T12:24:00Z</time>
      </trkpt>
      <trkpt lat="49.88398" lon="2.33164">
        <ele>42.9</ele>
        <time>2023-10-06T12:24:01Z</time>
      </trkpt>
      <trkpt lat="49.88399" lon="2.33163">
        <ele>42.9</ele>
        <time>2023-10-06T12:24:02Z</time>
      </trkpt>
      <trkpt lat="49.88399" lon="2.33161">
        <ele>42.9</ele>
        <time>2023-10-06T12:24:03Z</time>
      </trkpt>
      <trkpt lat="49.884" lon="2.3316">
        <ele>42.9</ele>
        <time>2023-10-06T12:24:04Z</time>
      </trkpt>
      <trkpt lat="49.88401" lon="2.33159">
        <ele>42.9</ele>
        <time>2023-10-06T12:24:05Z</time>
      </trkpt>
      <trkpt lat="49.88401" lon="2.33157">
        <ele>42.9</ele>
        <time>2023-10-06T12:24:06Z</time>
      </trkpt>
      <trkpt lat="49.88402" lon="2.33156">
        <ele>42.9</ele>
        <time>2023-10-06T12:24:07Z</time>
      </trkpt>
      <trkpt lat="49.88404" lon="2.33154">
        <ele>42.9</ele>
        <time>2023-10-06T12:24:08Z</time>
      </trkpt>
      <trkpt lat="49.88405" lon="2.33153">
        <ele>42.9</ele>
        <time>2023-10-06T12:24:09Z</time>
      </trkpt>
      <trkpt lat="49.88405" lon="2.33152">
        <ele>42.9</ele>
        <time>2023-10-06T12:24:10Z</time>
      </trkpt>
      <trkpt lat="49.88407" lon="2.3315">
        <ele>42.9</ele>
        <time>2023-10-06T12:24:11Z</time>
      </trkpt>
      <trkpt lat="49.88408" lon="2.33149">
        <ele>42.9</ele>
        <time>2023-10-06T12:24:12Z</time>
      </trkpt>
      <trkpt lat="49.88408" lon="2.33148">
        <ele>42.9</ele>
        <time>2023-10-06T12:24:13Z</time>
      </trkpt>
      <trkpt lat="49.8841" lon="2.33146">
        <ele>42.9</ele>
        <time>2023-10-06T12:24:14Z</time>
      </trkpt>
      <trkpt lat="49.88411" lon="2.33145">
        <ele>42.9</ele>
        <time>2023-10-06T12:24:15Z</time>
      </trkpt>
      <trkpt lat="49.88412" lon="2.33144">
        <ele>42.9</ele>
        <time>2023-10-06T12:24:16Z</time>
      </trkpt>
      <trkpt lat="49.88413" lon="2.33142">
        <ele>42.9</ele>
        <time>2023-10-06T12:24:17Z</time>
      </trkpt>
      <trkpt lat="49.88414" lon="2.33141">
        <ele>42.9</ele>
        <time>2023-10-06T12:24:18Z</time>
      </trkpt>
      <trkpt lat="49.88415" lon="2.3314">
        <ele>42.9</ele>
        <time>2023-10-06T12:24:19Z</time>
      </trkpt>
      <trkpt lat="49.88416" lon="2.33139">
        <ele>42.9</ele>
        <time>2023-10-06T12:24:20Z</time>
      </trkpt>
      <trkpt lat="49.88417" lon="2.33138">
        <ele>42.9</ele>
        <time>2023-10-06T12:24:21Z</time>
      </trkpt>
      <trkpt lat="49.88418" lon="2.33137">
        <ele>42.9</ele>
        <time>2023-10-06T12:24:22Z</time>
      </trkpt>
      <trkpt lat="49.88419" lon="2.33136">
        <ele>42.9</ele>
        <time>2023-10-06T12:24:23Z</time>
      </trkpt>
      <trkpt lat="49.88421" lon="2.33135">
        <ele>42.8</ele>
        <time>2023-10-06T12:24:24Z</time>
      </trkpt>
      <trkpt lat="49.88422" lon="2.33134">
        <ele>42.8</ele>
        <time>2023-10-06T12:24:25Z</time>
      </trkpt>
      <trkpt lat="49.88423" lon="2.33133">
        <ele>42.8</ele>
        <time>2023-10-06T12:24:26Z</time>
      </trkpt>
      <trkpt lat="49.88424" lon="2.33131">
        <ele>42.8</ele>
        <time>2023-10-06T12:24:27Z</time>
      </trkpt>
      <trkpt lat="49.88425" lon="2.33131">
        <ele>42.8</ele>
        <time>2023-10-06T12:24:28Z</time>
      </trkpt>
      <trkpt lat="49.88426" lon="2.3313">
        <ele>42.8</ele>
        <time>2023-10-06T12:24:29Z</time>
      </trkpt>
      <trkpt lat="49.88427" lon="2.33129">
        <ele>42.8</ele>
        <time>2023-10-06T12:24:30Z</time>
      </trkpt>
      <trkpt lat="49.88428" lon="2.33128">
        <ele>42.7</ele>
        <time>2023-10-06T12:24:31Z</time>
      </trkpt>
      <trkpt lat="49.88428" lon="2.33127">
        <ele>42.7</ele>
        <time>2023-10-06T12:24:32Z</time>
      </trkpt>
      <trkpt lat="49.8843" lon="2.33125">
        <ele>42.7</ele>
        <time>2023-10-06T12:24:33Z</time>
      </trkpt>
      <trkpt lat="49.88431" lon="2.33124">
        <ele>42.7</ele>
        <time>2023-10-06T12:24:34Z</time>
      </trkpt>
      <trkpt lat="49.88431" lon="2.33123">
        <ele>42.6</ele>
        <time>2023-10-06T12:24:35Z</time>
      </trkpt>
      <trkpt lat="49.88433" lon="2.33121">
        <ele>42.6</ele>
        <time>2023-10-06T12:24:36Z</time>
      </trkpt>
      <trkpt lat="49.88433" lon="2.3312">
        <ele>42.6</ele>
        <time>2023-10-06T12:24:37Z</time>
      </trkpt>
      <trkpt lat="49.88434" lon="2.33119">
        <ele>42.6</ele>
        <time>2023-10-06T12:24:38Z</time>
      </trkpt>
      <trkpt lat="49.88436" lon="2.33117">
        <ele>42.5</ele>
        <time>2023-10-06T12:24:39Z</time>
      </trkpt>
      <trkpt lat="49.88436" lon="2.33116">
        <ele>42.5</ele>
        <time>2023-10-06T12:24:40Z</time>
      </trkpt>
      <trkpt lat="49.88437" lon="2.33115">
        <ele>42.5</ele>
        <time>2023-10-06T12:24:41Z</time>
      </trkpt>
      <trkpt lat="49.88438" lon="2.33112">
        <ele>42.4</ele>
        <time>2023-10-06T12:24:42Z</time>
      </trkpt>
      <trkpt lat="49.88439" lon="2.33111">
        <ele>42.4</ele>
        <time>2023-10-06T12:24:43Z</time>
      </trkpt>
      <trkpt lat="49.88439" lon="2.3311">
        <ele>42.4</ele>
        <time>2023-10-06T12:24:44Z</time>
      </trkpt>
      <trkpt lat="49.8844" lon="2.33109">
        <ele>42.4</ele>
        <time>2023-10-06T12:24:45Z</time>
      </trkpt>
      <trkpt lat="49.88441" lon="2.33108">
        <ele>42.3</ele>
        <time>2023-10-06T12:24:46Z</time>
      </trkpt>
      <trkpt lat="49.88442" lon="2.33106">
        <ele>42.3</ele>
        <time>2023-10-06T12:24:47Z</time>
      </trkpt>
      <trkpt lat="49.88444" lon="2.33104">
        <ele>42.2</ele>
        <time>2023-10-06T12:24:48Z</time>
      </trkpt>
      <trkpt lat="49.88444" lon="2.33103">
        <ele>42.2</ele>
        <time>2023-10-06T12:24:49Z</time>
      </trkpt>
      <trkpt lat="49.88445" lon="2.33102">
        <ele>42.2</ele>
        <time>2023-10-06T12:24:50Z</time>
      </trkpt>
      <trkpt lat="49.88446" lon="2.33101">
        <ele>42.2</ele>
        <time>2023-10-06T12:24:51Z</time>
      </trkpt>
      <trkpt lat="49.88447" lon="2.33099">
        <ele>42.1</ele>
        <time>2023-10-06T12:24:52Z</time>
      </trkpt>
      <trkpt lat="49.88448" lon="2.33098">
        <ele>42.1</ele>
        <time>2023-10-06T12:24:53Z</time>
      </trkpt>
      <trkpt lat="49.88449" lon="2.33097">
        <ele>42.1</ele>
        <time>2023-10-06T12:24:54Z</time>
      </trkpt>
      <trkpt lat="49.88451" lon="2.33094">
        <ele>42</ele>
        <time>2023-10-06T12:24:55Z</time>
      </trkpt>
      <trkpt lat="49.88451" lon="2.33094">
        <ele>42</ele>
        <time>2023-10-06T12:24:56Z</time>
      </trkpt>
      <trkpt lat="49.88452" lon="2.33093">
        <ele>42</ele>
        <time>2023-10-06T12:24:57Z</time>
      </trkpt>
      <trkpt lat="49.88453" lon="2.3309">
        <ele>41.9</ele>
        <time>2023-10-06T12:24:58Z</time>
      </trkpt>
      <trkpt lat="49.88454" lon="2.3309">
        <ele>41.9</ele>
        <time>2023-10-06T12:24:59Z</time>
      </trkpt>
      <trkpt lat="49.88455" lon="2.33089">
        <ele>41.9</ele>
        <time>2023-10-06T12:25:00Z</time>
      </trkpt>
      <trkpt lat="49.88456" lon="2.33086">
        <ele>41.8</ele>
        <time>2023-10-06T12:25:01Z</time>
      </trkpt>
      <trkpt lat="49.88457" lon="2.33085">
        <ele>41.8</ele>
        <time>2023-10-06T12:25:02Z</time>
      </trkpt>
      <trkpt lat="49.88457" lon="2.33084">
        <ele>41.7</ele>
        <time>2023-10-06T12:25:03Z</time>
      </trkpt>
      <trkpt lat="49.88459" lon="2.33082">
        <ele>41.6</ele>
        <time>2023-10-06T12:25:04Z</time>
      </trkpt>
      <trkpt lat="49.88459" lon="2.33081">
        <ele>41.6</ele>
        <time>2023-10-06T12:25:05Z</time>
      </trkpt>
      <trkpt lat="49.8846" lon="2.3308">
        <ele>41.6</ele>
        <time>2023-10-06T12:25:06Z</time>
      </trkpt>
      <trkpt lat="49.88462" lon="2.33078">
        <ele>41.5</ele>
        <time>2023-10-06T12:25:07Z</time>
      </trkpt>
      <trkpt lat="49.88462" lon="2.33077">
        <ele>41.4</ele>
        <time>2023-10-06T12:25:08Z</time>
      </trkpt>
      <trkpt lat="49.88463" lon="2.33077">
        <ele>41.4</ele>
        <time>2023-10-06T12:25:09Z</time>
      </trkpt>
      <trkpt lat="49.88464" lon="2.33076">
        <ele>41.4</ele>
        <time>2023-10-06T12:25:10Z</time>
      </trkpt>
      <trkpt lat="49.88464" lon="2.33075">
        <ele>41.3</ele>
        <time>2023-10-06T12:25:11Z</time>
      </trkpt>
      <trkpt lat="49.88465" lon="2.33074">
        <ele>41.3</ele>
        <time>2023-10-06T12:25:12Z</time>
      </trkpt>
      <trkpt lat="49.88466" lon="2.33073">
        <ele>41.2</ele>
        <time>2023-10-06T12:25:13Z</time>
      </trkpt>
      <trkpt lat="49.88466" lon="2.33072">
        <ele>41.1</ele>
        <time>2023-10-06T12:25:14Z</time>
      </trkpt>
      <trkpt lat="49.88467" lon="2.33071">
        <ele>41.1</ele>
        <time>2023-10-06T12:25:15Z</time>
      </trkpt>
      <trkpt lat="49.88468" lon="2.3307">
        <ele>41</ele>
        <time>2023-10-06T12:25:16Z</time>
      </trkpt>
      <trkpt lat="49.88469" lon="2.33069">
        <ele>41</ele>
        <time>2023-10-06T12:25:17Z</time>
      </trkpt>
      <trkpt lat="49.88469" lon="2.33068">
        <ele>40.9</ele>
        <time>2023-10-06T12:25:18Z</time>
      </trkpt>
      <trkpt lat="49.8847" lon="2.33067">
        <ele>40.8</ele>
        <time>2023-10-06T12:25:19Z</time>
      </trkpt>
      <trkpt lat="49.88471" lon="2.33065">
        <ele>40.8</ele>
        <time>2023-10-06T12:25:20Z</time>
      </trkpt>
      <trkpt lat="49.88471" lon="2.33064">
        <ele>40.7</ele>
        <time>2023-10-06T12:25:21Z</time>
      </trkpt>
      <trkpt lat="49.88472" lon="2.33063">
        <ele>40.7</ele>
        <time>2023-10-06T12:25:22Z</time>
      </trkpt>
      <trkpt lat="49.88472" lon="2.33062">
        <ele>40.6</ele>
        <time>2023-10-06T12:25:23Z</time>
      </trkpt>
      <trkpt lat="49.88473" lon="2.33061">
        <ele>40.5</ele>
        <time>2023-10-06T12:25:24Z</time>
      </trkpt>
      <trkpt lat="49.88473" lon="2.3306">
        <ele>40.5</ele>
        <time>2023-10-06T12:25:25Z</time>
      </trkpt>
      <trkpt lat="49.88474" lon="2.33059">
        <ele>40.4</ele>
        <time>2023-10-06T12:25:26Z</time>
      </trkpt>
      <trkpt lat="49.88474" lon="2.33058">
        <ele>40.4</ele>
        <time>2023-10-06T12:25:27Z</time>
      </trkpt>
      <trkpt lat="49.88475" lon="2.33057">
        <ele>40.3</ele>
        <time>2023-10-06T12:25:28Z</time>
      </trkpt>
      <trkpt lat="49.88476" lon="2.33056">
        <ele>40.2</ele>
        <time>2023-10-06T12:25:29Z</time>
      </trkpt>
      <trkpt lat="49.88476" lon="2.33055">
        <ele>40.1</ele>
        <time>2023-10-06T12:25:30Z</time>
      </trkpt>
      <trkpt lat="49.88477" lon="2.33053">
        <ele>40.1</ele>
        <time>2023-10-06T12:25:31Z</time>
      </trkpt>
      <trkpt lat="49.88478" lon="2.33052">
        <ele>40</ele>
        <time>2023-10-06T12:25:32Z</time>
      </trkpt>
      <trkpt lat="49.88478" lon="2.33051">
        <ele>39.9</ele>
        <time>2023-10-06T12:25:33Z</time>
      </trkpt>
      <trkpt lat="49.88479" lon="2.3305">
        <ele>39.8</ele>
        <time>2023-10-06T12:25:34Z</time>
      </trkpt>
      <trkpt lat="49.8848" lon="2.33048">
        <ele>39.7</ele>
        <time>2023-10-06T12:25:35Z</time>
      </trkpt>
      <trkpt lat="49.88481" lon="2.33047">
        <ele>39.6</ele>
        <time>2023-10-06T12:25:36Z</time>
      </trkpt>
      <trkpt lat="49.88482" lon="2.33046">
        <ele>39.5</ele>
        <time>2023-10-06T12:25:37Z</time>
      </trkpt>
      <trkpt lat="49.88482" lon="2.33045">
        <ele>39.5</ele>
        <time>2023-10-06T12:25:38Z</time>
      </trkpt>
      <trkpt lat="49.88483" lon="2.33044">
        <ele>39.4</ele>
        <time>2023-10-06T12:25:39Z</time>
      </trkpt>
      <trkpt lat="49.88484" lon="2.33043">
        <ele>39.3</ele>
        <time>2023-10-06T12:25:40Z</time>
      </trkpt>
      <trkpt lat="49.88484" lon="2.33042">
        <ele>39.3</ele>
        <time>2023-10-06T12:25:41Z</time>
      </trkpt>
      <trkpt lat="49.88485" lon="2.33042">
        <ele>39.2</ele>
        <time>2023-10-06T12:25:42Z</time>
      </trkpt>
      <trkpt lat="49.88486" lon="2.33041">
        <ele>39.1</ele>
        <time>2023-10-06T12:25:43Z</time>
      </trkpt>
      <trkpt lat="49.88487" lon="2.3304">
        <ele>39</ele>
        <time>2023-10-06T12:25:44Z</time>
      </trkpt>
      <trkpt lat="49.88487" lon="2.33039">
        <ele>39</ele>
        <time>2023-10-06T12:25:45Z</time>
      </trkpt>
      <trkpt lat="49.88488" lon="2.33038">
        <ele>38.9</ele>
        <time>2023-10-06T12:25:46Z</time>
      </trkpt>
      <trkpt lat="49.88489" lon="2.33037">
        <ele>38.8</ele>
        <time>2023-10-06T12:25:47Z</time>
      </trkpt>
      <trkpt lat="49.8849" lon="2.33036">
        <ele>38.7</ele>
        <time>2023-10-06T12:25:48Z</time>
      </trkpt>
      <trkpt lat="49.88491" lon="2.33035">
        <ele>38.6</ele>
        <time>2023-10-06T12:25:49Z</time>
      </trkpt>
      <trkpt lat="49.88492" lon="2.33035">
        <ele>38.6</ele>
        <time>2023-10-06T12:25:50Z</time>
      </trkpt>
      <trkpt lat="49.88493" lon="2.33034">
        <ele>38.5</ele>
        <time>2023-10-06T12:25:51Z</time>
      </trkpt>
      <trkpt lat="49.88494" lon="2.33033">
        <ele>38.4</ele>
        <time>2023-10-06T12:25:52Z</time>
      </trkpt>
      <trkpt lat="49.88495" lon="2.33032">
        <ele>38.3</ele>
        <time>2023-10-06T12:25:53Z</time>
      </trkpt>
      <trkpt lat="49.88495" lon="2.33032">
        <ele>38.3</ele>
        <time>2023-10-06T12:25:54Z</time>
      </trkpt>
      <trkpt lat="49.88496" lon="2.33031">
        <ele>38.2</ele>
        <time>2023-10-06T12:25:55Z</time>
      </trkpt>
      <trkpt lat="49.88497" lon="2.3303">
        <ele>38.1</ele>
        <time>2023-10-06T12:25:56Z</time>
      </trkpt>
      <trkpt lat="49.88498" lon="2.33029">
        <ele>38</ele>
        <time>2023-10-06T12:25:57Z</time>
      </trkpt>
      <trkpt lat="49.885" lon="2.33027">
        <ele>37.9</ele>
        <time>2023-10-06T12:25:58Z</time>
      </trkpt>
      <trkpt lat="49.88501" lon="2.33026">
        <ele>37.8</ele>
        <time>2023-10-06T12:25:59Z</time>
      </trkpt>
      <trkpt lat="49.88501" lon="2.33025">
        <ele>37.8</ele>
        <time>2023-10-06T12:26:00Z</time>
      </trkpt>
      <trkpt lat="49.88503" lon="2.33023">
        <ele>37.7</ele>
        <time>2023-10-06T12:26:01Z</time>
      </trkpt>
      <trkpt lat="49.88504" lon="2.33023">
        <ele>37.6</ele>
        <time>2023-10-06T12:26:02Z</time>
      </trkpt>
      <trkpt lat="49.88505" lon="2.33022">
        <ele>37.6</ele>
        <time>2023-10-06T12:26:03Z</time>
      </trkpt>
      <trkpt lat="49.88507" lon="2.3302">
        <ele>37.5</ele>
        <time>2023-10-06T12:26:04Z</time>
      </trkpt>
      <trkpt lat="49.88507" lon="2.3302">
        <ele>37.4</ele>
        <time>2023-10-06T12:26:05Z</time>
      </trkpt>
      <trkpt lat="49.88508" lon="2.33019">
        <ele>37.4</ele>
        <time>2023-10-06T12:26:06Z</time>
      </trkpt>
      <trkpt lat="49.88509" lon="2.33018">
        <ele>37.3</ele>
        <time>2023-10-06T12:26:07Z</time>
      </trkpt>
      <trkpt lat="49.8851" lon="2.33017">
        <ele>37.3</ele>
        <time>2023-10-06T12:26:08Z</time>
      </trkpt>
      <trkpt lat="49.88511" lon="2.33017">
        <ele>37.3</ele>
        <time>2023-10-06T12:26:09Z</time>
      </trkpt>
      <trkpt lat="49.88512" lon="2.33016">
        <ele>37.2</ele>
        <time>2023-10-06T12:26:10Z</time>
      </trkpt>
      <trkpt lat="49.88513" lon="2.33015">
        <ele>37.2</ele>
        <time>2023-10-06T12:26:11Z</time>
      </trkpt>
      <trkpt lat="49.88514" lon="2.33015">
        <ele>37.1</ele>
        <time>2023-10-06T12:26:12Z</time>
      </trkpt>
      <trkpt lat="49.88515" lon="2.33015">
        <ele>37.1</ele>
        <time>2023-10-06T12:26:13Z</time>
      </trkpt>
      <trkpt lat="49.88516" lon="2.33016">
        <ele>37.1</ele>
        <time>2023-10-06T12:26:14Z</time>
      </trkpt>
      <trkpt lat="49.88517" lon="2.33016">
        <ele>37</ele>
        <time>2023-10-06T12:26:15Z</time>
      </trkpt>
      <trkpt lat="49.88518" lon="2.33017">
        <ele>36.9</ele>
        <time>2023-10-06T12:26:16Z</time>
      </trkpt>
      <trkpt lat="49.88518" lon="2.33019">
        <ele>36.8</ele>
        <time>2023-10-06T12:26:17Z</time>
      </trkpt>
      <trkpt lat="49.88519" lon="2.3302">
        <ele>36.8</ele>
        <time>2023-10-06T12:26:18Z</time>
      </trkpt>
      <trkpt lat="49.8852" lon="2.33021">
        <ele>36.8</ele>
        <time>2023-10-06T12:26:19Z</time>
      </trkpt>
      <trkpt lat="49.88521" lon="2.33023">
        <ele>36.7</ele>
        <time>2023-10-06T12:26:20Z</time>
      </trkpt>
      <trkpt lat="49.88522" lon="2.33024">
        <ele>36.7</ele>
        <time>2023-10-06T12:26:21Z</time>
      </trkpt>
      <trkpt lat="49.88522" lon="2.33026">
        <ele>36.7</ele>
        <time>2023-10-06T12:26:22Z</time>
      </trkpt>
      <trkpt lat="49.88523" lon="2.33027">
        <ele>36.6</ele>
        <time>2023-10-06T12:26:23Z</time>
      </trkpt>
      <trkpt lat="49.88524" lon="2.33028">
        <ele>36.6</ele>
        <time>2023-10-06T12:26:24Z</time>
      </trkpt>
      <trkpt lat="49.88524" lon="2.33029">
        <ele>36.6</ele>
        <time>2023-10-06T12:26:25Z</time>
      </trkpt>
      <trkpt lat="49.88525" lon="2.3303">
        <ele>36.5</ele>
        <time>2023-10-06T12:26:26Z</time>
      </trkpt>
      <trkpt lat="49.88525" lon="2.33032">
        <ele>36.5</ele>
        <time>2023-10-06T12:26:27Z</time>
      </trkpt>
      <trkpt lat="49.88526" lon="2.33033">
        <ele>36.5</ele>
        <time>2023-10-06T12:26:28Z</time>
      </trkpt>
      <trkpt lat="49.88527" lon="2.33034">
        <ele>36.4</ele>
        <time>2023-10-06T12:26:29Z</time>
      </trkpt>
      <trkpt lat="49.88528" lon="2.33035">
        <ele>36.4</ele>
        <time>2023-10-06T12:26:30Z</time>
      </trkpt>
      <trkpt lat="49.88528" lon="2.33036">
        <ele>36.3</ele>
        <time>2023-10-06T12:26:31Z</time>
      </trkpt>
      <trkpt lat="49.88529" lon="2.33038">
        <ele>36.3</ele>
        <time>2023-10-06T12:26:32Z</time>
      </trkpt>
      <trkpt lat="49.8853" lon="2.33039">
        <ele>36.2</ele>
        <time>2023-10-06T12:26:33Z</time>
      </trkpt>
      <trkpt lat="49.88531" lon="2.3304">
        <ele>36.2</ele>
        <time>2023-10-06T12:26:34Z</time>
      </trkpt>
      <trkpt lat="49.88531" lon="2.33041">
        <ele>36.1</ele>
        <time>2023-10-06T12:26:35Z</time>
      </trkpt>
      <trkpt lat="49.88532" lon="2.33042">
        <ele>36.1</ele>
        <time>2023-10-06T12:26:36Z</time>
      </trkpt>
      <trkpt lat="49.88532" lon="2.33043">
        <ele>36.1</ele>
        <time>2023-10-06T12:26:37Z</time>
      </trkpt>
      <trkpt lat="49.88533" lon="2.33043">
        <ele>36</ele>
        <time>2023-10-06T12:26:38Z</time>
      </trkpt>
      <trkpt lat="49.88534" lon="2.33044">
        <ele>36</ele>
        <time>2023-10-06T12:26:39Z</time>
      </trkpt>
      <trkpt lat="49.88534" lon="2.33045">
        <ele>35.9</ele>
        <time>2023-10-06T12:26:40Z</time>
      </trkpt>
      <trkpt lat="49.88535" lon="2.33046">
        <ele>35.9</ele>
        <time>2023-10-06T12:26:41Z</time>
      </trkpt>
      <trkpt lat="49.88535" lon="2.33047">
        <ele>35.8</ele>
        <time>2023-10-06T12:26:42Z</time>
      </trkpt>
      <trkpt lat="49.88536" lon="2.33048">
        <ele>35.8</ele>
        <time>2023-10-06T12:26:43Z</time>
      </trkpt>
      <trkpt lat="49.88536" lon="2.3305">
        <ele>35.7</ele>
        <time>2023-10-06T12:26:44Z</time>
      </trkpt>
      <trkpt lat="49.88536" lon="2.33051">
        <ele>35.6</ele>
        <time>2023-10-06T12:26:45Z</time>
      </trkpt>
      <trkpt lat="49.88537" lon="2.33052">
        <ele>35.5</ele>
        <time>2023-10-06T12:26:46Z</time>
      </trkpt>
      <trkpt lat="49.88537" lon="2.33053">
        <ele>35.4</ele>
        <time>2023-10-06T12:26:47Z</time>
      </trkpt>
      <trkpt lat="49.88538" lon="2.33053">
        <ele>35.3</ele>
        <time>2023-10-06T12:26:48Z</time>
      </trkpt>
      <trkpt lat="49.88538" lon="2.33054">
        <ele>35.3</ele>
        <time>2023-10-06T12:26:49Z</time>
      </trkpt>
      <trkpt lat="49.88539" lon="2.33055">
        <ele>35.2</ele>
        <time>2023-10-06T12:26:50Z</time>
      </trkpt>
      <trkpt lat="49.88539" lon="2.33056">
        <ele>35.1</ele>
        <time>2023-10-06T12:26:51Z</time>
      </trkpt>
      <trkpt lat="49.8854" lon="2.33056">
        <ele>35.1</ele>
        <time>2023-10-06T12:26:52Z</time>
      </trkpt>
      <trkpt lat="49.8854" lon="2.33057">
        <ele>35</ele>
        <time>2023-10-06T12:26:53Z</time>
      </trkpt>
      <trkpt lat="49.88541" lon="2.33058">
        <ele>34.9</ele>
        <time>2023-10-06T12:26:54Z</time>
      </trkpt>
      <trkpt lat="49.88541" lon="2.33058">
        <ele>34.8</ele>
        <time>2023-10-06T12:26:55Z</time>
      </trkpt>
      <trkpt lat="49.88542" lon="2.33059">
        <ele>34.8</ele>
        <time>2023-10-06T12:26:56Z</time>
      </trkpt>
      <trkpt lat="49.88542" lon="2.33059">
        <ele>34.7</ele>
        <time>2023-10-06T12:26:57Z</time>
      </trkpt>
      <trkpt lat="49.88543" lon="2.3306">
        <ele>34.6</ele>
        <time>2023-10-06T12:26:58Z</time>
      </trkpt>
      <trkpt lat="49.88543" lon="2.3306">
        <ele>34.6</ele>
        <time>2023-10-06T12:26:59Z</time>
      </trkpt>
      <trkpt lat="49.88544" lon="2.3306">
        <ele>34.5</ele>
        <time>2023-10-06T12:27:00Z</time>
      </trkpt>
      <trkpt lat="49.88544" lon="2.33061">
        <ele>34.4</ele>
        <time>2023-10-06T12:27:01Z</time>
      </trkpt>
      <trkpt lat="49.88545" lon="2.33062">
        <ele>34.4</ele>
        <time>2023-10-06T12:27:02Z</time>
      </trkpt>
      <trkpt lat="49.88546" lon="2.33062">
        <ele>34.3</ele>
        <time>2023-10-06T12:27:03Z</time>
      </trkpt>
      <trkpt lat="49.88546" lon="2.33063">
        <ele>34.2</ele>
        <time>2023-10-06T12:27:04Z</time>
      </trkpt>
      <trkpt lat="49.88547" lon="2.33064">
        <ele>34.1</ele>
        <time>2023-10-06T12:27:05Z</time>
      </trkpt>
      <trkpt lat="49.88547" lon="2.33065">
        <ele>34</ele>
        <time>2023-10-06T12:27:06Z</time>
      </trkpt>
      <trkpt lat="49.88548" lon="2.33066">
        <ele>33.9</ele>
        <time>2023-10-06T12:27:07Z</time>
      </trkpt>
      <trkpt lat="49.88549" lon="2.33067">
        <ele>33.8</ele>
        <time>2023-10-06T12:27:08Z</time>
      </trkpt>
      <trkpt lat="49.88549" lon="2.33068">
        <ele>33.7</ele>
        <time>2023-10-06T12:27:09Z</time>
      </trkpt>
      <trkpt lat="49.8855" lon="2.33069">
        <ele>33.6</ele>
        <time>2023-10-06T12:27:10Z</time>
      </trkpt>
      <trkpt lat="49.8855" lon="2.3307">
        <ele>33.5</ele>
        <time>2023-10-06T12:27:11Z</time>
      </trkpt>
      <trkpt lat="49.88551" lon="2.33071">
        <ele>33.5</ele>
        <time>2023-10-06T12:27:12Z</time>
      </trkpt>
      <trkpt lat="49.88551" lon="2.33072">
        <ele>33.4</ele>
        <time>2023-10-06T12:27:13Z</time>
      </trkpt>
      <trkpt lat="49.88552" lon="2.33072">
        <ele>33.3</ele>
        <time>2023-10-06T12:27:14Z</time>
      </trkpt>
      <trkpt lat="49.88552" lon="2.33073">
        <ele>33.2</ele>
        <time>2023-10-06T12:27:15Z</time>
      </trkpt>
      <trkpt lat="49.88553" lon="2.33074">
        <ele>33.1</ele>
        <time>2023-10-06T12:27:16Z</time>
      </trkpt>
      <trkpt lat="49.88553" lon="2.33075">
        <ele>33.1</ele>
        <time>2023-10-06T12:27:17Z</time>
      </trkpt>
      <trkpt lat="49.88553" lon="2.33076">
        <ele>33</ele>
        <time>2023-10-06T12:27:18Z</time>
      </trkpt>
      <trkpt lat="49.88554" lon="2.33077">
        <ele>32.9</ele>
        <time>2023-10-06T12:27:19Z</time>
      </trkpt>
      <trkpt lat="49.88554" lon="2.33078">
        <ele>32.8</ele>
        <time>2023-10-06T12:27:20Z</time>
      </trkpt>
      <trkpt lat="49.88554" lon="2.33079">
        <ele>32.7</ele>
        <time>2023-10-06T12:27:21Z</time>
      </trkpt>
      <trkpt lat="49.88555" lon="2.3308">
        <ele>32.7</ele>
        <time>2023-10-06T12:27:22Z</time>
      </trkpt>
      <trkpt lat="49.88555" lon="2.33081">
        <ele>32.6</ele>
        <time>2023-10-06T12:27:23Z</time>
      </trkpt>
      <trkpt lat="49.88555" lon="2.33082">
        <ele>32.5</ele>
        <time>2023-10-06T12:27:24Z</time>
      </trkpt>
      <trkpt lat="49.88555" lon="2.33083">
        <ele>32.4</ele>
        <time>2023-10-06T12:27:25Z</time>
      </trkpt>
      <trkpt lat="49.88555" lon="2.33084">
        <ele>32.4</ele>
        <time>2023-10-06T12:27:26Z</time>
      </trkpt>
      <trkpt lat="49.88556" lon="2.33085">
        <ele>32.3</ele>
        <time>2023-10-06T12:27:27Z</time>
      </trkpt>
      <trkpt lat="49.88556" lon="2.33086">
        <ele>32.2</ele>
        <time>2023-10-06T12:27:28Z</time>
      </trkpt>
      <trkpt lat="49.88556" lon="2.33088">
        <ele>32.1</ele>
        <time>2023-10-06T12:27:29Z</time>
      </trkpt>
      <trkpt lat="49.88556" lon="2.33089">
        <ele>32</ele>
        <time>2023-10-06T12:27:30Z</time>
      </trkpt>
      <trkpt lat="49.88556" lon="2.3309">
        <ele>31.9</ele>
        <time>2023-10-06T12:27:31Z</time>
      </trkpt>
      <trkpt lat="49.88556" lon="2.33091">
        <ele>31.9</ele>
        <time>2023-10-06T12:27:32Z</time>
      </trkpt>
      <trkpt lat="49.88556" lon="2.33092">
        <ele>31.8</ele>
        <time>2023-10-06T12:27:33Z</time>
      </trkpt>
      <trkpt lat="49.88556" lon="2.33094">
        <ele>31.7</ele>
        <time>2023-10-06T12:27:34Z</time>
      </trkpt>
      <trkpt lat="49.88556" lon="2.33095">
        <ele>31.6</ele>
        <time>2023-10-06T12:27:35Z</time>
      </trkpt>
      <trkpt lat="49.88556" lon="2.33097">
        <ele>31.5</ele>
        <time>2023-10-06T12:27:36Z</time>
      </trkpt>
      <trkpt lat="49.88557" lon="2.33098">
        <ele>31.3</ele>
        <time>2023-10-06T12:27:37Z</time>
      </trkpt>
      <trkpt lat="49.88557" lon="2.331">
        <ele>31.2</ele>
        <time>2023-10-06T12:27:38Z</time>
      </trkpt>
      <trkpt lat="49.88558" lon="2.33101">
        <ele>31.1</ele>
        <time>2023-10-06T12:27:39Z</time>
      </trkpt>
      <trkpt lat="49.88558" lon="2.33102">
        <ele>31</ele>
        <time>2023-10-06T12:27:40Z</time>
      </trkpt>
      <trkpt lat="49.88558" lon="2.33104">
        <ele>30.9</ele>
        <time>2023-10-06T12:27:41Z</time>
      </trkpt>
      <trkpt lat="49.88559" lon="2.33105">
        <ele>30.8</ele>
        <time>2023-10-06T12:27:42Z</time>
      </trkpt>
      <trkpt lat="49.88559" lon="2.33106">
        <ele>30.7</ele>
        <time>2023-10-06T12:27:43Z</time>
      </trkpt>
      <trkpt lat="49.8856" lon="2.33108">
        <ele>30.6</ele>
        <time>2023-10-06T12:27:44Z</time>
      </trkpt>
      <trkpt lat="49.88561" lon="2.33109">
        <ele>30.5</ele>
        <time>2023-10-06T12:27:45Z</time>
      </trkpt>
      <trkpt lat="49.88561" lon="2.33111">
        <ele>30.4</ele>
        <time>2023-10-06T12:27:46Z</time>
      </trkpt>
      <trkpt lat="49.88563" lon="2.33113">
        <ele>29.9</ele>
        <time>2023-10-06T12:27:47Z</time>
      </trkpt>
      <trkpt lat="49.88564" lon="2.33114">
        <ele>29.8</ele>
        <time>2023-10-06T12:27:48Z</time>
      </trkpt>
      <trkpt lat="49.88564" lon="2.33115">
        <ele>29.8</ele>
        <time>2023-10-06T12:27:49Z</time>
      </trkpt>
      <trkpt lat="49.88565" lon="2.33116">
        <ele>29.7</ele>
        <time>2023-10-06T12:27:50Z</time>
      </trkpt>
      <trkpt lat="49.88566" lon="2.33117">
        <ele>29.6</ele>
        <time>2023-10-06T12:27:51Z</time>
      </trkpt>
      <trkpt lat="49.88567" lon="2.33118">
        <ele>29.6</ele>
        <time>2023-10-06T12:27:52Z</time>
      </trkpt>
      <trkpt lat="49.88568" lon="2.33119">
        <ele>29.5</ele>
        <time>2023-10-06T12:27:53Z</time>
      </trkpt>
      <trkpt lat="49.88569" lon="2.33121">
        <ele>29.4</ele>
        <time>2023-10-06T12:27:54Z</time>
      </trkpt>
      <trkpt lat="49.8857" lon="2.33122">
        <ele>29.4</ele>
        <time>2023-10-06T12:27:55Z</time>
      </trkpt>
      <trkpt lat="49.8857" lon="2.33123">
        <ele>29.3</ele>
        <time>2023-10-06T12:27:56Z</time>
      </trkpt>
      <trkpt lat="49.88571" lon="2.33124">
        <ele>29.3</ele>
        <time>2023-10-06T12:27:57Z</time>
      </trkpt>
      <trkpt lat="49.88572" lon="2.33126">
        <ele>29.2</ele>
        <time>2023-10-06T12:27:58Z</time>
      </trkpt>
      <trkpt lat="49.88573" lon="2.33127">
        <ele>29.1</ele>
        <time>2023-10-06T12:27:59Z</time>
      </trkpt>
      <trkpt lat="49.88574" lon="2.33128">
        <ele>29.1</ele>
        <time>2023-10-06T12:28:00Z</time>
      </trkpt>
      <trkpt lat="49.88574" lon="2.33129">
        <ele>29</ele>
        <time>2023-10-06T12:28:01Z</time>
      </trkpt>
      <trkpt lat="49.88575" lon="2.3313">
        <ele>29</ele>
        <time>2023-10-06T12:28:02Z</time>
      </trkpt>
      <trkpt lat="49.88575" lon="2.33131">
        <ele>28.9</ele>
        <time>2023-10-06T12:28:03Z</time>
      </trkpt>
      <trkpt lat="49.88576" lon="2.33133">
        <ele>28.9</ele>
        <time>2023-10-06T12:28:04Z</time>
      </trkpt>
      <trkpt lat="49.88576" lon="2.33134">
        <ele>28.9</ele>
        <time>2023-10-06T12:28:05Z</time>
      </trkpt>
      <trkpt lat="49.88577" lon="2.33135">
        <ele>28.8</ele>
        <time>2023-10-06T12:28:06Z</time>
      </trkpt>
      <trkpt lat="49.88577" lon="2.33136">
        <ele>28.8</ele>
        <time>2023-10-06T12:28:07Z</time>
      </trkpt>
      <trkpt lat="49.88578" lon="2.33137">
        <ele>28.7</ele>
        <time>2023-10-06T12:28:08Z</time>
      </trkpt>
      <trkpt lat="49.88579" lon="2.33139">
        <ele>28.7</ele>
        <time>2023-10-06T12:28:09Z</time>
      </trkpt>
      <trkpt lat="49.88579" lon="2.3314">
        <ele>28.6</ele>
        <time>2023-10-06T12:28:10Z</time>
      </trkpt>
      <trkpt lat="49.88579" lon="2.33141">
        <ele>28.6</ele>
        <time>2023-10-06T12:28:11Z</time>
      </trkpt>
      <trkpt lat="49.8858" lon="2.33142">
        <ele>28.6</ele>
        <time>2023-10-06T12:28:12Z</time>
      </trkpt>
      <trkpt lat="49.8858" lon="2.33143">
        <ele>28.5</ele>
        <time>2023-10-06T12:28:13Z</time>
      </trkpt>
      <trkpt lat="49.88581" lon="2.33144">
        <ele>28.5</ele>
        <time>2023-10-06T12:28:14Z</time>
      </trkpt>
      <trkpt lat="49.88582" lon="2.33145">
        <ele>28.4</ele>
        <time>2023-10-06T12:28:15Z</time>
      </trkpt>
      <trkpt lat="49.88582" lon="2.33146">
        <ele>28.4</ele>
        <time>2023-10-06T12:28:16Z</time>
      </trkpt>
      <trkpt lat="49.88583" lon="2.33147">
        <ele>28.4</ele>
        <time>2023-10-06T12:28:17Z</time>
      </trkpt>
      <trkpt lat="49.88583" lon="2.33148">
        <ele>28.3</ele>
        <time>2023-10-06T12:28:18Z</time>
      </trkpt>
      <trkpt lat="49.88584" lon="2.33149">
        <ele>28.3</ele>
        <time>2023-10-06T12:28:19Z</time>
      </trkpt>
      <trkpt lat="49.88585" lon="2.3315">
        <ele>28.3</ele>
        <time>2023-10-06T12:28:20Z</time>
      </trkpt>
      <trkpt lat="49.88586" lon="2.3315">
        <ele>28.2</ele>
        <time>2023-10-06T12:28:21Z</time>
      </trkpt>
      <trkpt lat="49.88586" lon="2.33151">
        <ele>28.2</ele>
        <time>2023-10-06T12:28:22Z</time>
      </trkpt>
      <trkpt lat="49.88587" lon="2.33152">
        <ele>28.2</ele>
        <time>2023-10-06T12:28:23Z</time>
      </trkpt>
      <trkpt lat="49.88588" lon="2.33153">
        <ele>28.1</ele>
        <time>2023-10-06T12:28:24Z</time>
      </trkpt>
      <trkpt lat="49.88588" lon="2.33153">
        <ele>28.1</ele>
        <time>2023-10-06T12:28:25Z</time>
      </trkpt>
      <trkpt lat="49.88589" lon="2.33154">
        <ele>28</ele>
        <time>2023-10-06T12:28:26Z</time>
      </trkpt>
      <trkpt lat="49.8859" lon="2.33155">
        <ele>28</ele>
        <time>2023-10-06T12:28:27Z</time>
      </trkpt>
      <trkpt lat="49.88591" lon="2.33156">
        <ele>28</ele>
        <time>2023-10-06T12:28:28Z</time>
      </trkpt>
      <trkpt lat="49.88592" lon="2.33157">
        <ele>27.9</ele>
        <time>2023-10-06T12:28:29Z</time>
      </trkpt>
      <trkpt lat="49.88593" lon="2.33158">
        <ele>27.9</ele>
        <time>2023-10-06T12:28:30Z</time>
      </trkpt>
      <trkpt lat="49.88594" lon="2.33159">
        <ele>27.8</ele>
        <time>2023-10-06T12:28:31Z</time>
      </trkpt>
      <trkpt lat="49.88596" lon="2.3316">
        <ele>27.8</ele>
        <time>2023-10-06T12:28:32Z</time>
      </trkpt>
      <trkpt lat="49.88596" lon="2.33161">
        <ele>27.7</ele>
        <time>2023-10-06T12:28:33Z</time>
      </trkpt>
      <trkpt lat="49.88597" lon="2.33162">
        <ele>27.7</ele>
        <time>2023-10-06T12:28:34Z</time>
      </trkpt>
      <trkpt lat="49.88599" lon="2.33164">
        <ele>27.6</ele>
        <time>2023-10-06T12:28:35Z</time>
      </trkpt>
      <trkpt lat="49.88599" lon="2.33164">
        <ele>27.6</ele>
        <time>2023-10-06T12:28:36Z</time>
      </trkpt>
      <trkpt lat="49.886" lon="2.33165">
        <ele>27.6</ele>
        <time>2023-10-06T12:28:37Z</time>
      </trkpt>
      <trkpt lat="49.88601" lon="2.33166">
        <ele>27.5</ele>
        <time>2023-10-06T12:28:38Z</time>
      </trkpt>
      <trkpt lat="49.88602" lon="2.33167">
        <ele>27.5</ele>
        <time>2023-10-06T12:28:39Z</time>
      </trkpt>
      <trkpt lat="49.88603" lon="2.33169">
        <ele>27.4</ele>
        <time>2023-10-06T12:28:40Z</time>
      </trkpt>
      <trkpt lat="49.88604" lon="2.33171">
        <ele>27.4</ele>
        <time>2023-10-06T12:28:41Z</time>
      </trkpt>
      <trkpt lat="49.88605" lon="2.33172">
        <ele>27.4</ele>
        <time>2023-10-06T12:28:42Z</time>
      </trkpt>
      <trkpt lat="49.88605" lon="2.33173">
        <ele>27.3</ele>
        <time>2023-10-06T12:28:43Z</time>
      </trkpt>
      <trkpt lat="49.88607" lon="2.33175">
        <ele>27.3</ele>
        <time>2023-10-06T12:28:44Z</time>
      </trkpt>
      <trkpt lat="49.88607" lon="2.33176">
        <ele>27.2</ele>
        <time>2023-10-06T12:28:45Z</time>
      </trkpt>
      <trkpt lat="49.88608" lon="2.33178">
        <ele>27.2</ele>
        <time>2023-10-06T12:28:46Z</time>
      </trkpt>
      <trkpt lat="49.88609" lon="2.3318">
        <ele>27.1</ele>
        <time>2023-10-06T12:28:47Z</time>
      </trkpt>
      <trkpt lat="49.8861" lon="2.33181">
        <ele>27.1</ele>
        <time>2023-10-06T12:28:48Z</time>
      </trkpt>
      <trkpt lat="49.8861" lon="2.33182">
        <ele>27.1</ele>
        <time>2023-10-06T12:28:49Z</time>
      </trkpt>
      <trkpt lat="49.88611" lon="2.33185">
        <ele>27</ele>
        <time>2023-10-06T12:28:50Z</time>
      </trkpt>
      <trkpt lat="49.88611" lon="2.33187">
        <ele>27</ele>
        <time>2023-10-06T12:28:51Z</time>
      </trkpt>
      <trkpt lat="49.88612" lon="2.33188">
        <ele>27</ele>
        <time>2023-10-06T12:28:52Z</time>
      </trkpt>
      <trkpt lat="49.88612" lon="2.3319">
        <ele>26.9</ele>
        <time>2023-10-06T12:28:53Z</time>
      </trkpt>
      <trkpt lat="49.88613" lon="2.33192">
        <ele>26.9</ele>
        <time>2023-10-06T12:28:54Z</time>
      </trkpt>
      <trkpt lat="49.88614" lon="2.33195">
        <ele>26.8</ele>
        <time>2023-10-06T12:28:55Z</time>
      </trkpt>
      <trkpt lat="49.88614" lon="2.33196">
        <ele>26.8</ele>
        <time>2023-10-06T12:28:56Z</time>
      </trkpt>
      <trkpt lat="49.88614" lon="2.33197">
        <ele>26.8</ele>
        <time>2023-10-06T12:28:57Z</time>
      </trkpt>
      <trkpt lat="49.88615" lon="2.33201">
        <ele>26.7</ele>
        <time>2023-10-06T12:28:58Z</time>
      </trkpt>
      <trkpt lat="49.88615" lon="2.33202">
        <ele>26.7</ele>
        <time>2023-10-06T12:28:59Z</time>
      </trkpt>
      <trkpt lat="49.88616" lon="2.33203">
        <ele>26.6</ele>
        <time>2023-10-06T12:29:00Z</time>
      </trkpt>
      <trkpt lat="49.88616" lon="2.33206">
        <ele>26.5</ele>
        <time>2023-10-06T12:29:01Z</time>
      </trkpt>
      <trkpt lat="49.88617" lon="2.33208">
        <ele>26.5</ele>
        <time>2023-10-06T12:29:02Z</time>
      </trkpt>
      <trkpt lat="49.88617" lon="2.33209">
        <ele>26.5</ele>
        <time>2023-10-06T12:29:03Z</time>
      </trkpt>
      <trkpt lat="49.88618" lon="2.3321">
        <ele>26.4</ele>
        <time>2023-10-06T12:29:04Z</time>
      </trkpt>
      <trkpt lat="49.88619" lon="2.33212">
        <ele>26.4</ele>
        <time>2023-10-06T12:29:05Z</time>
      </trkpt>
      <trkpt lat="49.88619" lon="2.33213">
        <ele>26.4</ele>
        <time>2023-10-06T12:29:06Z</time>
      </trkpt>
      <trkpt lat="49.8862" lon="2.33213">
        <ele>26.4</ele>
        <time>2023-10-06T12:29:07Z</time>
      </trkpt>
      <trkpt lat="49.88621" lon="2.33214">
        <ele>26.3</ele>
        <time>2023-10-06T12:29:08Z</time>
      </trkpt>
      <trkpt lat="49.88622" lon="2.33215">
        <ele>26.3</ele>
        <time>2023-10-06T12:29:09Z</time>
      </trkpt>
      <trkpt lat="49.88622" lon="2.33215">
        <ele>26.3</ele>
        <time>2023-10-06T12:29:10Z</time>
      </trkpt>
      <trkpt lat="49.88623" lon="2.33216">
        <ele>26.3</ele>
        <time>2023-10-06T12:29:11Z</time>
      </trkpt>
      <trkpt lat="49.88624" lon="2.33217">
        <ele>26.3</ele>
        <time>2023-10-06T12:29:12Z</time>
      </trkpt>
      <trkpt lat="49.88625" lon="2.33217">
        <ele>26.3</ele>
        <time>2023-10-06T12:29:13Z</time>
      </trkpt>
      <trkpt lat="49.88625" lon="2.33217">
        <ele>26.3</ele>
        <time>2023-10-06T12:29:14Z</time>
      </trkpt>
      <trkpt lat="49.88625" lon="2.33218">
        <ele>26.3</ele>
        <time>2023-10-06T12:29:15Z</time>
      </trkpt>
      <trkpt lat="49.88626" lon="2.33218">
        <ele>26.3</ele>
        <time>2023-10-06T12:29:16Z</time>
      </trkpt>
      <trkpt lat="49.88626" lon="2.33219">
        <ele>26.3</ele>
        <time>2023-10-06T12:29:17Z</time>
      </trkpt>
      <trkpt lat="49.88627" lon="2.3322">
        <ele>26.3</ele>
        <time>2023-10-06T12:29:18Z</time>
      </trkpt>
      <trkpt lat="49.88627" lon="2.3322">
        <ele>26.2</ele>
        <time>2023-10-06T12:29:19Z</time>
      </trkpt>
      <trkpt lat="49.88628" lon="2.33221">
        <ele>26.2</ele>
        <time>2023-10-06T12:29:20Z</time>
      </trkpt>
      <trkpt lat="49.88629" lon="2.33222">
        <ele>26.2</ele>
        <time>2023-10-06T12:29:21Z</time>
      </trkpt>
      <trkpt lat="49.88631" lon="2.33224">
        <ele>26.2</ele>
        <time>2023-10-06T12:29:22Z</time>
      </trkpt>
      <trkpt lat="49.88632" lon="2.33225">
        <ele>26.2</ele>
        <time>2023-10-06T12:29:23Z</time>
      </trkpt>
      <trkpt lat="49.88632" lon="2.33225">
        <ele>26.2</ele>
        <time>2023-10-06T12:29:24Z</time>
      </trkpt>
      <trkpt lat="49.88634" lon="2.33227">
        <ele>26.2</ele>
        <time>2023-10-06T12:29:25Z</time>
      </trkpt>
      <trkpt lat="49.88635" lon="2.33228">
        <ele>26.1</ele>
        <time>2023-10-06T12:29:26Z</time>
      </trkpt>
      <trkpt lat="49.88635" lon="2.33229">
        <ele>26.1</ele>
        <time>2023-10-06T12:29:27Z</time>
      </trkpt>
      <trkpt lat="49.88637" lon="2.33231">
        <ele>26.1</ele>
        <time>2023-10-06T12:29:28Z</time>
      </trkpt>
      <trkpt lat="49.88637" lon="2.33232">
        <ele>26.1</ele>
        <time>2023-10-06T12:29:29Z</time>
      </trkpt>
      <trkpt lat="49.88638" lon="2.33234">
        <ele>26.1</ele>
        <time>2023-10-06T12:29:30Z</time>
      </trkpt>
      <trkpt lat="49.88639" lon="2.33235">
        <ele>26.1</ele>
        <time>2023-10-06T12:29:31Z</time>
      </trkpt>
      <trkpt lat="49.8864" lon="2.33235">
        <ele>26.1</ele>
        <time>2023-10-06T12:29:32Z</time>
      </trkpt>
      <trkpt lat="49.88641" lon="2.33236">
        <ele>26</ele>
        <time>2023-10-06T12:29:33Z</time>
      </trkpt>
      <trkpt lat="49.88642" lon="2.33237">
        <ele>26</ele>
        <time>2023-10-06T12:29:34Z</time>
      </trkpt>
      <trkpt lat="49.88643" lon="2.33237">
        <ele>26</ele>
        <time>2023-10-06T12:29:35Z</time>
      </trkpt>
      <trkpt lat="49.88644" lon="2.33238">
        <ele>26</ele>
        <time>2023-10-06T12:29:36Z</time>
      </trkpt>
      <trkpt lat="49.88645" lon="2.33238">
        <ele>26</ele>
        <time>2023-10-06T12:29:37Z</time>
      </trkpt>
      <trkpt lat="49.88646" lon="2.33238">
        <ele>26</ele>
        <time>2023-10-06T12:29:38Z</time>
      </trkpt>
      <trkpt lat="49.88647" lon="2.33239">
        <ele>25.9</ele>
        <time>2023-10-06T12:29:39Z</time>
      </trkpt>
      <trkpt lat="49.88648" lon="2.33239">
        <ele>25.9</ele>
        <time>2023-10-06T12:29:40Z</time>
      </trkpt>
      <trkpt lat="49.88648" lon="2.3324">
        <ele>25.9</ele>
        <time>2023-10-06T12:29:41Z</time>
      </trkpt>
      <trkpt lat="49.88649" lon="2.33241">
        <ele>25.9</ele>
        <time>2023-10-06T12:29:42Z</time>
      </trkpt>
      <trkpt lat="49.8865" lon="2.33242">
        <ele>25.9</ele>
        <time>2023-10-06T12:29:43Z</time>
      </trkpt>
      <trkpt lat="49.88651" lon="2.33243">
        <ele>25.9</ele>
        <time>2023-10-06T12:29:44Z</time>
      </trkpt>
      <trkpt lat="49.88652" lon="2.33244">
        <ele>25.9</ele>
        <time>2023-10-06T12:29:45Z</time>
      </trkpt>
      <trkpt lat="49.88653" lon="2.33245">
        <ele>25.8</ele>
        <time>2023-10-06T12:29:46Z</time>
      </trkpt>
      <trkpt lat="49.88654" lon="2.33245">
        <ele>25.8</ele>
        <time>2023-10-06T12:29:47Z</time>
      </trkpt>
      <trkpt lat="49.88655" lon="2.33246">
        <ele>25.8</ele>
        <time>2023-10-06T12:29:48Z</time>
      </trkpt>
      <trkpt lat="49.88656" lon="2.33247">
        <ele>25.8</ele>
        <time>2023-10-06T12:29:49Z</time>
      </trkpt>
      <trkpt lat="49.88657" lon="2.33248">
        <ele>25.8</ele>
        <time>2023-10-06T12:29:50Z</time>
      </trkpt>
      <trkpt lat="49.88658" lon="2.33248">
        <ele>25.8</ele>
        <time>2023-10-06T12:29:51Z</time>
      </trkpt>
      <trkpt lat="49.88659" lon="2.33249">
        <ele>25.7</ele>
        <time>2023-10-06T12:29:52Z</time>
      </trkpt>
      <trkpt lat="49.88659" lon="2.3325">
        <ele>25.7</ele>
        <time>2023-10-06T12:29:53Z</time>
      </trkpt>
      <trkpt lat="49.8866" lon="2.33251">
        <ele>25.7</ele>
        <time>2023-10-06T12:29:54Z</time>
      </trkpt>
      <trkpt lat="49.88661" lon="2.33252">
        <ele>25.7</ele>
        <time>2023-10-06T12:29:55Z</time>
      </trkpt>
      <trkpt lat="49.88662" lon="2.33253">
        <ele>25.7</ele>
        <time>2023-10-06T12:29:56Z</time>
      </trkpt>
      <trkpt lat="49.88663" lon="2.33254">
        <ele>25.7</ele>
        <time>2023-10-06T12:29:57Z</time>
      </trkpt>
      <trkpt lat="49.88664" lon="2.33254">
        <ele>25.6</ele>
        <time>2023-10-06T12:29:58Z</time>
      </trkpt>
      <trkpt lat="49.88665" lon="2.33255">
        <ele>25.6</ele>
        <time>2023-10-06T12:29:59Z</time>
      </trkpt>
      <trkpt lat="49.88666" lon="2.33256">
        <ele>25.6</ele>
        <time>2023-10-06T12:30:00Z</time>
      </trkpt>
      <trkpt lat="49.88666" lon="2.33257">
        <ele>25.6</ele>
        <time>2023-10-06T12:30:01Z</time>
      </trkpt>
      <trkpt lat="49.88667" lon="2.33257">
        <ele>25.6</ele>
        <time>2023-10-06T12:30:02Z</time>
      </trkpt>
      <trkpt lat="49.88668" lon="2.33258">
        <ele>25.6</ele>
        <time>2023-10-06T12:30:03Z</time>
      </trkpt>
      <trkpt lat="49.88669" lon="2.33259">
        <ele>25.6</ele>
        <time>2023-10-06T12:30:04Z</time>
      </trkpt>
      <trkpt lat="49.8867" lon="2.3326">
        <ele>25.6</ele>
        <time>2023-10-06T12:30:05Z</time>
      </trkpt>
      <trkpt lat="49.88671" lon="2.33261">
        <ele>25.6</ele>
        <time>2023-10-06T12:30:06Z</time>
      </trkpt>
      <trkpt lat="49.88672" lon="2.33262">
        <ele>25.5</ele>
        <time>2023-10-06T12:30:07Z</time>
      </trkpt>
      <trkpt lat="49.88673" lon="2.33263">
        <ele>25.5</ele>
        <time>2023-10-06T12:30:08Z</time>
      </trkpt>
      <trkpt lat="49.88674" lon="2.33264">
        <ele>25.5</ele>
        <time>2023-10-06T12:30:09Z</time>
      </trkpt>
      <trkpt lat="49.88675" lon="2.33264">
        <ele>25.5</ele>
        <time>2023-10-06T12:30:10Z</time>
      </trkpt>
      <trkpt lat="49.88676" lon="2.33265">
        <ele>25.5</ele>
        <time>2023-10-06T12:30:11Z</time>
      </trkpt>
      <trkpt lat="49.88677" lon="2.33265">
        <ele>25.5</ele>
        <time>2023-10-06T12:30:12Z</time>
      </trkpt>
      <trkpt lat="49.88678" lon="2.33266">
        <ele>25.5</ele>
        <time>2023-10-06T12:30:13Z</time>
      </trkpt>
      <trkpt lat="49.88679" lon="2.33266">
        <ele>25.5</ele>
        <time>2023-10-06T12:30:14Z</time>
      </trkpt>
      <trkpt lat="49.8868" lon="2.33267">
        <ele>25.5</ele>
        <time>2023-10-06T12:30:15Z</time>
      </trkpt>
      <trkpt lat="49.88681" lon="2.33268">
        <ele>25.5</ele>
        <time>2023-10-06T12:30:16Z</time>
      </trkpt>
      <trkpt lat="49.88682" lon="2.33268">
        <ele>25.5</ele>
        <time>2023-10-06T12:30:17Z</time>
      </trkpt>
      <trkpt lat="49.88683" lon="2.33269">
        <ele>25.5</ele>
        <time>2023-10-06T12:30:18Z</time>
      </trkpt>
      <trkpt lat="49.88684" lon="2.3327">
        <ele>25.5</ele>
        <time>2023-10-06T12:30:19Z</time>
      </trkpt>
      <trkpt lat="49.88684" lon="2.3327">
        <ele>25.5</ele>
        <time>2023-10-06T12:30:20Z</time>
      </trkpt>
      <trkpt lat="49.88685" lon="2.33271">
        <ele>25.5</ele>
        <time>2023-10-06T12:30:21Z</time>
      </trkpt>
      <trkpt lat="49.88686" lon="2.33271">
        <ele>25.4</ele>
        <time>2023-10-06T12:30:22Z</time>
      </trkpt>
      <trkpt lat="49.88687" lon="2.33272">
        <ele>25.4</ele>
        <time>2023-10-06T12:30:23Z</time>
      </trkpt>
      <trkpt lat="49.88688" lon="2.33272">
        <ele>25.4</ele>
        <time>2023-10-06T12:30:24Z</time>
      </trkpt>
      <trkpt lat="49.88689" lon="2.33272">
        <ele>25.4</ele>
        <time>2023-10-06T12:30:25Z</time>
      </trkpt>
      <trkpt lat="49.8869" lon="2.33273">
        <ele>25.4</ele>
        <time>2023-10-06T12:30:26Z</time>
      </trkpt>
      <trkpt lat="49.88691" lon="2.33273">
        <ele>25.4</ele>
        <time>2023-10-06T12:30:27Z</time>
      </trkpt>
      <trkpt lat="49.88692" lon="2.33274">
        <ele>25.4</ele>
        <time>2023-10-06T12:30:28Z</time>
      </trkpt>
      <trkpt lat="49.88693" lon="2.33275">
        <ele>25.4</ele>
        <time>2023-10-06T12:30:29Z</time>
      </trkpt>
      <trkpt lat="49.88694" lon="2.33275">
        <ele>25.4</ele>
        <time>2023-10-06T12:30:30Z</time>
      </trkpt>
      <trkpt lat="49.88695" lon="2.33276">
        <ele>25.4</ele>
        <time>2023-10-06T12:30:31Z</time>
      </trkpt>
      <trkpt lat="49.88696" lon="2.33277">
        <ele>25.4</ele>
        <time>2023-10-06T12:30:32Z</time>
      </trkpt>
      <trkpt lat="49.88697" lon="2.33277">
        <ele>25.4</ele>
        <time>2023-10-06T12:30:33Z</time>
      </trkpt>
      <trkpt lat="49.88699" lon="2.33279">
        <ele>25.4</ele>
        <time>2023-10-06T12:30:34Z</time>
      </trkpt>
      <trkpt lat="49.887" lon="2.33279">
        <ele>25.4</ele>
        <time>2023-10-06T12:30:35Z</time>
      </trkpt>
      <trkpt lat="49.88701" lon="2.3328">
        <ele>25.3</ele>
        <time>2023-10-06T12:30:36Z</time>
      </trkpt>
      <trkpt lat="49.88702" lon="2.3328">
        <ele>25.3</ele>
        <time>2023-10-06T12:30:37Z</time>
      </trkpt>
      <trkpt lat="49.88703" lon="2.33281">
        <ele>25.3</ele>
        <time>2023-10-06T12:30:38Z</time>
      </trkpt>
      <trkpt lat="49.88704" lon="2.33282">
        <ele>25.3</ele>
        <time>2023-10-06T12:30:39Z</time>
      </trkpt>
      <trkpt lat="49.88705" lon="2.33282">
        <ele>25.3</ele>
        <time>2023-10-06T12:30:40Z</time>
      </trkpt>
      <trkpt lat="49.88706" lon="2.33283">
        <ele>25.3</ele>
        <time>2023-10-06T12:30:41Z</time>
      </trkpt>
      <trkpt lat="49.88707" lon="2.33283">
        <ele>25.3</ele>
        <time>2023-10-06T12:30:42Z</time>
      </trkpt>
      <trkpt lat="49.88708" lon="2.33284">
        <ele>25.3</ele>
        <time>2023-10-06T12:30:43Z</time>
      </trkpt>
      <trkpt lat="49.88708" lon="2.33285">
        <ele>25.3</ele>
        <time>2023-10-06T12:30:44Z</time>
      </trkpt>
      <trkpt lat="49.88709" lon="2.33286">
        <ele>25.3</ele>
        <time>2023-10-06T12:30:45Z</time>
      </trkpt>
      <trkpt lat="49.8871" lon="2.33286">
        <ele>25.3</ele>
        <time>2023-10-06T12:30:46Z</time>
      </trkpt>
      <trkpt lat="49.88711" lon="2.33287">
        <ele>25.3</ele>
        <time>2023-10-06T12:30:47Z</time>
      </trkpt>
      <trkpt lat="49.88712" lon="2.33288">
        <ele>25.3</ele>
        <time>2023-10-06T12:30:48Z</time>
      </trkpt>
      <trkpt lat="49.88713" lon="2.33288">
        <ele>25.3</ele>
        <time>2023-10-06T12:30:49Z</time>
      </trkpt>
      <trkpt lat="49.88713" lon="2.33289">
        <ele>25.3</ele>
        <time>2023-10-06T12:30:50Z</time>
      </trkpt>
      <trkpt lat="49.88714" lon="2.33289">
        <ele>25.3</ele>
        <time>2023-10-06T12:30:51Z</time>
      </trkpt>
      <trkpt lat="49.88715" lon="2.3329">
        <ele>25.3</ele>
        <time>2023-10-06T12:30:52Z</time>
      </trkpt>
      <trkpt lat="49.88715" lon="2.3329">
        <ele>25.3</ele>
        <time>2023-10-06T12:30:53Z</time>
      </trkpt>
      <trkpt lat="49.88716" lon="2.33291">
        <ele>25.3</ele>
        <time>2023-10-06T12:30:54Z</time>
      </trkpt>
      <trkpt lat="49.88717" lon="2.33291">
        <ele>25.3</ele>
        <time>2023-10-06T12:30:55Z</time>
      </trkpt>
      <trkpt lat="49.88718" lon="2.33291">
        <ele>25.3</ele>
        <time>2023-10-06T12:30:56Z</time>
      </trkpt>
      <trkpt lat="49.88719" lon="2.33292">
        <ele>25.3</ele>
        <time>2023-10-06T12:30:57Z</time>
      </trkpt>
      <trkpt lat="49.8872" lon="2.33292">
        <ele>25.3</ele>
        <time>2023-10-06T12:30:58Z</time>
      </trkpt>
      <trkpt lat="49.88721" lon="2.33292">
        <ele>25.3</ele>
        <time>2023-10-06T12:30:59Z</time>
      </trkpt>
      <trkpt lat="49.88722" lon="2.33292">
        <ele>25.3</ele>
        <time>2023-10-06T12:31:00Z</time>
      </trkpt>
      <trkpt lat="49.88723" lon="2.33293">
        <ele>25.3</ele>
        <time>2023-10-06T12:31:01Z</time>
      </trkpt>
      <trkpt lat="49.88724" lon="2.33293">
        <ele>25.3</ele>
        <time>2023-10-06T12:31:02Z</time>
      </trkpt>
      <trkpt lat="49.88725" lon="2.33293">
        <ele>25.3</ele>
        <time>2023-10-06T12:31:03Z</time>
      </trkpt>
      <trkpt lat="49.88726" lon="2.33293">
        <ele>25.3</ele>
        <time>2023-10-06T12:31:04Z</time>
      </trkpt>
      <trkpt lat="49.88727" lon="2.33294">
        <ele>25.3</ele>
        <time>2023-10-06T12:31:05Z</time>
      </trkpt>
      <trkpt lat="49.88728" lon="2.33294">
        <ele>25.3</ele>
        <time>2023-10-06T12:31:06Z</time>
      </trkpt>
      <trkpt lat="49.88729" lon="2.33295">
        <ele>25.3</ele>
        <time>2023-10-06T12:31:07Z</time>
      </trkpt>
      <trkpt lat="49.8873" lon="2.33295">
        <ele>25.3</ele>
        <time>2023-10-06T12:31:08Z</time>
      </trkpt>
      <trkpt lat="49.88731" lon="2.33296">
        <ele>25.3</ele>
        <time>2023-10-06T12:31:09Z</time>
      </trkpt>
      <trkpt lat="49.88732" lon="2.33296">
        <ele>25.3</ele>
        <time>2023-10-06T12:31:10Z</time>
      </trkpt>
      <trkpt lat="49.88733" lon="2.33297">
        <ele>25.3</ele>
        <time>2023-10-06T12:31:11Z</time>
      </trkpt>
      <trkpt lat="49.88734" lon="2.33297">
        <ele>25.3</ele>
        <time>2023-10-06T12:31:12Z</time>
      </trkpt>
      <trkpt lat="49.88735" lon="2.33297">
        <ele>25.3</ele>
        <time>2023-10-06T12:31:13Z</time>
      </trkpt>
      <trkpt lat="49.88735" lon="2.33298">
        <ele>25.3</ele>
        <time>2023-10-06T12:31:14Z</time>
      </trkpt>
      <trkpt lat="49.88736" lon="2.33298">
        <ele>25.3</ele>
        <time>2023-10-06T12:31:15Z</time>
      </trkpt>
      <trkpt lat="49.88737" lon="2.33298">
        <ele>25.4</ele>
        <time>2023-10-06T12:31:16Z</time>
      </trkpt>
      <trkpt lat="49.88738" lon="2.33298">
        <ele>25.4</ele>
        <time>2023-10-06T12:31:17Z</time>
      </trkpt>
      <trkpt lat="49.88739" lon="2.33298">
        <ele>25.4</ele>
        <time>2023-10-06T12:31:18Z</time>
      </trkpt>
      <trkpt lat="49.8874" lon="2.33298">
        <ele>25.4</ele>
        <time>2023-10-06T12:31:19Z</time>
      </trkpt>
      <trkpt lat="49.88741" lon="2.33298">
        <ele>25.4</ele>
        <time>2023-10-06T12:31:20Z</time>
      </trkpt>
      <trkpt lat="49.88741" lon="2.33298">
        <ele>25.4</ele>
        <time>2023-10-06T12:31:21Z</time>
      </trkpt>
      <trkpt lat="49.88741" lon="2.33298">
        <ele>25.4</ele>
        <time>2023-10-06T12:31:22Z</time>
      </trkpt>
      <trkpt lat="49.88742" lon="2.33298">
        <ele>25.4</ele>
        <time>2023-10-06T12:31:23Z</time>
      </trkpt>
      <trkpt lat="49.88742" lon="2.33299">
        <ele>25.4</ele>
        <time>2023-10-06T12:31:24Z</time>
      </trkpt>
      <trkpt lat="49.88743" lon="2.33299">
        <ele>25.4</ele>
        <time>2023-10-06T12:31:25Z</time>
      </trkpt>
      <trkpt lat="49.88744" lon="2.33299">
        <ele>25.4</ele>
        <time>2023-10-06T12:31:26Z</time>
      </trkpt>
      <trkpt lat="49.88745" lon="2.33299">
        <ele>25.4</ele>
        <time>2023-10-06T12:31:27Z</time>
      </trkpt>
      <trkpt lat="49.88746" lon="2.33299">
        <ele>25.4</ele>
        <time>2023-10-06T12:31:28Z</time>
      </trkpt>
      <trkpt lat="49.88746" lon="2.333">
        <ele>25.4</ele>
        <time>2023-10-06T12:31:29Z</time>
      </trkpt>
      <trkpt lat="49.88747" lon="2.333">
        <ele>25.5</ele>
        <time>2023-10-06T12:31:30Z</time>
      </trkpt>
      <trkpt lat="49.88747" lon="2.333">
        <ele>25.5</ele>
        <time>2023-10-06T12:31:31Z</time>
      </trkpt>
      <trkpt lat="49.88748" lon="2.333">
        <ele>25.5</ele>
        <time>2023-10-06T12:31:32Z</time>
      </trkpt>
      <trkpt lat="49.88748" lon="2.333">
        <ele>25.5</ele>
        <time>2023-10-06T12:31:33Z</time>
      </trkpt>
      <trkpt lat="49.88749" lon="2.333">
        <ele>25.5</ele>
        <time>2023-10-06T12:31:34Z</time>
      </trkpt>
      <trkpt lat="49.8875" lon="2.333">
        <ele>25.5</ele>
        <time>2023-10-06T12:31:35Z</time>
      </trkpt>
      <trkpt lat="49.88751" lon="2.333">
        <ele>25.5</ele>
        <time>2023-10-06T12:31:36Z</time>
      </trkpt>
      <trkpt lat="49.88752" lon="2.333">
        <ele>25.5</ele>
        <time>2023-10-06T12:31:37Z</time>
      </trkpt>
      <trkpt lat="49.88753" lon="2.333">
        <ele>25.5</ele>
        <time>2023-10-06T12:31:38Z</time>
      </trkpt>
      <trkpt lat="49.88754" lon="2.333">
        <ele>25.5</ele>
        <time>2023-10-06T12:31:39Z</time>
      </trkpt>
      <trkpt lat="49.88754" lon="2.333">
        <ele>25.5</ele>
        <time>2023-10-06T12:31:40Z</time>
      </trkpt>
      <trkpt lat="49.88754" lon="2.333">
        <ele>25.5</ele>
        <time>2023-10-06T12:31:41Z</time>
      </trkpt>
      <trkpt lat="49.88755" lon="2.333">
        <ele>25.5</ele>
        <time>2023-10-06T12:31:42Z</time>
      </trkpt>
      <trkpt lat="49.88756" lon="2.333">
        <ele>25.5</ele>
        <time>2023-10-06T12:31:43Z</time>
      </trkpt>
      <trkpt lat="49.88756" lon="2.333">
        <ele>25.5</ele>
        <time>2023-10-06T12:31:44Z</time>
      </trkpt>
      <trkpt lat="49.88757" lon="2.333">
        <ele>25.6</ele>
        <time>2023-10-06T12:31:45Z</time>
      </trkpt>
      <trkpt lat="49.88758" lon="2.333">
        <ele>25.6</ele>
        <time>2023-10-06T12:31:46Z</time>
      </trkpt>
      <trkpt lat="49.88759" lon="2.333">
        <ele>25.6</ele>
        <time>2023-10-06T12:31:47Z</time>
      </trkpt>
      <trkpt lat="49.8876" lon="2.333">
        <ele>25.6</ele>
        <time>2023-10-06T12:31:48Z</time>
      </trkpt>
      <trkpt lat="49.88761" lon="2.333">
        <ele>25.6</ele>
        <time>2023-10-06T12:31:49Z</time>
      </trkpt>
      <trkpt lat="49.88762" lon="2.333">
        <ele>25.6</ele>
        <time>2023-10-06T12:31:50Z</time>
      </trkpt>
      <trkpt lat="49.88763" lon="2.333">
        <ele>25.6</ele>
        <time>2023-10-06T12:31:51Z</time>
      </trkpt>
      <trkpt lat="49.88763" lon="2.333">
        <ele>25.6</ele>
        <time>2023-10-06T12:31:52Z</time>
      </trkpt>
      <trkpt lat="49.88764" lon="2.333">
        <ele>25.6</ele>
        <time>2023-10-06T12:31:53Z</time>
      </trkpt>
      <trkpt lat="49.88765" lon="2.333">
        <ele>25.6</ele>
        <time>2023-10-06T12:31:54Z</time>
      </trkpt>
      <trkpt lat="49.88766" lon="2.333">
        <ele>25.6</ele>
        <time>2023-10-06T12:31:55Z</time>
      </trkpt>
      <trkpt lat="49.88766" lon="2.333">
        <ele>25.6</ele>
        <time>2023-10-06T12:31:56Z</time>
      </trkpt>
      <trkpt lat="49.88767" lon="2.333">
        <ele>25.6</ele>
        <time>2023-10-06T12:31:57Z</time>
      </trkpt>
      <trkpt lat="49.88768" lon="2.33301">
        <ele>25.6</ele>
        <time>2023-10-06T12:31:58Z</time>
      </trkpt>
      <trkpt lat="49.88769" lon="2.33302">
        <ele>25.6</ele>
        <time>2023-10-06T12:31:59Z</time>
      </trkpt>
      <trkpt lat="49.88771" lon="2.33305">
        <ele>25.6</ele>
        <time>2023-10-06T12:32:00Z</time>
      </trkpt>
      <trkpt lat="49.88771" lon="2.33306">
        <ele>25.6</ele>
        <time>2023-10-06T12:32:01Z</time>
      </trkpt>
      <trkpt lat="49.88772" lon="2.33307">
        <ele>25.6</ele>
        <time>2023-10-06T12:32:02Z</time>
      </trkpt>
      <trkpt lat="49.88773" lon="2.33309">
        <ele>25.6</ele>
        <time>2023-10-06T12:32:03Z</time>
      </trkpt>
      <trkpt lat="49.88773" lon="2.3331">
        <ele>25.4</ele>
        <time>2023-10-06T12:32:04Z</time>
      </trkpt>
      <trkpt lat="49.88774" lon="2.33313">
        <ele>25.4</ele>
        <time>2023-10-06T12:32:05Z</time>
      </trkpt>
      <trkpt lat="49.88775" lon="2.33314">
        <ele>25.3</ele>
        <time>2023-10-06T12:32:06Z</time>
      </trkpt>
      <trkpt lat="49.88776" lon="2.33316">
        <ele>25.3</ele>
        <time>2023-10-06T12:32:07Z</time>
      </trkpt>
      <trkpt lat="49.88776" lon="2.33318">
        <ele>25.3</ele>
        <time>2023-10-06T12:32:08Z</time>
      </trkpt>
      <trkpt lat="49.88777" lon="2.3332">
        <ele>25.3</ele>
        <time>2023-10-06T12:32:09Z</time>
      </trkpt>
      <trkpt lat="49.88777" lon="2.33322">
        <ele>25.3</ele>
        <time>2023-10-06T12:32:10Z</time>
      </trkpt>
      <trkpt lat="49.88778" lon="2.33323">
        <ele>25.2</ele>
        <time>2023-10-06T12:32:11Z</time>
      </trkpt>
      <trkpt lat="49.88778" lon="2.33325">
        <ele>25.2</ele>
        <time>2023-10-06T12:32:12Z</time>
      </trkpt>
      <trkpt lat="49.88778" lon="2.33326">
        <ele>25.2</ele>
        <time>2023-10-06T12:32:13Z</time>
      </trkpt>
      <trkpt lat="49.88778" lon="2.33328">
        <ele>25.2</ele>
        <time>2023-10-06T12:32:14Z</time>
      </trkpt>
      <trkpt lat="49.88778" lon="2.33329">
        <ele>25.2</ele>
        <time>2023-10-06T12:32:15Z</time>
      </trkpt>
      <trkpt lat="49.88779" lon="2.33331">
        <ele>25.1</ele>
        <time>2023-10-06T12:32:16Z</time>
      </trkpt>
      <trkpt lat="49.88778" lon="2.33333">
        <ele>25.1</ele>
        <time>2023-10-06T12:32:17Z</time>
      </trkpt>
      <trkpt lat="49.88779" lon="2.33334">
        <ele>25.1</ele>
        <time>2023-10-06T12:32:18Z</time>
      </trkpt>
      <trkpt lat="49.88779" lon="2.33336">
        <ele>25.1</ele>
        <time>2023-10-06T12:32:19Z</time>
      </trkpt>
      <trkpt lat="49.88778" lon="2.33338">
        <ele>25.1</ele>
        <time>2023-10-06T12:32:20Z</time>
      </trkpt>
      <trkpt lat="49.88778" lon="2.33339">
        <ele>25</ele>
        <time>2023-10-06T12:32:21Z</time>
      </trkpt>
      <trkpt lat="49.88777" lon="2.33341">
        <ele>25</ele>
        <time>2023-10-06T12:32:22Z</time>
      </trkpt>
      <trkpt lat="49.88777" lon="2.33343">
        <ele>25</ele>
        <time>2023-10-06T12:32:23Z</time>
      </trkpt>
      <trkpt lat="49.88776" lon="2.33344">
        <ele>25</ele>
        <time>2023-10-06T12:32:24Z</time>
      </trkpt>
      <trkpt lat="49.88776" lon="2.33346">
        <ele>25</ele>
        <time>2023-10-06T12:32:25Z</time>
      </trkpt>
      <trkpt lat="49.88775" lon="2.33347">
        <ele>25</ele>
        <time>2023-10-06T12:32:26Z</time>
      </trkpt>
      <trkpt lat="49.88775" lon="2.33348">
        <ele>25</ele>
        <time>2023-10-06T12:32:27Z</time>
      </trkpt>
      <trkpt lat="49.88774" lon="2.3335">
        <ele>24.9</ele>
        <time>2023-10-06T12:32:28Z</time>
      </trkpt>
      <trkpt lat="49.88774" lon="2.33352">
        <ele>24.9</ele>
        <time>2023-10-06T12:32:29Z</time>
      </trkpt>
      <trkpt lat="49.88773" lon="2.33354">
        <ele>24.9</ele>
        <time>2023-10-06T12:32:30Z</time>
      </trkpt>
      <trkpt lat="49.88773" lon="2.33356">
        <ele>24.9</ele>
        <time>2023-10-06T12:32:31Z</time>
      </trkpt>
      <trkpt lat="49.88773" lon="2.33357">
        <ele>24.9</ele>
        <time>2023-10-06T12:32:32Z</time>
      </trkpt>
      <trkpt lat="49.88772" lon="2.3336">
        <ele>24.9</ele>
        <time>2023-10-06T12:32:33Z</time>
      </trkpt>
      <trkpt lat="49.88772" lon="2.33361">
        <ele>24.9</ele>
        <time>2023-10-06T12:32:34Z</time>
      </trkpt>
      <trkpt lat="49.88772" lon="2.33362">
        <ele>24.9</ele>
        <time>2023-10-06T12:32:35Z</time>
      </trkpt>
      <trkpt lat="49.88771" lon="2.33364">
        <ele>24.8</ele>
        <time>2023-10-06T12:32:36Z</time>
      </trkpt>
      <trkpt lat="49.88771" lon="2.33366">
        <ele>24.8</ele>
        <time>2023-10-06T12:32:37Z</time>
      </trkpt>
      <trkpt lat="49.88771" lon="2.33367">
        <ele>24.8</ele>
        <time>2023-10-06T12:32:38Z</time>
      </trkpt>
      <trkpt lat="49.88771" lon="2.33369">
        <ele>24.8</ele>
        <time>2023-10-06T12:32:39Z</time>
      </trkpt>
      <trkpt lat="49.8877" lon="2.3337">
        <ele>24.8</ele>
        <time>2023-10-06T12:32:40Z</time>
      </trkpt>
      <trkpt lat="49.8877" lon="2.33371">
        <ele>24.8</ele>
        <time>2023-10-06T12:32:41Z</time>
      </trkpt>
      <trkpt lat="49.8877" lon="2.33373">
        <ele>24.8</ele>
        <time>2023-10-06T12:32:42Z</time>
      </trkpt>
      <trkpt lat="49.88769" lon="2.33374">
        <ele>24.8</ele>
        <time>2023-10-06T12:32:43Z</time>
      </trkpt>
      <trkpt lat="49.88769" lon="2.33376">
        <ele>24.8</ele>
        <time>2023-10-06T12:32:44Z</time>
      </trkpt>
      <trkpt lat="49.88769" lon="2.33377">
        <ele>24.8</ele>
        <time>2023-10-06T12:32:45Z</time>
      </trkpt>
      <trkpt lat="49.88769" lon="2.33379">
        <ele>24.8</ele>
        <time>2023-10-06T12:32:46Z</time>
      </trkpt>
      <trkpt lat="49.88768" lon="2.3338">
        <ele>24.8</ele>
        <time>2023-10-06T12:32:47Z</time>
      </trkpt>
      <trkpt lat="49.88768" lon="2.33382">
        <ele>24.8</ele>
        <time>2023-10-06T12:32:48Z</time>
      </trkpt>
      <trkpt lat="49.88768" lon="2.33384">
        <ele>24.8</ele>
        <time>2023-10-06T12:32:49Z</time>
      </trkpt>
      <trkpt lat="49.88768" lon="2.33386">
        <ele>24.8</ele>
        <time>2023-10-06T12:32:50Z</time>
      </trkpt>
      <trkpt lat="49.88767" lon="2.33387">
        <ele>24.8</ele>
        <time>2023-10-06T12:32:51Z</time>
      </trkpt>
      <trkpt lat="49.88767" lon="2.33389">
        <ele>24.8</ele>
        <time>2023-10-06T12:32:52Z</time>
      </trkpt>
      <trkpt lat="49.88766" lon="2.3339">
        <ele>24.8</ele>
        <time>2023-10-06T12:32:53Z</time>
      </trkpt>
      <trkpt lat="49.88766" lon="2.33392">
        <ele>24.8</ele>
        <time>2023-10-06T12:32:54Z</time>
      </trkpt>
      <trkpt lat="49.88765" lon="2.33393">
        <ele>24.8</ele>
        <time>2023-10-06T12:32:55Z</time>
      </trkpt>
      <trkpt lat="49.88765" lon="2.33394">
        <ele>24.8</ele>
        <time>2023-10-06T12:32:56Z</time>
      </trkpt>
      <trkpt lat="49.88764" lon="2.33396">
        <ele>24.8</ele>
        <time>2023-10-06T12:32:57Z</time>
      </trkpt>
      <trkpt lat="49.88764" lon="2.33397">
        <ele>24.8</ele>
        <time>2023-10-06T12:32:58Z</time>
      </trkpt>
      <trkpt lat="49.88763" lon="2.33398">
        <ele>24.8</ele>
        <time>2023-10-06T12:32:59Z</time>
      </trkpt>
      <trkpt lat="49.88763" lon="2.334">
        <ele>24.8</ele>
        <time>2023-10-06T12:33:00Z</time>
      </trkpt>
      <trkpt lat="49.88762" lon="2.33401">
        <ele>24.8</ele>
        <time>2023-10-06T12:33:01Z</time>
      </trkpt>
      <trkpt lat="49.88762" lon="2.33403">
        <ele>24.8</ele>
        <time>2023-10-06T12:33:02Z</time>
      </trkpt>
      <trkpt lat="49.88761" lon="2.33404">
        <ele>24.8</ele>
        <time>2023-10-06T12:33:03Z</time>
      </trkpt>
      <trkpt lat="49.8876" lon="2.33407">
        <ele>24.8</ele>
        <time>2023-10-06T12:33:04Z</time>
      </trkpt>
      <trkpt lat="49.88759" lon="2.33408">
        <ele>24.8</ele>
        <time>2023-10-06T12:33:05Z</time>
      </trkpt>
      <trkpt lat="49.88759" lon="2.33409">
        <ele>24.8</ele>
        <time>2023-10-06T12:33:06Z</time>
      </trkpt>
      <trkpt lat="49.88758" lon="2.33412">
        <ele>24.9</ele>
        <time>2023-10-06T12:33:07Z</time>
      </trkpt>
      <trkpt lat="49.88757" lon="2.33413">
        <ele>24.9</ele>
        <time>2023-10-06T12:33:08Z</time>
      </trkpt>
      <trkpt lat="49.88757" lon="2.33414">
        <ele>24.9</ele>
        <time>2023-10-06T12:33:09Z</time>
      </trkpt>
      <trkpt lat="49.88756" lon="2.33415">
        <ele>24.9</ele>
        <time>2023-10-06T12:33:10Z</time>
      </trkpt>
      <trkpt lat="49.88755" lon="2.33417">
        <ele>24.9</ele>
        <time>2023-10-06T12:33:11Z</time>
      </trkpt>
      <trkpt lat="49.88755" lon="2.33418">
        <ele>24.9</ele>
        <time>2023-10-06T12:33:12Z</time>
      </trkpt>
      <trkpt lat="49.88754" lon="2.3342">
        <ele>24.9</ele>
        <time>2023-10-06T12:33:13Z</time>
      </trkpt>
      <trkpt lat="49.88754" lon="2.33421">
        <ele>24.9</ele>
        <time>2023-10-06T12:33:14Z</time>
      </trkpt>
      <trkpt lat="49.88753" lon="2.33423">
        <ele>24.9</ele>
        <time>2023-10-06T12:33:15Z</time>
      </trkpt>
      <trkpt lat="49.88752" lon="2.33425">
        <ele>24.9</ele>
        <time>2023-10-06T12:33:16Z</time>
      </trkpt>
      <trkpt lat="49.88751" lon="2.33426">
        <ele>24.9</ele>
        <time>2023-10-06T12:33:17Z</time>
      </trkpt>
      <trkpt lat="49.88751" lon="2.33428">
        <ele>24.9</ele>
        <time>2023-10-06T12:33:18Z</time>
      </trkpt>
      <trkpt lat="49.8875" lon="2.3343">
        <ele>24.9</ele>
        <time>2023-10-06T12:33:19Z</time>
      </trkpt>
      <trkpt lat="49.88749" lon="2.33432">
        <ele>25</ele>
        <time>2023-10-06T12:33:20Z</time>
      </trkpt>
      <trkpt lat="49.88749" lon="2.33433">
        <ele>25</ele>
        <time>2023-10-06T12:33:21Z</time>
      </trkpt>
      <trkpt lat="49.88748" lon="2.33434">
        <ele>25</ele>
        <time>2023-10-06T12:33:22Z</time>
      </trkpt>
      <trkpt lat="49.88747" lon="2.33436">
        <ele>25</ele>
        <time>2023-10-06T12:33:23Z</time>
      </trkpt>
      <trkpt lat="49.88747" lon="2.33437">
        <ele>25</ele>
        <time>2023-10-06T12:33:24Z</time>
      </trkpt>
      <trkpt lat="49.88746" lon="2.33439">
        <ele>25</ele>
        <time>2023-10-06T12:33:25Z</time>
      </trkpt>
      <trkpt lat="49.88746" lon="2.3344">
        <ele>25</ele>
        <time>2023-10-06T12:33:26Z</time>
      </trkpt>
      <trkpt lat="49.88745" lon="2.33442">
        <ele>25</ele>
        <time>2023-10-06T12:33:27Z</time>
      </trkpt>
      <trkpt lat="49.88745" lon="2.33444">
        <ele>25</ele>
        <time>2023-10-06T12:33:28Z</time>
      </trkpt>
      <trkpt lat="49.88744" lon="2.33445">
        <ele>25.1</ele>
        <time>2023-10-06T12:33:29Z</time>
      </trkpt>
      <trkpt lat="49.88743" lon="2.33447">
        <ele>25.1</ele>
        <time>2023-10-06T12:33:30Z</time>
      </trkpt>
      <trkpt lat="49.88743" lon="2.33448">
        <ele>25.1</ele>
        <time>2023-10-06T12:33:31Z</time>
      </trkpt>
      <trkpt lat="49.88742" lon="2.3345">
        <ele>25.1</ele>
        <time>2023-10-06T12:33:32Z</time>
      </trkpt>
      <trkpt lat="49.88742" lon="2.33451">
        <ele>25.1</ele>
        <time>2023-10-06T12:33:33Z</time>
      </trkpt>
      <trkpt lat="49.88741" lon="2.33453">
        <ele>25.2</ele>
        <time>2023-10-06T12:33:34Z</time>
      </trkpt>
      <trkpt lat="49.88741" lon="2.33454">
        <ele>25.2</ele>
        <time>2023-10-06T12:33:35Z</time>
      </trkpt>
      <trkpt lat="49.8874" lon="2.33456">
        <ele>25.2</ele>
        <time>2023-10-06T12:33:36Z</time>
      </trkpt>
      <trkpt lat="49.8874" lon="2.33457">
        <ele>25.2</ele>
        <time>2023-10-06T12:33:37Z</time>
      </trkpt>
      <trkpt lat="49.88739" lon="2.33457">
        <ele>25.2</ele>
        <time>2023-10-06T12:33:38Z</time>
      </trkpt>
      <trkpt lat="49.88739" lon="2.33458">
        <ele>25.2</ele>
        <time>2023-10-06T12:33:39Z</time>
      </trkpt>
      <trkpt lat="49.88738" lon="2.33459">
        <ele>25.3</ele>
        <time>2023-10-06T12:33:40Z</time>
      </trkpt>
      <trkpt lat="49.88737" lon="2.3346">
        <ele>25.3</ele>
        <time>2023-10-06T12:33:41Z</time>
      </trkpt>
      <trkpt lat="49.88737" lon="2.33461">
        <ele>25.3</ele>
        <time>2023-10-06T12:33:42Z</time>
      </trkpt>
      <trkpt lat="49.88736" lon="2.33462">
        <ele>25.3</ele>
        <time>2023-10-06T12:33:43Z</time>
      </trkpt>
      <trkpt lat="49.88735" lon="2.33463">
        <ele>25.3</ele>
        <time>2023-10-06T12:33:44Z</time>
      </trkpt>
      <trkpt lat="49.88734" lon="2.33464">
        <ele>25.4</ele>
        <time>2023-10-06T12:33:45Z</time>
      </trkpt>
      <trkpt lat="49.88734" lon="2.33464">
        <ele>25.4</ele>
        <time>2023-10-06T12:33:46Z</time>
      </trkpt>
      <trkpt lat="49.88733" lon="2.33465">
        <ele>25.4</ele>
        <time>2023-10-06T12:33:47Z</time>
      </trkpt>
      <trkpt lat="49.88732" lon="2.33465">
        <ele>25.4</ele>
        <time>2023-10-06T12:33:48Z</time>
      </trkpt>
      <trkpt lat="49.88732" lon="2.33466">
        <ele>25.4</ele>
        <time>2023-10-06T12:33:49Z</time>
      </trkpt>
      <trkpt lat="49.88732" lon="2.33466">
        <ele>25.4</ele>
        <time>2023-10-06T12:33:50Z</time>
      </trkpt>
      <trkpt lat="49.88731" lon="2.33467">
        <ele>25.4</ele>
        <time>2023-10-06T12:33:51Z</time>
      </trkpt>
      <trkpt lat="49.88731" lon="2.33468">
        <ele>25.4</ele>
        <time>2023-10-06T12:33:52Z</time>
      </trkpt>
      <trkpt lat="49.88731" lon="2.33469">
        <ele>25.5</ele>
        <time>2023-10-06T12:33:53Z</time>
      </trkpt>
      <trkpt lat="49.88731" lon="2.33469">
        <ele>25.5</ele>
        <time>2023-10-06T12:33:54Z</time>
      </trkpt>
      <trkpt lat="49.88731" lon="2.3347">
        <ele>25.5</ele>
        <time>2023-10-06T12:33:55Z</time>
      </trkpt>
      <trkpt lat="49.88731" lon="2.33471">
        <ele>25.5</ele>
        <time>2023-10-06T12:33:56Z</time>
      </trkpt>
      <trkpt lat="49.88731" lon="2.33472">
        <ele>25.5</ele>
        <time>2023-10-06T12:33:57Z</time>
      </trkpt>
      <trkpt lat="49.88731" lon="2.33475">
        <ele>25.6</ele>
        <time>2023-10-06T12:33:58Z</time>
      </trkpt>
      <trkpt lat="49.88731" lon="2.33476">
        <ele>25.6</ele>
        <time>2023-10-06T12:33:59Z</time>
      </trkpt>
      <trkpt lat="49.88731" lon="2.33477">
        <ele>25.6</ele>
        <time>2023-10-06T12:34:00Z</time>
      </trkpt>
      <trkpt lat="49.88731" lon="2.33478">
        <ele>25.6</ele>
        <time>2023-10-06T12:34:01Z</time>
      </trkpt>
      <trkpt lat="49.88732" lon="2.3348">
        <ele>25.6</ele>
        <time>2023-10-06T12:34:02Z</time>
      </trkpt>
      <trkpt lat="49.88732" lon="2.33481">
        <ele>25.7</ele>
        <time>2023-10-06T12:34:03Z</time>
      </trkpt>
      <trkpt lat="49.88731" lon="2.33483">
        <ele>25.7</ele>
        <time>2023-10-06T12:34:04Z</time>
      </trkpt>
      <trkpt lat="49.8873" lon="2.33486">
        <ele>25.8</ele>
        <time>2023-10-06T12:34:05Z</time>
      </trkpt>
      <trkpt lat="49.8873" lon="2.33487">
        <ele>25.8</ele>
        <time>2023-10-06T12:34:06Z</time>
      </trkpt>
      <trkpt lat="49.88729" lon="2.33488">
        <ele>25.8</ele>
        <time>2023-10-06T12:34:07Z</time>
      </trkpt>
      <trkpt lat="49.88728" lon="2.33491">
        <ele>25.9</ele>
        <time>2023-10-06T12:34:08Z</time>
      </trkpt>
      <trkpt lat="49.88728" lon="2.33492">
        <ele>25.9</ele>
        <time>2023-10-06T12:34:09Z</time>
      </trkpt>
      <trkpt lat="49.88727" lon="2.33493">
        <ele>26</ele>
        <time>2023-10-06T12:34:10Z</time>
      </trkpt>
      <trkpt lat="49.88726" lon="2.33494">
        <ele>26</ele>
        <time>2023-10-06T12:34:11Z</time>
      </trkpt>
      <trkpt lat="49.88726" lon="2.33495">
        <ele>26</ele>
        <time>2023-10-06T12:34:12Z</time>
      </trkpt>
      <trkpt lat="49.88725" lon="2.33497">
        <ele>26.1</ele>
        <time>2023-10-06T12:34:13Z</time>
      </trkpt>
      <trkpt lat="49.88725" lon="2.33498">
        <ele>26.1</ele>
        <time>2023-10-06T12:34:14Z</time>
      </trkpt>
      <trkpt lat="49.88724" lon="2.33499">
        <ele>26.1</ele>
        <time>2023-10-06T12:34:15Z</time>
      </trkpt>
      <trkpt lat="49.88724" lon="2.335">
        <ele>26.2</ele>
        <time>2023-10-06T12:34:16Z</time>
      </trkpt>
      <trkpt lat="49.88723" lon="2.335">
        <ele>26.2</ele>
        <time>2023-10-06T12:34:17Z</time>
      </trkpt>
      <trkpt lat="49.88723" lon="2.33501">
        <ele>26.2</ele>
        <time>2023-10-06T12:34:18Z</time>
      </trkpt>
      <trkpt lat="49.88723" lon="2.33502">
        <ele>26.2</ele>
        <time>2023-10-06T12:34:19Z</time>
      </trkpt>
      <trkpt lat="49.88722" lon="2.33502">
        <ele>26.2</ele>
        <time>2023-10-06T12:34:20Z</time>
      </trkpt>
      <trkpt lat="49.88722" lon="2.33503">
        <ele>26.3</ele>
        <time>2023-10-06T12:34:21Z</time>
      </trkpt>
      <trkpt lat="49.88721" lon="2.33504">
        <ele>26.3</ele>
        <time>2023-10-06T12:34:22Z</time>
      </trkpt>
      <trkpt lat="49.88721" lon="2.33505">
        <ele>26.3</ele>
        <time>2023-10-06T12:34:23Z</time>
      </trkpt>
      <trkpt lat="49.8872" lon="2.33505">
        <ele>26.4</ele>
        <time>2023-10-06T12:34:24Z</time>
      </trkpt>
      <trkpt lat="49.8872" lon="2.33506">
        <ele>26.4</ele>
        <time>2023-10-06T12:34:25Z</time>
      </trkpt>
      <trkpt lat="49.8872" lon="2.33507">
        <ele>26.4</ele>
        <time>2023-10-06T12:34:26Z</time>
      </trkpt>
      <trkpt lat="49.88719" lon="2.33509">
        <ele>26.5</ele>
        <time>2023-10-06T12:34:27Z</time>
      </trkpt>
      <trkpt lat="49.88719" lon="2.3351">
        <ele>26.5</ele>
        <time>2023-10-06T12:34:28Z</time>
      </trkpt>
      <trkpt lat="49.88718" lon="2.33511">
        <ele>26.5</ele>
        <time>2023-10-06T12:34:29Z</time>
      </trkpt>
      <trkpt lat="49.88718" lon="2.33512">
        <ele>26.6</ele>
        <time>2023-10-06T12:34:30Z</time>
      </trkpt>
      <trkpt lat="49.88718" lon="2.33513">
        <ele>26.6</ele>
        <time>2023-10-06T12:34:31Z</time>
      </trkpt>
      <trkpt lat="49.88718" lon="2.33514">
        <ele>26.6</ele>
        <time>2023-10-06T12:34:32Z</time>
      </trkpt>
      <trkpt lat="49.88718" lon="2.33515">
        <ele>26.7</ele>
        <time>2023-10-06T12:34:33Z</time>
      </trkpt>
      <trkpt lat="49.88718" lon="2.33517">
        <ele>26.7</ele>
        <time>2023-10-06T12:34:34Z</time>
      </trkpt>
      <trkpt lat="49.88718" lon="2.33518">
        <ele>26.7</ele>
        <time>2023-10-06T12:34:35Z</time>
      </trkpt>
      <trkpt lat="49.88718" lon="2.3352">
        <ele>26.8</ele>
        <time>2023-10-06T12:34:36Z</time>
      </trkpt>
      <trkpt lat="49.88718" lon="2.33521">
        <ele>26.8</ele>
        <time>2023-10-06T12:34:37Z</time>
      </trkpt>
      <trkpt lat="49.88718" lon="2.33522">
        <ele>26.9</ele>
        <time>2023-10-06T12:34:38Z</time>
      </trkpt>
      <trkpt lat="49.88718" lon="2.33524">
        <ele>26.9</ele>
        <time>2023-10-06T12:34:39Z</time>
      </trkpt>
      <trkpt lat="49.88718" lon="2.33525">
        <ele>27</ele>
        <time>2023-10-06T12:34:40Z</time>
      </trkpt>
      <trkpt lat="49.88718" lon="2.33527">
        <ele>27</ele>
        <time>2023-10-06T12:34:41Z</time>
      </trkpt>
      <trkpt lat="49.88718" lon="2.33529">
        <ele>27.1</ele>
        <time>2023-10-06T12:34:42Z</time>
      </trkpt>
      <trkpt lat="49.88718" lon="2.3353">
        <ele>27.1</ele>
        <time>2023-10-06T12:34:43Z</time>
      </trkpt>
      <trkpt lat="49.88718" lon="2.33532">
        <ele>27.2</ele>
        <time>2023-10-06T12:34:44Z</time>
      </trkpt>
      <trkpt lat="49.88718" lon="2.33534">
        <ele>27.2</ele>
        <time>2023-10-06T12:34:45Z</time>
      </trkpt>
      <trkpt lat="49.88718" lon="2.33535">
        <ele>27.3</ele>
        <time>2023-10-06T12:34:46Z</time>
      </trkpt>
      <trkpt lat="49.88718" lon="2.33537">
        <ele>27.3</ele>
        <time>2023-10-06T12:34:47Z</time>
      </trkpt>
      <trkpt lat="49.88718" lon="2.33538">
        <ele>27.4</ele>
        <time>2023-10-06T12:34:48Z</time>
      </trkpt>
      <trkpt lat="49.88718" lon="2.3354">
        <ele>27.4</ele>
        <time>2023-10-06T12:34:49Z</time>
      </trkpt>
      <trkpt lat="49.88718" lon="2.33542">
        <ele>27.5</ele>
        <time>2023-10-06T12:34:50Z</time>
      </trkpt>
      <trkpt lat="49.88718" lon="2.33544">
        <ele>27.6</ele>
        <time>2023-10-06T12:34:51Z</time>
      </trkpt>
      <trkpt lat="49.88718" lon="2.33545">
        <ele>27.6</ele>
        <time>2023-10-06T12:34:52Z</time>
      </trkpt>
      <trkpt lat="49.88718" lon="2.33547">
        <ele>27.7</ele>
        <time>2023-10-06T12:34:53Z</time>
      </trkpt>
      <trkpt lat="49.88718" lon="2.33549">
        <ele>27.7</ele>
        <time>2023-10-06T12:34:54Z</time>
      </trkpt>
      <trkpt lat="49.88718" lon="2.3355">
        <ele>27.8</ele>
        <time>2023-10-06T12:34:55Z</time>
      </trkpt>
      <trkpt lat="49.88718" lon="2.33552">
        <ele>27.8</ele>
        <time>2023-10-06T12:34:56Z</time>
      </trkpt>
      <trkpt lat="49.88718" lon="2.33553">
        <ele>27.9</ele>
        <time>2023-10-06T12:34:57Z</time>
      </trkpt>
      <trkpt lat="49.88718" lon="2.33555">
        <ele>27.9</ele>
        <time>2023-10-06T12:34:58Z</time>
      </trkpt>
      <trkpt lat="49.88718" lon="2.33556">
        <ele>27.9</ele>
        <time>2023-10-06T12:34:59Z</time>
      </trkpt>
      <trkpt lat="49.88718" lon="2.33558">
        <ele>28</ele>
        <time>2023-10-06T12:35:00Z</time>
      </trkpt>
      <trkpt lat="49.88718" lon="2.33559">
        <ele>28</ele>
        <time>2023-10-06T12:35:01Z</time>
      </trkpt>
      <trkpt lat="49.88718" lon="2.3356">
        <ele>28.1</ele>
        <time>2023-10-06T12:35:02Z</time>
      </trkpt>
      <trkpt lat="49.88718" lon="2.33561">
        <ele>28.1</ele>
        <time>2023-10-06T12:35:03Z</time>
      </trkpt>
      <trkpt lat="49.88718" lon="2.33562">
        <ele>28.1</ele>
        <time>2023-10-06T12:35:04Z</time>
      </trkpt>
      <trkpt lat="49.88718" lon="2.33563">
        <ele>28.2</ele>
        <time>2023-10-06T12:35:05Z</time>
      </trkpt>
      <trkpt lat="49.88719" lon="2.33564">
        <ele>28.2</ele>
        <time>2023-10-06T12:35:06Z</time>
      </trkpt>
      <trkpt lat="49.88719" lon="2.33565">
        <ele>28.2</ele>
        <time>2023-10-06T12:35:07Z</time>
      </trkpt>
      <trkpt lat="49.88719" lon="2.33566">
        <ele>28.2</ele>
        <time>2023-10-06T12:35:08Z</time>
      </trkpt>
      <trkpt lat="49.8872" lon="2.33567">
        <ele>28.2</ele>
        <time>2023-10-06T12:35:09Z</time>
      </trkpt>
      <trkpt lat="49.88721" lon="2.33568">
        <ele>28.2</ele>
        <time>2023-10-06T12:35:10Z</time>
      </trkpt>
      <trkpt lat="49.88721" lon="2.33569">
        <ele>28.2</ele>
        <time>2023-10-06T12:35:11Z</time>
      </trkpt>
      <trkpt lat="49.88722" lon="2.3357">
        <ele>28.2</ele>
        <time>2023-10-06T12:35:12Z</time>
      </trkpt>
      <trkpt lat="49.88722" lon="2.33571">
        <ele>28.2</ele>
        <time>2023-10-06T12:35:13Z</time>
      </trkpt>
      <trkpt lat="49.88723" lon="2.33572">
        <ele>28.3</ele>
        <time>2023-10-06T12:35:14Z</time>
      </trkpt>
      <trkpt lat="49.88723" lon="2.33573">
        <ele>28.3</ele>
        <time>2023-10-06T12:35:15Z</time>
      </trkpt>
      <trkpt lat="49.88724" lon="2.33573">
        <ele>28.3</ele>
        <time>2023-10-06T12:35:16Z</time>
      </trkpt>
      <trkpt lat="49.88724" lon="2.33574">
        <ele>28.3</ele>
        <time>2023-10-06T12:35:17Z</time>
      </trkpt>
      <trkpt lat="49.88725" lon="2.33575">
        <ele>28.3</ele>
        <time>2023-10-06T12:35:18Z</time>
      </trkpt>
      <trkpt lat="49.88726" lon="2.33576">
        <ele>28.3</ele>
        <time>2023-10-06T12:35:19Z</time>
      </trkpt>
      <trkpt lat="49.88726" lon="2.33577">
        <ele>28.3</ele>
        <time>2023-10-06T12:35:20Z</time>
      </trkpt>
      <trkpt lat="49.88727" lon="2.33578">
        <ele>28.3</ele>
        <time>2023-10-06T12:35:21Z</time>
      </trkpt>
      <trkpt lat="49.88728" lon="2.33579">
        <ele>28.3</ele>
        <time>2023-10-06T12:35:22Z</time>
      </trkpt>
      <trkpt lat="49.88728" lon="2.3358">
        <ele>28.3</ele>
        <time>2023-10-06T12:35:23Z</time>
      </trkpt>
      <trkpt lat="49.88729" lon="2.33581">
        <ele>28.3</ele>
        <time>2023-10-06T12:35:24Z</time>
      </trkpt>
      <trkpt lat="49.8873" lon="2.33582">
        <ele>28.3</ele>
        <time>2023-10-06T12:35:25Z</time>
      </trkpt>
      <trkpt lat="49.88731" lon="2.33583">
        <ele>28.3</ele>
        <time>2023-10-06T12:35:26Z</time>
      </trkpt>
      <trkpt lat="49.88731" lon="2.33584">
        <ele>28.3</ele>
        <time>2023-10-06T12:35:27Z</time>
      </trkpt>
      <trkpt lat="49.88732" lon="2.33585">
        <ele>28.3</ele>
        <time>2023-10-06T12:35:28Z</time>
      </trkpt>
      <trkpt lat="49.88733" lon="2.33586">
        <ele>28.3</ele>
        <time>2023-10-06T12:35:29Z</time>
      </trkpt>
      <trkpt lat="49.88733" lon="2.33586">
        <ele>28.3</ele>
        <time>2023-10-06T12:35:30Z</time>
      </trkpt>
      <trkpt lat="49.88734" lon="2.33587">
        <ele>28.3</ele>
        <time>2023-10-06T12:35:31Z</time>
      </trkpt>
      <trkpt lat="49.88734" lon="2.33588">
        <ele>28.3</ele>
        <time>2023-10-06T12:35:32Z</time>
      </trkpt>
      <trkpt lat="49.88735" lon="2.33588">
        <ele>28.3</ele>
        <time>2023-10-06T12:35:33Z</time>
      </trkpt>
      <trkpt lat="49.88735" lon="2.33589">
        <ele>28.3</ele>
        <time>2023-10-06T12:35:34Z</time>
      </trkpt>
      <trkpt lat="49.88736" lon="2.3359">
        <ele>28.3</ele>
        <time>2023-10-06T12:35:35Z</time>
      </trkpt>
      <trkpt lat="49.88737" lon="2.33592">
        <ele>28.1</ele>
        <time>2023-10-06T12:35:36Z</time>
      </trkpt>
      <trkpt lat="49.88738" lon="2.33592">
        <ele>28.1</ele>
        <time>2023-10-06T12:35:37Z</time>
      </trkpt>
      <trkpt lat="49.88738" lon="2.33593">
        <ele>28.1</ele>
        <time>2023-10-06T12:35:38Z</time>
      </trkpt>
      <trkpt lat="49.88739" lon="2.33594">
        <ele>28.1</ele>
        <time>2023-10-06T12:35:39Z</time>
      </trkpt>
      <trkpt lat="49.88739" lon="2.33595">
        <ele>28.1</ele>
        <time>2023-10-06T12:35:40Z</time>
      </trkpt>
      <trkpt lat="49.8874" lon="2.33596">
        <ele>28.1</ele>
        <time>2023-10-06T12:35:41Z</time>
      </trkpt>
      <trkpt lat="49.88741" lon="2.33597">
        <ele>28.1</ele>
        <time>2023-10-06T12:35:42Z</time>
      </trkpt>
      <trkpt lat="49.88741" lon="2.33598">
        <ele>28.1</ele>
        <time>2023-10-06T12:35:43Z</time>
      </trkpt>
      <trkpt lat="49.88742" lon="2.33599">
        <ele>28.1</ele>
        <time>2023-10-06T12:35:44Z</time>
      </trkpt>
      <trkpt lat="49.88742" lon="2.336">
        <ele>28.1</ele>
        <time>2023-10-06T12:35:45Z</time>
      </trkpt>
      <trkpt lat="49.88743" lon="2.33601">
        <ele>28.1</ele>
        <time>2023-10-06T12:35:46Z</time>
      </trkpt>
      <trkpt lat="49.88744" lon="2.33603">
        <ele>27.5</ele>
        <time>2023-10-06T12:35:47Z</time>
      </trkpt>
      <trkpt lat="49.88744" lon="2.33604">
        <ele>27.5</ele>
        <time>2023-10-06T12:35:48Z</time>
      </trkpt>
      <trkpt lat="49.88745" lon="2.33605">
        <ele>27.5</ele>
        <time>2023-10-06T12:35:49Z</time>
      </trkpt>
      <trkpt lat="49.88746" lon="2.33606">
        <ele>27.5</ele>
        <time>2023-10-06T12:35:50Z</time>
      </trkpt>
      <trkpt lat="49.88746" lon="2.33607">
        <ele>27.5</ele>
        <time>2023-10-06T12:35:51Z</time>
      </trkpt>
      <trkpt lat="49.88747" lon="2.33609">
        <ele>27.5</ele>
        <time>2023-10-06T12:35:52Z</time>
      </trkpt>
      <trkpt lat="49.88748" lon="2.3361">
        <ele>27.5</ele>
        <time>2023-10-06T12:35:53Z</time>
      </trkpt>
      <trkpt lat="49.88748" lon="2.33611">
        <ele>27.5</ele>
        <time>2023-10-06T12:35:54Z</time>
      </trkpt>
      <trkpt lat="49.88749" lon="2.33612">
        <ele>27.5</ele>
        <time>2023-10-06T12:35:55Z</time>
      </trkpt>
      <trkpt lat="49.88749" lon="2.33613">
        <ele>27.5</ele>
        <time>2023-10-06T12:35:56Z</time>
      </trkpt>
      <trkpt lat="49.8875" lon="2.33614">
        <ele>27.5</ele>
        <time>2023-10-06T12:35:57Z</time>
      </trkpt>
      <trkpt lat="49.88749" lon="2.33615">
        <ele>26.4</ele>
        <time>2023-10-06T12:35:58Z</time>
      </trkpt>
      <trkpt lat="49.8875" lon="2.33615">
        <ele>26.4</ele>
        <time>2023-10-06T12:35:59Z</time>
      </trkpt>
      <trkpt lat="49.8875" lon="2.33616">
        <ele>26.4</ele>
        <time>2023-10-06T12:36:00Z</time>
      </trkpt>
      <trkpt lat="49.8875" lon="2.33616">
        <ele>26.4</ele>
        <time>2023-10-06T12:36:01Z</time>
      </trkpt>
      <trkpt lat="49.8875" lon="2.33617">
        <ele>26.4</ele>
        <time>2023-10-06T12:36:02Z</time>
      </trkpt>
      <trkpt lat="49.8875" lon="2.33617">
        <ele>26.4</ele>
        <time>2023-10-06T12:36:03Z</time>
      </trkpt>
      <trkpt lat="49.88751" lon="2.33618">
        <ele>26.4</ele>
        <time>2023-10-06T12:36:04Z</time>
      </trkpt>
      <trkpt lat="49.88751" lon="2.33619">
        <ele>26.4</ele>
        <time>2023-10-06T12:36:05Z</time>
      </trkpt>
      <trkpt lat="49.88751" lon="2.3362">
        <ele>26.4</ele>
        <time>2023-10-06T12:36:06Z</time>
      </trkpt>
      <trkpt lat="49.88751" lon="2.33621">
        <ele>26.3</ele>
        <time>2023-10-06T12:36:07Z</time>
      </trkpt>
      <trkpt lat="49.88751" lon="2.33622">
        <ele>26.3</ele>
        <time>2023-10-06T12:36:08Z</time>
      </trkpt>
      <trkpt lat="49.88752" lon="2.33623">
        <ele>26.3</ele>
        <time>2023-10-06T12:36:09Z</time>
      </trkpt>
      <trkpt lat="49.88752" lon="2.33623">
        <ele>26.3</ele>
        <time>2023-10-06T12:36:10Z</time>
      </trkpt>
      <trkpt lat="49.88753" lon="2.33623">
        <ele>26.3</ele>
        <time>2023-10-06T12:36:11Z</time>
      </trkpt>
      <trkpt lat="49.88754" lon="2.33622">
        <ele>26.2</ele>
        <time>2023-10-06T12:36:12Z</time>
      </trkpt>
      <trkpt lat="49.88754" lon="2.33621">
        <ele>26.2</ele>
        <time>2023-10-06T12:36:13Z</time>
      </trkpt>
      <trkpt lat="49.88754" lon="2.3362">
        <ele>26.2</ele>
        <time>2023-10-06T12:36:14Z</time>
      </trkpt>
      <trkpt lat="49.88754" lon="2.33619">
        <ele>26.2</ele>
        <time>2023-10-06T12:36:15Z</time>
      </trkpt>
      <trkpt lat="49.88753" lon="2.33618">
        <ele>26.2</ele>
        <time>2023-10-06T12:36:16Z</time>
      </trkpt>
      <trkpt lat="49.88753" lon="2.33617">
        <ele>26.1</ele>
        <time>2023-10-06T12:36:17Z</time>
      </trkpt>
      <trkpt lat="49.88752" lon="2.33616">
        <ele>26.1</ele>
        <time>2023-10-06T12:36:18Z</time>
      </trkpt>
      <trkpt lat="49.88752" lon="2.33614">
        <ele>26.1</ele>
        <time>2023-10-06T12:36:19Z</time>
      </trkpt>
      <trkpt lat="49.88751" lon="2.33613">
        <ele>26.1</ele>
        <time>2023-10-06T12:36:20Z</time>
      </trkpt>
      <trkpt lat="49.8875" lon="2.33612">
        <ele>26</ele>
        <time>2023-10-06T12:36:21Z</time>
      </trkpt>
      <trkpt lat="49.8875" lon="2.33611">
        <ele>26</ele>
        <time>2023-10-06T12:36:22Z</time>
      </trkpt>
      <trkpt lat="49.88749" lon="2.3361">
        <ele>26</ele>
        <time>2023-10-06T12:36:23Z</time>
      </trkpt>
      <trkpt lat="49.88749" lon="2.33609">
        <ele>26</ele>
        <time>2023-10-06T12:36:24Z</time>
      </trkpt>
      <trkpt lat="49.88748" lon="2.33607">
        <ele>25.9</ele>
        <time>2023-10-06T12:36:25Z</time>
      </trkpt>
      <trkpt lat="49.88748" lon="2.33606">
        <ele>25.9</ele>
        <time>2023-10-06T12:36:26Z</time>
      </trkpt>
      <trkpt lat="49.88747" lon="2.33605">
        <ele>25.9</ele>
        <time>2023-10-06T12:36:27Z</time>
      </trkpt>
      <trkpt lat="49.88746" lon="2.33604">
        <ele>25.9</ele>
        <time>2023-10-06T12:36:28Z</time>
      </trkpt>
      <trkpt lat="49.88746" lon="2.33603">
        <ele>25.8</ele>
        <time>2023-10-06T12:36:29Z</time>
      </trkpt>
      <trkpt lat="49.88745" lon="2.33602">
        <ele>25.8</ele>
        <time>2023-10-06T12:36:30Z</time>
      </trkpt>
      <trkpt lat="49.88745" lon="2.336">
        <ele>25.6</ele>
        <time>2023-10-06T12:36:31Z</time>
      </trkpt>
      <trkpt lat="49.88744" lon="2.33599">
        <ele>25.6</ele>
        <time>2023-10-06T12:36:32Z</time>
      </trkpt>
      <trkpt lat="49.88744" lon="2.33598">
        <ele>25.6</ele>
        <time>2023-10-06T12:36:33Z</time>
      </trkpt>
      <trkpt lat="49.88743" lon="2.33597">
        <ele>25.6</ele>
        <time>2023-10-06T12:36:34Z</time>
      </trkpt>
      <trkpt lat="49.88742" lon="2.33597">
        <ele>25.5</ele>
        <time>2023-10-06T12:36:35Z</time>
      </trkpt>
      <trkpt lat="49.88741" lon="2.33598">
        <ele>25.5</ele>
        <time>2023-10-06T12:36:36Z</time>
      </trkpt>
      <trkpt lat="49.8874" lon="2.33599">
        <ele>25.5</ele>
        <time>2023-10-06T12:36:37Z</time>
      </trkpt>
      <trkpt lat="49.88739" lon="2.33599">
        <ele>25.5</ele>
        <time>2023-10-06T12:36:38Z</time>
      </trkpt>
      <trkpt lat="49.88739" lon="2.336">
        <ele>25.5</ele>
        <time>2023-10-06T12:36:39Z</time>
      </trkpt>
      <trkpt lat="49.88738" lon="2.336">
        <ele>25.5</ele>
        <time>2023-10-06T12:36:40Z</time>
      </trkpt>
      <trkpt lat="49.88737" lon="2.33601">
        <ele>25.5</ele>
        <time>2023-10-06T12:36:41Z</time>
      </trkpt>
      <trkpt lat="49.88736" lon="2.33602">
        <ele>25.5</ele>
        <time>2023-10-06T12:36:42Z</time>
      </trkpt>
      <trkpt lat="49.88736" lon="2.33603">
        <ele>25.5</ele>
        <time>2023-10-06T12:36:43Z</time>
      </trkpt>
      <trkpt lat="49.88735" lon="2.33604">
        <ele>25.5</ele>
        <time>2023-10-06T12:36:44Z</time>
      </trkpt>
      <trkpt lat="49.88734" lon="2.33605">
        <ele>25.5</ele>
        <time>2023-10-06T12:36:45Z</time>
      </trkpt>
      <trkpt lat="49.88733" lon="2.33606">
        <ele>25.5</ele>
        <time>2023-10-06T12:36:46Z</time>
      </trkpt>
      <trkpt lat="49.88732" lon="2.33607">
        <ele>25.5</ele>
        <time>2023-10-06T12:36:47Z</time>
      </trkpt>
      <trkpt lat="49.88731" lon="2.33608">
        <ele>25.5</ele>
        <time>2023-10-06T12:36:48Z</time>
      </trkpt>
      <trkpt lat="49.88731" lon="2.33609">
        <ele>25.5</ele>
        <time>2023-10-06T12:36:49Z</time>
      </trkpt>
      <trkpt lat="49.8873" lon="2.3361">
        <ele>25.5</ele>
        <time>2023-10-06T12:36:50Z</time>
      </trkpt>
      <trkpt lat="49.88729" lon="2.3361">
        <ele>25.5</ele>
        <time>2023-10-06T12:36:51Z</time>
      </trkpt>
      <trkpt lat="49.88728" lon="2.33611">
        <ele>25.5</ele>
        <time>2023-10-06T12:36:52Z</time>
      </trkpt>
      <trkpt lat="49.88728" lon="2.33611">
        <ele>25.5</ele>
        <time>2023-10-06T12:36:53Z</time>
      </trkpt>
      <trkpt lat="49.88727" lon="2.33612">
        <ele>25.5</ele>
        <time>2023-10-06T12:36:54Z</time>
      </trkpt>
      <trkpt lat="49.88726" lon="2.33613">
        <ele>25.5</ele>
        <time>2023-10-06T12:36:55Z</time>
      </trkpt>
      <trkpt lat="49.88725" lon="2.33614">
        <ele>25.5</ele>
        <time>2023-10-06T12:36:56Z</time>
      </trkpt>
      <trkpt lat="49.88724" lon="2.33615">
        <ele>25.5</ele>
        <time>2023-10-06T12:36:57Z</time>
      </trkpt>
      <trkpt lat="49.88723" lon="2.33616">
        <ele>25.5</ele>
        <time>2023-10-06T12:36:58Z</time>
      </trkpt>
      <trkpt lat="49.88722" lon="2.33617">
        <ele>25.5</ele>
        <time>2023-10-06T12:36:59Z</time>
      </trkpt>
      <trkpt lat="49.88721" lon="2.33618">
        <ele>25.5</ele>
        <time>2023-10-06T12:37:00Z</time>
      </trkpt>
      <trkpt lat="49.88721" lon="2.33619">
        <ele>25.5</ele>
        <time>2023-10-06T12:37:01Z</time>
      </trkpt>
      <trkpt lat="49.8872" lon="2.3362">
        <ele>25.5</ele>
        <time>2023-10-06T12:37:02Z</time>
      </trkpt>
      <trkpt lat="49.88719" lon="2.33621">
        <ele>25.5</ele>
        <time>2023-10-06T12:37:03Z</time>
      </trkpt>
      <trkpt lat="49.88718" lon="2.33622">
        <ele>25.5</ele>
        <time>2023-10-06T12:37:04Z</time>
      </trkpt>
      <trkpt lat="49.88718" lon="2.33623">
        <ele>25.5</ele>
        <time>2023-10-06T12:37:05Z</time>
      </trkpt>
      <trkpt lat="49.88717" lon="2.33624">
        <ele>25.5</ele>
        <time>2023-10-06T12:37:06Z</time>
      </trkpt>
      <trkpt lat="49.88716" lon="2.33625">
        <ele>25.5</ele>
        <time>2023-10-06T12:37:07Z</time>
      </trkpt>
      <trkpt lat="49.88715" lon="2.33626">
        <ele>25.5</ele>
        <time>2023-10-06T12:37:08Z</time>
      </trkpt>
      <trkpt lat="49.88714" lon="2.33627">
        <ele>25.5</ele>
        <time>2023-10-06T12:37:09Z</time>
      </trkpt>
      <trkpt lat="49.88714" lon="2.33628">
        <ele>25.5</ele>
        <time>2023-10-06T12:37:10Z</time>
      </trkpt>
      <trkpt lat="49.88713" lon="2.33629">
        <ele>25.5</ele>
        <time>2023-10-06T12:37:11Z</time>
      </trkpt>
      <trkpt lat="49.88712" lon="2.3363">
        <ele>25.5</ele>
        <time>2023-10-06T12:37:12Z</time>
      </trkpt>
      <trkpt lat="49.88712" lon="2.33631">
        <ele>25.5</ele>
        <time>2023-10-06T12:37:13Z</time>
      </trkpt>
      <trkpt lat="49.88711" lon="2.33631">
        <ele>25.5</ele>
        <time>2023-10-06T12:37:14Z</time>
      </trkpt>
      <trkpt lat="49.8871" lon="2.33632">
        <ele>25.5</ele>
        <time>2023-10-06T12:37:15Z</time>
      </trkpt>
      <trkpt lat="49.8871" lon="2.33632">
        <ele>25.5</ele>
        <time>2023-10-06T12:37:16Z</time>
      </trkpt>
      <trkpt lat="49.88709" lon="2.33633">
        <ele>25.5</ele>
        <time>2023-10-06T12:37:17Z</time>
      </trkpt>
      <trkpt lat="49.88709" lon="2.33634">
        <ele>25.5</ele>
        <time>2023-10-06T12:37:18Z</time>
      </trkpt>
      <trkpt lat="49.88708" lon="2.33635">
        <ele>25.5</ele>
        <time>2023-10-06T12:37:19Z</time>
      </trkpt>
      <trkpt lat="49.88708" lon="2.33636">
        <ele>25.5</ele>
        <time>2023-10-06T12:37:20Z</time>
      </trkpt>
      <trkpt lat="49.88707" lon="2.33636">
        <ele>25.5</ele>
        <time>2023-10-06T12:37:21Z</time>
      </trkpt>
      <trkpt lat="49.88707" lon="2.33637">
        <ele>25.5</ele>
        <time>2023-10-06T12:37:22Z</time>
      </trkpt>
      <trkpt lat="49.88706" lon="2.33638">
        <ele>25.5</ele>
        <time>2023-10-06T12:37:23Z</time>
      </trkpt>
      <trkpt lat="49.88705" lon="2.33639">
        <ele>25.5</ele>
        <time>2023-10-06T12:37:24Z</time>
      </trkpt>
      <trkpt lat="49.88704" lon="2.33639">
        <ele>25.5</ele>
        <time>2023-10-06T12:37:25Z</time>
      </trkpt>
      <trkpt lat="49.88703" lon="2.3364">
        <ele>25.5</ele>
        <time>2023-10-06T12:37:26Z</time>
      </trkpt>
      <trkpt lat="49.88703" lon="2.3364">
        <ele>25.5</ele>
        <time>2023-10-06T12:37:27Z</time>
      </trkpt>
      <trkpt lat="49.88702" lon="2.33641">
        <ele>25.4</ele>
        <time>2023-10-06T12:37:28Z</time>
      </trkpt>
      <trkpt lat="49.88701" lon="2.33642">
        <ele>25.4</ele>
        <time>2023-10-06T12:37:29Z</time>
      </trkpt>
      <trkpt lat="49.887" lon="2.33643">
        <ele>25.4</ele>
        <time>2023-10-06T12:37:30Z</time>
      </trkpt>
      <trkpt lat="49.88699" lon="2.33644">
        <ele>25.4</ele>
        <time>2023-10-06T12:37:31Z</time>
      </trkpt>
      <trkpt lat="49.88698" lon="2.33645">
        <ele>25.4</ele>
        <time>2023-10-06T12:37:32Z</time>
      </trkpt>
      <trkpt lat="49.88697" lon="2.33646">
        <ele>25.4</ele>
        <time>2023-10-06T12:37:33Z</time>
      </trkpt>
      <trkpt lat="49.88697" lon="2.33647">
        <ele>25.4</ele>
        <time>2023-10-06T12:37:34Z</time>
      </trkpt>
      <trkpt lat="49.88696" lon="2.33648">
        <ele>25.4</ele>
        <time>2023-10-06T12:37:35Z</time>
      </trkpt>
      <trkpt lat="49.88695" lon="2.33649">
        <ele>25.3</ele>
        <time>2023-10-06T12:37:36Z</time>
      </trkpt>
      <trkpt lat="49.88693" lon="2.33651">
        <ele>25.3</ele>
        <time>2023-10-06T12:37:37Z</time>
      </trkpt>
      <trkpt lat="49.88692" lon="2.33652">
        <ele>25.3</ele>
        <time>2023-10-06T12:37:38Z</time>
      </trkpt>
      <trkpt lat="49.88692" lon="2.33653">
        <ele>25.3</ele>
        <time>2023-10-06T12:37:39Z</time>
      </trkpt>
      <trkpt lat="49.88691" lon="2.33655">
        <ele>25.3</ele>
        <time>2023-10-06T12:37:40Z</time>
      </trkpt>
      <trkpt lat="49.8869" lon="2.33656">
        <ele>25.3</ele>
        <time>2023-10-06T12:37:41Z</time>
      </trkpt>
      <trkpt lat="49.88688" lon="2.33659">
        <ele>25.3</ele>
        <time>2023-10-06T12:37:42Z</time>
      </trkpt>
      <trkpt lat="49.88688" lon="2.3366">
        <ele>25.3</ele>
        <time>2023-10-06T12:37:43Z</time>
      </trkpt>
      <trkpt lat="49.88687" lon="2.33661">
        <ele>25.3</ele>
        <time>2023-10-06T12:37:44Z</time>
      </trkpt>
      <trkpt lat="49.88686" lon="2.33662">
        <ele>25.3</ele>
        <time>2023-10-06T12:37:45Z</time>
      </trkpt>
      <trkpt lat="49.88686" lon="2.33663">
        <ele>25.2</ele>
        <time>2023-10-06T12:37:46Z</time>
      </trkpt>
      <trkpt lat="49.88685" lon="2.33664">
        <ele>25.2</ele>
        <time>2023-10-06T12:37:47Z</time>
      </trkpt>
      <trkpt lat="49.88684" lon="2.33666">
        <ele>25.2</ele>
        <time>2023-10-06T12:37:48Z</time>
      </trkpt>
      <trkpt lat="49.88683" lon="2.33666">
        <ele>25.2</ele>
        <time>2023-10-06T12:37:49Z</time>
      </trkpt>
      <trkpt lat="49.88682" lon="2.33667">
        <ele>25.2</ele>
        <time>2023-10-06T12:37:50Z</time>
      </trkpt>
      <trkpt lat="49.88682" lon="2.33668">
        <ele>25.2</ele>
        <time>2023-10-06T12:37:51Z</time>
      </trkpt>
      <trkpt lat="49.88681" lon="2.33669">
        <ele>25.2</ele>
        <time>2023-10-06T12:37:52Z</time>
      </trkpt>
      <trkpt lat="49.8868" lon="2.3367">
        <ele>25.2</ele>
        <time>2023-10-06T12:37:53Z</time>
      </trkpt>
      <trkpt lat="49.88679" lon="2.33671">
        <ele>25.2</ele>
        <time>2023-10-06T12:37:54Z</time>
      </trkpt>
      <trkpt lat="49.88678" lon="2.33672">
        <ele>25.2</ele>
        <time>2023-10-06T12:37:55Z</time>
      </trkpt>
      <trkpt lat="49.88678" lon="2.33673">
        <ele>25.2</ele>
        <time>2023-10-06T12:37:56Z</time>
      </trkpt>
      <trkpt lat="49.88677" lon="2.33674">
        <ele>25.2</ele>
        <time>2023-10-06T12:37:57Z</time>
      </trkpt>
      <trkpt lat="49.88676" lon="2.33675">
        <ele>25.2</ele>
        <time>2023-10-06T12:37:58Z</time>
      </trkpt>
      <trkpt lat="49.88675" lon="2.33677">
        <ele>25.2</ele>
        <time>2023-10-06T12:37:59Z</time>
      </trkpt>
      <trkpt lat="49.88674" lon="2.33678">
        <ele>25.2</ele>
        <time>2023-10-06T12:38:00Z</time>
      </trkpt>
      <trkpt lat="49.88673" lon="2.33679">
        <ele>25.2</ele>
        <time>2023-10-06T12:38:01Z</time>
      </trkpt>
      <trkpt lat="49.88672" lon="2.3368">
        <ele>25.2</ele>
        <time>2023-10-06T12:38:02Z</time>
      </trkpt>
      <trkpt lat="49.88671" lon="2.33682">
        <ele>25.1</ele>
        <time>2023-10-06T12:38:03Z</time>
      </trkpt>
      <trkpt lat="49.8867" lon="2.33683">
        <ele>25.1</ele>
        <time>2023-10-06T12:38:04Z</time>
      </trkpt>
      <trkpt lat="49.8867" lon="2.33684">
        <ele>25.1</ele>
        <time>2023-10-06T12:38:05Z</time>
      </trkpt>
      <trkpt lat="49.88669" lon="2.33685">
        <ele>25.1</ele>
        <time>2023-10-06T12:38:06Z</time>
      </trkpt>
      <trkpt lat="49.88668" lon="2.33686">
        <ele>25.1</ele>
        <time>2023-10-06T12:38:07Z</time>
      </trkpt>
      <trkpt lat="49.88667" lon="2.33687">
        <ele>25.1</ele>
        <time>2023-10-06T12:38:08Z</time>
      </trkpt>
      <trkpt lat="49.88666" lon="2.33689">
        <ele>25.1</ele>
        <time>2023-10-06T12:38:09Z</time>
      </trkpt>
      <trkpt lat="49.88665" lon="2.3369">
        <ele>25.1</ele>
        <time>2023-10-06T12:38:10Z</time>
      </trkpt>
      <trkpt lat="49.88665" lon="2.33691">
        <ele>25.1</ele>
        <time>2023-10-06T12:38:11Z</time>
      </trkpt>
      <trkpt lat="49.88663" lon="2.33693">
        <ele>25.1</ele>
        <time>2023-10-06T12:38:12Z</time>
      </trkpt>
      <trkpt lat="49.88662" lon="2.33694">
        <ele>25.1</ele>
        <time>2023-10-06T12:38:13Z</time>
      </trkpt>
      <trkpt lat="49.88662" lon="2.33695">
        <ele>25.1</ele>
        <time>2023-10-06T12:38:14Z</time>
      </trkpt>
      <trkpt lat="49.88661" lon="2.33696">
        <ele>25.1</ele>
        <time>2023-10-06T12:38:15Z</time>
      </trkpt>
      <trkpt lat="49.8866" lon="2.33698">
        <ele>25.1</ele>
        <time>2023-10-06T12:38:16Z</time>
      </trkpt>
      <trkpt lat="49.88659" lon="2.33699">
        <ele>25.1</ele>
        <time>2023-10-06T12:38:17Z</time>
      </trkpt>
      <trkpt lat="49.88658" lon="2.337">
        <ele>25.1</ele>
        <time>2023-10-06T12:38:18Z</time>
      </trkpt>
      <trkpt lat="49.88658" lon="2.33701">
        <ele>25.1</ele>
        <time>2023-10-06T12:38:19Z</time>
      </trkpt>
      <trkpt lat="49.88657" lon="2.33702">
        <ele>25.1</ele>
        <time>2023-10-06T12:38:20Z</time>
      </trkpt>
      <trkpt lat="49.88656" lon="2.33703">
        <ele>25.1</ele>
        <time>2023-10-06T12:38:21Z</time>
      </trkpt>
      <trkpt lat="49.88655" lon="2.33704">
        <ele>25.1</ele>
        <time>2023-10-06T12:38:22Z</time>
      </trkpt>
      <trkpt lat="49.88654" lon="2.33705">
        <ele>25.1</ele>
        <time>2023-10-06T12:38:23Z</time>
      </trkpt>
      <trkpt lat="49.88654" lon="2.33706">
        <ele>25.1</ele>
        <time>2023-10-06T12:38:24Z</time>
      </trkpt>
      <trkpt lat="49.88653" lon="2.33707">
        <ele>25.1</ele>
        <time>2023-10-06T12:38:25Z</time>
      </trkpt>
      <trkpt lat="49.88652" lon="2.33708">
        <ele>25.1</ele>
        <time>2023-10-06T12:38:26Z</time>
      </trkpt>
      <trkpt lat="49.8865" lon="2.33709">
        <ele>25.1</ele>
        <time>2023-10-06T12:38:27Z</time>
      </trkpt>
      <trkpt lat="49.88649" lon="2.3371">
        <ele>25.1</ele>
        <time>2023-10-06T12:38:28Z</time>
      </trkpt>
      <trkpt lat="49.88648" lon="2.33711">
        <ele>25.2</ele>
        <time>2023-10-06T12:38:29Z</time>
      </trkpt>
      <trkpt lat="49.88648" lon="2.33711">
        <ele>25.2</ele>
        <time>2023-10-06T12:38:30Z</time>
      </trkpt>
      <trkpt lat="49.88647" lon="2.33712">
        <ele>25.2</ele>
        <time>2023-10-06T12:38:31Z</time>
      </trkpt>
      <trkpt lat="49.88646" lon="2.33713">
        <ele>25.2</ele>
        <time>2023-10-06T12:38:32Z</time>
      </trkpt>
      <trkpt lat="49.88645" lon="2.33714">
        <ele>25.2</ele>
        <time>2023-10-06T12:38:33Z</time>
      </trkpt>
      <trkpt lat="49.88644" lon="2.33715">
        <ele>25.2</ele>
        <time>2023-10-06T12:38:34Z</time>
      </trkpt>
      <trkpt lat="49.88643" lon="2.33716">
        <ele>25.2</ele>
        <time>2023-10-06T12:38:35Z</time>
      </trkpt>
      <trkpt lat="49.88641" lon="2.33718">
        <ele>25.2</ele>
        <time>2023-10-06T12:38:36Z</time>
      </trkpt>
      <trkpt lat="49.88641" lon="2.33719">
        <ele>25.2</ele>
        <time>2023-10-06T12:38:37Z</time>
      </trkpt>
      <trkpt lat="49.8864" lon="2.3372">
        <ele>25.2</ele>
        <time>2023-10-06T12:38:38Z</time>
      </trkpt>
      <trkpt lat="49.88639" lon="2.33721">
        <ele>25.2</ele>
        <time>2023-10-06T12:38:39Z</time>
      </trkpt>
      <trkpt lat="49.88638" lon="2.33722">
        <ele>25.2</ele>
        <time>2023-10-06T12:38:40Z</time>
      </trkpt>
      <trkpt lat="49.88637" lon="2.33723">
        <ele>25.2</ele>
        <time>2023-10-06T12:38:41Z</time>
      </trkpt>
      <trkpt lat="49.88636" lon="2.33723">
        <ele>25.2</ele>
        <time>2023-10-06T12:38:42Z</time>
      </trkpt>
      <trkpt lat="49.88635" lon="2.33724">
        <ele>25.2</ele>
        <time>2023-10-06T12:38:43Z</time>
      </trkpt>
      <trkpt lat="49.88635" lon="2.33725">
        <ele>25.2</ele>
        <time>2023-10-06T12:38:44Z</time>
      </trkpt>
      <trkpt lat="49.88634" lon="2.33726">
        <ele>25.2</ele>
        <time>2023-10-06T12:38:45Z</time>
      </trkpt>
      <trkpt lat="49.88633" lon="2.33726">
        <ele>25.2</ele>
        <time>2023-10-06T12:38:46Z</time>
      </trkpt>
      <trkpt lat="49.88633" lon="2.33727">
        <ele>25.2</ele>
        <time>2023-10-06T12:38:47Z</time>
      </trkpt>
      <trkpt lat="49.88632" lon="2.33727">
        <ele>25.2</ele>
        <time>2023-10-06T12:38:48Z</time>
      </trkpt>
      <trkpt lat="49.88632" lon="2.33728">
        <ele>25.2</ele>
        <time>2023-10-06T12:38:49Z</time>
      </trkpt>
      <trkpt lat="49.88631" lon="2.33729">
        <ele>25.2</ele>
        <time>2023-10-06T12:38:50Z</time>
      </trkpt>
      <trkpt lat="49.8863" lon="2.3373">
        <ele>25.2</ele>
        <time>2023-10-06T12:38:51Z</time>
      </trkpt>
      <trkpt lat="49.8863" lon="2.3373">
        <ele>25.2</ele>
        <time>2023-10-06T12:38:52Z</time>
      </trkpt>
      <trkpt lat="49.88629" lon="2.33731">
        <ele>25.2</ele>
        <time>2023-10-06T12:38:53Z</time>
      </trkpt>
      <trkpt lat="49.88629" lon="2.33732">
        <ele>25.2</ele>
        <time>2023-10-06T12:38:54Z</time>
      </trkpt>
      <trkpt lat="49.88628" lon="2.33732">
        <ele>25.2</ele>
        <time>2023-10-06T12:38:55Z</time>
      </trkpt>
      <trkpt lat="49.88627" lon="2.33733">
        <ele>25.2</ele>
        <time>2023-10-06T12:38:56Z</time>
      </trkpt>
      <trkpt lat="49.88626" lon="2.33734">
        <ele>25.2</ele>
        <time>2023-10-06T12:38:57Z</time>
      </trkpt>
      <trkpt lat="49.88626" lon="2.33735">
        <ele>25.2</ele>
        <time>2023-10-06T12:38:58Z</time>
      </trkpt>
      <trkpt lat="49.88625" lon="2.33735">
        <ele>25.2</ele>
        <time>2023-10-06T12:38:59Z</time>
      </trkpt>
      <trkpt lat="49.88624" lon="2.33736">
        <ele>25.2</ele>
        <time>2023-10-06T12:39:00Z</time>
      </trkpt>
      <trkpt lat="49.88623" lon="2.33737">
        <ele>25.2</ele>
        <time>2023-10-06T12:39:01Z</time>
      </trkpt>
      <trkpt lat="49.88622" lon="2.33738">
        <ele>25.3</ele>
        <time>2023-10-06T12:39:02Z</time>
      </trkpt>
      <trkpt lat="49.88621" lon="2.33739">
        <ele>25.3</ele>
        <time>2023-10-06T12:39:03Z</time>
      </trkpt>
      <trkpt lat="49.8862" lon="2.3374">
        <ele>25.3</ele>
        <time>2023-10-06T12:39:04Z</time>
      </trkpt>
      <trkpt lat="49.88619" lon="2.33741">
        <ele>25.3</ele>
        <time>2023-10-06T12:39:05Z</time>
      </trkpt>
      <trkpt lat="49.88618" lon="2.33742">
        <ele>25.3</ele>
        <time>2023-10-06T12:39:06Z</time>
      </trkpt>
      <trkpt lat="49.88617" lon="2.33742">
        <ele>25.3</ele>
        <time>2023-10-06T12:39:07Z</time>
      </trkpt>
      <trkpt lat="49.88616" lon="2.33743">
        <ele>25.3</ele>
        <time>2023-10-06T12:39:08Z</time>
      </trkpt>
      <trkpt lat="49.88615" lon="2.33744">
        <ele>25.3</ele>
        <time>2023-10-06T12:39:09Z</time>
      </trkpt>
      <trkpt lat="49.88615" lon="2.33744">
        <ele>25.3</ele>
        <time>2023-10-06T12:39:10Z</time>
      </trkpt>
      <trkpt lat="49.88614" lon="2.33745">
        <ele>25.3</ele>
        <time>2023-10-06T12:39:11Z</time>
      </trkpt>
      <trkpt lat="49.88613" lon="2.33745">
        <ele>25.3</ele>
        <time>2023-10-06T12:39:12Z</time>
      </trkpt>
      <trkpt lat="49.88612" lon="2.33746">
        <ele>25.3</ele>
        <time>2023-10-06T12:39:13Z</time>
      </trkpt>
      <trkpt lat="49.88611" lon="2.33747">
        <ele>25.3</ele>
        <time>2023-10-06T12:39:14Z</time>
      </trkpt>
      <trkpt lat="49.8861" lon="2.33747">
        <ele>25.3</ele>
        <time>2023-10-06T12:39:15Z</time>
      </trkpt>
      <trkpt lat="49.88609" lon="2.33748">
        <ele>25.3</ele>
        <time>2023-10-06T12:39:16Z</time>
      </trkpt>
      <trkpt lat="49.88608" lon="2.33749">
        <ele>25.3</ele>
        <time>2023-10-06T12:39:17Z</time>
      </trkpt>
      <trkpt lat="49.88608" lon="2.3375">
        <ele>25.3</ele>
        <time>2023-10-06T12:39:18Z</time>
      </trkpt>
      <trkpt lat="49.88607" lon="2.3375">
        <ele>25.3</ele>
        <time>2023-10-06T12:39:19Z</time>
      </trkpt>
      <trkpt lat="49.88606" lon="2.33751">
        <ele>25.3</ele>
        <time>2023-10-06T12:39:20Z</time>
      </trkpt>
      <trkpt lat="49.88604" lon="2.33752">
        <ele>25.3</ele>
        <time>2023-10-06T12:39:21Z</time>
      </trkpt>
      <trkpt lat="49.88604" lon="2.33753">
        <ele>25.3</ele>
        <time>2023-10-06T12:39:22Z</time>
      </trkpt>
      <trkpt lat="49.88603" lon="2.33753">
        <ele>25.3</ele>
        <time>2023-10-06T12:39:23Z</time>
      </trkpt>
      <trkpt lat="49.88603" lon="2.33754">
        <ele>25.3</ele>
        <time>2023-10-06T12:39:24Z</time>
      </trkpt>
      <trkpt lat="49.88602" lon="2.33754">
        <ele>25.3</ele>
        <time>2023-10-06T12:39:25Z</time>
      </trkpt>
      <trkpt lat="49.88601" lon="2.33755">
        <ele>25.3</ele>
        <time>2023-10-06T12:39:26Z</time>
      </trkpt>
      <trkpt lat="49.886" lon="2.33755">
        <ele>25.3</ele>
        <time>2023-10-06T12:39:27Z</time>
      </trkpt>
      <trkpt lat="49.88599" lon="2.33756">
        <ele>25.3</ele>
        <time>2023-10-06T12:39:28Z</time>
      </trkpt>
      <trkpt lat="49.88598" lon="2.33757">
        <ele>25.3</ele>
        <time>2023-10-06T12:39:29Z</time>
      </trkpt>
      <trkpt lat="49.88597" lon="2.33757">
        <ele>25.3</ele>
        <time>2023-10-06T12:39:30Z</time>
      </trkpt>
      <trkpt lat="49.88596" lon="2.33757">
        <ele>25.3</ele>
        <time>2023-10-06T12:39:31Z</time>
      </trkpt>
      <trkpt lat="49.88595" lon="2.33758">
        <ele>25.3</ele>
        <time>2023-10-06T12:39:32Z</time>
      </trkpt>
      <trkpt lat="49.88594" lon="2.33758">
        <ele>25.3</ele>
        <time>2023-10-06T12:39:33Z</time>
      </trkpt>
      <trkpt lat="49.88593" lon="2.33759">
        <ele>25.3</ele>
        <time>2023-10-06T12:39:34Z</time>
      </trkpt>
      <trkpt lat="49.88592" lon="2.33759">
        <ele>25.3</ele>
        <time>2023-10-06T12:39:35Z</time>
      </trkpt>
      <trkpt lat="49.88591" lon="2.3376">
        <ele>25.3</ele>
        <time>2023-10-06T12:39:36Z</time>
      </trkpt>
      <trkpt lat="49.8859" lon="2.33761">
        <ele>25.3</ele>
        <time>2023-10-06T12:39:37Z</time>
      </trkpt>
      <trkpt lat="49.88589" lon="2.33761">
        <ele>25.3</ele>
        <time>2023-10-06T12:39:38Z</time>
      </trkpt>
      <trkpt lat="49.88588" lon="2.33762">
        <ele>25.3</ele>
        <time>2023-10-06T12:39:39Z</time>
      </trkpt>
      <trkpt lat="49.88587" lon="2.33763">
        <ele>25.3</ele>
        <time>2023-10-06T12:39:40Z</time>
      </trkpt>
      <trkpt lat="49.88586" lon="2.33763">
        <ele>25.3</ele>
        <time>2023-10-06T12:39:41Z</time>
      </trkpt>
      <trkpt lat="49.88585" lon="2.33764">
        <ele>25.3</ele>
        <time>2023-10-06T12:39:42Z</time>
      </trkpt>
      <trkpt lat="49.88584" lon="2.33765">
        <ele>25.3</ele>
        <time>2023-10-06T12:39:43Z</time>
      </trkpt>
      <trkpt lat="49.88583" lon="2.33765">
        <ele>25.3</ele>
        <time>2023-10-06T12:39:44Z</time>
      </trkpt>
      <trkpt lat="49.88582" lon="2.33766">
        <ele>25.3</ele>
        <time>2023-10-06T12:39:45Z</time>
      </trkpt>
      <trkpt lat="49.88581" lon="2.33767">
        <ele>25.3</ele>
        <time>2023-10-06T12:39:46Z</time>
      </trkpt>
      <trkpt lat="49.8858" lon="2.33767">
        <ele>25.3</ele>
        <time>2023-10-06T12:39:47Z</time>
      </trkpt>
      <trkpt lat="49.88579" lon="2.33768">
        <ele>25.3</ele>
        <time>2023-10-06T12:39:48Z</time>
      </trkpt>
      <trkpt lat="49.88578" lon="2.33768">
        <ele>25.3</ele>
        <time>2023-10-06T12:39:49Z</time>
      </trkpt>
      <trkpt lat="49.88577" lon="2.33769">
        <ele>25.3</ele>
        <time>2023-10-06T12:39:50Z</time>
      </trkpt>
      <trkpt lat="49.88576" lon="2.33769">
        <ele>25.3</ele>
        <time>2023-10-06T12:39:51Z</time>
      </trkpt>
      <trkpt lat="49.88575" lon="2.3377">
        <ele>25.3</ele>
        <time>2023-10-06T12:39:52Z</time>
      </trkpt>
      <trkpt lat="49.88574" lon="2.33771">
        <ele>25.3</ele>
        <time>2023-10-06T12:39:53Z</time>
      </trkpt>
      <trkpt lat="49.88573" lon="2.33771">
        <ele>25.3</ele>
        <time>2023-10-06T12:39:54Z</time>
      </trkpt>
      <trkpt lat="49.88572" lon="2.33772">
        <ele>25.3</ele>
        <time>2023-10-06T12:39:55Z</time>
      </trkpt>
      <trkpt lat="49.88571" lon="2.33773">
        <ele>25.3</ele>
        <time>2023-10-06T12:39:56Z</time>
      </trkpt>
      <trkpt lat="49.88571" lon="2.33773">
        <ele>25.3</ele>
        <time>2023-10-06T12:39:57Z</time>
      </trkpt>
      <trkpt lat="49.8857" lon="2.33774">
        <ele>25.3</ele>
        <time>2023-10-06T12:39:58Z</time>
      </trkpt>
      <trkpt lat="49.88569" lon="2.33775">
        <ele>25.3</ele>
        <time>2023-10-06T12:39:59Z</time>
      </trkpt>
      <trkpt lat="49.88568" lon="2.33775">
        <ele>25.3</ele>
        <time>2023-10-06T12:40:00Z</time>
      </trkpt>
      <trkpt lat="49.88567" lon="2.33776">
        <ele>25.3</ele>
        <time>2023-10-06T12:40:01Z</time>
      </trkpt>
      <trkpt lat="49.88566" lon="2.33777">
        <ele>25.3</ele>
        <time>2023-10-06T12:40:02Z</time>
      </trkpt>
      <trkpt lat="49.88565" lon="2.33778">
        <ele>25.3</ele>
        <time>2023-10-06T12:40:03Z</time>
      </trkpt>
      <trkpt lat="49.88564" lon="2.33778">
        <ele>25.3</ele>
        <time>2023-10-06T12:40:04Z</time>
      </trkpt>
      <trkpt lat="49.88563" lon="2.33779">
        <ele>25.3</ele>
        <time>2023-10-06T12:40:05Z</time>
      </trkpt>
      <trkpt lat="49.88562" lon="2.3378">
        <ele>25.3</ele>
        <time>2023-10-06T12:40:06Z</time>
      </trkpt>
      <trkpt lat="49.88561" lon="2.33781">
        <ele>25.3</ele>
        <time>2023-10-06T12:40:07Z</time>
      </trkpt>
      <trkpt lat="49.8856" lon="2.33781">
        <ele>25.3</ele>
        <time>2023-10-06T12:40:08Z</time>
      </trkpt>
      <trkpt lat="49.88558" lon="2.33782">
        <ele>25.3</ele>
        <time>2023-10-06T12:40:09Z</time>
      </trkpt>
      <trkpt lat="49.88557" lon="2.33783">
        <ele>25.3</ele>
        <time>2023-10-06T12:40:10Z</time>
      </trkpt>
      <trkpt lat="49.88556" lon="2.33783">
        <ele>25.3</ele>
        <time>2023-10-06T12:40:11Z</time>
      </trkpt>
      <trkpt lat="49.88555" lon="2.33784">
        <ele>25.3</ele>
        <time>2023-10-06T12:40:12Z</time>
      </trkpt>
      <trkpt lat="49.88554" lon="2.33785">
        <ele>25.3</ele>
        <time>2023-10-06T12:40:13Z</time>
      </trkpt>
      <trkpt lat="49.88553" lon="2.33785">
        <ele>25.3</ele>
        <time>2023-10-06T12:40:14Z</time>
      </trkpt>
      <trkpt lat="49.88552" lon="2.33786">
        <ele>25.3</ele>
        <time>2023-10-06T12:40:15Z</time>
      </trkpt>
      <trkpt lat="49.88551" lon="2.33787">
        <ele>25.3</ele>
        <time>2023-10-06T12:40:16Z</time>
      </trkpt>
      <trkpt lat="49.8855" lon="2.33788">
        <ele>25.3</ele>
        <time>2023-10-06T12:40:17Z</time>
      </trkpt>
      <trkpt lat="49.88549" lon="2.33788">
        <ele>25.3</ele>
        <time>2023-10-06T12:40:18Z</time>
      </trkpt>
      <trkpt lat="49.88547" lon="2.3379">
        <ele>25.3</ele>
        <time>2023-10-06T12:40:19Z</time>
      </trkpt>
      <trkpt lat="49.88547" lon="2.33791">
        <ele>25.3</ele>
        <time>2023-10-06T12:40:20Z</time>
      </trkpt>
      <trkpt lat="49.88546" lon="2.33791">
        <ele>25.3</ele>
        <time>2023-10-06T12:40:21Z</time>
      </trkpt>
      <trkpt lat="49.88544" lon="2.33792">
        <ele>25.3</ele>
        <time>2023-10-06T12:40:22Z</time>
      </trkpt>
      <trkpt lat="49.88543" lon="2.33793">
        <ele>25.3</ele>
        <time>2023-10-06T12:40:23Z</time>
      </trkpt>
      <trkpt lat="49.88542" lon="2.33794">
        <ele>25.3</ele>
        <time>2023-10-06T12:40:24Z</time>
      </trkpt>
      <trkpt lat="49.88541" lon="2.33794">
        <ele>25.3</ele>
        <time>2023-10-06T12:40:25Z</time>
      </trkpt>
      <trkpt lat="49.8854" lon="2.33795">
        <ele>25.3</ele>
        <time>2023-10-06T12:40:26Z</time>
      </trkpt>
      <trkpt lat="49.88539" lon="2.33796">
        <ele>25.3</ele>
        <time>2023-10-06T12:40:27Z</time>
      </trkpt>
      <trkpt lat="49.88539" lon="2.33797">
        <ele>25.3</ele>
        <time>2023-10-06T12:40:28Z</time>
      </trkpt>
      <trkpt lat="49.88538" lon="2.33797">
        <ele>25.3</ele>
        <time>2023-10-06T12:40:29Z</time>
      </trkpt>
      <trkpt lat="49.88537" lon="2.33798">
        <ele>25.3</ele>
        <time>2023-10-06T12:40:30Z</time>
      </trkpt>
      <trkpt lat="49.88536" lon="2.33799">
        <ele>25.3</ele>
        <time>2023-10-06T12:40:31Z</time>
      </trkpt>
      <trkpt lat="49.88535" lon="2.338">
        <ele>25.3</ele>
        <time>2023-10-06T12:40:32Z</time>
      </trkpt>
      <trkpt lat="49.88534" lon="2.33801">
        <ele>25.3</ele>
        <time>2023-10-06T12:40:33Z</time>
      </trkpt>
      <trkpt lat="49.88534" lon="2.33802">
        <ele>25.3</ele>
        <time>2023-10-06T12:40:34Z</time>
      </trkpt>
      <trkpt lat="49.88533" lon="2.33803">
        <ele>25.3</ele>
        <time>2023-10-06T12:40:35Z</time>
      </trkpt>
      <trkpt lat="49.88532" lon="2.33804">
        <ele>25.3</ele>
        <time>2023-10-06T12:40:36Z</time>
      </trkpt>
      <trkpt lat="49.88531" lon="2.33804">
        <ele>25.3</ele>
        <time>2023-10-06T12:40:37Z</time>
      </trkpt>
      <trkpt lat="49.8853" lon="2.33805">
        <ele>25.3</ele>
        <time>2023-10-06T12:40:38Z</time>
      </trkpt>
      <trkpt lat="49.88529" lon="2.33806">
        <ele>25.3</ele>
        <time>2023-10-06T12:40:39Z</time>
      </trkpt>
      <trkpt lat="49.88528" lon="2.33807">
        <ele>25.3</ele>
        <time>2023-10-06T12:40:40Z</time>
      </trkpt>
      <trkpt lat="49.88527" lon="2.33807">
        <ele>25.3</ele>
        <time>2023-10-06T12:40:41Z</time>
      </trkpt>
      <trkpt lat="49.88526" lon="2.33808">
        <ele>25.3</ele>
        <time>2023-10-06T12:40:42Z</time>
      </trkpt>
      <trkpt lat="49.88525" lon="2.33808">
        <ele>25.4</ele>
        <time>2023-10-06T12:40:43Z</time>
      </trkpt>
      <trkpt lat="49.88524" lon="2.33809">
        <ele>25.4</ele>
        <time>2023-10-06T12:40:44Z</time>
      </trkpt>
      <trkpt lat="49.88523" lon="2.33808">
        <ele>25.4</ele>
        <time>2023-10-06T12:40:45Z</time>
      </trkpt>
      <trkpt lat="49.88523" lon="2.33808">
        <ele>25.4</ele>
        <time>2023-10-06T12:40:46Z</time>
      </trkpt>
      <trkpt lat="49.88523" lon="2.33807">
        <ele>25.4</ele>
        <time>2023-10-06T12:40:47Z</time>
      </trkpt>
      <trkpt lat="49.88523" lon="2.33806">
        <ele>25.4</ele>
        <time>2023-10-06T12:40:48Z</time>
      </trkpt>
      <trkpt lat="49.88522" lon="2.33805">
        <ele>25.4</ele>
        <time>2023-10-06T12:40:49Z</time>
      </trkpt>
      <trkpt lat="49.88523" lon="2.33805">
        <ele>25.4</ele>
        <time>2023-10-06T12:40:50Z</time>
      </trkpt>
      <trkpt lat="49.88523" lon="2.33805">
        <ele>25.4</ele>
        <time>2023-10-06T12:40:51Z</time>
      </trkpt>
      <trkpt lat="49.88523" lon="2.33805">
        <ele>25.4</ele>
        <time>2023-10-06T12:40:52Z</time>
      </trkpt>
      <trkpt lat="49.88523" lon="2.33804">
        <ele>25.4</ele>
        <time>2023-10-06T12:40:53Z</time>
      </trkpt>
      <trkpt lat="49.88523" lon="2.33804">
        <ele>25.4</ele>
        <time>2023-10-06T12:40:54Z</time>
      </trkpt>
      <trkpt lat="49.88523" lon="2.33804">
        <ele>25.4</ele>
        <time>2023-10-06T12:40:55Z</time>
      </trkpt>
      <trkpt lat="49.88523" lon="2.33804">
        <ele>25.4</ele>
        <time>2023-10-06T12:40:56Z</time>
      </trkpt>
      <trkpt lat="49.88523" lon="2.33804">
        <ele>25.4</ele>
        <time>2023-10-06T12:40:57Z</time>
      </trkpt>
      <trkpt lat="49.88523" lon="2.33804">
        <ele>25.4</ele>
        <time>2023-10-06T12:40:58Z</time>
      </trkpt>
      <trkpt lat="49.88523" lon="2.33804">
        <ele>25.4</ele>
        <time>2023-10-06T12:40:59Z</time>
      </trkpt>
      <trkpt lat="49.88523" lon="2.33804">
        <ele>25.4</ele>
        <time>2023-10-06T12:41:00Z</time>
      </trkpt>
      <trkpt lat="49.88523" lon="2.33804">
        <ele>25.4</ele>
        <time>2023-10-06T12:41:01Z</time>
      </trkpt>
      <trkpt lat="49.88523" lon="2.33804">
        <ele>25.4</ele>
        <time>2023-10-06T12:41:02Z</time>
      </trkpt>
      <trkpt lat="49.88523" lon="2.33804">
        <ele>25.4</ele>
        <time>2023-10-06T12:41:05Z</time>
      </trkpt>
      <trkpt lat="49.88523" lon="2.33804">
        <ele>25.4</ele>
        <time>2023-10-06T12:41:06Z</time>
      </trkpt>
      <trkpt lat="49.88523" lon="2.33804">
        <ele>25.4</ele>
        <time>2023-10-06T12:41:07Z</time>
      </trkpt>
      <trkpt lat="49.88523" lon="2.33804">
        <ele>25.4</ele>
        <time>2023-10-06T12:41:09Z</time>
      </trkpt>
      <trkpt lat="49.88523" lon="2.33804">
        <ele>25.4</ele>
        <time>2023-10-06T12:41:10Z</time>
      </trkpt>
      <trkpt lat="49.88523" lon="2.33804">
        <ele>25.4</ele>
        <time>2023-10-06T12:41:11Z</time>
      </trkpt>
      <trkpt lat="49.88522" lon="2.33805">
        <ele>25.4</ele>
        <time>2023-10-06T12:41:12Z</time>
      </trkpt>
      <trkpt lat="49.88521" lon="2.33806">
        <ele>25.4</ele>
        <time>2023-10-06T12:41:13Z</time>
      </trkpt>
      <trkpt lat="49.8852" lon="2.33807">
        <ele>25.4</ele>
        <time>2023-10-06T12:41:14Z</time>
      </trkpt>
      <trkpt lat="49.88518" lon="2.3381">
        <ele>25.4</ele>
        <time>2023-10-06T12:41:15Z</time>
      </trkpt>
      <trkpt lat="49.88517" lon="2.33813">
        <ele>25.4</ele>
        <time>2023-10-06T12:41:16Z</time>
      </trkpt>
      <trkpt lat="49.88516" lon="2.33813">
        <ele>25.4</ele>
        <time>2023-10-06T12:41:17Z</time>
      </trkpt>
      <trkpt lat="49.88516" lon="2.33814">
        <ele>25.4</ele>
        <time>2023-10-06T12:41:18Z</time>
      </trkpt>
      <trkpt lat="49.88515" lon="2.33814">
        <ele>25.4</ele>
        <time>2023-10-06T12:41:19Z</time>
      </trkpt>
      <trkpt lat="49.88515" lon="2.33814">
        <ele>25.4</ele>
        <time>2023-10-06T12:41:20Z</time>
      </trkpt>
      <trkpt lat="49.88514" lon="2.33815">
        <ele>25.4</ele>
        <time>2023-10-06T12:41:21Z</time>
      </trkpt>
      <trkpt lat="49.88513" lon="2.33815">
        <ele>25.4</ele>
        <time>2023-10-06T12:41:22Z</time>
      </trkpt>
      <trkpt lat="49.88513" lon="2.33816">
        <ele>25.4</ele>
        <time>2023-10-06T12:41:23Z</time>
      </trkpt>
      <trkpt lat="49.88512" lon="2.33816">
        <ele>25.4</ele>
        <time>2023-10-06T12:41:24Z</time>
      </trkpt>
      <trkpt lat="49.88511" lon="2.33817">
        <ele>25.4</ele>
        <time>2023-10-06T12:41:25Z</time>
      </trkpt>
      <trkpt lat="49.88511" lon="2.33818">
        <ele>25.4</ele>
        <time>2023-10-06T12:41:26Z</time>
      </trkpt>
      <trkpt lat="49.8851" lon="2.33819">
        <ele>25.4</ele>
        <time>2023-10-06T12:41:27Z</time>
      </trkpt>
      <trkpt lat="49.88508" lon="2.3382">
        <ele>25.4</ele>
        <time>2023-10-06T12:41:28Z</time>
      </trkpt>
      <trkpt lat="49.88507" lon="2.33821">
        <ele>25.4</ele>
        <time>2023-10-06T12:41:29Z</time>
      </trkpt>
      <trkpt lat="49.88507" lon="2.33822">
        <ele>25.4</ele>
        <time>2023-10-06T12:41:30Z</time>
      </trkpt>
      <trkpt lat="49.88505" lon="2.33823">
        <ele>25.4</ele>
        <time>2023-10-06T12:41:31Z</time>
      </trkpt>
      <trkpt lat="49.88504" lon="2.33824">
        <ele>25.4</ele>
        <time>2023-10-06T12:41:32Z</time>
      </trkpt>
      <trkpt lat="49.88503" lon="2.33824">
        <ele>25.4</ele>
        <time>2023-10-06T12:41:33Z</time>
      </trkpt>
      <trkpt lat="49.88502" lon="2.33825">
        <ele>25.4</ele>
        <time>2023-10-06T12:41:34Z</time>
      </trkpt>
      <trkpt lat="49.885" lon="2.33827">
        <ele>25.4</ele>
        <time>2023-10-06T12:41:35Z</time>
      </trkpt>
      <trkpt lat="49.88498" lon="2.3383">
        <ele>25.4</ele>
        <time>2023-10-06T12:41:36Z</time>
      </trkpt>
      <trkpt lat="49.88497" lon="2.3383">
        <ele>25.4</ele>
        <time>2023-10-06T12:41:37Z</time>
      </trkpt>
      <trkpt lat="49.88496" lon="2.33832">
        <ele>25.4</ele>
        <time>2023-10-06T12:41:38Z</time>
      </trkpt>
      <trkpt lat="49.88495" lon="2.33834">
        <ele>25.4</ele>
        <time>2023-10-06T12:41:39Z</time>
      </trkpt>
      <trkpt lat="49.88494" lon="2.33835">
        <ele>25.4</ele>
        <time>2023-10-06T12:41:40Z</time>
      </trkpt>
      <trkpt lat="49.88493" lon="2.33837">
        <ele>25.4</ele>
        <time>2023-10-06T12:41:41Z</time>
      </trkpt>
      <trkpt lat="49.88491" lon="2.33839">
        <ele>25.4</ele>
        <time>2023-10-06T12:41:42Z</time>
      </trkpt>
      <trkpt lat="49.88491" lon="2.3384">
        <ele>25.4</ele>
        <time>2023-10-06T12:41:43Z</time>
      </trkpt>
      <trkpt lat="49.8849" lon="2.33841">
        <ele>25.4</ele>
        <time>2023-10-06T12:41:44Z</time>
      </trkpt>
      <trkpt lat="49.88489" lon="2.33844">
        <ele>25.4</ele>
        <time>2023-10-06T12:41:45Z</time>
      </trkpt>
      <trkpt lat="49.88488" lon="2.33845">
        <ele>25.4</ele>
        <time>2023-10-06T12:41:46Z</time>
      </trkpt>
      <trkpt lat="49.88488" lon="2.33846">
        <ele>25.4</ele>
        <time>2023-10-06T12:41:47Z</time>
      </trkpt>
      <trkpt lat="49.88486" lon="2.33848">
        <ele>25.4</ele>
        <time>2023-10-06T12:41:48Z</time>
      </trkpt>
      <trkpt lat="49.88486" lon="2.33849">
        <ele>25.4</ele>
        <time>2023-10-06T12:41:49Z</time>
      </trkpt>
      <trkpt lat="49.88485" lon="2.3385">
        <ele>25.4</ele>
        <time>2023-10-06T12:41:50Z</time>
      </trkpt>
      <trkpt lat="49.88484" lon="2.33851">
        <ele>25.4</ele>
        <time>2023-10-06T12:41:51Z</time>
      </trkpt>
      <trkpt lat="49.88483" lon="2.33853">
        <ele>25.4</ele>
        <time>2023-10-06T12:41:52Z</time>
      </trkpt>
      <trkpt lat="49.88482" lon="2.33854">
        <ele>25.4</ele>
        <time>2023-10-06T12:41:53Z</time>
      </trkpt>
      <trkpt lat="49.88481" lon="2.33856">
        <ele>25.4</ele>
        <time>2023-10-06T12:41:54Z</time>
      </trkpt>
      <trkpt lat="49.8848" lon="2.33857">
        <ele>25.4</ele>
        <time>2023-10-06T12:41:55Z</time>
      </trkpt>
      <trkpt lat="49.88479" lon="2.33859">
        <ele>25.4</ele>
        <time>2023-10-06T12:41:56Z</time>
      </trkpt>
      <trkpt lat="49.88478" lon="2.3386">
        <ele>25.4</ele>
        <time>2023-10-06T12:41:57Z</time>
      </trkpt>
      <trkpt lat="49.88477" lon="2.33862">
        <ele>25.4</ele>
        <time>2023-10-06T12:41:58Z</time>
      </trkpt>
      <trkpt lat="49.88477" lon="2.33863">
        <ele>25.4</ele>
        <time>2023-10-06T12:41:59Z</time>
      </trkpt>
      <trkpt lat="49.88476" lon="2.33864">
        <ele>25.4</ele>
        <time>2023-10-06T12:42:00Z</time>
      </trkpt>
      <trkpt lat="49.88476" lon="2.33866">
        <ele>25.4</ele>
        <time>2023-10-06T12:42:01Z</time>
      </trkpt>
      <trkpt lat="49.88476" lon="2.33867">
        <ele>25.4</ele>
        <time>2023-10-06T12:42:02Z</time>
      </trkpt>
      <trkpt lat="49.88475" lon="2.33868">
        <ele>25.4</ele>
        <time>2023-10-06T12:42:03Z</time>
      </trkpt>
      <trkpt lat="49.88475" lon="2.33869">
        <ele>25.4</ele>
        <time>2023-10-06T12:42:04Z</time>
      </trkpt>
      <trkpt lat="49.88474" lon="2.3387">
        <ele>25.4</ele>
        <time>2023-10-06T12:42:05Z</time>
      </trkpt>
      <trkpt lat="49.88474" lon="2.33871">
        <ele>25.4</ele>
        <time>2023-10-06T12:42:06Z</time>
      </trkpt>
      <trkpt lat="49.88474" lon="2.33871">
        <ele>25.4</ele>
        <time>2023-10-06T12:42:07Z</time>
      </trkpt>
      <trkpt lat="49.88473" lon="2.33871">
        <ele>25.4</ele>
        <time>2023-10-06T12:42:08Z</time>
      </trkpt>
      <trkpt lat="49.88473" lon="2.33871">
        <ele>25.4</ele>
        <time>2023-10-06T12:42:09Z</time>
      </trkpt>
      <trkpt lat="49.88472" lon="2.33872">
        <ele>25.4</ele>
        <time>2023-10-06T12:42:10Z</time>
      </trkpt>
      <trkpt lat="49.88472" lon="2.33873">
        <ele>25.4</ele>
        <time>2023-10-06T12:42:11Z</time>
      </trkpt>
      <trkpt lat="49.88471" lon="2.33873">
        <ele>25.4</ele>
        <time>2023-10-06T12:42:12Z</time>
      </trkpt>
      <trkpt lat="49.8847" lon="2.33874">
        <ele>25.4</ele>
        <time>2023-10-06T12:42:13Z</time>
      </trkpt>
      <trkpt lat="49.88469" lon="2.33875">
        <ele>25.4</ele>
        <time>2023-10-06T12:42:14Z</time>
      </trkpt>
      <trkpt lat="49.88468" lon="2.33876">
        <ele>25.4</ele>
        <time>2023-10-06T12:42:15Z</time>
      </trkpt>
      <trkpt lat="49.88467" lon="2.33877">
        <ele>25.4</ele>
        <time>2023-10-06T12:42:16Z</time>
      </trkpt>
      <trkpt lat="49.88467" lon="2.33877">
        <ele>25.4</ele>
        <time>2023-10-06T12:42:17Z</time>
      </trkpt>
      <trkpt lat="49.88466" lon="2.33878">
        <ele>25.4</ele>
        <time>2023-10-06T12:42:18Z</time>
      </trkpt>
      <trkpt lat="49.88465" lon="2.33879">
        <ele>25.4</ele>
        <time>2023-10-06T12:42:19Z</time>
      </trkpt>
      <trkpt lat="49.88464" lon="2.3388">
        <ele>25.4</ele>
        <time>2023-10-06T12:42:20Z</time>
      </trkpt>
      <trkpt lat="49.88463" lon="2.33881">
        <ele>25.4</ele>
        <time>2023-10-06T12:42:21Z</time>
      </trkpt>
      <trkpt lat="49.88462" lon="2.33882">
        <ele>25.4</ele>
        <time>2023-10-06T12:42:22Z</time>
      </trkpt>
      <trkpt lat="49.88462" lon="2.33883">
        <ele>25.4</ele>
        <time>2023-10-06T12:42:23Z</time>
      </trkpt>
      <trkpt lat="49.88461" lon="2.33884">
        <ele>25.4</ele>
        <time>2023-10-06T12:42:24Z</time>
      </trkpt>
      <trkpt lat="49.8846" lon="2.33885">
        <ele>25.4</ele>
        <time>2023-10-06T12:42:25Z</time>
      </trkpt>
      <trkpt lat="49.88459" lon="2.33887">
        <ele>25.4</ele>
        <time>2023-10-06T12:42:26Z</time>
      </trkpt>
      <trkpt lat="49.88458" lon="2.33889">
        <ele>25.4</ele>
        <time>2023-10-06T12:42:27Z</time>
      </trkpt>
      <trkpt lat="49.88457" lon="2.3389">
        <ele>25.4</ele>
        <time>2023-10-06T12:42:28Z</time>
      </trkpt>
      <trkpt lat="49.88457" lon="2.33891">
        <ele>25.4</ele>
        <time>2023-10-06T12:42:29Z</time>
      </trkpt>
      <trkpt lat="49.88456" lon="2.33893">
        <ele>25.4</ele>
        <time>2023-10-06T12:42:30Z</time>
      </trkpt>
      <trkpt lat="49.88455" lon="2.33894">
        <ele>25.4</ele>
        <time>2023-10-06T12:42:31Z</time>
      </trkpt>
      <trkpt lat="49.88455" lon="2.33896">
        <ele>25.4</ele>
        <time>2023-10-06T12:42:32Z</time>
      </trkpt>
      <trkpt lat="49.88453" lon="2.33898">
        <ele>25.4</ele>
        <time>2023-10-06T12:42:33Z</time>
      </trkpt>
      <trkpt lat="49.88453" lon="2.33899">
        <ele>25.4</ele>
        <time>2023-10-06T12:42:34Z</time>
      </trkpt>
      <trkpt lat="49.88452" lon="2.339">
        <ele>25.4</ele>
        <time>2023-10-06T12:42:35Z</time>
      </trkpt>
      <trkpt lat="49.88451" lon="2.33903">
        <ele>25.4</ele>
        <time>2023-10-06T12:42:36Z</time>
      </trkpt>
      <trkpt lat="49.88451" lon="2.33904">
        <ele>25.4</ele>
        <time>2023-10-06T12:42:37Z</time>
      </trkpt>
      <trkpt lat="49.8845" lon="2.33905">
        <ele>25.4</ele>
        <time>2023-10-06T12:42:38Z</time>
      </trkpt>
      <trkpt lat="49.88449" lon="2.33906">
        <ele>25.4</ele>
        <time>2023-10-06T12:42:39Z</time>
      </trkpt>
      <trkpt lat="49.88449" lon="2.33908">
        <ele>25.4</ele>
        <time>2023-10-06T12:42:40Z</time>
      </trkpt>
      <trkpt lat="49.88448" lon="2.33909">
        <ele>25.4</ele>
        <time>2023-10-06T12:42:41Z</time>
      </trkpt>
      <trkpt lat="49.88447" lon="2.33911">
        <ele>25.4</ele>
        <time>2023-10-06T12:42:42Z</time>
      </trkpt>
      <trkpt lat="49.88447" lon="2.33912">
        <ele>25.4</ele>
        <time>2023-10-06T12:42:43Z</time>
      </trkpt>
      <trkpt lat="49.88446" lon="2.33913">
        <ele>25.4</ele>
        <time>2023-10-06T12:42:44Z</time>
      </trkpt>
      <trkpt lat="49.88445" lon="2.33915">
        <ele>25.4</ele>
        <time>2023-10-06T12:42:45Z</time>
      </trkpt>
      <trkpt lat="49.88445" lon="2.33916">
        <ele>25.4</ele>
        <time>2023-10-06T12:42:46Z</time>
      </trkpt>
      <trkpt lat="49.88444" lon="2.33917">
        <ele>25.4</ele>
        <time>2023-10-06T12:42:47Z</time>
      </trkpt>
      <trkpt lat="49.88443" lon="2.33918">
        <ele>25.4</ele>
        <time>2023-10-06T12:42:48Z</time>
      </trkpt>
      <trkpt lat="49.88442" lon="2.3392">
        <ele>25.4</ele>
        <time>2023-10-06T12:42:49Z</time>
      </trkpt>
      <trkpt lat="49.88441" lon="2.33921">
        <ele>25.4</ele>
        <time>2023-10-06T12:42:50Z</time>
      </trkpt>
      <trkpt lat="49.88441" lon="2.33922">
        <ele>25.4</ele>
        <time>2023-10-06T12:42:51Z</time>
      </trkpt>
      <trkpt lat="49.8844" lon="2.33923">
        <ele>25.4</ele>
        <time>2023-10-06T12:42:52Z</time>
      </trkpt>
      <trkpt lat="49.88439" lon="2.33924">
        <ele>25.4</ele>
        <time>2023-10-06T12:42:53Z</time>
      </trkpt>
      <trkpt lat="49.88437" lon="2.33926">
        <ele>25.4</ele>
        <time>2023-10-06T12:42:54Z</time>
      </trkpt>
      <trkpt lat="49.88436" lon="2.33927">
        <ele>25.4</ele>
        <time>2023-10-06T12:42:55Z</time>
      </trkpt>
      <trkpt lat="49.88436" lon="2.33928">
        <ele>25.4</ele>
        <time>2023-10-06T12:42:56Z</time>
      </trkpt>
      <trkpt lat="49.88434" lon="2.3393">
        <ele>25.4</ele>
        <time>2023-10-06T12:42:57Z</time>
      </trkpt>
      <trkpt lat="49.88433" lon="2.33931">
        <ele>25.4</ele>
        <time>2023-10-06T12:42:58Z</time>
      </trkpt>
      <trkpt lat="49.88433" lon="2.33932">
        <ele>25.4</ele>
        <time>2023-10-06T12:42:59Z</time>
      </trkpt>
      <trkpt lat="49.88431" lon="2.33934">
        <ele>25.4</ele>
        <time>2023-10-06T12:43:00Z</time>
      </trkpt>
      <trkpt lat="49.8843" lon="2.33934">
        <ele>25.4</ele>
        <time>2023-10-06T12:43:01Z</time>
      </trkpt>
      <trkpt lat="49.88429" lon="2.33935">
        <ele>25.4</ele>
        <time>2023-10-06T12:43:02Z</time>
      </trkpt>
      <trkpt lat="49.88428" lon="2.33937">
        <ele>25.4</ele>
        <time>2023-10-06T12:43:03Z</time>
      </trkpt>
      <trkpt lat="49.88427" lon="2.33938">
        <ele>25.4</ele>
        <time>2023-10-06T12:43:04Z</time>
      </trkpt>
      <trkpt lat="49.88426" lon="2.33938">
        <ele>25.4</ele>
        <time>2023-10-06T12:43:05Z</time>
      </trkpt>
      <trkpt lat="49.88424" lon="2.3394">
        <ele>25.4</ele>
        <time>2023-10-06T12:43:06Z</time>
      </trkpt>
      <trkpt lat="49.88423" lon="2.33941">
        <ele>25.4</ele>
        <time>2023-10-06T12:43:07Z</time>
      </trkpt>
      <trkpt lat="49.88423" lon="2.33942">
        <ele>25.4</ele>
        <time>2023-10-06T12:43:08Z</time>
      </trkpt>
      <trkpt lat="49.88421" lon="2.33943">
        <ele>25.4</ele>
        <time>2023-10-06T12:43:09Z</time>
      </trkpt>
      <trkpt lat="49.8842" lon="2.33944">
        <ele>25.4</ele>
        <time>2023-10-06T12:43:10Z</time>
      </trkpt>
      <trkpt lat="49.8842" lon="2.33944">
        <ele>25.4</ele>
        <time>2023-10-06T12:43:11Z</time>
      </trkpt>
      <trkpt lat="49.88419" lon="2.33946">
        <ele>25.5</ele>
        <time>2023-10-06T12:43:12Z</time>
      </trkpt>
      <trkpt lat="49.88418" lon="2.33947">
        <ele>25.5</ele>
        <time>2023-10-06T12:43:13Z</time>
      </trkpt>
      <trkpt lat="49.88417" lon="2.33948">
        <ele>25.5</ele>
        <time>2023-10-06T12:43:14Z</time>
      </trkpt>
      <trkpt lat="49.88415" lon="2.3395">
        <ele>25.5</ele>
        <time>2023-10-06T12:43:15Z</time>
      </trkpt>
      <trkpt lat="49.88415" lon="2.33951">
        <ele>25.5</ele>
        <time>2023-10-06T12:43:16Z</time>
      </trkpt>
      <trkpt lat="49.88414" lon="2.33952">
        <ele>25.5</ele>
        <time>2023-10-06T12:43:17Z</time>
      </trkpt>
      <trkpt lat="49.88414" lon="2.33953">
        <ele>25.5</ele>
        <time>2023-10-06T12:43:18Z</time>
      </trkpt>
      <trkpt lat="49.88413" lon="2.33955">
        <ele>25.5</ele>
        <time>2023-10-06T12:43:19Z</time>
      </trkpt>
      <trkpt lat="49.88412" lon="2.33955">
        <ele>25.5</ele>
        <time>2023-10-06T12:43:20Z</time>
      </trkpt>
      <trkpt lat="49.88412" lon="2.33955">
        <ele>25.5</ele>
        <time>2023-10-06T12:43:21Z</time>
      </trkpt>
      <trkpt lat="49.88411" lon="2.33955">
        <ele>25.5</ele>
        <time>2023-10-06T12:43:22Z</time>
      </trkpt>
      <trkpt lat="49.88411" lon="2.33956">
        <ele>25.5</ele>
        <time>2023-10-06T12:43:23Z</time>
      </trkpt>
      <trkpt lat="49.8841" lon="2.33957">
        <ele>25.5</ele>
        <time>2023-10-06T12:43:24Z</time>
      </trkpt>
      <trkpt lat="49.8841" lon="2.33958">
        <ele>25.5</ele>
        <time>2023-10-06T12:43:25Z</time>
      </trkpt>
      <trkpt lat="49.88409" lon="2.33958">
        <ele>25.5</ele>
        <time>2023-10-06T12:43:26Z</time>
      </trkpt>
      <trkpt lat="49.88408" lon="2.33959">
        <ele>25.5</ele>
        <time>2023-10-06T12:43:27Z</time>
      </trkpt>
      <trkpt lat="49.88407" lon="2.3396">
        <ele>25.5</ele>
        <time>2023-10-06T12:43:28Z</time>
      </trkpt>
      <trkpt lat="49.88406" lon="2.33962">
        <ele>25.4</ele>
        <time>2023-10-06T12:43:29Z</time>
      </trkpt>
      <trkpt lat="49.88405" lon="2.33963">
        <ele>25.4</ele>
        <time>2023-10-06T12:43:30Z</time>
      </trkpt>
      <trkpt lat="49.88404" lon="2.33964">
        <ele>25.4</ele>
        <time>2023-10-06T12:43:31Z</time>
      </trkpt>
      <trkpt lat="49.88403" lon="2.33966">
        <ele>25.4</ele>
        <time>2023-10-06T12:43:32Z</time>
      </trkpt>
      <trkpt lat="49.88402" lon="2.33967">
        <ele>25.4</ele>
        <time>2023-10-06T12:43:33Z</time>
      </trkpt>
      <trkpt lat="49.88401" lon="2.33968">
        <ele>25.4</ele>
        <time>2023-10-06T12:43:34Z</time>
      </trkpt>
      <trkpt lat="49.884" lon="2.3397">
        <ele>25.4</ele>
        <time>2023-10-06T12:43:35Z</time>
      </trkpt>
      <trkpt lat="49.88399" lon="2.33971">
        <ele>25.4</ele>
        <time>2023-10-06T12:43:36Z</time>
      </trkpt>
      <trkpt lat="49.88398" lon="2.33972">
        <ele>25.4</ele>
        <time>2023-10-06T12:43:37Z</time>
      </trkpt>
      <trkpt lat="49.88397" lon="2.33974">
        <ele>25.4</ele>
        <time>2023-10-06T12:43:38Z</time>
      </trkpt>
      <trkpt lat="49.88396" lon="2.33975">
        <ele>25.4</ele>
        <time>2023-10-06T12:43:39Z</time>
      </trkpt>
      <trkpt lat="49.88395" lon="2.33976">
        <ele>25.4</ele>
        <time>2023-10-06T12:43:40Z</time>
      </trkpt>
      <trkpt lat="49.88394" lon="2.33978">
        <ele>25.4</ele>
        <time>2023-10-06T12:43:41Z</time>
      </trkpt>
      <trkpt lat="49.88393" lon="2.33979">
        <ele>25.4</ele>
        <time>2023-10-06T12:43:42Z</time>
      </trkpt>
      <trkpt lat="49.88392" lon="2.3398">
        <ele>25.4</ele>
        <time>2023-10-06T12:43:43Z</time>
      </trkpt>
      <trkpt lat="49.88391" lon="2.33982">
        <ele>25.4</ele>
        <time>2023-10-06T12:43:44Z</time>
      </trkpt>
      <trkpt lat="49.8839" lon="2.33983">
        <ele>25.4</ele>
        <time>2023-10-06T12:43:45Z</time>
      </trkpt>
      <trkpt lat="49.8839" lon="2.33983">
        <ele>25.4</ele>
        <time>2023-10-06T12:43:46Z</time>
      </trkpt>
      <trkpt lat="49.88389" lon="2.33984">
        <ele>25.4</ele>
        <time>2023-10-06T12:43:47Z</time>
      </trkpt>
      <trkpt lat="49.88388" lon="2.33985">
        <ele>25.4</ele>
        <time>2023-10-06T12:43:48Z</time>
      </trkpt>
      <trkpt lat="49.88387" lon="2.33987">
        <ele>25.4</ele>
        <time>2023-10-06T12:43:49Z</time>
      </trkpt>
      <trkpt lat="49.88386" lon="2.33988">
        <ele>25.4</ele>
        <time>2023-10-06T12:43:50Z</time>
      </trkpt>
      <trkpt lat="49.88385" lon="2.33989">
        <ele>25.4</ele>
        <time>2023-10-06T12:43:51Z</time>
      </trkpt>
      <trkpt lat="49.88384" lon="2.3399">
        <ele>25.4</ele>
        <time>2023-10-06T12:43:52Z</time>
      </trkpt>
      <trkpt lat="49.88383" lon="2.33991">
        <ele>25.4</ele>
        <time>2023-10-06T12:43:53Z</time>
      </trkpt>
      <trkpt lat="49.88383" lon="2.33992">
        <ele>25.4</ele>
        <time>2023-10-06T12:43:54Z</time>
      </trkpt>
      <trkpt lat="49.88382" lon="2.33993">
        <ele>25.4</ele>
        <time>2023-10-06T12:43:55Z</time>
      </trkpt>
      <trkpt lat="49.88381" lon="2.33994">
        <ele>25.4</ele>
        <time>2023-10-06T12:43:56Z</time>
      </trkpt>
      <trkpt lat="49.8838" lon="2.33995">
        <ele>25.4</ele>
        <time>2023-10-06T12:43:57Z</time>
      </trkpt>
      <trkpt lat="49.88379" lon="2.33996">
        <ele>25.4</ele>
        <time>2023-10-06T12:43:58Z</time>
      </trkpt>
      <trkpt lat="49.88378" lon="2.33998">
        <ele>25.4</ele>
        <time>2023-10-06T12:43:59Z</time>
      </trkpt>
      <trkpt lat="49.88378" lon="2.33999">
        <ele>25.4</ele>
        <time>2023-10-06T12:44:00Z</time>
      </trkpt>
      <trkpt lat="49.88377" lon="2.34">
        <ele>25.4</ele>
        <time>2023-10-06T12:44:01Z</time>
      </trkpt>
      <trkpt lat="49.88376" lon="2.34001">
        <ele>25.4</ele>
        <time>2023-10-06T12:44:02Z</time>
      </trkpt>
      <trkpt lat="49.88375" lon="2.34002">
        <ele>25.4</ele>
        <time>2023-10-06T12:44:03Z</time>
      </trkpt>
      <trkpt lat="49.88375" lon="2.34003">
        <ele>25.4</ele>
        <time>2023-10-06T12:44:04Z</time>
      </trkpt>
      <trkpt lat="49.88374" lon="2.34005">
        <ele>25.4</ele>
        <time>2023-10-06T12:44:05Z</time>
      </trkpt>
      <trkpt lat="49.88373" lon="2.34006">
        <ele>25.4</ele>
        <time>2023-10-06T12:44:06Z</time>
      </trkpt>
      <trkpt lat="49.88373" lon="2.34007">
        <ele>25.4</ele>
        <time>2023-10-06T12:44:07Z</time>
      </trkpt>
      <trkpt lat="49.88372" lon="2.34009">
        <ele>25.4</ele>
        <time>2023-10-06T12:44:08Z</time>
      </trkpt>
      <trkpt lat="49.88371" lon="2.3401">
        <ele>25.4</ele>
        <time>2023-10-06T12:44:09Z</time>
      </trkpt>
      <trkpt lat="49.88371" lon="2.34011">
        <ele>25.4</ele>
        <time>2023-10-06T12:44:10Z</time>
      </trkpt>
      <trkpt lat="49.8837" lon="2.34013">
        <ele>25.4</ele>
        <time>2023-10-06T12:44:11Z</time>
      </trkpt>
      <trkpt lat="49.8837" lon="2.34014">
        <ele>25.4</ele>
        <time>2023-10-06T12:44:12Z</time>
      </trkpt>
      <trkpt lat="49.88369" lon="2.34016">
        <ele>25.4</ele>
        <time>2023-10-06T12:44:13Z</time>
      </trkpt>
      <trkpt lat="49.88369" lon="2.34017">
        <ele>25.4</ele>
        <time>2023-10-06T12:44:14Z</time>
      </trkpt>
      <trkpt lat="49.88368" lon="2.34019">
        <ele>25.4</ele>
        <time>2023-10-06T12:44:15Z</time>
      </trkpt>
      <trkpt lat="49.88368" lon="2.3402">
        <ele>25.4</ele>
        <time>2023-10-06T12:44:16Z</time>
      </trkpt>
      <trkpt lat="49.88367" lon="2.34024">
        <ele>25.4</ele>
        <time>2023-10-06T12:44:17Z</time>
      </trkpt>
      <trkpt lat="49.88367" lon="2.34025">
        <ele>25.4</ele>
        <time>2023-10-06T12:44:18Z</time>
      </trkpt>
      <trkpt lat="49.88366" lon="2.34026">
        <ele>25.4</ele>
        <time>2023-10-06T12:44:19Z</time>
      </trkpt>
      <trkpt lat="49.88366" lon="2.34028">
        <ele>25.4</ele>
        <time>2023-10-06T12:44:20Z</time>
      </trkpt>
      <trkpt lat="49.88365" lon="2.3403">
        <ele>25.4</ele>
        <time>2023-10-06T12:44:21Z</time>
      </trkpt>
      <trkpt lat="49.88365" lon="2.34032">
        <ele>25.4</ele>
        <time>2023-10-06T12:44:22Z</time>
      </trkpt>
      <trkpt lat="49.88364" lon="2.34034">
        <ele>25.4</ele>
        <time>2023-10-06T12:44:23Z</time>
      </trkpt>
      <trkpt lat="49.88363" lon="2.34037">
        <ele>25.4</ele>
        <time>2023-10-06T12:44:24Z</time>
      </trkpt>
      <trkpt lat="49.88363" lon="2.34038">
        <ele>25.4</ele>
        <time>2023-10-06T12:44:25Z</time>
      </trkpt>
      <trkpt lat="49.88363" lon="2.3404">
        <ele>25.4</ele>
        <time>2023-10-06T12:44:26Z</time>
      </trkpt>
      <trkpt lat="49.88362" lon="2.34043">
        <ele>25.4</ele>
        <time>2023-10-06T12:44:27Z</time>
      </trkpt>
      <trkpt lat="49.88361" lon="2.34044">
        <ele>25.4</ele>
        <time>2023-10-06T12:44:28Z</time>
      </trkpt>
      <trkpt lat="49.88361" lon="2.34045">
        <ele>25.4</ele>
        <time>2023-10-06T12:44:29Z</time>
      </trkpt>
      <trkpt lat="49.88361" lon="2.34046">
        <ele>25.4</ele>
        <time>2023-10-06T12:44:30Z</time>
      </trkpt>
      <trkpt lat="49.8836" lon="2.34048">
        <ele>25.4</ele>
        <time>2023-10-06T12:44:31Z</time>
      </trkpt>
      <trkpt lat="49.8836" lon="2.3405">
        <ele>25.4</ele>
        <time>2023-10-06T12:44:32Z</time>
      </trkpt>
      <trkpt lat="49.88359" lon="2.34051">
        <ele>25.4</ele>
        <time>2023-10-06T12:44:33Z</time>
      </trkpt>
      <trkpt lat="49.88359" lon="2.34053">
        <ele>25.4</ele>
        <time>2023-10-06T12:44:34Z</time>
      </trkpt>
      <trkpt lat="49.88359" lon="2.34054">
        <ele>25.5</ele>
        <time>2023-10-06T12:44:35Z</time>
      </trkpt>
      <trkpt lat="49.88358" lon="2.34056">
        <ele>25.5</ele>
        <time>2023-10-06T12:44:36Z</time>
      </trkpt>
      <trkpt lat="49.88358" lon="2.34057">
        <ele>25.5</ele>
        <time>2023-10-06T12:44:37Z</time>
      </trkpt>
      <trkpt lat="49.88357" lon="2.34059">
        <ele>25.5</ele>
        <time>2023-10-06T12:44:38Z</time>
      </trkpt>
      <trkpt lat="49.88357" lon="2.34061">
        <ele>25.5</ele>
        <time>2023-10-06T12:44:39Z</time>
      </trkpt>
      <trkpt lat="49.88356" lon="2.34062">
        <ele>25.5</ele>
        <time>2023-10-06T12:44:40Z</time>
      </trkpt>
      <trkpt lat="49.88356" lon="2.34064">
        <ele>25.5</ele>
        <time>2023-10-06T12:44:41Z</time>
      </trkpt>
      <trkpt lat="49.88355" lon="2.34066">
        <ele>25.5</ele>
        <time>2023-10-06T12:44:42Z</time>
      </trkpt>
      <trkpt lat="49.88355" lon="2.34067">
        <ele>25.5</ele>
        <time>2023-10-06T12:44:43Z</time>
      </trkpt>
      <trkpt lat="49.88354" lon="2.34069">
        <ele>25.5</ele>
        <time>2023-10-06T12:44:44Z</time>
      </trkpt>
      <trkpt lat="49.88354" lon="2.34071">
        <ele>25.5</ele>
        <time>2023-10-06T12:44:45Z</time>
      </trkpt>
      <trkpt lat="49.88354" lon="2.34072">
        <ele>25.5</ele>
        <time>2023-10-06T12:44:46Z</time>
      </trkpt>
      <trkpt lat="49.88353" lon="2.34074">
        <ele>25.5</ele>
        <time>2023-10-06T12:44:47Z</time>
      </trkpt>
      <trkpt lat="49.88353" lon="2.34075">
        <ele>25.5</ele>
        <time>2023-10-06T12:44:48Z</time>
      </trkpt>
      <trkpt lat="49.88352" lon="2.34077">
        <ele>25.5</ele>
        <time>2023-10-06T12:44:49Z</time>
      </trkpt>
      <trkpt lat="49.88352" lon="2.34078">
        <ele>25.5</ele>
        <time>2023-10-06T12:44:50Z</time>
      </trkpt>
      <trkpt lat="49.88351" lon="2.3408">
        <ele>25.5</ele>
        <time>2023-10-06T12:44:51Z</time>
      </trkpt>
      <trkpt lat="49.88351" lon="2.34081">
        <ele>25.5</ele>
        <time>2023-10-06T12:44:52Z</time>
      </trkpt>
      <trkpt lat="49.8835" lon="2.34083">
        <ele>25.5</ele>
        <time>2023-10-06T12:44:53Z</time>
      </trkpt>
      <trkpt lat="49.8835" lon="2.34084">
        <ele>25.5</ele>
        <time>2023-10-06T12:44:54Z</time>
      </trkpt>
      <trkpt lat="49.88349" lon="2.34085">
        <ele>25.5</ele>
        <time>2023-10-06T12:44:55Z</time>
      </trkpt>
      <trkpt lat="49.88349" lon="2.34087">
        <ele>25.5</ele>
        <time>2023-10-06T12:44:56Z</time>
      </trkpt>
      <trkpt lat="49.88348" lon="2.34089">
        <ele>25.5</ele>
        <time>2023-10-06T12:44:57Z</time>
      </trkpt>
      <trkpt lat="49.88348" lon="2.3409">
        <ele>25.5</ele>
        <time>2023-10-06T12:44:58Z</time>
      </trkpt>
      <trkpt lat="49.88348" lon="2.34092">
        <ele>25.5</ele>
        <time>2023-10-06T12:44:59Z</time>
      </trkpt>
      <trkpt lat="49.88347" lon="2.34095">
        <ele>25.5</ele>
        <time>2023-10-06T12:45:00Z</time>
      </trkpt>
      <trkpt lat="49.88347" lon="2.34096">
        <ele>25.5</ele>
        <time>2023-10-06T12:45:01Z</time>
      </trkpt>
      <trkpt lat="49.88346" lon="2.34097">
        <ele>25.4</ele>
        <time>2023-10-06T12:45:02Z</time>
      </trkpt>
      <trkpt lat="49.88346" lon="2.341">
        <ele>25.4</ele>
        <time>2023-10-06T12:45:03Z</time>
      </trkpt>
      <trkpt lat="49.88345" lon="2.34101">
        <ele>25.4</ele>
        <time>2023-10-06T12:45:04Z</time>
      </trkpt>
      <trkpt lat="49.88345" lon="2.34103">
        <ele>25.4</ele>
        <time>2023-10-06T12:45:05Z</time>
      </trkpt>
      <trkpt lat="49.88344" lon="2.34106">
        <ele>25.4</ele>
        <time>2023-10-06T12:45:06Z</time>
      </trkpt>
      <trkpt lat="49.88344" lon="2.34107">
        <ele>25.4</ele>
        <time>2023-10-06T12:45:07Z</time>
      </trkpt>
      <trkpt lat="49.88344" lon="2.34108">
        <ele>25.4</ele>
        <time>2023-10-06T12:45:08Z</time>
      </trkpt>
      <trkpt lat="49.88343" lon="2.34111">
        <ele>25.4</ele>
        <time>2023-10-06T12:45:09Z</time>
      </trkpt>
      <trkpt lat="49.88343" lon="2.34112">
        <ele>25.4</ele>
        <time>2023-10-06T12:45:10Z</time>
      </trkpt>
      <trkpt lat="49.88343" lon="2.34114">
        <ele>25.4</ele>
        <time>2023-10-06T12:45:11Z</time>
      </trkpt>
      <trkpt lat="49.88342" lon="2.34115">
        <ele>25.4</ele>
        <time>2023-10-06T12:45:12Z</time>
      </trkpt>
      <trkpt lat="49.88342" lon="2.34117">
        <ele>25.4</ele>
        <time>2023-10-06T12:45:13Z</time>
      </trkpt>
      <trkpt lat="49.88342" lon="2.34118">
        <ele>25.4</ele>
        <time>2023-10-06T12:45:14Z</time>
      </trkpt>
      <trkpt lat="49.88341" lon="2.3412">
        <ele>25.4</ele>
        <time>2023-10-06T12:45:15Z</time>
      </trkpt>
      <trkpt lat="49.88341" lon="2.34122">
        <ele>25.4</ele>
        <time>2023-10-06T12:45:16Z</time>
      </trkpt>
      <trkpt lat="49.88341" lon="2.34123">
        <ele>25.4</ele>
        <time>2023-10-06T12:45:17Z</time>
      </trkpt>
      <trkpt lat="49.8834" lon="2.34125">
        <ele>25.4</ele>
        <time>2023-10-06T12:45:18Z</time>
      </trkpt>
      <trkpt lat="49.8834" lon="2.34127">
        <ele>25.4</ele>
        <time>2023-10-06T12:45:19Z</time>
      </trkpt>
      <trkpt lat="49.8834" lon="2.34129">
        <ele>25.4</ele>
        <time>2023-10-06T12:45:20Z</time>
      </trkpt>
      <trkpt lat="49.88339" lon="2.3413">
        <ele>25.4</ele>
        <time>2023-10-06T12:45:21Z</time>
      </trkpt>
      <trkpt lat="49.88339" lon="2.34132">
        <ele>25.4</ele>
        <time>2023-10-06T12:45:22Z</time>
      </trkpt>
      <trkpt lat="49.88339" lon="2.34134">
        <ele>25.4</ele>
        <time>2023-10-06T12:45:23Z</time>
      </trkpt>
      <trkpt lat="49.88339" lon="2.34135">
        <ele>25.4</ele>
        <time>2023-10-06T12:45:24Z</time>
      </trkpt>
      <trkpt lat="49.88339" lon="2.34137">
        <ele>25.4</ele>
        <time>2023-10-06T12:45:25Z</time>
      </trkpt>
      <trkpt lat="49.88339" lon="2.34139">
        <ele>25.4</ele>
        <time>2023-10-06T12:45:26Z</time>
      </trkpt>
      <trkpt lat="49.88339" lon="2.3414">
        <ele>25.4</ele>
        <time>2023-10-06T12:45:27Z</time>
      </trkpt>
      <trkpt lat="49.88338" lon="2.34142">
        <ele>25.4</ele>
        <time>2023-10-06T12:45:28Z</time>
      </trkpt>
      <trkpt lat="49.88338" lon="2.34143">
        <ele>25.4</ele>
        <time>2023-10-06T12:45:29Z</time>
      </trkpt>
      <trkpt lat="49.88338" lon="2.34145">
        <ele>25.4</ele>
        <time>2023-10-06T12:45:30Z</time>
      </trkpt>
      <trkpt lat="49.88337" lon="2.34147">
        <ele>25.4</ele>
        <time>2023-10-06T12:45:31Z</time>
      </trkpt>
      <trkpt lat="49.88337" lon="2.34148">
        <ele>25.4</ele>
        <time>2023-10-06T12:45:32Z</time>
      </trkpt>
      <trkpt lat="49.88337" lon="2.3415">
        <ele>25.4</ele>
        <time>2023-10-06T12:45:33Z</time>
      </trkpt>
      <trkpt lat="49.88336" lon="2.34152">
        <ele>25.4</ele>
        <time>2023-10-06T12:45:34Z</time>
      </trkpt>
      <trkpt lat="49.88336" lon="2.34154">
        <ele>25.4</ele>
        <time>2023-10-06T12:45:35Z</time>
      </trkpt>
      <trkpt lat="49.88335" lon="2.34155">
        <ele>25.4</ele>
        <time>2023-10-06T12:45:36Z</time>
      </trkpt>
      <trkpt lat="49.88335" lon="2.34157">
        <ele>25.4</ele>
        <time>2023-10-06T12:45:37Z</time>
      </trkpt>
      <trkpt lat="49.88335" lon="2.34159">
        <ele>25.4</ele>
        <time>2023-10-06T12:45:38Z</time>
      </trkpt>
      <trkpt lat="49.88335" lon="2.34161">
        <ele>25.4</ele>
        <time>2023-10-06T12:45:39Z</time>
      </trkpt>
      <trkpt lat="49.88334" lon="2.34162">
        <ele>25.4</ele>
        <time>2023-10-06T12:45:40Z</time>
      </trkpt>
      <trkpt lat="49.88334" lon="2.34164">
        <ele>25.4</ele>
        <time>2023-10-06T12:45:41Z</time>
      </trkpt>
      <trkpt lat="49.88334" lon="2.34166">
        <ele>25.5</ele>
        <time>2023-10-06T12:45:42Z</time>
      </trkpt>
      <trkpt lat="49.88333" lon="2.34167">
        <ele>25.5</ele>
        <time>2023-10-06T12:45:43Z</time>
      </trkpt>
      <trkpt lat="49.88333" lon="2.34168">
        <ele>25.5</ele>
        <time>2023-10-06T12:45:44Z</time>
      </trkpt>
      <trkpt lat="49.88332" lon="2.3417">
        <ele>25.5</ele>
        <time>2023-10-06T12:45:45Z</time>
      </trkpt>
      <trkpt lat="49.88332" lon="2.34171">
        <ele>25.5</ele>
        <time>2023-10-06T12:45:46Z</time>
      </trkpt>
      <trkpt lat="49.88332" lon="2.34173">
        <ele>25.5</ele>
        <time>2023-10-06T12:45:47Z</time>
      </trkpt>
      <trkpt lat="49.88331" lon="2.34176">
        <ele>25.5</ele>
        <time>2023-10-06T12:45:48Z</time>
      </trkpt>
      <trkpt lat="49.88331" lon="2.34177">
        <ele>25.5</ele>
        <time>2023-10-06T12:45:49Z</time>
      </trkpt>
      <trkpt lat="49.8833" lon="2.34179">
        <ele>25.5</ele>
        <time>2023-10-06T12:45:50Z</time>
      </trkpt>
      <trkpt lat="49.88329" lon="2.34182">
        <ele>25.5</ele>
        <time>2023-10-06T12:45:51Z</time>
      </trkpt>
      <trkpt lat="49.88329" lon="2.34183">
        <ele>25.5</ele>
        <time>2023-10-06T12:45:52Z</time>
      </trkpt>
      <trkpt lat="49.88329" lon="2.34184">
        <ele>25.5</ele>
        <time>2023-10-06T12:45:53Z</time>
      </trkpt>
      <trkpt lat="49.88329" lon="2.34185">
        <ele>25.5</ele>
        <time>2023-10-06T12:45:54Z</time>
      </trkpt>
      <trkpt lat="49.88328" lon="2.34187">
        <ele>25.5</ele>
        <time>2023-10-06T12:45:55Z</time>
      </trkpt>
      <trkpt lat="49.88328" lon="2.34188">
        <ele>25.5</ele>
        <time>2023-10-06T12:45:56Z</time>
      </trkpt>
      <trkpt lat="49.88327" lon="2.3419">
        <ele>25.5</ele>
        <time>2023-10-06T12:45:57Z</time>
      </trkpt>
      <trkpt lat="49.88327" lon="2.34191">
        <ele>25.5</ele>
        <time>2023-10-06T12:45:58Z</time>
      </trkpt>
      <trkpt lat="49.88327" lon="2.34193">
        <ele>25.5</ele>
        <time>2023-10-06T12:45:59Z</time>
      </trkpt>
      <trkpt lat="49.88326" lon="2.34194">
        <ele>25.5</ele>
        <time>2023-10-06T12:46:00Z</time>
      </trkpt>
      <trkpt lat="49.88326" lon="2.34196">
        <ele>25.5</ele>
        <time>2023-10-06T12:46:01Z</time>
      </trkpt>
      <trkpt lat="49.88325" lon="2.34197">
        <ele>25.5</ele>
        <time>2023-10-06T12:46:02Z</time>
      </trkpt>
      <trkpt lat="49.88325" lon="2.34199">
        <ele>25.5</ele>
        <time>2023-10-06T12:46:03Z</time>
      </trkpt>
      <trkpt lat="49.88324" lon="2.34201">
        <ele>25.5</ele>
        <time>2023-10-06T12:46:04Z</time>
      </trkpt>
      <trkpt lat="49.88324" lon="2.34202">
        <ele>25.5</ele>
        <time>2023-10-06T12:46:05Z</time>
      </trkpt>
      <trkpt lat="49.88323" lon="2.34204">
        <ele>25.5</ele>
        <time>2023-10-06T12:46:06Z</time>
      </trkpt>
      <trkpt lat="49.88323" lon="2.34206">
        <ele>25.6</ele>
        <time>2023-10-06T12:46:07Z</time>
      </trkpt>
      <trkpt lat="49.88322" lon="2.34207">
        <ele>25.6</ele>
        <time>2023-10-06T12:46:08Z</time>
      </trkpt>
      <trkpt lat="49.88322" lon="2.34209">
        <ele>25.6</ele>
        <time>2023-10-06T12:46:09Z</time>
      </trkpt>
      <trkpt lat="49.88322" lon="2.34211">
        <ele>25.6</ele>
        <time>2023-10-06T12:46:10Z</time>
      </trkpt>
      <trkpt lat="49.88321" lon="2.34212">
        <ele>25.6</ele>
        <time>2023-10-06T12:46:11Z</time>
      </trkpt>
      <trkpt lat="49.88321" lon="2.34214">
        <ele>25.6</ele>
        <time>2023-10-06T12:46:12Z</time>
      </trkpt>
      <trkpt lat="49.88321" lon="2.34216">
        <ele>25.6</ele>
        <time>2023-10-06T12:46:13Z</time>
      </trkpt>
      <trkpt lat="49.8832" lon="2.34217">
        <ele>25.6</ele>
        <time>2023-10-06T12:46:14Z</time>
      </trkpt>
      <trkpt lat="49.8832" lon="2.34219">
        <ele>25.6</ele>
        <time>2023-10-06T12:46:15Z</time>
      </trkpt>
      <trkpt lat="49.8832" lon="2.3422">
        <ele>25.6</ele>
        <time>2023-10-06T12:46:16Z</time>
      </trkpt>
      <trkpt lat="49.88319" lon="2.34221">
        <ele>25.6</ele>
        <time>2023-10-06T12:46:17Z</time>
      </trkpt>
      <trkpt lat="49.88319" lon="2.34223">
        <ele>25.6</ele>
        <time>2023-10-06T12:46:18Z</time>
      </trkpt>
      <trkpt lat="49.88318" lon="2.34225">
        <ele>25.6</ele>
        <time>2023-10-06T12:46:19Z</time>
      </trkpt>
      <trkpt lat="49.88318" lon="2.34226">
        <ele>25.6</ele>
        <time>2023-10-06T12:46:20Z</time>
      </trkpt>
      <trkpt lat="49.88317" lon="2.34229">
        <ele>25.7</ele>
        <time>2023-10-06T12:46:21Z</time>
      </trkpt>
      <trkpt lat="49.88317" lon="2.3423">
        <ele>25.7</ele>
        <time>2023-10-06T12:46:22Z</time>
      </trkpt>
      <trkpt lat="49.88317" lon="2.34232">
        <ele>25.7</ele>
        <time>2023-10-06T12:46:23Z</time>
      </trkpt>
      <trkpt lat="49.88316" lon="2.34235">
        <ele>25.7</ele>
        <time>2023-10-06T12:46:24Z</time>
      </trkpt>
      <trkpt lat="49.88316" lon="2.34236">
        <ele>25.7</ele>
        <time>2023-10-06T12:46:25Z</time>
      </trkpt>
      <trkpt lat="49.88316" lon="2.34237">
        <ele>25.7</ele>
        <time>2023-10-06T12:46:26Z</time>
      </trkpt>
      <trkpt lat="49.88315" lon="2.34239">
        <ele>25.7</ele>
        <time>2023-10-06T12:46:27Z</time>
      </trkpt>
      <trkpt lat="49.88315" lon="2.3424">
        <ele>25.7</ele>
        <time>2023-10-06T12:46:28Z</time>
      </trkpt>
      <trkpt lat="49.88315" lon="2.34242">
        <ele>25.7</ele>
        <time>2023-10-06T12:46:29Z</time>
      </trkpt>
      <trkpt lat="49.88314" lon="2.34244">
        <ele>25.7</ele>
        <time>2023-10-06T12:46:30Z</time>
      </trkpt>
      <trkpt lat="49.88314" lon="2.34245">
        <ele>25.7</ele>
        <time>2023-10-06T12:46:31Z</time>
      </trkpt>
      <trkpt lat="49.88313" lon="2.34247">
        <ele>25.7</ele>
        <time>2023-10-06T12:46:32Z</time>
      </trkpt>
      <trkpt lat="49.88313" lon="2.34249">
        <ele>25.7</ele>
        <time>2023-10-06T12:46:33Z</time>
      </trkpt>
      <trkpt lat="49.88313" lon="2.34251">
        <ele>25.7</ele>
        <time>2023-10-06T12:46:34Z</time>
      </trkpt>
      <trkpt lat="49.88312" lon="2.34252">
        <ele>25.7</ele>
        <time>2023-10-06T12:46:35Z</time>
      </trkpt>
      <trkpt lat="49.88312" lon="2.34254">
        <ele>25.7</ele>
        <time>2023-10-06T12:46:36Z</time>
      </trkpt>
      <trkpt lat="49.88311" lon="2.34255">
        <ele>25.7</ele>
        <time>2023-10-06T12:46:37Z</time>
      </trkpt>
      <trkpt lat="49.88311" lon="2.34255">
        <ele>25.7</ele>
        <time>2023-10-06T12:46:38Z</time>
      </trkpt>
      <trkpt lat="49.8831" lon="2.34255">
        <ele>25.7</ele>
        <time>2023-10-06T12:46:39Z</time>
      </trkpt>
      <trkpt lat="49.88309" lon="2.34255">
        <ele>25.7</ele>
        <time>2023-10-06T12:46:40Z</time>
      </trkpt>
      <trkpt lat="49.88308" lon="2.34254">
        <ele>25.7</ele>
        <time>2023-10-06T12:46:41Z</time>
      </trkpt>
      <trkpt lat="49.88308" lon="2.34254">
        <ele>25.7</ele>
        <time>2023-10-06T12:46:42Z</time>
      </trkpt>
      <trkpt lat="49.88308" lon="2.34254">
        <ele>25.7</ele>
        <time>2023-10-06T12:46:43Z</time>
      </trkpt>
      <trkpt lat="49.88308" lon="2.34254">
        <ele>25.7</ele>
        <time>2023-10-06T12:46:44Z</time>
      </trkpt>
      <trkpt lat="49.88308" lon="2.34255">
        <ele>25.7</ele>
        <time>2023-10-06T12:46:45Z</time>
      </trkpt>
      <trkpt lat="49.88308" lon="2.34255">
        <ele>25.7</ele>
        <time>2023-10-06T12:46:46Z</time>
      </trkpt>
      <trkpt lat="49.88309" lon="2.34256">
        <ele>25.7</ele>
        <time>2023-10-06T12:46:47Z</time>
      </trkpt>
      <trkpt lat="49.88309" lon="2.34257">
        <ele>25.7</ele>
        <time>2023-10-06T12:46:48Z</time>
      </trkpt>
      <trkpt lat="49.88309" lon="2.34258">
        <ele>25.7</ele>
        <time>2023-10-06T12:46:49Z</time>
      </trkpt>
      <trkpt lat="49.88309" lon="2.34259">
        <ele>25.7</ele>
        <time>2023-10-06T12:46:50Z</time>
      </trkpt>
      <trkpt lat="49.88309" lon="2.3426">
        <ele>25.7</ele>
        <time>2023-10-06T12:46:51Z</time>
      </trkpt>
      <trkpt lat="49.88309" lon="2.34261">
        <ele>25.7</ele>
        <time>2023-10-06T12:46:52Z</time>
      </trkpt>
      <trkpt lat="49.88309" lon="2.34262">
        <ele>25.7</ele>
        <time>2023-10-06T12:46:53Z</time>
      </trkpt>
      <trkpt lat="49.8831" lon="2.34263">
        <ele>25.7</ele>
        <time>2023-10-06T12:46:54Z</time>
      </trkpt>
      <trkpt lat="49.8831" lon="2.34265">
        <ele>25.7</ele>
        <time>2023-10-06T12:46:55Z</time>
      </trkpt>
      <trkpt lat="49.8831" lon="2.34266">
        <ele>25.7</ele>
        <time>2023-10-06T12:46:56Z</time>
      </trkpt>
      <trkpt lat="49.8831" lon="2.34267">
        <ele>25.7</ele>
        <time>2023-10-06T12:46:57Z</time>
      </trkpt>
      <trkpt lat="49.8831" lon="2.34269">
        <ele>25.6</ele>
        <time>2023-10-06T12:46:58Z</time>
      </trkpt>
      <trkpt lat="49.8831" lon="2.3427">
        <ele>25.6</ele>
        <time>2023-10-06T12:46:59Z</time>
      </trkpt>
      <trkpt lat="49.8831" lon="2.34272">
        <ele>25.6</ele>
        <time>2023-10-06T12:47:00Z</time>
      </trkpt>
      <trkpt lat="49.8831" lon="2.34274">
        <ele>25.6</ele>
        <time>2023-10-06T12:47:01Z</time>
      </trkpt>
      <trkpt lat="49.88309" lon="2.34276">
        <ele>25.6</ele>
        <time>2023-10-06T12:47:02Z</time>
      </trkpt>
      <trkpt lat="49.88309" lon="2.34277">
        <ele>25.6</ele>
        <time>2023-10-06T12:47:03Z</time>
      </trkpt>
      <trkpt lat="49.88309" lon="2.34279">
        <ele>25.6</ele>
        <time>2023-10-06T12:47:04Z</time>
      </trkpt>
      <trkpt lat="49.88309" lon="2.34281">
        <ele>25.6</ele>
        <time>2023-10-06T12:47:05Z</time>
      </trkpt>
      <trkpt lat="49.88309" lon="2.34282">
        <ele>25.6</ele>
        <time>2023-10-06T12:47:06Z</time>
      </trkpt>
      <trkpt lat="49.88308" lon="2.34284">
        <ele>25.6</ele>
        <time>2023-10-06T12:47:07Z</time>
      </trkpt>
      <trkpt lat="49.88308" lon="2.34286">
        <ele>25.5</ele>
        <time>2023-10-06T12:47:08Z</time>
      </trkpt>
      <trkpt lat="49.88308" lon="2.34287">
        <ele>25.5</ele>
        <time>2023-10-06T12:47:09Z</time>
      </trkpt>
      <trkpt lat="49.88307" lon="2.34289">
        <ele>25.5</ele>
        <time>2023-10-06T12:47:10Z</time>
      </trkpt>
      <trkpt lat="49.88307" lon="2.34291">
        <ele>25.5</ele>
        <time>2023-10-06T12:47:11Z</time>
      </trkpt>
      <trkpt lat="49.88307" lon="2.34292">
        <ele>25.5</ele>
        <time>2023-10-06T12:47:12Z</time>
      </trkpt>
      <trkpt lat="49.88306" lon="2.34294">
        <ele>25.5</ele>
        <time>2023-10-06T12:47:13Z</time>
      </trkpt>
      <trkpt lat="49.88306" lon="2.34296">
        <ele>25.5</ele>
        <time>2023-10-06T12:47:14Z</time>
      </trkpt>
      <trkpt lat="49.88305" lon="2.34298">
        <ele>25.5</ele>
        <time>2023-10-06T12:47:15Z</time>
      </trkpt>
      <trkpt lat="49.88305" lon="2.34299">
        <ele>25.5</ele>
        <time>2023-10-06T12:47:16Z</time>
      </trkpt>
      <trkpt lat="49.88305" lon="2.34301">
        <ele>25.5</ele>
        <time>2023-10-06T12:47:17Z</time>
      </trkpt>
      <trkpt lat="49.88305" lon="2.34302">
        <ele>25.5</ele>
        <time>2023-10-06T12:47:18Z</time>
      </trkpt>
      <trkpt lat="49.88304" lon="2.34304">
        <ele>25.5</ele>
        <time>2023-10-06T12:47:19Z</time>
      </trkpt>
      <trkpt lat="49.88304" lon="2.34305">
        <ele>25.4</ele>
        <time>2023-10-06T12:47:20Z</time>
      </trkpt>
      <trkpt lat="49.88304" lon="2.34307">
        <ele>25.4</ele>
        <time>2023-10-06T12:47:21Z</time>
      </trkpt>
      <trkpt lat="49.88303" lon="2.34308">
        <ele>25.4</ele>
        <time>2023-10-06T12:47:22Z</time>
      </trkpt>
      <trkpt lat="49.88303" lon="2.3431">
        <ele>25.4</ele>
        <time>2023-10-06T12:47:23Z</time>
      </trkpt>
      <trkpt lat="49.88303" lon="2.34312">
        <ele>25.4</ele>
        <time>2023-10-06T12:47:24Z</time>
      </trkpt>
      <trkpt lat="49.88302" lon="2.34314">
        <ele>25.4</ele>
        <time>2023-10-06T12:47:25Z</time>
      </trkpt>
      <trkpt lat="49.88302" lon="2.34317">
        <ele>25.4</ele>
        <time>2023-10-06T12:47:26Z</time>
      </trkpt>
      <trkpt lat="49.88302" lon="2.34318">
        <ele>25.4</ele>
        <time>2023-10-06T12:47:27Z</time>
      </trkpt>
      <trkpt lat="49.88302" lon="2.34319">
        <ele>25.4</ele>
        <time>2023-10-06T12:47:28Z</time>
      </trkpt>
      <trkpt lat="49.88301" lon="2.34322">
        <ele>25.4</ele>
        <time>2023-10-06T12:47:29Z</time>
      </trkpt>
      <trkpt lat="49.88301" lon="2.34324">
        <ele>25.4</ele>
        <time>2023-10-06T12:47:30Z</time>
      </trkpt>
      <trkpt lat="49.88301" lon="2.34325">
        <ele>25.4</ele>
        <time>2023-10-06T12:47:31Z</time>
      </trkpt>
      <trkpt lat="49.883" lon="2.34328">
        <ele>25.4</ele>
        <time>2023-10-06T12:47:32Z</time>
      </trkpt>
      <trkpt lat="49.883" lon="2.34329">
        <ele>25.4</ele>
        <time>2023-10-06T12:47:33Z</time>
      </trkpt>
      <trkpt lat="49.883" lon="2.3433">
        <ele>25.4</ele>
        <time>2023-10-06T12:47:34Z</time>
      </trkpt>
      <trkpt lat="49.883" lon="2.34332">
        <ele>25.4</ele>
        <time>2023-10-06T12:47:35Z</time>
      </trkpt>
      <trkpt lat="49.883" lon="2.34334">
        <ele>25.4</ele>
        <time>2023-10-06T12:47:36Z</time>
      </trkpt>
      <trkpt lat="49.88299" lon="2.34336">
        <ele>25.4</ele>
        <time>2023-10-06T12:47:37Z</time>
      </trkpt>
      <trkpt lat="49.88299" lon="2.34339">
        <ele>25.4</ele>
        <time>2023-10-06T12:47:38Z</time>
      </trkpt>
      <trkpt lat="49.88299" lon="2.3434">
        <ele>25.4</ele>
        <time>2023-10-06T12:47:39Z</time>
      </trkpt>
      <trkpt lat="49.88299" lon="2.34341">
        <ele>25.4</ele>
        <time>2023-10-06T12:47:40Z</time>
      </trkpt>
      <trkpt lat="49.88298" lon="2.34345">
        <ele>25.4</ele>
        <time>2023-10-06T12:47:41Z</time>
      </trkpt>
      <trkpt lat="49.88298" lon="2.34346">
        <ele>25.4</ele>
        <time>2023-10-06T12:47:42Z</time>
      </trkpt>
      <trkpt lat="49.88298" lon="2.34347">
        <ele>25.4</ele>
        <time>2023-10-06T12:47:43Z</time>
      </trkpt>
      <trkpt lat="49.88298" lon="2.34351">
        <ele>25.4</ele>
        <time>2023-10-06T12:47:44Z</time>
      </trkpt>
      <trkpt lat="49.88297" lon="2.34352">
        <ele>25.4</ele>
        <time>2023-10-06T12:47:45Z</time>
      </trkpt>
      <trkpt lat="49.88297" lon="2.34353">
        <ele>25.3</ele>
        <time>2023-10-06T12:47:46Z</time>
      </trkpt>
      <trkpt lat="49.88297" lon="2.34357">
        <ele>25.3</ele>
        <time>2023-10-06T12:47:47Z</time>
      </trkpt>
      <trkpt lat="49.88297" lon="2.34358">
        <ele>25.3</ele>
        <time>2023-10-06T12:47:48Z</time>
      </trkpt>
      <trkpt lat="49.88297" lon="2.34359">
        <ele>25.3</ele>
        <time>2023-10-06T12:47:49Z</time>
      </trkpt>
      <trkpt lat="49.88296" lon="2.34363">
        <ele>25.3</ele>
        <time>2023-10-06T12:47:50Z</time>
      </trkpt>
      <trkpt lat="49.88296" lon="2.34364">
        <ele>25.3</ele>
        <time>2023-10-06T12:47:51Z</time>
      </trkpt>
      <trkpt lat="49.88296" lon="2.34365">
        <ele>25.3</ele>
        <time>2023-10-06T12:47:52Z</time>
      </trkpt>
      <trkpt lat="49.88296" lon="2.34367">
        <ele>25.3</ele>
        <time>2023-10-06T12:47:53Z</time>
      </trkpt>
      <trkpt lat="49.88296" lon="2.34368">
        <ele>25.3</ele>
        <time>2023-10-06T12:47:54Z</time>
      </trkpt>
      <trkpt lat="49.88295" lon="2.3437">
        <ele>25.3</ele>
        <time>2023-10-06T12:47:55Z</time>
      </trkpt>
      <trkpt lat="49.88295" lon="2.34372">
        <ele>25.3</ele>
        <time>2023-10-06T12:47:56Z</time>
      </trkpt>
      <trkpt lat="49.88295" lon="2.34373">
        <ele>25.3</ele>
        <time>2023-10-06T12:47:57Z</time>
      </trkpt>
      <trkpt lat="49.88295" lon="2.34375">
        <ele>25.3</ele>
        <time>2023-10-06T12:47:58Z</time>
      </trkpt>
      <trkpt lat="49.88295" lon="2.34376">
        <ele>25.3</ele>
        <time>2023-10-06T12:47:59Z</time>
      </trkpt>
      <trkpt lat="49.88294" lon="2.34378">
        <ele>25.3</ele>
        <time>2023-10-06T12:48:00Z</time>
      </trkpt>
      <trkpt lat="49.88294" lon="2.3438">
        <ele>25.3</ele>
        <time>2023-10-06T12:48:01Z</time>
      </trkpt>
      <trkpt lat="49.88294" lon="2.34381">
        <ele>25.3</ele>
        <time>2023-10-06T12:48:02Z</time>
      </trkpt>
      <trkpt lat="49.88294" lon="2.34383">
        <ele>25.3</ele>
        <time>2023-10-06T12:48:03Z</time>
      </trkpt>
      <trkpt lat="49.88294" lon="2.34385">
        <ele>25.3</ele>
        <time>2023-10-06T12:48:04Z</time>
      </trkpt>
      <trkpt lat="49.88294" lon="2.34386">
        <ele>25.3</ele>
        <time>2023-10-06T12:48:05Z</time>
      </trkpt>
      <trkpt lat="49.88294" lon="2.34388">
        <ele>25.3</ele>
        <time>2023-10-06T12:48:06Z</time>
      </trkpt>
      <trkpt lat="49.88294" lon="2.34389">
        <ele>25.3</ele>
        <time>2023-10-06T12:48:07Z</time>
      </trkpt>
      <trkpt lat="49.88294" lon="2.34391">
        <ele>25.3</ele>
        <time>2023-10-06T12:48:08Z</time>
      </trkpt>
      <trkpt lat="49.88294" lon="2.34392">
        <ele>25.3</ele>
        <time>2023-10-06T12:48:09Z</time>
      </trkpt>
      <trkpt lat="49.88294" lon="2.34394">
        <ele>25.3</ele>
        <time>2023-10-06T12:48:10Z</time>
      </trkpt>
      <trkpt lat="49.88293" lon="2.34397">
        <ele>25.3</ele>
        <time>2023-10-06T12:48:11Z</time>
      </trkpt>
      <trkpt lat="49.88293" lon="2.34399">
        <ele>25.3</ele>
        <time>2023-10-06T12:48:12Z</time>
      </trkpt>
      <trkpt lat="49.88293" lon="2.344">
        <ele>25.3</ele>
        <time>2023-10-06T12:48:13Z</time>
      </trkpt>
      <trkpt lat="49.88293" lon="2.34403">
        <ele>25.3</ele>
        <time>2023-10-06T12:48:14Z</time>
      </trkpt>
      <trkpt lat="49.88293" lon="2.34404">
        <ele>25.3</ele>
        <time>2023-10-06T12:48:15Z</time>
      </trkpt>
      <trkpt lat="49.88293" lon="2.34406">
        <ele>25.3</ele>
        <time>2023-10-06T12:48:16Z</time>
      </trkpt>
      <trkpt lat="49.88293" lon="2.34409">
        <ele>25.3</ele>
        <time>2023-10-06T12:48:17Z</time>
      </trkpt>
      <trkpt lat="49.88293" lon="2.3441">
        <ele>25.3</ele>
        <time>2023-10-06T12:48:18Z</time>
      </trkpt>
      <trkpt lat="49.88293" lon="2.34411">
        <ele>25.3</ele>
        <time>2023-10-06T12:48:19Z</time>
      </trkpt>
      <trkpt lat="49.88292" lon="2.34413">
        <ele>25.3</ele>
        <time>2023-10-06T12:48:20Z</time>
      </trkpt>
      <trkpt lat="49.88292" lon="2.34415">
        <ele>25.3</ele>
        <time>2023-10-06T12:48:21Z</time>
      </trkpt>
      <trkpt lat="49.88292" lon="2.34417">
        <ele>25.3</ele>
        <time>2023-10-06T12:48:22Z</time>
      </trkpt>
      <trkpt lat="49.88292" lon="2.34419">
        <ele>25.3</ele>
        <time>2023-10-06T12:48:23Z</time>
      </trkpt>
      <trkpt lat="49.88292" lon="2.3442">
        <ele>25.3</ele>
        <time>2023-10-06T12:48:24Z</time>
      </trkpt>
      <trkpt lat="49.88292" lon="2.34422">
        <ele>25.3</ele>
        <time>2023-10-06T12:48:25Z</time>
      </trkpt>
      <trkpt lat="49.88292" lon="2.34423">
        <ele>25.3</ele>
        <time>2023-10-06T12:48:26Z</time>
      </trkpt>
      <trkpt lat="49.88291" lon="2.34425">
        <ele>25.3</ele>
        <time>2023-10-06T12:48:27Z</time>
      </trkpt>
      <trkpt lat="49.88291" lon="2.34427">
        <ele>25.3</ele>
        <time>2023-10-06T12:48:28Z</time>
      </trkpt>
      <trkpt lat="49.88291" lon="2.34429">
        <ele>25.3</ele>
        <time>2023-10-06T12:48:29Z</time>
      </trkpt>
      <trkpt lat="49.88291" lon="2.3443">
        <ele>25.3</ele>
        <time>2023-10-06T12:48:30Z</time>
      </trkpt>
      <trkpt lat="49.88291" lon="2.34432">
        <ele>25.3</ele>
        <time>2023-10-06T12:48:31Z</time>
      </trkpt>
      <trkpt lat="49.8829" lon="2.34434">
        <ele>25.3</ele>
        <time>2023-10-06T12:48:32Z</time>
      </trkpt>
      <trkpt lat="49.8829" lon="2.34435">
        <ele>25.3</ele>
        <time>2023-10-06T12:48:33Z</time>
      </trkpt>
      <trkpt lat="49.8829" lon="2.34436">
        <ele>25.3</ele>
        <time>2023-10-06T12:48:34Z</time>
      </trkpt>
      <trkpt lat="49.8829" lon="2.34438">
        <ele>25.3</ele>
        <time>2023-10-06T12:48:35Z</time>
      </trkpt>
      <trkpt lat="49.8829" lon="2.34439">
        <ele>25.3</ele>
        <time>2023-10-06T12:48:36Z</time>
      </trkpt>
      <trkpt lat="49.8829" lon="2.3444">
        <ele>25.3</ele>
        <time>2023-10-06T12:48:37Z</time>
      </trkpt>
      <trkpt lat="49.8829" lon="2.34441">
        <ele>25.3</ele>
        <time>2023-10-06T12:48:38Z</time>
      </trkpt>
      <trkpt lat="49.8829" lon="2.34443">
        <ele>25.3</ele>
        <time>2023-10-06T12:48:39Z</time>
      </trkpt>
      <trkpt lat="49.8829" lon="2.34444">
        <ele>25.3</ele>
        <time>2023-10-06T12:48:40Z</time>
      </trkpt>
      <trkpt lat="49.8829" lon="2.34446">
        <ele>25.3</ele>
        <time>2023-10-06T12:48:41Z</time>
      </trkpt>
      <trkpt lat="49.8829" lon="2.34447">
        <ele>25.3</ele>
        <time>2023-10-06T12:48:42Z</time>
      </trkpt>
      <trkpt lat="49.8829" lon="2.34449">
        <ele>25.3</ele>
        <time>2023-10-06T12:48:43Z</time>
      </trkpt>
      <trkpt lat="49.8829" lon="2.3445">
        <ele>25.3</ele>
        <time>2023-10-06T12:48:44Z</time>
      </trkpt>
      <trkpt lat="49.8829" lon="2.34452">
        <ele>25.3</ele>
        <time>2023-10-06T12:48:45Z</time>
      </trkpt>
      <trkpt lat="49.8829" lon="2.34454">
        <ele>25.3</ele>
        <time>2023-10-06T12:48:46Z</time>
      </trkpt>
      <trkpt lat="49.88289" lon="2.34456">
        <ele>25.3</ele>
        <time>2023-10-06T12:48:47Z</time>
      </trkpt>
      <trkpt lat="49.88289" lon="2.34457">
        <ele>25.3</ele>
        <time>2023-10-06T12:48:48Z</time>
      </trkpt>
      <trkpt lat="49.88289" lon="2.34459">
        <ele>25.3</ele>
        <time>2023-10-06T12:48:49Z</time>
      </trkpt>
      <trkpt lat="49.88289" lon="2.34461">
        <ele>25.3</ele>
        <time>2023-10-06T12:48:50Z</time>
      </trkpt>
      <trkpt lat="49.88289" lon="2.34462">
        <ele>25.3</ele>
        <time>2023-10-06T12:48:51Z</time>
      </trkpt>
      <trkpt lat="49.88289" lon="2.34464">
        <ele>25.3</ele>
        <time>2023-10-06T12:48:52Z</time>
      </trkpt>
      <trkpt lat="49.88289" lon="2.34465">
        <ele>25.3</ele>
        <time>2023-10-06T12:48:53Z</time>
      </trkpt>
      <trkpt lat="49.88288" lon="2.34467">
        <ele>25.3</ele>
        <time>2023-10-06T12:48:54Z</time>
      </trkpt>
      <trkpt lat="49.88288" lon="2.34469">
        <ele>25.4</ele>
        <time>2023-10-06T12:48:55Z</time>
      </trkpt>
      <trkpt lat="49.88288" lon="2.34471">
        <ele>25.4</ele>
        <time>2023-10-06T12:48:56Z</time>
      </trkpt>
      <trkpt lat="49.88288" lon="2.34472">
        <ele>25.4</ele>
        <time>2023-10-06T12:48:57Z</time>
      </trkpt>
      <trkpt lat="49.88288" lon="2.34474">
        <ele>25.4</ele>
        <time>2023-10-06T12:48:58Z</time>
      </trkpt>
      <trkpt lat="49.88288" lon="2.34476">
        <ele>25.4</ele>
        <time>2023-10-06T12:48:59Z</time>
      </trkpt>
      <trkpt lat="49.88288" lon="2.34478">
        <ele>25.4</ele>
        <time>2023-10-06T12:49:00Z</time>
      </trkpt>
      <trkpt lat="49.88288" lon="2.3448">
        <ele>25.4</ele>
        <time>2023-10-06T12:49:01Z</time>
      </trkpt>
      <trkpt lat="49.88287" lon="2.34481">
        <ele>25.4</ele>
        <time>2023-10-06T12:49:02Z</time>
      </trkpt>
      <trkpt lat="49.88287" lon="2.34483">
        <ele>25.4</ele>
        <time>2023-10-06T12:49:03Z</time>
      </trkpt>
      <trkpt lat="49.88287" lon="2.34484">
        <ele>25.4</ele>
        <time>2023-10-06T12:49:04Z</time>
      </trkpt>
      <trkpt lat="49.88287" lon="2.34486">
        <ele>25.4</ele>
        <time>2023-10-06T12:49:05Z</time>
      </trkpt>
      <trkpt lat="49.88287" lon="2.34488">
        <ele>25.4</ele>
        <time>2023-10-06T12:49:06Z</time>
      </trkpt>
      <trkpt lat="49.88286" lon="2.34489">
        <ele>25.4</ele>
        <time>2023-10-06T12:49:07Z</time>
      </trkpt>
      <trkpt lat="49.88286" lon="2.34491">
        <ele>25.4</ele>
        <time>2023-10-06T12:49:08Z</time>
      </trkpt>
      <trkpt lat="49.88286" lon="2.34493">
        <ele>25.4</ele>
        <time>2023-10-06T12:49:09Z</time>
      </trkpt>
      <trkpt lat="49.88286" lon="2.34495">
        <ele>25.4</ele>
        <time>2023-10-06T12:49:10Z</time>
      </trkpt>
      <trkpt lat="49.88285" lon="2.34496">
        <ele>25.4</ele>
        <time>2023-10-06T12:49:11Z</time>
      </trkpt>
      <trkpt lat="49.88285" lon="2.34498">
        <ele>25.4</ele>
        <time>2023-10-06T12:49:12Z</time>
      </trkpt>
      <trkpt lat="49.88285" lon="2.34499">
        <ele>25.4</ele>
        <time>2023-10-06T12:49:13Z</time>
      </trkpt>
      <trkpt lat="49.88285" lon="2.34501">
        <ele>25.4</ele>
        <time>2023-10-06T12:49:14Z</time>
      </trkpt>
      <trkpt lat="49.88284" lon="2.34503">
        <ele>25.4</ele>
        <time>2023-10-06T12:49:15Z</time>
      </trkpt>
      <trkpt lat="49.88284" lon="2.34504">
        <ele>25.4</ele>
        <time>2023-10-06T12:49:16Z</time>
      </trkpt>
      <trkpt lat="49.88284" lon="2.34506">
        <ele>25.4</ele>
        <time>2023-10-06T12:49:17Z</time>
      </trkpt>
      <trkpt lat="49.88283" lon="2.34509">
        <ele>25.4</ele>
        <time>2023-10-06T12:49:18Z</time>
      </trkpt>
      <trkpt lat="49.88283" lon="2.34511">
        <ele>25.4</ele>
        <time>2023-10-06T12:49:19Z</time>
      </trkpt>
      <trkpt lat="49.88283" lon="2.34512">
        <ele>25.4</ele>
        <time>2023-10-06T12:49:20Z</time>
      </trkpt>
      <trkpt lat="49.88282" lon="2.34515">
        <ele>25.4</ele>
        <time>2023-10-06T12:49:21Z</time>
      </trkpt>
      <trkpt lat="49.88282" lon="2.34516">
        <ele>25.4</ele>
        <time>2023-10-06T12:49:22Z</time>
      </trkpt>
      <trkpt lat="49.88282" lon="2.34517">
        <ele>25.4</ele>
        <time>2023-10-06T12:49:23Z</time>
      </trkpt>
      <trkpt lat="49.88281" lon="2.3452">
        <ele>25.4</ele>
        <time>2023-10-06T12:49:24Z</time>
      </trkpt>
      <trkpt lat="49.88281" lon="2.34522">
        <ele>25.4</ele>
        <time>2023-10-06T12:49:25Z</time>
      </trkpt>
      <trkpt lat="49.88281" lon="2.34523">
        <ele>25.4</ele>
        <time>2023-10-06T12:49:26Z</time>
      </trkpt>
      <trkpt lat="49.88281" lon="2.34526">
        <ele>25.4</ele>
        <time>2023-10-06T12:49:27Z</time>
      </trkpt>
      <trkpt lat="49.88281" lon="2.34527">
        <ele>25.4</ele>
        <time>2023-10-06T12:49:28Z</time>
      </trkpt>
      <trkpt lat="49.88281" lon="2.34529">
        <ele>25.5</ele>
        <time>2023-10-06T12:49:29Z</time>
      </trkpt>
      <trkpt lat="49.8828" lon="2.34531">
        <ele>25.5</ele>
        <time>2023-10-06T12:49:30Z</time>
      </trkpt>
      <trkpt lat="49.8828" lon="2.34532">
        <ele>25.5</ele>
        <time>2023-10-06T12:49:31Z</time>
      </trkpt>
      <trkpt lat="49.8828" lon="2.34534">
        <ele>25.5</ele>
        <time>2023-10-06T12:49:32Z</time>
      </trkpt>
      <trkpt lat="49.8828" lon="2.34536">
        <ele>25.5</ele>
        <time>2023-10-06T12:49:33Z</time>
      </trkpt>
      <trkpt lat="49.8828" lon="2.34537">
        <ele>25.5</ele>
        <time>2023-10-06T12:49:34Z</time>
      </trkpt>
      <trkpt lat="49.8828" lon="2.34539">
        <ele>25.5</ele>
        <time>2023-10-06T12:49:35Z</time>
      </trkpt>
      <trkpt lat="49.8828" lon="2.34541">
        <ele>25.5</ele>
        <time>2023-10-06T12:49:36Z</time>
      </trkpt>
      <trkpt lat="49.8828" lon="2.34542">
        <ele>25.5</ele>
        <time>2023-10-06T12:49:37Z</time>
      </trkpt>
      <trkpt lat="49.8828" lon="2.34543">
        <ele>25.5</ele>
        <time>2023-10-06T12:49:38Z</time>
      </trkpt>
      <trkpt lat="49.8828" lon="2.34544">
        <ele>25.5</ele>
        <time>2023-10-06T12:49:39Z</time>
      </trkpt>
      <trkpt lat="49.8828" lon="2.34546">
        <ele>25.5</ele>
        <time>2023-10-06T12:49:40Z</time>
      </trkpt>
      <trkpt lat="49.8828" lon="2.34548">
        <ele>25.5</ele>
        <time>2023-10-06T12:49:41Z</time>
      </trkpt>
      <trkpt lat="49.8828" lon="2.34549">
        <ele>25.5</ele>
        <time>2023-10-06T12:49:42Z</time>
      </trkpt>
      <trkpt lat="49.8828" lon="2.34551">
        <ele>25.5</ele>
        <time>2023-10-06T12:49:43Z</time>
      </trkpt>
      <trkpt lat="49.8828" lon="2.34553">
        <ele>25.5</ele>
        <time>2023-10-06T12:49:44Z</time>
      </trkpt>
      <trkpt lat="49.8828" lon="2.34554">
        <ele>25.5</ele>
        <time>2023-10-06T12:49:45Z</time>
      </trkpt>
      <trkpt lat="49.8828" lon="2.34556">
        <ele>25.5</ele>
        <time>2023-10-06T12:49:46Z</time>
      </trkpt>
      <trkpt lat="49.8828" lon="2.34557">
        <ele>25.5</ele>
        <time>2023-10-06T12:49:47Z</time>
      </trkpt>
      <trkpt lat="49.8828" lon="2.34559">
        <ele>25.5</ele>
        <time>2023-10-06T12:49:48Z</time>
      </trkpt>
      <trkpt lat="49.8828" lon="2.3456">
        <ele>25.5</ele>
        <time>2023-10-06T12:49:49Z</time>
      </trkpt>
      <trkpt lat="49.8828" lon="2.34561">
        <ele>25.5</ele>
        <time>2023-10-06T12:49:50Z</time>
      </trkpt>
      <trkpt lat="49.8828" lon="2.34562">
        <ele>25.5</ele>
        <time>2023-10-06T12:49:51Z</time>
      </trkpt>
      <trkpt lat="49.8828" lon="2.34564">
        <ele>25.5</ele>
        <time>2023-10-06T12:49:52Z</time>
      </trkpt>
      <trkpt lat="49.8828" lon="2.34565">
        <ele>25.5</ele>
        <time>2023-10-06T12:49:53Z</time>
      </trkpt>
      <trkpt lat="49.8828" lon="2.34567">
        <ele>25.5</ele>
        <time>2023-10-06T12:49:54Z</time>
      </trkpt>
      <trkpt lat="49.8828" lon="2.34569">
        <ele>25.5</ele>
        <time>2023-10-06T12:49:55Z</time>
      </trkpt>
      <trkpt lat="49.8828" lon="2.3457">
        <ele>25.5</ele>
        <time>2023-10-06T12:49:56Z</time>
      </trkpt>
      <trkpt lat="49.8828" lon="2.34572">
        <ele>25.5</ele>
        <time>2023-10-06T12:49:57Z</time>
      </trkpt>
      <trkpt lat="49.8828" lon="2.34574">
        <ele>25.5</ele>
        <time>2023-10-06T12:49:58Z</time>
      </trkpt>
      <trkpt lat="49.8828" lon="2.34575">
        <ele>25.5</ele>
        <time>2023-10-06T12:49:59Z</time>
      </trkpt>
      <trkpt lat="49.8828" lon="2.34577">
        <ele>25.5</ele>
        <time>2023-10-06T12:50:00Z</time>
      </trkpt>
      <trkpt lat="49.8828" lon="2.34578">
        <ele>25.5</ele>
        <time>2023-10-06T12:50:01Z</time>
      </trkpt>
      <trkpt lat="49.8828" lon="2.3458">
        <ele>25.5</ele>
        <time>2023-10-06T12:50:02Z</time>
      </trkpt>
      <trkpt lat="49.8828" lon="2.34581">
        <ele>25.5</ele>
        <time>2023-10-06T12:50:03Z</time>
      </trkpt>
      <trkpt lat="49.8828" lon="2.34583">
        <ele>25.5</ele>
        <time>2023-10-06T12:50:04Z</time>
      </trkpt>
      <trkpt lat="49.8828" lon="2.34585">
        <ele>25.5</ele>
        <time>2023-10-06T12:50:05Z</time>
      </trkpt>
      <trkpt lat="49.8828" lon="2.34586">
        <ele>25.5</ele>
        <time>2023-10-06T12:50:06Z</time>
      </trkpt>
      <trkpt lat="49.8828" lon="2.34588">
        <ele>25.5</ele>
        <time>2023-10-06T12:50:07Z</time>
      </trkpt>
      <trkpt lat="49.8828" lon="2.3459">
        <ele>25.5</ele>
        <time>2023-10-06T12:50:08Z</time>
      </trkpt>
      <trkpt lat="49.88281" lon="2.34592">
        <ele>25.5</ele>
        <time>2023-10-06T12:50:09Z</time>
      </trkpt>
      <trkpt lat="49.88281" lon="2.34593">
        <ele>25.5</ele>
        <time>2023-10-06T12:50:10Z</time>
      </trkpt>
      <trkpt lat="49.88281" lon="2.34595">
        <ele>25.5</ele>
        <time>2023-10-06T12:50:11Z</time>
      </trkpt>
      <trkpt lat="49.88281" lon="2.34597">
        <ele>25.5</ele>
        <time>2023-10-06T12:50:12Z</time>
      </trkpt>
      <trkpt lat="49.88282" lon="2.34599">
        <ele>25.5</ele>
        <time>2023-10-06T12:50:13Z</time>
      </trkpt>
      <trkpt lat="49.88282" lon="2.346">
        <ele>25.5</ele>
        <time>2023-10-06T12:50:14Z</time>
      </trkpt>
      <trkpt lat="49.88282" lon="2.34602">
        <ele>25.5</ele>
        <time>2023-10-06T12:50:15Z</time>
      </trkpt>
      <trkpt lat="49.88282" lon="2.34604">
        <ele>25.5</ele>
        <time>2023-10-06T12:50:16Z</time>
      </trkpt>
      <trkpt lat="49.88283" lon="2.34605">
        <ele>25.5</ele>
        <time>2023-10-06T12:50:17Z</time>
      </trkpt>
      <trkpt lat="49.88283" lon="2.34607">
        <ele>25.5</ele>
        <time>2023-10-06T12:50:18Z</time>
      </trkpt>
      <trkpt lat="49.88283" lon="2.34608">
        <ele>25.5</ele>
        <time>2023-10-06T12:50:19Z</time>
      </trkpt>
      <trkpt lat="49.88284" lon="2.3461">
        <ele>25.5</ele>
        <time>2023-10-06T12:50:20Z</time>
      </trkpt>
      <trkpt lat="49.88284" lon="2.34611">
        <ele>25.5</ele>
        <time>2023-10-06T12:50:21Z</time>
      </trkpt>
      <trkpt lat="49.88285" lon="2.34613">
        <ele>25.5</ele>
        <time>2023-10-06T12:50:22Z</time>
      </trkpt>
      <trkpt lat="49.88285" lon="2.34615">
        <ele>25.5</ele>
        <time>2023-10-06T12:50:23Z</time>
      </trkpt>
      <trkpt lat="49.88285" lon="2.34616">
        <ele>25.5</ele>
        <time>2023-10-06T12:50:24Z</time>
      </trkpt>
      <trkpt lat="49.88286" lon="2.34618">
        <ele>25.5</ele>
        <time>2023-10-06T12:50:25Z</time>
      </trkpt>
      <trkpt lat="49.88286" lon="2.34619">
        <ele>25.5</ele>
        <time>2023-10-06T12:50:26Z</time>
      </trkpt>
      <trkpt lat="49.88287" lon="2.34621">
        <ele>25.5</ele>
        <time>2023-10-06T12:50:27Z</time>
      </trkpt>
      <trkpt lat="49.88287" lon="2.34622">
        <ele>25.5</ele>
        <time>2023-10-06T12:50:28Z</time>
      </trkpt>
      <trkpt lat="49.88288" lon="2.34623">
        <ele>25.5</ele>
        <time>2023-10-06T12:50:29Z</time>
      </trkpt>
      <trkpt lat="49.88288" lon="2.34625">
        <ele>25.5</ele>
        <time>2023-10-06T12:50:30Z</time>
      </trkpt>
      <trkpt lat="49.88288" lon="2.34627">
        <ele>25.5</ele>
        <time>2023-10-06T12:50:31Z</time>
      </trkpt>
      <trkpt lat="49.88288" lon="2.34628">
        <ele>25.5</ele>
        <time>2023-10-06T12:50:32Z</time>
      </trkpt>
      <trkpt lat="49.88288" lon="2.3463">
        <ele>25.5</ele>
        <time>2023-10-06T12:50:33Z</time>
      </trkpt>
      <trkpt lat="49.88288" lon="2.34632">
        <ele>25.5</ele>
        <time>2023-10-06T12:50:34Z</time>
      </trkpt>
      <trkpt lat="49.88289" lon="2.34633">
        <ele>25.5</ele>
        <time>2023-10-06T12:50:35Z</time>
      </trkpt>
      <trkpt lat="49.88289" lon="2.34634">
        <ele>25.5</ele>
        <time>2023-10-06T12:50:36Z</time>
      </trkpt>
      <trkpt lat="49.8829" lon="2.34636">
        <ele>25.5</ele>
        <time>2023-10-06T12:50:37Z</time>
      </trkpt>
      <trkpt lat="49.8829" lon="2.34637">
        <ele>25.5</ele>
        <time>2023-10-06T12:50:38Z</time>
      </trkpt>
      <trkpt lat="49.88291" lon="2.34638">
        <ele>25.5</ele>
        <time>2023-10-06T12:50:39Z</time>
      </trkpt>
      <trkpt lat="49.88291" lon="2.3464">
        <ele>25.5</ele>
        <time>2023-10-06T12:50:40Z</time>
      </trkpt>
      <trkpt lat="49.88291" lon="2.34641">
        <ele>25.5</ele>
        <time>2023-10-06T12:50:41Z</time>
      </trkpt>
      <trkpt lat="49.88292" lon="2.34643">
        <ele>25.5</ele>
        <time>2023-10-06T12:50:42Z</time>
      </trkpt>
      <trkpt lat="49.88292" lon="2.34644">
        <ele>25.5</ele>
        <time>2023-10-06T12:50:43Z</time>
      </trkpt>
      <trkpt lat="49.88292" lon="2.34646">
        <ele>25.5</ele>
        <time>2023-10-06T12:50:44Z</time>
      </trkpt>
      <trkpt lat="49.88293" lon="2.34647">
        <ele>25.5</ele>
        <time>2023-10-06T12:50:45Z</time>
      </trkpt>
      <trkpt lat="49.88293" lon="2.34649">
        <ele>25.6</ele>
        <time>2023-10-06T12:50:46Z</time>
      </trkpt>
      <trkpt lat="49.88294" lon="2.3465">
        <ele>25.6</ele>
        <time>2023-10-06T12:50:47Z</time>
      </trkpt>
      <trkpt lat="49.88294" lon="2.34651">
        <ele>25.6</ele>
        <time>2023-10-06T12:50:48Z</time>
      </trkpt>
      <trkpt lat="49.88295" lon="2.34653">
        <ele>25.6</ele>
        <time>2023-10-06T12:50:49Z</time>
      </trkpt>
      <trkpt lat="49.88295" lon="2.34654">
        <ele>25.6</ele>
        <time>2023-10-06T12:50:50Z</time>
      </trkpt>
      <trkpt lat="49.88296" lon="2.34656">
        <ele>25.6</ele>
        <time>2023-10-06T12:50:51Z</time>
      </trkpt>
      <trkpt lat="49.88296" lon="2.34657">
        <ele>25.6</ele>
        <time>2023-10-06T12:50:52Z</time>
      </trkpt>
      <trkpt lat="49.88297" lon="2.34659">
        <ele>25.6</ele>
        <time>2023-10-06T12:50:53Z</time>
      </trkpt>
      <trkpt lat="49.88297" lon="2.3466">
        <ele>25.6</ele>
        <time>2023-10-06T12:50:54Z</time>
      </trkpt>
      <trkpt lat="49.88298" lon="2.34661">
        <ele>25.6</ele>
        <time>2023-10-06T12:50:55Z</time>
      </trkpt>
      <trkpt lat="49.88298" lon="2.34663">
        <ele>25.6</ele>
        <time>2023-10-06T12:50:56Z</time>
      </trkpt>
      <trkpt lat="49.88299" lon="2.34664">
        <ele>25.6</ele>
        <time>2023-10-06T12:50:57Z</time>
      </trkpt>
      <trkpt lat="49.88299" lon="2.34666">
        <ele>25.6</ele>
        <time>2023-10-06T12:50:58Z</time>
      </trkpt>
      <trkpt lat="49.883" lon="2.34667">
        <ele>25.6</ele>
        <time>2023-10-06T12:50:59Z</time>
      </trkpt>
      <trkpt lat="49.883" lon="2.34669">
        <ele>25.6</ele>
        <time>2023-10-06T12:51:00Z</time>
      </trkpt>
      <trkpt lat="49.88301" lon="2.3467">
        <ele>25.6</ele>
        <time>2023-10-06T12:51:01Z</time>
      </trkpt>
      <trkpt lat="49.88301" lon="2.34671">
        <ele>25.6</ele>
        <time>2023-10-06T12:51:02Z</time>
      </trkpt>
      <trkpt lat="49.88301" lon="2.34672">
        <ele>25.6</ele>
        <time>2023-10-06T12:51:03Z</time>
      </trkpt>
      <trkpt lat="49.88302" lon="2.34674">
        <ele>25.6</ele>
        <time>2023-10-06T12:51:04Z</time>
      </trkpt>
      <trkpt lat="49.88302" lon="2.34675">
        <ele>25.6</ele>
        <time>2023-10-06T12:51:05Z</time>
      </trkpt>
      <trkpt lat="49.88302" lon="2.34676">
        <ele>25.6</ele>
        <time>2023-10-06T12:51:06Z</time>
      </trkpt>
      <trkpt lat="49.88303" lon="2.34678">
        <ele>25.6</ele>
        <time>2023-10-06T12:51:07Z</time>
      </trkpt>
      <trkpt lat="49.88303" lon="2.34679">
        <ele>25.6</ele>
        <time>2023-10-06T12:51:08Z</time>
      </trkpt>
      <trkpt lat="49.88304" lon="2.34681">
        <ele>25.6</ele>
        <time>2023-10-06T12:51:09Z</time>
      </trkpt>
      <trkpt lat="49.88304" lon="2.34682">
        <ele>25.6</ele>
        <time>2023-10-06T12:51:10Z</time>
      </trkpt>
      <trkpt lat="49.88304" lon="2.34683">
        <ele>25.6</ele>
        <time>2023-10-06T12:51:11Z</time>
      </trkpt>
      <trkpt lat="49.88305" lon="2.34685">
        <ele>25.6</ele>
        <time>2023-10-06T12:51:12Z</time>
      </trkpt>
      <trkpt lat="49.88305" lon="2.34686">
        <ele>25.6</ele>
        <time>2023-10-06T12:51:13Z</time>
      </trkpt>
      <trkpt lat="49.88305" lon="2.34688">
        <ele>25.6</ele>
        <time>2023-10-06T12:51:14Z</time>
      </trkpt>
      <trkpt lat="49.88306" lon="2.34689">
        <ele>25.6</ele>
        <time>2023-10-06T12:51:15Z</time>
      </trkpt>
      <trkpt lat="49.88306" lon="2.34691">
        <ele>25.6</ele>
        <time>2023-10-06T12:51:16Z</time>
      </trkpt>
      <trkpt lat="49.88306" lon="2.34692">
        <ele>25.6</ele>
        <time>2023-10-06T12:51:17Z</time>
      </trkpt>
      <trkpt lat="49.88307" lon="2.34695">
        <ele>25.6</ele>
        <time>2023-10-06T12:51:18Z</time>
      </trkpt>
      <trkpt lat="49.88307" lon="2.34696">
        <ele>25.6</ele>
        <time>2023-10-06T12:51:19Z</time>
      </trkpt>
      <trkpt lat="49.88307" lon="2.34697">
        <ele>25.6</ele>
        <time>2023-10-06T12:51:20Z</time>
      </trkpt>
      <trkpt lat="49.88307" lon="2.34698">
        <ele>25.6</ele>
        <time>2023-10-06T12:51:21Z</time>
      </trkpt>
      <trkpt lat="49.88308" lon="2.34699">
        <ele>25.5</ele>
        <time>2023-10-06T12:51:22Z</time>
      </trkpt>
      <trkpt lat="49.88308" lon="2.34701">
        <ele>25.5</ele>
        <time>2023-10-06T12:51:23Z</time>
      </trkpt>
      <trkpt lat="49.88308" lon="2.34702">
        <ele>25.5</ele>
        <time>2023-10-06T12:51:24Z</time>
      </trkpt>
      <trkpt lat="49.88309" lon="2.34704">
        <ele>25.5</ele>
        <time>2023-10-06T12:51:25Z</time>
      </trkpt>
      <trkpt lat="49.88309" lon="2.34705">
        <ele>25.5</ele>
        <time>2023-10-06T12:51:26Z</time>
      </trkpt>
      <trkpt lat="49.88309" lon="2.34707">
        <ele>25.5</ele>
        <time>2023-10-06T12:51:27Z</time>
      </trkpt>
      <trkpt lat="49.88309" lon="2.34709">
        <ele>25.5</ele>
        <time>2023-10-06T12:51:28Z</time>
      </trkpt>
      <trkpt lat="49.88309" lon="2.3471">
        <ele>25.5</ele>
        <time>2023-10-06T12:51:29Z</time>
      </trkpt>
      <trkpt lat="49.88309" lon="2.34712">
        <ele>25.5</ele>
        <time>2023-10-06T12:51:30Z</time>
      </trkpt>
      <trkpt lat="49.88309" lon="2.34713">
        <ele>25.5</ele>
        <time>2023-10-06T12:51:31Z</time>
      </trkpt>
      <trkpt lat="49.88309" lon="2.34715">
        <ele>25.5</ele>
        <time>2023-10-06T12:51:32Z</time>
      </trkpt>
      <trkpt lat="49.88309" lon="2.34716">
        <ele>25.5</ele>
        <time>2023-10-06T12:51:33Z</time>
      </trkpt>
      <trkpt lat="49.8831" lon="2.34718">
        <ele>25.5</ele>
        <time>2023-10-06T12:51:34Z</time>
      </trkpt>
      <trkpt lat="49.8831" lon="2.3472">
        <ele>25.5</ele>
        <time>2023-10-06T12:51:35Z</time>
      </trkpt>
      <trkpt lat="49.8831" lon="2.34722">
        <ele>25.5</ele>
        <time>2023-10-06T12:51:36Z</time>
      </trkpt>
      <trkpt lat="49.8831" lon="2.34724">
        <ele>25.5</ele>
        <time>2023-10-06T12:51:37Z</time>
      </trkpt>
      <trkpt lat="49.8831" lon="2.34725">
        <ele>25.5</ele>
        <time>2023-10-06T12:51:38Z</time>
      </trkpt>
      <trkpt lat="49.8831" lon="2.34727">
        <ele>25.5</ele>
        <time>2023-10-06T12:51:39Z</time>
      </trkpt>
      <trkpt lat="49.8831" lon="2.34729">
        <ele>25.5</ele>
        <time>2023-10-06T12:51:40Z</time>
      </trkpt>
      <trkpt lat="49.8831" lon="2.34731">
        <ele>25.5</ele>
        <time>2023-10-06T12:51:41Z</time>
      </trkpt>
      <trkpt lat="49.8831" lon="2.34733">
        <ele>25.5</ele>
        <time>2023-10-06T12:51:42Z</time>
      </trkpt>
      <trkpt lat="49.88311" lon="2.34734">
        <ele>25.5</ele>
        <time>2023-10-06T12:51:43Z</time>
      </trkpt>
      <trkpt lat="49.88311" lon="2.34735">
        <ele>25.5</ele>
        <time>2023-10-06T12:51:44Z</time>
      </trkpt>
      <trkpt lat="49.88312" lon="2.34736">
        <ele>25.5</ele>
        <time>2023-10-06T12:51:45Z</time>
      </trkpt>
      <trkpt lat="49.88312" lon="2.34737">
        <ele>25.5</ele>
        <time>2023-10-06T12:51:46Z</time>
      </trkpt>
      <trkpt lat="49.88313" lon="2.34736">
        <ele>25.5</ele>
        <time>2023-10-06T12:51:47Z</time>
      </trkpt>
      <trkpt lat="49.88313" lon="2.34736">
        <ele>25.5</ele>
        <time>2023-10-06T12:51:48Z</time>
      </trkpt>
      <trkpt lat="49.88314" lon="2.34736">
        <ele>25.5</ele>
        <time>2023-10-06T12:51:49Z</time>
      </trkpt>
      <trkpt lat="49.88314" lon="2.34736">
        <ele>25.5</ele>
        <time>2023-10-06T12:51:50Z</time>
      </trkpt>
      <trkpt lat="49.88314" lon="2.34736">
        <ele>25.5</ele>
        <time>2023-10-06T12:51:51Z</time>
      </trkpt>
      <trkpt lat="49.88314" lon="2.34736">
        <ele>25.5</ele>
        <time>2023-10-06T12:51:52Z</time>
      </trkpt>
      <trkpt lat="49.88314" lon="2.34736">
        <ele>25.5</ele>
        <time>2023-10-06T12:51:53Z</time>
      </trkpt>
      <trkpt lat="49.88314" lon="2.34736">
        <ele>25.5</ele>
        <time>2023-10-06T12:51:54Z</time>
      </trkpt>
      <trkpt lat="49.88314" lon="2.34736">
        <ele>25.5</ele>
        <time>2023-10-06T12:51:55Z</time>
      </trkpt>
      <trkpt lat="49.88314" lon="2.34736">
        <ele>25.5</ele>
        <time>2023-10-06T12:51:56Z</time>
      </trkpt>
      <trkpt lat="49.88314" lon="2.34736">
        <ele>25.5</ele>
        <time>2023-10-06T12:51:57Z</time>
      </trkpt>
      <trkpt lat="49.88314" lon="2.34736">
        <ele>25.5</ele>
        <time>2023-10-06T12:51:58Z</time>
      </trkpt>
      <trkpt lat="49.88314" lon="2.34736">
        <ele>25.5</ele>
        <time>2023-10-06T12:51:59Z</time>
      </trkpt>
      <trkpt lat="49.88314" lon="2.34737">
        <ele>25.5</ele>
        <time>2023-10-06T12:52:00Z</time>
      </trkpt>
      <trkpt lat="49.88315" lon="2.34738">
        <ele>25.5</ele>
        <time>2023-10-06T12:52:01Z</time>
      </trkpt>
      <trkpt lat="49.88315" lon="2.3474">
        <ele>25.4</ele>
        <time>2023-10-06T12:52:02Z</time>
      </trkpt>
      <trkpt lat="49.88315" lon="2.34741">
        <ele>25.4</ele>
        <time>2023-10-06T12:52:03Z</time>
      </trkpt>
      <trkpt lat="49.88315" lon="2.34743">
        <ele>25.4</ele>
        <time>2023-10-06T12:52:04Z</time>
      </trkpt>
      <trkpt lat="49.88316" lon="2.34745">
        <ele>25.4</ele>
        <time>2023-10-06T12:52:05Z</time>
      </trkpt>
      <trkpt lat="49.88316" lon="2.34747">
        <ele>25.4</ele>
        <time>2023-10-06T12:52:06Z</time>
      </trkpt>
      <trkpt lat="49.88316" lon="2.34749">
        <ele>25.4</ele>
        <time>2023-10-06T12:52:07Z</time>
      </trkpt>
      <trkpt lat="49.88317" lon="2.3475">
        <ele>25.4</ele>
        <time>2023-10-06T12:52:08Z</time>
      </trkpt>
      <trkpt lat="49.88317" lon="2.34753">
        <ele>25.4</ele>
        <time>2023-10-06T12:52:09Z</time>
      </trkpt>
      <trkpt lat="49.88317" lon="2.34755">
        <ele>25.4</ele>
        <time>2023-10-06T12:52:10Z</time>
      </trkpt>
      <trkpt lat="49.88318" lon="2.34756">
        <ele>25.4</ele>
        <time>2023-10-06T12:52:11Z</time>
      </trkpt>
      <trkpt lat="49.88318" lon="2.34758">
        <ele>25.4</ele>
        <time>2023-10-06T12:52:12Z</time>
      </trkpt>
      <trkpt lat="49.88319" lon="2.3476">
        <ele>25.4</ele>
        <time>2023-10-06T12:52:13Z</time>
      </trkpt>
      <trkpt lat="49.8832" lon="2.34763">
        <ele>25.4</ele>
        <time>2023-10-06T12:52:14Z</time>
      </trkpt>
      <trkpt lat="49.8832" lon="2.34764">
        <ele>25.4</ele>
        <time>2023-10-06T12:52:15Z</time>
      </trkpt>
      <trkpt lat="49.8832" lon="2.34765">
        <ele>25.4</ele>
        <time>2023-10-06T12:52:16Z</time>
      </trkpt>
      <trkpt lat="49.88321" lon="2.34768">
        <ele>25.4</ele>
        <time>2023-10-06T12:52:17Z</time>
      </trkpt>
      <trkpt lat="49.88322" lon="2.34769">
        <ele>25.4</ele>
        <time>2023-10-06T12:52:18Z</time>
      </trkpt>
      <trkpt lat="49.88322" lon="2.3477">
        <ele>25.4</ele>
        <time>2023-10-06T12:52:19Z</time>
      </trkpt>
      <trkpt lat="49.88323" lon="2.34772">
        <ele>25.4</ele>
        <time>2023-10-06T12:52:20Z</time>
      </trkpt>
      <trkpt lat="49.88323" lon="2.34773">
        <ele>25.4</ele>
        <time>2023-10-06T12:52:21Z</time>
      </trkpt>
      <trkpt lat="49.88323" lon="2.34774">
        <ele>25.4</ele>
        <time>2023-10-06T12:52:22Z</time>
      </trkpt>
      <trkpt lat="49.88323" lon="2.34776">
        <ele>25.4</ele>
        <time>2023-10-06T12:52:23Z</time>
      </trkpt>
      <trkpt lat="49.88323" lon="2.34777">
        <ele>25.4</ele>
        <time>2023-10-06T12:52:24Z</time>
      </trkpt>
      <trkpt lat="49.88324" lon="2.34779">
        <ele>25.4</ele>
        <time>2023-10-06T12:52:25Z</time>
      </trkpt>
      <trkpt lat="49.88324" lon="2.3478">
        <ele>25.4</ele>
        <time>2023-10-06T12:52:26Z</time>
      </trkpt>
      <trkpt lat="49.88325" lon="2.34781">
        <ele>25.4</ele>
        <time>2023-10-06T12:52:27Z</time>
      </trkpt>
      <trkpt lat="49.88326" lon="2.34783">
        <ele>25.4</ele>
        <time>2023-10-06T12:52:28Z</time>
      </trkpt>
      <trkpt lat="49.88326" lon="2.34784">
        <ele>25.4</ele>
        <time>2023-10-06T12:52:29Z</time>
      </trkpt>
      <trkpt lat="49.88327" lon="2.34786">
        <ele>25.4</ele>
        <time>2023-10-06T12:52:30Z</time>
      </trkpt>
      <trkpt lat="49.88327" lon="2.34787">
        <ele>25.4</ele>
        <time>2023-10-06T12:52:31Z</time>
      </trkpt>
      <trkpt lat="49.88328" lon="2.34789">
        <ele>25.4</ele>
        <time>2023-10-06T12:52:32Z</time>
      </trkpt>
      <trkpt lat="49.88329" lon="2.3479">
        <ele>25.4</ele>
        <time>2023-10-06T12:52:33Z</time>
      </trkpt>
      <trkpt lat="49.88329" lon="2.34792">
        <ele>25.4</ele>
        <time>2023-10-06T12:52:34Z</time>
      </trkpt>
      <trkpt lat="49.8833" lon="2.34793">
        <ele>25.4</ele>
        <time>2023-10-06T12:52:35Z</time>
      </trkpt>
      <trkpt lat="49.88331" lon="2.34795">
        <ele>25.4</ele>
        <time>2023-10-06T12:52:36Z</time>
      </trkpt>
      <trkpt lat="49.88331" lon="2.34796">
        <ele>25.4</ele>
        <time>2023-10-06T12:52:37Z</time>
      </trkpt>
      <trkpt lat="49.88332" lon="2.34797">
        <ele>25.4</ele>
        <time>2023-10-06T12:52:38Z</time>
      </trkpt>
      <trkpt lat="49.88332" lon="2.34798">
        <ele>25.4</ele>
        <time>2023-10-06T12:52:39Z</time>
      </trkpt>
      <trkpt lat="49.88333" lon="2.34799">
        <ele>25.4</ele>
        <time>2023-10-06T12:52:40Z</time>
      </trkpt>
      <trkpt lat="49.88333" lon="2.34801">
        <ele>25.4</ele>
        <time>2023-10-06T12:52:41Z</time>
      </trkpt>
      <trkpt lat="49.88334" lon="2.34802">
        <ele>25.4</ele>
        <time>2023-10-06T12:52:42Z</time>
      </trkpt>
      <trkpt lat="49.88334" lon="2.34804">
        <ele>25.4</ele>
        <time>2023-10-06T12:52:43Z</time>
      </trkpt>
      <trkpt lat="49.88335" lon="2.34805">
        <ele>25.4</ele>
        <time>2023-10-06T12:52:44Z</time>
      </trkpt>
      <trkpt lat="49.88335" lon="2.34807">
        <ele>25.4</ele>
        <time>2023-10-06T12:52:45Z</time>
      </trkpt>
      <trkpt lat="49.88336" lon="2.34808">
        <ele>25.4</ele>
        <time>2023-10-06T12:52:46Z</time>
      </trkpt>
      <trkpt lat="49.88336" lon="2.3481">
        <ele>25.4</ele>
        <time>2023-10-06T12:52:47Z</time>
      </trkpt>
      <trkpt lat="49.88337" lon="2.34811">
        <ele>25.4</ele>
        <time>2023-10-06T12:52:48Z</time>
      </trkpt>
      <trkpt lat="49.88337" lon="2.34812">
        <ele>25.4</ele>
        <time>2023-10-06T12:52:49Z</time>
      </trkpt>
      <trkpt lat="49.88338" lon="2.34813">
        <ele>25.4</ele>
        <time>2023-10-06T12:52:50Z</time>
      </trkpt>
      <trkpt lat="49.88338" lon="2.34814">
        <ele>25.4</ele>
        <time>2023-10-06T12:52:51Z</time>
      </trkpt>
      <trkpt lat="49.88339" lon="2.34815">
        <ele>25.4</ele>
        <time>2023-10-06T12:52:52Z</time>
      </trkpt>
      <trkpt lat="49.88339" lon="2.34816">
        <ele>25.4</ele>
        <time>2023-10-06T12:52:53Z</time>
      </trkpt>
      <trkpt lat="49.8834" lon="2.34817">
        <ele>25.4</ele>
        <time>2023-10-06T12:52:54Z</time>
      </trkpt>
      <trkpt lat="49.8834" lon="2.34819">
        <ele>25.4</ele>
        <time>2023-10-06T12:52:55Z</time>
      </trkpt>
      <trkpt lat="49.88341" lon="2.3482">
        <ele>25.4</ele>
        <time>2023-10-06T12:52:56Z</time>
      </trkpt>
      <trkpt lat="49.88341" lon="2.34821">
        <ele>25.4</ele>
        <time>2023-10-06T12:52:57Z</time>
      </trkpt>
      <trkpt lat="49.88342" lon="2.34822">
        <ele>25.4</ele>
        <time>2023-10-06T12:52:58Z</time>
      </trkpt>
      <trkpt lat="49.88343" lon="2.34824">
        <ele>25.4</ele>
        <time>2023-10-06T12:52:59Z</time>
      </trkpt>
      <trkpt lat="49.88343" lon="2.34825">
        <ele>25.4</ele>
        <time>2023-10-06T12:53:00Z</time>
      </trkpt>
      <trkpt lat="49.88344" lon="2.34826">
        <ele>25.4</ele>
        <time>2023-10-06T12:53:01Z</time>
      </trkpt>
      <trkpt lat="49.88344" lon="2.34827">
        <ele>25.4</ele>
        <time>2023-10-06T12:53:02Z</time>
      </trkpt>
      <trkpt lat="49.88345" lon="2.34828">
        <ele>25.4</ele>
        <time>2023-10-06T12:53:03Z</time>
      </trkpt>
      <trkpt lat="49.88345" lon="2.34829">
        <ele>25.4</ele>
        <time>2023-10-06T12:53:04Z</time>
      </trkpt>
      <trkpt lat="49.88346" lon="2.34829">
        <ele>25.4</ele>
        <time>2023-10-06T12:53:05Z</time>
      </trkpt>
      <trkpt lat="49.88346" lon="2.3483">
        <ele>25.4</ele>
        <time>2023-10-06T12:53:06Z</time>
      </trkpt>
      <trkpt lat="49.88347" lon="2.34831">
        <ele>25.4</ele>
        <time>2023-10-06T12:53:07Z</time>
      </trkpt>
      <trkpt lat="49.88347" lon="2.34832">
        <ele>25.4</ele>
        <time>2023-10-06T12:53:08Z</time>
      </trkpt>
      <trkpt lat="49.88348" lon="2.34833">
        <ele>25.4</ele>
        <time>2023-10-06T12:53:09Z</time>
      </trkpt>
      <trkpt lat="49.88349" lon="2.34834">
        <ele>25.4</ele>
        <time>2023-10-06T12:53:10Z</time>
      </trkpt>
      <trkpt lat="49.88349" lon="2.34834">
        <ele>25.4</ele>
        <time>2023-10-06T12:53:11Z</time>
      </trkpt>
      <trkpt lat="49.8835" lon="2.34835">
        <ele>25.4</ele>
        <time>2023-10-06T12:53:12Z</time>
      </trkpt>
      <trkpt lat="49.8835" lon="2.34836">
        <ele>25.4</ele>
        <time>2023-10-06T12:53:13Z</time>
      </trkpt>
      <trkpt lat="49.88351" lon="2.34837">
        <ele>25.4</ele>
        <time>2023-10-06T12:53:14Z</time>
      </trkpt>
      <trkpt lat="49.88352" lon="2.34838">
        <ele>25.4</ele>
        <time>2023-10-06T12:53:15Z</time>
      </trkpt>
      <trkpt lat="49.88352" lon="2.34839">
        <ele>25.5</ele>
        <time>2023-10-06T12:53:16Z</time>
      </trkpt>
      <trkpt lat="49.88353" lon="2.3484">
        <ele>25.5</ele>
        <time>2023-10-06T12:53:17Z</time>
      </trkpt>
      <trkpt lat="49.88354" lon="2.34841">
        <ele>25.5</ele>
        <time>2023-10-06T12:53:18Z</time>
      </trkpt>
      <trkpt lat="49.88355" lon="2.34842">
        <ele>25.5</ele>
        <time>2023-10-06T12:53:19Z</time>
      </trkpt>
      <trkpt lat="49.88356" lon="2.34842">
        <ele>25.5</ele>
        <time>2023-10-06T12:53:20Z</time>
      </trkpt>
      <trkpt lat="49.88357" lon="2.34843">
        <ele>25.5</ele>
        <time>2023-10-06T12:53:21Z</time>
      </trkpt>
      <trkpt lat="49.88358" lon="2.34845">
        <ele>25.5</ele>
        <time>2023-10-06T12:53:22Z</time>
      </trkpt>
      <trkpt lat="49.88359" lon="2.34845">
        <ele>25.5</ele>
        <time>2023-10-06T12:53:23Z</time>
      </trkpt>
      <trkpt lat="49.8836" lon="2.34846">
        <ele>25.5</ele>
        <time>2023-10-06T12:53:24Z</time>
      </trkpt>
      <trkpt lat="49.88362" lon="2.34847">
        <ele>25.5</ele>
        <time>2023-10-06T12:53:25Z</time>
      </trkpt>
      <trkpt lat="49.88363" lon="2.34848">
        <ele>25.5</ele>
        <time>2023-10-06T12:53:26Z</time>
      </trkpt>
      <trkpt lat="49.88363" lon="2.34848">
        <ele>25.5</ele>
        <time>2023-10-06T12:53:27Z</time>
      </trkpt>
      <trkpt lat="49.88364" lon="2.34849">
        <ele>25.5</ele>
        <time>2023-10-06T12:53:28Z</time>
      </trkpt>
      <trkpt lat="49.88366" lon="2.34849">
        <ele>25.5</ele>
        <time>2023-10-06T12:53:29Z</time>
      </trkpt>
      <trkpt lat="49.88367" lon="2.3485">
        <ele>25.5</ele>
        <time>2023-10-06T12:53:30Z</time>
      </trkpt>
      <trkpt lat="49.88368" lon="2.34851">
        <ele>25.5</ele>
        <time>2023-10-06T12:53:31Z</time>
      </trkpt>
      <trkpt lat="49.88369" lon="2.34851">
        <ele>25.5</ele>
        <time>2023-10-06T12:53:32Z</time>
      </trkpt>
      <trkpt lat="49.8837" lon="2.34852">
        <ele>25.5</ele>
        <time>2023-10-06T12:53:33Z</time>
      </trkpt>
      <trkpt lat="49.88371" lon="2.34853">
        <ele>25.5</ele>
        <time>2023-10-06T12:53:34Z</time>
      </trkpt>
      <trkpt lat="49.88372" lon="2.34854">
        <ele>25.5</ele>
        <time>2023-10-06T12:53:35Z</time>
      </trkpt>
      <trkpt lat="49.88373" lon="2.34854">
        <ele>25.5</ele>
        <time>2023-10-06T12:53:36Z</time>
      </trkpt>
      <trkpt lat="49.88375" lon="2.34855">
        <ele>25.5</ele>
        <time>2023-10-06T12:53:37Z</time>
      </trkpt>
      <trkpt lat="49.88376" lon="2.34856">
        <ele>25.5</ele>
        <time>2023-10-06T12:53:38Z</time>
      </trkpt>
      <trkpt lat="49.88376" lon="2.34856">
        <ele>25.5</ele>
        <time>2023-10-06T12:53:39Z</time>
      </trkpt>
      <trkpt lat="49.88378" lon="2.34857">
        <ele>25.5</ele>
        <time>2023-10-06T12:53:40Z</time>
      </trkpt>
      <trkpt lat="49.88379" lon="2.34858">
        <ele>25.5</ele>
        <time>2023-10-06T12:53:41Z</time>
      </trkpt>
      <trkpt lat="49.8838" lon="2.34859">
        <ele>25.5</ele>
        <time>2023-10-06T12:53:42Z</time>
      </trkpt>
      <trkpt lat="49.8838" lon="2.34859">
        <ele>25.5</ele>
        <time>2023-10-06T12:53:43Z</time>
      </trkpt>
      <trkpt lat="49.88381" lon="2.3486">
        <ele>25.5</ele>
        <time>2023-10-06T12:53:44Z</time>
      </trkpt>
      <trkpt lat="49.88382" lon="2.34861">
        <ele>25.5</ele>
        <time>2023-10-06T12:53:45Z</time>
      </trkpt>
      <trkpt lat="49.88383" lon="2.34862">
        <ele>25.5</ele>
        <time>2023-10-06T12:53:46Z</time>
      </trkpt>
      <trkpt lat="49.88385" lon="2.34863">
        <ele>25.5</ele>
        <time>2023-10-06T12:53:47Z</time>
      </trkpt>
      <trkpt lat="49.88386" lon="2.34864">
        <ele>25.5</ele>
        <time>2023-10-06T12:53:48Z</time>
      </trkpt>
      <trkpt lat="49.88387" lon="2.34865">
        <ele>25.5</ele>
        <time>2023-10-06T12:53:49Z</time>
      </trkpt>
      <trkpt lat="49.88388" lon="2.34866">
        <ele>25.5</ele>
        <time>2023-10-06T12:53:50Z</time>
      </trkpt>
      <trkpt lat="49.88389" lon="2.34866">
        <ele>25.5</ele>
        <time>2023-10-06T12:53:51Z</time>
      </trkpt>
      <trkpt lat="49.8839" lon="2.34867">
        <ele>25.5</ele>
        <time>2023-10-06T12:53:52Z</time>
      </trkpt>
      <trkpt lat="49.88391" lon="2.34867">
        <ele>25.6</ele>
        <time>2023-10-06T12:53:53Z</time>
      </trkpt>
      <trkpt lat="49.88392" lon="2.34868">
        <ele>25.6</ele>
        <time>2023-10-06T12:53:54Z</time>
      </trkpt>
      <trkpt lat="49.88394" lon="2.34869">
        <ele>25.6</ele>
        <time>2023-10-06T12:53:55Z</time>
      </trkpt>
      <trkpt lat="49.88395" lon="2.3487">
        <ele>25.6</ele>
        <time>2023-10-06T12:53:56Z</time>
      </trkpt>
      <trkpt lat="49.88395" lon="2.34871">
        <ele>25.6</ele>
        <time>2023-10-06T12:53:57Z</time>
      </trkpt>
      <trkpt lat="49.88397" lon="2.34872">
        <ele>25.6</ele>
        <time>2023-10-06T12:53:58Z</time>
      </trkpt>
      <trkpt lat="49.88398" lon="2.34873">
        <ele>25.6</ele>
        <time>2023-10-06T12:53:59Z</time>
      </trkpt>
      <trkpt lat="49.88399" lon="2.34874">
        <ele>25.6</ele>
        <time>2023-10-06T12:54:00Z</time>
      </trkpt>
      <trkpt lat="49.884" lon="2.34875">
        <ele>25.6</ele>
        <time>2023-10-06T12:54:01Z</time>
      </trkpt>
      <trkpt lat="49.88401" lon="2.34875">
        <ele>25.6</ele>
        <time>2023-10-06T12:54:02Z</time>
      </trkpt>
      <trkpt lat="49.88402" lon="2.34876">
        <ele>25.6</ele>
        <time>2023-10-06T12:54:03Z</time>
      </trkpt>
      <trkpt lat="49.88402" lon="2.34877">
        <ele>25.7</ele>
        <time>2023-10-06T12:54:04Z</time>
      </trkpt>
      <trkpt lat="49.88403" lon="2.34877">
        <ele>25.7</ele>
        <time>2023-10-06T12:54:05Z</time>
      </trkpt>
      <trkpt lat="49.88404" lon="2.34878">
        <ele>25.7</ele>
        <time>2023-10-06T12:54:06Z</time>
      </trkpt>
      <trkpt lat="49.88405" lon="2.34879">
        <ele>25.7</ele>
        <time>2023-10-06T12:54:07Z</time>
      </trkpt>
      <trkpt lat="49.88406" lon="2.3488">
        <ele>25.7</ele>
        <time>2023-10-06T12:54:08Z</time>
      </trkpt>
      <trkpt lat="49.88407" lon="2.34881">
        <ele>25.7</ele>
        <time>2023-10-06T12:54:09Z</time>
      </trkpt>
      <trkpt lat="49.88408" lon="2.34882">
        <ele>25.7</ele>
        <time>2023-10-06T12:54:10Z</time>
      </trkpt>
      <trkpt lat="49.88409" lon="2.34883">
        <ele>25.7</ele>
        <time>2023-10-06T12:54:11Z</time>
      </trkpt>
      <trkpt lat="49.8841" lon="2.34884">
        <ele>25.7</ele>
        <time>2023-10-06T12:54:12Z</time>
      </trkpt>
      <trkpt lat="49.88411" lon="2.34885">
        <ele>25.7</ele>
        <time>2023-10-06T12:54:13Z</time>
      </trkpt>
      <trkpt lat="49.88412" lon="2.34886">
        <ele>25.6</ele>
        <time>2023-10-06T12:54:14Z</time>
      </trkpt>
      <trkpt lat="49.88412" lon="2.34887">
        <ele>25.6</ele>
        <time>2023-10-06T12:54:15Z</time>
      </trkpt>
      <trkpt lat="49.88413" lon="2.34888">
        <ele>25.6</ele>
        <time>2023-10-06T12:54:16Z</time>
      </trkpt>
      <trkpt lat="49.88414" lon="2.34889">
        <ele>25.6</ele>
        <time>2023-10-06T12:54:17Z</time>
      </trkpt>
      <trkpt lat="49.88414" lon="2.3489">
        <ele>25.6</ele>
        <time>2023-10-06T12:54:18Z</time>
      </trkpt>
      <trkpt lat="49.88415" lon="2.34891">
        <ele>25.6</ele>
        <time>2023-10-06T12:54:19Z</time>
      </trkpt>
      <trkpt lat="49.88416" lon="2.34893">
        <ele>25.6</ele>
        <time>2023-10-06T12:54:20Z</time>
      </trkpt>
      <trkpt lat="49.88416" lon="2.34894">
        <ele>25.6</ele>
        <time>2023-10-06T12:54:21Z</time>
      </trkpt>
      <trkpt lat="49.88417" lon="2.34895">
        <ele>25.6</ele>
        <time>2023-10-06T12:54:22Z</time>
      </trkpt>
      <trkpt lat="49.88418" lon="2.34896">
        <ele>25.6</ele>
        <time>2023-10-06T12:54:23Z</time>
      </trkpt>
      <trkpt lat="49.88419" lon="2.34898">
        <ele>25.6</ele>
        <time>2023-10-06T12:54:24Z</time>
      </trkpt>
      <trkpt lat="49.88419" lon="2.34899">
        <ele>25.6</ele>
        <time>2023-10-06T12:54:25Z</time>
      </trkpt>
      <trkpt lat="49.8842" lon="2.349">
        <ele>25.6</ele>
        <time>2023-10-06T12:54:26Z</time>
      </trkpt>
      <trkpt lat="49.88421" lon="2.34902">
        <ele>25.6</ele>
        <time>2023-10-06T12:54:27Z</time>
      </trkpt>
      <trkpt lat="49.88421" lon="2.34903">
        <ele>25.6</ele>
        <time>2023-10-06T12:54:28Z</time>
      </trkpt>
      <trkpt lat="49.88422" lon="2.34905">
        <ele>25.6</ele>
        <time>2023-10-06T12:54:29Z</time>
      </trkpt>
      <trkpt lat="49.88422" lon="2.34906">
        <ele>25.6</ele>
        <time>2023-10-06T12:54:30Z</time>
      </trkpt>
      <trkpt lat="49.88423" lon="2.34908">
        <ele>25.6</ele>
        <time>2023-10-06T12:54:31Z</time>
      </trkpt>
      <trkpt lat="49.88424" lon="2.34909">
        <ele>25.6</ele>
        <time>2023-10-06T12:54:32Z</time>
      </trkpt>
      <trkpt lat="49.88424" lon="2.34911">
        <ele>25.6</ele>
        <time>2023-10-06T12:54:33Z</time>
      </trkpt>
      <trkpt lat="49.88425" lon="2.34913">
        <ele>25.6</ele>
        <time>2023-10-06T12:54:34Z</time>
      </trkpt>
      <trkpt lat="49.88426" lon="2.34914">
        <ele>25.6</ele>
        <time>2023-10-06T12:54:35Z</time>
      </trkpt>
      <trkpt lat="49.88426" lon="2.34915">
        <ele>25.6</ele>
        <time>2023-10-06T12:54:36Z</time>
      </trkpt>
      <trkpt lat="49.88427" lon="2.34918">
        <ele>25.6</ele>
        <time>2023-10-06T12:54:37Z</time>
      </trkpt>
      <trkpt lat="49.88428" lon="2.34919">
        <ele>25.6</ele>
        <time>2023-10-06T12:54:38Z</time>
      </trkpt>
      <trkpt lat="49.88428" lon="2.3492">
        <ele>25.6</ele>
        <time>2023-10-06T12:54:39Z</time>
      </trkpt>
      <trkpt lat="49.88429" lon="2.34922">
        <ele>25.5</ele>
        <time>2023-10-06T12:54:40Z</time>
      </trkpt>
      <trkpt lat="49.88429" lon="2.34923">
        <ele>25.5</ele>
        <time>2023-10-06T12:54:41Z</time>
      </trkpt>
      <trkpt lat="49.8843" lon="2.34924">
        <ele>25.5</ele>
        <time>2023-10-06T12:54:42Z</time>
      </trkpt>
      <trkpt lat="49.88431" lon="2.34925">
        <ele>25.5</ele>
        <time>2023-10-06T12:54:43Z</time>
      </trkpt>
      <trkpt lat="49.88431" lon="2.34927">
        <ele>25.5</ele>
        <time>2023-10-06T12:54:44Z</time>
      </trkpt>
      <trkpt lat="49.88432" lon="2.34928">
        <ele>25.5</ele>
        <time>2023-10-06T12:54:45Z</time>
      </trkpt>
      <trkpt lat="49.88433" lon="2.34929">
        <ele>25.5</ele>
        <time>2023-10-06T12:54:46Z</time>
      </trkpt>
      <trkpt lat="49.88434" lon="2.3493">
        <ele>25.5</ele>
        <time>2023-10-06T12:54:47Z</time>
      </trkpt>
      <trkpt lat="49.88434" lon="2.34931">
        <ele>25.5</ele>
        <time>2023-10-06T12:54:48Z</time>
      </trkpt>
      <trkpt lat="49.88435" lon="2.34933">
        <ele>25.5</ele>
        <time>2023-10-06T12:54:49Z</time>
      </trkpt>
      <trkpt lat="49.88436" lon="2.34934">
        <ele>25.5</ele>
        <time>2023-10-06T12:54:50Z</time>
      </trkpt>
      <trkpt lat="49.88436" lon="2.34935">
        <ele>25.5</ele>
        <time>2023-10-06T12:54:51Z</time>
      </trkpt>
      <trkpt lat="49.88437" lon="2.34937">
        <ele>25.5</ele>
        <time>2023-10-06T12:54:52Z</time>
      </trkpt>
      <trkpt lat="49.88437" lon="2.34938">
        <ele>25.5</ele>
        <time>2023-10-06T12:54:53Z</time>
      </trkpt>
      <trkpt lat="49.88438" lon="2.34939">
        <ele>25.5</ele>
        <time>2023-10-06T12:54:54Z</time>
      </trkpt>
      <trkpt lat="49.88438" lon="2.3494">
        <ele>25.5</ele>
        <time>2023-10-06T12:54:55Z</time>
      </trkpt>
      <trkpt lat="49.88439" lon="2.34942">
        <ele>25.5</ele>
        <time>2023-10-06T12:54:56Z</time>
      </trkpt>
      <trkpt lat="49.88439" lon="2.34943">
        <ele>25.4</ele>
        <time>2023-10-06T12:54:57Z</time>
      </trkpt>
      <trkpt lat="49.8844" lon="2.34944">
        <ele>25.4</ele>
        <time>2023-10-06T12:54:58Z</time>
      </trkpt>
      <trkpt lat="49.8844" lon="2.34945">
        <ele>25.4</ele>
        <time>2023-10-06T12:54:59Z</time>
      </trkpt>
      <trkpt lat="49.88441" lon="2.34947">
        <ele>25.4</ele>
        <time>2023-10-06T12:55:00Z</time>
      </trkpt>
      <trkpt lat="49.88441" lon="2.34949">
        <ele>25.4</ele>
        <time>2023-10-06T12:55:01Z</time>
      </trkpt>
      <trkpt lat="49.88441" lon="2.3495">
        <ele>25.4</ele>
        <time>2023-10-06T12:55:02Z</time>
      </trkpt>
      <trkpt lat="49.88442" lon="2.34952">
        <ele>25.4</ele>
        <time>2023-10-06T12:55:03Z</time>
      </trkpt>
      <trkpt lat="49.88442" lon="2.34953">
        <ele>25.4</ele>
        <time>2023-10-06T12:55:04Z</time>
      </trkpt>
      <trkpt lat="49.88443" lon="2.34955">
        <ele>25.4</ele>
        <time>2023-10-06T12:55:05Z</time>
      </trkpt>
      <trkpt lat="49.88443" lon="2.34956">
        <ele>25.4</ele>
        <time>2023-10-06T12:55:06Z</time>
      </trkpt>
      <trkpt lat="49.88443" lon="2.34958">
        <ele>25.4</ele>
        <time>2023-10-06T12:55:07Z</time>
      </trkpt>
      <trkpt lat="49.88444" lon="2.34959">
        <ele>25.4</ele>
        <time>2023-10-06T12:55:08Z</time>
      </trkpt>
      <trkpt lat="49.88444" lon="2.3496">
        <ele>25.4</ele>
        <time>2023-10-06T12:55:09Z</time>
      </trkpt>
      <trkpt lat="49.88445" lon="2.34962">
        <ele>25.4</ele>
        <time>2023-10-06T12:55:10Z</time>
      </trkpt>
      <trkpt lat="49.88445" lon="2.34963">
        <ele>25.4</ele>
        <time>2023-10-06T12:55:11Z</time>
      </trkpt>
      <trkpt lat="49.88446" lon="2.34965">
        <ele>25.4</ele>
        <time>2023-10-06T12:55:12Z</time>
      </trkpt>
      <trkpt lat="49.88446" lon="2.34966">
        <ele>25.4</ele>
        <time>2023-10-06T12:55:13Z</time>
      </trkpt>
      <trkpt lat="49.88447" lon="2.34967">
        <ele>25.4</ele>
        <time>2023-10-06T12:55:14Z</time>
      </trkpt>
      <trkpt lat="49.88447" lon="2.34969">
        <ele>25.4</ele>
        <time>2023-10-06T12:55:15Z</time>
      </trkpt>
      <trkpt lat="49.88448" lon="2.3497">
        <ele>25.4</ele>
        <time>2023-10-06T12:55:16Z</time>
      </trkpt>
      <trkpt lat="49.88448" lon="2.34972">
        <ele>25.4</ele>
        <time>2023-10-06T12:55:17Z</time>
      </trkpt>
      <trkpt lat="49.88449" lon="2.34973">
        <ele>25.4</ele>
        <time>2023-10-06T12:55:18Z</time>
      </trkpt>
      <trkpt lat="49.8845" lon="2.34974">
        <ele>25.4</ele>
        <time>2023-10-06T12:55:19Z</time>
      </trkpt>
      <trkpt lat="49.8845" lon="2.34976">
        <ele>25.4</ele>
        <time>2023-10-06T12:55:20Z</time>
      </trkpt>
      <trkpt lat="49.8845" lon="2.34977">
        <ele>25.4</ele>
        <time>2023-10-06T12:55:21Z</time>
      </trkpt>
      <trkpt lat="49.88451" lon="2.34979">
        <ele>25.4</ele>
        <time>2023-10-06T12:55:22Z</time>
      </trkpt>
      <trkpt lat="49.88451" lon="2.3498">
        <ele>25.4</ele>
        <time>2023-10-06T12:55:23Z</time>
      </trkpt>
      <trkpt lat="49.88452" lon="2.34982">
        <ele>25.4</ele>
        <time>2023-10-06T12:55:24Z</time>
      </trkpt>
      <trkpt lat="49.88452" lon="2.34984">
        <ele>25.4</ele>
        <time>2023-10-06T12:55:25Z</time>
      </trkpt>
      <trkpt lat="49.88453" lon="2.34987">
        <ele>25.4</ele>
        <time>2023-10-06T12:55:26Z</time>
      </trkpt>
      <trkpt lat="49.88453" lon="2.34988">
        <ele>25.5</ele>
        <time>2023-10-06T12:55:27Z</time>
      </trkpt>
      <trkpt lat="49.88454" lon="2.34989">
        <ele>25.5</ele>
        <time>2023-10-06T12:55:28Z</time>
      </trkpt>
      <trkpt lat="49.88454" lon="2.34992">
        <ele>25.5</ele>
        <time>2023-10-06T12:55:29Z</time>
      </trkpt>
      <trkpt lat="49.88454" lon="2.34994">
        <ele>25.5</ele>
        <time>2023-10-06T12:55:30Z</time>
      </trkpt>
      <trkpt lat="49.88455" lon="2.34995">
        <ele>25.5</ele>
        <time>2023-10-06T12:55:31Z</time>
      </trkpt>
      <trkpt lat="49.88455" lon="2.34997">
        <ele>25.5</ele>
        <time>2023-10-06T12:55:32Z</time>
      </trkpt>
      <trkpt lat="49.88455" lon="2.34998">
        <ele>25.5</ele>
        <time>2023-10-06T12:55:33Z</time>
      </trkpt>
      <trkpt lat="49.88455" lon="2.35">
        <ele>25.5</ele>
        <time>2023-10-06T12:55:34Z</time>
      </trkpt>
      <trkpt lat="49.88455" lon="2.35001">
        <ele>25.5</ele>
        <time>2023-10-06T12:55:35Z</time>
      </trkpt>
      <trkpt lat="49.88454" lon="2.35001">
        <ele>25.5</ele>
        <time>2023-10-06T12:55:36Z</time>
      </trkpt>
      <trkpt lat="49.88454" lon="2.35002">
        <ele>25.5</ele>
        <time>2023-10-06T12:55:37Z</time>
      </trkpt>
      <trkpt lat="49.88453" lon="2.35002">
        <ele>25.5</ele>
        <time>2023-10-06T12:55:38Z</time>
      </trkpt>
      <trkpt lat="49.88453" lon="2.35002">
        <ele>25.5</ele>
        <time>2023-10-06T12:55:39Z</time>
      </trkpt>
      <trkpt lat="49.88453" lon="2.35001">
        <ele>25.5</ele>
        <time>2023-10-06T12:55:40Z</time>
      </trkpt>
      <trkpt lat="49.88453" lon="2.35001">
        <ele>25.5</ele>
        <time>2023-10-06T12:55:41Z</time>
      </trkpt>
      <trkpt lat="49.88453" lon="2.35001">
        <ele>25.5</ele>
        <time>2023-10-06T12:55:42Z</time>
      </trkpt>
      <trkpt lat="49.88453" lon="2.35001">
        <ele>25.6</ele>
        <time>2023-10-06T12:55:43Z</time>
      </trkpt>
      <trkpt lat="49.88453" lon="2.35001">
        <ele>25.6</ele>
        <time>2023-10-06T12:55:44Z</time>
      </trkpt>
      <trkpt lat="49.88453" lon="2.35001">
        <ele>25.6</ele>
        <time>2023-10-06T12:55:45Z</time>
      </trkpt>
      <trkpt lat="49.88453" lon="2.35001">
        <ele>25.6</ele>
        <time>2023-10-06T12:55:46Z</time>
      </trkpt>
      <trkpt lat="49.88453" lon="2.35001">
        <ele>25.6</ele>
        <time>2023-10-06T12:55:47Z</time>
      </trkpt>
      <trkpt lat="49.88453" lon="2.35">
        <ele>25.6</ele>
        <time>2023-10-06T12:55:48Z</time>
      </trkpt>
      <trkpt lat="49.88453" lon="2.35">
        <ele>25.6</ele>
        <time>2023-10-06T12:55:49Z</time>
      </trkpt>
      <trkpt lat="49.88453" lon="2.35">
        <ele>25.6</ele>
        <time>2023-10-06T12:55:50Z</time>
      </trkpt>
      <trkpt lat="49.88453" lon="2.35">
        <ele>25.6</ele>
        <time>2023-10-06T12:55:51Z</time>
      </trkpt>
      <trkpt lat="49.88453" lon="2.35">
        <ele>25.6</ele>
        <time>2023-10-06T12:55:52Z</time>
      </trkpt>
      <trkpt lat="49.88453" lon="2.35">
        <ele>25.6</ele>
        <time>2023-10-06T12:55:53Z</time>
      </trkpt>
      <trkpt lat="49.88453" lon="2.35">
        <ele>25.6</ele>
        <time>2023-10-06T12:55:54Z</time>
      </trkpt>
      <trkpt lat="49.88453" lon="2.35">
        <ele>25.6</ele>
        <time>2023-10-06T12:55:55Z</time>
      </trkpt>
      <trkpt lat="49.88453" lon="2.35">
        <ele>25.6</ele>
        <time>2023-10-06T12:55:56Z</time>
      </trkpt>
      <trkpt lat="49.88453" lon="2.35">
        <ele>25.6</ele>
        <time>2023-10-06T12:55:57Z</time>
      </trkpt>
      <trkpt lat="49.88453" lon="2.35001">
        <ele>25.6</ele>
        <time>2023-10-06T12:55:58Z</time>
      </trkpt>
      <trkpt lat="49.88454" lon="2.35002">
        <ele>25.6</ele>
        <time>2023-10-06T12:55:59Z</time>
      </trkpt>
      <trkpt lat="49.88454" lon="2.35003">
        <ele>25.6</ele>
        <time>2023-10-06T12:56:00Z</time>
      </trkpt>
      <trkpt lat="49.88454" lon="2.35005">
        <ele>25.6</ele>
        <time>2023-10-06T12:56:01Z</time>
      </trkpt>
      <trkpt lat="49.88454" lon="2.35007">
        <ele>25.6</ele>
        <time>2023-10-06T12:56:02Z</time>
      </trkpt>
      <trkpt lat="49.88454" lon="2.35008">
        <ele>25.6</ele>
        <time>2023-10-06T12:56:03Z</time>
      </trkpt>
      <trkpt lat="49.88454" lon="2.3501">
        <ele>25.7</ele>
        <time>2023-10-06T12:56:04Z</time>
      </trkpt>
      <trkpt lat="49.88455" lon="2.35011">
        <ele>25.7</ele>
        <time>2023-10-06T12:56:05Z</time>
      </trkpt>
      <trkpt lat="49.88455" lon="2.35013">
        <ele>25.7</ele>
        <time>2023-10-06T12:56:06Z</time>
      </trkpt>
      <trkpt lat="49.88455" lon="2.35014">
        <ele>25.7</ele>
        <time>2023-10-06T12:56:07Z</time>
      </trkpt>
      <trkpt lat="49.88456" lon="2.35016">
        <ele>25.8</ele>
        <time>2023-10-06T12:56:08Z</time>
      </trkpt>
      <trkpt lat="49.88456" lon="2.35017">
        <ele>25.8</ele>
        <time>2023-10-06T12:56:09Z</time>
      </trkpt>
      <trkpt lat="49.88456" lon="2.35019">
        <ele>25.8</ele>
        <time>2023-10-06T12:56:10Z</time>
      </trkpt>
      <trkpt lat="49.88456" lon="2.35021">
        <ele>25.9</ele>
        <time>2023-10-06T12:56:11Z</time>
      </trkpt>
      <trkpt lat="49.88456" lon="2.35022">
        <ele>25.9</ele>
        <time>2023-10-06T12:56:12Z</time>
      </trkpt>
      <trkpt lat="49.88457" lon="2.35024">
        <ele>25.9</ele>
        <time>2023-10-06T12:56:13Z</time>
      </trkpt>
      <trkpt lat="49.88457" lon="2.35025">
        <ele>26</ele>
        <time>2023-10-06T12:56:14Z</time>
      </trkpt>
      <trkpt lat="49.88457" lon="2.35027">
        <ele>26</ele>
        <time>2023-10-06T12:56:15Z</time>
      </trkpt>
      <trkpt lat="49.88458" lon="2.35028">
        <ele>26</ele>
        <time>2023-10-06T12:56:16Z</time>
      </trkpt>
      <trkpt lat="49.88458" lon="2.35029">
        <ele>26.1</ele>
        <time>2023-10-06T12:56:17Z</time>
      </trkpt>
      <trkpt lat="49.88458" lon="2.3503">
        <ele>26.1</ele>
        <time>2023-10-06T12:56:18Z</time>
      </trkpt>
      <trkpt lat="49.88458" lon="2.35031">
        <ele>26.1</ele>
        <time>2023-10-06T12:56:19Z</time>
      </trkpt>
      <trkpt lat="49.88459" lon="2.35032">
        <ele>26.2</ele>
        <time>2023-10-06T12:56:20Z</time>
      </trkpt>
      <trkpt lat="49.88459" lon="2.35033">
        <ele>26.2</ele>
        <time>2023-10-06T12:56:21Z</time>
      </trkpt>
      <trkpt lat="49.88459" lon="2.35034">
        <ele>26.2</ele>
        <time>2023-10-06T12:56:22Z</time>
      </trkpt>
      <trkpt lat="49.88459" lon="2.35035">
        <ele>26.2</ele>
        <time>2023-10-06T12:56:23Z</time>
      </trkpt>
      <trkpt lat="49.88459" lon="2.35036">
        <ele>26.3</ele>
        <time>2023-10-06T12:56:24Z</time>
      </trkpt>
      <trkpt lat="49.8846" lon="2.35037">
        <ele>26.3</ele>
        <time>2023-10-06T12:56:25Z</time>
      </trkpt>
      <trkpt lat="49.8846" lon="2.35039">
        <ele>26.4</ele>
        <time>2023-10-06T12:56:26Z</time>
      </trkpt>
      <trkpt lat="49.88461" lon="2.3504">
        <ele>26.4</ele>
        <time>2023-10-06T12:56:27Z</time>
      </trkpt>
      <trkpt lat="49.88461" lon="2.35042">
        <ele>26.5</ele>
        <time>2023-10-06T12:56:28Z</time>
      </trkpt>
      <trkpt lat="49.88462" lon="2.35044">
        <ele>26.6</ele>
        <time>2023-10-06T12:56:29Z</time>
      </trkpt>
      <trkpt lat="49.88462" lon="2.35046">
        <ele>26.7</ele>
        <time>2023-10-06T12:56:30Z</time>
      </trkpt>
      <trkpt lat="49.88463" lon="2.35047">
        <ele>26.7</ele>
        <time>2023-10-06T12:56:31Z</time>
      </trkpt>
      <trkpt lat="49.88464" lon="2.3505">
        <ele>26.8</ele>
        <time>2023-10-06T12:56:32Z</time>
      </trkpt>
      <trkpt lat="49.88464" lon="2.35051">
        <ele>26.9</ele>
        <time>2023-10-06T12:56:33Z</time>
      </trkpt>
      <trkpt lat="49.88465" lon="2.35052">
        <ele>26.9</ele>
        <time>2023-10-06T12:56:34Z</time>
      </trkpt>
      <trkpt lat="49.88465" lon="2.35053">
        <ele>27</ele>
        <time>2023-10-06T12:56:35Z</time>
      </trkpt>
      <trkpt lat="49.88466" lon="2.35054">
        <ele>27</ele>
        <time>2023-10-06T12:56:36Z</time>
      </trkpt>
      <trkpt lat="49.88466" lon="2.35056">
        <ele>27.1</ele>
        <time>2023-10-06T12:56:37Z</time>
      </trkpt>
      <trkpt lat="49.88467" lon="2.35057">
        <ele>27.2</ele>
        <time>2023-10-06T12:56:38Z</time>
      </trkpt>
      <trkpt lat="49.88468" lon="2.35058">
        <ele>27.2</ele>
        <time>2023-10-06T12:56:39Z</time>
      </trkpt>
      <trkpt lat="49.88468" lon="2.35059">
        <ele>27.3</ele>
        <time>2023-10-06T12:56:40Z</time>
      </trkpt>
      <trkpt lat="49.88469" lon="2.35059">
        <ele>27.3</ele>
        <time>2023-10-06T12:56:41Z</time>
      </trkpt>
      <trkpt lat="49.88469" lon="2.3506">
        <ele>27.3</ele>
        <time>2023-10-06T12:56:42Z</time>
      </trkpt>
      <trkpt lat="49.8847" lon="2.35061">
        <ele>27.4</ele>
        <time>2023-10-06T12:56:43Z</time>
      </trkpt>
      <trkpt lat="49.8847" lon="2.35061">
        <ele>27.4</ele>
        <time>2023-10-06T12:56:44Z</time>
      </trkpt>
      <trkpt lat="49.88471" lon="2.35061">
        <ele>27.4</ele>
        <time>2023-10-06T12:56:45Z</time>
      </trkpt>
      <trkpt lat="49.88471" lon="2.35062">
        <ele>27.5</ele>
        <time>2023-10-06T12:56:46Z</time>
      </trkpt>
      <trkpt lat="49.88471" lon="2.35063">
        <ele>27.5</ele>
        <time>2023-10-06T12:56:47Z</time>
      </trkpt>
      <trkpt lat="49.88471" lon="2.35064">
        <ele>27.5</ele>
        <time>2023-10-06T12:56:48Z</time>
      </trkpt>
      <trkpt lat="49.88471" lon="2.35065">
        <ele>27.6</ele>
        <time>2023-10-06T12:56:49Z</time>
      </trkpt>
      <trkpt lat="49.88471" lon="2.35065">
        <ele>27.6</ele>
        <time>2023-10-06T12:56:50Z</time>
      </trkpt>
      <trkpt lat="49.88471" lon="2.35066">
        <ele>27.8</ele>
        <time>2023-10-06T12:56:51Z</time>
      </trkpt>
      <trkpt lat="49.88471" lon="2.35066">
        <ele>27.8</ele>
        <time>2023-10-06T12:56:52Z</time>
      </trkpt>
      <trkpt lat="49.88471" lon="2.35066">
        <ele>27.8</ele>
        <time>2023-10-06T12:56:53Z</time>
      </trkpt>
      <trkpt lat="49.88471" lon="2.35066">
        <ele>27.8</ele>
        <time>2023-10-06T12:56:54Z</time>
      </trkpt>
      <trkpt lat="49.88471" lon="2.35066">
        <ele>27.8</ele>
        <time>2023-10-06T12:56:55Z</time>
      </trkpt>
      <trkpt lat="49.88471" lon="2.35066">
        <ele>27.8</ele>
        <time>2023-10-06T12:56:56Z</time>
      </trkpt>
      <trkpt lat="49.88471" lon="2.35066">
        <ele>27.8</ele>
        <time>2023-10-06T12:56:57Z</time>
      </trkpt>
      <trkpt lat="49.88471" lon="2.35066">
        <ele>27.8</ele>
        <time>2023-10-06T12:56:58Z</time>
      </trkpt>
      <trkpt lat="49.88471" lon="2.35066">
        <ele>27.8</ele>
        <time>2023-10-06T12:56:59Z</time>
      </trkpt>
      <trkpt lat="49.88471" lon="2.35066">
        <ele>27.8</ele>
        <time>2023-10-06T12:57:00Z</time>
      </trkpt>
      <trkpt lat="49.88471" lon="2.35066">
        <ele>27.8</ele>
        <time>2023-10-06T12:57:01Z</time>
      </trkpt>
      <trkpt lat="49.88471" lon="2.35066">
        <ele>27.8</ele>
        <time>2023-10-06T12:57:02Z</time>
      </trkpt>
      <trkpt lat="49.88471" lon="2.35066">
        <ele>27.8</ele>
        <time>2023-10-06T12:57:03Z</time>
      </trkpt>
      <trkpt lat="49.88471" lon="2.35066">
        <ele>27.8</ele>
        <time>2023-10-06T12:57:04Z</time>
      </trkpt>
      <trkpt lat="49.88471" lon="2.35066">
        <ele>27.8</ele>
        <time>2023-10-06T12:57:05Z</time>
      </trkpt>
      <trkpt lat="49.88471" lon="2.35066">
        <ele>27.8</ele>
        <time>2023-10-06T12:57:06Z</time>
      </trkpt>
      <trkpt lat="49.88471" lon="2.35066">
        <ele>27.8</ele>
        <time>2023-10-06T12:57:07Z</time>
      </trkpt>
      <trkpt lat="49.88471" lon="2.35066">
        <ele>27.8</ele>
        <time>2023-10-06T12:57:08Z</time>
      </trkpt>
      <trkpt lat="49.88471" lon="2.35065">
        <ele>27.8</ele>
        <time>2023-10-06T12:57:09Z</time>
      </trkpt>
      <trkpt lat="49.88471" lon="2.35065">
        <ele>27.8</ele>
        <time>2023-10-06T12:57:10Z</time>
      </trkpt>
      <trkpt lat="49.88471" lon="2.35065">
        <ele>27.8</ele>
        <time>2023-10-06T12:57:11Z</time>
      </trkpt>
      <trkpt lat="49.88471" lon="2.35065">
        <ele>27.8</ele>
        <time>2023-10-06T12:57:12Z</time>
      </trkpt>
      <trkpt lat="49.88471" lon="2.35065">
        <ele>27.8</ele>
        <time>2023-10-06T12:57:13Z</time>
      </trkpt>
      <trkpt lat="49.88471" lon="2.35065">
        <ele>27.8</ele>
        <time>2023-10-06T12:57:14Z</time>
      </trkpt>
      <trkpt lat="49.88471" lon="2.35065">
        <ele>27.8</ele>
        <time>2023-10-06T12:57:15Z</time>
      </trkpt>
      <trkpt lat="49.88471" lon="2.35065">
        <ele>27.8</ele>
        <time>2023-10-06T12:57:16Z</time>
      </trkpt>
      <trkpt lat="49.88471" lon="2.35065">
        <ele>27.8</ele>
        <time>2023-10-06T12:57:17Z</time>
      </trkpt>
      <trkpt lat="49.88471" lon="2.35065">
        <ele>27.8</ele>
        <time>2023-10-06T12:57:18Z</time>
      </trkpt>
      <trkpt lat="49.88471" lon="2.35065">
        <ele>27.8</ele>
        <time>2023-10-06T12:57:19Z</time>
      </trkpt>
      <trkpt lat="49.88471" lon="2.35065">
        <ele>27.8</ele>
        <time>2023-10-06T12:57:20Z</time>
      </trkpt>
      <trkpt lat="49.88471" lon="2.35065">
        <ele>27.8</ele>
        <time>2023-10-06T12:57:21Z</time>
      </trkpt>
      <trkpt lat="49.88471" lon="2.35065">
        <ele>27.8</ele>
        <time>2023-10-06T12:57:22Z</time>
      </trkpt>
      <trkpt lat="49.88471" lon="2.35065">
        <ele>27.8</ele>
        <time>2023-10-06T12:57:23Z</time>
      </trkpt>
      <trkpt lat="49.88471" lon="2.35065">
        <ele>27.8</ele>
        <time>2023-10-06T12:57:24Z</time>
      </trkpt>
      <trkpt lat="49.88471" lon="2.35065">
        <ele>27.8</ele>
        <time>2023-10-06T12:57:25Z</time>
      </trkpt>
      <trkpt lat="49.88471" lon="2.35065">
        <ele>27.8</ele>
        <time>2023-10-06T12:57:26Z</time>
      </trkpt>
      <trkpt lat="49.88471" lon="2.35065">
        <ele>27.8</ele>
        <time>2023-10-06T12:57:27Z</time>
      </trkpt>
      <trkpt lat="49.88471" lon="2.35065">
        <ele>27.8</ele>
        <time>2023-10-06T12:57:28Z</time>
      </trkpt>
      <trkpt lat="49.88471" lon="2.35065">
        <ele>27.8</ele>
        <time>2023-10-06T12:57:29Z</time>
      </trkpt>
      <trkpt lat="49.88471" lon="2.35065">
        <ele>27.8</ele>
        <time>2023-10-06T12:57:30Z</time>
      </trkpt>
      <trkpt lat="49.88471" lon="2.35065">
        <ele>27.8</ele>
        <time>2023-10-06T12:57:31Z</time>
      </trkpt>
      <trkpt lat="49.88471" lon="2.35065">
        <ele>27.8</ele>
        <time>2023-10-06T12:57:32Z</time>
      </trkpt>
      <trkpt lat="49.88471" lon="2.35065">
        <ele>27.8</ele>
        <time>2023-10-06T12:57:33Z</time>
      </trkpt>
      <trkpt lat="49.88471" lon="2.35065">
        <ele>27.8</ele>
        <time>2023-10-06T12:57:34Z</time>
      </trkpt>
      <trkpt lat="49.88471" lon="2.35065">
        <ele>27.8</ele>
        <time>2023-10-06T12:57:35Z</time>
      </trkpt>
      <trkpt lat="49.88471" lon="2.35065">
        <ele>27.8</ele>
        <time>2023-10-06T12:57:36Z</time>
      </trkpt>
      <trkpt lat="49.88471" lon="2.35065">
        <ele>27.8</ele>
        <time>2023-10-06T12:57:37Z</time>
      </trkpt>
      <trkpt lat="49.88471" lon="2.35065">
        <ele>27.8</ele>
        <time>2023-10-06T12:57:38Z</time>
      </trkpt>
      <trkpt lat="49.88471" lon="2.35065">
        <ele>27.8</ele>
        <time>2023-10-06T12:57:39Z</time>
      </trkpt>
      <trkpt lat="49.88471" lon="2.35065">
        <ele>27.8</ele>
        <time>2023-10-06T12:57:40Z</time>
      </trkpt>
      <trkpt lat="49.88471" lon="2.35065">
        <ele>27.8</ele>
        <time>2023-10-06T12:57:41Z</time>
      </trkpt>
      <trkpt lat="49.88471" lon="2.35065">
        <ele>27.8</ele>
        <time>2023-10-06T12:57:42Z</time>
      </trkpt>
      <trkpt lat="49.88471" lon="2.35065">
        <ele>27.8</ele>
        <time>2023-10-06T12:57:43Z</time>
      </trkpt>
      <trkpt lat="49.88471" lon="2.35065">
        <ele>27.8</ele>
        <time>2023-10-06T12:57:44Z</time>
      </trkpt>
      <trkpt lat="49.88471" lon="2.35065">
        <ele>27.8</ele>
        <time>2023-10-06T12:57:45Z</time>
      </trkpt>
      <trkpt lat="49.88471" lon="2.35065">
        <ele>27.8</ele>
        <time>2023-10-06T12:57:46Z</time>
      </trkpt>
      <trkpt lat="49.88471" lon="2.35065">
        <ele>27.8</ele>
        <time>2023-10-06T12:57:47Z</time>
      </trkpt>
      <trkpt lat="49.88471" lon="2.35062">
        <ele>27.8</ele>
        <time>2023-10-06T12:57:48Z</time>
      </trkpt>
      <trkpt lat="49.88471" lon="2.3506">
        <ele>27.8</ele>
        <time>2023-10-06T12:57:49Z</time>
      </trkpt>
      <trkpt lat="49.8847" lon="2.3506">
        <ele>27.8</ele>
        <time>2023-10-06T12:57:50Z</time>
      </trkpt>
      <trkpt lat="49.8847" lon="2.35061">
        <ele>27.8</ele>
        <time>2023-10-06T12:57:51Z</time>
      </trkpt>
      <trkpt lat="49.8847" lon="2.35062">
        <ele>27.8</ele>
        <time>2023-10-06T12:57:52Z</time>
      </trkpt>
      <trkpt lat="49.8847" lon="2.35063">
        <ele>27.8</ele>
        <time>2023-10-06T12:57:53Z</time>
      </trkpt>
      <trkpt lat="49.8847" lon="2.35064">
        <ele>27.8</ele>
        <time>2023-10-06T12:57:54Z</time>
      </trkpt>
      <trkpt lat="49.8847" lon="2.35066">
        <ele>27.8</ele>
        <time>2023-10-06T12:57:55Z</time>
      </trkpt>
      <trkpt lat="49.88469" lon="2.35067">
        <ele>27.8</ele>
        <time>2023-10-06T12:57:56Z</time>
      </trkpt>
      <trkpt lat="49.88469" lon="2.35068">
        <ele>27.8</ele>
        <time>2023-10-06T12:57:57Z</time>
      </trkpt>
      <trkpt lat="49.88469" lon="2.35068">
        <ele>27.8</ele>
        <time>2023-10-06T12:57:58Z</time>
      </trkpt>
      <trkpt lat="49.88469" lon="2.35069">
        <ele>27.8</ele>
        <time>2023-10-06T12:57:59Z</time>
      </trkpt>
      <trkpt lat="49.88468" lon="2.35069">
        <ele>27.8</ele>
        <time>2023-10-06T12:58:00Z</time>
      </trkpt>
      <trkpt lat="49.88468" lon="2.3507">
        <ele>27.8</ele>
        <time>2023-10-06T12:58:01Z</time>
      </trkpt>
      <trkpt lat="49.88467" lon="2.3507">
        <ele>27.8</ele>
        <time>2023-10-06T12:58:02Z</time>
      </trkpt>
      <trkpt lat="49.88467" lon="2.35071">
        <ele>27.8</ele>
        <time>2023-10-06T12:58:03Z</time>
      </trkpt>
      <trkpt lat="49.88466" lon="2.35071">
        <ele>27.7</ele>
        <time>2023-10-06T12:58:04Z</time>
      </trkpt>
      <trkpt lat="49.88466" lon="2.35072">
        <ele>27.7</ele>
        <time>2023-10-06T12:58:05Z</time>
      </trkpt>
      <trkpt lat="49.88466" lon="2.35072">
        <ele>27.7</ele>
        <time>2023-10-06T12:58:06Z</time>
      </trkpt>
      <trkpt lat="49.88466" lon="2.35072">
        <ele>27.7</ele>
        <time>2023-10-06T12:58:07Z</time>
      </trkpt>
      <trkpt lat="49.88465" lon="2.35072">
        <ele>27.7</ele>
        <time>2023-10-06T12:58:08Z</time>
      </trkpt>
      <trkpt lat="49.88465" lon="2.35072">
        <ele>27.7</ele>
        <time>2023-10-06T12:58:09Z</time>
      </trkpt>
      <trkpt lat="49.88465" lon="2.35072">
        <ele>27.7</ele>
        <time>2023-10-06T12:58:10Z</time>
      </trkpt>
      <trkpt lat="49.88465" lon="2.35072">
        <ele>27.7</ele>
        <time>2023-10-06T12:58:11Z</time>
      </trkpt>
      <trkpt lat="49.88465" lon="2.35072">
        <ele>27.7</ele>
        <time>2023-10-06T12:58:12Z</time>
      </trkpt>
      <trkpt lat="49.88464" lon="2.35072">
        <ele>27.7</ele>
        <time>2023-10-06T12:58:13Z</time>
      </trkpt>
      <trkpt lat="49.88464" lon="2.35073">
        <ele>27.7</ele>
        <time>2023-10-06T12:58:14Z</time>
      </trkpt>
      <trkpt lat="49.88464" lon="2.35073">
        <ele>27.7</ele>
        <time>2023-10-06T12:58:15Z</time>
      </trkpt>
      <trkpt lat="49.88464" lon="2.35073">
        <ele>27.7</ele>
        <time>2023-10-06T12:58:16Z</time>
      </trkpt>
      <trkpt lat="49.88464" lon="2.35074">
        <ele>27.7</ele>
        <time>2023-10-06T12:58:17Z</time>
      </trkpt>
      <trkpt lat="49.88463" lon="2.35074">
        <ele>27.7</ele>
        <time>2023-10-06T12:58:18Z</time>
      </trkpt>
      <trkpt lat="49.88463" lon="2.35075">
        <ele>27.7</ele>
        <time>2023-10-06T12:58:19Z</time>
      </trkpt>
      <trkpt lat="49.88463" lon="2.35076">
        <ele>27.7</ele>
        <time>2023-10-06T12:58:20Z</time>
      </trkpt>
      <trkpt lat="49.88462" lon="2.35076">
        <ele>27.7</ele>
        <time>2023-10-06T12:58:21Z</time>
      </trkpt>
      <trkpt lat="49.88462" lon="2.35077">
        <ele>27.7</ele>
        <time>2023-10-06T12:58:22Z</time>
      </trkpt>
      <trkpt lat="49.88461" lon="2.35078">
        <ele>27.7</ele>
        <time>2023-10-06T12:58:23Z</time>
      </trkpt>
      <trkpt lat="49.8846" lon="2.35079">
        <ele>27.7</ele>
        <time>2023-10-06T12:58:24Z</time>
      </trkpt>
      <trkpt lat="49.8846" lon="2.3508">
        <ele>27.6</ele>
        <time>2023-10-06T12:58:25Z</time>
      </trkpt>
      <trkpt lat="49.88459" lon="2.35081">
        <ele>27.6</ele>
        <time>2023-10-06T12:58:26Z</time>
      </trkpt>
      <trkpt lat="49.88458" lon="2.35082">
        <ele>27.6</ele>
        <time>2023-10-06T12:58:27Z</time>
      </trkpt>
      <trkpt lat="49.88458" lon="2.35083">
        <ele>27.6</ele>
        <time>2023-10-06T12:58:28Z</time>
      </trkpt>
      <trkpt lat="49.88457" lon="2.35084">
        <ele>27.6</ele>
        <time>2023-10-06T12:58:29Z</time>
      </trkpt>
      <trkpt lat="49.88457" lon="2.35085">
        <ele>27.6</ele>
        <time>2023-10-06T12:58:30Z</time>
      </trkpt>
      <trkpt lat="49.88456" lon="2.35086">
        <ele>27.6</ele>
        <time>2023-10-06T12:58:31Z</time>
      </trkpt>
      <trkpt lat="49.88456" lon="2.35087">
        <ele>27.6</ele>
        <time>2023-10-06T12:58:32Z</time>
      </trkpt>
      <trkpt lat="49.88455" lon="2.35088">
        <ele>27.6</ele>
        <time>2023-10-06T12:58:33Z</time>
      </trkpt>
      <trkpt lat="49.88455" lon="2.35089">
        <ele>27.6</ele>
        <time>2023-10-06T12:58:34Z</time>
      </trkpt>
      <trkpt lat="49.88454" lon="2.3509">
        <ele>27.6</ele>
        <time>2023-10-06T12:58:35Z</time>
      </trkpt>
      <trkpt lat="49.88454" lon="2.35091">
        <ele>27.6</ele>
        <time>2023-10-06T12:58:36Z</time>
      </trkpt>
      <trkpt lat="49.88453" lon="2.35092">
        <ele>27.6</ele>
        <time>2023-10-06T12:58:37Z</time>
      </trkpt>
      <trkpt lat="49.88453" lon="2.35092">
        <ele>27.6</ele>
        <time>2023-10-06T12:58:38Z</time>
      </trkpt>
      <trkpt lat="49.88453" lon="2.35093">
        <ele>27.6</ele>
        <time>2023-10-06T12:58:39Z</time>
      </trkpt>
      <trkpt lat="49.88453" lon="2.35093">
        <ele>27.6</ele>
        <time>2023-10-06T12:58:40Z</time>
      </trkpt>
      <trkpt lat="49.88453" lon="2.35094">
        <ele>27.6</ele>
        <time>2023-10-06T12:58:41Z</time>
      </trkpt>
      <trkpt lat="49.88453" lon="2.35095">
        <ele>27.6</ele>
        <time>2023-10-06T12:58:42Z</time>
      </trkpt>
      <trkpt lat="49.88453" lon="2.35096">
        <ele>27.6</ele>
        <time>2023-10-06T12:58:43Z</time>
      </trkpt>
      <trkpt lat="49.88453" lon="2.35097">
        <ele>27.6</ele>
        <time>2023-10-06T12:58:44Z</time>
      </trkpt>
      <trkpt lat="49.88453" lon="2.35098">
        <ele>27.7</ele>
        <time>2023-10-06T12:58:45Z</time>
      </trkpt>
      <trkpt lat="49.88453" lon="2.35099">
        <ele>27.7</ele>
        <time>2023-10-06T12:58:46Z</time>
      </trkpt>
      <trkpt lat="49.88454" lon="2.351">
        <ele>27.7</ele>
        <time>2023-10-06T12:58:47Z</time>
      </trkpt>
      <trkpt lat="49.88454" lon="2.35101">
        <ele>27.8</ele>
        <time>2023-10-06T12:58:48Z</time>
      </trkpt>
      <trkpt lat="49.88454" lon="2.35102">
        <ele>27.8</ele>
        <time>2023-10-06T12:58:49Z</time>
      </trkpt>
      <trkpt lat="49.88455" lon="2.35104">
        <ele>27.7</ele>
        <time>2023-10-06T12:58:50Z</time>
      </trkpt>
      <trkpt lat="49.88455" lon="2.35105">
        <ele>27.7</ele>
        <time>2023-10-06T12:58:51Z</time>
      </trkpt>
      <trkpt lat="49.88455" lon="2.35106">
        <ele>27.6</ele>
        <time>2023-10-06T12:58:52Z</time>
      </trkpt>
      <trkpt lat="49.88455" lon="2.35107">
        <ele>27.6</ele>
        <time>2023-10-06T12:58:53Z</time>
      </trkpt>
      <trkpt lat="49.88455" lon="2.35109">
        <ele>27.6</ele>
        <time>2023-10-06T12:58:54Z</time>
      </trkpt>
      <trkpt lat="49.88454" lon="2.35109">
        <ele>27.5</ele>
        <time>2023-10-06T12:58:55Z</time>
      </trkpt>
      <trkpt lat="49.88454" lon="2.3511">
        <ele>27.5</ele>
        <time>2023-10-06T12:58:56Z</time>
      </trkpt>
      <trkpt lat="49.88453" lon="2.35111">
        <ele>27.5</ele>
        <time>2023-10-06T12:58:57Z</time>
      </trkpt>
      <trkpt lat="49.88452" lon="2.35112">
        <ele>27.4</ele>
        <time>2023-10-06T12:58:58Z</time>
      </trkpt>
      <trkpt lat="49.88451" lon="2.35113">
        <ele>27.4</ele>
        <time>2023-10-06T12:58:59Z</time>
      </trkpt>
      <trkpt lat="49.8845" lon="2.35114">
        <ele>27.3</ele>
        <time>2023-10-06T12:59:00Z</time>
      </trkpt>
      <trkpt lat="49.88449" lon="2.35115">
        <ele>27.3</ele>
        <time>2023-10-06T12:59:01Z</time>
      </trkpt>
      <trkpt lat="49.88449" lon="2.35116">
        <ele>27.3</ele>
        <time>2023-10-06T12:59:02Z</time>
      </trkpt>
      <trkpt lat="49.88448" lon="2.35117">
        <ele>27.2</ele>
        <time>2023-10-06T12:59:03Z</time>
      </trkpt>
      <trkpt lat="49.88448" lon="2.35118">
        <ele>27.2</ele>
        <time>2023-10-06T12:59:04Z</time>
      </trkpt>
      <trkpt lat="49.88447" lon="2.3512">
        <ele>27.2</ele>
        <time>2023-10-06T12:59:05Z</time>
      </trkpt>
      <trkpt lat="49.88447" lon="2.35121">
        <ele>27.1</ele>
        <time>2023-10-06T12:59:06Z</time>
      </trkpt>
      <trkpt lat="49.88446" lon="2.35121">
        <ele>27.1</ele>
        <time>2023-10-06T12:59:07Z</time>
      </trkpt>
      <trkpt lat="49.88446" lon="2.35122">
        <ele>27.1</ele>
        <time>2023-10-06T12:59:08Z</time>
      </trkpt>
      <trkpt lat="49.88445" lon="2.35123">
        <ele>27.1</ele>
        <time>2023-10-06T12:59:09Z</time>
      </trkpt>
      <trkpt lat="49.88445" lon="2.35123">
        <ele>27</ele>
        <time>2023-10-06T12:59:10Z</time>
      </trkpt>
      <trkpt lat="49.88444" lon="2.35124">
        <ele>27</ele>
        <time>2023-10-06T12:59:11Z</time>
      </trkpt>
      <trkpt lat="49.88444" lon="2.35125">
        <ele>27</ele>
        <time>2023-10-06T12:59:12Z</time>
      </trkpt>
      <trkpt lat="49.88443" lon="2.35125">
        <ele>27</ele>
        <time>2023-10-06T12:59:13Z</time>
      </trkpt>
      <trkpt lat="49.88442" lon="2.35126">
        <ele>26.9</ele>
        <time>2023-10-06T12:59:14Z</time>
      </trkpt>
      <trkpt lat="49.88442" lon="2.35126">
        <ele>26.9</ele>
        <time>2023-10-06T12:59:15Z</time>
      </trkpt>
      <trkpt lat="49.88441" lon="2.35127">
        <ele>26.9</ele>
        <time>2023-10-06T12:59:16Z</time>
      </trkpt>
      <trkpt lat="49.8844" lon="2.35127">
        <ele>26.8</ele>
        <time>2023-10-06T12:59:17Z</time>
      </trkpt>
      <trkpt lat="49.88439" lon="2.35128">
        <ele>26.8</ele>
        <time>2023-10-06T12:59:18Z</time>
      </trkpt>
      <trkpt lat="49.88438" lon="2.35128">
        <ele>26.8</ele>
        <time>2023-10-06T12:59:19Z</time>
      </trkpt>
      <trkpt lat="49.88437" lon="2.35128">
        <ele>26.8</ele>
        <time>2023-10-06T12:59:20Z</time>
      </trkpt>
      <trkpt lat="49.88437" lon="2.35129">
        <ele>26.7</ele>
        <time>2023-10-06T12:59:21Z</time>
      </trkpt>
      <trkpt lat="49.88436" lon="2.35129">
        <ele>26.7</ele>
        <time>2023-10-06T12:59:22Z</time>
      </trkpt>
      <trkpt lat="49.88435" lon="2.35129">
        <ele>26.7</ele>
        <time>2023-10-06T12:59:23Z</time>
      </trkpt>
      <trkpt lat="49.88434" lon="2.3513">
        <ele>26.7</ele>
        <time>2023-10-06T12:59:24Z</time>
      </trkpt>
      <trkpt lat="49.88433" lon="2.35131">
        <ele>26.6</ele>
        <time>2023-10-06T12:59:25Z</time>
      </trkpt>
      <trkpt lat="49.88432" lon="2.35132">
        <ele>26.6</ele>
        <time>2023-10-06T12:59:26Z</time>
      </trkpt>
      <trkpt lat="49.88431" lon="2.35132">
        <ele>26.6</ele>
        <time>2023-10-06T12:59:27Z</time>
      </trkpt>
      <trkpt lat="49.8843" lon="2.35133">
        <ele>26.5</ele>
        <time>2023-10-06T12:59:28Z</time>
      </trkpt>
      <trkpt lat="49.88429" lon="2.35134">
        <ele>26.5</ele>
        <time>2023-10-06T12:59:29Z</time>
      </trkpt>
      <trkpt lat="49.88428" lon="2.35134">
        <ele>26.5</ele>
        <time>2023-10-06T12:59:30Z</time>
      </trkpt>
      <trkpt lat="49.88428" lon="2.35135">
        <ele>26.5</ele>
        <time>2023-10-06T12:59:31Z</time>
      </trkpt>
      <trkpt lat="49.88427" lon="2.35136">
        <ele>26.4</ele>
        <time>2023-10-06T12:59:32Z</time>
      </trkpt>
      <trkpt lat="49.88426" lon="2.35137">
        <ele>26.4</ele>
        <time>2023-10-06T12:59:33Z</time>
      </trkpt>
      <trkpt lat="49.88425" lon="2.35138">
        <ele>26.4</ele>
        <time>2023-10-06T12:59:34Z</time>
      </trkpt>
      <trkpt lat="49.88424" lon="2.35139">
        <ele>26.4</ele>
        <time>2023-10-06T12:59:35Z</time>
      </trkpt>
      <trkpt lat="49.88423" lon="2.3514">
        <ele>26.4</ele>
        <time>2023-10-06T12:59:36Z</time>
      </trkpt>
      <trkpt lat="49.88422" lon="2.3514">
        <ele>26.3</ele>
        <time>2023-10-06T12:59:37Z</time>
      </trkpt>
      <trkpt lat="49.88421" lon="2.35141">
        <ele>26.3</ele>
        <time>2023-10-06T12:59:38Z</time>
      </trkpt>
      <trkpt lat="49.88421" lon="2.35142">
        <ele>26.3</ele>
        <time>2023-10-06T12:59:39Z</time>
      </trkpt>
      <trkpt lat="49.8842" lon="2.35143">
        <ele>26.3</ele>
        <time>2023-10-06T12:59:40Z</time>
      </trkpt>
      <trkpt lat="49.88419" lon="2.35143">
        <ele>26.3</ele>
        <time>2023-10-06T12:59:41Z</time>
      </trkpt>
      <trkpt lat="49.88417" lon="2.35145">
        <ele>26.2</ele>
        <time>2023-10-06T12:59:42Z</time>
      </trkpt>
      <trkpt lat="49.88416" lon="2.35145">
        <ele>26.2</ele>
        <time>2023-10-06T12:59:43Z</time>
      </trkpt>
      <trkpt lat="49.88415" lon="2.35146">
        <ele>26.2</ele>
        <time>2023-10-06T12:59:44Z</time>
      </trkpt>
      <trkpt lat="49.88414" lon="2.35148">
        <ele>26.2</ele>
        <time>2023-10-06T12:59:45Z</time>
      </trkpt>
      <trkpt lat="49.88413" lon="2.35148">
        <ele>26.2</ele>
        <time>2023-10-06T12:59:46Z</time>
      </trkpt>
      <trkpt lat="49.88412" lon="2.35149">
        <ele>26.2</ele>
        <time>2023-10-06T12:59:47Z</time>
      </trkpt>
      <trkpt lat="49.88411" lon="2.35149">
        <ele>26.1</ele>
        <time>2023-10-06T12:59:48Z</time>
      </trkpt>
      <trkpt lat="49.8841" lon="2.3515">
        <ele>26.1</ele>
        <time>2023-10-06T12:59:49Z</time>
      </trkpt>
      <trkpt lat="49.88409" lon="2.3515">
        <ele>26.1</ele>
        <time>2023-10-06T12:59:50Z</time>
      </trkpt>
      <trkpt lat="49.88408" lon="2.3515">
        <ele>26.1</ele>
        <time>2023-10-06T12:59:51Z</time>
      </trkpt>
      <trkpt lat="49.88407" lon="2.35151">
        <ele>26.1</ele>
        <time>2023-10-06T12:59:52Z</time>
      </trkpt>
      <trkpt lat="49.88406" lon="2.35151">
        <ele>26.1</ele>
        <time>2023-10-06T12:59:53Z</time>
      </trkpt>
      <trkpt lat="49.88405" lon="2.35152">
        <ele>26.1</ele>
        <time>2023-10-06T12:59:54Z</time>
      </trkpt>
      <trkpt lat="49.88404" lon="2.35153">
        <ele>26</ele>
        <time>2023-10-06T12:59:55Z</time>
      </trkpt>
      <trkpt lat="49.88403" lon="2.35153">
        <ele>26</ele>
        <time>2023-10-06T12:59:56Z</time>
      </trkpt>
      <trkpt lat="49.88402" lon="2.35154">
        <ele>26</ele>
        <time>2023-10-06T12:59:57Z</time>
      </trkpt>
      <trkpt lat="49.88401" lon="2.35155">
        <ele>26</ele>
        <time>2023-10-06T12:59:58Z</time>
      </trkpt>
      <trkpt lat="49.884" lon="2.35156">
        <ele>26</ele>
        <time>2023-10-06T12:59:59Z</time>
      </trkpt>
      <trkpt lat="49.88399" lon="2.35157">
        <ele>26</ele>
        <time>2023-10-06T13:00:00Z</time>
      </trkpt>
      <trkpt lat="49.88398" lon="2.35157">
        <ele>25.9</ele>
        <time>2023-10-06T13:00:01Z</time>
      </trkpt>
      <trkpt lat="49.88397" lon="2.35158">
        <ele>25.9</ele>
        <time>2023-10-06T13:00:02Z</time>
      </trkpt>
      <trkpt lat="49.88396" lon="2.35159">
        <ele>25.9</ele>
        <time>2023-10-06T13:00:03Z</time>
      </trkpt>
      <trkpt lat="49.88395" lon="2.3516">
        <ele>25.9</ele>
        <time>2023-10-06T13:00:04Z</time>
      </trkpt>
      <trkpt lat="49.88394" lon="2.35161">
        <ele>25.9</ele>
        <time>2023-10-06T13:00:05Z</time>
      </trkpt>
      <trkpt lat="49.88392" lon="2.35162">
        <ele>25.8</ele>
        <time>2023-10-06T13:00:06Z</time>
      </trkpt>
      <trkpt lat="49.88392" lon="2.35163">
        <ele>25.8</ele>
        <time>2023-10-06T13:00:07Z</time>
      </trkpt>
      <trkpt lat="49.88391" lon="2.35164">
        <ele>25.8</ele>
        <time>2023-10-06T13:00:08Z</time>
      </trkpt>
      <trkpt lat="49.88389" lon="2.35166">
        <ele>25.8</ele>
        <time>2023-10-06T13:00:09Z</time>
      </trkpt>
      <trkpt lat="49.88388" lon="2.35166">
        <ele>25.8</ele>
        <time>2023-10-06T13:00:10Z</time>
      </trkpt>
      <trkpt lat="49.88388" lon="2.35167">
        <ele>25.8</ele>
        <time>2023-10-06T13:00:11Z</time>
      </trkpt>
      <trkpt lat="49.88387" lon="2.35168">
        <ele>25.7</ele>
        <time>2023-10-06T13:00:12Z</time>
      </trkpt>
      <trkpt lat="49.88386" lon="2.35169">
        <ele>25.7</ele>
        <time>2023-10-06T13:00:13Z</time>
      </trkpt>
      <trkpt lat="49.88385" lon="2.3517">
        <ele>25.7</ele>
        <time>2023-10-06T13:00:14Z</time>
      </trkpt>
      <trkpt lat="49.88384" lon="2.35171">
        <ele>25.7</ele>
        <time>2023-10-06T13:00:15Z</time>
      </trkpt>
      <trkpt lat="49.88384" lon="2.35172">
        <ele>25.7</ele>
        <time>2023-10-06T13:00:16Z</time>
      </trkpt>
      <trkpt lat="49.88383" lon="2.35173">
        <ele>25.7</ele>
        <time>2023-10-06T13:00:17Z</time>
      </trkpt>
      <trkpt lat="49.88382" lon="2.35174">
        <ele>25.6</ele>
        <time>2023-10-06T13:00:18Z</time>
      </trkpt>
      <trkpt lat="49.88381" lon="2.35175">
        <ele>25.6</ele>
        <time>2023-10-06T13:00:19Z</time>
      </trkpt>
      <trkpt lat="49.8838" lon="2.35176">
        <ele>25.6</ele>
        <time>2023-10-06T13:00:20Z</time>
      </trkpt>
      <trkpt lat="49.88379" lon="2.35177">
        <ele>25.6</ele>
        <time>2023-10-06T13:00:21Z</time>
      </trkpt>
      <trkpt lat="49.88378" lon="2.35178">
        <ele>25.6</ele>
        <time>2023-10-06T13:00:22Z</time>
      </trkpt>
      <trkpt lat="49.88377" lon="2.35179">
        <ele>25.5</ele>
        <time>2023-10-06T13:00:23Z</time>
      </trkpt>
      <trkpt lat="49.88376" lon="2.3518">
        <ele>25.5</ele>
        <time>2023-10-06T13:00:24Z</time>
      </trkpt>
      <trkpt lat="49.88376" lon="2.35181">
        <ele>25.5</ele>
        <time>2023-10-06T13:00:25Z</time>
      </trkpt>
      <trkpt lat="49.88375" lon="2.35182">
        <ele>25.5</ele>
        <time>2023-10-06T13:00:26Z</time>
      </trkpt>
      <trkpt lat="49.88374" lon="2.35184">
        <ele>25.5</ele>
        <time>2023-10-06T13:00:27Z</time>
      </trkpt>
      <trkpt lat="49.88374" lon="2.35185">
        <ele>25.5</ele>
        <time>2023-10-06T13:00:28Z</time>
      </trkpt>
      <trkpt lat="49.88374" lon="2.35187">
        <ele>25.4</ele>
        <time>2023-10-06T13:00:29Z</time>
      </trkpt>
      <trkpt lat="49.88374" lon="2.35189">
        <ele>25.4</ele>
        <time>2023-10-06T13:00:30Z</time>
      </trkpt>
      <trkpt lat="49.88374" lon="2.35191">
        <ele>25.4</ele>
        <time>2023-10-06T13:00:31Z</time>
      </trkpt>
      <trkpt lat="49.88374" lon="2.35193">
        <ele>25.4</ele>
        <time>2023-10-06T13:00:32Z</time>
      </trkpt>
      <trkpt lat="49.88373" lon="2.35194">
        <ele>25.4</ele>
        <time>2023-10-06T13:00:33Z</time>
      </trkpt>
      <trkpt lat="49.88373" lon="2.35196">
        <ele>25.3</ele>
        <time>2023-10-06T13:00:34Z</time>
      </trkpt>
      <trkpt lat="49.88373" lon="2.35198">
        <ele>25.3</ele>
        <time>2023-10-06T13:00:35Z</time>
      </trkpt>
      <trkpt lat="49.88373" lon="2.352">
        <ele>25.3</ele>
        <time>2023-10-06T13:00:36Z</time>
      </trkpt>
      <trkpt lat="49.88373" lon="2.35201">
        <ele>25.3</ele>
        <time>2023-10-06T13:00:37Z</time>
      </trkpt>
      <trkpt lat="49.88372" lon="2.35203">
        <ele>25.3</ele>
        <time>2023-10-06T13:00:38Z</time>
      </trkpt>
      <trkpt lat="49.88371" lon="2.35206">
        <ele>25.2</ele>
        <time>2023-10-06T13:00:39Z</time>
      </trkpt>
      <trkpt lat="49.88371" lon="2.35207">
        <ele>25.2</ele>
        <time>2023-10-06T13:00:40Z</time>
      </trkpt>
      <trkpt lat="49.8837" lon="2.35208">
        <ele>25.2</ele>
        <time>2023-10-06T13:00:41Z</time>
      </trkpt>
      <trkpt lat="49.88369" lon="2.3521">
        <ele>25.2</ele>
        <time>2023-10-06T13:00:42Z</time>
      </trkpt>
      <trkpt lat="49.88368" lon="2.35211">
        <ele>25.2</ele>
        <time>2023-10-06T13:00:43Z</time>
      </trkpt>
      <trkpt lat="49.88368" lon="2.35212">
        <ele>25.2</ele>
        <time>2023-10-06T13:00:44Z</time>
      </trkpt>
      <trkpt lat="49.88366" lon="2.35213">
        <ele>25.2</ele>
        <time>2023-10-06T13:00:45Z</time>
      </trkpt>
      <trkpt lat="49.88365" lon="2.35214">
        <ele>25.1</ele>
        <time>2023-10-06T13:00:46Z</time>
      </trkpt>
      <trkpt lat="49.88365" lon="2.35215">
        <ele>25.1</ele>
        <time>2023-10-06T13:00:47Z</time>
      </trkpt>
      <trkpt lat="49.88363" lon="2.35216">
        <ele>25.1</ele>
        <time>2023-10-06T13:00:48Z</time>
      </trkpt>
      <trkpt lat="49.88362" lon="2.35217">
        <ele>25.1</ele>
        <time>2023-10-06T13:00:49Z</time>
      </trkpt>
      <trkpt lat="49.88361" lon="2.35217">
        <ele>25.1</ele>
        <time>2023-10-06T13:00:50Z</time>
      </trkpt>
      <trkpt lat="49.88359" lon="2.35219">
        <ele>25.1</ele>
        <time>2023-10-06T13:00:51Z</time>
      </trkpt>
      <trkpt lat="49.88358" lon="2.35219">
        <ele>25.1</ele>
        <time>2023-10-06T13:00:52Z</time>
      </trkpt>
      <trkpt lat="49.88358" lon="2.3522">
        <ele>25.1</ele>
        <time>2023-10-06T13:00:53Z</time>
      </trkpt>
      <trkpt lat="49.88357" lon="2.3522">
        <ele>25</ele>
        <time>2023-10-06T13:00:54Z</time>
      </trkpt>
      <trkpt lat="49.88356" lon="2.35221">
        <ele>25</ele>
        <time>2023-10-06T13:00:55Z</time>
      </trkpt>
      <trkpt lat="49.88355" lon="2.35222">
        <ele>25</ele>
        <time>2023-10-06T13:00:56Z</time>
      </trkpt>
      <trkpt lat="49.88354" lon="2.35222">
        <ele>25</ele>
        <time>2023-10-06T13:00:57Z</time>
      </trkpt>
      <trkpt lat="49.88353" lon="2.35223">
        <ele>25</ele>
        <time>2023-10-06T13:00:58Z</time>
      </trkpt>
      <trkpt lat="49.88352" lon="2.35224">
        <ele>25</ele>
        <time>2023-10-06T13:00:59Z</time>
      </trkpt>
      <trkpt lat="49.88351" lon="2.35225">
        <ele>25</ele>
        <time>2023-10-06T13:01:00Z</time>
      </trkpt>
      <trkpt lat="49.8835" lon="2.35226">
        <ele>25</ele>
        <time>2023-10-06T13:01:01Z</time>
      </trkpt>
      <trkpt lat="49.88349" lon="2.35226">
        <ele>25</ele>
        <time>2023-10-06T13:01:02Z</time>
      </trkpt>
      <trkpt lat="49.88348" lon="2.35227">
        <ele>25</ele>
        <time>2023-10-06T13:01:03Z</time>
      </trkpt>
      <trkpt lat="49.88347" lon="2.35227">
        <ele>25</ele>
        <time>2023-10-06T13:01:04Z</time>
      </trkpt>
      <trkpt lat="49.88346" lon="2.35228">
        <ele>24.9</ele>
        <time>2023-10-06T13:01:05Z</time>
      </trkpt>
      <trkpt lat="49.88346" lon="2.35229">
        <ele>24.9</ele>
        <time>2023-10-06T13:01:06Z</time>
      </trkpt>
      <trkpt lat="49.88345" lon="2.35229">
        <ele>24.9</ele>
        <time>2023-10-06T13:01:07Z</time>
      </trkpt>
      <trkpt lat="49.88344" lon="2.3523">
        <ele>24.9</ele>
        <time>2023-10-06T13:01:08Z</time>
      </trkpt>
      <trkpt lat="49.88343" lon="2.35231">
        <ele>24.9</ele>
        <time>2023-10-06T13:01:09Z</time>
      </trkpt>
      <trkpt lat="49.88342" lon="2.35232">
        <ele>24.9</ele>
        <time>2023-10-06T13:01:10Z</time>
      </trkpt>
      <trkpt lat="49.88341" lon="2.35233">
        <ele>24.9</ele>
        <time>2023-10-06T13:01:11Z</time>
      </trkpt>
      <trkpt lat="49.8834" lon="2.35233">
        <ele>24.9</ele>
        <time>2023-10-06T13:01:12Z</time>
      </trkpt>
      <trkpt lat="49.8834" lon="2.35234">
        <ele>24.9</ele>
        <time>2023-10-06T13:01:13Z</time>
      </trkpt>
      <trkpt lat="49.88339" lon="2.35235">
        <ele>24.9</ele>
        <time>2023-10-06T13:01:14Z</time>
      </trkpt>
      <trkpt lat="49.88338" lon="2.35236">
        <ele>24.9</ele>
        <time>2023-10-06T13:01:15Z</time>
      </trkpt>
      <trkpt lat="49.88337" lon="2.35236">
        <ele>24.9</ele>
        <time>2023-10-06T13:01:16Z</time>
      </trkpt>
      <trkpt lat="49.88337" lon="2.35237">
        <ele>24.9</ele>
        <time>2023-10-06T13:01:17Z</time>
      </trkpt>
      <trkpt lat="49.88336" lon="2.35238">
        <ele>24.9</ele>
        <time>2023-10-06T13:01:18Z</time>
      </trkpt>
      <trkpt lat="49.88335" lon="2.35238">
        <ele>24.9</ele>
        <time>2023-10-06T13:01:19Z</time>
      </trkpt>
      <trkpt lat="49.88335" lon="2.35239">
        <ele>24.9</ele>
        <time>2023-10-06T13:01:20Z</time>
      </trkpt>
      <trkpt lat="49.88334" lon="2.35239">
        <ele>24.9</ele>
        <time>2023-10-06T13:01:21Z</time>
      </trkpt>
      <trkpt lat="49.88333" lon="2.3524">
        <ele>24.9</ele>
        <time>2023-10-06T13:01:22Z</time>
      </trkpt>
      <trkpt lat="49.88333" lon="2.35241">
        <ele>24.9</ele>
        <time>2023-10-06T13:01:23Z</time>
      </trkpt>
      <trkpt lat="49.88333" lon="2.35242">
        <ele>24.9</ele>
        <time>2023-10-06T13:01:24Z</time>
      </trkpt>
      <trkpt lat="49.88332" lon="2.35243">
        <ele>24.9</ele>
        <time>2023-10-06T13:01:25Z</time>
      </trkpt>
      <trkpt lat="49.88332" lon="2.35243">
        <ele>24.9</ele>
        <time>2023-10-06T13:01:26Z</time>
      </trkpt>
      <trkpt lat="49.88332" lon="2.35244">
        <ele>24.9</ele>
        <time>2023-10-06T13:01:27Z</time>
      </trkpt>
      <trkpt lat="49.88333" lon="2.35245">
        <ele>24.9</ele>
        <time>2023-10-06T13:01:28Z</time>
      </trkpt>
      <trkpt lat="49.88333" lon="2.35245">
        <ele>24.9</ele>
        <time>2023-10-06T13:01:29Z</time>
      </trkpt>
      <trkpt lat="49.88333" lon="2.35245">
        <ele>24.9</ele>
        <time>2023-10-06T13:01:30Z</time>
      </trkpt>
      <trkpt lat="49.88333" lon="2.35245">
        <ele>24.9</ele>
        <time>2023-10-06T13:01:31Z</time>
      </trkpt>
      <trkpt lat="49.88333" lon="2.35245">
        <ele>24.9</ele>
        <time>2023-10-06T13:01:32Z</time>
      </trkpt>
      <trkpt lat="49.88333" lon="2.35245">
        <ele>24.9</ele>
        <time>2023-10-06T13:01:33Z</time>
      </trkpt>
      <trkpt lat="49.88333" lon="2.35245">
        <ele>24.9</ele>
        <time>2023-10-06T13:01:34Z</time>
      </trkpt>
      <trkpt lat="49.88333" lon="2.35245">
        <ele>24.9</ele>
        <time>2023-10-06T13:01:35Z</time>
      </trkpt>
      <trkpt lat="49.88333" lon="2.35245">
        <ele>24.9</ele>
        <time>2023-10-06T13:01:36Z</time>
      </trkpt>
      <trkpt lat="49.88333" lon="2.35245">
        <ele>24.9</ele>
        <time>2023-10-06T13:01:37Z</time>
      </trkpt>
      <trkpt lat="49.88333" lon="2.35245">
        <ele>24.9</ele>
        <time>2023-10-06T13:01:38Z</time>
      </trkpt>
      <trkpt lat="49.88333" lon="2.35245">
        <ele>24.9</ele>
        <time>2023-10-06T13:01:39Z</time>
      </trkpt>
      <trkpt lat="49.88333" lon="2.35245">
        <ele>24.9</ele>
        <time>2023-10-06T13:01:40Z</time>
      </trkpt>
      <trkpt lat="49.88333" lon="2.35244">
        <ele>24.9</ele>
        <time>2023-10-06T13:01:41Z</time>
      </trkpt>
      <trkpt lat="49.88333" lon="2.35244">
        <ele>24.9</ele>
        <time>2023-10-06T13:01:42Z</time>
      </trkpt>
      <trkpt lat="49.88333" lon="2.35244">
        <ele>24.9</ele>
        <time>2023-10-06T13:01:43Z</time>
      </trkpt>
      <trkpt lat="49.88333" lon="2.35244">
        <ele>24.9</ele>
        <time>2023-10-06T13:01:44Z</time>
      </trkpt>
      <trkpt lat="49.88333" lon="2.35244">
        <ele>24.9</ele>
        <time>2023-10-06T13:01:45Z</time>
      </trkpt>
      <trkpt lat="49.88333" lon="2.35244">
        <ele>24.9</ele>
        <time>2023-10-06T13:01:46Z</time>
      </trkpt>
      <trkpt lat="49.88333" lon="2.35244">
        <ele>24.9</ele>
        <time>2023-10-06T13:01:47Z</time>
      </trkpt>
      <trkpt lat="49.88333" lon="2.35244">
        <ele>24.9</ele>
        <time>2023-10-06T13:01:48Z</time>
      </trkpt>
      <trkpt lat="49.88333" lon="2.35244">
        <ele>24.9</ele>
        <time>2023-10-06T13:01:49Z</time>
      </trkpt>
      <trkpt lat="49.88333" lon="2.35244">
        <ele>24.9</ele>
        <time>2023-10-06T13:01:50Z</time>
      </trkpt>
      <trkpt lat="49.88333" lon="2.35244">
        <ele>24.9</ele>
        <time>2023-10-06T13:01:51Z</time>
      </trkpt>
      <trkpt lat="49.88333" lon="2.35243">
        <ele>24.9</ele>
        <time>2023-10-06T13:01:52Z</time>
      </trkpt>
      <trkpt lat="49.88332" lon="2.35242">
        <ele>24.9</ele>
        <time>2023-10-06T13:01:53Z</time>
      </trkpt>
      <trkpt lat="49.88332" lon="2.35242">
        <ele>24.9</ele>
        <time>2023-10-06T13:01:54Z</time>
      </trkpt>
      <trkpt lat="49.88332" lon="2.35242">
        <ele>24.9</ele>
        <time>2023-10-06T13:01:55Z</time>
      </trkpt>
      <trkpt lat="49.88332" lon="2.35242">
        <ele>24.9</ele>
        <time>2023-10-06T13:01:56Z</time>
      </trkpt>
      <trkpt lat="49.88332" lon="2.35241">
        <ele>24.9</ele>
        <time>2023-10-06T13:01:57Z</time>
      </trkpt>
      <trkpt lat="49.88332" lon="2.35241">
        <ele>24.9</ele>
        <time>2023-10-06T13:01:58Z</time>
      </trkpt>
      <trkpt lat="49.88332" lon="2.35241">
        <ele>24.9</ele>
        <time>2023-10-06T13:01:59Z</time>
      </trkpt>
      <trkpt lat="49.88332" lon="2.35241">
        <ele>24.9</ele>
        <time>2023-10-06T13:02:00Z</time>
      </trkpt>
      <trkpt lat="49.88332" lon="2.35241">
        <ele>24.9</ele>
        <time>2023-10-06T13:02:01Z</time>
      </trkpt>
      <trkpt lat="49.88332" lon="2.35241">
        <ele>24.9</ele>
        <time>2023-10-06T13:02:02Z</time>
      </trkpt>
      <trkpt lat="49.88332" lon="2.35241">
        <ele>24.9</ele>
        <time>2023-10-06T13:02:03Z</time>
      </trkpt>
      <trkpt lat="49.88332" lon="2.35241">
        <ele>24.9</ele>
        <time>2023-10-06T13:02:04Z</time>
      </trkpt>
      <trkpt lat="49.88332" lon="2.35241">
        <ele>24.9</ele>
        <time>2023-10-06T13:02:05Z</time>
      </trkpt>
      <trkpt lat="49.88332" lon="2.35241">
        <ele>24.9</ele>
        <time>2023-10-06T13:02:06Z</time>
      </trkpt>
      <trkpt lat="49.88332" lon="2.35241">
        <ele>24.9</ele>
        <time>2023-10-06T13:02:07Z</time>
      </trkpt>
      <trkpt lat="49.88332" lon="2.35241">
        <ele>24.9</ele>
        <time>2023-10-06T13:02:08Z</time>
      </trkpt>
      <trkpt lat="49.88332" lon="2.35241">
        <ele>24.9</ele>
        <time>2023-10-06T13:02:09Z</time>
      </trkpt>
      <trkpt lat="49.88332" lon="2.35241">
        <ele>24.9</ele>
        <time>2023-10-06T13:02:10Z</time>
      </trkpt>
      <trkpt lat="49.88332" lon="2.35241">
        <ele>24.9</ele>
        <time>2023-10-06T13:02:11Z</time>
      </trkpt>
      <trkpt lat="49.88332" lon="2.35241">
        <ele>24.9</ele>
        <time>2023-10-06T13:02:12Z</time>
      </trkpt>
      <trkpt lat="49.88332" lon="2.35241">
        <ele>24.9</ele>
        <time>2023-10-06T13:02:13Z</time>
      </trkpt>
      <trkpt lat="49.88332" lon="2.35241">
        <ele>24.9</ele>
        <time>2023-10-06T13:02:14Z</time>
      </trkpt>
      <trkpt lat="49.88332" lon="2.35241">
        <ele>24.9</ele>
        <time>2023-10-06T13:02:15Z</time>
      </trkpt>
      <trkpt lat="49.88332" lon="2.35241">
        <ele>24.9</ele>
        <time>2023-10-06T13:02:16Z</time>
      </trkpt>
      <trkpt lat="49.88332" lon="2.35241">
        <ele>24.9</ele>
        <time>2023-10-06T13:02:17Z</time>
      </trkpt>
      <trkpt lat="49.88332" lon="2.35241">
        <ele>24.9</ele>
        <time>2023-10-06T13:02:18Z</time>
      </trkpt>
      <trkpt lat="49.88332" lon="2.35241">
        <ele>24.9</ele>
        <time>2023-10-06T13:02:19Z</time>
      </trkpt>
      <trkpt lat="49.88332" lon="2.35241">
        <ele>24.9</ele>
        <time>2023-10-06T13:02:20Z</time>
      </trkpt>
      <trkpt lat="49.88332" lon="2.35241">
        <ele>24.9</ele>
        <time>2023-10-06T13:02:21Z</time>
      </trkpt>
      <trkpt lat="49.8833" lon="2.35242">
        <ele>24.9</ele>
        <time>2023-10-06T13:02:22Z</time>
      </trkpt>
      <trkpt lat="49.8833" lon="2.35243">
        <ele>24.9</ele>
        <time>2023-10-06T13:02:23Z</time>
      </trkpt>
      <trkpt lat="49.8833" lon="2.35244">
        <ele>24.9</ele>
        <time>2023-10-06T13:02:24Z</time>
      </trkpt>
      <trkpt lat="49.8833" lon="2.35244">
        <ele>24.9</ele>
        <time>2023-10-06T13:02:25Z</time>
      </trkpt>
      <trkpt lat="49.8833" lon="2.35244">
        <ele>24.9</ele>
        <time>2023-10-06T13:02:26Z</time>
      </trkpt>
      <trkpt lat="49.8833" lon="2.35244">
        <ele>24.9</ele>
        <time>2023-10-06T13:02:27Z</time>
      </trkpt>
      <trkpt lat="49.8833" lon="2.35244">
        <ele>24.9</ele>
        <time>2023-10-06T13:02:28Z</time>
      </trkpt>
      <trkpt lat="49.8833" lon="2.35244">
        <ele>24.9</ele>
        <time>2023-10-06T13:02:29Z</time>
      </trkpt>
      <trkpt lat="49.8833" lon="2.35244">
        <ele>24.9</ele>
        <time>2023-10-06T13:02:30Z</time>
      </trkpt>
      <trkpt lat="49.8833" lon="2.35244">
        <ele>24.9</ele>
        <time>2023-10-06T13:02:31Z</time>
      </trkpt>
      <trkpt lat="49.8833" lon="2.35244">
        <ele>24.9</ele>
        <time>2023-10-06T13:02:32Z</time>
      </trkpt>
      <trkpt lat="49.8833" lon="2.35244">
        <ele>24.9</ele>
        <time>2023-10-06T13:02:33Z</time>
      </trkpt>
      <trkpt lat="49.8833" lon="2.35244">
        <ele>24.9</ele>
        <time>2023-10-06T13:02:34Z</time>
      </trkpt>
      <trkpt lat="49.8833" lon="2.35244">
        <ele>24.9</ele>
        <time>2023-10-06T13:02:35Z</time>
      </trkpt>
      <trkpt lat="49.8833" lon="2.35244">
        <ele>24.9</ele>
        <time>2023-10-06T13:02:36Z</time>
      </trkpt>
      <trkpt lat="49.8833" lon="2.35244">
        <ele>24.9</ele>
        <time>2023-10-06T13:02:37Z</time>
      </trkpt>
      <trkpt lat="49.8833" lon="2.35244">
        <ele>24.9</ele>
        <time>2023-10-06T13:02:38Z</time>
      </trkpt>
      <trkpt lat="49.8833" lon="2.35244">
        <ele>24.9</ele>
        <time>2023-10-06T13:02:39Z</time>
      </trkpt>
      <trkpt lat="49.8833" lon="2.35244">
        <ele>24.9</ele>
        <time>2023-10-06T13:02:40Z</time>
      </trkpt>
      <trkpt lat="49.8833" lon="2.35244">
        <ele>24.9</ele>
        <time>2023-10-06T13:02:41Z</time>
      </trkpt>
      <trkpt lat="49.8833" lon="2.35244">
        <ele>24.9</ele>
        <time>2023-10-06T13:02:42Z</time>
      </trkpt>
      <trkpt lat="49.8833" lon="2.35244">
        <ele>24.9</ele>
        <time>2023-10-06T13:02:43Z</time>
      </trkpt>
      <trkpt lat="49.8833" lon="2.35244">
        <ele>24.9</ele>
        <time>2023-10-06T13:02:44Z</time>
      </trkpt>
      <trkpt lat="49.8833" lon="2.35244">
        <ele>24.9</ele>
        <time>2023-10-06T13:02:45Z</time>
      </trkpt>
      <trkpt lat="49.8833" lon="2.35244">
        <ele>24.9</ele>
        <time>2023-10-06T13:02:46Z</time>
      </trkpt>
      <trkpt lat="49.8833" lon="2.35244">
        <ele>24.9</ele>
        <time>2023-10-06T13:02:47Z</time>
      </trkpt>
      <trkpt lat="49.8833" lon="2.35244">
        <ele>24.9</ele>
        <time>2023-10-06T13:02:48Z</time>
      </trkpt>
      <trkpt lat="49.8833" lon="2.35244">
        <ele>24.9</ele>
        <time>2023-10-06T13:02:49Z</time>
      </trkpt>
      <trkpt lat="49.8833" lon="2.35244">
        <ele>24.9</ele>
        <time>2023-10-06T13:02:50Z</time>
      </trkpt>
      <trkpt lat="49.8833" lon="2.35244">
        <ele>24.9</ele>
        <time>2023-10-06T13:02:51Z</time>
      </trkpt>
      <trkpt lat="49.8833" lon="2.35244">
        <ele>24.9</ele>
        <time>2023-10-06T13:02:52Z</time>
      </trkpt>
      <trkpt lat="49.8833" lon="2.35244">
        <ele>24.9</ele>
        <time>2023-10-06T13:02:53Z</time>
      </trkpt>
      <trkpt lat="49.8833" lon="2.35244">
        <ele>24.9</ele>
        <time>2023-10-06T13:02:54Z</time>
      </trkpt>
      <trkpt lat="49.8833" lon="2.35244">
        <ele>24.9</ele>
        <time>2023-10-06T13:02:55Z</time>
      </trkpt>
      <trkpt lat="49.8833" lon="2.35244">
        <ele>24.9</ele>
        <time>2023-10-06T13:02:56Z</time>
      </trkpt>
      <trkpt lat="49.8833" lon="2.35244">
        <ele>24.9</ele>
        <time>2023-10-06T13:02:57Z</time>
      </trkpt>
      <trkpt lat="49.8833" lon="2.35244">
        <ele>24.9</ele>
        <time>2023-10-06T13:02:58Z</time>
      </trkpt>
      <trkpt lat="49.8833" lon="2.35244">
        <ele>24.9</ele>
        <time>2023-10-06T13:02:59Z</time>
      </trkpt>
      <trkpt lat="49.8833" lon="2.35244">
        <ele>24.9</ele>
        <time>2023-10-06T13:03:00Z</time>
      </trkpt>
      <trkpt lat="49.8833" lon="2.35244">
        <ele>24.9</ele>
        <time>2023-10-06T13:03:01Z</time>
      </trkpt>
      <trkpt lat="49.8833" lon="2.35244">
        <ele>24.9</ele>
        <time>2023-10-06T13:03:02Z</time>
      </trkpt>
      <trkpt lat="49.8833" lon="2.35244">
        <ele>24.9</ele>
        <time>2023-10-06T13:03:03Z</time>
      </trkpt>
      <trkpt lat="49.8833" lon="2.35244">
        <ele>24.9</ele>
        <time>2023-10-06T13:03:04Z</time>
      </trkpt>
      <trkpt lat="49.8833" lon="2.35244">
        <ele>24.9</ele>
        <time>2023-10-06T13:03:05Z</time>
      </trkpt>
      <trkpt lat="49.8833" lon="2.35244">
        <ele>24.9</ele>
        <time>2023-10-06T13:03:06Z</time>
      </trkpt>
      <trkpt lat="49.8833" lon="2.35244">
        <ele>24.9</ele>
        <time>2023-10-06T13:03:07Z</time>
      </trkpt>
      <trkpt lat="49.8833" lon="2.35244">
        <ele>24.9</ele>
        <time>2023-10-06T13:03:08Z</time>
      </trkpt>
      <trkpt lat="49.8833" lon="2.35244">
        <ele>24.9</ele>
        <time>2023-10-06T13:03:09Z</time>
      </trkpt>
      <trkpt lat="49.8833" lon="2.35244">
        <ele>24.9</ele>
        <time>2023-10-06T13:03:10Z</time>
      </trkpt>
      <trkpt lat="49.8833" lon="2.35244">
        <ele>24.9</ele>
        <time>2023-10-06T13:03:11Z</time>
      </trkpt>
      <trkpt lat="49.8833" lon="2.35244">
        <ele>24.9</ele>
        <time>2023-10-06T13:03:12Z</time>
      </trkpt>
      <trkpt lat="49.8833" lon="2.35244">
        <ele>24.9</ele>
        <time>2023-10-06T13:03:13Z</time>
      </trkpt>
      <trkpt lat="49.8833" lon="2.35244">
        <ele>24.9</ele>
        <time>2023-10-06T13:03:14Z</time>
      </trkpt>
      <trkpt lat="49.8833" lon="2.35244">
        <ele>24.9</ele>
        <time>2023-10-06T13:03:15Z</time>
      </trkpt>
      <trkpt lat="49.8833" lon="2.35244">
        <ele>24.9</ele>
        <time>2023-10-06T13:03:16Z</time>
      </trkpt>
      <trkpt lat="49.8833" lon="2.35244">
        <ele>24.9</ele>
        <time>2023-10-06T13:03:17Z</time>
      </trkpt>
      <trkpt lat="49.8833" lon="2.35244">
        <ele>24.9</ele>
        <time>2023-10-06T13:03:18Z</time>
      </trkpt>
      <trkpt lat="49.8833" lon="2.35244">
        <ele>24.9</ele>
        <time>2023-10-06T13:03:19Z</time>
      </trkpt>
      <trkpt lat="49.8833" lon="2.35244">
        <ele>24.9</ele>
        <time>2023-10-06T13:03:20Z</time>
      </trkpt>
      <trkpt lat="49.8833" lon="2.35244">
        <ele>24.9</ele>
        <time>2023-10-06T13:03:21Z</time>
      </trkpt>
      <trkpt lat="49.8833" lon="2.35244">
        <ele>24.9</ele>
        <time>2023-10-06T13:03:22Z</time>
      </trkpt>
      <trkpt lat="49.8833" lon="2.35244">
        <ele>24.9</ele>
        <time>2023-10-06T13:03:23Z</time>
      </trkpt>
      <trkpt lat="49.8833" lon="2.35244">
        <ele>24.9</ele>
        <time>2023-10-06T13:03:24Z</time>
      </trkpt>
      <trkpt lat="49.8833" lon="2.35244">
        <ele>24.9</ele>
        <time>2023-10-06T13:03:25Z</time>
      </trkpt>
      <trkpt lat="49.8833" lon="2.35244">
        <ele>24.9</ele>
        <time>2023-10-06T13:03:26Z</time>
      </trkpt>
      <trkpt lat="49.8833" lon="2.35244">
        <ele>24.9</ele>
        <time>2023-10-06T13:03:27Z</time>
      </trkpt>
      <trkpt lat="49.8833" lon="2.35244">
        <ele>24.9</ele>
        <time>2023-10-06T13:03:28Z</time>
      </trkpt>
      <trkpt lat="49.8833" lon="2.35244">
        <ele>24.9</ele>
        <time>2023-10-06T13:03:29Z</time>
      </trkpt>
      <trkpt lat="49.8833" lon="2.35244">
        <ele>24.9</ele>
        <time>2023-10-06T13:03:30Z</time>
      </trkpt>
      <trkpt lat="49.8833" lon="2.35244">
        <ele>24.9</ele>
        <time>2023-10-06T13:03:31Z</time>
      </trkpt>
      <trkpt lat="49.8833" lon="2.35244">
        <ele>24.9</ele>
        <time>2023-10-06T13:03:32Z</time>
      </trkpt>
      <trkpt lat="49.8833" lon="2.35244">
        <ele>24.9</ele>
        <time>2023-10-06T13:03:33Z</time>
      </trkpt>
      <trkpt lat="49.8833" lon="2.35244">
        <ele>24.9</ele>
        <time>2023-10-06T13:03:34Z</time>
      </trkpt>
      <trkpt lat="49.8833" lon="2.35244">
        <ele>24.9</ele>
        <time>2023-10-06T13:03:35Z</time>
      </trkpt>
      <trkpt lat="49.8833" lon="2.35244">
        <ele>24.9</ele>
        <time>2023-10-06T13:03:36Z</time>
      </trkpt>
      <trkpt lat="49.8833" lon="2.35244">
        <ele>24.9</ele>
        <time>2023-10-06T13:03:37Z</time>
      </trkpt>
      <trkpt lat="49.8833" lon="2.35244">
        <ele>24.9</ele>
        <time>2023-10-06T13:03:38Z</time>
      </trkpt>
      <trkpt lat="49.8833" lon="2.35244">
        <ele>24.9</ele>
        <time>2023-10-06T13:03:39Z</time>
      </trkpt>
      <trkpt lat="49.8833" lon="2.35244">
        <ele>24.9</ele>
        <time>2023-10-06T13:03:40Z</time>
      </trkpt>
      <trkpt lat="49.8833" lon="2.35244">
        <ele>24.9</ele>
        <time>2023-10-06T13:03:41Z</time>
      </trkpt>
      <trkpt lat="49.8833" lon="2.35244">
        <ele>24.9</ele>
        <time>2023-10-06T13:03:42Z</time>
      </trkpt>
      <trkpt lat="49.8833" lon="2.35244">
        <ele>24.9</ele>
        <time>2023-10-06T13:03:43Z</time>
      </trkpt>
      <trkpt lat="49.8833" lon="2.35244">
        <ele>24.9</ele>
        <time>2023-10-06T13:03:44Z</time>
      </trkpt>
      <trkpt lat="49.8833" lon="2.35244">
        <ele>24.9</ele>
        <time>2023-10-06T13:03:45Z</time>
      </trkpt>
      <trkpt lat="49.8833" lon="2.35244">
        <ele>24.9</ele>
        <time>2023-10-06T13:03:46Z</time>
      </trkpt>
      <trkpt lat="49.8833" lon="2.35244">
        <ele>24.9</ele>
        <time>2023-10-06T13:03:47Z</time>
      </trkpt>
      <trkpt lat="49.8833" lon="2.35244">
        <ele>24.9</ele>
        <time>2023-10-06T13:03:48Z</time>
      </trkpt>
      <trkpt lat="49.8833" lon="2.35244">
        <ele>24.9</ele>
        <time>2023-10-06T13:03:49Z</time>
      </trkpt>
      <trkpt lat="49.8833" lon="2.35244">
        <ele>24.9</ele>
        <time>2023-10-06T13:03:50Z</time>
      </trkpt>
      <trkpt lat="49.8833" lon="2.35244">
        <ele>24.9</ele>
        <time>2023-10-06T13:03:51Z</time>
      </trkpt>
      <trkpt lat="49.8833" lon="2.35244">
        <ele>24.9</ele>
        <time>2023-10-06T13:03:52Z</time>
      </trkpt>
      <trkpt lat="49.8833" lon="2.35244">
        <ele>24.9</ele>
        <time>2023-10-06T13:03:53Z</time>
      </trkpt>
      <trkpt lat="49.8833" lon="2.35244">
        <ele>24.9</ele>
        <time>2023-10-06T13:03:54Z</time>
      </trkpt>
      <trkpt lat="49.8833" lon="2.35244">
        <ele>24.9</ele>
        <time>2023-10-06T13:03:55Z</time>
      </trkpt>
      <trkpt lat="49.8833" lon="2.35244">
        <ele>24.9</ele>
        <time>2023-10-06T13:03:56Z</time>
      </trkpt>
      <trkpt lat="49.8833" lon="2.35244">
        <ele>24.9</ele>
        <time>2023-10-06T13:03:57Z</time>
      </trkpt>
      <trkpt lat="49.8833" lon="2.35244">
        <ele>24.9</ele>
        <time>2023-10-06T13:03:58Z</time>
      </trkpt>
      <trkpt lat="49.8833" lon="2.35244">
        <ele>24.9</ele>
        <time>2023-10-06T13:03:59Z</time>
      </trkpt>
      <trkpt lat="49.8833" lon="2.35244">
        <ele>24.9</ele>
        <time>2023-10-06T13:04:00Z</time>
      </trkpt>
      <trkpt lat="49.8833" lon="2.35244">
        <ele>24.9</ele>
        <time>2023-10-06T13:04:01Z</time>
      </trkpt>
      <trkpt lat="49.8833" lon="2.35244">
        <ele>24.9</ele>
        <time>2023-10-06T13:04:02Z</time>
      </trkpt>
      <trkpt lat="49.8833" lon="2.35244">
        <ele>24.9</ele>
        <time>2023-10-06T13:04:03Z</time>
      </trkpt>
      <trkpt lat="49.8833" lon="2.35244">
        <ele>24.9</ele>
        <time>2023-10-06T13:04:04Z</time>
      </trkpt>
      <trkpt lat="49.8833" lon="2.35244">
        <ele>24.9</ele>
        <time>2023-10-06T13:04:05Z</time>
      </trkpt>
      <trkpt lat="49.8833" lon="2.35244">
        <ele>24.9</ele>
        <time>2023-10-06T13:04:06Z</time>
      </trkpt>
      <trkpt lat="49.8833" lon="2.35244">
        <ele>24.9</ele>
        <time>2023-10-06T13:04:07Z</time>
      </trkpt>
      <trkpt lat="49.8833" lon="2.35244">
        <ele>24.9</ele>
        <time>2023-10-06T13:04:08Z</time>
      </trkpt>
      <trkpt lat="49.8833" lon="2.35244">
        <ele>24.9</ele>
        <time>2023-10-06T13:04:09Z</time>
      </trkpt>
      <trkpt lat="49.8833" lon="2.35244">
        <ele>24.9</ele>
        <time>2023-10-06T13:04:10Z</time>
      </trkpt>
      <trkpt lat="49.8833" lon="2.35244">
        <ele>24.9</ele>
        <time>2023-10-06T13:04:11Z</time>
      </trkpt>
      <trkpt lat="49.8833" lon="2.35244">
        <ele>24.9</ele>
        <time>2023-10-06T13:04:12Z</time>
      </trkpt>
      <trkpt lat="49.8833" lon="2.35244">
        <ele>24.9</ele>
        <time>2023-10-06T13:04:13Z</time>
      </trkpt>
      <trkpt lat="49.8833" lon="2.35244">
        <ele>24.9</ele>
        <time>2023-10-06T13:04:14Z</time>
      </trkpt>
      <trkpt lat="49.8833" lon="2.35244">
        <ele>24.9</ele>
        <time>2023-10-06T13:04:15Z</time>
      </trkpt>
      <trkpt lat="49.8833" lon="2.35244">
        <ele>24.9</ele>
        <time>2023-10-06T13:04:16Z</time>
      </trkpt>
      <trkpt lat="49.8833" lon="2.35244">
        <ele>24.9</ele>
        <time>2023-10-06T13:04:17Z</time>
      </trkpt>
      <trkpt lat="49.8833" lon="2.35244">
        <ele>24.9</ele>
        <time>2023-10-06T13:04:18Z</time>
      </trkpt>
      <trkpt lat="49.8833" lon="2.35244">
        <ele>24.9</ele>
        <time>2023-10-06T13:04:19Z</time>
      </trkpt>
      <trkpt lat="49.8833" lon="2.35244">
        <ele>24.9</ele>
        <time>2023-10-06T13:04:20Z</time>
      </trkpt>
      <trkpt lat="49.8833" lon="2.35244">
        <ele>24.9</ele>
        <time>2023-10-06T13:04:21Z</time>
      </trkpt>
      <trkpt lat="49.8833" lon="2.35244">
        <ele>24.9</ele>
        <time>2023-10-06T13:04:22Z</time>
      </trkpt>
      <trkpt lat="49.8833" lon="2.35244">
        <ele>24.9</ele>
        <time>2023-10-06T13:04:23Z</time>
      </trkpt>
      <trkpt lat="49.8833" lon="2.35244">
        <ele>24.9</ele>
        <time>2023-10-06T13:04:24Z</time>
      </trkpt>
      <trkpt lat="49.8833" lon="2.35244">
        <ele>24.9</ele>
        <time>2023-10-06T13:04:25Z</time>
      </trkpt>
      <trkpt lat="49.8833" lon="2.35244">
        <ele>24.9</ele>
        <time>2023-10-06T13:04:26Z</time>
      </trkpt>
      <trkpt lat="49.8833" lon="2.35244">
        <ele>24.9</ele>
        <time>2023-10-06T13:04:27Z</time>
      </trkpt>
      <trkpt lat="49.8833" lon="2.35244">
        <ele>24.9</ele>
        <time>2023-10-06T13:04:28Z</time>
      </trkpt>
      <trkpt lat="49.8833" lon="2.35244">
        <ele>24.9</ele>
        <time>2023-10-06T13:04:29Z</time>
      </trkpt>
      <trkpt lat="49.8833" lon="2.35244">
        <ele>24.9</ele>
        <time>2023-10-06T13:04:30Z</time>
      </trkpt>
      <trkpt lat="49.8833" lon="2.35244">
        <ele>24.9</ele>
        <time>2023-10-06T13:04:31Z</time>
      </trkpt>
      <trkpt lat="49.8833" lon="2.35244">
        <ele>24.9</ele>
        <time>2023-10-06T13:04:32Z</time>
      </trkpt>
      <trkpt lat="49.8833" lon="2.35244">
        <ele>24.9</ele>
        <time>2023-10-06T13:04:33Z</time>
      </trkpt>
      <trkpt lat="49.8833" lon="2.35244">
        <ele>24.9</ele>
        <time>2023-10-06T13:04:34Z</time>
      </trkpt>
      <trkpt lat="49.8833" lon="2.35244">
        <ele>24.9</ele>
        <time>2023-10-06T13:04:35Z</time>
      </trkpt>
      <trkpt lat="49.8833" lon="2.35244">
        <ele>24.9</ele>
        <time>2023-10-06T13:04:36Z</time>
      </trkpt>
      <trkpt lat="49.8833" lon="2.35244">
        <ele>24.9</ele>
        <time>2023-10-06T13:04:37Z</time>
      </trkpt>
      <trkpt lat="49.8833" lon="2.35244">
        <ele>24.9</ele>
        <time>2023-10-06T13:04:38Z</time>
      </trkpt>
      <trkpt lat="49.8833" lon="2.35244">
        <ele>24.9</ele>
        <time>2023-10-06T13:04:39Z</time>
      </trkpt>
      <trkpt lat="49.8833" lon="2.35244">
        <ele>24.9</ele>
        <time>2023-10-06T13:04:40Z</time>
      </trkpt>
      <trkpt lat="49.8833" lon="2.35244">
        <ele>24.9</ele>
        <time>2023-10-06T13:04:41Z</time>
      </trkpt>
      <trkpt lat="49.8833" lon="2.35244">
        <ele>24.9</ele>
        <time>2023-10-06T13:04:42Z</time>
      </trkpt>
      <trkpt lat="49.8833" lon="2.35244">
        <ele>24.9</ele>
        <time>2023-10-06T13:04:43Z</time>
      </trkpt>
      <trkpt lat="49.8833" lon="2.35244">
        <ele>24.9</ele>
        <time>2023-10-06T13:04:44Z</time>
      </trkpt>
      <trkpt lat="49.8833" lon="2.35244">
        <ele>24.9</ele>
        <time>2023-10-06T13:04:45Z</time>
      </trkpt>
      <trkpt lat="49.8833" lon="2.35244">
        <ele>24.9</ele>
        <time>2023-10-06T13:04:46Z</time>
      </trkpt>
      <trkpt lat="49.8833" lon="2.35244">
        <ele>24.9</ele>
        <time>2023-10-06T13:04:47Z</time>
      </trkpt>
      <trkpt lat="49.8833" lon="2.35244">
        <ele>24.9</ele>
        <time>2023-10-06T13:04:48Z</time>
      </trkpt>
      <trkpt lat="49.8833" lon="2.35244">
        <ele>24.9</ele>
        <time>2023-10-06T13:04:49Z</time>
      </trkpt>
      <trkpt lat="49.8833" lon="2.35244">
        <ele>24.9</ele>
        <time>2023-10-06T13:04:50Z</time>
      </trkpt>
      <trkpt lat="49.8833" lon="2.35244">
        <ele>24.9</ele>
        <time>2023-10-06T13:04:51Z</time>
      </trkpt>
      <trkpt lat="49.8833" lon="2.35244">
        <ele>24.9</ele>
        <time>2023-10-06T13:04:52Z</time>
      </trkpt>
      <trkpt lat="49.8833" lon="2.35244">
        <ele>24.9</ele>
        <time>2023-10-06T13:04:53Z</time>
      </trkpt>
      <trkpt lat="49.8833" lon="2.35244">
        <ele>24.9</ele>
        <time>2023-10-06T13:04:54Z</time>
      </trkpt>
      <trkpt lat="49.8833" lon="2.35244">
        <ele>24.9</ele>
        <time>2023-10-06T13:04:55Z</time>
      </trkpt>
      <trkpt lat="49.8833" lon="2.35244">
        <ele>24.9</ele>
        <time>2023-10-06T13:04:56Z</time>
      </trkpt>
      <trkpt lat="49.8833" lon="2.35244">
        <ele>24.9</ele>
        <time>2023-10-06T13:04:57Z</time>
      </trkpt>
      <trkpt lat="49.8833" lon="2.35244">
        <ele>24.9</ele>
        <time>2023-10-06T13:04:58Z</time>
      </trkpt>
      <trkpt lat="49.8833" lon="2.35244">
        <ele>24.9</ele>
        <time>2023-10-06T13:04:59Z</time>
      </trkpt>
      <trkpt lat="49.8833" lon="2.35244">
        <ele>24.9</ele>
        <time>2023-10-06T13:05:00Z</time>
      </trkpt>
      <trkpt lat="49.8833" lon="2.35244">
        <ele>24.9</ele>
        <time>2023-10-06T13:05:01Z</time>
      </trkpt>
      <trkpt lat="49.8833" lon="2.35244">
        <ele>24.9</ele>
        <time>2023-10-06T13:05:02Z</time>
      </trkpt>
      <trkpt lat="49.8833" lon="2.35244">
        <ele>24.9</ele>
        <time>2023-10-06T13:05:03Z</time>
      </trkpt>
      <trkpt lat="49.8833" lon="2.35244">
        <ele>24.9</ele>
        <time>2023-10-06T13:05:04Z</time>
      </trkpt>
      <trkpt lat="49.8833" lon="2.35244">
        <ele>24.9</ele>
        <time>2023-10-06T13:05:05Z</time>
      </trkpt>
      <trkpt lat="49.8833" lon="2.35244">
        <ele>24.9</ele>
        <time>2023-10-06T13:05:06Z</time>
      </trkpt>
      <trkpt lat="49.8833" lon="2.35244">
        <ele>24.9</ele>
        <time>2023-10-06T13:05:07Z</time>
      </trkpt>
      <trkpt lat="49.8833" lon="2.35244">
        <ele>24.9</ele>
        <time>2023-10-06T13:05:08Z</time>
      </trkpt>
      <trkpt lat="49.8833" lon="2.35244">
        <ele>24.9</ele>
        <time>2023-10-06T13:05:09Z</time>
      </trkpt>
      <trkpt lat="49.8833" lon="2.35244">
        <ele>24.9</ele>
        <time>2023-10-06T13:05:10Z</time>
      </trkpt>
      <trkpt lat="49.8833" lon="2.35244">
        <ele>24.9</ele>
        <time>2023-10-06T13:05:11Z</time>
      </trkpt>
      <trkpt lat="49.8833" lon="2.35244">
        <ele>24.9</ele>
        <time>2023-10-06T13:05:12Z</time>
      </trkpt>
      <trkpt lat="49.8833" lon="2.35244">
        <ele>24.9</ele>
        <time>2023-10-06T13:05:13Z</time>
      </trkpt>
      <trkpt lat="49.8833" lon="2.35244">
        <ele>24.9</ele>
        <time>2023-10-06T13:05:14Z</time>
      </trkpt>
      <trkpt lat="49.8833" lon="2.35244">
        <ele>24.9</ele>
        <time>2023-10-06T13:05:15Z</time>
      </trkpt>
      <trkpt lat="49.8833" lon="2.35244">
        <ele>24.9</ele>
        <time>2023-10-06T13:05:16Z</time>
      </trkpt>
      <trkpt lat="49.8833" lon="2.35244">
        <ele>24.9</ele>
        <time>2023-10-06T13:05:17Z</time>
      </trkpt>
      <trkpt lat="49.8833" lon="2.35244">
        <ele>24.9</ele>
        <time>2023-10-06T13:05:18Z</time>
      </trkpt>
      <trkpt lat="49.8833" lon="2.35244">
        <ele>24.9</ele>
        <time>2023-10-06T13:05:19Z</time>
      </trkpt>
      <trkpt lat="49.8833" lon="2.35244">
        <ele>24.9</ele>
        <time>2023-10-06T13:05:20Z</time>
      </trkpt>
      <trkpt lat="49.8833" lon="2.35244">
        <ele>24.9</ele>
        <time>2023-10-06T13:05:21Z</time>
      </trkpt>
      <trkpt lat="49.8833" lon="2.35244">
        <ele>24.9</ele>
        <time>2023-10-06T13:05:22Z</time>
      </trkpt>
      <trkpt lat="49.8833" lon="2.35244">
        <ele>24.9</ele>
        <time>2023-10-06T13:05:23Z</time>
      </trkpt>
      <trkpt lat="49.8833" lon="2.35244">
        <ele>24.9</ele>
        <time>2023-10-06T13:05:24Z</time>
      </trkpt>
      <trkpt lat="49.8833" lon="2.35244">
        <ele>24.9</ele>
        <time>2023-10-06T13:05:25Z</time>
      </trkpt>
      <trkpt lat="49.8833" lon="2.35244">
        <ele>24.9</ele>
        <time>2023-10-06T13:05:26Z</time>
      </trkpt>
      <trkpt lat="49.8833" lon="2.35244">
        <ele>24.9</ele>
        <time>2023-10-06T13:05:27Z</time>
      </trkpt>
      <trkpt lat="49.8833" lon="2.35244">
        <ele>24.9</ele>
        <time>2023-10-06T13:05:28Z</time>
      </trkpt>
      <trkpt lat="49.8833" lon="2.35244">
        <ele>24.9</ele>
        <time>2023-10-06T13:05:29Z</time>
      </trkpt>
      <trkpt lat="49.8833" lon="2.35244">
        <ele>24.9</ele>
        <time>2023-10-06T13:05:30Z</time>
      </trkpt>
      <trkpt lat="49.8833" lon="2.35244">
        <ele>24.9</ele>
        <time>2023-10-06T13:05:31Z</time>
      </trkpt>
      <trkpt lat="49.8833" lon="2.35244">
        <ele>24.9</ele>
        <time>2023-10-06T13:05:32Z</time>
      </trkpt>
      <trkpt lat="49.8833" lon="2.35244">
        <ele>24.9</ele>
        <time>2023-10-06T13:05:33Z</time>
      </trkpt>
      <trkpt lat="49.8833" lon="2.35244">
        <ele>24.9</ele>
        <time>2023-10-06T13:05:34Z</time>
      </trkpt>
      <trkpt lat="49.8833" lon="2.35244">
        <ele>24.9</ele>
        <time>2023-10-06T13:05:35Z</time>
      </trkpt>
      <trkpt lat="49.8833" lon="2.35244">
        <ele>24.9</ele>
        <time>2023-10-06T13:05:36Z</time>
      </trkpt>
      <trkpt lat="49.8833" lon="2.35244">
        <ele>24.9</ele>
        <time>2023-10-06T13:05:37Z</time>
      </trkpt>
      <trkpt lat="49.8833" lon="2.35244">
        <ele>24.9</ele>
        <time>2023-10-06T13:05:38Z</time>
      </trkpt>
      <trkpt lat="49.8833" lon="2.35244">
        <ele>24.9</ele>
        <time>2023-10-06T13:05:39Z</time>
      </trkpt>
      <trkpt lat="49.8833" lon="2.35244">
        <ele>24.9</ele>
        <time>2023-10-06T13:05:40Z</time>
      </trkpt>
      <trkpt lat="49.8833" lon="2.35244">
        <ele>24.9</ele>
        <time>2023-10-06T13:05:41Z</time>
      </trkpt>
      <trkpt lat="49.8833" lon="2.35244">
        <ele>24.9</ele>
        <time>2023-10-06T13:05:42Z</time>
      </trkpt>
      <trkpt lat="49.8833" lon="2.35244">
        <ele>24.9</ele>
        <time>2023-10-06T13:05:43Z</time>
      </trkpt>
      <trkpt lat="49.8833" lon="2.35244">
        <ele>24.9</ele>
        <time>2023-10-06T13:05:44Z</time>
      </trkpt>
      <trkpt lat="49.8833" lon="2.35244">
        <ele>24.9</ele>
        <time>2023-10-06T13:05:45Z</time>
      </trkpt>
      <trkpt lat="49.8833" lon="2.35244">
        <ele>24.9</ele>
        <time>2023-10-06T13:05:46Z</time>
      </trkpt>
      <trkpt lat="49.8833" lon="2.35244">
        <ele>24.9</ele>
        <time>2023-10-06T13:05:47Z</time>
      </trkpt>
      <trkpt lat="49.8833" lon="2.35244">
        <ele>24.9</ele>
        <time>2023-10-06T13:05:48Z</time>
      </trkpt>
      <trkpt lat="49.8833" lon="2.35244">
        <ele>24.9</ele>
        <time>2023-10-06T13:05:49Z</time>
      </trkpt>
      <trkpt lat="49.8833" lon="2.35244">
        <ele>24.9</ele>
        <time>2023-10-06T13:05:50Z</time>
      </trkpt>
      <trkpt lat="49.8833" lon="2.35244">
        <ele>24.9</ele>
        <time>2023-10-06T13:05:51Z</time>
      </trkpt>
      <trkpt lat="49.8833" lon="2.35244">
        <ele>24.9</ele>
        <time>2023-10-06T13:05:52Z</time>
      </trkpt>
      <trkpt lat="49.8833" lon="2.35244">
        <ele>24.9</ele>
        <time>2023-10-06T13:05:53Z</time>
      </trkpt>
      <trkpt lat="49.8833" lon="2.35244">
        <ele>24.9</ele>
        <time>2023-10-06T13:05:54Z</time>
      </trkpt>
      <trkpt lat="49.8833" lon="2.35244">
        <ele>24.9</ele>
        <time>2023-10-06T13:05:55Z</time>
      </trkpt>
      <trkpt lat="49.8833" lon="2.35244">
        <ele>24.9</ele>
        <time>2023-10-06T13:05:56Z</time>
      </trkpt>
      <trkpt lat="49.8833" lon="2.35244">
        <ele>24.9</ele>
        <time>2023-10-06T13:05:57Z</time>
      </trkpt>
      <trkpt lat="49.8833" lon="2.35244">
        <ele>24.9</ele>
        <time>2023-10-06T13:05:58Z</time>
      </trkpt>
      <trkpt lat="49.8833" lon="2.35244">
        <ele>24.9</ele>
        <time>2023-10-06T13:05:59Z</time>
      </trkpt>
      <trkpt lat="49.8833" lon="2.35244">
        <ele>24.9</ele>
        <time>2023-10-06T13:06:00Z</time>
      </trkpt>
      <trkpt lat="49.8833" lon="2.35244">
        <ele>24.9</ele>
        <time>2023-10-06T13:06:01Z</time>
      </trkpt>
      <trkpt lat="49.8833" lon="2.35244">
        <ele>24.9</ele>
        <time>2023-10-06T13:06:02Z</time>
      </trkpt>
      <trkpt lat="49.8833" lon="2.35244">
        <ele>24.9</ele>
        <time>2023-10-06T13:06:03Z</time>
      </trkpt>
      <trkpt lat="49.8833" lon="2.35244">
        <ele>24.9</ele>
        <time>2023-10-06T13:06:04Z</time>
      </trkpt>
      <trkpt lat="49.8833" lon="2.35246">
        <ele>24.9</ele>
        <time>2023-10-06T13:06:05Z</time>
      </trkpt>
      <trkpt lat="49.88329" lon="2.35248">
        <ele>24.9</ele>
        <time>2023-10-06T13:06:06Z</time>
      </trkpt>
      <trkpt lat="49.88329" lon="2.35249">
        <ele>24.9</ele>
        <time>2023-10-06T13:06:07Z</time>
      </trkpt>
      <trkpt lat="49.88328" lon="2.35249">
        <ele>24.9</ele>
        <time>2023-10-06T13:06:08Z</time>
      </trkpt>
      <trkpt lat="49.88328" lon="2.3525">
        <ele>24.9</ele>
        <time>2023-10-06T13:06:09Z</time>
      </trkpt>
      <trkpt lat="49.88327" lon="2.3525">
        <ele>24.9</ele>
        <time>2023-10-06T13:06:10Z</time>
      </trkpt>
      <trkpt lat="49.88327" lon="2.3525">
        <ele>24.9</ele>
        <time>2023-10-06T13:06:11Z</time>
      </trkpt>
      <trkpt lat="49.88326" lon="2.3525">
        <ele>24.9</ele>
        <time>2023-10-06T13:06:12Z</time>
      </trkpt>
      <trkpt lat="49.88326" lon="2.3525">
        <ele>24.9</ele>
        <time>2023-10-06T13:06:13Z</time>
      </trkpt>
      <trkpt lat="49.88325" lon="2.3525">
        <ele>24.9</ele>
        <time>2023-10-06T13:06:14Z</time>
      </trkpt>
      <trkpt lat="49.88324" lon="2.3525">
        <ele>24.9</ele>
        <time>2023-10-06T13:06:15Z</time>
      </trkpt>
      <trkpt lat="49.88324" lon="2.3525">
        <ele>24.9</ele>
        <time>2023-10-06T13:06:16Z</time>
      </trkpt>
      <trkpt lat="49.88323" lon="2.3525">
        <ele>24.9</ele>
        <time>2023-10-06T13:06:17Z</time>
      </trkpt>
      <trkpt lat="49.88323" lon="2.3525">
        <ele>24.9</ele>
        <time>2023-10-06T13:06:18Z</time>
      </trkpt>
      <trkpt lat="49.88322" lon="2.35251">
        <ele>24.9</ele>
        <time>2023-10-06T13:06:19Z</time>
      </trkpt>
      <trkpt lat="49.88322" lon="2.35251">
        <ele>24.9</ele>
        <time>2023-10-06T13:06:20Z</time>
      </trkpt>
      <trkpt lat="49.88322" lon="2.35251">
        <ele>24.9</ele>
        <time>2023-10-06T13:06:21Z</time>
      </trkpt>
      <trkpt lat="49.88321" lon="2.35251">
        <ele>24.9</ele>
        <time>2023-10-06T13:06:22Z</time>
      </trkpt>
      <trkpt lat="49.88321" lon="2.35251">
        <ele>24.9</ele>
        <time>2023-10-06T13:06:23Z</time>
      </trkpt>
      <trkpt lat="49.88321" lon="2.35251">
        <ele>24.9</ele>
        <time>2023-10-06T13:06:24Z</time>
      </trkpt>
      <trkpt lat="49.8832" lon="2.35251">
        <ele>24.9</ele>
        <time>2023-10-06T13:06:25Z</time>
      </trkpt>
      <trkpt lat="49.8832" lon="2.35252">
        <ele>24.9</ele>
        <time>2023-10-06T13:06:26Z</time>
      </trkpt>
      <trkpt lat="49.88319" lon="2.35252">
        <ele>24.9</ele>
        <time>2023-10-06T13:06:27Z</time>
      </trkpt>
      <trkpt lat="49.88319" lon="2.35253">
        <ele>24.9</ele>
        <time>2023-10-06T13:06:28Z</time>
      </trkpt>
      <trkpt lat="49.88318" lon="2.35253">
        <ele>24.9</ele>
        <time>2023-10-06T13:06:29Z</time>
      </trkpt>
      <trkpt lat="49.88318" lon="2.35254">
        <ele>24.9</ele>
        <time>2023-10-06T13:06:30Z</time>
      </trkpt>
      <trkpt lat="49.88317" lon="2.35254">
        <ele>24.9</ele>
        <time>2023-10-06T13:06:31Z</time>
      </trkpt>
      <trkpt lat="49.88316" lon="2.35255">
        <ele>24.9</ele>
        <time>2023-10-06T13:06:32Z</time>
      </trkpt>
      <trkpt lat="49.88316" lon="2.35256">
        <ele>24.9</ele>
        <time>2023-10-06T13:06:33Z</time>
      </trkpt>
      <trkpt lat="49.88315" lon="2.35256">
        <ele>24.9</ele>
        <time>2023-10-06T13:06:34Z</time>
      </trkpt>
      <trkpt lat="49.88314" lon="2.35257">
        <ele>24.9</ele>
        <time>2023-10-06T13:06:35Z</time>
      </trkpt>
      <trkpt lat="49.88314" lon="2.35258">
        <ele>24.9</ele>
        <time>2023-10-06T13:06:36Z</time>
      </trkpt>
      <trkpt lat="49.88313" lon="2.35258">
        <ele>24.9</ele>
        <time>2023-10-06T13:06:37Z</time>
      </trkpt>
      <trkpt lat="49.88312" lon="2.35259">
        <ele>24.9</ele>
        <time>2023-10-06T13:06:38Z</time>
      </trkpt>
      <trkpt lat="49.88312" lon="2.3526">
        <ele>24.9</ele>
        <time>2023-10-06T13:06:39Z</time>
      </trkpt>
      <trkpt lat="49.88311" lon="2.3526">
        <ele>25</ele>
        <time>2023-10-06T13:06:40Z</time>
      </trkpt>
      <trkpt lat="49.88311" lon="2.35261">
        <ele>25</ele>
        <time>2023-10-06T13:06:41Z</time>
      </trkpt>
      <trkpt lat="49.8831" lon="2.35261">
        <ele>25</ele>
        <time>2023-10-06T13:06:42Z</time>
      </trkpt>
      <trkpt lat="49.88309" lon="2.35261">
        <ele>25</ele>
        <time>2023-10-06T13:06:43Z</time>
      </trkpt>
      <trkpt lat="49.88308" lon="2.35262">
        <ele>25</ele>
        <time>2023-10-06T13:06:44Z</time>
      </trkpt>
      <trkpt lat="49.88308" lon="2.35262">
        <ele>25</ele>
        <time>2023-10-06T13:06:45Z</time>
      </trkpt>
      <trkpt lat="49.88307" lon="2.35263">
        <ele>25</ele>
        <time>2023-10-06T13:06:46Z</time>
      </trkpt>
      <trkpt lat="49.88306" lon="2.35263">
        <ele>25</ele>
        <time>2023-10-06T13:06:47Z</time>
      </trkpt>
      <trkpt lat="49.88305" lon="2.35264">
        <ele>25</ele>
        <time>2023-10-06T13:06:48Z</time>
      </trkpt>
      <trkpt lat="49.88304" lon="2.35264">
        <ele>25</ele>
        <time>2023-10-06T13:06:49Z</time>
      </trkpt>
      <trkpt lat="49.88303" lon="2.35264">
        <ele>25</ele>
        <time>2023-10-06T13:06:50Z</time>
      </trkpt>
      <trkpt lat="49.88302" lon="2.35264">
        <ele>25</ele>
        <time>2023-10-06T13:06:51Z</time>
      </trkpt>
      <trkpt lat="49.88301" lon="2.35264">
        <ele>25</ele>
        <time>2023-10-06T13:06:52Z</time>
      </trkpt>
      <trkpt lat="49.883" lon="2.35264">
        <ele>25</ele>
        <time>2023-10-06T13:06:53Z</time>
      </trkpt>
      <trkpt lat="49.88299" lon="2.35263">
        <ele>25.1</ele>
        <time>2023-10-06T13:06:54Z</time>
      </trkpt>
      <trkpt lat="49.88298" lon="2.35263">
        <ele>25.1</ele>
        <time>2023-10-06T13:06:55Z</time>
      </trkpt>
      <trkpt lat="49.88297" lon="2.35262">
        <ele>25.1</ele>
        <time>2023-10-06T13:06:56Z</time>
      </trkpt>
      <trkpt lat="49.88295" lon="2.35261">
        <ele>25.1</ele>
        <time>2023-10-06T13:06:57Z</time>
      </trkpt>
      <trkpt lat="49.88294" lon="2.35261">
        <ele>25.1</ele>
        <time>2023-10-06T13:06:58Z</time>
      </trkpt>
      <trkpt lat="49.88293" lon="2.3526">
        <ele>25.1</ele>
        <time>2023-10-06T13:06:59Z</time>
      </trkpt>
      <trkpt lat="49.88292" lon="2.35259">
        <ele>25.1</ele>
        <time>2023-10-06T13:07:00Z</time>
      </trkpt>
      <trkpt lat="49.88291" lon="2.35258">
        <ele>25.1</ele>
        <time>2023-10-06T13:07:01Z</time>
      </trkpt>
      <trkpt lat="49.88289" lon="2.35257">
        <ele>25.1</ele>
        <time>2023-10-06T13:07:02Z</time>
      </trkpt>
      <trkpt lat="49.88288" lon="2.35256">
        <ele>25.1</ele>
        <time>2023-10-06T13:07:03Z</time>
      </trkpt>
      <trkpt lat="49.88287" lon="2.35256">
        <ele>25.1</ele>
        <time>2023-10-06T13:07:04Z</time>
      </trkpt>
      <trkpt lat="49.88286" lon="2.35255">
        <ele>25.1</ele>
        <time>2023-10-06T13:07:05Z</time>
      </trkpt>
      <trkpt lat="49.88285" lon="2.35254">
        <ele>25.2</ele>
        <time>2023-10-06T13:07:06Z</time>
      </trkpt>
      <trkpt lat="49.88284" lon="2.35253">
        <ele>25.2</ele>
        <time>2023-10-06T13:07:07Z</time>
      </trkpt>
      <trkpt lat="49.88282" lon="2.35252">
        <ele>25.2</ele>
        <time>2023-10-06T13:07:08Z</time>
      </trkpt>
      <trkpt lat="49.88282" lon="2.35251">
        <ele>25.2</ele>
        <time>2023-10-06T13:07:09Z</time>
      </trkpt>
      <trkpt lat="49.88281" lon="2.35251">
        <ele>25.2</ele>
        <time>2023-10-06T13:07:10Z</time>
      </trkpt>
      <trkpt lat="49.8828" lon="2.35251">
        <ele>25.2</ele>
        <time>2023-10-06T13:07:11Z</time>
      </trkpt>
      <trkpt lat="49.88279" lon="2.35251">
        <ele>25.2</ele>
        <time>2023-10-06T13:07:12Z</time>
      </trkpt>
      <trkpt lat="49.88278" lon="2.3525">
        <ele>25.2</ele>
        <time>2023-10-06T13:07:13Z</time>
      </trkpt>
      <trkpt lat="49.88278" lon="2.3525">
        <ele>25.2</ele>
        <time>2023-10-06T13:07:14Z</time>
      </trkpt>
      <trkpt lat="49.88277" lon="2.35249">
        <ele>25.2</ele>
        <time>2023-10-06T13:07:15Z</time>
      </trkpt>
      <trkpt lat="49.88276" lon="2.35249">
        <ele>25.2</ele>
        <time>2023-10-06T13:07:16Z</time>
      </trkpt>
      <trkpt lat="49.88276" lon="2.35248">
        <ele>25.2</ele>
        <time>2023-10-06T13:07:17Z</time>
      </trkpt>
      <trkpt lat="49.88275" lon="2.35248">
        <ele>25.2</ele>
        <time>2023-10-06T13:07:18Z</time>
      </trkpt>
      <trkpt lat="49.88275" lon="2.35247">
        <ele>25.2</ele>
        <time>2023-10-06T13:07:19Z</time>
      </trkpt>
      <trkpt lat="49.88274" lon="2.35247">
        <ele>25.1</ele>
        <time>2023-10-06T13:07:20Z</time>
      </trkpt>
      <trkpt lat="49.88273" lon="2.35246">
        <ele>25</ele>
        <time>2023-10-06T13:07:21Z</time>
      </trkpt>
      <trkpt lat="49.88272" lon="2.35246">
        <ele>25</ele>
        <time>2023-10-06T13:07:22Z</time>
      </trkpt>
      <trkpt lat="49.88271" lon="2.35246">
        <ele>25</ele>
        <time>2023-10-06T13:07:23Z</time>
      </trkpt>
      <trkpt lat="49.8827" lon="2.35246">
        <ele>24.9</ele>
        <time>2023-10-06T13:07:24Z</time>
      </trkpt>
      <trkpt lat="49.88269" lon="2.35246">
        <ele>24.9</ele>
        <time>2023-10-06T13:07:25Z</time>
      </trkpt>
      <trkpt lat="49.88268" lon="2.35245">
        <ele>24.7</ele>
        <time>2023-10-06T13:07:26Z</time>
      </trkpt>
      <trkpt lat="49.88267" lon="2.35245">
        <ele>24.6</ele>
        <time>2023-10-06T13:07:27Z</time>
      </trkpt>
      <trkpt lat="49.88266" lon="2.35245">
        <ele>24.6</ele>
        <time>2023-10-06T13:07:28Z</time>
      </trkpt>
      <trkpt lat="49.88265" lon="2.35245">
        <ele>24.6</ele>
        <time>2023-10-06T13:07:29Z</time>
      </trkpt>
      <trkpt lat="49.88264" lon="2.35244">
        <ele>24.6</ele>
        <time>2023-10-06T13:07:30Z</time>
      </trkpt>
      <trkpt lat="49.88263" lon="2.35244">
        <ele>24.6</ele>
        <time>2023-10-06T13:07:31Z</time>
      </trkpt>
      <trkpt lat="49.88262" lon="2.35243">
        <ele>24.6</ele>
        <time>2023-10-06T13:07:32Z</time>
      </trkpt>
      <trkpt lat="49.88261" lon="2.35243">
        <ele>24.6</ele>
        <time>2023-10-06T13:07:33Z</time>
      </trkpt>
      <trkpt lat="49.8826" lon="2.35242">
        <ele>24.6</ele>
        <time>2023-10-06T13:07:34Z</time>
      </trkpt>
      <trkpt lat="49.88259" lon="2.35241">
        <ele>24.6</ele>
        <time>2023-10-06T13:07:35Z</time>
      </trkpt>
      <trkpt lat="49.88258" lon="2.35241">
        <ele>24.6</ele>
        <time>2023-10-06T13:07:36Z</time>
      </trkpt>
      <trkpt lat="49.88257" lon="2.3524">
        <ele>24.6</ele>
        <time>2023-10-06T13:07:37Z</time>
      </trkpt>
      <trkpt lat="49.88256" lon="2.35239">
        <ele>24.6</ele>
        <time>2023-10-06T13:07:38Z</time>
      </trkpt>
      <trkpt lat="49.88255" lon="2.35239">
        <ele>24.6</ele>
        <time>2023-10-06T13:07:39Z</time>
      </trkpt>
      <trkpt lat="49.88254" lon="2.35238">
        <ele>24.6</ele>
        <time>2023-10-06T13:07:40Z</time>
      </trkpt>
      <trkpt lat="49.88252" lon="2.35238">
        <ele>24.6</ele>
        <time>2023-10-06T13:07:41Z</time>
      </trkpt>
      <trkpt lat="49.88251" lon="2.35237">
        <ele>24.5</ele>
        <time>2023-10-06T13:07:42Z</time>
      </trkpt>
      <trkpt lat="49.8825" lon="2.35237">
        <ele>24.5</ele>
        <time>2023-10-06T13:07:43Z</time>
      </trkpt>
      <trkpt lat="49.88249" lon="2.35237">
        <ele>24.5</ele>
        <time>2023-10-06T13:07:44Z</time>
      </trkpt>
      <trkpt lat="49.88248" lon="2.35237">
        <ele>24.5</ele>
        <time>2023-10-06T13:07:45Z</time>
      </trkpt>
      <trkpt lat="49.88248" lon="2.35237">
        <ele>24.5</ele>
        <time>2023-10-06T13:07:46Z</time>
      </trkpt>
      <trkpt lat="49.88247" lon="2.35237">
        <ele>24.5</ele>
        <time>2023-10-06T13:07:47Z</time>
      </trkpt>
      <trkpt lat="49.88246" lon="2.35237">
        <ele>24.5</ele>
        <time>2023-10-06T13:07:48Z</time>
      </trkpt>
      <trkpt lat="49.88245" lon="2.35237">
        <ele>24.5</ele>
        <time>2023-10-06T13:07:49Z</time>
      </trkpt>
      <trkpt lat="49.88244" lon="2.35236">
        <ele>24.5</ele>
        <time>2023-10-06T13:07:50Z</time>
      </trkpt>
      <trkpt lat="49.88243" lon="2.35236">
        <ele>24.5</ele>
        <time>2023-10-06T13:07:51Z</time>
      </trkpt>
      <trkpt lat="49.88242" lon="2.35236">
        <ele>24.5</ele>
        <time>2023-10-06T13:07:52Z</time>
      </trkpt>
      <trkpt lat="49.8824" lon="2.35236">
        <ele>24.5</ele>
        <time>2023-10-06T13:07:53Z</time>
      </trkpt>
      <trkpt lat="49.88239" lon="2.35235">
        <ele>24.5</ele>
        <time>2023-10-06T13:07:54Z</time>
      </trkpt>
      <trkpt lat="49.88238" lon="2.35235">
        <ele>24.5</ele>
        <time>2023-10-06T13:07:55Z</time>
      </trkpt>
      <trkpt lat="49.88237" lon="2.35235">
        <ele>24.5</ele>
        <time>2023-10-06T13:07:56Z</time>
      </trkpt>
      <trkpt lat="49.88236" lon="2.35235">
        <ele>24.5</ele>
        <time>2023-10-06T13:07:57Z</time>
      </trkpt>
      <trkpt lat="49.88234" lon="2.35235">
        <ele>24.5</ele>
        <time>2023-10-06T13:07:58Z</time>
      </trkpt>
      <trkpt lat="49.88233" lon="2.35234">
        <ele>24.5</ele>
        <time>2023-10-06T13:07:59Z</time>
      </trkpt>
      <trkpt lat="49.88232" lon="2.35233">
        <ele>24.5</ele>
        <time>2023-10-06T13:08:00Z</time>
      </trkpt>
      <trkpt lat="49.88231" lon="2.35234">
        <ele>24.5</ele>
        <time>2023-10-06T13:08:01Z</time>
      </trkpt>
      <trkpt lat="49.8823" lon="2.35234">
        <ele>24.4</ele>
        <time>2023-10-06T13:08:02Z</time>
      </trkpt>
      <trkpt lat="49.8823" lon="2.35234">
        <ele>24.4</ele>
        <time>2023-10-06T13:08:03Z</time>
      </trkpt>
      <trkpt lat="49.88229" lon="2.35233">
        <ele>24.4</ele>
        <time>2023-10-06T13:08:04Z</time>
      </trkpt>
      <trkpt lat="49.88229" lon="2.35232">
        <ele>24.4</ele>
        <time>2023-10-06T13:08:05Z</time>
      </trkpt>
      <trkpt lat="49.88228" lon="2.35232">
        <ele>24.4</ele>
        <time>2023-10-06T13:08:06Z</time>
      </trkpt>
      <trkpt lat="49.88228" lon="2.35231">
        <ele>24.4</ele>
        <time>2023-10-06T13:08:07Z</time>
      </trkpt>
      <trkpt lat="49.88227" lon="2.35231">
        <ele>24.4</ele>
        <time>2023-10-06T13:08:08Z</time>
      </trkpt>
      <trkpt lat="49.88226" lon="2.35231">
        <ele>24.4</ele>
        <time>2023-10-06T13:08:09Z</time>
      </trkpt>
      <trkpt lat="49.88225" lon="2.35231">
        <ele>24.4</ele>
        <time>2023-10-06T13:08:10Z</time>
      </trkpt>
      <trkpt lat="49.88225" lon="2.35231">
        <ele>24.4</ele>
        <time>2023-10-06T13:08:11Z</time>
      </trkpt>
      <trkpt lat="49.88224" lon="2.35231">
        <ele>24.4</ele>
        <time>2023-10-06T13:08:12Z</time>
      </trkpt>
      <trkpt lat="49.88223" lon="2.35231">
        <ele>24.4</ele>
        <time>2023-10-06T13:08:13Z</time>
      </trkpt>
      <trkpt lat="49.88222" lon="2.35231">
        <ele>24.4</ele>
        <time>2023-10-06T13:08:14Z</time>
      </trkpt>
      <trkpt lat="49.8822" lon="2.35231">
        <ele>24.4</ele>
        <time>2023-10-06T13:08:15Z</time>
      </trkpt>
      <trkpt lat="49.88219" lon="2.35231">
        <ele>24.4</ele>
        <time>2023-10-06T13:08:16Z</time>
      </trkpt>
      <trkpt lat="49.88218" lon="2.35232">
        <ele>24.4</ele>
        <time>2023-10-06T13:08:17Z</time>
      </trkpt>
      <trkpt lat="49.88216" lon="2.35232">
        <ele>24.4</ele>
        <time>2023-10-06T13:08:18Z</time>
      </trkpt>
      <trkpt lat="49.88215" lon="2.35232">
        <ele>24.4</ele>
        <time>2023-10-06T13:08:19Z</time>
      </trkpt>
      <trkpt lat="49.88215" lon="2.35232">
        <ele>24.4</ele>
        <time>2023-10-06T13:08:20Z</time>
      </trkpt>
      <trkpt lat="49.88213" lon="2.35232">
        <ele>24.4</ele>
        <time>2023-10-06T13:08:21Z</time>
      </trkpt>
      <trkpt lat="49.88212" lon="2.35232">
        <ele>24.4</ele>
        <time>2023-10-06T13:08:22Z</time>
      </trkpt>
      <trkpt lat="49.88211" lon="2.35232">
        <ele>24.4</ele>
        <time>2023-10-06T13:08:23Z</time>
      </trkpt>
      <trkpt lat="49.88209" lon="2.35232">
        <ele>24.4</ele>
        <time>2023-10-06T13:08:24Z</time>
      </trkpt>
      <trkpt lat="49.88208" lon="2.35232">
        <ele>24.4</ele>
        <time>2023-10-06T13:08:25Z</time>
      </trkpt>
      <trkpt lat="49.88207" lon="2.35232">
        <ele>24.4</ele>
        <time>2023-10-06T13:08:26Z</time>
      </trkpt>
      <trkpt lat="49.88205" lon="2.35231">
        <ele>24.4</ele>
        <time>2023-10-06T13:08:27Z</time>
      </trkpt>
      <trkpt lat="49.88204" lon="2.35231">
        <ele>24.4</ele>
        <time>2023-10-06T13:08:28Z</time>
      </trkpt>
      <trkpt lat="49.88203" lon="2.35231">
        <ele>24.4</ele>
        <time>2023-10-06T13:08:29Z</time>
      </trkpt>
      <trkpt lat="49.88201" lon="2.35231">
        <ele>24.4</ele>
        <time>2023-10-06T13:08:30Z</time>
      </trkpt>
      <trkpt lat="49.882" lon="2.3523">
        <ele>24.4</ele>
        <time>2023-10-06T13:08:31Z</time>
      </trkpt>
      <trkpt lat="49.882" lon="2.3523">
        <ele>24.4</ele>
        <time>2023-10-06T13:08:32Z</time>
      </trkpt>
      <trkpt lat="49.88199" lon="2.3523">
        <ele>24.4</ele>
        <time>2023-10-06T13:08:33Z</time>
      </trkpt>
      <trkpt lat="49.88197" lon="2.35229">
        <ele>24.4</ele>
        <time>2023-10-06T13:08:34Z</time>
      </trkpt>
      <trkpt lat="49.88196" lon="2.35229">
        <ele>24.4</ele>
        <time>2023-10-06T13:08:35Z</time>
      </trkpt>
      <trkpt lat="49.88194" lon="2.35228">
        <ele>24.4</ele>
        <time>2023-10-06T13:08:36Z</time>
      </trkpt>
      <trkpt lat="49.88193" lon="2.35228">
        <ele>24.4</ele>
        <time>2023-10-06T13:08:37Z</time>
      </trkpt>
      <trkpt lat="49.88193" lon="2.35228">
        <ele>24.4</ele>
        <time>2023-10-06T13:08:38Z</time>
      </trkpt>
      <trkpt lat="49.88191" lon="2.35227">
        <ele>24.4</ele>
        <time>2023-10-06T13:08:39Z</time>
      </trkpt>
      <trkpt lat="49.8819" lon="2.35227">
        <ele>24.4</ele>
        <time>2023-10-06T13:08:40Z</time>
      </trkpt>
      <trkpt lat="49.88189" lon="2.35227">
        <ele>24.4</ele>
        <time>2023-10-06T13:08:41Z</time>
      </trkpt>
      <trkpt lat="49.88188" lon="2.35227">
        <ele>24.4</ele>
        <time>2023-10-06T13:08:42Z</time>
      </trkpt>
      <trkpt lat="49.88187" lon="2.35227">
        <ele>24.4</ele>
        <time>2023-10-06T13:08:43Z</time>
      </trkpt>
      <trkpt lat="49.88186" lon="2.35227">
        <ele>24.4</ele>
        <time>2023-10-06T13:08:44Z</time>
      </trkpt>
      <trkpt lat="49.88185" lon="2.35227">
        <ele>24.4</ele>
        <time>2023-10-06T13:08:45Z</time>
      </trkpt>
      <trkpt lat="49.88185" lon="2.35227">
        <ele>24.4</ele>
        <time>2023-10-06T13:08:46Z</time>
      </trkpt>
      <trkpt lat="49.88184" lon="2.35227">
        <ele>24.4</ele>
        <time>2023-10-06T13:08:47Z</time>
      </trkpt>
      <trkpt lat="49.88183" lon="2.35227">
        <ele>24.4</ele>
        <time>2023-10-06T13:08:48Z</time>
      </trkpt>
      <trkpt lat="49.88182" lon="2.35227">
        <ele>24.4</ele>
        <time>2023-10-06T13:08:49Z</time>
      </trkpt>
      <trkpt lat="49.88181" lon="2.35227">
        <ele>24.4</ele>
        <time>2023-10-06T13:08:50Z</time>
      </trkpt>
      <trkpt lat="49.8818" lon="2.35226">
        <ele>24.4</ele>
        <time>2023-10-06T13:08:51Z</time>
      </trkpt>
      <trkpt lat="49.88179" lon="2.35226">
        <ele>24.4</ele>
        <time>2023-10-06T13:08:52Z</time>
      </trkpt>
      <trkpt lat="49.88178" lon="2.35226">
        <ele>24.4</ele>
        <time>2023-10-06T13:08:53Z</time>
      </trkpt>
      <trkpt lat="49.88177" lon="2.35226">
        <ele>24.4</ele>
        <time>2023-10-06T13:08:54Z</time>
      </trkpt>
      <trkpt lat="49.88176" lon="2.35226">
        <ele>24.4</ele>
        <time>2023-10-06T13:08:55Z</time>
      </trkpt>
      <trkpt lat="49.88175" lon="2.35226">
        <ele>24.4</ele>
        <time>2023-10-06T13:08:56Z</time>
      </trkpt>
      <trkpt lat="49.88174" lon="2.35226">
        <ele>24.4</ele>
        <time>2023-10-06T13:08:57Z</time>
      </trkpt>
      <trkpt lat="49.88173" lon="2.35226">
        <ele>24.4</ele>
        <time>2023-10-06T13:08:58Z</time>
      </trkpt>
      <trkpt lat="49.88173" lon="2.35226">
        <ele>24.4</ele>
        <time>2023-10-06T13:08:59Z</time>
      </trkpt>
      <trkpt lat="49.88172" lon="2.35226">
        <ele>24.4</ele>
        <time>2023-10-06T13:09:00Z</time>
      </trkpt>
      <trkpt lat="49.88171" lon="2.35226">
        <ele>24.4</ele>
        <time>2023-10-06T13:09:01Z</time>
      </trkpt>
      <trkpt lat="49.8817" lon="2.35226">
        <ele>24.4</ele>
        <time>2023-10-06T13:09:02Z</time>
      </trkpt>
      <trkpt lat="49.88169" lon="2.35226">
        <ele>24.4</ele>
        <time>2023-10-06T13:09:03Z</time>
      </trkpt>
      <trkpt lat="49.88168" lon="2.35226">
        <ele>24.4</ele>
        <time>2023-10-06T13:09:04Z</time>
      </trkpt>
      <trkpt lat="49.88168" lon="2.35226">
        <ele>24.4</ele>
        <time>2023-10-06T13:09:05Z</time>
      </trkpt>
      <trkpt lat="49.88166" lon="2.35226">
        <ele>24.4</ele>
        <time>2023-10-06T13:09:06Z</time>
      </trkpt>
      <trkpt lat="49.88165" lon="2.35226">
        <ele>24.4</ele>
        <time>2023-10-06T13:09:07Z</time>
      </trkpt>
      <trkpt lat="49.88164" lon="2.35226">
        <ele>24.4</ele>
        <time>2023-10-06T13:09:08Z</time>
      </trkpt>
      <trkpt lat="49.88162" lon="2.35226">
        <ele>24.4</ele>
        <time>2023-10-06T13:09:09Z</time>
      </trkpt>
      <trkpt lat="49.88161" lon="2.35227">
        <ele>24.4</ele>
        <time>2023-10-06T13:09:10Z</time>
      </trkpt>
      <trkpt lat="49.8816" lon="2.35227">
        <ele>24.4</ele>
        <time>2023-10-06T13:09:11Z</time>
      </trkpt>
      <trkpt lat="49.88158" lon="2.35227">
        <ele>24.4</ele>
        <time>2023-10-06T13:09:12Z</time>
      </trkpt>
      <trkpt lat="49.88157" lon="2.35227">
        <ele>24.4</ele>
        <time>2023-10-06T13:09:13Z</time>
      </trkpt>
      <trkpt lat="49.88156" lon="2.35227">
        <ele>24.4</ele>
        <time>2023-10-06T13:09:14Z</time>
      </trkpt>
      <trkpt lat="49.88154" lon="2.35226">
        <ele>24.4</ele>
        <time>2023-10-06T13:09:15Z</time>
      </trkpt>
      <trkpt lat="49.88154" lon="2.35226">
        <ele>24.4</ele>
        <time>2023-10-06T13:09:16Z</time>
      </trkpt>
      <trkpt lat="49.88153" lon="2.35226">
        <ele>24.4</ele>
        <time>2023-10-06T13:09:17Z</time>
      </trkpt>
      <trkpt lat="49.88152" lon="2.35226">
        <ele>24.4</ele>
        <time>2023-10-06T13:09:18Z</time>
      </trkpt>
      <trkpt lat="49.8815" lon="2.35226">
        <ele>24.4</ele>
        <time>2023-10-06T13:09:19Z</time>
      </trkpt>
      <trkpt lat="49.88149" lon="2.35226">
        <ele>24.4</ele>
        <time>2023-10-06T13:09:20Z</time>
      </trkpt>
      <trkpt lat="49.88148" lon="2.35226">
        <ele>24.4</ele>
        <time>2023-10-06T13:09:21Z</time>
      </trkpt>
      <trkpt lat="49.88147" lon="2.35226">
        <ele>24.4</ele>
        <time>2023-10-06T13:09:22Z</time>
      </trkpt>
      <trkpt lat="49.88146" lon="2.35226">
        <ele>24.4</ele>
        <time>2023-10-06T13:09:23Z</time>
      </trkpt>
      <trkpt lat="49.88145" lon="2.35226">
        <ele>24.4</ele>
        <time>2023-10-06T13:09:24Z</time>
      </trkpt>
      <trkpt lat="49.88144" lon="2.35225">
        <ele>24.3</ele>
        <time>2023-10-06T13:09:25Z</time>
      </trkpt>
      <trkpt lat="49.88143" lon="2.35225">
        <ele>24.3</ele>
        <time>2023-10-06T13:09:26Z</time>
      </trkpt>
      <trkpt lat="49.8814" lon="2.35224">
        <ele>24.3</ele>
        <time>2023-10-06T13:09:27Z</time>
      </trkpt>
      <trkpt lat="49.8814" lon="2.35224">
        <ele>24.3</ele>
        <time>2023-10-06T13:09:28Z</time>
      </trkpt>
      <trkpt lat="49.88139" lon="2.35224">
        <ele>24.3</ele>
        <time>2023-10-06T13:09:29Z</time>
      </trkpt>
      <trkpt lat="49.88137" lon="2.35224">
        <ele>24.3</ele>
        <time>2023-10-06T13:09:30Z</time>
      </trkpt>
      <trkpt lat="49.88136" lon="2.35224">
        <ele>24.3</ele>
        <time>2023-10-06T13:09:31Z</time>
      </trkpt>
      <trkpt lat="49.88135" lon="2.35224">
        <ele>24.3</ele>
        <time>2023-10-06T13:09:32Z</time>
      </trkpt>
      <trkpt lat="49.88134" lon="2.35223">
        <ele>24.3</ele>
        <time>2023-10-06T13:09:33Z</time>
      </trkpt>
      <trkpt lat="49.88133" lon="2.35223">
        <ele>24.3</ele>
        <time>2023-10-06T13:09:34Z</time>
      </trkpt>
      <trkpt lat="49.88132" lon="2.35223">
        <ele>24.3</ele>
        <time>2023-10-06T13:09:35Z</time>
      </trkpt>
      <trkpt lat="49.88131" lon="2.35223">
        <ele>24.3</ele>
        <time>2023-10-06T13:09:36Z</time>
      </trkpt>
      <trkpt lat="49.8813" lon="2.35223">
        <ele>24.3</ele>
        <time>2023-10-06T13:09:37Z</time>
      </trkpt>
      <trkpt lat="49.88128" lon="2.35222">
        <ele>24.3</ele>
        <time>2023-10-06T13:09:38Z</time>
      </trkpt>
      <trkpt lat="49.88126" lon="2.35222">
        <ele>24.3</ele>
        <time>2023-10-06T13:09:39Z</time>
      </trkpt>
      <trkpt lat="49.88126" lon="2.35222">
        <ele>24.3</ele>
        <time>2023-10-06T13:09:40Z</time>
      </trkpt>
      <trkpt lat="49.88125" lon="2.35222">
        <ele>24.3</ele>
        <time>2023-10-06T13:09:41Z</time>
      </trkpt>
      <trkpt lat="49.88123" lon="2.35222">
        <ele>24.3</ele>
        <time>2023-10-06T13:09:42Z</time>
      </trkpt>
      <trkpt lat="49.88122" lon="2.35221">
        <ele>24.3</ele>
        <time>2023-10-06T13:09:43Z</time>
      </trkpt>
      <trkpt lat="49.88121" lon="2.35221">
        <ele>24.3</ele>
        <time>2023-10-06T13:09:44Z</time>
      </trkpt>
      <trkpt lat="49.8812" lon="2.35221">
        <ele>24.3</ele>
        <time>2023-10-06T13:09:45Z</time>
      </trkpt>
      <trkpt lat="49.88119" lon="2.35221">
        <ele>24.3</ele>
        <time>2023-10-06T13:09:46Z</time>
      </trkpt>
      <trkpt lat="49.88118" lon="2.35221">
        <ele>24.3</ele>
        <time>2023-10-06T13:09:47Z</time>
      </trkpt>
      <trkpt lat="49.88117" lon="2.3522">
        <ele>24.3</ele>
        <time>2023-10-06T13:09:48Z</time>
      </trkpt>
      <trkpt lat="49.88116" lon="2.3522">
        <ele>24.3</ele>
        <time>2023-10-06T13:09:49Z</time>
      </trkpt>
      <trkpt lat="49.88115" lon="2.3522">
        <ele>24.3</ele>
        <time>2023-10-06T13:09:50Z</time>
      </trkpt>
      <trkpt lat="49.88114" lon="2.35219">
        <ele>24.3</ele>
        <time>2023-10-06T13:09:51Z</time>
      </trkpt>
      <trkpt lat="49.88113" lon="2.35219">
        <ele>24.3</ele>
        <time>2023-10-06T13:09:52Z</time>
      </trkpt>
      <trkpt lat="49.88111" lon="2.35219">
        <ele>24.3</ele>
        <time>2023-10-06T13:09:53Z</time>
      </trkpt>
      <trkpt lat="49.88109" lon="2.35218">
        <ele>24.3</ele>
        <time>2023-10-06T13:09:54Z</time>
      </trkpt>
      <trkpt lat="49.88109" lon="2.35217">
        <ele>24.3</ele>
        <time>2023-10-06T13:09:55Z</time>
      </trkpt>
      <trkpt lat="49.88108" lon="2.35217">
        <ele>24.3</ele>
        <time>2023-10-06T13:09:56Z</time>
      </trkpt>
      <trkpt lat="49.88106" lon="2.35216">
        <ele>24.3</ele>
        <time>2023-10-06T13:09:57Z</time>
      </trkpt>
      <trkpt lat="49.88105" lon="2.35216">
        <ele>24.3</ele>
        <time>2023-10-06T13:09:58Z</time>
      </trkpt>
      <trkpt lat="49.88104" lon="2.35216">
        <ele>24.3</ele>
        <time>2023-10-06T13:09:59Z</time>
      </trkpt>
      <trkpt lat="49.88102" lon="2.35215">
        <ele>24.3</ele>
        <time>2023-10-06T13:10:00Z</time>
      </trkpt>
      <trkpt lat="49.88101" lon="2.35215">
        <ele>24.3</ele>
        <time>2023-10-06T13:10:01Z</time>
      </trkpt>
      <trkpt lat="49.881" lon="2.35214">
        <ele>24.3</ele>
        <time>2023-10-06T13:10:02Z</time>
      </trkpt>
      <trkpt lat="49.88099" lon="2.35214">
        <ele>24.3</ele>
        <time>2023-10-06T13:10:03Z</time>
      </trkpt>
      <trkpt lat="49.88098" lon="2.35214">
        <ele>24.3</ele>
        <time>2023-10-06T13:10:04Z</time>
      </trkpt>
      <trkpt lat="49.88097" lon="2.35213">
        <ele>24.4</ele>
        <time>2023-10-06T13:10:05Z</time>
      </trkpt>
      <trkpt lat="49.88095" lon="2.35213">
        <ele>24.4</ele>
        <time>2023-10-06T13:10:06Z</time>
      </trkpt>
      <trkpt lat="49.88094" lon="2.35213">
        <ele>24.4</ele>
        <time>2023-10-06T13:10:07Z</time>
      </trkpt>
      <trkpt lat="49.88093" lon="2.35212">
        <ele>24.4</ele>
        <time>2023-10-06T13:10:08Z</time>
      </trkpt>
      <trkpt lat="49.88091" lon="2.35212">
        <ele>24.4</ele>
        <time>2023-10-06T13:10:09Z</time>
      </trkpt>
      <trkpt lat="49.8809" lon="2.35211">
        <ele>24.4</ele>
        <time>2023-10-06T13:10:10Z</time>
      </trkpt>
      <trkpt lat="49.88089" lon="2.35211">
        <ele>24.4</ele>
        <time>2023-10-06T13:10:11Z</time>
      </trkpt>
      <trkpt lat="49.88087" lon="2.35211">
        <ele>24.4</ele>
        <time>2023-10-06T13:10:12Z</time>
      </trkpt>
      <trkpt lat="49.88086" lon="2.3521">
        <ele>24.4</ele>
        <time>2023-10-06T13:10:13Z</time>
      </trkpt>
      <trkpt lat="49.88085" lon="2.3521">
        <ele>24.4</ele>
        <time>2023-10-06T13:10:14Z</time>
      </trkpt>
      <trkpt lat="49.88083" lon="2.3521">
        <ele>24.4</ele>
        <time>2023-10-06T13:10:15Z</time>
      </trkpt>
      <trkpt lat="49.88083" lon="2.35209">
        <ele>24.4</ele>
        <time>2023-10-06T13:10:16Z</time>
      </trkpt>
      <trkpt lat="49.88082" lon="2.35209">
        <ele>24.4</ele>
        <time>2023-10-06T13:10:17Z</time>
      </trkpt>
      <trkpt lat="49.88081" lon="2.35209">
        <ele>24.4</ele>
        <time>2023-10-06T13:10:18Z</time>
      </trkpt>
      <trkpt lat="49.8808" lon="2.35209">
        <ele>24.4</ele>
        <time>2023-10-06T13:10:19Z</time>
      </trkpt>
      <trkpt lat="49.88079" lon="2.35209">
        <ele>24.4</ele>
        <time>2023-10-06T13:10:20Z</time>
      </trkpt>
      <trkpt lat="49.88078" lon="2.35209">
        <ele>24.4</ele>
        <time>2023-10-06T13:10:21Z</time>
      </trkpt>
      <trkpt lat="49.88077" lon="2.35209">
        <ele>24.4</ele>
        <time>2023-10-06T13:10:22Z</time>
      </trkpt>
      <trkpt lat="49.88075" lon="2.35209">
        <ele>24.4</ele>
        <time>2023-10-06T13:10:23Z</time>
      </trkpt>
      <trkpt lat="49.88074" lon="2.35208">
        <ele>24.4</ele>
        <time>2023-10-06T13:10:24Z</time>
      </trkpt>
      <trkpt lat="49.88073" lon="2.35208">
        <ele>24.4</ele>
        <time>2023-10-06T13:10:25Z</time>
      </trkpt>
      <trkpt lat="49.88072" lon="2.35208">
        <ele>24.4</ele>
        <time>2023-10-06T13:10:26Z</time>
      </trkpt>
      <trkpt lat="49.88071" lon="2.35208">
        <ele>24.4</ele>
        <time>2023-10-06T13:10:27Z</time>
      </trkpt>
      <trkpt lat="49.8807" lon="2.35208">
        <ele>24.4</ele>
        <time>2023-10-06T13:10:28Z</time>
      </trkpt>
      <trkpt lat="49.88069" lon="2.35208">
        <ele>24.5</ele>
        <time>2023-10-06T13:10:29Z</time>
      </trkpt>
      <trkpt lat="49.88068" lon="2.35208">
        <ele>24.5</ele>
        <time>2023-10-06T13:10:30Z</time>
      </trkpt>
      <trkpt lat="49.88067" lon="2.35207">
        <ele>24.5</ele>
        <time>2023-10-06T13:10:31Z</time>
      </trkpt>
      <trkpt lat="49.88066" lon="2.35207">
        <ele>24.5</ele>
        <time>2023-10-06T13:10:32Z</time>
      </trkpt>
      <trkpt lat="49.88065" lon="2.35207">
        <ele>24.5</ele>
        <time>2023-10-06T13:10:33Z</time>
      </trkpt>
      <trkpt lat="49.88064" lon="2.35207">
        <ele>24.5</ele>
        <time>2023-10-06T13:10:34Z</time>
      </trkpt>
      <trkpt lat="49.88063" lon="2.35207">
        <ele>24.5</ele>
        <time>2023-10-06T13:10:35Z</time>
      </trkpt>
      <trkpt lat="49.88062" lon="2.35207">
        <ele>24.5</ele>
        <time>2023-10-06T13:10:36Z</time>
      </trkpt>
      <trkpt lat="49.8806" lon="2.35207">
        <ele>24.5</ele>
        <time>2023-10-06T13:10:37Z</time>
      </trkpt>
      <trkpt lat="49.88059" lon="2.35207">
        <ele>24.5</ele>
        <time>2023-10-06T13:10:38Z</time>
      </trkpt>
      <trkpt lat="49.88058" lon="2.35207">
        <ele>24.5</ele>
        <time>2023-10-06T13:10:39Z</time>
      </trkpt>
      <trkpt lat="49.88057" lon="2.35207">
        <ele>24.5</ele>
        <time>2023-10-06T13:10:40Z</time>
      </trkpt>
      <trkpt lat="49.88056" lon="2.35207">
        <ele>24.5</ele>
        <time>2023-10-06T13:10:41Z</time>
      </trkpt>
      <trkpt lat="49.88055" lon="2.35207">
        <ele>24.5</ele>
        <time>2023-10-06T13:10:42Z</time>
      </trkpt>
      <trkpt lat="49.88054" lon="2.35207">
        <ele>24.5</ele>
        <time>2023-10-06T13:10:43Z</time>
      </trkpt>
      <trkpt lat="49.88053" lon="2.35207">
        <ele>24.5</ele>
        <time>2023-10-06T13:10:44Z</time>
      </trkpt>
      <trkpt lat="49.88052" lon="2.35207">
        <ele>24.5</ele>
        <time>2023-10-06T13:10:45Z</time>
      </trkpt>
      <trkpt lat="49.88051" lon="2.35207">
        <ele>24.5</ele>
        <time>2023-10-06T13:10:46Z</time>
      </trkpt>
      <trkpt lat="49.8805" lon="2.35207">
        <ele>24.5</ele>
        <time>2023-10-06T13:10:47Z</time>
      </trkpt>
      <trkpt lat="49.88049" lon="2.35208">
        <ele>24.6</ele>
        <time>2023-10-06T13:10:48Z</time>
      </trkpt>
      <trkpt lat="49.88048" lon="2.35208">
        <ele>24.6</ele>
        <time>2023-10-06T13:10:49Z</time>
      </trkpt>
      <trkpt lat="49.88048" lon="2.35208">
        <ele>24.6</ele>
        <time>2023-10-06T13:10:50Z</time>
      </trkpt>
      <trkpt lat="49.88047" lon="2.35208">
        <ele>24.6</ele>
        <time>2023-10-06T13:10:51Z</time>
      </trkpt>
      <trkpt lat="49.88046" lon="2.35208">
        <ele>24.6</ele>
        <time>2023-10-06T13:10:52Z</time>
      </trkpt>
      <trkpt lat="49.88045" lon="2.35209">
        <ele>24.6</ele>
        <time>2023-10-06T13:10:53Z</time>
      </trkpt>
      <trkpt lat="49.88044" lon="2.35209">
        <ele>24.6</ele>
        <time>2023-10-06T13:10:54Z</time>
      </trkpt>
      <trkpt lat="49.88043" lon="2.35209">
        <ele>24.6</ele>
        <time>2023-10-06T13:10:55Z</time>
      </trkpt>
      <trkpt lat="49.88043" lon="2.35209">
        <ele>24.6</ele>
        <time>2023-10-06T13:10:56Z</time>
      </trkpt>
      <trkpt lat="49.88042" lon="2.35209">
        <ele>24.6</ele>
        <time>2023-10-06T13:10:57Z</time>
      </trkpt>
      <trkpt lat="49.88041" lon="2.35209">
        <ele>24.6</ele>
        <time>2023-10-06T13:10:58Z</time>
      </trkpt>
      <trkpt lat="49.8804" lon="2.3521">
        <ele>24.6</ele>
        <time>2023-10-06T13:10:59Z</time>
      </trkpt>
      <trkpt lat="49.88039" lon="2.3521">
        <ele>24.6</ele>
        <time>2023-10-06T13:11:00Z</time>
      </trkpt>
      <trkpt lat="49.88038" lon="2.3521">
        <ele>24.6</ele>
        <time>2023-10-06T13:11:01Z</time>
      </trkpt>
      <trkpt lat="49.88037" lon="2.3521">
        <ele>24.6</ele>
        <time>2023-10-06T13:11:02Z</time>
      </trkpt>
      <trkpt lat="49.88036" lon="2.3521">
        <ele>24.6</ele>
        <time>2023-10-06T13:11:03Z</time>
      </trkpt>
      <trkpt lat="49.88035" lon="2.3521">
        <ele>24.6</ele>
        <time>2023-10-06T13:11:04Z</time>
      </trkpt>
      <trkpt lat="49.88034" lon="2.35209">
        <ele>24.6</ele>
        <time>2023-10-06T13:11:05Z</time>
      </trkpt>
      <trkpt lat="49.88033" lon="2.35209">
        <ele>24.6</ele>
        <time>2023-10-06T13:11:06Z</time>
      </trkpt>
      <trkpt lat="49.88031" lon="2.35209">
        <ele>24.6</ele>
        <time>2023-10-06T13:11:07Z</time>
      </trkpt>
      <trkpt lat="49.8803" lon="2.35209">
        <ele>24.6</ele>
        <time>2023-10-06T13:11:08Z</time>
      </trkpt>
      <trkpt lat="49.88029" lon="2.35209">
        <ele>24.6</ele>
        <time>2023-10-06T13:11:09Z</time>
      </trkpt>
      <trkpt lat="49.88027" lon="2.35209">
        <ele>24.6</ele>
        <time>2023-10-06T13:11:10Z</time>
      </trkpt>
      <trkpt lat="49.88026" lon="2.35209">
        <ele>24.6</ele>
        <time>2023-10-06T13:11:11Z</time>
      </trkpt>
      <trkpt lat="49.88025" lon="2.35209">
        <ele>24.6</ele>
        <time>2023-10-06T13:11:12Z</time>
      </trkpt>
      <trkpt lat="49.88024" lon="2.35208">
        <ele>24.6</ele>
        <time>2023-10-06T13:11:13Z</time>
      </trkpt>
      <trkpt lat="49.88023" lon="2.35208">
        <ele>24.6</ele>
        <time>2023-10-06T13:11:14Z</time>
      </trkpt>
      <trkpt lat="49.88022" lon="2.35208">
        <ele>24.6</ele>
        <time>2023-10-06T13:11:15Z</time>
      </trkpt>
      <trkpt lat="49.88021" lon="2.35208">
        <ele>24.6</ele>
        <time>2023-10-06T13:11:16Z</time>
      </trkpt>
      <trkpt lat="49.8802" lon="2.35207">
        <ele>24.6</ele>
        <time>2023-10-06T13:11:17Z</time>
      </trkpt>
      <trkpt lat="49.88018" lon="2.35207">
        <ele>24.7</ele>
        <time>2023-10-06T13:11:18Z</time>
      </trkpt>
      <trkpt lat="49.88016" lon="2.35206">
        <ele>24.7</ele>
        <time>2023-10-06T13:11:19Z</time>
      </trkpt>
      <trkpt lat="49.88016" lon="2.35206">
        <ele>24.7</ele>
        <time>2023-10-06T13:11:20Z</time>
      </trkpt>
      <trkpt lat="49.88015" lon="2.35206">
        <ele>24.7</ele>
        <time>2023-10-06T13:11:21Z</time>
      </trkpt>
      <trkpt lat="49.88013" lon="2.35205">
        <ele>24.7</ele>
        <time>2023-10-06T13:11:22Z</time>
      </trkpt>
      <trkpt lat="49.88012" lon="2.35205">
        <ele>24.7</ele>
        <time>2023-10-06T13:11:23Z</time>
      </trkpt>
      <trkpt lat="49.88011" lon="2.35205">
        <ele>24.7</ele>
        <time>2023-10-06T13:11:24Z</time>
      </trkpt>
      <trkpt lat="49.8801" lon="2.35204">
        <ele>24.7</ele>
        <time>2023-10-06T13:11:25Z</time>
      </trkpt>
      <trkpt lat="49.88009" lon="2.35204">
        <ele>24.7</ele>
        <time>2023-10-06T13:11:26Z</time>
      </trkpt>
      <trkpt lat="49.88007" lon="2.35204">
        <ele>24.7</ele>
        <time>2023-10-06T13:11:27Z</time>
      </trkpt>
      <trkpt lat="49.88006" lon="2.35203">
        <ele>24.7</ele>
        <time>2023-10-06T13:11:28Z</time>
      </trkpt>
      <trkpt lat="49.88005" lon="2.35203">
        <ele>24.7</ele>
        <time>2023-10-06T13:11:29Z</time>
      </trkpt>
      <trkpt lat="49.88004" lon="2.35203">
        <ele>24.7</ele>
        <time>2023-10-06T13:11:30Z</time>
      </trkpt>
      <trkpt lat="49.88003" lon="2.35202">
        <ele>24.7</ele>
        <time>2023-10-06T13:11:31Z</time>
      </trkpt>
      <trkpt lat="49.88001" lon="2.35202">
        <ele>24.7</ele>
        <time>2023-10-06T13:11:32Z</time>
      </trkpt>
      <trkpt lat="49.88" lon="2.35202">
        <ele>24.7</ele>
        <time>2023-10-06T13:11:33Z</time>
      </trkpt>
      <trkpt lat="49.87998" lon="2.35201">
        <ele>24.7</ele>
        <time>2023-10-06T13:11:34Z</time>
      </trkpt>
      <trkpt lat="49.87996" lon="2.35201">
        <ele>24.7</ele>
        <time>2023-10-06T13:11:35Z</time>
      </trkpt>
      <trkpt lat="49.87995" lon="2.35201">
        <ele>24.7</ele>
        <time>2023-10-06T13:11:36Z</time>
      </trkpt>
      <trkpt lat="49.87995" lon="2.35201">
        <ele>24.7</ele>
        <time>2023-10-06T13:11:37Z</time>
      </trkpt>
      <trkpt lat="49.87992" lon="2.352">
        <ele>24.7</ele>
        <time>2023-10-06T13:11:38Z</time>
      </trkpt>
      <trkpt lat="49.87992" lon="2.352">
        <ele>24.7</ele>
        <time>2023-10-06T13:11:39Z</time>
      </trkpt>
      <trkpt lat="49.87991" lon="2.352">
        <ele>24.7</ele>
        <time>2023-10-06T13:11:40Z</time>
      </trkpt>
      <trkpt lat="49.87989" lon="2.352">
        <ele>24.7</ele>
        <time>2023-10-06T13:11:41Z</time>
      </trkpt>
      <trkpt lat="49.87988" lon="2.352">
        <ele>24.7</ele>
        <time>2023-10-06T13:11:42Z</time>
      </trkpt>
      <trkpt lat="49.87987" lon="2.352">
        <ele>24.7</ele>
        <time>2023-10-06T13:11:43Z</time>
      </trkpt>
      <trkpt lat="49.87985" lon="2.35199">
        <ele>24.7</ele>
        <time>2023-10-06T13:11:44Z</time>
      </trkpt>
      <trkpt lat="49.87984" lon="2.35199">
        <ele>24.7</ele>
        <time>2023-10-06T13:11:45Z</time>
      </trkpt>
      <trkpt lat="49.87983" lon="2.35199">
        <ele>24.7</ele>
        <time>2023-10-06T13:11:46Z</time>
      </trkpt>
      <trkpt lat="49.87982" lon="2.35198">
        <ele>24.7</ele>
        <time>2023-10-06T13:11:47Z</time>
      </trkpt>
      <trkpt lat="49.87981" lon="2.35198">
        <ele>24.7</ele>
        <time>2023-10-06T13:11:48Z</time>
      </trkpt>
      <trkpt lat="49.8798" lon="2.35198">
        <ele>24.6</ele>
        <time>2023-10-06T13:11:49Z</time>
      </trkpt>
      <trkpt lat="49.87979" lon="2.35198">
        <ele>24.6</ele>
        <time>2023-10-06T13:11:50Z</time>
      </trkpt>
      <trkpt lat="49.87978" lon="2.35198">
        <ele>24.6</ele>
        <time>2023-10-06T13:11:51Z</time>
      </trkpt>
      <trkpt lat="49.87976" lon="2.35198">
        <ele>24.6</ele>
        <time>2023-10-06T13:11:52Z</time>
      </trkpt>
      <trkpt lat="49.87975" lon="2.35197">
        <ele>24.6</ele>
        <time>2023-10-06T13:11:53Z</time>
      </trkpt>
      <trkpt lat="49.87974" lon="2.35197">
        <ele>24.6</ele>
        <time>2023-10-06T13:11:54Z</time>
      </trkpt>
      <trkpt lat="49.87973" lon="2.35197">
        <ele>24.6</ele>
        <time>2023-10-06T13:11:55Z</time>
      </trkpt>
      <trkpt lat="49.87972" lon="2.35197">
        <ele>24.6</ele>
        <time>2023-10-06T13:11:56Z</time>
      </trkpt>
      <trkpt lat="49.87971" lon="2.35197">
        <ele>24.6</ele>
        <time>2023-10-06T13:11:57Z</time>
      </trkpt>
      <trkpt lat="49.8797" lon="2.35197">
        <ele>24.6</ele>
        <time>2023-10-06T13:11:58Z</time>
      </trkpt>
      <trkpt lat="49.87969" lon="2.35197">
        <ele>24.6</ele>
        <time>2023-10-06T13:11:59Z</time>
      </trkpt>
      <trkpt lat="49.87968" lon="2.35197">
        <ele>24.6</ele>
        <time>2023-10-06T13:12:00Z</time>
      </trkpt>
      <trkpt lat="49.87967" lon="2.35197">
        <ele>24.7</ele>
        <time>2023-10-06T13:12:01Z</time>
      </trkpt>
      <trkpt lat="49.87966" lon="2.35197">
        <ele>24.7</ele>
        <time>2023-10-06T13:12:02Z</time>
      </trkpt>
      <trkpt lat="49.87965" lon="2.35197">
        <ele>24.7</ele>
        <time>2023-10-06T13:12:03Z</time>
      </trkpt>
      <trkpt lat="49.87964" lon="2.35197">
        <ele>24.7</ele>
        <time>2023-10-06T13:12:04Z</time>
      </trkpt>
      <trkpt lat="49.87963" lon="2.35196">
        <ele>24.7</ele>
        <time>2023-10-06T13:12:05Z</time>
      </trkpt>
      <trkpt lat="49.87962" lon="2.35196">
        <ele>24.7</ele>
        <time>2023-10-06T13:12:06Z</time>
      </trkpt>
      <trkpt lat="49.87961" lon="2.35196">
        <ele>24.7</ele>
        <time>2023-10-06T13:12:07Z</time>
      </trkpt>
      <trkpt lat="49.8796" lon="2.35196">
        <ele>24.7</ele>
        <time>2023-10-06T13:12:08Z</time>
      </trkpt>
      <trkpt lat="49.87959" lon="2.35196">
        <ele>24.7</ele>
        <time>2023-10-06T13:12:09Z</time>
      </trkpt>
      <trkpt lat="49.87958" lon="2.35196">
        <ele>24.7</ele>
        <time>2023-10-06T13:12:10Z</time>
      </trkpt>
      <trkpt lat="49.87957" lon="2.35195">
        <ele>24.7</ele>
        <time>2023-10-06T13:12:11Z</time>
      </trkpt>
      <trkpt lat="49.87956" lon="2.35195">
        <ele>24.7</ele>
        <time>2023-10-06T13:12:12Z</time>
      </trkpt>
      <trkpt lat="49.87955" lon="2.35195">
        <ele>24.7</ele>
        <time>2023-10-06T13:12:13Z</time>
      </trkpt>
      <trkpt lat="49.87954" lon="2.35195">
        <ele>24.7</ele>
        <time>2023-10-06T13:12:14Z</time>
      </trkpt>
      <trkpt lat="49.87953" lon="2.35195">
        <ele>24.7</ele>
        <time>2023-10-06T13:12:15Z</time>
      </trkpt>
      <trkpt lat="49.87952" lon="2.35194">
        <ele>24.7</ele>
        <time>2023-10-06T13:12:16Z</time>
      </trkpt>
      <trkpt lat="49.87951" lon="2.35194">
        <ele>24.7</ele>
        <time>2023-10-06T13:12:17Z</time>
      </trkpt>
      <trkpt lat="49.8795" lon="2.35194">
        <ele>24.7</ele>
        <time>2023-10-06T13:12:18Z</time>
      </trkpt>
      <trkpt lat="49.87949" lon="2.35193">
        <ele>24.7</ele>
        <time>2023-10-06T13:12:19Z</time>
      </trkpt>
      <trkpt lat="49.87948" lon="2.35193">
        <ele>24.7</ele>
        <time>2023-10-06T13:12:20Z</time>
      </trkpt>
      <trkpt lat="49.87947" lon="2.35193">
        <ele>24.7</ele>
        <time>2023-10-06T13:12:21Z</time>
      </trkpt>
      <trkpt lat="49.87946" lon="2.35192">
        <ele>24.7</ele>
        <time>2023-10-06T13:12:22Z</time>
      </trkpt>
      <trkpt lat="49.87945" lon="2.35192">
        <ele>24.7</ele>
        <time>2023-10-06T13:12:23Z</time>
      </trkpt>
      <trkpt lat="49.87943" lon="2.35192">
        <ele>24.7</ele>
        <time>2023-10-06T13:12:24Z</time>
      </trkpt>
      <trkpt lat="49.87942" lon="2.35191">
        <ele>24.7</ele>
        <time>2023-10-06T13:12:25Z</time>
      </trkpt>
      <trkpt lat="49.87941" lon="2.35191">
        <ele>24.7</ele>
        <time>2023-10-06T13:12:26Z</time>
      </trkpt>
      <trkpt lat="49.8794" lon="2.35191">
        <ele>24.7</ele>
        <time>2023-10-06T13:12:27Z</time>
      </trkpt>
      <trkpt lat="49.87939" lon="2.35191">
        <ele>24.7</ele>
        <time>2023-10-06T13:12:28Z</time>
      </trkpt>
      <trkpt lat="49.87937" lon="2.3519">
        <ele>24.7</ele>
        <time>2023-10-06T13:12:29Z</time>
      </trkpt>
      <trkpt lat="49.87936" lon="2.3519">
        <ele>24.7</ele>
        <time>2023-10-06T13:12:30Z</time>
      </trkpt>
      <trkpt lat="49.87935" lon="2.3519">
        <ele>24.7</ele>
        <time>2023-10-06T13:12:31Z</time>
      </trkpt>
      <trkpt lat="49.87933" lon="2.3519">
        <ele>24.7</ele>
        <time>2023-10-06T13:12:32Z</time>
      </trkpt>
      <trkpt lat="49.87932" lon="2.3519">
        <ele>24.7</ele>
        <time>2023-10-06T13:12:33Z</time>
      </trkpt>
      <trkpt lat="49.87932" lon="2.35189">
        <ele>24.7</ele>
        <time>2023-10-06T13:12:34Z</time>
      </trkpt>
      <trkpt lat="49.8793" lon="2.35189">
        <ele>24.7</ele>
        <time>2023-10-06T13:12:35Z</time>
      </trkpt>
      <trkpt lat="49.87929" lon="2.35189">
        <ele>24.7</ele>
        <time>2023-10-06T13:12:36Z</time>
      </trkpt>
      <trkpt lat="49.87928" lon="2.35189">
        <ele>24.7</ele>
        <time>2023-10-06T13:12:37Z</time>
      </trkpt>
      <trkpt lat="49.87927" lon="2.35189">
        <ele>24.7</ele>
        <time>2023-10-06T13:12:38Z</time>
      </trkpt>
      <trkpt lat="49.87926" lon="2.35188">
        <ele>24.7</ele>
        <time>2023-10-06T13:12:39Z</time>
      </trkpt>
      <trkpt lat="49.87925" lon="2.35188">
        <ele>24.7</ele>
        <time>2023-10-06T13:12:40Z</time>
      </trkpt>
      <trkpt lat="49.87923" lon="2.35188">
        <ele>24.7</ele>
        <time>2023-10-06T13:12:41Z</time>
      </trkpt>
      <trkpt lat="49.87922" lon="2.35188">
        <ele>24.7</ele>
        <time>2023-10-06T13:12:42Z</time>
      </trkpt>
      <trkpt lat="49.87921" lon="2.35188">
        <ele>24.7</ele>
        <time>2023-10-06T13:12:43Z</time>
      </trkpt>
      <trkpt lat="49.87919" lon="2.35187">
        <ele>24.7</ele>
        <time>2023-10-06T13:12:44Z</time>
      </trkpt>
      <trkpt lat="49.87918" lon="2.35187">
        <ele>24.7</ele>
        <time>2023-10-06T13:12:45Z</time>
      </trkpt>
      <trkpt lat="49.87918" lon="2.35187">
        <ele>24.7</ele>
        <time>2023-10-06T13:12:46Z</time>
      </trkpt>
      <trkpt lat="49.87917" lon="2.35187">
        <ele>24.7</ele>
        <time>2023-10-06T13:12:47Z</time>
      </trkpt>
      <trkpt lat="49.87916" lon="2.35187">
        <ele>24.7</ele>
        <time>2023-10-06T13:12:48Z</time>
      </trkpt>
      <trkpt lat="49.87915" lon="2.35186">
        <ele>24.7</ele>
        <time>2023-10-06T13:12:49Z</time>
      </trkpt>
      <trkpt lat="49.87914" lon="2.35186">
        <ele>24.7</ele>
        <time>2023-10-06T13:12:50Z</time>
      </trkpt>
      <trkpt lat="49.87913" lon="2.35186">
        <ele>24.7</ele>
        <time>2023-10-06T13:12:51Z</time>
      </trkpt>
      <trkpt lat="49.87912" lon="2.35186">
        <ele>24.7</ele>
        <time>2023-10-06T13:12:52Z</time>
      </trkpt>
      <trkpt lat="49.87911" lon="2.35186">
        <ele>24.7</ele>
        <time>2023-10-06T13:12:53Z</time>
      </trkpt>
      <trkpt lat="49.8791" lon="2.35186">
        <ele>24.7</ele>
        <time>2023-10-06T13:12:54Z</time>
      </trkpt>
      <trkpt lat="49.87908" lon="2.35186">
        <ele>24.7</ele>
        <time>2023-10-06T13:12:55Z</time>
      </trkpt>
      <trkpt lat="49.87907" lon="2.35186">
        <ele>24.7</ele>
        <time>2023-10-06T13:12:56Z</time>
      </trkpt>
      <trkpt lat="49.87906" lon="2.35186">
        <ele>24.7</ele>
        <time>2023-10-06T13:12:57Z</time>
      </trkpt>
      <trkpt lat="49.87905" lon="2.35186">
        <ele>24.7</ele>
        <time>2023-10-06T13:12:58Z</time>
      </trkpt>
      <trkpt lat="49.87904" lon="2.35186">
        <ele>24.7</ele>
        <time>2023-10-06T13:12:59Z</time>
      </trkpt>
      <trkpt lat="49.87903" lon="2.35186">
        <ele>24.7</ele>
        <time>2023-10-06T13:13:00Z</time>
      </trkpt>
      <trkpt lat="49.87902" lon="2.35186">
        <ele>24.7</ele>
        <time>2023-10-06T13:13:01Z</time>
      </trkpt>
      <trkpt lat="49.87901" lon="2.35186">
        <ele>24.7</ele>
        <time>2023-10-06T13:13:02Z</time>
      </trkpt>
      <trkpt lat="49.879" lon="2.35186">
        <ele>24.7</ele>
        <time>2023-10-06T13:13:03Z</time>
      </trkpt>
      <trkpt lat="49.87899" lon="2.35186">
        <ele>24.7</ele>
        <time>2023-10-06T13:13:04Z</time>
      </trkpt>
      <trkpt lat="49.87898" lon="2.35186">
        <ele>24.7</ele>
        <time>2023-10-06T13:13:05Z</time>
      </trkpt>
      <trkpt lat="49.87897" lon="2.35186">
        <ele>24.7</ele>
        <time>2023-10-06T13:13:06Z</time>
      </trkpt>
      <trkpt lat="49.87896" lon="2.35186">
        <ele>24.7</ele>
        <time>2023-10-06T13:13:07Z</time>
      </trkpt>
      <trkpt lat="49.87895" lon="2.35186">
        <ele>24.7</ele>
        <time>2023-10-06T13:13:08Z</time>
      </trkpt>
      <trkpt lat="49.87894" lon="2.35186">
        <ele>24.7</ele>
        <time>2023-10-06T13:13:09Z</time>
      </trkpt>
      <trkpt lat="49.87893" lon="2.35186">
        <ele>24.7</ele>
        <time>2023-10-06T13:13:10Z</time>
      </trkpt>
      <trkpt lat="49.87891" lon="2.35186">
        <ele>24.7</ele>
        <time>2023-10-06T13:13:11Z</time>
      </trkpt>
      <trkpt lat="49.8789" lon="2.35187">
        <ele>24.8</ele>
        <time>2023-10-06T13:13:12Z</time>
      </trkpt>
      <trkpt lat="49.87889" lon="2.35187">
        <ele>24.8</ele>
        <time>2023-10-06T13:13:13Z</time>
      </trkpt>
      <trkpt lat="49.87889" lon="2.35188">
        <ele>24.8</ele>
        <time>2023-10-06T13:13:14Z</time>
      </trkpt>
      <trkpt lat="49.87888" lon="2.35188">
        <ele>24.8</ele>
        <time>2023-10-06T13:13:15Z</time>
      </trkpt>
      <trkpt lat="49.87887" lon="2.35189">
        <ele>24.8</ele>
        <time>2023-10-06T13:13:16Z</time>
      </trkpt>
      <trkpt lat="49.87886" lon="2.3519">
        <ele>24.8</ele>
        <time>2023-10-06T13:13:17Z</time>
      </trkpt>
      <trkpt lat="49.87885" lon="2.35191">
        <ele>24.8</ele>
        <time>2023-10-06T13:13:18Z</time>
      </trkpt>
      <trkpt lat="49.87883" lon="2.35191">
        <ele>24.8</ele>
        <time>2023-10-06T13:13:19Z</time>
      </trkpt>
      <trkpt lat="49.87881" lon="2.35192">
        <ele>24.8</ele>
        <time>2023-10-06T13:13:20Z</time>
      </trkpt>
      <trkpt lat="49.87881" lon="2.35193">
        <ele>24.8</ele>
        <time>2023-10-06T13:13:21Z</time>
      </trkpt>
      <trkpt lat="49.8788" lon="2.35193">
        <ele>24.8</ele>
        <time>2023-10-06T13:13:22Z</time>
      </trkpt>
      <trkpt lat="49.87879" lon="2.35194">
        <ele>24.8</ele>
        <time>2023-10-06T13:13:23Z</time>
      </trkpt>
      <trkpt lat="49.87878" lon="2.35194">
        <ele>24.9</ele>
        <time>2023-10-06T13:13:24Z</time>
      </trkpt>
      <trkpt lat="49.87877" lon="2.35194">
        <ele>24.9</ele>
        <time>2023-10-06T13:13:25Z</time>
      </trkpt>
      <trkpt lat="49.87876" lon="2.35194">
        <ele>24.9</ele>
        <time>2023-10-06T13:13:26Z</time>
      </trkpt>
      <trkpt lat="49.87875" lon="2.35194">
        <ele>24.9</ele>
        <time>2023-10-06T13:13:27Z</time>
      </trkpt>
      <trkpt lat="49.87874" lon="2.35195">
        <ele>24.9</ele>
        <time>2023-10-06T13:13:28Z</time>
      </trkpt>
      <trkpt lat="49.87873" lon="2.35195">
        <ele>24.9</ele>
        <time>2023-10-06T13:13:29Z</time>
      </trkpt>
      <trkpt lat="49.87872" lon="2.35195">
        <ele>24.9</ele>
        <time>2023-10-06T13:13:30Z</time>
      </trkpt>
      <trkpt lat="49.8787" lon="2.35196">
        <ele>24.9</ele>
        <time>2023-10-06T13:13:31Z</time>
      </trkpt>
      <trkpt lat="49.87869" lon="2.35196">
        <ele>24.9</ele>
        <time>2023-10-06T13:13:32Z</time>
      </trkpt>
      <trkpt lat="49.87868" lon="2.35196">
        <ele>24.9</ele>
        <time>2023-10-06T13:13:33Z</time>
      </trkpt>
      <trkpt lat="49.87867" lon="2.35197">
        <ele>24.9</ele>
        <time>2023-10-06T13:13:34Z</time>
      </trkpt>
      <trkpt lat="49.87866" lon="2.35197">
        <ele>25</ele>
        <time>2023-10-06T13:13:35Z</time>
      </trkpt>
      <trkpt lat="49.87865" lon="2.35197">
        <ele>25</ele>
        <time>2023-10-06T13:13:36Z</time>
      </trkpt>
      <trkpt lat="49.87864" lon="2.35197">
        <ele>25</ele>
        <time>2023-10-06T13:13:37Z</time>
      </trkpt>
      <trkpt lat="49.87863" lon="2.35197">
        <ele>25</ele>
        <time>2023-10-06T13:13:38Z</time>
      </trkpt>
      <trkpt lat="49.87862" lon="2.35197">
        <ele>25</ele>
        <time>2023-10-06T13:13:39Z</time>
      </trkpt>
      <trkpt lat="49.87862" lon="2.35198">
        <ele>25</ele>
        <time>2023-10-06T13:13:40Z</time>
      </trkpt>
      <trkpt lat="49.87861" lon="2.35198">
        <ele>25</ele>
        <time>2023-10-06T13:13:41Z</time>
      </trkpt>
      <trkpt lat="49.8786" lon="2.35198">
        <ele>25</ele>
        <time>2023-10-06T13:13:42Z</time>
      </trkpt>
      <trkpt lat="49.87859" lon="2.35198">
        <ele>25</ele>
        <time>2023-10-06T13:13:43Z</time>
      </trkpt>
      <trkpt lat="49.87858" lon="2.35198">
        <ele>25</ele>
        <time>2023-10-06T13:13:44Z</time>
      </trkpt>
      <trkpt lat="49.87857" lon="2.35198">
        <ele>25</ele>
        <time>2023-10-06T13:13:45Z</time>
      </trkpt>
      <trkpt lat="49.87857" lon="2.35198">
        <ele>25</ele>
        <time>2023-10-06T13:13:46Z</time>
      </trkpt>
      <trkpt lat="49.87856" lon="2.35199">
        <ele>25</ele>
        <time>2023-10-06T13:13:47Z</time>
      </trkpt>
      <trkpt lat="49.87855" lon="2.35199">
        <ele>25.1</ele>
        <time>2023-10-06T13:13:48Z</time>
      </trkpt>
      <trkpt lat="49.87854" lon="2.35199">
        <ele>25.1</ele>
        <time>2023-10-06T13:13:49Z</time>
      </trkpt>
      <trkpt lat="49.87854" lon="2.35199">
        <ele>25.1</ele>
        <time>2023-10-06T13:13:50Z</time>
      </trkpt>
      <trkpt lat="49.87853" lon="2.35199">
        <ele>25.1</ele>
        <time>2023-10-06T13:13:51Z</time>
      </trkpt>
      <trkpt lat="49.87853" lon="2.352">
        <ele>25.1</ele>
        <time>2023-10-06T13:13:52Z</time>
      </trkpt>
      <trkpt lat="49.87852" lon="2.352">
        <ele>25.1</ele>
        <time>2023-10-06T13:13:53Z</time>
      </trkpt>
      <trkpt lat="49.87851" lon="2.35199">
        <ele>25.1</ele>
        <time>2023-10-06T13:13:54Z</time>
      </trkpt>
      <trkpt lat="49.8785" lon="2.35199">
        <ele>25.1</ele>
        <time>2023-10-06T13:13:55Z</time>
      </trkpt>
      <trkpt lat="49.8785" lon="2.352">
        <ele>25.1</ele>
        <time>2023-10-06T13:13:56Z</time>
      </trkpt>
      <trkpt lat="49.87849" lon="2.352">
        <ele>25.1</ele>
        <time>2023-10-06T13:13:57Z</time>
      </trkpt>
      <trkpt lat="49.87849" lon="2.35201">
        <ele>25.1</ele>
        <time>2023-10-06T13:13:58Z</time>
      </trkpt>
      <trkpt lat="49.87849" lon="2.35202">
        <ele>25.1</ele>
        <time>2023-10-06T13:13:59Z</time>
      </trkpt>
      <trkpt lat="49.8785" lon="2.35202">
        <ele>25.1</ele>
        <time>2023-10-06T13:14:00Z</time>
      </trkpt>
      <trkpt lat="49.8785" lon="2.35202">
        <ele>25.1</ele>
        <time>2023-10-06T13:14:01Z</time>
      </trkpt>
      <trkpt lat="49.8785" lon="2.35202">
        <ele>25.1</ele>
        <time>2023-10-06T13:14:02Z</time>
      </trkpt>
      <trkpt lat="49.8785" lon="2.35202">
        <ele>25.1</ele>
        <time>2023-10-06T13:14:03Z</time>
      </trkpt>
      <trkpt lat="49.8785" lon="2.35202">
        <ele>25.1</ele>
        <time>2023-10-06T13:14:04Z</time>
      </trkpt>
      <trkpt lat="49.8785" lon="2.35202">
        <ele>25.1</ele>
        <time>2023-10-06T13:14:05Z</time>
      </trkpt>
      <trkpt lat="49.8785" lon="2.35202">
        <ele>25.1</ele>
        <time>2023-10-06T13:14:06Z</time>
      </trkpt>
      <trkpt lat="49.8785" lon="2.35202">
        <ele>25.1</ele>
        <time>2023-10-06T13:14:07Z</time>
      </trkpt>
      <trkpt lat="49.8785" lon="2.35202">
        <ele>25.1</ele>
        <time>2023-10-06T13:14:08Z</time>
      </trkpt>
      <trkpt lat="49.8785" lon="2.35202">
        <ele>25.1</ele>
        <time>2023-10-06T13:14:09Z</time>
      </trkpt>
      <trkpt lat="49.8785" lon="2.35202">
        <ele>25.1</ele>
        <time>2023-10-06T13:14:10Z</time>
      </trkpt>
      <trkpt lat="49.8785" lon="2.35202">
        <ele>25.1</ele>
        <time>2023-10-06T13:14:11Z</time>
      </trkpt>
      <trkpt lat="49.8785" lon="2.35202">
        <ele>25.1</ele>
        <time>2023-10-06T13:14:12Z</time>
      </trkpt>
      <trkpt lat="49.8785" lon="2.35202">
        <ele>25.1</ele>
        <time>2023-10-06T13:14:13Z</time>
      </trkpt>
      <trkpt lat="49.8785" lon="2.35202">
        <ele>25.1</ele>
        <time>2023-10-06T13:14:14Z</time>
      </trkpt>
      <trkpt lat="49.8785" lon="2.35202">
        <ele>25.1</ele>
        <time>2023-10-06T13:14:15Z</time>
      </trkpt>
      <trkpt lat="49.8785" lon="2.35202">
        <ele>25.1</ele>
        <time>2023-10-06T13:14:16Z</time>
      </trkpt>
      <trkpt lat="49.8785" lon="2.35202">
        <ele>25.1</ele>
        <time>2023-10-06T13:14:17Z</time>
      </trkpt>
      <trkpt lat="49.8785" lon="2.35202">
        <ele>25.1</ele>
        <time>2023-10-06T13:14:18Z</time>
      </trkpt>
      <trkpt lat="49.8785" lon="2.35202">
        <ele>25.1</ele>
        <time>2023-10-06T13:14:19Z</time>
      </trkpt>
      <trkpt lat="49.8785" lon="2.35202">
        <ele>25.1</ele>
        <time>2023-10-06T13:14:20Z</time>
      </trkpt>
      <trkpt lat="49.8785" lon="2.35202">
        <ele>25.1</ele>
        <time>2023-10-06T13:14:21Z</time>
      </trkpt>
      <trkpt lat="49.8785" lon="2.35202">
        <ele>25.1</ele>
        <time>2023-10-06T13:14:22Z</time>
      </trkpt>
      <trkpt lat="49.8785" lon="2.35202">
        <ele>25.1</ele>
        <time>2023-10-06T13:14:23Z</time>
      </trkpt>
      <trkpt lat="49.8785" lon="2.35202">
        <ele>25.1</ele>
        <time>2023-10-06T13:14:24Z</time>
      </trkpt>
      <trkpt lat="49.8785" lon="2.35202">
        <ele>25.1</ele>
        <time>2023-10-06T13:14:25Z</time>
      </trkpt>
      <trkpt lat="49.8785" lon="2.35202">
        <ele>25.1</ele>
        <time>2023-10-06T13:14:26Z</time>
      </trkpt>
      <trkpt lat="49.8785" lon="2.35202">
        <ele>25.1</ele>
        <time>2023-10-06T13:14:27Z</time>
      </trkpt>
      <trkpt lat="49.8785" lon="2.35202">
        <ele>25.1</ele>
        <time>2023-10-06T13:14:28Z</time>
      </trkpt>
      <trkpt lat="49.8785" lon="2.35202">
        <ele>25.1</ele>
        <time>2023-10-06T13:14:29Z</time>
      </trkpt>
      <trkpt lat="49.8785" lon="2.35202">
        <ele>25.1</ele>
        <time>2023-10-06T13:14:30Z</time>
      </trkpt>
      <trkpt lat="49.8785" lon="2.35202">
        <ele>25.1</ele>
        <time>2023-10-06T13:14:31Z</time>
      </trkpt>
      <trkpt lat="49.8785" lon="2.35202">
        <ele>25.1</ele>
        <time>2023-10-06T13:14:32Z</time>
      </trkpt>
      <trkpt lat="49.8785" lon="2.35202">
        <ele>25.1</ele>
        <time>2023-10-06T13:14:33Z</time>
      </trkpt>
      <trkpt lat="49.8785" lon="2.35202">
        <ele>25.1</ele>
        <time>2023-10-06T13:14:34Z</time>
      </trkpt>
      <trkpt lat="49.8785" lon="2.35202">
        <ele>25.1</ele>
        <time>2023-10-06T13:14:35Z</time>
      </trkpt>
      <trkpt lat="49.8785" lon="2.35202">
        <ele>25.1</ele>
        <time>2023-10-06T13:14:36Z</time>
      </trkpt>
      <trkpt lat="49.8785" lon="2.35202">
        <ele>25.1</ele>
        <time>2023-10-06T13:14:37Z</time>
      </trkpt>
      <trkpt lat="49.8785" lon="2.35202">
        <ele>25.1</ele>
        <time>2023-10-06T13:14:38Z</time>
      </trkpt>
      <trkpt lat="49.8785" lon="2.35202">
        <ele>25.1</ele>
        <time>2023-10-06T13:14:39Z</time>
      </trkpt>
      <trkpt lat="49.8785" lon="2.35202">
        <ele>25.1</ele>
        <time>2023-10-06T13:14:40Z</time>
      </trkpt>
      <trkpt lat="49.87849" lon="2.35201">
        <ele>25.1</ele>
        <time>2023-10-06T13:14:41Z</time>
      </trkpt>
      <trkpt lat="49.87849" lon="2.35201">
        <ele>25.1</ele>
        <time>2023-10-06T13:14:42Z</time>
      </trkpt>
      <trkpt lat="49.87848" lon="2.35201">
        <ele>25.1</ele>
        <time>2023-10-06T13:14:43Z</time>
      </trkpt>
      <trkpt lat="49.87847" lon="2.352">
        <ele>25.1</ele>
        <time>2023-10-06T13:14:44Z</time>
      </trkpt>
      <trkpt lat="49.87846" lon="2.352">
        <ele>25.1</ele>
        <time>2023-10-06T13:14:45Z</time>
      </trkpt>
      <trkpt lat="49.87845" lon="2.35199">
        <ele>25.1</ele>
        <time>2023-10-06T13:14:46Z</time>
      </trkpt>
      <trkpt lat="49.87844" lon="2.35199">
        <ele>25.1</ele>
        <time>2023-10-06T13:14:47Z</time>
      </trkpt>
      <trkpt lat="49.87843" lon="2.35198">
        <ele>25.1</ele>
        <time>2023-10-06T13:14:48Z</time>
      </trkpt>
      <trkpt lat="49.87843" lon="2.35198">
        <ele>25.1</ele>
        <time>2023-10-06T13:14:49Z</time>
      </trkpt>
      <trkpt lat="49.87842" lon="2.35197">
        <ele>25.1</ele>
        <time>2023-10-06T13:14:50Z</time>
      </trkpt>
      <trkpt lat="49.87841" lon="2.35198">
        <ele>25.1</ele>
        <time>2023-10-06T13:14:51Z</time>
      </trkpt>
      <trkpt lat="49.8784" lon="2.35198">
        <ele>25.1</ele>
        <time>2023-10-06T13:14:52Z</time>
      </trkpt>
      <trkpt lat="49.87839" lon="2.35199">
        <ele>25.1</ele>
        <time>2023-10-06T13:14:53Z</time>
      </trkpt>
      <trkpt lat="49.87838" lon="2.35199">
        <ele>25.1</ele>
        <time>2023-10-06T13:14:54Z</time>
      </trkpt>
      <trkpt lat="49.87837" lon="2.352">
        <ele>25.1</ele>
        <time>2023-10-06T13:14:55Z</time>
      </trkpt>
      <trkpt lat="49.87836" lon="2.352">
        <ele>25.1</ele>
        <time>2023-10-06T13:14:56Z</time>
      </trkpt>
      <trkpt lat="49.87835" lon="2.35201">
        <ele>25.1</ele>
        <time>2023-10-06T13:14:57Z</time>
      </trkpt>
      <trkpt lat="49.87834" lon="2.35201">
        <ele>25.2</ele>
        <time>2023-10-06T13:14:58Z</time>
      </trkpt>
      <trkpt lat="49.87833" lon="2.35202">
        <ele>25.2</ele>
        <time>2023-10-06T13:14:59Z</time>
      </trkpt>
      <trkpt lat="49.87832" lon="2.35203">
        <ele>25.2</ele>
        <time>2023-10-06T13:15:00Z</time>
      </trkpt>
      <trkpt lat="49.87831" lon="2.35203">
        <ele>25.2</ele>
        <time>2023-10-06T13:15:01Z</time>
      </trkpt>
      <trkpt lat="49.8783" lon="2.35204">
        <ele>25.2</ele>
        <time>2023-10-06T13:15:02Z</time>
      </trkpt>
      <trkpt lat="49.87829" lon="2.35205">
        <ele>25.2</ele>
        <time>2023-10-06T13:15:03Z</time>
      </trkpt>
      <trkpt lat="49.87828" lon="2.35206">
        <ele>25.2</ele>
        <time>2023-10-06T13:15:04Z</time>
      </trkpt>
      <trkpt lat="49.87827" lon="2.35206">
        <ele>25.2</ele>
        <time>2023-10-06T13:15:05Z</time>
      </trkpt>
      <trkpt lat="49.87826" lon="2.35207">
        <ele>25.2</ele>
        <time>2023-10-06T13:15:06Z</time>
      </trkpt>
      <trkpt lat="49.87825" lon="2.35207">
        <ele>25.2</ele>
        <time>2023-10-06T13:15:07Z</time>
      </trkpt>
      <trkpt lat="49.87824" lon="2.35208">
        <ele>25.2</ele>
        <time>2023-10-06T13:15:08Z</time>
      </trkpt>
      <trkpt lat="49.87823" lon="2.35208">
        <ele>25.2</ele>
        <time>2023-10-06T13:15:09Z</time>
      </trkpt>
      <trkpt lat="49.87822" lon="2.35208">
        <ele>25.2</ele>
        <time>2023-10-06T13:15:10Z</time>
      </trkpt>
      <trkpt lat="49.87821" lon="2.35209">
        <ele>25.2</ele>
        <time>2023-10-06T13:15:11Z</time>
      </trkpt>
      <trkpt lat="49.8782" lon="2.35209">
        <ele>25.2</ele>
        <time>2023-10-06T13:15:12Z</time>
      </trkpt>
      <trkpt lat="49.87819" lon="2.3521">
        <ele>25.2</ele>
        <time>2023-10-06T13:15:13Z</time>
      </trkpt>
      <trkpt lat="49.87818" lon="2.3521">
        <ele>25.2</ele>
        <time>2023-10-06T13:15:14Z</time>
      </trkpt>
      <trkpt lat="49.87817" lon="2.35211">
        <ele>25.2</ele>
        <time>2023-10-06T13:15:15Z</time>
      </trkpt>
      <trkpt lat="49.87816" lon="2.35212">
        <ele>25.2</ele>
        <time>2023-10-06T13:15:16Z</time>
      </trkpt>
      <trkpt lat="49.87814" lon="2.35212">
        <ele>25.2</ele>
        <time>2023-10-06T13:15:17Z</time>
      </trkpt>
      <trkpt lat="49.87813" lon="2.35213">
        <ele>25.2</ele>
        <time>2023-10-06T13:15:18Z</time>
      </trkpt>
      <trkpt lat="49.87812" lon="2.35213">
        <ele>25.1</ele>
        <time>2023-10-06T13:15:19Z</time>
      </trkpt>
      <trkpt lat="49.87811" lon="2.35214">
        <ele>25.1</ele>
        <time>2023-10-06T13:15:20Z</time>
      </trkpt>
      <trkpt lat="49.8781" lon="2.35214">
        <ele>25.1</ele>
        <time>2023-10-06T13:15:21Z</time>
      </trkpt>
      <trkpt lat="49.87809" lon="2.35215">
        <ele>25.1</ele>
        <time>2023-10-06T13:15:22Z</time>
      </trkpt>
      <trkpt lat="49.87808" lon="2.35215">
        <ele>25.1</ele>
        <time>2023-10-06T13:15:23Z</time>
      </trkpt>
      <trkpt lat="49.87807" lon="2.35216">
        <ele>25.1</ele>
        <time>2023-10-06T13:15:24Z</time>
      </trkpt>
      <trkpt lat="49.87806" lon="2.35216">
        <ele>25.1</ele>
        <time>2023-10-06T13:15:25Z</time>
      </trkpt>
      <trkpt lat="49.87804" lon="2.35218">
        <ele>25.1</ele>
        <time>2023-10-06T13:15:26Z</time>
      </trkpt>
      <trkpt lat="49.87803" lon="2.35218">
        <ele>25.1</ele>
        <time>2023-10-06T13:15:27Z</time>
      </trkpt>
      <trkpt lat="49.87802" lon="2.35219">
        <ele>25.1</ele>
        <time>2023-10-06T13:15:28Z</time>
      </trkpt>
      <trkpt lat="49.878" lon="2.35219">
        <ele>25.1</ele>
        <time>2023-10-06T13:15:29Z</time>
      </trkpt>
      <trkpt lat="49.878" lon="2.35219">
        <ele>25.1</ele>
        <time>2023-10-06T13:15:30Z</time>
      </trkpt>
      <trkpt lat="49.87799" lon="2.3522">
        <ele>25.1</ele>
        <time>2023-10-06T13:15:31Z</time>
      </trkpt>
      <trkpt lat="49.87798" lon="2.35219">
        <ele>25.2</ele>
        <time>2023-10-06T13:15:32Z</time>
      </trkpt>
      <trkpt lat="49.87797" lon="2.35219">
        <ele>25.2</ele>
        <time>2023-10-06T13:15:33Z</time>
      </trkpt>
      <trkpt lat="49.87796" lon="2.3522">
        <ele>25.2</ele>
        <time>2023-10-06T13:15:34Z</time>
      </trkpt>
      <trkpt lat="49.87795" lon="2.3522">
        <ele>25.2</ele>
        <time>2023-10-06T13:15:35Z</time>
      </trkpt>
      <trkpt lat="49.87794" lon="2.35221">
        <ele>25.2</ele>
        <time>2023-10-06T13:15:36Z</time>
      </trkpt>
      <trkpt lat="49.87793" lon="2.35222">
        <ele>25.2</ele>
        <time>2023-10-06T13:15:37Z</time>
      </trkpt>
      <trkpt lat="49.87792" lon="2.35222">
        <ele>25.2</ele>
        <time>2023-10-06T13:15:38Z</time>
      </trkpt>
      <trkpt lat="49.87791" lon="2.35223">
        <ele>25.2</ele>
        <time>2023-10-06T13:15:39Z</time>
      </trkpt>
      <trkpt lat="49.8779" lon="2.35224">
        <ele>25.2</ele>
        <time>2023-10-06T13:15:40Z</time>
      </trkpt>
      <trkpt lat="49.87789" lon="2.35224">
        <ele>25.2</ele>
        <time>2023-10-06T13:15:41Z</time>
      </trkpt>
      <trkpt lat="49.87788" lon="2.35223">
        <ele>25.2</ele>
        <time>2023-10-06T13:15:42Z</time>
      </trkpt>
      <trkpt lat="49.87787" lon="2.35222">
        <ele>25.2</ele>
        <time>2023-10-06T13:15:43Z</time>
      </trkpt>
      <trkpt lat="49.87786" lon="2.35222">
        <ele>25.2</ele>
        <time>2023-10-06T13:15:44Z</time>
      </trkpt>
      <trkpt lat="49.87786" lon="2.35221">
        <ele>25.2</ele>
        <time>2023-10-06T13:15:45Z</time>
      </trkpt>
      <trkpt lat="49.87785" lon="2.3522">
        <ele>25.2</ele>
        <time>2023-10-06T13:15:46Z</time>
      </trkpt>
      <trkpt lat="49.87784" lon="2.35219">
        <ele>25.2</ele>
        <time>2023-10-06T13:15:47Z</time>
      </trkpt>
      <trkpt lat="49.87783" lon="2.35219">
        <ele>25.2</ele>
        <time>2023-10-06T13:15:48Z</time>
      </trkpt>
      <trkpt lat="49.87782" lon="2.35218">
        <ele>25.2</ele>
        <time>2023-10-06T13:15:49Z</time>
      </trkpt>
      <trkpt lat="49.8778" lon="2.35218">
        <ele>25.2</ele>
        <time>2023-10-06T13:15:50Z</time>
      </trkpt>
      <trkpt lat="49.87779" lon="2.35218">
        <ele>25.2</ele>
        <time>2023-10-06T13:15:51Z</time>
      </trkpt>
      <trkpt lat="49.87778" lon="2.35218">
        <ele>25.2</ele>
        <time>2023-10-06T13:15:52Z</time>
      </trkpt>
      <trkpt lat="49.87776" lon="2.35219">
        <ele>25.2</ele>
        <time>2023-10-06T13:15:53Z</time>
      </trkpt>
      <trkpt lat="49.87775" lon="2.3522">
        <ele>25.2</ele>
        <time>2023-10-06T13:15:54Z</time>
      </trkpt>
      <trkpt lat="49.87775" lon="2.3522">
        <ele>25.2</ele>
        <time>2023-10-06T13:15:55Z</time>
      </trkpt>
      <trkpt lat="49.87773" lon="2.35221">
        <ele>25.2</ele>
        <time>2023-10-06T13:15:56Z</time>
      </trkpt>
      <trkpt lat="49.87772" lon="2.35222">
        <ele>25.2</ele>
        <time>2023-10-06T13:15:57Z</time>
      </trkpt>
      <trkpt lat="49.87771" lon="2.35223">
        <ele>25.3</ele>
        <time>2023-10-06T13:15:58Z</time>
      </trkpt>
      <trkpt lat="49.8777" lon="2.35223">
        <ele>25.3</ele>
        <time>2023-10-06T13:15:59Z</time>
      </trkpt>
      <trkpt lat="49.87769" lon="2.35224">
        <ele>25.3</ele>
        <time>2023-10-06T13:16:00Z</time>
      </trkpt>
      <trkpt lat="49.87768" lon="2.35225">
        <ele>25.3</ele>
        <time>2023-10-06T13:16:01Z</time>
      </trkpt>
      <trkpt lat="49.87766" lon="2.35226">
        <ele>25.3</ele>
        <time>2023-10-06T13:16:02Z</time>
      </trkpt>
      <trkpt lat="49.87765" lon="2.35227">
        <ele>25.3</ele>
        <time>2023-10-06T13:16:03Z</time>
      </trkpt>
      <trkpt lat="49.87764" lon="2.35227">
        <ele>25.3</ele>
        <time>2023-10-06T13:16:04Z</time>
      </trkpt>
      <trkpt lat="49.87762" lon="2.35229">
        <ele>25.4</ele>
        <time>2023-10-06T13:16:05Z</time>
      </trkpt>
      <trkpt lat="49.87762" lon="2.35229">
        <ele>25.4</ele>
        <time>2023-10-06T13:16:06Z</time>
      </trkpt>
      <trkpt lat="49.87761" lon="2.3523">
        <ele>25.4</ele>
        <time>2023-10-06T13:16:07Z</time>
      </trkpt>
      <trkpt lat="49.87759" lon="2.35231">
        <ele>25.4</ele>
        <time>2023-10-06T13:16:08Z</time>
      </trkpt>
      <trkpt lat="49.87758" lon="2.35231">
        <ele>25.4</ele>
        <time>2023-10-06T13:16:09Z</time>
      </trkpt>
      <trkpt lat="49.87757" lon="2.35232">
        <ele>25.4</ele>
        <time>2023-10-06T13:16:10Z</time>
      </trkpt>
      <trkpt lat="49.87755" lon="2.35232">
        <ele>25.5</ele>
        <time>2023-10-06T13:16:11Z</time>
      </trkpt>
      <trkpt lat="49.87754" lon="2.35232">
        <ele>25.5</ele>
        <time>2023-10-06T13:16:12Z</time>
      </trkpt>
      <trkpt lat="49.87753" lon="2.35233">
        <ele>25.5</ele>
        <time>2023-10-06T13:16:13Z</time>
      </trkpt>
      <trkpt lat="49.87752" lon="2.35233">
        <ele>25.5</ele>
        <time>2023-10-06T13:16:14Z</time>
      </trkpt>
      <trkpt lat="49.8775" lon="2.35233">
        <ele>25.5</ele>
        <time>2023-10-06T13:16:15Z</time>
      </trkpt>
      <trkpt lat="49.87749" lon="2.35233">
        <ele>25.5</ele>
        <time>2023-10-06T13:16:16Z</time>
      </trkpt>
      <trkpt lat="49.87748" lon="2.35234">
        <ele>25.6</ele>
        <time>2023-10-06T13:16:17Z</time>
      </trkpt>
      <trkpt lat="49.87746" lon="2.35234">
        <ele>25.6</ele>
        <time>2023-10-06T13:16:18Z</time>
      </trkpt>
      <trkpt lat="49.87745" lon="2.35234">
        <ele>25.6</ele>
        <time>2023-10-06T13:16:19Z</time>
      </trkpt>
      <trkpt lat="49.87743" lon="2.35234">
        <ele>25.6</ele>
        <time>2023-10-06T13:16:20Z</time>
      </trkpt>
      <trkpt lat="49.87742" lon="2.35234">
        <ele>25.6</ele>
        <time>2023-10-06T13:16:21Z</time>
      </trkpt>
      <trkpt lat="49.8774" lon="2.35234">
        <ele>25.7</ele>
        <time>2023-10-06T13:16:22Z</time>
      </trkpt>
      <trkpt lat="49.87739" lon="2.35234">
        <ele>25.7</ele>
        <time>2023-10-06T13:16:23Z</time>
      </trkpt>
      <trkpt lat="49.87737" lon="2.35234">
        <ele>25.7</ele>
        <time>2023-10-06T13:16:24Z</time>
      </trkpt>
      <trkpt lat="49.87736" lon="2.35234">
        <ele>25.7</ele>
        <time>2023-10-06T13:16:25Z</time>
      </trkpt>
      <trkpt lat="49.87735" lon="2.35234">
        <ele>25.7</ele>
        <time>2023-10-06T13:16:26Z</time>
      </trkpt>
      <trkpt lat="49.87733" lon="2.35234">
        <ele>25.7</ele>
        <time>2023-10-06T13:16:27Z</time>
      </trkpt>
      <trkpt lat="49.87732" lon="2.35234">
        <ele>25.8</ele>
        <time>2023-10-06T13:16:28Z</time>
      </trkpt>
      <trkpt lat="49.8773" lon="2.35234">
        <ele>25.8</ele>
        <time>2023-10-06T13:16:29Z</time>
      </trkpt>
      <trkpt lat="49.87729" lon="2.35234">
        <ele>25.8</ele>
        <time>2023-10-06T13:16:30Z</time>
      </trkpt>
      <trkpt lat="49.87728" lon="2.35235">
        <ele>25.8</ele>
        <time>2023-10-06T13:16:31Z</time>
      </trkpt>
      <trkpt lat="49.87727" lon="2.35235">
        <ele>25.8</ele>
        <time>2023-10-06T13:16:32Z</time>
      </trkpt>
      <trkpt lat="49.87726" lon="2.35235">
        <ele>25.8</ele>
        <time>2023-10-06T13:16:33Z</time>
      </trkpt>
      <trkpt lat="49.87725" lon="2.35235">
        <ele>25.8</ele>
        <time>2023-10-06T13:16:34Z</time>
      </trkpt>
      <trkpt lat="49.87724" lon="2.35235">
        <ele>25.8</ele>
        <time>2023-10-06T13:16:35Z</time>
      </trkpt>
      <trkpt lat="49.87723" lon="2.35236">
        <ele>25.8</ele>
        <time>2023-10-06T13:16:36Z</time>
      </trkpt>
      <trkpt lat="49.87722" lon="2.35236">
        <ele>25.9</ele>
        <time>2023-10-06T13:16:37Z</time>
      </trkpt>
      <trkpt lat="49.87721" lon="2.35236">
        <ele>25.9</ele>
        <time>2023-10-06T13:16:38Z</time>
      </trkpt>
      <trkpt lat="49.87719" lon="2.35236">
        <ele>25.9</ele>
        <time>2023-10-06T13:16:39Z</time>
      </trkpt>
      <trkpt lat="49.87718" lon="2.35236">
        <ele>25.9</ele>
        <time>2023-10-06T13:16:40Z</time>
      </trkpt>
      <trkpt lat="49.87717" lon="2.35236">
        <ele>25.9</ele>
        <time>2023-10-06T13:16:41Z</time>
      </trkpt>
      <trkpt lat="49.87716" lon="2.35235">
        <ele>25.9</ele>
        <time>2023-10-06T13:16:42Z</time>
      </trkpt>
      <trkpt lat="49.87715" lon="2.35235">
        <ele>25.9</ele>
        <time>2023-10-06T13:16:43Z</time>
      </trkpt>
      <trkpt lat="49.87714" lon="2.35235">
        <ele>25.9</ele>
        <time>2023-10-06T13:16:44Z</time>
      </trkpt>
      <trkpt lat="49.87713" lon="2.35234">
        <ele>25.9</ele>
        <time>2023-10-06T13:16:45Z</time>
      </trkpt>
      <trkpt lat="49.87712" lon="2.35234">
        <ele>25.9</ele>
        <time>2023-10-06T13:16:46Z</time>
      </trkpt>
      <trkpt lat="49.87711" lon="2.35233">
        <ele>26</ele>
        <time>2023-10-06T13:16:47Z</time>
      </trkpt>
      <trkpt lat="49.87709" lon="2.35232">
        <ele>26</ele>
        <time>2023-10-06T13:16:48Z</time>
      </trkpt>
      <trkpt lat="49.87708" lon="2.35231">
        <ele>26</ele>
        <time>2023-10-06T13:16:49Z</time>
      </trkpt>
      <trkpt lat="49.87707" lon="2.35231">
        <ele>26</ele>
        <time>2023-10-06T13:16:50Z</time>
      </trkpt>
      <trkpt lat="49.87705" lon="2.35229">
        <ele>26</ele>
        <time>2023-10-06T13:16:51Z</time>
      </trkpt>
      <trkpt lat="49.87705" lon="2.35229">
        <ele>26</ele>
        <time>2023-10-06T13:16:52Z</time>
      </trkpt>
      <trkpt lat="49.87704" lon="2.35228">
        <ele>26</ele>
        <time>2023-10-06T13:16:53Z</time>
      </trkpt>
      <trkpt lat="49.87702" lon="2.35226">
        <ele>26</ele>
        <time>2023-10-06T13:16:54Z</time>
      </trkpt>
      <trkpt lat="49.87701" lon="2.35226">
        <ele>26.1</ele>
        <time>2023-10-06T13:16:55Z</time>
      </trkpt>
      <trkpt lat="49.87701" lon="2.35225">
        <ele>26.1</ele>
        <time>2023-10-06T13:16:56Z</time>
      </trkpt>
      <trkpt lat="49.87699" lon="2.35223">
        <ele>26.1</ele>
        <time>2023-10-06T13:16:57Z</time>
      </trkpt>
      <trkpt lat="49.87699" lon="2.35222">
        <ele>26.1</ele>
        <time>2023-10-06T13:16:58Z</time>
      </trkpt>
      <trkpt lat="49.87698" lon="2.35221">
        <ele>26.1</ele>
        <time>2023-10-06T13:16:59Z</time>
      </trkpt>
      <trkpt lat="49.87696" lon="2.35219">
        <ele>26.1</ele>
        <time>2023-10-06T13:17:00Z</time>
      </trkpt>
      <trkpt lat="49.87696" lon="2.35218">
        <ele>26.1</ele>
        <time>2023-10-06T13:17:01Z</time>
      </trkpt>
      <trkpt lat="49.87695" lon="2.35218">
        <ele>26.1</ele>
        <time>2023-10-06T13:17:02Z</time>
      </trkpt>
      <trkpt lat="49.87693" lon="2.35215">
        <ele>26.2</ele>
        <time>2023-10-06T13:17:03Z</time>
      </trkpt>
      <trkpt lat="49.87693" lon="2.35215">
        <ele>26.2</ele>
        <time>2023-10-06T13:17:04Z</time>
      </trkpt>
      <trkpt lat="49.87692" lon="2.35214">
        <ele>26.2</ele>
        <time>2023-10-06T13:17:05Z</time>
      </trkpt>
      <trkpt lat="49.87691" lon="2.35212">
        <ele>26.2</ele>
        <time>2023-10-06T13:17:06Z</time>
      </trkpt>
      <trkpt lat="49.87691" lon="2.35211">
        <ele>26.2</ele>
        <time>2023-10-06T13:17:07Z</time>
      </trkpt>
      <trkpt lat="49.8769" lon="2.3521">
        <ele>26.2</ele>
        <time>2023-10-06T13:17:08Z</time>
      </trkpt>
      <trkpt lat="49.87688" lon="2.35208">
        <ele>26.2</ele>
        <time>2023-10-06T13:17:09Z</time>
      </trkpt>
      <trkpt lat="49.87688" lon="2.35207">
        <ele>26.2</ele>
        <time>2023-10-06T13:17:10Z</time>
      </trkpt>
      <trkpt lat="49.87687" lon="2.35206">
        <ele>26.2</ele>
        <time>2023-10-06T13:17:11Z</time>
      </trkpt>
      <trkpt lat="49.87686" lon="2.35203">
        <ele>26.3</ele>
        <time>2023-10-06T13:17:12Z</time>
      </trkpt>
      <trkpt lat="49.87685" lon="2.35202">
        <ele>26.3</ele>
        <time>2023-10-06T13:17:13Z</time>
      </trkpt>
      <trkpt lat="49.87685" lon="2.35201">
        <ele>26.3</ele>
        <time>2023-10-06T13:17:14Z</time>
      </trkpt>
      <trkpt lat="49.87684" lon="2.352">
        <ele>26.3</ele>
        <time>2023-10-06T13:17:15Z</time>
      </trkpt>
      <trkpt lat="49.87683" lon="2.35199">
        <ele>26.3</ele>
        <time>2023-10-06T13:17:16Z</time>
      </trkpt>
      <trkpt lat="49.87683" lon="2.35198">
        <ele>26.3</ele>
        <time>2023-10-06T13:17:17Z</time>
      </trkpt>
      <trkpt lat="49.87682" lon="2.35197">
        <ele>26.3</ele>
        <time>2023-10-06T13:17:18Z</time>
      </trkpt>
      <trkpt lat="49.87681" lon="2.35195">
        <ele>26.3</ele>
        <time>2023-10-06T13:17:19Z</time>
      </trkpt>
      <trkpt lat="49.87681" lon="2.35194">
        <ele>26.3</ele>
        <time>2023-10-06T13:17:20Z</time>
      </trkpt>
      <trkpt lat="49.8768" lon="2.35193">
        <ele>26.4</ele>
        <time>2023-10-06T13:17:21Z</time>
      </trkpt>
      <trkpt lat="49.87679" lon="2.35192">
        <ele>26.4</ele>
        <time>2023-10-06T13:17:22Z</time>
      </trkpt>
      <trkpt lat="49.87678" lon="2.3519">
        <ele>26.4</ele>
        <time>2023-10-06T13:17:23Z</time>
      </trkpt>
      <trkpt lat="49.87677" lon="2.35189">
        <ele>26.4</ele>
        <time>2023-10-06T13:17:24Z</time>
      </trkpt>
      <trkpt lat="49.87677" lon="2.35187">
        <ele>26.4</ele>
        <time>2023-10-06T13:17:25Z</time>
      </trkpt>
      <trkpt lat="49.87676" lon="2.35186">
        <ele>26.4</ele>
        <time>2023-10-06T13:17:26Z</time>
      </trkpt>
      <trkpt lat="49.87675" lon="2.35185">
        <ele>26.4</ele>
        <time>2023-10-06T13:17:27Z</time>
      </trkpt>
      <trkpt lat="49.87675" lon="2.35184">
        <ele>26.4</ele>
        <time>2023-10-06T13:17:28Z</time>
      </trkpt>
      <trkpt lat="49.87674" lon="2.35183">
        <ele>26.5</ele>
        <time>2023-10-06T13:17:29Z</time>
      </trkpt>
      <trkpt lat="49.87672" lon="2.35181">
        <ele>26.5</ele>
        <time>2023-10-06T13:17:30Z</time>
      </trkpt>
      <trkpt lat="49.87672" lon="2.3518">
        <ele>26.5</ele>
        <time>2023-10-06T13:17:31Z</time>
      </trkpt>
      <trkpt lat="49.87671" lon="2.35179">
        <ele>26.5</ele>
        <time>2023-10-06T13:17:32Z</time>
      </trkpt>
      <trkpt lat="49.8767" lon="2.35177">
        <ele>26.5</ele>
        <time>2023-10-06T13:17:33Z</time>
      </trkpt>
      <trkpt lat="49.87669" lon="2.35176">
        <ele>26.5</ele>
        <time>2023-10-06T13:17:34Z</time>
      </trkpt>
      <trkpt lat="49.87669" lon="2.35175">
        <ele>26.6</ele>
        <time>2023-10-06T13:17:35Z</time>
      </trkpt>
      <trkpt lat="49.87667" lon="2.35172">
        <ele>26.6</ele>
        <time>2023-10-06T13:17:36Z</time>
      </trkpt>
      <trkpt lat="49.87666" lon="2.35172">
        <ele>26.6</ele>
        <time>2023-10-06T13:17:37Z</time>
      </trkpt>
      <trkpt lat="49.87666" lon="2.35171">
        <ele>26.6</ele>
        <time>2023-10-06T13:17:38Z</time>
      </trkpt>
      <trkpt lat="49.87665" lon="2.35169">
        <ele>26.6</ele>
        <time>2023-10-06T13:17:39Z</time>
      </trkpt>
      <trkpt lat="49.87664" lon="2.35168">
        <ele>26.6</ele>
        <time>2023-10-06T13:17:40Z</time>
      </trkpt>
      <trkpt lat="49.87664" lon="2.35167">
        <ele>26.7</ele>
        <time>2023-10-06T13:17:41Z</time>
      </trkpt>
      <trkpt lat="49.87663" lon="2.35166">
        <ele>26.7</ele>
        <time>2023-10-06T13:17:42Z</time>
      </trkpt>
      <trkpt lat="49.87662" lon="2.35165">
        <ele>26.7</ele>
        <time>2023-10-06T13:17:43Z</time>
      </trkpt>
      <trkpt lat="49.87661" lon="2.35164">
        <ele>26.7</ele>
        <time>2023-10-06T13:17:44Z</time>
      </trkpt>
      <trkpt lat="49.87661" lon="2.35163">
        <ele>26.7</ele>
        <time>2023-10-06T13:17:45Z</time>
      </trkpt>
      <trkpt lat="49.8766" lon="2.35161">
        <ele>26.7</ele>
        <time>2023-10-06T13:17:46Z</time>
      </trkpt>
      <trkpt lat="49.87659" lon="2.3516">
        <ele>26.8</ele>
        <time>2023-10-06T13:17:47Z</time>
      </trkpt>
      <trkpt lat="49.87657" lon="2.35157">
        <ele>26.8</ele>
        <time>2023-10-06T13:17:48Z</time>
      </trkpt>
      <trkpt lat="49.87657" lon="2.35156">
        <ele>26.8</ele>
        <time>2023-10-06T13:17:49Z</time>
      </trkpt>
      <trkpt lat="49.87656" lon="2.35155">
        <ele>26.8</ele>
        <time>2023-10-06T13:17:50Z</time>
      </trkpt>
      <trkpt lat="49.87656" lon="2.35152">
        <ele>26.9</ele>
        <time>2023-10-06T13:17:51Z</time>
      </trkpt>
      <trkpt lat="49.87656" lon="2.35151">
        <ele>27</ele>
        <time>2023-10-06T13:17:52Z</time>
      </trkpt>
      <trkpt lat="49.87656" lon="2.3515">
        <ele>27</ele>
        <time>2023-10-06T13:17:53Z</time>
      </trkpt>
      <trkpt lat="49.87655" lon="2.35147">
        <ele>27</ele>
        <time>2023-10-06T13:17:54Z</time>
      </trkpt>
      <trkpt lat="49.87655" lon="2.35146">
        <ele>27</ele>
        <time>2023-10-06T13:17:55Z</time>
      </trkpt>
      <trkpt lat="49.87655" lon="2.35144">
        <ele>27</ele>
        <time>2023-10-06T13:17:56Z</time>
      </trkpt>
      <trkpt lat="49.87654" lon="2.35143">
        <ele>27</ele>
        <time>2023-10-06T13:17:57Z</time>
      </trkpt>
      <trkpt lat="49.87654" lon="2.35141">
        <ele>27</ele>
        <time>2023-10-06T13:17:58Z</time>
      </trkpt>
      <trkpt lat="49.87654" lon="2.35139">
        <ele>27</ele>
        <time>2023-10-06T13:17:59Z</time>
      </trkpt>
      <trkpt lat="49.87654" lon="2.35137">
        <ele>27</ele>
        <time>2023-10-06T13:18:00Z</time>
      </trkpt>
      <trkpt lat="49.87653" lon="2.35136">
        <ele>27</ele>
        <time>2023-10-06T13:18:01Z</time>
      </trkpt>
      <trkpt lat="49.87653" lon="2.35134">
        <ele>27</ele>
        <time>2023-10-06T13:18:02Z</time>
      </trkpt>
      <trkpt lat="49.87654" lon="2.35132">
        <ele>27</ele>
        <time>2023-10-06T13:18:03Z</time>
      </trkpt>
      <trkpt lat="49.87654" lon="2.35131">
        <ele>27</ele>
        <time>2023-10-06T13:18:04Z</time>
      </trkpt>
      <trkpt lat="49.87654" lon="2.35129">
        <ele>27</ele>
        <time>2023-10-06T13:18:05Z</time>
      </trkpt>
      <trkpt lat="49.87654" lon="2.35128">
        <ele>27</ele>
        <time>2023-10-06T13:18:06Z</time>
      </trkpt>
      <trkpt lat="49.87655" lon="2.35126">
        <ele>27</ele>
        <time>2023-10-06T13:18:07Z</time>
      </trkpt>
      <trkpt lat="49.87655" lon="2.35125">
        <ele>27.1</ele>
        <time>2023-10-06T13:18:08Z</time>
      </trkpt>
      <trkpt lat="49.87656" lon="2.35124">
        <ele>27.1</ele>
        <time>2023-10-06T13:18:09Z</time>
      </trkpt>
      <trkpt lat="49.87656" lon="2.35123">
        <ele>27.1</ele>
        <time>2023-10-06T13:18:10Z</time>
      </trkpt>
      <trkpt lat="49.87657" lon="2.35122">
        <ele>27.1</ele>
        <time>2023-10-06T13:18:11Z</time>
      </trkpt>
      <trkpt lat="49.87658" lon="2.35122">
        <ele>27.1</ele>
        <time>2023-10-06T13:18:12Z</time>
      </trkpt>
      <trkpt lat="49.87659" lon="2.35121">
        <ele>27.1</ele>
        <time>2023-10-06T13:18:13Z</time>
      </trkpt>
      <trkpt lat="49.87659" lon="2.3512">
        <ele>27.1</ele>
        <time>2023-10-06T13:18:14Z</time>
      </trkpt>
      <trkpt lat="49.8766" lon="2.3512">
        <ele>27.1</ele>
        <time>2023-10-06T13:18:15Z</time>
      </trkpt>
      <trkpt lat="49.87661" lon="2.35119">
        <ele>27.1</ele>
        <time>2023-10-06T13:18:16Z</time>
      </trkpt>
      <trkpt lat="49.87661" lon="2.35119">
        <ele>27.1</ele>
        <time>2023-10-06T13:18:17Z</time>
      </trkpt>
      <trkpt lat="49.87662" lon="2.35119">
        <ele>27.1</ele>
        <time>2023-10-06T13:18:18Z</time>
      </trkpt>
      <trkpt lat="49.87663" lon="2.35118">
        <ele>27.1</ele>
        <time>2023-10-06T13:18:19Z</time>
      </trkpt>
      <trkpt lat="49.87664" lon="2.35118">
        <ele>27.1</ele>
        <time>2023-10-06T13:18:20Z</time>
      </trkpt>
      <trkpt lat="49.87665" lon="2.35118">
        <ele>27.1</ele>
        <time>2023-10-06T13:18:21Z</time>
      </trkpt>
      <trkpt lat="49.87665" lon="2.35118">
        <ele>27.1</ele>
        <time>2023-10-06T13:18:22Z</time>
      </trkpt>
      <trkpt lat="49.87666" lon="2.35118">
        <ele>27.1</ele>
        <time>2023-10-06T13:18:23Z</time>
      </trkpt>
      <trkpt lat="49.87667" lon="2.35118">
        <ele>27.1</ele>
        <time>2023-10-06T13:18:24Z</time>
      </trkpt>
      <trkpt lat="49.87668" lon="2.35117">
        <ele>27.1</ele>
        <time>2023-10-06T13:18:25Z</time>
      </trkpt>
      <trkpt lat="49.87668" lon="2.35117">
        <ele>27.1</ele>
        <time>2023-10-06T13:18:26Z</time>
      </trkpt>
      <trkpt lat="49.87669" lon="2.35116">
        <ele>27.1</ele>
        <time>2023-10-06T13:18:27Z</time>
      </trkpt>
      <trkpt lat="49.87669" lon="2.35116">
        <ele>27.1</ele>
        <time>2023-10-06T13:18:28Z</time>
      </trkpt>
      <trkpt lat="49.87669" lon="2.35115">
        <ele>27.1</ele>
        <time>2023-10-06T13:18:29Z</time>
      </trkpt>
      <trkpt lat="49.8767" lon="2.35114">
        <ele>27.1</ele>
        <time>2023-10-06T13:18:30Z</time>
      </trkpt>
      <trkpt lat="49.8767" lon="2.35112">
        <ele>27.1</ele>
        <time>2023-10-06T13:18:31Z</time>
      </trkpt>
      <trkpt lat="49.8767" lon="2.35111">
        <ele>27.1</ele>
        <time>2023-10-06T13:18:32Z</time>
      </trkpt>
      <trkpt lat="49.8767" lon="2.3511">
        <ele>27.1</ele>
        <time>2023-10-06T13:18:33Z</time>
      </trkpt>
      <trkpt lat="49.8767" lon="2.35109">
        <ele>27.1</ele>
        <time>2023-10-06T13:18:34Z</time>
      </trkpt>
      <trkpt lat="49.8767" lon="2.35108">
        <ele>27.1</ele>
        <time>2023-10-06T13:18:35Z</time>
      </trkpt>
      <trkpt lat="49.8767" lon="2.35107">
        <ele>27.1</ele>
        <time>2023-10-06T13:18:36Z</time>
      </trkpt>
      <trkpt lat="49.8767" lon="2.35106">
        <ele>27.1</ele>
        <time>2023-10-06T13:18:37Z</time>
      </trkpt>
      <trkpt lat="49.8767" lon="2.35104">
        <ele>27.1</ele>
        <time>2023-10-06T13:18:38Z</time>
      </trkpt>
      <trkpt lat="49.87669" lon="2.35103">
        <ele>27.1</ele>
        <time>2023-10-06T13:18:39Z</time>
      </trkpt>
      <trkpt lat="49.87669" lon="2.35102">
        <ele>27.1</ele>
        <time>2023-10-06T13:18:40Z</time>
      </trkpt>
      <trkpt lat="49.87669" lon="2.35101">
        <ele>27.1</ele>
        <time>2023-10-06T13:18:41Z</time>
      </trkpt>
      <trkpt lat="49.87669" lon="2.35099">
        <ele>27</ele>
        <time>2023-10-06T13:18:42Z</time>
      </trkpt>
      <trkpt lat="49.87669" lon="2.35098">
        <ele>27</ele>
        <time>2023-10-06T13:18:43Z</time>
      </trkpt>
      <trkpt lat="49.87669" lon="2.35097">
        <ele>27</ele>
        <time>2023-10-06T13:18:44Z</time>
      </trkpt>
      <trkpt lat="49.87669" lon="2.35095">
        <ele>27</ele>
        <time>2023-10-06T13:18:45Z</time>
      </trkpt>
      <trkpt lat="49.8767" lon="2.35094">
        <ele>27</ele>
        <time>2023-10-06T13:18:46Z</time>
      </trkpt>
      <trkpt lat="49.8767" lon="2.35093">
        <ele>27</ele>
        <time>2023-10-06T13:18:47Z</time>
      </trkpt>
      <trkpt lat="49.8767" lon="2.35091">
        <ele>27</ele>
        <time>2023-10-06T13:18:48Z</time>
      </trkpt>
      <trkpt lat="49.8767" lon="2.3509">
        <ele>27</ele>
        <time>2023-10-06T13:18:49Z</time>
      </trkpt>
      <trkpt lat="49.87671" lon="2.35089">
        <ele>27</ele>
        <time>2023-10-06T13:18:50Z</time>
      </trkpt>
      <trkpt lat="49.87671" lon="2.35088">
        <ele>27</ele>
        <time>2023-10-06T13:18:51Z</time>
      </trkpt>
      <trkpt lat="49.87671" lon="2.35086">
        <ele>26.9</ele>
        <time>2023-10-06T13:18:52Z</time>
      </trkpt>
      <trkpt lat="49.87671" lon="2.35085">
        <ele>26.9</ele>
        <time>2023-10-06T13:18:53Z</time>
      </trkpt>
      <trkpt lat="49.87671" lon="2.35083">
        <ele>26.9</ele>
        <time>2023-10-06T13:18:54Z</time>
      </trkpt>
      <trkpt lat="49.87671" lon="2.35081">
        <ele>26.9</ele>
        <time>2023-10-06T13:18:55Z</time>
      </trkpt>
      <trkpt lat="49.87671" lon="2.3508">
        <ele>26.9</ele>
        <time>2023-10-06T13:18:56Z</time>
      </trkpt>
      <trkpt lat="49.87672" lon="2.35078">
        <ele>26.9</ele>
        <time>2023-10-06T13:18:57Z</time>
      </trkpt>
      <trkpt lat="49.87672" lon="2.35077">
        <ele>26.9</ele>
        <time>2023-10-06T13:18:58Z</time>
      </trkpt>
      <trkpt lat="49.87672" lon="2.35076">
        <ele>26.9</ele>
        <time>2023-10-06T13:18:59Z</time>
      </trkpt>
      <trkpt lat="49.87673" lon="2.35074">
        <ele>26.9</ele>
        <time>2023-10-06T13:19:00Z</time>
      </trkpt>
      <trkpt lat="49.87673" lon="2.35073">
        <ele>26.9</ele>
        <time>2023-10-06T13:19:01Z</time>
      </trkpt>
      <trkpt lat="49.87673" lon="2.35071">
        <ele>26.8</ele>
        <time>2023-10-06T13:19:02Z</time>
      </trkpt>
      <trkpt lat="49.87674" lon="2.3507">
        <ele>26.8</ele>
        <time>2023-10-06T13:19:03Z</time>
      </trkpt>
      <trkpt lat="49.87674" lon="2.35068">
        <ele>26.8</ele>
        <time>2023-10-06T13:19:04Z</time>
      </trkpt>
      <trkpt lat="49.87674" lon="2.35067">
        <ele>26.8</ele>
        <time>2023-10-06T13:19:05Z</time>
      </trkpt>
      <trkpt lat="49.87675" lon="2.35065">
        <ele>26.8</ele>
        <time>2023-10-06T13:19:06Z</time>
      </trkpt>
      <trkpt lat="49.87675" lon="2.35063">
        <ele>26.8</ele>
        <time>2023-10-06T13:19:07Z</time>
      </trkpt>
      <trkpt lat="49.87675" lon="2.35062">
        <ele>26.8</ele>
        <time>2023-10-06T13:19:08Z</time>
      </trkpt>
      <trkpt lat="49.87675" lon="2.3506">
        <ele>26.8</ele>
        <time>2023-10-06T13:19:09Z</time>
      </trkpt>
      <trkpt lat="49.87676" lon="2.35058">
        <ele>26.8</ele>
        <time>2023-10-06T13:19:10Z</time>
      </trkpt>
      <trkpt lat="49.87676" lon="2.35056">
        <ele>26.8</ele>
        <time>2023-10-06T13:19:11Z</time>
      </trkpt>
      <trkpt lat="49.87677" lon="2.35055">
        <ele>26.8</ele>
        <time>2023-10-06T13:19:12Z</time>
      </trkpt>
      <trkpt lat="49.87677" lon="2.35053">
        <ele>26.8</ele>
        <time>2023-10-06T13:19:13Z</time>
      </trkpt>
      <trkpt lat="49.87677" lon="2.35051">
        <ele>26.9</ele>
        <time>2023-10-06T13:19:14Z</time>
      </trkpt>
      <trkpt lat="49.87678" lon="2.3505">
        <ele>26.9</ele>
        <time>2023-10-06T13:19:15Z</time>
      </trkpt>
      <trkpt lat="49.87678" lon="2.35048">
        <ele>26.9</ele>
        <time>2023-10-06T13:19:16Z</time>
      </trkpt>
      <trkpt lat="49.87678" lon="2.35046">
        <ele>26.9</ele>
        <time>2023-10-06T13:19:17Z</time>
      </trkpt>
      <trkpt lat="49.87678" lon="2.35045">
        <ele>26.9</ele>
        <time>2023-10-06T13:19:18Z</time>
      </trkpt>
      <trkpt lat="49.87678" lon="2.35043">
        <ele>26.9</ele>
        <time>2023-10-06T13:19:19Z</time>
      </trkpt>
      <trkpt lat="49.87679" lon="2.35041">
        <ele>26.9</ele>
        <time>2023-10-06T13:19:20Z</time>
      </trkpt>
      <trkpt lat="49.87679" lon="2.35039">
        <ele>26.9</ele>
        <time>2023-10-06T13:19:21Z</time>
      </trkpt>
      <trkpt lat="49.87679" lon="2.35037">
        <ele>26.9</ele>
        <time>2023-10-06T13:19:22Z</time>
      </trkpt>
      <trkpt lat="49.87679" lon="2.35036">
        <ele>26.9</ele>
        <time>2023-10-06T13:19:23Z</time>
      </trkpt>
      <trkpt lat="49.87679" lon="2.35034">
        <ele>26.9</ele>
        <time>2023-10-06T13:19:24Z</time>
      </trkpt>
      <trkpt lat="49.87679" lon="2.35032">
        <ele>27</ele>
        <time>2023-10-06T13:19:25Z</time>
      </trkpt>
      <trkpt lat="49.8768" lon="2.35031">
        <ele>27</ele>
        <time>2023-10-06T13:19:26Z</time>
      </trkpt>
      <trkpt lat="49.8768" lon="2.35029">
        <ele>27</ele>
        <time>2023-10-06T13:19:27Z</time>
      </trkpt>
      <trkpt lat="49.8768" lon="2.35028">
        <ele>27</ele>
        <time>2023-10-06T13:19:28Z</time>
      </trkpt>
      <trkpt lat="49.8768" lon="2.35027">
        <ele>27</ele>
        <time>2023-10-06T13:19:29Z</time>
      </trkpt>
      <trkpt lat="49.87681" lon="2.35026">
        <ele>27</ele>
        <time>2023-10-06T13:19:30Z</time>
      </trkpt>
      <trkpt lat="49.87682" lon="2.35024">
        <ele>27</ele>
        <time>2023-10-06T13:19:31Z</time>
      </trkpt>
      <trkpt lat="49.87682" lon="2.35023">
        <ele>27</ele>
        <time>2023-10-06T13:19:32Z</time>
      </trkpt>
      <trkpt lat="49.87683" lon="2.35022">
        <ele>26.9</ele>
        <time>2023-10-06T13:19:33Z</time>
      </trkpt>
      <trkpt lat="49.87684" lon="2.35021">
        <ele>26.9</ele>
        <time>2023-10-06T13:19:34Z</time>
      </trkpt>
      <trkpt lat="49.87685" lon="2.3502">
        <ele>26.9</ele>
        <time>2023-10-06T13:19:35Z</time>
      </trkpt>
      <trkpt lat="49.87685" lon="2.3502">
        <ele>26.9</ele>
        <time>2023-10-06T13:19:36Z</time>
      </trkpt>
      <trkpt lat="49.87686" lon="2.35019">
        <ele>26.9</ele>
        <time>2023-10-06T13:19:37Z</time>
      </trkpt>
      <trkpt lat="49.87687" lon="2.35018">
        <ele>26.9</ele>
        <time>2023-10-06T13:19:38Z</time>
      </trkpt>
      <trkpt lat="49.87688" lon="2.35017">
        <ele>26.9</ele>
        <time>2023-10-06T13:19:39Z</time>
      </trkpt>
      <trkpt lat="49.87688" lon="2.35016">
        <ele>26.9</ele>
        <time>2023-10-06T13:19:40Z</time>
      </trkpt>
      <trkpt lat="49.87689" lon="2.35015">
        <ele>26.9</ele>
        <time>2023-10-06T13:19:41Z</time>
      </trkpt>
      <trkpt lat="49.8769" lon="2.35014">
        <ele>26.7</ele>
        <time>2023-10-06T13:19:42Z</time>
      </trkpt>
      <trkpt lat="49.8769" lon="2.35013">
        <ele>26.6</ele>
        <time>2023-10-06T13:19:43Z</time>
      </trkpt>
      <trkpt lat="49.8769" lon="2.35012">
        <ele>26.6</ele>
        <time>2023-10-06T13:19:44Z</time>
      </trkpt>
      <trkpt lat="49.87691" lon="2.35011">
        <ele>26.6</ele>
        <time>2023-10-06T13:19:45Z</time>
      </trkpt>
      <trkpt lat="49.87691" lon="2.35009">
        <ele>26.6</ele>
        <time>2023-10-06T13:19:46Z</time>
      </trkpt>
      <trkpt lat="49.87691" lon="2.35008">
        <ele>26.6</ele>
        <time>2023-10-06T13:19:47Z</time>
      </trkpt>
      <trkpt lat="49.87691" lon="2.35006">
        <ele>26.6</ele>
        <time>2023-10-06T13:19:48Z</time>
      </trkpt>
      <trkpt lat="49.87691" lon="2.35005">
        <ele>26.6</ele>
        <time>2023-10-06T13:19:49Z</time>
      </trkpt>
      <trkpt lat="49.87691" lon="2.35003">
        <ele>26.6</ele>
        <time>2023-10-06T13:19:50Z</time>
      </trkpt>
      <trkpt lat="49.87691" lon="2.35001">
        <ele>26.6</ele>
        <time>2023-10-06T13:19:51Z</time>
      </trkpt>
      <trkpt lat="49.87691" lon="2.35">
        <ele>26.6</ele>
        <time>2023-10-06T13:19:52Z</time>
      </trkpt>
      <trkpt lat="49.87691" lon="2.34998">
        <ele>26.6</ele>
        <time>2023-10-06T13:19:53Z</time>
      </trkpt>
      <trkpt lat="49.87691" lon="2.34997">
        <ele>26.6</ele>
        <time>2023-10-06T13:19:54Z</time>
      </trkpt>
      <trkpt lat="49.87691" lon="2.34995">
        <ele>26.5</ele>
        <time>2023-10-06T13:19:55Z</time>
      </trkpt>
      <trkpt lat="49.87691" lon="2.34994">
        <ele>26.5</ele>
        <time>2023-10-06T13:19:56Z</time>
      </trkpt>
      <trkpt lat="49.87691" lon="2.34992">
        <ele>26.5</ele>
        <time>2023-10-06T13:19:57Z</time>
      </trkpt>
      <trkpt lat="49.87691" lon="2.3499">
        <ele>26.5</ele>
        <time>2023-10-06T13:19:58Z</time>
      </trkpt>
      <trkpt lat="49.87691" lon="2.34989">
        <ele>26.5</ele>
        <time>2023-10-06T13:19:59Z</time>
      </trkpt>
      <trkpt lat="49.87691" lon="2.34987">
        <ele>26.5</ele>
        <time>2023-10-06T13:20:00Z</time>
      </trkpt>
      <trkpt lat="49.87691" lon="2.34986">
        <ele>26.5</ele>
        <time>2023-10-06T13:20:01Z</time>
      </trkpt>
      <trkpt lat="49.87691" lon="2.34984">
        <ele>26.5</ele>
        <time>2023-10-06T13:20:02Z</time>
      </trkpt>
      <trkpt lat="49.87691" lon="2.34983">
        <ele>26.4</ele>
        <time>2023-10-06T13:20:03Z</time>
      </trkpt>
      <trkpt lat="49.87691" lon="2.34981">
        <ele>26.4</ele>
        <time>2023-10-06T13:20:04Z</time>
      </trkpt>
      <trkpt lat="49.87691" lon="2.34979">
        <ele>26.4</ele>
        <time>2023-10-06T13:20:05Z</time>
      </trkpt>
      <trkpt lat="49.87691" lon="2.34978">
        <ele>26.4</ele>
        <time>2023-10-06T13:20:06Z</time>
      </trkpt>
      <trkpt lat="49.87691" lon="2.34977">
        <ele>26.4</ele>
        <time>2023-10-06T13:20:07Z</time>
      </trkpt>
      <trkpt lat="49.87692" lon="2.34975">
        <ele>26.4</ele>
        <time>2023-10-06T13:20:08Z</time>
      </trkpt>
      <trkpt lat="49.87692" lon="2.34974">
        <ele>26.4</ele>
        <time>2023-10-06T13:20:09Z</time>
      </trkpt>
      <trkpt lat="49.87692" lon="2.34973">
        <ele>26.4</ele>
        <time>2023-10-06T13:20:10Z</time>
      </trkpt>
      <trkpt lat="49.87692" lon="2.34972">
        <ele>26.4</ele>
        <time>2023-10-06T13:20:11Z</time>
      </trkpt>
      <trkpt lat="49.87692" lon="2.34971">
        <ele>26.4</ele>
        <time>2023-10-06T13:20:12Z</time>
      </trkpt>
      <trkpt lat="49.87692" lon="2.3497">
        <ele>26.3</ele>
        <time>2023-10-06T13:20:13Z</time>
      </trkpt>
      <trkpt lat="49.87692" lon="2.34968">
        <ele>26.3</ele>
        <time>2023-10-06T13:20:14Z</time>
      </trkpt>
      <trkpt lat="49.87693" lon="2.34967">
        <ele>26.3</ele>
        <time>2023-10-06T13:20:15Z</time>
      </trkpt>
      <trkpt lat="49.87693" lon="2.34966">
        <ele>26.3</ele>
        <time>2023-10-06T13:20:16Z</time>
      </trkpt>
      <trkpt lat="49.87693" lon="2.34965">
        <ele>26.3</ele>
        <time>2023-10-06T13:20:17Z</time>
      </trkpt>
      <trkpt lat="49.87693" lon="2.34963">
        <ele>26.3</ele>
        <time>2023-10-06T13:20:18Z</time>
      </trkpt>
      <trkpt lat="49.87693" lon="2.34962">
        <ele>26.3</ele>
        <time>2023-10-06T13:20:19Z</time>
      </trkpt>
      <trkpt lat="49.87693" lon="2.3496">
        <ele>26.3</ele>
        <time>2023-10-06T13:20:20Z</time>
      </trkpt>
      <trkpt lat="49.87693" lon="2.34959">
        <ele>26.3</ele>
        <time>2023-10-06T13:20:21Z</time>
      </trkpt>
      <trkpt lat="49.87694" lon="2.34957">
        <ele>26.3</ele>
        <time>2023-10-06T13:20:22Z</time>
      </trkpt>
      <trkpt lat="49.87694" lon="2.34956">
        <ele>26.3</ele>
        <time>2023-10-06T13:20:23Z</time>
      </trkpt>
      <trkpt lat="49.87694" lon="2.34955">
        <ele>26.3</ele>
        <time>2023-10-06T13:20:24Z</time>
      </trkpt>
      <trkpt lat="49.87695" lon="2.34953">
        <ele>26.3</ele>
        <time>2023-10-06T13:20:25Z</time>
      </trkpt>
      <trkpt lat="49.87695" lon="2.34952">
        <ele>26.4</ele>
        <time>2023-10-06T13:20:26Z</time>
      </trkpt>
      <trkpt lat="49.87695" lon="2.3495">
        <ele>26.4</ele>
        <time>2023-10-06T13:20:27Z</time>
      </trkpt>
      <trkpt lat="49.87696" lon="2.34949">
        <ele>26.4</ele>
        <time>2023-10-06T13:20:28Z</time>
      </trkpt>
      <trkpt lat="49.87696" lon="2.34947">
        <ele>26.4</ele>
        <time>2023-10-06T13:20:29Z</time>
      </trkpt>
      <trkpt lat="49.87696" lon="2.34946">
        <ele>26.4</ele>
        <time>2023-10-06T13:20:30Z</time>
      </trkpt>
      <trkpt lat="49.87696" lon="2.34943">
        <ele>26.4</ele>
        <time>2023-10-06T13:20:31Z</time>
      </trkpt>
      <trkpt lat="49.87696" lon="2.34942">
        <ele>26.4</ele>
        <time>2023-10-06T13:20:32Z</time>
      </trkpt>
      <trkpt lat="49.87696" lon="2.34941">
        <ele>26.4</ele>
        <time>2023-10-06T13:20:33Z</time>
      </trkpt>
      <trkpt lat="49.87696" lon="2.3494">
        <ele>26.4</ele>
        <time>2023-10-06T13:20:34Z</time>
      </trkpt>
      <trkpt lat="49.87696" lon="2.34938">
        <ele>26.4</ele>
        <time>2023-10-06T13:20:35Z</time>
      </trkpt>
      <trkpt lat="49.87696" lon="2.34937">
        <ele>26.4</ele>
        <time>2023-10-06T13:20:36Z</time>
      </trkpt>
      <trkpt lat="49.87697" lon="2.34935">
        <ele>26.4</ele>
        <time>2023-10-06T13:20:37Z</time>
      </trkpt>
      <trkpt lat="49.87697" lon="2.34934">
        <ele>26.4</ele>
        <time>2023-10-06T13:20:38Z</time>
      </trkpt>
      <trkpt lat="49.87697" lon="2.34932">
        <ele>26.4</ele>
        <time>2023-10-06T13:20:39Z</time>
      </trkpt>
      <trkpt lat="49.87698" lon="2.34931">
        <ele>26.5</ele>
        <time>2023-10-06T13:20:40Z</time>
      </trkpt>
      <trkpt lat="49.87698" lon="2.34929">
        <ele>26.5</ele>
        <time>2023-10-06T13:20:41Z</time>
      </trkpt>
      <trkpt lat="49.87699" lon="2.34928">
        <ele>26.5</ele>
        <time>2023-10-06T13:20:42Z</time>
      </trkpt>
      <trkpt lat="49.87699" lon="2.34926">
        <ele>26.5</ele>
        <time>2023-10-06T13:20:43Z</time>
      </trkpt>
      <trkpt lat="49.877" lon="2.34925">
        <ele>26.5</ele>
        <time>2023-10-06T13:20:44Z</time>
      </trkpt>
      <trkpt lat="49.877" lon="2.34923">
        <ele>26.5</ele>
        <time>2023-10-06T13:20:45Z</time>
      </trkpt>
      <trkpt lat="49.877" lon="2.34922">
        <ele>26.5</ele>
        <time>2023-10-06T13:20:46Z</time>
      </trkpt>
      <trkpt lat="49.877" lon="2.3492">
        <ele>26.5</ele>
        <time>2023-10-06T13:20:47Z</time>
      </trkpt>
      <trkpt lat="49.87701" lon="2.34918">
        <ele>26.5</ele>
        <time>2023-10-06T13:20:48Z</time>
      </trkpt>
      <trkpt lat="49.87701" lon="2.34917">
        <ele>26.5</ele>
        <time>2023-10-06T13:20:49Z</time>
      </trkpt>
      <trkpt lat="49.87701" lon="2.34915">
        <ele>26.5</ele>
        <time>2023-10-06T13:20:50Z</time>
      </trkpt>
      <trkpt lat="49.87701" lon="2.34913">
        <ele>26.5</ele>
        <time>2023-10-06T13:20:51Z</time>
      </trkpt>
      <trkpt lat="49.87701" lon="2.34911">
        <ele>26.5</ele>
        <time>2023-10-06T13:20:52Z</time>
      </trkpt>
      <trkpt lat="49.87701" lon="2.34909">
        <ele>26.5</ele>
        <time>2023-10-06T13:20:53Z</time>
      </trkpt>
      <trkpt lat="49.87701" lon="2.34908">
        <ele>26.5</ele>
        <time>2023-10-06T13:20:54Z</time>
      </trkpt>
      <trkpt lat="49.87702" lon="2.34906">
        <ele>26.5</ele>
        <time>2023-10-06T13:20:55Z</time>
      </trkpt>
      <trkpt lat="49.87702" lon="2.34905">
        <ele>26.6</ele>
        <time>2023-10-06T13:20:56Z</time>
      </trkpt>
      <trkpt lat="49.87702" lon="2.34903">
        <ele>26.6</ele>
        <time>2023-10-06T13:20:57Z</time>
      </trkpt>
      <trkpt lat="49.87702" lon="2.34902">
        <ele>26.6</ele>
        <time>2023-10-06T13:20:58Z</time>
      </trkpt>
      <trkpt lat="49.87702" lon="2.349">
        <ele>26.6</ele>
        <time>2023-10-06T13:20:59Z</time>
      </trkpt>
      <trkpt lat="49.87702" lon="2.34899">
        <ele>26.6</ele>
        <time>2023-10-06T13:21:00Z</time>
      </trkpt>
      <trkpt lat="49.87703" lon="2.34898">
        <ele>26.6</ele>
        <time>2023-10-06T13:21:01Z</time>
      </trkpt>
      <trkpt lat="49.87703" lon="2.34897">
        <ele>26.6</ele>
        <time>2023-10-06T13:21:02Z</time>
      </trkpt>
      <trkpt lat="49.87703" lon="2.34895">
        <ele>26.6</ele>
        <time>2023-10-06T13:21:03Z</time>
      </trkpt>
      <trkpt lat="49.87703" lon="2.34894">
        <ele>26.6</ele>
        <time>2023-10-06T13:21:04Z</time>
      </trkpt>
      <trkpt lat="49.87703" lon="2.34893">
        <ele>26.6</ele>
        <time>2023-10-06T13:21:05Z</time>
      </trkpt>
      <trkpt lat="49.87703" lon="2.34891">
        <ele>26.6</ele>
        <time>2023-10-06T13:21:06Z</time>
      </trkpt>
      <trkpt lat="49.87703" lon="2.3489">
        <ele>26.6</ele>
        <time>2023-10-06T13:21:07Z</time>
      </trkpt>
      <trkpt lat="49.87703" lon="2.34888">
        <ele>26.6</ele>
        <time>2023-10-06T13:21:08Z</time>
      </trkpt>
      <trkpt lat="49.87703" lon="2.34887">
        <ele>26.6</ele>
        <time>2023-10-06T13:21:09Z</time>
      </trkpt>
      <trkpt lat="49.87703" lon="2.34885">
        <ele>26.6</ele>
        <time>2023-10-06T13:21:10Z</time>
      </trkpt>
      <trkpt lat="49.87703" lon="2.34884">
        <ele>26.6</ele>
        <time>2023-10-06T13:21:11Z</time>
      </trkpt>
      <trkpt lat="49.87703" lon="2.34881">
        <ele>26.7</ele>
        <time>2023-10-06T13:21:12Z</time>
      </trkpt>
      <trkpt lat="49.87703" lon="2.3488">
        <ele>26.7</ele>
        <time>2023-10-06T13:21:13Z</time>
      </trkpt>
      <trkpt lat="49.87703" lon="2.34879">
        <ele>26.7</ele>
        <time>2023-10-06T13:21:14Z</time>
      </trkpt>
      <trkpt lat="49.87703" lon="2.34878">
        <ele>26.7</ele>
        <time>2023-10-06T13:21:15Z</time>
      </trkpt>
      <trkpt lat="49.87703" lon="2.34876">
        <ele>26.7</ele>
        <time>2023-10-06T13:21:16Z</time>
      </trkpt>
      <trkpt lat="49.87703" lon="2.34875">
        <ele>26.7</ele>
        <time>2023-10-06T13:21:17Z</time>
      </trkpt>
      <trkpt lat="49.87703" lon="2.34873">
        <ele>26.7</ele>
        <time>2023-10-06T13:21:18Z</time>
      </trkpt>
      <trkpt lat="49.87703" lon="2.34872">
        <ele>26.7</ele>
        <time>2023-10-06T13:21:19Z</time>
      </trkpt>
      <trkpt lat="49.87703" lon="2.3487">
        <ele>26.7</ele>
        <time>2023-10-06T13:21:20Z</time>
      </trkpt>
      <trkpt lat="49.87703" lon="2.34868">
        <ele>26.7</ele>
        <time>2023-10-06T13:21:21Z</time>
      </trkpt>
      <trkpt lat="49.87703" lon="2.34867">
        <ele>26.7</ele>
        <time>2023-10-06T13:21:22Z</time>
      </trkpt>
      <trkpt lat="49.87703" lon="2.34865">
        <ele>26.7</ele>
        <time>2023-10-06T13:21:23Z</time>
      </trkpt>
      <trkpt lat="49.87703" lon="2.34863">
        <ele>26.7</ele>
        <time>2023-10-06T13:21:24Z</time>
      </trkpt>
      <trkpt lat="49.87703" lon="2.34861">
        <ele>26.7</ele>
        <time>2023-10-06T13:21:25Z</time>
      </trkpt>
      <trkpt lat="49.87703" lon="2.34859">
        <ele>26.7</ele>
        <time>2023-10-06T13:21:26Z</time>
      </trkpt>
      <trkpt lat="49.87702" lon="2.34858">
        <ele>26.7</ele>
        <time>2023-10-06T13:21:27Z</time>
      </trkpt>
      <trkpt lat="49.87702" lon="2.34856">
        <ele>26.6</ele>
        <time>2023-10-06T13:21:28Z</time>
      </trkpt>
      <trkpt lat="49.87702" lon="2.34854">
        <ele>26.6</ele>
        <time>2023-10-06T13:21:29Z</time>
      </trkpt>
      <trkpt lat="49.87702" lon="2.34853">
        <ele>26.6</ele>
        <time>2023-10-06T13:21:30Z</time>
      </trkpt>
      <trkpt lat="49.87701" lon="2.34851">
        <ele>26.6</ele>
        <time>2023-10-06T13:21:31Z</time>
      </trkpt>
      <trkpt lat="49.87701" lon="2.3485">
        <ele>26.6</ele>
        <time>2023-10-06T13:21:32Z</time>
      </trkpt>
      <trkpt lat="49.87701" lon="2.34848">
        <ele>26.6</ele>
        <time>2023-10-06T13:21:33Z</time>
      </trkpt>
      <trkpt lat="49.87701" lon="2.34846">
        <ele>26.6</ele>
        <time>2023-10-06T13:21:34Z</time>
      </trkpt>
      <trkpt lat="49.877" lon="2.34845">
        <ele>26.6</ele>
        <time>2023-10-06T13:21:35Z</time>
      </trkpt>
      <trkpt lat="49.877" lon="2.34843">
        <ele>26.5</ele>
        <time>2023-10-06T13:21:36Z</time>
      </trkpt>
      <trkpt lat="49.87699" lon="2.34841">
        <ele>26.5</ele>
        <time>2023-10-06T13:21:37Z</time>
      </trkpt>
      <trkpt lat="49.87699" lon="2.3484">
        <ele>26.5</ele>
        <time>2023-10-06T13:21:38Z</time>
      </trkpt>
      <trkpt lat="49.87699" lon="2.34838">
        <ele>26.5</ele>
        <time>2023-10-06T13:21:39Z</time>
      </trkpt>
      <trkpt lat="49.87699" lon="2.34837">
        <ele>26.5</ele>
        <time>2023-10-06T13:21:40Z</time>
      </trkpt>
      <trkpt lat="49.87699" lon="2.34836">
        <ele>26.5</ele>
        <time>2023-10-06T13:21:41Z</time>
      </trkpt>
      <trkpt lat="49.87699" lon="2.34834">
        <ele>26.5</ele>
        <time>2023-10-06T13:21:42Z</time>
      </trkpt>
      <trkpt lat="49.87698" lon="2.34833">
        <ele>26.5</ele>
        <time>2023-10-06T13:21:43Z</time>
      </trkpt>
      <trkpt lat="49.87698" lon="2.34831">
        <ele>26.4</ele>
        <time>2023-10-06T13:21:44Z</time>
      </trkpt>
      <trkpt lat="49.87698" lon="2.3483">
        <ele>26.4</ele>
        <time>2023-10-06T13:21:45Z</time>
      </trkpt>
      <trkpt lat="49.87698" lon="2.34829">
        <ele>26.4</ele>
        <time>2023-10-06T13:21:46Z</time>
      </trkpt>
      <trkpt lat="49.87698" lon="2.34827">
        <ele>26.4</ele>
        <time>2023-10-06T13:21:47Z</time>
      </trkpt>
      <trkpt lat="49.87698" lon="2.34826">
        <ele>26.4</ele>
        <time>2023-10-06T13:21:48Z</time>
      </trkpt>
      <trkpt lat="49.87698" lon="2.34825">
        <ele>26.4</ele>
        <time>2023-10-06T13:21:49Z</time>
      </trkpt>
      <trkpt lat="49.87698" lon="2.34823">
        <ele>26.3</ele>
        <time>2023-10-06T13:21:50Z</time>
      </trkpt>
      <trkpt lat="49.87699" lon="2.34822">
        <ele>26.3</ele>
        <time>2023-10-06T13:21:51Z</time>
      </trkpt>
      <trkpt lat="49.87699" lon="2.3482">
        <ele>26.3</ele>
        <time>2023-10-06T13:21:52Z</time>
      </trkpt>
      <trkpt lat="49.87699" lon="2.34819">
        <ele>26.3</ele>
        <time>2023-10-06T13:21:53Z</time>
      </trkpt>
      <trkpt lat="49.87699" lon="2.34817">
        <ele>26.3</ele>
        <time>2023-10-06T13:21:54Z</time>
      </trkpt>
      <trkpt lat="49.87699" lon="2.34815">
        <ele>26.3</ele>
        <time>2023-10-06T13:21:55Z</time>
      </trkpt>
      <trkpt lat="49.877" lon="2.34814">
        <ele>26.2</ele>
        <time>2023-10-06T13:21:56Z</time>
      </trkpt>
      <trkpt lat="49.877" lon="2.34813">
        <ele>26.2</ele>
        <time>2023-10-06T13:21:57Z</time>
      </trkpt>
      <trkpt lat="49.87701" lon="2.3481">
        <ele>26.2</ele>
        <time>2023-10-06T13:21:58Z</time>
      </trkpt>
      <trkpt lat="49.87701" lon="2.34809">
        <ele>26.2</ele>
        <time>2023-10-06T13:21:59Z</time>
      </trkpt>
      <trkpt lat="49.87701" lon="2.34808">
        <ele>26.1</ele>
        <time>2023-10-06T13:22:00Z</time>
      </trkpt>
      <trkpt lat="49.87702" lon="2.34806">
        <ele>26.1</ele>
        <time>2023-10-06T13:22:01Z</time>
      </trkpt>
      <trkpt lat="49.87702" lon="2.34804">
        <ele>26.1</ele>
        <time>2023-10-06T13:22:02Z</time>
      </trkpt>
      <trkpt lat="49.87703" lon="2.34802">
        <ele>26.1</ele>
        <time>2023-10-06T13:22:03Z</time>
      </trkpt>
      <trkpt lat="49.87703" lon="2.34801">
        <ele>26</ele>
        <time>2023-10-06T13:22:04Z</time>
      </trkpt>
      <trkpt lat="49.87704" lon="2.34799">
        <ele>26</ele>
        <time>2023-10-06T13:22:05Z</time>
      </trkpt>
      <trkpt lat="49.87705" lon="2.34796">
        <ele>26</ele>
        <time>2023-10-06T13:22:06Z</time>
      </trkpt>
      <trkpt lat="49.87705" lon="2.34795">
        <ele>26</ele>
        <time>2023-10-06T13:22:07Z</time>
      </trkpt>
      <trkpt lat="49.87705" lon="2.34794">
        <ele>25.9</ele>
        <time>2023-10-06T13:22:08Z</time>
      </trkpt>
      <trkpt lat="49.87706" lon="2.34791">
        <ele>25.9</ele>
        <time>2023-10-06T13:22:09Z</time>
      </trkpt>
      <trkpt lat="49.87707" lon="2.34789">
        <ele>25.9</ele>
        <time>2023-10-06T13:22:10Z</time>
      </trkpt>
      <trkpt lat="49.87707" lon="2.34788">
        <ele>25.9</ele>
        <time>2023-10-06T13:22:11Z</time>
      </trkpt>
      <trkpt lat="49.87708" lon="2.34785">
        <ele>25.8</ele>
        <time>2023-10-06T13:22:12Z</time>
      </trkpt>
      <trkpt lat="49.87709" lon="2.34784">
        <ele>25.8</ele>
        <time>2023-10-06T13:22:13Z</time>
      </trkpt>
      <trkpt lat="49.87709" lon="2.34783">
        <ele>25.8</ele>
        <time>2023-10-06T13:22:14Z</time>
      </trkpt>
      <trkpt lat="49.8771" lon="2.3478">
        <ele>25.8</ele>
        <time>2023-10-06T13:22:15Z</time>
      </trkpt>
      <trkpt lat="49.8771" lon="2.34779">
        <ele>25.8</ele>
        <time>2023-10-06T13:22:16Z</time>
      </trkpt>
      <trkpt lat="49.87711" lon="2.34778">
        <ele>25.8</ele>
        <time>2023-10-06T13:22:17Z</time>
      </trkpt>
      <trkpt lat="49.87712" lon="2.34775">
        <ele>25.7</ele>
        <time>2023-10-06T13:22:18Z</time>
      </trkpt>
      <trkpt lat="49.87712" lon="2.34774">
        <ele>25.7</ele>
        <time>2023-10-06T13:22:19Z</time>
      </trkpt>
      <trkpt lat="49.87712" lon="2.34773">
        <ele>25.7</ele>
        <time>2023-10-06T13:22:20Z</time>
      </trkpt>
      <trkpt lat="49.87713" lon="2.34771">
        <ele>25.7</ele>
        <time>2023-10-06T13:22:21Z</time>
      </trkpt>
      <trkpt lat="49.87713" lon="2.34769">
        <ele>25.7</ele>
        <time>2023-10-06T13:22:22Z</time>
      </trkpt>
      <trkpt lat="49.87713" lon="2.34768">
        <ele>25.7</ele>
        <time>2023-10-06T13:22:23Z</time>
      </trkpt>
      <trkpt lat="49.87713" lon="2.34766">
        <ele>25.7</ele>
        <time>2023-10-06T13:22:24Z</time>
      </trkpt>
      <trkpt lat="49.87713" lon="2.34764">
        <ele>25.6</ele>
        <time>2023-10-06T13:22:25Z</time>
      </trkpt>
      <trkpt lat="49.87713" lon="2.34763">
        <ele>25.6</ele>
        <time>2023-10-06T13:22:26Z</time>
      </trkpt>
      <trkpt lat="49.87712" lon="2.34761">
        <ele>25.6</ele>
        <time>2023-10-06T13:22:27Z</time>
      </trkpt>
      <trkpt lat="49.87711" lon="2.3476">
        <ele>25.6</ele>
        <time>2023-10-06T13:22:28Z</time>
      </trkpt>
      <trkpt lat="49.8771" lon="2.34759">
        <ele>25.6</ele>
        <time>2023-10-06T13:22:29Z</time>
      </trkpt>
      <trkpt lat="49.87708" lon="2.34758">
        <ele>25.5</ele>
        <time>2023-10-06T13:22:30Z</time>
      </trkpt>
      <trkpt lat="49.87708" lon="2.34757">
        <ele>25.5</ele>
        <time>2023-10-06T13:22:31Z</time>
      </trkpt>
      <trkpt lat="49.87707" lon="2.34757">
        <ele>25.5</ele>
        <time>2023-10-06T13:22:32Z</time>
      </trkpt>
      <trkpt lat="49.87705" lon="2.34756">
        <ele>25.5</ele>
        <time>2023-10-06T13:22:33Z</time>
      </trkpt>
      <trkpt lat="49.87704" lon="2.34755">
        <ele>25.5</ele>
        <time>2023-10-06T13:22:34Z</time>
      </trkpt>
      <trkpt lat="49.87703" lon="2.34755">
        <ele>25.4</ele>
        <time>2023-10-06T13:22:35Z</time>
      </trkpt>
      <trkpt lat="49.87701" lon="2.34755">
        <ele>25.4</ele>
        <time>2023-10-06T13:22:36Z</time>
      </trkpt>
      <trkpt lat="49.877" lon="2.34755">
        <ele>25.4</ele>
        <time>2023-10-06T13:22:37Z</time>
      </trkpt>
      <trkpt lat="49.87699" lon="2.34754">
        <ele>25.4</ele>
        <time>2023-10-06T13:22:38Z</time>
      </trkpt>
      <trkpt lat="49.87698" lon="2.34754">
        <ele>25.4</ele>
        <time>2023-10-06T13:22:39Z</time>
      </trkpt>
      <trkpt lat="49.87697" lon="2.34754">
        <ele>25.3</ele>
        <time>2023-10-06T13:22:40Z</time>
      </trkpt>
      <trkpt lat="49.87696" lon="2.34754">
        <ele>25.3</ele>
        <time>2023-10-06T13:22:41Z</time>
      </trkpt>
      <trkpt lat="49.87695" lon="2.34754">
        <ele>25.3</ele>
        <time>2023-10-06T13:22:42Z</time>
      </trkpt>
      <trkpt lat="49.87694" lon="2.34754">
        <ele>25.3</ele>
        <time>2023-10-06T13:22:43Z</time>
      </trkpt>
      <trkpt lat="49.87693" lon="2.34754">
        <ele>25.3</ele>
        <time>2023-10-06T13:22:44Z</time>
      </trkpt>
      <trkpt lat="49.87693" lon="2.34755">
        <ele>25.3</ele>
        <time>2023-10-06T13:22:45Z</time>
      </trkpt>
      <trkpt lat="49.87692" lon="2.34755">
        <ele>25.3</ele>
        <time>2023-10-06T13:22:46Z</time>
      </trkpt>
      <trkpt lat="49.87692" lon="2.34755">
        <ele>25.3</ele>
        <time>2023-10-06T13:22:47Z</time>
      </trkpt>
      <trkpt lat="49.87692" lon="2.34755">
        <ele>25.3</ele>
        <time>2023-10-06T13:22:48Z</time>
      </trkpt>
      <trkpt lat="49.87692" lon="2.34755">
        <ele>25.3</ele>
        <time>2023-10-06T13:22:49Z</time>
      </trkpt>
      <trkpt lat="49.87692" lon="2.34755">
        <ele>25.3</ele>
        <time>2023-10-06T13:22:50Z</time>
      </trkpt>
      <trkpt lat="49.87692" lon="2.34755">
        <ele>25.3</ele>
        <time>2023-10-06T13:22:51Z</time>
      </trkpt>
      <trkpt lat="49.87692" lon="2.34754">
        <ele>25.3</ele>
        <time>2023-10-06T13:22:52Z</time>
      </trkpt>
      <trkpt lat="49.87691" lon="2.34754">
        <ele>25.2</ele>
        <time>2023-10-06T13:22:53Z</time>
      </trkpt>
      <trkpt lat="49.87691" lon="2.34753">
        <ele>25.2</ele>
        <time>2023-10-06T13:22:54Z</time>
      </trkpt>
      <trkpt lat="49.8769" lon="2.34752">
        <ele>25.2</ele>
        <time>2023-10-06T13:22:55Z</time>
      </trkpt>
      <trkpt lat="49.8769" lon="2.34752">
        <ele>25.2</ele>
        <time>2023-10-06T13:22:56Z</time>
      </trkpt>
      <trkpt lat="49.87689" lon="2.34751">
        <ele>25.2</ele>
        <time>2023-10-06T13:22:57Z</time>
      </trkpt>
      <trkpt lat="49.87689" lon="2.34751">
        <ele>25.2</ele>
        <time>2023-10-06T13:22:58Z</time>
      </trkpt>
      <trkpt lat="49.87688" lon="2.3475">
        <ele>25.2</ele>
        <time>2023-10-06T13:22:59Z</time>
      </trkpt>
      <trkpt lat="49.87688" lon="2.3475">
        <ele>25.2</ele>
        <time>2023-10-06T13:23:00Z</time>
      </trkpt>
      <trkpt lat="49.87687" lon="2.3475">
        <ele>25.2</ele>
        <time>2023-10-06T13:23:01Z</time>
      </trkpt>
      <trkpt lat="49.87686" lon="2.34749">
        <ele>25.2</ele>
        <time>2023-10-06T13:23:02Z</time>
      </trkpt>
      <trkpt lat="49.87685" lon="2.34749">
        <ele>25.2</ele>
        <time>2023-10-06T13:23:03Z</time>
      </trkpt>
      <trkpt lat="49.87685" lon="2.34749">
        <ele>25.2</ele>
        <time>2023-10-06T13:23:04Z</time>
      </trkpt>
      <trkpt lat="49.87684" lon="2.34748">
        <ele>25.2</ele>
        <time>2023-10-06T13:23:05Z</time>
      </trkpt>
      <trkpt lat="49.87684" lon="2.34748">
        <ele>25.2</ele>
        <time>2023-10-06T13:23:06Z</time>
      </trkpt>
      <trkpt lat="49.87683" lon="2.34747">
        <ele>25.2</ele>
        <time>2023-10-06T13:23:07Z</time>
      </trkpt>
      <trkpt lat="49.87682" lon="2.34747">
        <ele>25.2</ele>
        <time>2023-10-06T13:23:08Z</time>
      </trkpt>
      <trkpt lat="49.87682" lon="2.34746">
        <ele>25.2</ele>
        <time>2023-10-06T13:23:09Z</time>
      </trkpt>
      <trkpt lat="49.87681" lon="2.34746">
        <ele>25.2</ele>
        <time>2023-10-06T13:23:10Z</time>
      </trkpt>
      <trkpt lat="49.8768" lon="2.34745">
        <ele>25.2</ele>
        <time>2023-10-06T13:23:11Z</time>
      </trkpt>
      <trkpt lat="49.87679" lon="2.34745">
        <ele>25.2</ele>
        <time>2023-10-06T13:23:12Z</time>
      </trkpt>
      <trkpt lat="49.87678" lon="2.34744">
        <ele>25.2</ele>
        <time>2023-10-06T13:23:13Z</time>
      </trkpt>
      <trkpt lat="49.87678" lon="2.34743">
        <ele>25.2</ele>
        <time>2023-10-06T13:23:14Z</time>
      </trkpt>
      <trkpt lat="49.87677" lon="2.34742">
        <ele>25.2</ele>
        <time>2023-10-06T13:23:15Z</time>
      </trkpt>
      <trkpt lat="49.87676" lon="2.34741">
        <ele>25.2</ele>
        <time>2023-10-06T13:23:16Z</time>
      </trkpt>
      <trkpt lat="49.87675" lon="2.3474">
        <ele>25.2</ele>
        <time>2023-10-06T13:23:17Z</time>
      </trkpt>
      <trkpt lat="49.87674" lon="2.3474">
        <ele>25.2</ele>
        <time>2023-10-06T13:23:18Z</time>
      </trkpt>
      <trkpt lat="49.87673" lon="2.34739">
        <ele>25.2</ele>
        <time>2023-10-06T13:23:19Z</time>
      </trkpt>
      <trkpt lat="49.87672" lon="2.34738">
        <ele>25.1</ele>
        <time>2023-10-06T13:23:20Z</time>
      </trkpt>
      <trkpt lat="49.87671" lon="2.34737">
        <ele>25.1</ele>
        <time>2023-10-06T13:23:21Z</time>
      </trkpt>
      <trkpt lat="49.8767" lon="2.34736">
        <ele>25.1</ele>
        <time>2023-10-06T13:23:22Z</time>
      </trkpt>
      <trkpt lat="49.87669" lon="2.34736">
        <ele>25.1</ele>
        <time>2023-10-06T13:23:23Z</time>
      </trkpt>
      <trkpt lat="49.87668" lon="2.34735">
        <ele>25.1</ele>
        <time>2023-10-06T13:23:24Z</time>
      </trkpt>
      <trkpt lat="49.87667" lon="2.34735">
        <ele>25.1</ele>
        <time>2023-10-06T13:23:25Z</time>
      </trkpt>
      <trkpt lat="49.87666" lon="2.34734">
        <ele>25.1</ele>
        <time>2023-10-06T13:23:26Z</time>
      </trkpt>
      <trkpt lat="49.87665" lon="2.34733">
        <ele>25.1</ele>
        <time>2023-10-06T13:23:27Z</time>
      </trkpt>
      <trkpt lat="49.87665" lon="2.34733">
        <ele>25.1</ele>
        <time>2023-10-06T13:23:28Z</time>
      </trkpt>
      <trkpt lat="49.87664" lon="2.34733">
        <ele>25.1</ele>
        <time>2023-10-06T13:23:29Z</time>
      </trkpt>
      <trkpt lat="49.87663" lon="2.34732">
        <ele>25.1</ele>
        <time>2023-10-06T13:23:30Z</time>
      </trkpt>
      <trkpt lat="49.87662" lon="2.34732">
        <ele>25.1</ele>
        <time>2023-10-06T13:23:31Z</time>
      </trkpt>
      <trkpt lat="49.8766" lon="2.34732">
        <ele>25.1</ele>
        <time>2023-10-06T13:23:32Z</time>
      </trkpt>
      <trkpt lat="49.8766" lon="2.34731">
        <ele>25.1</ele>
        <time>2023-10-06T13:23:33Z</time>
      </trkpt>
      <trkpt lat="49.87659" lon="2.34731">
        <ele>25.1</ele>
        <time>2023-10-06T13:23:34Z</time>
      </trkpt>
      <trkpt lat="49.87658" lon="2.34731">
        <ele>25.1</ele>
        <time>2023-10-06T13:23:35Z</time>
      </trkpt>
      <trkpt lat="49.87657" lon="2.3473">
        <ele>25.1</ele>
        <time>2023-10-06T13:23:36Z</time>
      </trkpt>
      <trkpt lat="49.87656" lon="2.3473">
        <ele>25.1</ele>
        <time>2023-10-06T13:23:37Z</time>
      </trkpt>
      <trkpt lat="49.87655" lon="2.34729">
        <ele>25.1</ele>
        <time>2023-10-06T13:23:38Z</time>
      </trkpt>
      <trkpt lat="49.87654" lon="2.34729">
        <ele>25.1</ele>
        <time>2023-10-06T13:23:39Z</time>
      </trkpt>
      <trkpt lat="49.87653" lon="2.34728">
        <ele>25.1</ele>
        <time>2023-10-06T13:23:40Z</time>
      </trkpt>
      <trkpt lat="49.87652" lon="2.34727">
        <ele>25.1</ele>
        <time>2023-10-06T13:23:41Z</time>
      </trkpt>
      <trkpt lat="49.87651" lon="2.34726">
        <ele>25.1</ele>
        <time>2023-10-06T13:23:42Z</time>
      </trkpt>
      <trkpt lat="49.8765" lon="2.34726">
        <ele>25.1</ele>
        <time>2023-10-06T13:23:43Z</time>
      </trkpt>
      <trkpt lat="49.87649" lon="2.34725">
        <ele>25.1</ele>
        <time>2023-10-06T13:23:44Z</time>
      </trkpt>
      <trkpt lat="49.87648" lon="2.34725">
        <ele>25.1</ele>
        <time>2023-10-06T13:23:45Z</time>
      </trkpt>
      <trkpt lat="49.87647" lon="2.34724">
        <ele>25.1</ele>
        <time>2023-10-06T13:23:46Z</time>
      </trkpt>
      <trkpt lat="49.87647" lon="2.34724">
        <ele>25.1</ele>
        <time>2023-10-06T13:23:47Z</time>
      </trkpt>
      <trkpt lat="49.87646" lon="2.34723">
        <ele>25.1</ele>
        <time>2023-10-06T13:23:48Z</time>
      </trkpt>
      <trkpt lat="49.87645" lon="2.34722">
        <ele>25.1</ele>
        <time>2023-10-06T13:23:49Z</time>
      </trkpt>
      <trkpt lat="49.87644" lon="2.34721">
        <ele>25.2</ele>
        <time>2023-10-06T13:23:50Z</time>
      </trkpt>
      <trkpt lat="49.87644" lon="2.3472">
        <ele>25.2</ele>
        <time>2023-10-06T13:23:51Z</time>
      </trkpt>
      <trkpt lat="49.87643" lon="2.34719">
        <ele>25.2</ele>
        <time>2023-10-06T13:23:52Z</time>
      </trkpt>
      <trkpt lat="49.87643" lon="2.34718">
        <ele>25.2</ele>
        <time>2023-10-06T13:23:53Z</time>
      </trkpt>
      <trkpt lat="49.87642" lon="2.34717">
        <ele>25.2</ele>
        <time>2023-10-06T13:23:54Z</time>
      </trkpt>
      <trkpt lat="49.87641" lon="2.34715">
        <ele>25.2</ele>
        <time>2023-10-06T13:23:55Z</time>
      </trkpt>
      <trkpt lat="49.8764" lon="2.34714">
        <ele>25.2</ele>
        <time>2023-10-06T13:23:56Z</time>
      </trkpt>
      <trkpt lat="49.8764" lon="2.34713">
        <ele>25.2</ele>
        <time>2023-10-06T13:23:57Z</time>
      </trkpt>
      <trkpt lat="49.87639" lon="2.34712">
        <ele>25.2</ele>
        <time>2023-10-06T13:23:58Z</time>
      </trkpt>
      <trkpt lat="49.87638" lon="2.34711">
        <ele>25.2</ele>
        <time>2023-10-06T13:23:59Z</time>
      </trkpt>
      <trkpt lat="49.87638" lon="2.3471">
        <ele>25.2</ele>
        <time>2023-10-06T13:24:00Z</time>
      </trkpt>
      <trkpt lat="49.87637" lon="2.3471">
        <ele>25.2</ele>
        <time>2023-10-06T13:24:01Z</time>
      </trkpt>
      <trkpt lat="49.87636" lon="2.34709">
        <ele>25.3</ele>
        <time>2023-10-06T13:24:02Z</time>
      </trkpt>
      <trkpt lat="49.87635" lon="2.34709">
        <ele>25.3</ele>
        <time>2023-10-06T13:24:03Z</time>
      </trkpt>
      <trkpt lat="49.87634" lon="2.34709">
        <ele>25.3</ele>
        <time>2023-10-06T13:24:04Z</time>
      </trkpt>
      <trkpt lat="49.87633" lon="2.34709">
        <ele>25.3</ele>
        <time>2023-10-06T13:24:05Z</time>
      </trkpt>
      <trkpt lat="49.87632" lon="2.34709">
        <ele>25.3</ele>
        <time>2023-10-06T13:24:06Z</time>
      </trkpt>
      <trkpt lat="49.87631" lon="2.34709">
        <ele>25.3</ele>
        <time>2023-10-06T13:24:07Z</time>
      </trkpt>
      <trkpt lat="49.87631" lon="2.34709">
        <ele>25.3</ele>
        <time>2023-10-06T13:24:08Z</time>
      </trkpt>
      <trkpt lat="49.8763" lon="2.34709">
        <ele>25.3</ele>
        <time>2023-10-06T13:24:09Z</time>
      </trkpt>
      <trkpt lat="49.87629" lon="2.34709">
        <ele>25.3</ele>
        <time>2023-10-06T13:24:10Z</time>
      </trkpt>
      <trkpt lat="49.87628" lon="2.34708">
        <ele>25.3</ele>
        <time>2023-10-06T13:24:11Z</time>
      </trkpt>
      <trkpt lat="49.87627" lon="2.34708">
        <ele>25.4</ele>
        <time>2023-10-06T13:24:12Z</time>
      </trkpt>
      <trkpt lat="49.87626" lon="2.34707">
        <ele>25.4</ele>
        <time>2023-10-06T13:24:13Z</time>
      </trkpt>
      <trkpt lat="49.87625" lon="2.34706">
        <ele>25.4</ele>
        <time>2023-10-06T13:24:14Z</time>
      </trkpt>
      <trkpt lat="49.87624" lon="2.34706">
        <ele>25.4</ele>
        <time>2023-10-06T13:24:15Z</time>
      </trkpt>
      <trkpt lat="49.87623" lon="2.34705">
        <ele>25.4</ele>
        <time>2023-10-06T13:24:16Z</time>
      </trkpt>
      <trkpt lat="49.87622" lon="2.34704">
        <ele>25.4</ele>
        <time>2023-10-06T13:24:17Z</time>
      </trkpt>
      <trkpt lat="49.87621" lon="2.34703">
        <ele>25.4</ele>
        <time>2023-10-06T13:24:18Z</time>
      </trkpt>
      <trkpt lat="49.8762" lon="2.34703">
        <ele>25.4</ele>
        <time>2023-10-06T13:24:19Z</time>
      </trkpt>
      <trkpt lat="49.87619" lon="2.34702">
        <ele>25.4</ele>
        <time>2023-10-06T13:24:20Z</time>
      </trkpt>
      <trkpt lat="49.87619" lon="2.34701">
        <ele>25.4</ele>
        <time>2023-10-06T13:24:21Z</time>
      </trkpt>
      <trkpt lat="49.87618" lon="2.347">
        <ele>25.4</ele>
        <time>2023-10-06T13:24:22Z</time>
      </trkpt>
      <trkpt lat="49.87617" lon="2.34699">
        <ele>25.4</ele>
        <time>2023-10-06T13:24:23Z</time>
      </trkpt>
      <trkpt lat="49.87616" lon="2.34699">
        <ele>25.4</ele>
        <time>2023-10-06T13:24:24Z</time>
      </trkpt>
      <trkpt lat="49.87616" lon="2.34698">
        <ele>25.4</ele>
        <time>2023-10-06T13:24:25Z</time>
      </trkpt>
      <trkpt lat="49.87615" lon="2.34698">
        <ele>25.4</ele>
        <time>2023-10-06T13:24:26Z</time>
      </trkpt>
      <trkpt lat="49.87615" lon="2.34697">
        <ele>25.4</ele>
        <time>2023-10-06T13:24:27Z</time>
      </trkpt>
      <trkpt lat="49.87614" lon="2.34696">
        <ele>25.4</ele>
        <time>2023-10-06T13:24:28Z</time>
      </trkpt>
      <trkpt lat="49.87613" lon="2.34695">
        <ele>25.4</ele>
        <time>2023-10-06T13:24:29Z</time>
      </trkpt>
      <trkpt lat="49.87613" lon="2.34695">
        <ele>25.4</ele>
        <time>2023-10-06T13:24:30Z</time>
      </trkpt>
      <trkpt lat="49.87612" lon="2.34694">
        <ele>25.4</ele>
        <time>2023-10-06T13:24:31Z</time>
      </trkpt>
      <trkpt lat="49.87611" lon="2.34692">
        <ele>25.4</ele>
        <time>2023-10-06T13:24:32Z</time>
      </trkpt>
      <trkpt lat="49.87611" lon="2.34691">
        <ele>25.4</ele>
        <time>2023-10-06T13:24:33Z</time>
      </trkpt>
      <trkpt lat="49.8761" lon="2.34691">
        <ele>25.4</ele>
        <time>2023-10-06T13:24:34Z</time>
      </trkpt>
      <trkpt lat="49.8761" lon="2.3469">
        <ele>25.4</ele>
        <time>2023-10-06T13:24:35Z</time>
      </trkpt>
      <trkpt lat="49.87609" lon="2.34689">
        <ele>25.4</ele>
        <time>2023-10-06T13:24:36Z</time>
      </trkpt>
      <trkpt lat="49.87609" lon="2.34688">
        <ele>25.4</ele>
        <time>2023-10-06T13:24:37Z</time>
      </trkpt>
      <trkpt lat="49.87608" lon="2.34687">
        <ele>25.4</ele>
        <time>2023-10-06T13:24:38Z</time>
      </trkpt>
      <trkpt lat="49.87608" lon="2.34686">
        <ele>25.4</ele>
        <time>2023-10-06T13:24:39Z</time>
      </trkpt>
      <trkpt lat="49.87607" lon="2.34685">
        <ele>25.4</ele>
        <time>2023-10-06T13:24:40Z</time>
      </trkpt>
      <trkpt lat="49.87607" lon="2.34684">
        <ele>25.4</ele>
        <time>2023-10-06T13:24:41Z</time>
      </trkpt>
      <trkpt lat="49.87607" lon="2.34683">
        <ele>25.4</ele>
        <time>2023-10-06T13:24:42Z</time>
      </trkpt>
      <trkpt lat="49.87607" lon="2.34682">
        <ele>25.4</ele>
        <time>2023-10-06T13:24:43Z</time>
      </trkpt>
      <trkpt lat="49.87607" lon="2.34681">
        <ele>25.4</ele>
        <time>2023-10-06T13:24:44Z</time>
      </trkpt>
      <trkpt lat="49.87607" lon="2.3468">
        <ele>25.4</ele>
        <time>2023-10-06T13:24:45Z</time>
      </trkpt>
      <trkpt lat="49.87607" lon="2.34678">
        <ele>25.4</ele>
        <time>2023-10-06T13:24:46Z</time>
      </trkpt>
      <trkpt lat="49.87608" lon="2.34677">
        <ele>25.4</ele>
        <time>2023-10-06T13:24:47Z</time>
      </trkpt>
      <trkpt lat="49.87608" lon="2.34675">
        <ele>25.4</ele>
        <time>2023-10-06T13:24:48Z</time>
      </trkpt>
      <trkpt lat="49.87608" lon="2.34674">
        <ele>25.4</ele>
        <time>2023-10-06T13:24:49Z</time>
      </trkpt>
      <trkpt lat="49.87609" lon="2.34673">
        <ele>25.4</ele>
        <time>2023-10-06T13:24:50Z</time>
      </trkpt>
      <trkpt lat="49.87609" lon="2.34672">
        <ele>25.4</ele>
        <time>2023-10-06T13:24:51Z</time>
      </trkpt>
      <trkpt lat="49.87609" lon="2.3467">
        <ele>25.4</ele>
        <time>2023-10-06T13:24:52Z</time>
      </trkpt>
      <trkpt lat="49.87609" lon="2.34669">
        <ele>25.4</ele>
        <time>2023-10-06T13:24:53Z</time>
      </trkpt>
      <trkpt lat="49.8761" lon="2.34668">
        <ele>25.4</ele>
        <time>2023-10-06T13:24:54Z</time>
      </trkpt>
      <trkpt lat="49.8761" lon="2.34667">
        <ele>25.4</ele>
        <time>2023-10-06T13:24:55Z</time>
      </trkpt>
      <trkpt lat="49.8761" lon="2.34666">
        <ele>25.4</ele>
        <time>2023-10-06T13:24:56Z</time>
      </trkpt>
      <trkpt lat="49.87611" lon="2.34665">
        <ele>25.4</ele>
        <time>2023-10-06T13:24:57Z</time>
      </trkpt>
      <trkpt lat="49.87611" lon="2.34663">
        <ele>25.4</ele>
        <time>2023-10-06T13:24:58Z</time>
      </trkpt>
      <trkpt lat="49.87612" lon="2.34662">
        <ele>25.4</ele>
        <time>2023-10-06T13:24:59Z</time>
      </trkpt>
      <trkpt lat="49.87612" lon="2.34661">
        <ele>25.4</ele>
        <time>2023-10-06T13:25:00Z</time>
      </trkpt>
      <trkpt lat="49.87612" lon="2.3466">
        <ele>25.4</ele>
        <time>2023-10-06T13:25:01Z</time>
      </trkpt>
      <trkpt lat="49.87613" lon="2.34658">
        <ele>25.4</ele>
        <time>2023-10-06T13:25:02Z</time>
      </trkpt>
      <trkpt lat="49.87613" lon="2.34657">
        <ele>25.4</ele>
        <time>2023-10-06T13:25:03Z</time>
      </trkpt>
      <trkpt lat="49.87614" lon="2.34656">
        <ele>25.4</ele>
        <time>2023-10-06T13:25:04Z</time>
      </trkpt>
      <trkpt lat="49.87614" lon="2.34654">
        <ele>25.4</ele>
        <time>2023-10-06T13:25:05Z</time>
      </trkpt>
      <trkpt lat="49.87614" lon="2.34653">
        <ele>25.4</ele>
        <time>2023-10-06T13:25:06Z</time>
      </trkpt>
      <trkpt lat="49.87615" lon="2.34652">
        <ele>25.4</ele>
        <time>2023-10-06T13:25:07Z</time>
      </trkpt>
      <trkpt lat="49.87615" lon="2.3465">
        <ele>25.4</ele>
        <time>2023-10-06T13:25:08Z</time>
      </trkpt>
      <trkpt lat="49.87615" lon="2.34648">
        <ele>25.4</ele>
        <time>2023-10-06T13:25:09Z</time>
      </trkpt>
      <trkpt lat="49.87615" lon="2.34647">
        <ele>25.4</ele>
        <time>2023-10-06T13:25:10Z</time>
      </trkpt>
      <trkpt lat="49.87616" lon="2.34645">
        <ele>25.4</ele>
        <time>2023-10-06T13:25:11Z</time>
      </trkpt>
      <trkpt lat="49.87616" lon="2.34644">
        <ele>25.4</ele>
        <time>2023-10-06T13:25:12Z</time>
      </trkpt>
      <trkpt lat="49.87616" lon="2.34642">
        <ele>25.4</ele>
        <time>2023-10-06T13:25:13Z</time>
      </trkpt>
      <trkpt lat="49.87617" lon="2.34641">
        <ele>25.4</ele>
        <time>2023-10-06T13:25:14Z</time>
      </trkpt>
      <trkpt lat="49.87617" lon="2.34639">
        <ele>25.4</ele>
        <time>2023-10-06T13:25:15Z</time>
      </trkpt>
      <trkpt lat="49.87617" lon="2.34638">
        <ele>25.4</ele>
        <time>2023-10-06T13:25:16Z</time>
      </trkpt>
      <trkpt lat="49.87618" lon="2.34637">
        <ele>25.4</ele>
        <time>2023-10-06T13:25:17Z</time>
      </trkpt>
      <trkpt lat="49.87618" lon="2.34635">
        <ele>25.4</ele>
        <time>2023-10-06T13:25:18Z</time>
      </trkpt>
      <trkpt lat="49.87618" lon="2.34634">
        <ele>25.4</ele>
        <time>2023-10-06T13:25:19Z</time>
      </trkpt>
      <trkpt lat="49.87618" lon="2.34632">
        <ele>25.4</ele>
        <time>2023-10-06T13:25:20Z</time>
      </trkpt>
      <trkpt lat="49.87618" lon="2.34631">
        <ele>25.4</ele>
        <time>2023-10-06T13:25:21Z</time>
      </trkpt>
      <trkpt lat="49.87619" lon="2.3463">
        <ele>25.4</ele>
        <time>2023-10-06T13:25:22Z</time>
      </trkpt>
      <trkpt lat="49.87619" lon="2.34629">
        <ele>25.4</ele>
        <time>2023-10-06T13:25:23Z</time>
      </trkpt>
      <trkpt lat="49.87619" lon="2.34627">
        <ele>25.4</ele>
        <time>2023-10-06T13:25:24Z</time>
      </trkpt>
      <trkpt lat="49.87619" lon="2.34626">
        <ele>25.4</ele>
        <time>2023-10-06T13:25:25Z</time>
      </trkpt>
      <trkpt lat="49.87619" lon="2.34625">
        <ele>25.4</ele>
        <time>2023-10-06T13:25:26Z</time>
      </trkpt>
      <trkpt lat="49.87619" lon="2.34624">
        <ele>25.4</ele>
        <time>2023-10-06T13:25:27Z</time>
      </trkpt>
      <trkpt lat="49.8762" lon="2.34623">
        <ele>25.4</ele>
        <time>2023-10-06T13:25:28Z</time>
      </trkpt>
      <trkpt lat="49.8762" lon="2.34622">
        <ele>25.4</ele>
        <time>2023-10-06T13:25:29Z</time>
      </trkpt>
      <trkpt lat="49.8762" lon="2.34621">
        <ele>25.4</ele>
        <time>2023-10-06T13:25:30Z</time>
      </trkpt>
      <trkpt lat="49.8762" lon="2.3462">
        <ele>25.4</ele>
        <time>2023-10-06T13:25:31Z</time>
      </trkpt>
      <trkpt lat="49.8762" lon="2.34619">
        <ele>25.4</ele>
        <time>2023-10-06T13:25:32Z</time>
      </trkpt>
      <trkpt lat="49.8762" lon="2.34618">
        <ele>25.4</ele>
        <time>2023-10-06T13:25:33Z</time>
      </trkpt>
      <trkpt lat="49.87621" lon="2.34617">
        <ele>25.4</ele>
        <time>2023-10-06T13:25:34Z</time>
      </trkpt>
      <trkpt lat="49.87621" lon="2.34616">
        <ele>25.4</ele>
        <time>2023-10-06T13:25:35Z</time>
      </trkpt>
      <trkpt lat="49.87621" lon="2.34615">
        <ele>25.4</ele>
        <time>2023-10-06T13:25:36Z</time>
      </trkpt>
      <trkpt lat="49.87621" lon="2.34614">
        <ele>25.4</ele>
        <time>2023-10-06T13:25:37Z</time>
      </trkpt>
      <trkpt lat="49.87622" lon="2.34613">
        <ele>25.4</ele>
        <time>2023-10-06T13:25:38Z</time>
      </trkpt>
      <trkpt lat="49.87622" lon="2.34612">
        <ele>25.4</ele>
        <time>2023-10-06T13:25:39Z</time>
      </trkpt>
      <trkpt lat="49.87622" lon="2.34611">
        <ele>25.4</ele>
        <time>2023-10-06T13:25:40Z</time>
      </trkpt>
      <trkpt lat="49.87622" lon="2.3461">
        <ele>25.4</ele>
        <time>2023-10-06T13:25:41Z</time>
      </trkpt>
      <trkpt lat="49.87623" lon="2.34609">
        <ele>25.4</ele>
        <time>2023-10-06T13:25:42Z</time>
      </trkpt>
      <trkpt lat="49.87623" lon="2.34608">
        <ele>25.4</ele>
        <time>2023-10-06T13:25:43Z</time>
      </trkpt>
      <trkpt lat="49.87624" lon="2.34607">
        <ele>25.4</ele>
        <time>2023-10-06T13:25:44Z</time>
      </trkpt>
      <trkpt lat="49.87624" lon="2.34605">
        <ele>25.4</ele>
        <time>2023-10-06T13:25:45Z</time>
      </trkpt>
      <trkpt lat="49.87625" lon="2.34604">
        <ele>25.4</ele>
        <time>2023-10-06T13:25:46Z</time>
      </trkpt>
      <trkpt lat="49.87626" lon="2.34603">
        <ele>25.4</ele>
        <time>2023-10-06T13:25:47Z</time>
      </trkpt>
      <trkpt lat="49.87626" lon="2.34602">
        <ele>25.4</ele>
        <time>2023-10-06T13:25:48Z</time>
      </trkpt>
      <trkpt lat="49.87627" lon="2.346">
        <ele>25.4</ele>
        <time>2023-10-06T13:25:49Z</time>
      </trkpt>
      <trkpt lat="49.87627" lon="2.34599">
        <ele>25.4</ele>
        <time>2023-10-06T13:25:50Z</time>
      </trkpt>
      <trkpt lat="49.87628" lon="2.34598">
        <ele>25.4</ele>
        <time>2023-10-06T13:25:51Z</time>
      </trkpt>
      <trkpt lat="49.87628" lon="2.34597">
        <ele>25.4</ele>
        <time>2023-10-06T13:25:52Z</time>
      </trkpt>
      <trkpt lat="49.87629" lon="2.34595">
        <ele>25.4</ele>
        <time>2023-10-06T13:25:53Z</time>
      </trkpt>
      <trkpt lat="49.87629" lon="2.34594">
        <ele>25.5</ele>
        <time>2023-10-06T13:25:54Z</time>
      </trkpt>
      <trkpt lat="49.8763" lon="2.34593">
        <ele>25.5</ele>
        <time>2023-10-06T13:25:55Z</time>
      </trkpt>
      <trkpt lat="49.8763" lon="2.34591">
        <ele>25.5</ele>
        <time>2023-10-06T13:25:56Z</time>
      </trkpt>
      <trkpt lat="49.8763" lon="2.3459">
        <ele>25.5</ele>
        <time>2023-10-06T13:25:57Z</time>
      </trkpt>
      <trkpt lat="49.87631" lon="2.34589">
        <ele>25.5</ele>
        <time>2023-10-06T13:25:58Z</time>
      </trkpt>
      <trkpt lat="49.87631" lon="2.34587">
        <ele>25.5</ele>
        <time>2023-10-06T13:25:59Z</time>
      </trkpt>
      <trkpt lat="49.87632" lon="2.34586">
        <ele>25.6</ele>
        <time>2023-10-06T13:26:00Z</time>
      </trkpt>
      <trkpt lat="49.87632" lon="2.34585">
        <ele>25.6</ele>
        <time>2023-10-06T13:26:01Z</time>
      </trkpt>
      <trkpt lat="49.87633" lon="2.34583">
        <ele>25.6</ele>
        <time>2023-10-06T13:26:02Z</time>
      </trkpt>
      <trkpt lat="49.87633" lon="2.34582">
        <ele>25.6</ele>
        <time>2023-10-06T13:26:03Z</time>
      </trkpt>
      <trkpt lat="49.87633" lon="2.34581">
        <ele>25.6</ele>
        <time>2023-10-06T13:26:04Z</time>
      </trkpt>
      <trkpt lat="49.87634" lon="2.34579">
        <ele>25.6</ele>
        <time>2023-10-06T13:26:05Z</time>
      </trkpt>
      <trkpt lat="49.87634" lon="2.34578">
        <ele>25.7</ele>
        <time>2023-10-06T13:26:06Z</time>
      </trkpt>
      <trkpt lat="49.87634" lon="2.34577">
        <ele>25.7</ele>
        <time>2023-10-06T13:26:07Z</time>
      </trkpt>
      <trkpt lat="49.87634" lon="2.34575">
        <ele>25.7</ele>
        <time>2023-10-06T13:26:08Z</time>
      </trkpt>
      <trkpt lat="49.87635" lon="2.34574">
        <ele>25.7</ele>
        <time>2023-10-06T13:26:09Z</time>
      </trkpt>
      <trkpt lat="49.87635" lon="2.34573">
        <ele>25.7</ele>
        <time>2023-10-06T13:26:10Z</time>
      </trkpt>
      <trkpt lat="49.87635" lon="2.34572">
        <ele>25.7</ele>
        <time>2023-10-06T13:26:11Z</time>
      </trkpt>
      <trkpt lat="49.87636" lon="2.34571">
        <ele>25.7</ele>
        <time>2023-10-06T13:26:12Z</time>
      </trkpt>
      <trkpt lat="49.87636" lon="2.3457">
        <ele>25.8</ele>
        <time>2023-10-06T13:26:13Z</time>
      </trkpt>
      <trkpt lat="49.87636" lon="2.34569">
        <ele>25.8</ele>
        <time>2023-10-06T13:26:14Z</time>
      </trkpt>
      <trkpt lat="49.87637" lon="2.34568">
        <ele>25.8</ele>
        <time>2023-10-06T13:26:15Z</time>
      </trkpt>
      <trkpt lat="49.87637" lon="2.34567">
        <ele>25.8</ele>
        <time>2023-10-06T13:26:16Z</time>
      </trkpt>
      <trkpt lat="49.87637" lon="2.34566">
        <ele>25.8</ele>
        <time>2023-10-06T13:26:17Z</time>
      </trkpt>
      <trkpt lat="49.87637" lon="2.34565">
        <ele>25.8</ele>
        <time>2023-10-06T13:26:18Z</time>
      </trkpt>
      <trkpt lat="49.87638" lon="2.34563">
        <ele>25.8</ele>
        <time>2023-10-06T13:26:19Z</time>
      </trkpt>
      <trkpt lat="49.87638" lon="2.34562">
        <ele>25.9</ele>
        <time>2023-10-06T13:26:20Z</time>
      </trkpt>
      <trkpt lat="49.87638" lon="2.34561">
        <ele>25.9</ele>
        <time>2023-10-06T13:26:21Z</time>
      </trkpt>
      <trkpt lat="49.87638" lon="2.3456">
        <ele>25.9</ele>
        <time>2023-10-06T13:26:22Z</time>
      </trkpt>
      <trkpt lat="49.87638" lon="2.34559">
        <ele>25.9</ele>
        <time>2023-10-06T13:26:23Z</time>
      </trkpt>
      <trkpt lat="49.87639" lon="2.34558">
        <ele>25.9</ele>
        <time>2023-10-06T13:26:24Z</time>
      </trkpt>
      <trkpt lat="49.87639" lon="2.34556">
        <ele>25.9</ele>
        <time>2023-10-06T13:26:25Z</time>
      </trkpt>
      <trkpt lat="49.87639" lon="2.34555">
        <ele>25.9</ele>
        <time>2023-10-06T13:26:26Z</time>
      </trkpt>
      <trkpt lat="49.87639" lon="2.34554">
        <ele>25.9</ele>
        <time>2023-10-06T13:26:27Z</time>
      </trkpt>
      <trkpt lat="49.87639" lon="2.34553">
        <ele>26</ele>
        <time>2023-10-06T13:26:28Z</time>
      </trkpt>
      <trkpt lat="49.87639" lon="2.34552">
        <ele>26</ele>
        <time>2023-10-06T13:26:29Z</time>
      </trkpt>
      <trkpt lat="49.87639" lon="2.34551">
        <ele>26</ele>
        <time>2023-10-06T13:26:30Z</time>
      </trkpt>
      <trkpt lat="49.87639" lon="2.3455">
        <ele>26</ele>
        <time>2023-10-06T13:26:31Z</time>
      </trkpt>
      <trkpt lat="49.8764" lon="2.34549">
        <ele>26</ele>
        <time>2023-10-06T13:26:32Z</time>
      </trkpt>
      <trkpt lat="49.8764" lon="2.34547">
        <ele>26</ele>
        <time>2023-10-06T13:26:33Z</time>
      </trkpt>
      <trkpt lat="49.8764" lon="2.34546">
        <ele>26</ele>
        <time>2023-10-06T13:26:34Z</time>
      </trkpt>
      <trkpt lat="49.8764" lon="2.34544">
        <ele>26</ele>
        <time>2023-10-06T13:26:35Z</time>
      </trkpt>
      <trkpt lat="49.87641" lon="2.34543">
        <ele>26.1</ele>
        <time>2023-10-06T13:26:36Z</time>
      </trkpt>
      <trkpt lat="49.87641" lon="2.34542">
        <ele>26.1</ele>
        <time>2023-10-06T13:26:37Z</time>
      </trkpt>
      <trkpt lat="49.87641" lon="2.3454">
        <ele>26.1</ele>
        <time>2023-10-06T13:26:38Z</time>
      </trkpt>
      <trkpt lat="49.87641" lon="2.34539">
        <ele>26.1</ele>
        <time>2023-10-06T13:26:39Z</time>
      </trkpt>
      <trkpt lat="49.87642" lon="2.34538">
        <ele>26.1</ele>
        <time>2023-10-06T13:26:40Z</time>
      </trkpt>
      <trkpt lat="49.87642" lon="2.34537">
        <ele>26.1</ele>
        <time>2023-10-06T13:26:41Z</time>
      </trkpt>
      <trkpt lat="49.87642" lon="2.34535">
        <ele>26.1</ele>
        <time>2023-10-06T13:26:42Z</time>
      </trkpt>
      <trkpt lat="49.87642" lon="2.34534">
        <ele>26.2</ele>
        <time>2023-10-06T13:26:43Z</time>
      </trkpt>
      <trkpt lat="49.87642" lon="2.34533">
        <ele>26.2</ele>
        <time>2023-10-06T13:26:44Z</time>
      </trkpt>
      <trkpt lat="49.87643" lon="2.3453">
        <ele>26.2</ele>
        <time>2023-10-06T13:26:45Z</time>
      </trkpt>
      <trkpt lat="49.87643" lon="2.34529">
        <ele>26.2</ele>
        <time>2023-10-06T13:26:46Z</time>
      </trkpt>
      <trkpt lat="49.87643" lon="2.34528">
        <ele>26.2</ele>
        <time>2023-10-06T13:26:47Z</time>
      </trkpt>
      <trkpt lat="49.87643" lon="2.34527">
        <ele>26.2</ele>
        <time>2023-10-06T13:26:48Z</time>
      </trkpt>
      <trkpt lat="49.87643" lon="2.34526">
        <ele>26.2</ele>
        <time>2023-10-06T13:26:49Z</time>
      </trkpt>
      <trkpt lat="49.87643" lon="2.34524">
        <ele>26.3</ele>
        <time>2023-10-06T13:26:50Z</time>
      </trkpt>
      <trkpt lat="49.87643" lon="2.34523">
        <ele>26.3</ele>
        <time>2023-10-06T13:26:51Z</time>
      </trkpt>
      <trkpt lat="49.87644" lon="2.34521">
        <ele>26.3</ele>
        <time>2023-10-06T13:26:52Z</time>
      </trkpt>
      <trkpt lat="49.87644" lon="2.34519">
        <ele>26.3</ele>
        <time>2023-10-06T13:26:53Z</time>
      </trkpt>
      <trkpt lat="49.87644" lon="2.34518">
        <ele>26.3</ele>
        <time>2023-10-06T13:26:54Z</time>
      </trkpt>
      <trkpt lat="49.87645" lon="2.34516">
        <ele>26.3</ele>
        <time>2023-10-06T13:26:55Z</time>
      </trkpt>
      <trkpt lat="49.87645" lon="2.34514">
        <ele>26.4</ele>
        <time>2023-10-06T13:26:56Z</time>
      </trkpt>
      <trkpt lat="49.87646" lon="2.34513">
        <ele>26.4</ele>
        <time>2023-10-06T13:26:57Z</time>
      </trkpt>
      <trkpt lat="49.87646" lon="2.3451">
        <ele>26.4</ele>
        <time>2023-10-06T13:26:58Z</time>
      </trkpt>
      <trkpt lat="49.87647" lon="2.34509">
        <ele>26.4</ele>
        <time>2023-10-06T13:26:59Z</time>
      </trkpt>
      <trkpt lat="49.87647" lon="2.34507">
        <ele>26.4</ele>
        <time>2023-10-06T13:27:00Z</time>
      </trkpt>
      <trkpt lat="49.87648" lon="2.34506">
        <ele>26.5</ele>
        <time>2023-10-06T13:27:01Z</time>
      </trkpt>
      <trkpt lat="49.87648" lon="2.34505">
        <ele>26.5</ele>
        <time>2023-10-06T13:27:02Z</time>
      </trkpt>
      <trkpt lat="49.87649" lon="2.34503">
        <ele>26.5</ele>
        <time>2023-10-06T13:27:03Z</time>
      </trkpt>
      <trkpt lat="49.87649" lon="2.34502">
        <ele>26.5</ele>
        <time>2023-10-06T13:27:04Z</time>
      </trkpt>
      <trkpt lat="49.87649" lon="2.34501">
        <ele>26.5</ele>
        <time>2023-10-06T13:27:05Z</time>
      </trkpt>
      <trkpt lat="49.8765" lon="2.34499">
        <ele>26.6</ele>
        <time>2023-10-06T13:27:06Z</time>
      </trkpt>
      <trkpt lat="49.8765" lon="2.34498">
        <ele>26.6</ele>
        <time>2023-10-06T13:27:07Z</time>
      </trkpt>
      <trkpt lat="49.8765" lon="2.34497">
        <ele>26.6</ele>
        <time>2023-10-06T13:27:08Z</time>
      </trkpt>
      <trkpt lat="49.87651" lon="2.34495">
        <ele>26.6</ele>
        <time>2023-10-06T13:27:09Z</time>
      </trkpt>
      <trkpt lat="49.87651" lon="2.34494">
        <ele>26.6</ele>
        <time>2023-10-06T13:27:10Z</time>
      </trkpt>
      <trkpt lat="49.87651" lon="2.34492">
        <ele>26.6</ele>
        <time>2023-10-06T13:27:11Z</time>
      </trkpt>
      <trkpt lat="49.87651" lon="2.34491">
        <ele>26.7</ele>
        <time>2023-10-06T13:27:12Z</time>
      </trkpt>
      <trkpt lat="49.87651" lon="2.34489">
        <ele>26.7</ele>
        <time>2023-10-06T13:27:13Z</time>
      </trkpt>
      <trkpt lat="49.87652" lon="2.34487">
        <ele>26.7</ele>
        <time>2023-10-06T13:27:14Z</time>
      </trkpt>
      <trkpt lat="49.87652" lon="2.34486">
        <ele>26.7</ele>
        <time>2023-10-06T13:27:15Z</time>
      </trkpt>
      <trkpt lat="49.87652" lon="2.34484">
        <ele>26.8</ele>
        <time>2023-10-06T13:27:16Z</time>
      </trkpt>
      <trkpt lat="49.87653" lon="2.34482">
        <ele>26.8</ele>
        <time>2023-10-06T13:27:17Z</time>
      </trkpt>
      <trkpt lat="49.87653" lon="2.34481">
        <ele>26.8</ele>
        <time>2023-10-06T13:27:18Z</time>
      </trkpt>
      <trkpt lat="49.87653" lon="2.34479">
        <ele>26.8</ele>
        <time>2023-10-06T13:27:19Z</time>
      </trkpt>
      <trkpt lat="49.87654" lon="2.34478">
        <ele>26.8</ele>
        <time>2023-10-06T13:27:20Z</time>
      </trkpt>
      <trkpt lat="49.87654" lon="2.34477">
        <ele>26.9</ele>
        <time>2023-10-06T13:27:21Z</time>
      </trkpt>
      <trkpt lat="49.87654" lon="2.34475">
        <ele>26.9</ele>
        <time>2023-10-06T13:27:22Z</time>
      </trkpt>
      <trkpt lat="49.87655" lon="2.34474">
        <ele>26.9</ele>
        <time>2023-10-06T13:27:23Z</time>
      </trkpt>
      <trkpt lat="49.87655" lon="2.34474">
        <ele>26.9</ele>
        <time>2023-10-06T13:27:24Z</time>
      </trkpt>
      <trkpt lat="49.87656" lon="2.34473">
        <ele>26.9</ele>
        <time>2023-10-06T13:27:25Z</time>
      </trkpt>
      <trkpt lat="49.87657" lon="2.34473">
        <ele>26.9</ele>
        <time>2023-10-06T13:27:26Z</time>
      </trkpt>
      <trkpt lat="49.87657" lon="2.34472">
        <ele>26.9</ele>
        <time>2023-10-06T13:27:27Z</time>
      </trkpt>
      <trkpt lat="49.87658" lon="2.34472">
        <ele>26.9</ele>
        <time>2023-10-06T13:27:28Z</time>
      </trkpt>
      <trkpt lat="49.87659" lon="2.34472">
        <ele>26.9</ele>
        <time>2023-10-06T13:27:29Z</time>
      </trkpt>
      <trkpt lat="49.8766" lon="2.34472">
        <ele>27</ele>
        <time>2023-10-06T13:27:30Z</time>
      </trkpt>
      <trkpt lat="49.87661" lon="2.34473">
        <ele>27</ele>
        <time>2023-10-06T13:27:31Z</time>
      </trkpt>
      <trkpt lat="49.87662" lon="2.34473">
        <ele>27</ele>
        <time>2023-10-06T13:27:32Z</time>
      </trkpt>
      <trkpt lat="49.87663" lon="2.34474">
        <ele>27</ele>
        <time>2023-10-06T13:27:33Z</time>
      </trkpt>
      <trkpt lat="49.87663" lon="2.34475">
        <ele>27</ele>
        <time>2023-10-06T13:27:34Z</time>
      </trkpt>
      <trkpt lat="49.87664" lon="2.34475">
        <ele>27</ele>
        <time>2023-10-06T13:27:35Z</time>
      </trkpt>
      <trkpt lat="49.87665" lon="2.34476">
        <ele>27</ele>
        <time>2023-10-06T13:27:36Z</time>
      </trkpt>
      <trkpt lat="49.87666" lon="2.34476">
        <ele>27</ele>
        <time>2023-10-06T13:27:37Z</time>
      </trkpt>
      <trkpt lat="49.87667" lon="2.34476">
        <ele>27.1</ele>
        <time>2023-10-06T13:27:38Z</time>
      </trkpt>
      <trkpt lat="49.87668" lon="2.34476">
        <ele>27.1</ele>
        <time>2023-10-06T13:27:39Z</time>
      </trkpt>
      <trkpt lat="49.87669" lon="2.34477">
        <ele>27.1</ele>
        <time>2023-10-06T13:27:40Z</time>
      </trkpt>
      <trkpt lat="49.8767" lon="2.34477">
        <ele>27.1</ele>
        <time>2023-10-06T13:27:41Z</time>
      </trkpt>
      <trkpt lat="49.87671" lon="2.34478">
        <ele>27.1</ele>
        <time>2023-10-06T13:27:42Z</time>
      </trkpt>
      <trkpt lat="49.87672" lon="2.34478">
        <ele>27.1</ele>
        <time>2023-10-06T13:27:43Z</time>
      </trkpt>
      <trkpt lat="49.87673" lon="2.34479">
        <ele>27.1</ele>
        <time>2023-10-06T13:27:44Z</time>
      </trkpt>
      <trkpt lat="49.87674" lon="2.34479">
        <ele>27.2</ele>
        <time>2023-10-06T13:27:45Z</time>
      </trkpt>
      <trkpt lat="49.87675" lon="2.34479">
        <ele>27.2</ele>
        <time>2023-10-06T13:27:46Z</time>
      </trkpt>
      <trkpt lat="49.87676" lon="2.34479">
        <ele>27.2</ele>
        <time>2023-10-06T13:27:47Z</time>
      </trkpt>
      <trkpt lat="49.87677" lon="2.34478">
        <ele>27.2</ele>
        <time>2023-10-06T13:27:48Z</time>
      </trkpt>
      <trkpt lat="49.87678" lon="2.34478">
        <ele>27.3</ele>
        <time>2023-10-06T13:27:49Z</time>
      </trkpt>
      <trkpt lat="49.87679" lon="2.34478">
        <ele>27.3</ele>
        <time>2023-10-06T13:27:50Z</time>
      </trkpt>
      <trkpt lat="49.87679" lon="2.34478">
        <ele>27.3</ele>
        <time>2023-10-06T13:27:51Z</time>
      </trkpt>
      <trkpt lat="49.8768" lon="2.34477">
        <ele>27.3</ele>
        <time>2023-10-06T13:27:52Z</time>
      </trkpt>
      <trkpt lat="49.8768" lon="2.34477">
        <ele>27.3</ele>
        <time>2023-10-06T13:27:53Z</time>
      </trkpt>
      <trkpt lat="49.87681" lon="2.34476">
        <ele>27.8</ele>
        <time>2023-10-06T13:27:54Z</time>
      </trkpt>
      <trkpt lat="49.87681" lon="2.34475">
        <ele>27.8</ele>
        <time>2023-10-06T13:27:55Z</time>
      </trkpt>
      <trkpt lat="49.87681" lon="2.34475">
        <ele>27.8</ele>
        <time>2023-10-06T13:27:56Z</time>
      </trkpt>
      <trkpt lat="49.87681" lon="2.34474">
        <ele>27.8</ele>
        <time>2023-10-06T13:27:57Z</time>
      </trkpt>
      <trkpt lat="49.87681" lon="2.34473">
        <ele>27.9</ele>
        <time>2023-10-06T13:27:58Z</time>
      </trkpt>
      <trkpt lat="49.87681" lon="2.34472">
        <ele>27.9</ele>
        <time>2023-10-06T13:27:59Z</time>
      </trkpt>
      <trkpt lat="49.87681" lon="2.34471">
        <ele>27.9</ele>
        <time>2023-10-06T13:28:00Z</time>
      </trkpt>
      <trkpt lat="49.87682" lon="2.3447">
        <ele>27.9</ele>
        <time>2023-10-06T13:28:01Z</time>
      </trkpt>
      <trkpt lat="49.87682" lon="2.34469">
        <ele>27.9</ele>
        <time>2023-10-06T13:28:02Z</time>
      </trkpt>
      <trkpt lat="49.87682" lon="2.34469">
        <ele>27.9</ele>
        <time>2023-10-06T13:28:03Z</time>
      </trkpt>
      <trkpt lat="49.87683" lon="2.34468">
        <ele>28</ele>
        <time>2023-10-06T13:28:04Z</time>
      </trkpt>
      <trkpt lat="49.87683" lon="2.34468">
        <ele>28</ele>
        <time>2023-10-06T13:28:05Z</time>
      </trkpt>
      <trkpt lat="49.87683" lon="2.34468">
        <ele>28</ele>
        <time>2023-10-06T13:28:06Z</time>
      </trkpt>
      <trkpt lat="49.87684" lon="2.34468">
        <ele>28</ele>
        <time>2023-10-06T13:28:07Z</time>
      </trkpt>
      <trkpt lat="49.87684" lon="2.34468">
        <ele>28</ele>
        <time>2023-10-06T13:28:08Z</time>
      </trkpt>
      <trkpt lat="49.87684" lon="2.34468">
        <ele>28</ele>
        <time>2023-10-06T13:28:09Z</time>
      </trkpt>
      <trkpt lat="49.87684" lon="2.34467">
        <ele>28</ele>
        <time>2023-10-06T13:28:10Z</time>
      </trkpt>
      <trkpt lat="49.87684" lon="2.34467">
        <ele>28</ele>
        <time>2023-10-06T13:28:11Z</time>
      </trkpt>
      <trkpt lat="49.87684" lon="2.34466">
        <ele>28</ele>
        <time>2023-10-06T13:28:12Z</time>
      </trkpt>
      <trkpt lat="49.87683" lon="2.34466">
        <ele>28</ele>
        <time>2023-10-06T13:28:13Z</time>
      </trkpt>
      <trkpt lat="49.87682" lon="2.34466">
        <ele>28.1</ele>
        <time>2023-10-06T13:28:14Z</time>
      </trkpt>
      <trkpt lat="49.87682" lon="2.34465">
        <ele>28.1</ele>
        <time>2023-10-06T13:28:15Z</time>
      </trkpt>
      <trkpt lat="49.87682" lon="2.34465">
        <ele>28.1</ele>
        <time>2023-10-06T13:28:16Z</time>
      </trkpt>
      <trkpt lat="49.87681" lon="2.34464">
        <ele>28.1</ele>
        <time>2023-10-06T13:28:17Z</time>
      </trkpt>
      <trkpt lat="49.8768" lon="2.34464">
        <ele>28.1</ele>
        <time>2023-10-06T13:28:18Z</time>
      </trkpt>
      <trkpt lat="49.8768" lon="2.34464">
        <ele>28.1</ele>
        <time>2023-10-06T13:28:19Z</time>
      </trkpt>
      <trkpt lat="49.87679" lon="2.34464">
        <ele>28.1</ele>
        <time>2023-10-06T13:28:20Z</time>
      </trkpt>
      <trkpt lat="49.87678" lon="2.34464">
        <ele>28.2</ele>
        <time>2023-10-06T13:28:21Z</time>
      </trkpt>
      <trkpt lat="49.87677" lon="2.34464">
        <ele>28.2</ele>
        <time>2023-10-06T13:28:22Z</time>
      </trkpt>
      <trkpt lat="49.87677" lon="2.34464">
        <ele>28.2</ele>
        <time>2023-10-06T13:28:23Z</time>
      </trkpt>
      <trkpt lat="49.87676" lon="2.34464">
        <ele>28.2</ele>
        <time>2023-10-06T13:28:24Z</time>
      </trkpt>
      <trkpt lat="49.87675" lon="2.34464">
        <ele>28.2</ele>
        <time>2023-10-06T13:28:25Z</time>
      </trkpt>
      <trkpt lat="49.87674" lon="2.34464">
        <ele>28.2</ele>
        <time>2023-10-06T13:28:26Z</time>
      </trkpt>
      <trkpt lat="49.87674" lon="2.34464">
        <ele>28.2</ele>
        <time>2023-10-06T13:28:27Z</time>
      </trkpt>
      <trkpt lat="49.87673" lon="2.34464">
        <ele>28.3</ele>
        <time>2023-10-06T13:28:28Z</time>
      </trkpt>
      <trkpt lat="49.87672" lon="2.34464">
        <ele>28.3</ele>
        <time>2023-10-06T13:28:29Z</time>
      </trkpt>
      <trkpt lat="49.87672" lon="2.34463">
        <ele>28.3</ele>
        <time>2023-10-06T13:28:30Z</time>
      </trkpt>
      <trkpt lat="49.87671" lon="2.34463">
        <ele>28.3</ele>
        <time>2023-10-06T13:28:31Z</time>
      </trkpt>
      <trkpt lat="49.87671" lon="2.34463">
        <ele>28.3</ele>
        <time>2023-10-06T13:28:32Z</time>
      </trkpt>
      <trkpt lat="49.8767" lon="2.34463">
        <ele>28.3</ele>
        <time>2023-10-06T13:28:33Z</time>
      </trkpt>
      <trkpt lat="49.8767" lon="2.34462">
        <ele>28.3</ele>
        <time>2023-10-06T13:28:34Z</time>
      </trkpt>
      <trkpt lat="49.87669" lon="2.34462">
        <ele>28.3</ele>
        <time>2023-10-06T13:28:35Z</time>
      </trkpt>
      <trkpt lat="49.87669" lon="2.34462">
        <ele>28.3</ele>
        <time>2023-10-06T13:28:36Z</time>
      </trkpt>
      <trkpt lat="49.87669" lon="2.34461">
        <ele>28.3</ele>
        <time>2023-10-06T13:28:37Z</time>
      </trkpt>
      <trkpt lat="49.87668" lon="2.34461">
        <ele>28.3</ele>
        <time>2023-10-06T13:28:38Z</time>
      </trkpt>
      <trkpt lat="49.87668" lon="2.3446">
        <ele>28.4</ele>
        <time>2023-10-06T13:28:39Z</time>
      </trkpt>
      <trkpt lat="49.87667" lon="2.3446">
        <ele>28.4</ele>
        <time>2023-10-06T13:28:40Z</time>
      </trkpt>
      <trkpt lat="49.87666" lon="2.34459">
        <ele>28.4</ele>
        <time>2023-10-06T13:28:41Z</time>
      </trkpt>
      <trkpt lat="49.87666" lon="2.34459">
        <ele>28.4</ele>
        <time>2023-10-06T13:28:42Z</time>
      </trkpt>
      <trkpt lat="49.87665" lon="2.34459">
        <ele>28.4</ele>
        <time>2023-10-06T13:28:43Z</time>
      </trkpt>
      <trkpt lat="49.87664" lon="2.34458">
        <ele>28.4</ele>
        <time>2023-10-06T13:28:44Z</time>
      </trkpt>
      <trkpt lat="49.87664" lon="2.34457">
        <ele>28.4</ele>
        <time>2023-10-06T13:28:45Z</time>
      </trkpt>
      <trkpt lat="49.87663" lon="2.34457">
        <ele>28.4</ele>
        <time>2023-10-06T13:28:46Z</time>
      </trkpt>
      <trkpt lat="49.87662" lon="2.34456">
        <ele>28.4</ele>
        <time>2023-10-06T13:28:47Z</time>
      </trkpt>
      <trkpt lat="49.87662" lon="2.34456">
        <ele>28.5</ele>
        <time>2023-10-06T13:28:48Z</time>
      </trkpt>
      <trkpt lat="49.87661" lon="2.34455">
        <ele>28.5</ele>
        <time>2023-10-06T13:28:49Z</time>
      </trkpt>
      <trkpt lat="49.8766" lon="2.34455">
        <ele>28.5</ele>
        <time>2023-10-06T13:28:50Z</time>
      </trkpt>
      <trkpt lat="49.8766" lon="2.34454">
        <ele>28.5</ele>
        <time>2023-10-06T13:28:51Z</time>
      </trkpt>
      <trkpt lat="49.87659" lon="2.34453">
        <ele>28.5</ele>
        <time>2023-10-06T13:28:52Z</time>
      </trkpt>
      <trkpt lat="49.87658" lon="2.34453">
        <ele>28.5</ele>
        <time>2023-10-06T13:28:53Z</time>
      </trkpt>
      <trkpt lat="49.87657" lon="2.34452">
        <ele>28.5</ele>
        <time>2023-10-06T13:28:54Z</time>
      </trkpt>
      <trkpt lat="49.87657" lon="2.34452">
        <ele>28.5</ele>
        <time>2023-10-06T13:28:55Z</time>
      </trkpt>
      <trkpt lat="49.87656" lon="2.34451">
        <ele>28.5</ele>
        <time>2023-10-06T13:28:56Z</time>
      </trkpt>
      <trkpt lat="49.87655" lon="2.3445">
        <ele>28.5</ele>
        <time>2023-10-06T13:28:57Z</time>
      </trkpt>
      <trkpt lat="49.87654" lon="2.34449">
        <ele>28.5</ele>
        <time>2023-10-06T13:28:58Z</time>
      </trkpt>
      <trkpt lat="49.87654" lon="2.34447">
        <ele>28.5</ele>
        <time>2023-10-06T13:28:59Z</time>
      </trkpt>
      <trkpt lat="49.87653" lon="2.34446">
        <ele>28.5</ele>
        <time>2023-10-06T13:29:00Z</time>
      </trkpt>
      <trkpt lat="49.87652" lon="2.34445">
        <ele>28.6</ele>
        <time>2023-10-06T13:29:01Z</time>
      </trkpt>
      <trkpt lat="49.87652" lon="2.34442">
        <ele>28.6</ele>
        <time>2023-10-06T13:29:02Z</time>
      </trkpt>
      <trkpt lat="49.87652" lon="2.34441">
        <ele>28.6</ele>
        <time>2023-10-06T13:29:03Z</time>
      </trkpt>
      <trkpt lat="49.87652" lon="2.34439">
        <ele>28.5</ele>
        <time>2023-10-06T13:29:04Z</time>
      </trkpt>
      <trkpt lat="49.87652" lon="2.34437">
        <ele>28.5</ele>
        <time>2023-10-06T13:29:05Z</time>
      </trkpt>
      <trkpt lat="49.87652" lon="2.34435">
        <ele>28.5</ele>
        <time>2023-10-06T13:29:06Z</time>
      </trkpt>
      <trkpt lat="49.87652" lon="2.34433">
        <ele>28.5</ele>
        <time>2023-10-06T13:29:07Z</time>
      </trkpt>
      <trkpt lat="49.87652" lon="2.34431">
        <ele>28.5</ele>
        <time>2023-10-06T13:29:08Z</time>
      </trkpt>
      <trkpt lat="49.87653" lon="2.34428">
        <ele>28.5</ele>
        <time>2023-10-06T13:29:09Z</time>
      </trkpt>
      <trkpt lat="49.87653" lon="2.34426">
        <ele>28.5</ele>
        <time>2023-10-06T13:29:10Z</time>
      </trkpt>
      <trkpt lat="49.87653" lon="2.34425">
        <ele>28.5</ele>
        <time>2023-10-06T13:29:11Z</time>
      </trkpt>
      <trkpt lat="49.87654" lon="2.34422">
        <ele>28.4</ele>
        <time>2023-10-06T13:29:12Z</time>
      </trkpt>
      <trkpt lat="49.87654" lon="2.34421">
        <ele>28.4</ele>
        <time>2023-10-06T13:29:13Z</time>
      </trkpt>
      <trkpt lat="49.87655" lon="2.3442">
        <ele>28.4</ele>
        <time>2023-10-06T13:29:14Z</time>
      </trkpt>
      <trkpt lat="49.87655" lon="2.34418">
        <ele>28.4</ele>
        <time>2023-10-06T13:29:15Z</time>
      </trkpt>
      <trkpt lat="49.87655" lon="2.34417">
        <ele>28.4</ele>
        <time>2023-10-06T13:29:16Z</time>
      </trkpt>
      <trkpt lat="49.87656" lon="2.34415">
        <ele>28.4</ele>
        <time>2023-10-06T13:29:17Z</time>
      </trkpt>
      <trkpt lat="49.87656" lon="2.34413">
        <ele>28.4</ele>
        <time>2023-10-06T13:29:18Z</time>
      </trkpt>
      <trkpt lat="49.87656" lon="2.34412">
        <ele>28.4</ele>
        <time>2023-10-06T13:29:19Z</time>
      </trkpt>
      <trkpt lat="49.87656" lon="2.3441">
        <ele>28.4</ele>
        <time>2023-10-06T13:29:20Z</time>
      </trkpt>
      <trkpt lat="49.87656" lon="2.34409">
        <ele>28.3</ele>
        <time>2023-10-06T13:29:21Z</time>
      </trkpt>
      <trkpt lat="49.87656" lon="2.34407">
        <ele>28.3</ele>
        <time>2023-10-06T13:29:22Z</time>
      </trkpt>
      <trkpt lat="49.87657" lon="2.34406">
        <ele>28.3</ele>
        <time>2023-10-06T13:29:23Z</time>
      </trkpt>
      <trkpt lat="49.87657" lon="2.34404">
        <ele>28.3</ele>
        <time>2023-10-06T13:29:24Z</time>
      </trkpt>
      <trkpt lat="49.87657" lon="2.34403">
        <ele>28.3</ele>
        <time>2023-10-06T13:29:25Z</time>
      </trkpt>
      <trkpt lat="49.87657" lon="2.34402">
        <ele>28.3</ele>
        <time>2023-10-06T13:29:26Z</time>
      </trkpt>
      <trkpt lat="49.87657" lon="2.344">
        <ele>28.3</ele>
        <time>2023-10-06T13:29:27Z</time>
      </trkpt>
      <trkpt lat="49.87658" lon="2.34399">
        <ele>28.3</ele>
        <time>2023-10-06T13:29:28Z</time>
      </trkpt>
      <trkpt lat="49.87658" lon="2.34397">
        <ele>28.3</ele>
        <time>2023-10-06T13:29:29Z</time>
      </trkpt>
      <trkpt lat="49.87658" lon="2.34396">
        <ele>28.2</ele>
        <time>2023-10-06T13:29:30Z</time>
      </trkpt>
      <trkpt lat="49.87658" lon="2.34395">
        <ele>28.2</ele>
        <time>2023-10-06T13:29:31Z</time>
      </trkpt>
      <trkpt lat="49.87659" lon="2.34394">
        <ele>28.2</ele>
        <time>2023-10-06T13:29:32Z</time>
      </trkpt>
      <trkpt lat="49.87659" lon="2.34392">
        <ele>28.2</ele>
        <time>2023-10-06T13:29:33Z</time>
      </trkpt>
      <trkpt lat="49.87659" lon="2.34391">
        <ele>28.2</ele>
        <time>2023-10-06T13:29:34Z</time>
      </trkpt>
      <trkpt lat="49.87659" lon="2.34389">
        <ele>28.2</ele>
        <time>2023-10-06T13:29:35Z</time>
      </trkpt>
      <trkpt lat="49.8766" lon="2.34388">
        <ele>28.2</ele>
        <time>2023-10-06T13:29:36Z</time>
      </trkpt>
      <trkpt lat="49.8766" lon="2.34386">
        <ele>28.1</ele>
        <time>2023-10-06T13:29:37Z</time>
      </trkpt>
      <trkpt lat="49.8766" lon="2.34385">
        <ele>28.1</ele>
        <time>2023-10-06T13:29:38Z</time>
      </trkpt>
      <trkpt lat="49.87661" lon="2.34383">
        <ele>28.1</ele>
        <time>2023-10-06T13:29:39Z</time>
      </trkpt>
      <trkpt lat="49.87661" lon="2.34382">
        <ele>28.1</ele>
        <time>2023-10-06T13:29:40Z</time>
      </trkpt>
      <trkpt lat="49.87661" lon="2.3438">
        <ele>28.1</ele>
        <time>2023-10-06T13:29:41Z</time>
      </trkpt>
      <trkpt lat="49.87662" lon="2.34379">
        <ele>28.1</ele>
        <time>2023-10-06T13:29:42Z</time>
      </trkpt>
      <trkpt lat="49.87662" lon="2.34378">
        <ele>28</ele>
        <time>2023-10-06T13:29:43Z</time>
      </trkpt>
      <trkpt lat="49.87663" lon="2.34376">
        <ele>28</ele>
        <time>2023-10-06T13:29:44Z</time>
      </trkpt>
      <trkpt lat="49.87663" lon="2.34375">
        <ele>28</ele>
        <time>2023-10-06T13:29:45Z</time>
      </trkpt>
      <trkpt lat="49.87664" lon="2.34373">
        <ele>28</ele>
        <time>2023-10-06T13:29:46Z</time>
      </trkpt>
      <trkpt lat="49.87664" lon="2.34372">
        <ele>28</ele>
        <time>2023-10-06T13:29:47Z</time>
      </trkpt>
      <trkpt lat="49.87665" lon="2.3437">
        <ele>27.9</ele>
        <time>2023-10-06T13:29:48Z</time>
      </trkpt>
      <trkpt lat="49.87666" lon="2.34369">
        <ele>27.9</ele>
        <time>2023-10-06T13:29:49Z</time>
      </trkpt>
      <trkpt lat="49.87666" lon="2.34368">
        <ele>27.9</ele>
        <time>2023-10-06T13:29:50Z</time>
      </trkpt>
      <trkpt lat="49.87667" lon="2.34366">
        <ele>27.9</ele>
        <time>2023-10-06T13:29:51Z</time>
      </trkpt>
      <trkpt lat="49.87668" lon="2.34364">
        <ele>27.8</ele>
        <time>2023-10-06T13:29:52Z</time>
      </trkpt>
      <trkpt lat="49.87669" lon="2.34363">
        <ele>27.8</ele>
        <time>2023-10-06T13:29:53Z</time>
      </trkpt>
      <trkpt lat="49.87669" lon="2.34361">
        <ele>27.8</ele>
        <time>2023-10-06T13:29:54Z</time>
      </trkpt>
      <trkpt lat="49.87671" lon="2.34359">
        <ele>27.8</ele>
        <time>2023-10-06T13:29:55Z</time>
      </trkpt>
      <trkpt lat="49.87671" lon="2.34357">
        <ele>27.8</ele>
        <time>2023-10-06T13:29:56Z</time>
      </trkpt>
      <trkpt lat="49.87672" lon="2.34356">
        <ele>27.8</ele>
        <time>2023-10-06T13:29:57Z</time>
      </trkpt>
      <trkpt lat="49.87672" lon="2.34355">
        <ele>27.8</ele>
        <time>2023-10-06T13:29:58Z</time>
      </trkpt>
      <trkpt lat="49.87673" lon="2.34353">
        <ele>27.8</ele>
        <time>2023-10-06T13:29:59Z</time>
      </trkpt>
      <trkpt lat="49.87675" lon="2.3435">
        <ele>27.7</ele>
        <time>2023-10-06T13:30:00Z</time>
      </trkpt>
      <trkpt lat="49.87675" lon="2.34349">
        <ele>27.7</ele>
        <time>2023-10-06T13:30:01Z</time>
      </trkpt>
      <trkpt lat="49.87676" lon="2.34348">
        <ele>27.7</ele>
        <time>2023-10-06T13:30:02Z</time>
      </trkpt>
      <trkpt lat="49.87676" lon="2.34347">
        <ele>27.7</ele>
        <time>2023-10-06T13:30:03Z</time>
      </trkpt>
      <trkpt lat="49.87677" lon="2.34346">
        <ele>27.7</ele>
        <time>2023-10-06T13:30:04Z</time>
      </trkpt>
      <trkpt lat="49.87678" lon="2.34345">
        <ele>27.7</ele>
        <time>2023-10-06T13:30:05Z</time>
      </trkpt>
      <trkpt lat="49.87679" lon="2.34343">
        <ele>27.7</ele>
        <time>2023-10-06T13:30:06Z</time>
      </trkpt>
      <trkpt lat="49.87679" lon="2.34342">
        <ele>27.7</ele>
        <time>2023-10-06T13:30:07Z</time>
      </trkpt>
      <trkpt lat="49.8768" lon="2.34341">
        <ele>27.6</ele>
        <time>2023-10-06T13:30:08Z</time>
      </trkpt>
      <trkpt lat="49.87681" lon="2.34339">
        <ele>27.6</ele>
        <time>2023-10-06T13:30:09Z</time>
      </trkpt>
      <trkpt lat="49.87681" lon="2.34338">
        <ele>27.6</ele>
        <time>2023-10-06T13:30:10Z</time>
      </trkpt>
      <trkpt lat="49.87682" lon="2.34336">
        <ele>27.6</ele>
        <time>2023-10-06T13:30:11Z</time>
      </trkpt>
      <trkpt lat="49.87683" lon="2.34335">
        <ele>27.6</ele>
        <time>2023-10-06T13:30:12Z</time>
      </trkpt>
      <trkpt lat="49.87683" lon="2.34334">
        <ele>27.6</ele>
        <time>2023-10-06T13:30:13Z</time>
      </trkpt>
      <trkpt lat="49.87684" lon="2.34332">
        <ele>27.5</ele>
        <time>2023-10-06T13:30:14Z</time>
      </trkpt>
      <trkpt lat="49.87684" lon="2.34331">
        <ele>27.5</ele>
        <time>2023-10-06T13:30:15Z</time>
      </trkpt>
      <trkpt lat="49.87685" lon="2.3433">
        <ele>27.5</ele>
        <time>2023-10-06T13:30:16Z</time>
      </trkpt>
      <trkpt lat="49.87685" lon="2.34329">
        <ele>27.5</ele>
        <time>2023-10-06T13:30:17Z</time>
      </trkpt>
      <trkpt lat="49.87686" lon="2.34327">
        <ele>27.5</ele>
        <time>2023-10-06T13:30:18Z</time>
      </trkpt>
      <trkpt lat="49.87686" lon="2.34326">
        <ele>27.5</ele>
        <time>2023-10-06T13:30:19Z</time>
      </trkpt>
      <trkpt lat="49.87687" lon="2.34325">
        <ele>27.5</ele>
        <time>2023-10-06T13:30:20Z</time>
      </trkpt>
      <trkpt lat="49.87687" lon="2.34323">
        <ele>27.4</ele>
        <time>2023-10-06T13:30:21Z</time>
      </trkpt>
      <trkpt lat="49.87688" lon="2.34321">
        <ele>27.4</ele>
        <time>2023-10-06T13:30:22Z</time>
      </trkpt>
      <trkpt lat="49.87688" lon="2.3432">
        <ele>27.4</ele>
        <time>2023-10-06T13:30:23Z</time>
      </trkpt>
      <trkpt lat="49.87689" lon="2.34318">
        <ele>27.4</ele>
        <time>2023-10-06T13:30:24Z</time>
      </trkpt>
      <trkpt lat="49.87689" lon="2.34317">
        <ele>27.4</ele>
        <time>2023-10-06T13:30:25Z</time>
      </trkpt>
      <trkpt lat="49.8769" lon="2.34316">
        <ele>27.4</ele>
        <time>2023-10-06T13:30:26Z</time>
      </trkpt>
      <trkpt lat="49.8769" lon="2.34314">
        <ele>27.4</ele>
        <time>2023-10-06T13:30:27Z</time>
      </trkpt>
      <trkpt lat="49.87691" lon="2.34313">
        <ele>27.3</ele>
        <time>2023-10-06T13:30:28Z</time>
      </trkpt>
      <trkpt lat="49.87691" lon="2.34312">
        <ele>27.3</ele>
        <time>2023-10-06T13:30:29Z</time>
      </trkpt>
      <trkpt lat="49.87692" lon="2.34311">
        <ele>27.3</ele>
        <time>2023-10-06T13:30:30Z</time>
      </trkpt>
      <trkpt lat="49.87692" lon="2.3431">
        <ele>27.3</ele>
        <time>2023-10-06T13:30:31Z</time>
      </trkpt>
      <trkpt lat="49.87693" lon="2.34308">
        <ele>27.3</ele>
        <time>2023-10-06T13:30:32Z</time>
      </trkpt>
      <trkpt lat="49.87693" lon="2.34307">
        <ele>27.3</ele>
        <time>2023-10-06T13:30:33Z</time>
      </trkpt>
      <trkpt lat="49.87693" lon="2.34306">
        <ele>27.2</ele>
        <time>2023-10-06T13:30:34Z</time>
      </trkpt>
      <trkpt lat="49.87694" lon="2.34305">
        <ele>27.2</ele>
        <time>2023-10-06T13:30:35Z</time>
      </trkpt>
      <trkpt lat="49.87694" lon="2.34303">
        <ele>27.2</ele>
        <time>2023-10-06T13:30:36Z</time>
      </trkpt>
      <trkpt lat="49.87694" lon="2.34302">
        <ele>27.2</ele>
        <time>2023-10-06T13:30:37Z</time>
      </trkpt>
      <trkpt lat="49.87694" lon="2.34301">
        <ele>27.2</ele>
        <time>2023-10-06T13:30:38Z</time>
      </trkpt>
      <trkpt lat="49.87695" lon="2.343">
        <ele>27.2</ele>
        <time>2023-10-06T13:30:39Z</time>
      </trkpt>
      <trkpt lat="49.87695" lon="2.34299">
        <ele>27.2</ele>
        <time>2023-10-06T13:30:40Z</time>
      </trkpt>
      <trkpt lat="49.87695" lon="2.34297">
        <ele>27.2</ele>
        <time>2023-10-06T13:30:41Z</time>
      </trkpt>
      <trkpt lat="49.87696" lon="2.34296">
        <ele>27.1</ele>
        <time>2023-10-06T13:30:42Z</time>
      </trkpt>
      <trkpt lat="49.87696" lon="2.34294">
        <ele>27.1</ele>
        <time>2023-10-06T13:30:43Z</time>
      </trkpt>
      <trkpt lat="49.87696" lon="2.34293">
        <ele>27.1</ele>
        <time>2023-10-06T13:30:44Z</time>
      </trkpt>
      <trkpt lat="49.87697" lon="2.34291">
        <ele>27.1</ele>
        <time>2023-10-06T13:30:45Z</time>
      </trkpt>
      <trkpt lat="49.87697" lon="2.3429">
        <ele>27.1</ele>
        <time>2023-10-06T13:30:46Z</time>
      </trkpt>
      <trkpt lat="49.87697" lon="2.34288">
        <ele>27.1</ele>
        <time>2023-10-06T13:30:47Z</time>
      </trkpt>
      <trkpt lat="49.87697" lon="2.34287">
        <ele>27</ele>
        <time>2023-10-06T13:30:48Z</time>
      </trkpt>
      <trkpt lat="49.87698" lon="2.34285">
        <ele>27</ele>
        <time>2023-10-06T13:30:49Z</time>
      </trkpt>
      <trkpt lat="49.87698" lon="2.34284">
        <ele>27</ele>
        <time>2023-10-06T13:30:50Z</time>
      </trkpt>
      <trkpt lat="49.87698" lon="2.34282">
        <ele>27</ele>
        <time>2023-10-06T13:30:51Z</time>
      </trkpt>
      <trkpt lat="49.87698" lon="2.3428">
        <ele>27</ele>
        <time>2023-10-06T13:30:52Z</time>
      </trkpt>
      <trkpt lat="49.87698" lon="2.34279">
        <ele>26.9</ele>
        <time>2023-10-06T13:30:53Z</time>
      </trkpt>
      <trkpt lat="49.87698" lon="2.34277">
        <ele>26.9</ele>
        <time>2023-10-06T13:30:54Z</time>
      </trkpt>
      <trkpt lat="49.87699" lon="2.34275">
        <ele>26.9</ele>
        <time>2023-10-06T13:30:55Z</time>
      </trkpt>
      <trkpt lat="49.87699" lon="2.34274">
        <ele>26.9</ele>
        <time>2023-10-06T13:30:56Z</time>
      </trkpt>
      <trkpt lat="49.87699" lon="2.34272">
        <ele>26.8</ele>
        <time>2023-10-06T13:30:57Z</time>
      </trkpt>
      <trkpt lat="49.877" lon="2.34271">
        <ele>26.8</ele>
        <time>2023-10-06T13:30:58Z</time>
      </trkpt>
      <trkpt lat="49.877" lon="2.3427">
        <ele>26.8</ele>
        <time>2023-10-06T13:30:59Z</time>
      </trkpt>
      <trkpt lat="49.87701" lon="2.34269">
        <ele>26.8</ele>
        <time>2023-10-06T13:31:00Z</time>
      </trkpt>
      <trkpt lat="49.87701" lon="2.34268">
        <ele>26.8</ele>
        <time>2023-10-06T13:31:01Z</time>
      </trkpt>
      <trkpt lat="49.87701" lon="2.34267">
        <ele>26.8</ele>
        <time>2023-10-06T13:31:02Z</time>
      </trkpt>
      <trkpt lat="49.87702" lon="2.34265">
        <ele>26.7</ele>
        <time>2023-10-06T13:31:03Z</time>
      </trkpt>
      <trkpt lat="49.87702" lon="2.34264">
        <ele>26.7</ele>
        <time>2023-10-06T13:31:04Z</time>
      </trkpt>
      <trkpt lat="49.87702" lon="2.34263">
        <ele>26.7</ele>
        <time>2023-10-06T13:31:05Z</time>
      </trkpt>
      <trkpt lat="49.87703" lon="2.34261">
        <ele>26.7</ele>
        <time>2023-10-06T13:31:06Z</time>
      </trkpt>
      <trkpt lat="49.87703" lon="2.3426">
        <ele>26.7</ele>
        <time>2023-10-06T13:31:07Z</time>
      </trkpt>
      <trkpt lat="49.87704" lon="2.34258">
        <ele>26.6</ele>
        <time>2023-10-06T13:31:08Z</time>
      </trkpt>
      <trkpt lat="49.87704" lon="2.34257">
        <ele>26.6</ele>
        <time>2023-10-06T13:31:09Z</time>
      </trkpt>
      <trkpt lat="49.87705" lon="2.34255">
        <ele>26.6</ele>
        <time>2023-10-06T13:31:10Z</time>
      </trkpt>
      <trkpt lat="49.87705" lon="2.34254">
        <ele>26.6</ele>
        <time>2023-10-06T13:31:11Z</time>
      </trkpt>
      <trkpt lat="49.87706" lon="2.34251">
        <ele>26.5</ele>
        <time>2023-10-06T13:31:12Z</time>
      </trkpt>
      <trkpt lat="49.87707" lon="2.3425">
        <ele>26.5</ele>
        <time>2023-10-06T13:31:13Z</time>
      </trkpt>
      <trkpt lat="49.87707" lon="2.34249">
        <ele>26.5</ele>
        <time>2023-10-06T13:31:14Z</time>
      </trkpt>
      <trkpt lat="49.87708" lon="2.34247">
        <ele>26.5</ele>
        <time>2023-10-06T13:31:15Z</time>
      </trkpt>
      <trkpt lat="49.87709" lon="2.34245">
        <ele>26.4</ele>
        <time>2023-10-06T13:31:16Z</time>
      </trkpt>
      <trkpt lat="49.87709" lon="2.34243">
        <ele>26.4</ele>
        <time>2023-10-06T13:31:17Z</time>
      </trkpt>
      <trkpt lat="49.8771" lon="2.34242">
        <ele>26.4</ele>
        <time>2023-10-06T13:31:18Z</time>
      </trkpt>
      <trkpt lat="49.87711" lon="2.34239">
        <ele>26.3</ele>
        <time>2023-10-06T13:31:19Z</time>
      </trkpt>
      <trkpt lat="49.87712" lon="2.34238">
        <ele>26.3</ele>
        <time>2023-10-06T13:31:20Z</time>
      </trkpt>
      <trkpt lat="49.87712" lon="2.34237">
        <ele>26.3</ele>
        <time>2023-10-06T13:31:21Z</time>
      </trkpt>
      <trkpt lat="49.87713" lon="2.34236">
        <ele>26.3</ele>
        <time>2023-10-06T13:31:22Z</time>
      </trkpt>
      <trkpt lat="49.87714" lon="2.34235">
        <ele>26.2</ele>
        <time>2023-10-06T13:31:23Z</time>
      </trkpt>
      <trkpt lat="49.87714" lon="2.34234">
        <ele>26.2</ele>
        <time>2023-10-06T13:31:24Z</time>
      </trkpt>
      <trkpt lat="49.87715" lon="2.34233">
        <ele>26.2</ele>
        <time>2023-10-06T13:31:25Z</time>
      </trkpt>
      <trkpt lat="49.87715" lon="2.34233">
        <ele>26.2</ele>
        <time>2023-10-06T13:31:26Z</time>
      </trkpt>
      <trkpt lat="49.87716" lon="2.34233">
        <ele>26.2</ele>
        <time>2023-10-06T13:31:27Z</time>
      </trkpt>
      <trkpt lat="49.87716" lon="2.34233">
        <ele>26.2</ele>
        <time>2023-10-06T13:31:28Z</time>
      </trkpt>
      <trkpt lat="49.87717" lon="2.34233">
        <ele>26.2</ele>
        <time>2023-10-06T13:31:29Z</time>
      </trkpt>
      <trkpt lat="49.87717" lon="2.34232">
        <ele>26.2</ele>
        <time>2023-10-06T13:31:30Z</time>
      </trkpt>
      <trkpt lat="49.87717" lon="2.34231">
        <ele>26.2</ele>
        <time>2023-10-06T13:31:31Z</time>
      </trkpt>
      <trkpt lat="49.87718" lon="2.34231">
        <ele>26.1</ele>
        <time>2023-10-06T13:31:32Z</time>
      </trkpt>
      <trkpt lat="49.87718" lon="2.3423">
        <ele>26.1</ele>
        <time>2023-10-06T13:31:33Z</time>
      </trkpt>
      <trkpt lat="49.87719" lon="2.34229">
        <ele>26.1</ele>
        <time>2023-10-06T13:31:34Z</time>
      </trkpt>
      <trkpt lat="49.87719" lon="2.34228">
        <ele>26.1</ele>
        <time>2023-10-06T13:31:35Z</time>
      </trkpt>
      <trkpt lat="49.87719" lon="2.34227">
        <ele>26.1</ele>
        <time>2023-10-06T13:31:36Z</time>
      </trkpt>
      <trkpt lat="49.8772" lon="2.34226">
        <ele>26.1</ele>
        <time>2023-10-06T13:31:37Z</time>
      </trkpt>
      <trkpt lat="49.8772" lon="2.34225">
        <ele>26.1</ele>
        <time>2023-10-06T13:31:38Z</time>
      </trkpt>
      <trkpt lat="49.87721" lon="2.34223">
        <ele>26.1</ele>
        <time>2023-10-06T13:31:39Z</time>
      </trkpt>
      <trkpt lat="49.87721" lon="2.34222">
        <ele>26.1</ele>
        <time>2023-10-06T13:31:40Z</time>
      </trkpt>
      <trkpt lat="49.87722" lon="2.3422">
        <ele>26.1</ele>
        <time>2023-10-06T13:31:41Z</time>
      </trkpt>
      <trkpt lat="49.87722" lon="2.34219">
        <ele>26.1</ele>
        <time>2023-10-06T13:31:42Z</time>
      </trkpt>
      <trkpt lat="49.87722" lon="2.34218">
        <ele>26.1</ele>
        <time>2023-10-06T13:31:43Z</time>
      </trkpt>
      <trkpt lat="49.87723" lon="2.34216">
        <ele>26</ele>
        <time>2023-10-06T13:31:44Z</time>
      </trkpt>
      <trkpt lat="49.87723" lon="2.34215">
        <ele>26</ele>
        <time>2023-10-06T13:31:45Z</time>
      </trkpt>
      <trkpt lat="49.87724" lon="2.34213">
        <ele>26</ele>
        <time>2023-10-06T13:31:46Z</time>
      </trkpt>
      <trkpt lat="49.87724" lon="2.34212">
        <ele>26</ele>
        <time>2023-10-06T13:31:47Z</time>
      </trkpt>
      <trkpt lat="49.87724" lon="2.34211">
        <ele>26</ele>
        <time>2023-10-06T13:31:48Z</time>
      </trkpt>
      <trkpt lat="49.87725" lon="2.34209">
        <ele>26</ele>
        <time>2023-10-06T13:31:49Z</time>
      </trkpt>
      <trkpt lat="49.87725" lon="2.34208">
        <ele>26</ele>
        <time>2023-10-06T13:31:50Z</time>
      </trkpt>
      <trkpt lat="49.87726" lon="2.34206">
        <ele>26</ele>
        <time>2023-10-06T13:31:51Z</time>
      </trkpt>
      <trkpt lat="49.87727" lon="2.34203">
        <ele>26</ele>
        <time>2023-10-06T13:31:52Z</time>
      </trkpt>
      <trkpt lat="49.87727" lon="2.34202">
        <ele>25.9</ele>
        <time>2023-10-06T13:31:53Z</time>
      </trkpt>
      <trkpt lat="49.87728" lon="2.342">
        <ele>25.9</ele>
        <time>2023-10-06T13:31:54Z</time>
      </trkpt>
      <trkpt lat="49.87729" lon="2.34199">
        <ele>25.9</ele>
        <time>2023-10-06T13:31:55Z</time>
      </trkpt>
      <trkpt lat="49.8773" lon="2.34197">
        <ele>25.9</ele>
        <time>2023-10-06T13:31:56Z</time>
      </trkpt>
      <trkpt lat="49.87731" lon="2.34194">
        <ele>25.9</ele>
        <time>2023-10-06T13:31:57Z</time>
      </trkpt>
      <trkpt lat="49.87731" lon="2.34193">
        <ele>25.9</ele>
        <time>2023-10-06T13:31:58Z</time>
      </trkpt>
      <trkpt lat="49.87732" lon="2.34192">
        <ele>25.9</ele>
        <time>2023-10-06T13:31:59Z</time>
      </trkpt>
      <trkpt lat="49.87733" lon="2.34191">
        <ele>25.9</ele>
        <time>2023-10-06T13:32:00Z</time>
      </trkpt>
      <trkpt lat="49.87733" lon="2.3419">
        <ele>25.9</ele>
        <time>2023-10-06T13:32:01Z</time>
      </trkpt>
      <trkpt lat="49.87734" lon="2.34188">
        <ele>25.8</ele>
        <time>2023-10-06T13:32:02Z</time>
      </trkpt>
      <trkpt lat="49.87735" lon="2.34187">
        <ele>25.8</ele>
        <time>2023-10-06T13:32:03Z</time>
      </trkpt>
      <trkpt lat="49.87735" lon="2.34185">
        <ele>25.8</ele>
        <time>2023-10-06T13:32:04Z</time>
      </trkpt>
      <trkpt lat="49.87736" lon="2.34184">
        <ele>25.8</ele>
        <time>2023-10-06T13:32:05Z</time>
      </trkpt>
      <trkpt lat="49.87736" lon="2.34182">
        <ele>25.8</ele>
        <time>2023-10-06T13:32:06Z</time>
      </trkpt>
      <trkpt lat="49.87736" lon="2.34181">
        <ele>25.8</ele>
        <time>2023-10-06T13:32:07Z</time>
      </trkpt>
      <trkpt lat="49.87736" lon="2.3418">
        <ele>25.8</ele>
        <time>2023-10-06T13:32:08Z</time>
      </trkpt>
      <trkpt lat="49.87736" lon="2.34178">
        <ele>25.8</ele>
        <time>2023-10-06T13:32:09Z</time>
      </trkpt>
      <trkpt lat="49.87736" lon="2.34176">
        <ele>25.8</ele>
        <time>2023-10-06T13:32:10Z</time>
      </trkpt>
      <trkpt lat="49.87736" lon="2.34175">
        <ele>25.8</ele>
        <time>2023-10-06T13:32:11Z</time>
      </trkpt>
      <trkpt lat="49.87736" lon="2.34173">
        <ele>25.8</ele>
        <time>2023-10-06T13:32:12Z</time>
      </trkpt>
      <trkpt lat="49.87737" lon="2.34172">
        <ele>25.8</ele>
        <time>2023-10-06T13:32:13Z</time>
      </trkpt>
      <trkpt lat="49.87737" lon="2.34171">
        <ele>25.8</ele>
        <time>2023-10-06T13:32:14Z</time>
      </trkpt>
      <trkpt lat="49.87737" lon="2.3417">
        <ele>25.7</ele>
        <time>2023-10-06T13:32:15Z</time>
      </trkpt>
      <trkpt lat="49.87737" lon="2.34169">
        <ele>25.7</ele>
        <time>2023-10-06T13:32:16Z</time>
      </trkpt>
      <trkpt lat="49.87737" lon="2.34168">
        <ele>25.7</ele>
        <time>2023-10-06T13:32:17Z</time>
      </trkpt>
      <trkpt lat="49.87737" lon="2.34167">
        <ele>25.7</ele>
        <time>2023-10-06T13:32:18Z</time>
      </trkpt>
      <trkpt lat="49.87737" lon="2.34166">
        <ele>25.7</ele>
        <time>2023-10-06T13:32:19Z</time>
      </trkpt>
      <trkpt lat="49.87737" lon="2.34164">
        <ele>25.7</ele>
        <time>2023-10-06T13:32:20Z</time>
      </trkpt>
      <trkpt lat="49.87737" lon="2.34163">
        <ele>25.7</ele>
        <time>2023-10-06T13:32:21Z</time>
      </trkpt>
      <trkpt lat="49.87737" lon="2.34162">
        <ele>25.7</ele>
        <time>2023-10-06T13:32:22Z</time>
      </trkpt>
      <trkpt lat="49.87737" lon="2.3416">
        <ele>25.7</ele>
        <time>2023-10-06T13:32:23Z</time>
      </trkpt>
      <trkpt lat="49.87737" lon="2.34159">
        <ele>25.7</ele>
        <time>2023-10-06T13:32:24Z</time>
      </trkpt>
      <trkpt lat="49.87737" lon="2.34157">
        <ele>25.7</ele>
        <time>2023-10-06T13:32:25Z</time>
      </trkpt>
      <trkpt lat="49.87737" lon="2.34156">
        <ele>25.7</ele>
        <time>2023-10-06T13:32:26Z</time>
      </trkpt>
      <trkpt lat="49.87737" lon="2.34155">
        <ele>25.7</ele>
        <time>2023-10-06T13:32:27Z</time>
      </trkpt>
      <trkpt lat="49.87737" lon="2.34154">
        <ele>25.7</ele>
        <time>2023-10-06T13:32:28Z</time>
      </trkpt>
      <trkpt lat="49.87737" lon="2.34152">
        <ele>25.7</ele>
        <time>2023-10-06T13:32:29Z</time>
      </trkpt>
      <trkpt lat="49.87737" lon="2.34151">
        <ele>25.7</ele>
        <time>2023-10-06T13:32:30Z</time>
      </trkpt>
      <trkpt lat="49.87737" lon="2.34149">
        <ele>25.7</ele>
        <time>2023-10-06T13:32:31Z</time>
      </trkpt>
      <trkpt lat="49.87737" lon="2.34148">
        <ele>25.7</ele>
        <time>2023-10-06T13:32:32Z</time>
      </trkpt>
      <trkpt lat="49.87737" lon="2.34146">
        <ele>25.7</ele>
        <time>2023-10-06T13:32:33Z</time>
      </trkpt>
      <trkpt lat="49.87737" lon="2.34144">
        <ele>25.7</ele>
        <time>2023-10-06T13:32:34Z</time>
      </trkpt>
      <trkpt lat="49.87737" lon="2.34143">
        <ele>25.7</ele>
        <time>2023-10-06T13:32:35Z</time>
      </trkpt>
      <trkpt lat="49.87737" lon="2.34142">
        <ele>25.7</ele>
        <time>2023-10-06T13:32:36Z</time>
      </trkpt>
      <trkpt lat="49.87737" lon="2.34141">
        <ele>25.7</ele>
        <time>2023-10-06T13:32:37Z</time>
      </trkpt>
      <trkpt lat="49.87737" lon="2.34139">
        <ele>25.7</ele>
        <time>2023-10-06T13:32:38Z</time>
      </trkpt>
      <trkpt lat="49.87737" lon="2.34138">
        <ele>25.6</ele>
        <time>2023-10-06T13:32:39Z</time>
      </trkpt>
      <trkpt lat="49.87737" lon="2.34136">
        <ele>25.6</ele>
        <time>2023-10-06T13:32:40Z</time>
      </trkpt>
      <trkpt lat="49.87737" lon="2.34135">
        <ele>25.6</ele>
        <time>2023-10-06T13:32:41Z</time>
      </trkpt>
      <trkpt lat="49.87738" lon="2.34133">
        <ele>25.6</ele>
        <time>2023-10-06T13:32:42Z</time>
      </trkpt>
      <trkpt lat="49.87738" lon="2.34132">
        <ele>25.6</ele>
        <time>2023-10-06T13:32:43Z</time>
      </trkpt>
      <trkpt lat="49.87738" lon="2.3413">
        <ele>25.6</ele>
        <time>2023-10-06T13:32:44Z</time>
      </trkpt>
      <trkpt lat="49.87738" lon="2.34129">
        <ele>25.6</ele>
        <time>2023-10-06T13:32:45Z</time>
      </trkpt>
      <trkpt lat="49.87739" lon="2.34128">
        <ele>25.6</ele>
        <time>2023-10-06T13:32:46Z</time>
      </trkpt>
      <trkpt lat="49.87739" lon="2.34126">
        <ele>25.6</ele>
        <time>2023-10-06T13:32:47Z</time>
      </trkpt>
      <trkpt lat="49.87739" lon="2.34125">
        <ele>25.6</ele>
        <time>2023-10-06T13:32:48Z</time>
      </trkpt>
      <trkpt lat="49.8774" lon="2.34123">
        <ele>25.6</ele>
        <time>2023-10-06T13:32:49Z</time>
      </trkpt>
      <trkpt lat="49.8774" lon="2.34122">
        <ele>25.6</ele>
        <time>2023-10-06T13:32:50Z</time>
      </trkpt>
      <trkpt lat="49.87741" lon="2.3412">
        <ele>25.6</ele>
        <time>2023-10-06T13:32:51Z</time>
      </trkpt>
      <trkpt lat="49.87741" lon="2.34119">
        <ele>25.6</ele>
        <time>2023-10-06T13:32:52Z</time>
      </trkpt>
      <trkpt lat="49.87741" lon="2.34117">
        <ele>25.6</ele>
        <time>2023-10-06T13:32:53Z</time>
      </trkpt>
      <trkpt lat="49.87742" lon="2.34115">
        <ele>25.6</ele>
        <time>2023-10-06T13:32:54Z</time>
      </trkpt>
      <trkpt lat="49.87742" lon="2.34114">
        <ele>25.6</ele>
        <time>2023-10-06T13:32:55Z</time>
      </trkpt>
      <trkpt lat="49.87742" lon="2.34112">
        <ele>25.6</ele>
        <time>2023-10-06T13:32:56Z</time>
      </trkpt>
      <trkpt lat="49.87743" lon="2.3411">
        <ele>25.6</ele>
        <time>2023-10-06T13:32:57Z</time>
      </trkpt>
      <trkpt lat="49.87743" lon="2.34109">
        <ele>25.6</ele>
        <time>2023-10-06T13:32:58Z</time>
      </trkpt>
      <trkpt lat="49.87743" lon="2.34107">
        <ele>25.6</ele>
        <time>2023-10-06T13:32:59Z</time>
      </trkpt>
      <trkpt lat="49.87744" lon="2.34106">
        <ele>25.6</ele>
        <time>2023-10-06T13:33:00Z</time>
      </trkpt>
      <trkpt lat="49.87744" lon="2.34104">
        <ele>25.6</ele>
        <time>2023-10-06T13:33:01Z</time>
      </trkpt>
      <trkpt lat="49.87745" lon="2.34103">
        <ele>25.6</ele>
        <time>2023-10-06T13:33:02Z</time>
      </trkpt>
      <trkpt lat="49.87745" lon="2.34101">
        <ele>25.6</ele>
        <time>2023-10-06T13:33:03Z</time>
      </trkpt>
      <trkpt lat="49.87745" lon="2.34099">
        <ele>25.6</ele>
        <time>2023-10-06T13:33:04Z</time>
      </trkpt>
      <trkpt lat="49.87746" lon="2.34098">
        <ele>25.6</ele>
        <time>2023-10-06T13:33:05Z</time>
      </trkpt>
      <trkpt lat="49.87746" lon="2.34096">
        <ele>25.6</ele>
        <time>2023-10-06T13:33:06Z</time>
      </trkpt>
      <trkpt lat="49.87747" lon="2.34095">
        <ele>25.6</ele>
        <time>2023-10-06T13:33:07Z</time>
      </trkpt>
      <trkpt lat="49.87747" lon="2.34093">
        <ele>25.6</ele>
        <time>2023-10-06T13:33:08Z</time>
      </trkpt>
      <trkpt lat="49.87748" lon="2.34092">
        <ele>25.6</ele>
        <time>2023-10-06T13:33:09Z</time>
      </trkpt>
      <trkpt lat="49.87748" lon="2.3409">
        <ele>25.6</ele>
        <time>2023-10-06T13:33:10Z</time>
      </trkpt>
      <trkpt lat="49.87749" lon="2.34089">
        <ele>25.7</ele>
        <time>2023-10-06T13:33:11Z</time>
      </trkpt>
      <trkpt lat="49.87749" lon="2.34088">
        <ele>25.7</ele>
        <time>2023-10-06T13:33:12Z</time>
      </trkpt>
      <trkpt lat="49.87749" lon="2.34087">
        <ele>25.7</ele>
        <time>2023-10-06T13:33:13Z</time>
      </trkpt>
      <trkpt lat="49.8775" lon="2.34085">
        <ele>25.7</ele>
        <time>2023-10-06T13:33:14Z</time>
      </trkpt>
      <trkpt lat="49.8775" lon="2.34084">
        <ele>25.7</ele>
        <time>2023-10-06T13:33:15Z</time>
      </trkpt>
      <trkpt lat="49.87751" lon="2.34083">
        <ele>25.7</ele>
        <time>2023-10-06T13:33:16Z</time>
      </trkpt>
      <trkpt lat="49.87751" lon="2.34082">
        <ele>25.7</ele>
        <time>2023-10-06T13:33:17Z</time>
      </trkpt>
      <trkpt lat="49.87751" lon="2.3408">
        <ele>25.7</ele>
        <time>2023-10-06T13:33:18Z</time>
      </trkpt>
      <trkpt lat="49.87752" lon="2.34079">
        <ele>25.7</ele>
        <time>2023-10-06T13:33:19Z</time>
      </trkpt>
      <trkpt lat="49.87752" lon="2.34077">
        <ele>25.7</ele>
        <time>2023-10-06T13:33:20Z</time>
      </trkpt>
      <trkpt lat="49.87752" lon="2.34075">
        <ele>25.7</ele>
        <time>2023-10-06T13:33:21Z</time>
      </trkpt>
      <trkpt lat="49.87753" lon="2.34073">
        <ele>25.8</ele>
        <time>2023-10-06T13:33:22Z</time>
      </trkpt>
      <trkpt lat="49.87753" lon="2.3407">
        <ele>25.8</ele>
        <time>2023-10-06T13:33:23Z</time>
      </trkpt>
      <trkpt lat="49.87753" lon="2.34068">
        <ele>25.8</ele>
        <time>2023-10-06T13:33:24Z</time>
      </trkpt>
      <trkpt lat="49.87754" lon="2.34063">
        <ele>25.9</ele>
        <time>2023-10-06T13:33:25Z</time>
      </trkpt>
      <trkpt lat="49.87754" lon="2.34062">
        <ele>25.9</ele>
        <time>2023-10-06T13:33:26Z</time>
      </trkpt>
      <trkpt lat="49.87755" lon="2.3406">
        <ele>25.9</ele>
        <time>2023-10-06T13:33:27Z</time>
      </trkpt>
      <trkpt lat="49.87756" lon="2.34057">
        <ele>25.9</ele>
        <time>2023-10-06T13:33:28Z</time>
      </trkpt>
      <trkpt lat="49.87756" lon="2.34055">
        <ele>25.9</ele>
        <time>2023-10-06T13:33:29Z</time>
      </trkpt>
      <trkpt lat="49.87757" lon="2.34053">
        <ele>26</ele>
        <time>2023-10-06T13:33:30Z</time>
      </trkpt>
      <trkpt lat="49.87758" lon="2.34051">
        <ele>26</ele>
        <time>2023-10-06T13:33:31Z</time>
      </trkpt>
      <trkpt lat="49.87759" lon="2.3405">
        <ele>26</ele>
        <time>2023-10-06T13:33:32Z</time>
      </trkpt>
      <trkpt lat="49.8776" lon="2.34048">
        <ele>26</ele>
        <time>2023-10-06T13:33:33Z</time>
      </trkpt>
      <trkpt lat="49.87761" lon="2.34046">
        <ele>26.1</ele>
        <time>2023-10-06T13:33:34Z</time>
      </trkpt>
      <trkpt lat="49.87762" lon="2.34045">
        <ele>26.1</ele>
        <time>2023-10-06T13:33:35Z</time>
      </trkpt>
      <trkpt lat="49.87763" lon="2.34043">
        <ele>26.1</ele>
        <time>2023-10-06T13:33:36Z</time>
      </trkpt>
      <trkpt lat="49.87764" lon="2.34041">
        <ele>26.1</ele>
        <time>2023-10-06T13:33:37Z</time>
      </trkpt>
      <trkpt lat="49.87765" lon="2.3404">
        <ele>26.1</ele>
        <time>2023-10-06T13:33:38Z</time>
      </trkpt>
      <trkpt lat="49.87766" lon="2.34037">
        <ele>26.2</ele>
        <time>2023-10-06T13:33:39Z</time>
      </trkpt>
      <trkpt lat="49.87767" lon="2.34036">
        <ele>26.2</ele>
        <time>2023-10-06T13:33:40Z</time>
      </trkpt>
      <trkpt lat="49.87767" lon="2.34035">
        <ele>26.2</ele>
        <time>2023-10-06T13:33:41Z</time>
      </trkpt>
      <trkpt lat="49.87769" lon="2.34033">
        <ele>26.2</ele>
        <time>2023-10-06T13:33:42Z</time>
      </trkpt>
      <trkpt lat="49.8777" lon="2.34033">
        <ele>26.2</ele>
        <time>2023-10-06T13:33:43Z</time>
      </trkpt>
      <trkpt lat="49.8777" lon="2.34032">
        <ele>26.2</ele>
        <time>2023-10-06T13:33:44Z</time>
      </trkpt>
      <trkpt lat="49.87771" lon="2.34031">
        <ele>26.2</ele>
        <time>2023-10-06T13:33:45Z</time>
      </trkpt>
      <trkpt lat="49.87772" lon="2.34029">
        <ele>26.3</ele>
        <time>2023-10-06T13:33:46Z</time>
      </trkpt>
      <trkpt lat="49.87773" lon="2.34028">
        <ele>26.3</ele>
        <time>2023-10-06T13:33:47Z</time>
      </trkpt>
      <trkpt lat="49.87773" lon="2.34027">
        <ele>26.3</ele>
        <time>2023-10-06T13:33:48Z</time>
      </trkpt>
      <trkpt lat="49.87774" lon="2.34025">
        <ele>26.3</ele>
        <time>2023-10-06T13:33:49Z</time>
      </trkpt>
      <trkpt lat="49.87774" lon="2.34024">
        <ele>26.3</ele>
        <time>2023-10-06T13:33:50Z</time>
      </trkpt>
      <trkpt lat="49.87775" lon="2.34023">
        <ele>26.3</ele>
        <time>2023-10-06T13:33:51Z</time>
      </trkpt>
      <trkpt lat="49.87775" lon="2.34022">
        <ele>26.3</ele>
        <time>2023-10-06T13:33:52Z</time>
      </trkpt>
      <trkpt lat="49.87775" lon="2.34021">
        <ele>26.3</ele>
        <time>2023-10-06T13:33:53Z</time>
      </trkpt>
      <trkpt lat="49.87775" lon="2.3402">
        <ele>26.3</ele>
        <time>2023-10-06T13:33:54Z</time>
      </trkpt>
      <trkpt lat="49.87776" lon="2.34018">
        <ele>26.4</ele>
        <time>2023-10-06T13:33:55Z</time>
      </trkpt>
      <trkpt lat="49.87776" lon="2.34017">
        <ele>26.4</ele>
        <time>2023-10-06T13:33:56Z</time>
      </trkpt>
      <trkpt lat="49.87776" lon="2.34016">
        <ele>26.4</ele>
        <time>2023-10-06T13:33:57Z</time>
      </trkpt>
      <trkpt lat="49.87776" lon="2.34015">
        <ele>26.4</ele>
        <time>2023-10-06T13:33:58Z</time>
      </trkpt>
      <trkpt lat="49.87777" lon="2.34014">
        <ele>26.4</ele>
        <time>2023-10-06T13:33:59Z</time>
      </trkpt>
      <trkpt lat="49.87777" lon="2.34013">
        <ele>26.4</ele>
        <time>2023-10-06T13:34:00Z</time>
      </trkpt>
      <trkpt lat="49.87777" lon="2.34012">
        <ele>26.4</ele>
        <time>2023-10-06T13:34:01Z</time>
      </trkpt>
      <trkpt lat="49.87777" lon="2.34011">
        <ele>26.4</ele>
        <time>2023-10-06T13:34:02Z</time>
      </trkpt>
      <trkpt lat="49.87778" lon="2.3401">
        <ele>26.4</ele>
        <time>2023-10-06T13:34:03Z</time>
      </trkpt>
      <trkpt lat="49.87778" lon="2.34008">
        <ele>26.4</ele>
        <time>2023-10-06T13:34:04Z</time>
      </trkpt>
      <trkpt lat="49.87778" lon="2.34007">
        <ele>26.5</ele>
        <time>2023-10-06T13:34:05Z</time>
      </trkpt>
      <trkpt lat="49.87778" lon="2.34006">
        <ele>26.5</ele>
        <time>2023-10-06T13:34:06Z</time>
      </trkpt>
      <trkpt lat="49.87779" lon="2.34005">
        <ele>26.5</ele>
        <time>2023-10-06T13:34:07Z</time>
      </trkpt>
      <trkpt lat="49.87779" lon="2.34004">
        <ele>26.5</ele>
        <time>2023-10-06T13:34:08Z</time>
      </trkpt>
      <trkpt lat="49.87779" lon="2.34003">
        <ele>26.5</ele>
        <time>2023-10-06T13:34:09Z</time>
      </trkpt>
      <trkpt lat="49.8778" lon="2.34002">
        <ele>26.5</ele>
        <time>2023-10-06T13:34:10Z</time>
      </trkpt>
      <trkpt lat="49.8778" lon="2.34001">
        <ele>26.5</ele>
        <time>2023-10-06T13:34:11Z</time>
      </trkpt>
      <trkpt lat="49.8778" lon="2.34">
        <ele>26.5</ele>
        <time>2023-10-06T13:34:12Z</time>
      </trkpt>
      <trkpt lat="49.87781" lon="2.33999">
        <ele>26.5</ele>
        <time>2023-10-06T13:34:13Z</time>
      </trkpt>
      <trkpt lat="49.87781" lon="2.33998">
        <ele>26.5</ele>
        <time>2023-10-06T13:34:14Z</time>
      </trkpt>
      <trkpt lat="49.87781" lon="2.33997">
        <ele>26.5</ele>
        <time>2023-10-06T13:34:15Z</time>
      </trkpt>
      <trkpt lat="49.87781" lon="2.33996">
        <ele>26.6</ele>
        <time>2023-10-06T13:34:16Z</time>
      </trkpt>
      <trkpt lat="49.87781" lon="2.33995">
        <ele>26.6</ele>
        <time>2023-10-06T13:34:17Z</time>
      </trkpt>
      <trkpt lat="49.87781" lon="2.33994">
        <ele>26.7</ele>
        <time>2023-10-06T13:34:18Z</time>
      </trkpt>
      <trkpt lat="49.87781" lon="2.33993">
        <ele>26.7</ele>
        <time>2023-10-06T13:34:19Z</time>
      </trkpt>
      <trkpt lat="49.87781" lon="2.33992">
        <ele>26.7</ele>
        <time>2023-10-06T13:34:20Z</time>
      </trkpt>
      <trkpt lat="49.87781" lon="2.33991">
        <ele>26.7</ele>
        <time>2023-10-06T13:34:21Z</time>
      </trkpt>
      <trkpt lat="49.87781" lon="2.3399">
        <ele>26.7</ele>
        <time>2023-10-06T13:34:22Z</time>
      </trkpt>
      <trkpt lat="49.87781" lon="2.3399">
        <ele>26.7</ele>
        <time>2023-10-06T13:34:23Z</time>
      </trkpt>
      <trkpt lat="49.87781" lon="2.3399">
        <ele>26.7</ele>
        <time>2023-10-06T13:34:24Z</time>
      </trkpt>
      <trkpt lat="49.87781" lon="2.3399">
        <ele>26.7</ele>
        <time>2023-10-06T13:34:25Z</time>
      </trkpt>
      <trkpt lat="49.87781" lon="2.3399">
        <ele>26.8</ele>
        <time>2023-10-06T13:34:26Z</time>
      </trkpt>
      <trkpt lat="49.87782" lon="2.3399">
        <ele>26.8</ele>
        <time>2023-10-06T13:34:27Z</time>
      </trkpt>
      <trkpt lat="49.87781" lon="2.3399">
        <ele>26.8</ele>
        <time>2023-10-06T13:34:28Z</time>
      </trkpt>
      <trkpt lat="49.87781" lon="2.3399">
        <ele>26.8</ele>
        <time>2023-10-06T13:34:29Z</time>
      </trkpt>
      <trkpt lat="49.87781" lon="2.33989">
        <ele>26.8</ele>
        <time>2023-10-06T13:34:30Z</time>
      </trkpt>
      <trkpt lat="49.87781" lon="2.33989">
        <ele>26.8</ele>
        <time>2023-10-06T13:34:31Z</time>
      </trkpt>
      <trkpt lat="49.87781" lon="2.33989">
        <ele>26.8</ele>
        <time>2023-10-06T13:34:32Z</time>
      </trkpt>
      <trkpt lat="49.8778" lon="2.3399">
        <ele>26.8</ele>
        <time>2023-10-06T13:34:33Z</time>
      </trkpt>
      <trkpt lat="49.87779" lon="2.3399">
        <ele>26.8</ele>
        <time>2023-10-06T13:34:34Z</time>
      </trkpt>
      <trkpt lat="49.87779" lon="2.3399">
        <ele>26.8</ele>
        <time>2023-10-06T13:34:35Z</time>
      </trkpt>
      <trkpt lat="49.87778" lon="2.3399">
        <ele>26.9</ele>
        <time>2023-10-06T13:34:36Z</time>
      </trkpt>
      <trkpt lat="49.87777" lon="2.33989">
        <ele>26.9</ele>
        <time>2023-10-06T13:34:37Z</time>
      </trkpt>
      <trkpt lat="49.87776" lon="2.33989">
        <ele>26.9</ele>
        <time>2023-10-06T13:34:38Z</time>
      </trkpt>
      <trkpt lat="49.87775" lon="2.33989">
        <ele>26.9</ele>
        <time>2023-10-06T13:34:39Z</time>
      </trkpt>
      <trkpt lat="49.87774" lon="2.33989">
        <ele>27</ele>
        <time>2023-10-06T13:34:40Z</time>
      </trkpt>
      <trkpt lat="49.87773" lon="2.33989">
        <ele>27</ele>
        <time>2023-10-06T13:34:41Z</time>
      </trkpt>
      <trkpt lat="49.87772" lon="2.33988">
        <ele>27.1</ele>
        <time>2023-10-06T13:34:42Z</time>
      </trkpt>
      <trkpt lat="49.87771" lon="2.33988">
        <ele>27.1</ele>
        <time>2023-10-06T13:34:43Z</time>
      </trkpt>
      <trkpt lat="49.8777" lon="2.33988">
        <ele>27.1</ele>
        <time>2023-10-06T13:34:44Z</time>
      </trkpt>
      <trkpt lat="49.87769" lon="2.33987">
        <ele>27.1</ele>
        <time>2023-10-06T13:34:45Z</time>
      </trkpt>
      <trkpt lat="49.87768" lon="2.33987">
        <ele>27.1</ele>
        <time>2023-10-06T13:34:46Z</time>
      </trkpt>
      <trkpt lat="49.87767" lon="2.33987">
        <ele>27</ele>
        <time>2023-10-06T13:34:47Z</time>
      </trkpt>
      <trkpt lat="49.87766" lon="2.33987">
        <ele>27</ele>
        <time>2023-10-06T13:34:48Z</time>
      </trkpt>
      <trkpt lat="49.87765" lon="2.33988">
        <ele>27</ele>
        <time>2023-10-06T13:34:49Z</time>
      </trkpt>
      <trkpt lat="49.87765" lon="2.33988">
        <ele>27</ele>
        <time>2023-10-06T13:34:50Z</time>
      </trkpt>
      <trkpt lat="49.87764" lon="2.33988">
        <ele>27</ele>
        <time>2023-10-06T13:34:51Z</time>
      </trkpt>
      <trkpt lat="49.87763" lon="2.33988">
        <ele>27</ele>
        <time>2023-10-06T13:34:52Z</time>
      </trkpt>
      <trkpt lat="49.87762" lon="2.33988">
        <ele>27</ele>
        <time>2023-10-06T13:34:53Z</time>
      </trkpt>
      <trkpt lat="49.87762" lon="2.33988">
        <ele>26.9</ele>
        <time>2023-10-06T13:34:54Z</time>
      </trkpt>
      <trkpt lat="49.87761" lon="2.33988">
        <ele>26.9</ele>
        <time>2023-10-06T13:34:55Z</time>
      </trkpt>
      <trkpt lat="49.87761" lon="2.33988">
        <ele>26.9</ele>
        <time>2023-10-06T13:34:56Z</time>
      </trkpt>
      <trkpt lat="49.8776" lon="2.33988">
        <ele>26.9</ele>
        <time>2023-10-06T13:34:57Z</time>
      </trkpt>
      <trkpt lat="49.8776" lon="2.33988">
        <ele>26.9</ele>
        <time>2023-10-06T13:34:58Z</time>
      </trkpt>
      <trkpt lat="49.8776" lon="2.33988">
        <ele>26.9</ele>
        <time>2023-10-06T13:34:59Z</time>
      </trkpt>
      <trkpt lat="49.8776" lon="2.33988">
        <ele>26.9</ele>
        <time>2023-10-06T13:35:00Z</time>
      </trkpt>
      <trkpt lat="49.8776" lon="2.33988">
        <ele>26.9</ele>
        <time>2023-10-06T13:35:01Z</time>
      </trkpt>
      <trkpt lat="49.8776" lon="2.33988">
        <ele>26.9</ele>
        <time>2023-10-06T13:35:02Z</time>
      </trkpt>
      <trkpt lat="49.8776" lon="2.33988">
        <ele>26.9</ele>
        <time>2023-10-06T13:35:03Z</time>
      </trkpt>
      <trkpt lat="49.8776" lon="2.33988">
        <ele>26.9</ele>
        <time>2023-10-06T13:35:04Z</time>
      </trkpt>
      <trkpt lat="49.8776" lon="2.33988">
        <ele>26.9</ele>
        <time>2023-10-06T13:35:05Z</time>
      </trkpt>
      <trkpt lat="49.8776" lon="2.33988">
        <ele>26.9</ele>
        <time>2023-10-06T13:35:06Z</time>
      </trkpt>
      <trkpt lat="49.8776" lon="2.33988">
        <ele>26.9</ele>
        <time>2023-10-06T13:35:07Z</time>
      </trkpt>
      <trkpt lat="49.8776" lon="2.33988">
        <ele>26.9</ele>
        <time>2023-10-06T13:35:08Z</time>
      </trkpt>
      <trkpt lat="49.8776" lon="2.33988">
        <ele>26.9</ele>
        <time>2023-10-06T13:35:09Z</time>
      </trkpt>
      <trkpt lat="49.8776" lon="2.33988">
        <ele>26.9</ele>
        <time>2023-10-06T13:35:10Z</time>
      </trkpt>
      <trkpt lat="49.8776" lon="2.33988">
        <ele>26.9</ele>
        <time>2023-10-06T13:35:11Z</time>
      </trkpt>
      <trkpt lat="49.8776" lon="2.33988">
        <ele>26.9</ele>
        <time>2023-10-06T13:35:12Z</time>
      </trkpt>
      <trkpt lat="49.8776" lon="2.33988">
        <ele>26.9</ele>
        <time>2023-10-06T13:35:13Z</time>
      </trkpt>
      <trkpt lat="49.8776" lon="2.33988">
        <ele>26.9</ele>
        <time>2023-10-06T13:35:14Z</time>
      </trkpt>
      <trkpt lat="49.8776" lon="2.33988">
        <ele>26.9</ele>
        <time>2023-10-06T13:35:15Z</time>
      </trkpt>
      <trkpt lat="49.8776" lon="2.33988">
        <ele>26.9</ele>
        <time>2023-10-06T13:35:16Z</time>
      </trkpt>
      <trkpt lat="49.8776" lon="2.33988">
        <ele>26.9</ele>
        <time>2023-10-06T13:35:17Z</time>
      </trkpt>
      <trkpt lat="49.8776" lon="2.33988">
        <ele>26.9</ele>
        <time>2023-10-06T13:35:18Z</time>
      </trkpt>
      <trkpt lat="49.8776" lon="2.33988">
        <ele>26.9</ele>
        <time>2023-10-06T13:35:19Z</time>
      </trkpt>
      <trkpt lat="49.8776" lon="2.33988">
        <ele>26.9</ele>
        <time>2023-10-06T13:35:20Z</time>
      </trkpt>
      <trkpt lat="49.8776" lon="2.33988">
        <ele>26.9</ele>
        <time>2023-10-06T13:35:21Z</time>
      </trkpt>
      <trkpt lat="49.87761" lon="2.33988">
        <ele>26.9</ele>
        <time>2023-10-06T13:35:22Z</time>
      </trkpt>
      <trkpt lat="49.87761" lon="2.33988">
        <ele>26.9</ele>
        <time>2023-10-06T13:35:23Z</time>
      </trkpt>
      <trkpt lat="49.87761" lon="2.33988">
        <ele>26.9</ele>
        <time>2023-10-06T13:35:24Z</time>
      </trkpt>
      <trkpt lat="49.87761" lon="2.33988">
        <ele>26.9</ele>
        <time>2023-10-06T13:35:25Z</time>
      </trkpt>
      <trkpt lat="49.87761" lon="2.33988">
        <ele>26.9</ele>
        <time>2023-10-06T13:35:26Z</time>
      </trkpt>
      <trkpt lat="49.87761" lon="2.33988">
        <ele>26.9</ele>
        <time>2023-10-06T13:35:27Z</time>
      </trkpt>
      <trkpt lat="49.87761" lon="2.33988">
        <ele>26.9</ele>
        <time>2023-10-06T13:35:28Z</time>
      </trkpt>
      <trkpt lat="49.87761" lon="2.33988">
        <ele>26.9</ele>
        <time>2023-10-06T13:35:29Z</time>
      </trkpt>
      <trkpt lat="49.87761" lon="2.33988">
        <ele>26.9</ele>
        <time>2023-10-06T13:35:30Z</time>
      </trkpt>
      <trkpt lat="49.87761" lon="2.33988">
        <ele>26.9</ele>
        <time>2023-10-06T13:35:31Z</time>
      </trkpt>
      <trkpt lat="49.87761" lon="2.33988">
        <ele>26.9</ele>
        <time>2023-10-06T13:35:32Z</time>
      </trkpt>
      <trkpt lat="49.87761" lon="2.33988">
        <ele>26.9</ele>
        <time>2023-10-06T13:35:33Z</time>
      </trkpt>
      <trkpt lat="49.87761" lon="2.33988">
        <ele>26.9</ele>
        <time>2023-10-06T13:35:34Z</time>
      </trkpt>
      <trkpt lat="49.87761" lon="2.33988">
        <ele>26.9</ele>
        <time>2023-10-06T13:35:35Z</time>
      </trkpt>
      <trkpt lat="49.87761" lon="2.33988">
        <ele>26.9</ele>
        <time>2023-10-06T13:35:36Z</time>
      </trkpt>
      <trkpt lat="49.87761" lon="2.33988">
        <ele>26.9</ele>
        <time>2023-10-06T13:35:37Z</time>
      </trkpt>
      <trkpt lat="49.87761" lon="2.33988">
        <ele>26.9</ele>
        <time>2023-10-06T13:35:38Z</time>
      </trkpt>
      <trkpt lat="49.87761" lon="2.33988">
        <ele>26.9</ele>
        <time>2023-10-06T13:35:39Z</time>
      </trkpt>
      <trkpt lat="49.87761" lon="2.33988">
        <ele>26.9</ele>
        <time>2023-10-06T13:35:40Z</time>
      </trkpt>
      <trkpt lat="49.87761" lon="2.33988">
        <ele>26.9</ele>
        <time>2023-10-06T13:35:41Z</time>
      </trkpt>
      <trkpt lat="49.87761" lon="2.33988">
        <ele>26.9</ele>
        <time>2023-10-06T13:35:42Z</time>
      </trkpt>
      <trkpt lat="49.87761" lon="2.33988">
        <ele>26.9</ele>
        <time>2023-10-06T13:35:43Z</time>
      </trkpt>
      <trkpt lat="49.87761" lon="2.33988">
        <ele>26.9</ele>
        <time>2023-10-06T13:35:44Z</time>
      </trkpt>
      <trkpt lat="49.87761" lon="2.33988">
        <ele>26.9</ele>
        <time>2023-10-06T13:35:45Z</time>
      </trkpt>
      <trkpt lat="49.87761" lon="2.33988">
        <ele>26.9</ele>
        <time>2023-10-06T13:35:46Z</time>
      </trkpt>
      <trkpt lat="49.87761" lon="2.33988">
        <ele>26.9</ele>
        <time>2023-10-06T13:35:47Z</time>
      </trkpt>
      <trkpt lat="49.87761" lon="2.33988">
        <ele>26.9</ele>
        <time>2023-10-06T13:35:48Z</time>
      </trkpt>
      <trkpt lat="49.87761" lon="2.33988">
        <ele>26.9</ele>
        <time>2023-10-06T13:35:49Z</time>
      </trkpt>
      <trkpt lat="49.87761" lon="2.33988">
        <ele>26.9</ele>
        <time>2023-10-06T13:35:50Z</time>
      </trkpt>
      <trkpt lat="49.87761" lon="2.33988">
        <ele>26.9</ele>
        <time>2023-10-06T13:35:51Z</time>
      </trkpt>
      <trkpt lat="49.87761" lon="2.33988">
        <ele>26.9</ele>
        <time>2023-10-06T13:35:52Z</time>
      </trkpt>
      <trkpt lat="49.87761" lon="2.33988">
        <ele>26.9</ele>
        <time>2023-10-06T13:35:53Z</time>
      </trkpt>
      <trkpt lat="49.87761" lon="2.33988">
        <ele>26.9</ele>
        <time>2023-10-06T13:35:54Z</time>
      </trkpt>
      <trkpt lat="49.87761" lon="2.33988">
        <ele>26.9</ele>
        <time>2023-10-06T13:35:55Z</time>
      </trkpt>
      <trkpt lat="49.87761" lon="2.33988">
        <ele>26.9</ele>
        <time>2023-10-06T13:35:56Z</time>
      </trkpt>
      <trkpt lat="49.87761" lon="2.33988">
        <ele>26.9</ele>
        <time>2023-10-06T13:35:57Z</time>
      </trkpt>
      <trkpt lat="49.87761" lon="2.33988">
        <ele>26.9</ele>
        <time>2023-10-06T13:35:58Z</time>
      </trkpt>
      <trkpt lat="49.87762" lon="2.33988">
        <ele>26.9</ele>
        <time>2023-10-06T13:35:59Z</time>
      </trkpt>
      <trkpt lat="49.87762" lon="2.33988">
        <ele>26.9</ele>
        <time>2023-10-06T13:36:00Z</time>
      </trkpt>
      <trkpt lat="49.87761" lon="2.33988">
        <ele>26.9</ele>
        <time>2023-10-06T13:36:01Z</time>
      </trkpt>
      <trkpt lat="49.87761" lon="2.33987">
        <ele>26.9</ele>
        <time>2023-10-06T13:36:02Z</time>
      </trkpt>
      <trkpt lat="49.87761" lon="2.33987">
        <ele>26.9</ele>
        <time>2023-10-06T13:36:03Z</time>
      </trkpt>
      <trkpt lat="49.8776" lon="2.33986">
        <ele>26.9</ele>
        <time>2023-10-06T13:36:04Z</time>
      </trkpt>
      <trkpt lat="49.8776" lon="2.33986">
        <ele>26.9</ele>
        <time>2023-10-06T13:36:05Z</time>
      </trkpt>
      <trkpt lat="49.87759" lon="2.33986">
        <ele>26.8</ele>
        <time>2023-10-06T13:36:06Z</time>
      </trkpt>
      <trkpt lat="49.87758" lon="2.33986">
        <ele>26.8</ele>
        <time>2023-10-06T13:36:07Z</time>
      </trkpt>
      <trkpt lat="49.87758" lon="2.33986">
        <ele>26.8</ele>
        <time>2023-10-06T13:36:08Z</time>
      </trkpt>
      <trkpt lat="49.87757" lon="2.33986">
        <ele>26.8</ele>
        <time>2023-10-06T13:36:09Z</time>
      </trkpt>
      <trkpt lat="49.87757" lon="2.33986">
        <ele>26.8</ele>
        <time>2023-10-06T13:36:10Z</time>
      </trkpt>
      <trkpt lat="49.87756" lon="2.33986">
        <ele>26.8</ele>
        <time>2023-10-06T13:36:11Z</time>
      </trkpt>
      <trkpt lat="49.87756" lon="2.33986">
        <ele>26.8</ele>
        <time>2023-10-06T13:36:12Z</time>
      </trkpt>
      <trkpt lat="49.87755" lon="2.33986">
        <ele>26.8</ele>
        <time>2023-10-06T13:36:13Z</time>
      </trkpt>
      <trkpt lat="49.87755" lon="2.33986">
        <ele>26.8</ele>
        <time>2023-10-06T13:36:14Z</time>
      </trkpt>
      <trkpt lat="49.87755" lon="2.33986">
        <ele>26.8</ele>
        <time>2023-10-06T13:36:15Z</time>
      </trkpt>
      <trkpt lat="49.87754" lon="2.33985">
        <ele>26.8</ele>
        <time>2023-10-06T13:36:16Z</time>
      </trkpt>
      <trkpt lat="49.87754" lon="2.33984">
        <ele>26.7</ele>
        <time>2023-10-06T13:36:17Z</time>
      </trkpt>
      <trkpt lat="49.87753" lon="2.33984">
        <ele>26.7</ele>
        <time>2023-10-06T13:36:18Z</time>
      </trkpt>
      <trkpt lat="49.87753" lon="2.33982">
        <ele>26.7</ele>
        <time>2023-10-06T13:36:19Z</time>
      </trkpt>
      <trkpt lat="49.87752" lon="2.33981">
        <ele>26.7</ele>
        <time>2023-10-06T13:36:20Z</time>
      </trkpt>
      <trkpt lat="49.87752" lon="2.33978">
        <ele>26.7</ele>
        <time>2023-10-06T13:36:21Z</time>
      </trkpt>
      <trkpt lat="49.87752" lon="2.33977">
        <ele>26.7</ele>
        <time>2023-10-06T13:36:22Z</time>
      </trkpt>
      <trkpt lat="49.87751" lon="2.33975">
        <ele>26.6</ele>
        <time>2023-10-06T13:36:23Z</time>
      </trkpt>
      <trkpt lat="49.87751" lon="2.33974">
        <ele>26.6</ele>
        <time>2023-10-06T13:36:24Z</time>
      </trkpt>
      <trkpt lat="49.87751" lon="2.33973">
        <ele>26.6</ele>
        <time>2023-10-06T13:36:25Z</time>
      </trkpt>
      <trkpt lat="49.8775" lon="2.33972">
        <ele>26.6</ele>
        <time>2023-10-06T13:36:26Z</time>
      </trkpt>
      <trkpt lat="49.87749" lon="2.33972">
        <ele>26.6</ele>
        <time>2023-10-06T13:36:27Z</time>
      </trkpt>
      <trkpt lat="49.87749" lon="2.33971">
        <ele>26.6</ele>
        <time>2023-10-06T13:36:28Z</time>
      </trkpt>
      <trkpt lat="49.87748" lon="2.3397">
        <ele>26.6</ele>
        <time>2023-10-06T13:36:29Z</time>
      </trkpt>
      <trkpt lat="49.87748" lon="2.33969">
        <ele>26.5</ele>
        <time>2023-10-06T13:36:30Z</time>
      </trkpt>
      <trkpt lat="49.87749" lon="2.33968">
        <ele>26.5</ele>
        <time>2023-10-06T13:36:31Z</time>
      </trkpt>
      <trkpt lat="49.87749" lon="2.33966">
        <ele>26.5</ele>
        <time>2023-10-06T13:36:32Z</time>
      </trkpt>
      <trkpt lat="49.8775" lon="2.33965">
        <ele>26.5</ele>
        <time>2023-10-06T13:36:33Z</time>
      </trkpt>
      <trkpt lat="49.8775" lon="2.33963">
        <ele>26.5</ele>
        <time>2023-10-06T13:36:34Z</time>
      </trkpt>
      <trkpt lat="49.87751" lon="2.33962">
        <ele>26.5</ele>
        <time>2023-10-06T13:36:35Z</time>
      </trkpt>
      <trkpt lat="49.87751" lon="2.33961">
        <ele>26.4</ele>
        <time>2023-10-06T13:36:36Z</time>
      </trkpt>
      <trkpt lat="49.87752" lon="2.33959">
        <ele>26.4</ele>
        <time>2023-10-06T13:36:37Z</time>
      </trkpt>
      <trkpt lat="49.87753" lon="2.33959">
        <ele>26.4</ele>
        <time>2023-10-06T13:36:38Z</time>
      </trkpt>
      <trkpt lat="49.87753" lon="2.33959">
        <ele>26.4</ele>
        <time>2023-10-06T13:36:39Z</time>
      </trkpt>
      <trkpt lat="49.87754" lon="2.33959">
        <ele>26.4</ele>
        <time>2023-10-06T13:36:40Z</time>
      </trkpt>
      <trkpt lat="49.87754" lon="2.3396">
        <ele>26.4</ele>
        <time>2023-10-06T13:36:41Z</time>
      </trkpt>
      <trkpt lat="49.87754" lon="2.3396">
        <ele>26.4</ele>
        <time>2023-10-06T13:36:42Z</time>
      </trkpt>
      <trkpt lat="49.87754" lon="2.3396">
        <ele>26.4</ele>
        <time>2023-10-06T13:36:43Z</time>
      </trkpt>
      <trkpt lat="49.87755" lon="2.3396">
        <ele>26.4</ele>
        <time>2023-10-06T13:36:44Z</time>
      </trkpt>
      <trkpt lat="49.87755" lon="2.33961">
        <ele>26.4</ele>
        <time>2023-10-06T13:36:45Z</time>
      </trkpt>
      <trkpt lat="49.87755" lon="2.33961">
        <ele>26.4</ele>
        <time>2023-10-06T13:36:46Z</time>
      </trkpt>
      <trkpt lat="49.87755" lon="2.33961">
        <ele>26.4</ele>
        <time>2023-10-06T13:36:47Z</time>
      </trkpt>
      <trkpt lat="49.87755" lon="2.33961">
        <ele>26.4</ele>
        <time>2023-10-06T13:36:48Z</time>
      </trkpt>
      <trkpt lat="49.87755" lon="2.33961">
        <ele>26.4</ele>
        <time>2023-10-06T13:36:49Z</time>
      </trkpt>
      <trkpt lat="49.87755" lon="2.33961">
        <ele>26.4</ele>
        <time>2023-10-06T13:36:50Z</time>
      </trkpt>
      <trkpt lat="49.87755" lon="2.33961">
        <ele>26.4</ele>
        <time>2023-10-06T13:36:51Z</time>
      </trkpt>
      <trkpt lat="49.87755" lon="2.33961">
        <ele>26.4</ele>
        <time>2023-10-06T13:36:52Z</time>
      </trkpt>
      <trkpt lat="49.87755" lon="2.33961">
        <ele>26.4</ele>
        <time>2023-10-06T13:36:53Z</time>
      </trkpt>
      <trkpt lat="49.87755" lon="2.33961">
        <ele>26.4</ele>
        <time>2023-10-06T13:36:54Z</time>
      </trkpt>
      <trkpt lat="49.87755" lon="2.33961">
        <ele>26.4</ele>
        <time>2023-10-06T13:36:55Z</time>
      </trkpt>
      <trkpt lat="49.87755" lon="2.33961">
        <ele>26.4</ele>
        <time>2023-10-06T13:36:56Z</time>
      </trkpt>
      <trkpt lat="49.87755" lon="2.33961">
        <ele>26.4</ele>
        <time>2023-10-06T13:36:57Z</time>
      </trkpt>
      <trkpt lat="49.87755" lon="2.33961">
        <ele>26.4</ele>
        <time>2023-10-06T13:36:58Z</time>
      </trkpt>
      <trkpt lat="49.87755" lon="2.33961">
        <ele>26.4</ele>
        <time>2023-10-06T13:36:59Z</time>
      </trkpt>
      <trkpt lat="49.87755" lon="2.33961">
        <ele>26.4</ele>
        <time>2023-10-06T13:37:00Z</time>
      </trkpt>
      <trkpt lat="49.87755" lon="2.33961">
        <ele>26.4</ele>
        <time>2023-10-06T13:37:01Z</time>
      </trkpt>
      <trkpt lat="49.87755" lon="2.33961">
        <ele>26.4</ele>
        <time>2023-10-06T13:37:02Z</time>
      </trkpt>
      <trkpt lat="49.87755" lon="2.33961">
        <ele>26.4</ele>
        <time>2023-10-06T13:37:03Z</time>
      </trkpt>
      <trkpt lat="49.87755" lon="2.33961">
        <ele>26.4</ele>
        <time>2023-10-06T13:37:04Z</time>
      </trkpt>
      <trkpt lat="49.87755" lon="2.33961">
        <ele>26.4</ele>
        <time>2023-10-06T13:37:05Z</time>
      </trkpt>
      <trkpt lat="49.87755" lon="2.33961">
        <ele>26.4</ele>
        <time>2023-10-06T13:37:06Z</time>
      </trkpt>
      <trkpt lat="49.87755" lon="2.33961">
        <ele>26.4</ele>
        <time>2023-10-06T13:37:07Z</time>
      </trkpt>
      <trkpt lat="49.87755" lon="2.33961">
        <ele>26.4</ele>
        <time>2023-10-06T13:37:08Z</time>
      </trkpt>
      <trkpt lat="49.87755" lon="2.33961">
        <ele>26.4</ele>
        <time>2023-10-06T13:37:09Z</time>
      </trkpt>
      <trkpt lat="49.87755" lon="2.33961">
        <ele>26.4</ele>
        <time>2023-10-06T13:37:10Z</time>
      </trkpt>
      <trkpt lat="49.87755" lon="2.33961">
        <ele>26.4</ele>
        <time>2023-10-06T13:37:11Z</time>
      </trkpt>
      <trkpt lat="49.87755" lon="2.33961">
        <ele>26.4</ele>
        <time>2023-10-06T13:37:12Z</time>
      </trkpt>
      <trkpt lat="49.87755" lon="2.33961">
        <ele>26.4</ele>
        <time>2023-10-06T13:37:13Z</time>
      </trkpt>
      <trkpt lat="49.87755" lon="2.33961">
        <ele>26.4</ele>
        <time>2023-10-06T13:37:14Z</time>
      </trkpt>
      <trkpt lat="49.87755" lon="2.33961">
        <ele>26.4</ele>
        <time>2023-10-06T13:37:15Z</time>
      </trkpt>
      <trkpt lat="49.87755" lon="2.33961">
        <ele>26.4</ele>
        <time>2023-10-06T13:37:16Z</time>
      </trkpt>
      <trkpt lat="49.87755" lon="2.33961">
        <ele>26.4</ele>
        <time>2023-10-06T13:37:17Z</time>
      </trkpt>
      <trkpt lat="49.87755" lon="2.33961">
        <ele>26.4</ele>
        <time>2023-10-06T13:37:18Z</time>
      </trkpt>
      <trkpt lat="49.87755" lon="2.33961">
        <ele>26.4</ele>
        <time>2023-10-06T13:37:19Z</time>
      </trkpt>
      <trkpt lat="49.87755" lon="2.33961">
        <ele>26.4</ele>
        <time>2023-10-06T13:37:20Z</time>
      </trkpt>
      <trkpt lat="49.87755" lon="2.33961">
        <ele>26.4</ele>
        <time>2023-10-06T13:37:21Z</time>
      </trkpt>
      <trkpt lat="49.87755" lon="2.33961">
        <ele>26.4</ele>
        <time>2023-10-06T13:37:22Z</time>
      </trkpt>
      <trkpt lat="49.87755" lon="2.33961">
        <ele>26.4</ele>
        <time>2023-10-06T13:37:23Z</time>
      </trkpt>
      <trkpt lat="49.87755" lon="2.33961">
        <ele>26.4</ele>
        <time>2023-10-06T13:37:24Z</time>
      </trkpt>
      <trkpt lat="49.87755" lon="2.33961">
        <ele>26.4</ele>
        <time>2023-10-06T13:37:25Z</time>
      </trkpt>
      <trkpt lat="49.87755" lon="2.33961">
        <ele>26.4</ele>
        <time>2023-10-06T13:37:26Z</time>
      </trkpt>
      <trkpt lat="49.87755" lon="2.33961">
        <ele>26.4</ele>
        <time>2023-10-06T13:37:27Z</time>
      </trkpt>
      <trkpt lat="49.87755" lon="2.33961">
        <ele>26.3</ele>
        <time>2023-10-06T13:37:28Z</time>
      </trkpt>
      <trkpt lat="49.87755" lon="2.33961">
        <ele>26.3</ele>
        <time>2023-10-06T13:37:29Z</time>
      </trkpt>
      <trkpt lat="49.87756" lon="2.33961">
        <ele>26.3</ele>
        <time>2023-10-06T13:37:30Z</time>
      </trkpt>
      <trkpt lat="49.87756" lon="2.33961">
        <ele>26.3</ele>
        <time>2023-10-06T13:37:31Z</time>
      </trkpt>
      <trkpt lat="49.87756" lon="2.33961">
        <ele>26.3</ele>
        <time>2023-10-06T13:37:32Z</time>
      </trkpt>
      <trkpt lat="49.87756" lon="2.33962">
        <ele>26.3</ele>
        <time>2023-10-06T13:37:33Z</time>
      </trkpt>
      <trkpt lat="49.87756" lon="2.33962">
        <ele>26.3</ele>
        <time>2023-10-06T13:37:34Z</time>
      </trkpt>
      <trkpt lat="49.87756" lon="2.33962">
        <ele>26.3</ele>
        <time>2023-10-06T13:37:35Z</time>
      </trkpt>
      <trkpt lat="49.87756" lon="2.33962">
        <ele>26.3</ele>
        <time>2023-10-06T13:37:36Z</time>
      </trkpt>
      <trkpt lat="49.87756" lon="2.33962">
        <ele>26.3</ele>
        <time>2023-10-06T13:37:37Z</time>
      </trkpt>
      <trkpt lat="49.87756" lon="2.33962">
        <ele>26.3</ele>
        <time>2023-10-06T13:37:38Z</time>
      </trkpt>
      <trkpt lat="49.87756" lon="2.33962">
        <ele>26.3</ele>
        <time>2023-10-06T13:37:39Z</time>
      </trkpt>
      <trkpt lat="49.87756" lon="2.33962">
        <ele>26.3</ele>
        <time>2023-10-06T13:37:40Z</time>
      </trkpt>
      <trkpt lat="49.87756" lon="2.33962">
        <ele>26.3</ele>
        <time>2023-10-06T13:37:41Z</time>
      </trkpt>
      <trkpt lat="49.87756" lon="2.33962">
        <ele>26.3</ele>
        <time>2023-10-06T13:37:42Z</time>
      </trkpt>
      <trkpt lat="49.87756" lon="2.33962">
        <ele>26.3</ele>
        <time>2023-10-06T13:37:43Z</time>
      </trkpt>
      <trkpt lat="49.87756" lon="2.33962">
        <ele>26.3</ele>
        <time>2023-10-06T13:37:44Z</time>
      </trkpt>
      <trkpt lat="49.87756" lon="2.33963">
        <ele>26.3</ele>
        <time>2023-10-06T13:37:45Z</time>
      </trkpt>
      <trkpt lat="49.87756" lon="2.33963">
        <ele>26.3</ele>
        <time>2023-10-06T13:37:46Z</time>
      </trkpt>
      <trkpt lat="49.87756" lon="2.33963">
        <ele>26.3</ele>
        <time>2023-10-06T13:37:47Z</time>
      </trkpt>
      <trkpt lat="49.87756" lon="2.33963">
        <ele>26.3</ele>
        <time>2023-10-06T13:37:48Z</time>
      </trkpt>
      <trkpt lat="49.87756" lon="2.33963">
        <ele>26.3</ele>
        <time>2023-10-06T13:37:49Z</time>
      </trkpt>
      <trkpt lat="49.87756" lon="2.33963">
        <ele>26.3</ele>
        <time>2023-10-06T13:37:50Z</time>
      </trkpt>
      <trkpt lat="49.87756" lon="2.33963">
        <ele>26.3</ele>
        <time>2023-10-06T13:37:51Z</time>
      </trkpt>
      <trkpt lat="49.87756" lon="2.33963">
        <ele>26.3</ele>
        <time>2023-10-06T13:37:52Z</time>
      </trkpt>
      <trkpt lat="49.87756" lon="2.33963">
        <ele>26.3</ele>
        <time>2023-10-06T13:37:53Z</time>
      </trkpt>
      <trkpt lat="49.87756" lon="2.33963">
        <ele>26.3</ele>
        <time>2023-10-06T13:37:54Z</time>
      </trkpt>
      <trkpt lat="49.87756" lon="2.33963">
        <ele>26.3</ele>
        <time>2023-10-06T13:37:55Z</time>
      </trkpt>
      <trkpt lat="49.87756" lon="2.33963">
        <ele>26.3</ele>
        <time>2023-10-06T13:37:56Z</time>
      </trkpt>
      <trkpt lat="49.87756" lon="2.33963">
        <ele>26.3</ele>
        <time>2023-10-06T13:37:57Z</time>
      </trkpt>
      <trkpt lat="49.87756" lon="2.33963">
        <ele>26.3</ele>
        <time>2023-10-06T13:37:58Z</time>
      </trkpt>
      <trkpt lat="49.87756" lon="2.33963">
        <ele>26.3</ele>
        <time>2023-10-06T13:37:59Z</time>
      </trkpt>
      <trkpt lat="49.87756" lon="2.33963">
        <ele>26.3</ele>
        <time>2023-10-06T13:38:00Z</time>
      </trkpt>
      <trkpt lat="49.87756" lon="2.33963">
        <ele>26.3</ele>
        <time>2023-10-06T13:38:01Z</time>
      </trkpt>
      <trkpt lat="49.87756" lon="2.33963">
        <ele>26.3</ele>
        <time>2023-10-06T13:38:02Z</time>
      </trkpt>
      <trkpt lat="49.87756" lon="2.33963">
        <ele>26.3</ele>
        <time>2023-10-06T13:38:03Z</time>
      </trkpt>
      <trkpt lat="49.87756" lon="2.33963">
        <ele>26.3</ele>
        <time>2023-10-06T13:38:04Z</time>
      </trkpt>
      <trkpt lat="49.87756" lon="2.33963">
        <ele>26.3</ele>
        <time>2023-10-06T13:38:05Z</time>
      </trkpt>
      <trkpt lat="49.87756" lon="2.33963">
        <ele>26.3</ele>
        <time>2023-10-06T13:38:06Z</time>
      </trkpt>
      <trkpt lat="49.87756" lon="2.33963">
        <ele>26.3</ele>
        <time>2023-10-06T13:38:07Z</time>
      </trkpt>
      <trkpt lat="49.87756" lon="2.33963">
        <ele>26.3</ele>
        <time>2023-10-06T13:38:08Z</time>
      </trkpt>
      <trkpt lat="49.87756" lon="2.33963">
        <ele>26.3</ele>
        <time>2023-10-06T13:38:09Z</time>
      </trkpt>
      <trkpt lat="49.87756" lon="2.33963">
        <ele>26.3</ele>
        <time>2023-10-06T13:38:10Z</time>
      </trkpt>
      <trkpt lat="49.87756" lon="2.33963">
        <ele>26.3</ele>
        <time>2023-10-06T13:38:11Z</time>
      </trkpt>
      <trkpt lat="49.87756" lon="2.33963">
        <ele>26.3</ele>
        <time>2023-10-06T13:38:12Z</time>
      </trkpt>
      <trkpt lat="49.87756" lon="2.33963">
        <ele>26.3</ele>
        <time>2023-10-06T13:38:13Z</time>
      </trkpt>
      <trkpt lat="49.87756" lon="2.33963">
        <ele>26.3</ele>
        <time>2023-10-06T13:38:14Z</time>
      </trkpt>
      <trkpt lat="49.87756" lon="2.33963">
        <ele>26.3</ele>
        <time>2023-10-06T13:38:15Z</time>
      </trkpt>
      <trkpt lat="49.87756" lon="2.33963">
        <ele>26.3</ele>
        <time>2023-10-06T13:38:16Z</time>
      </trkpt>
      <trkpt lat="49.87756" lon="2.33963">
        <ele>26.3</ele>
        <time>2023-10-06T13:38:17Z</time>
      </trkpt>
      <trkpt lat="49.87756" lon="2.33963">
        <ele>26.3</ele>
        <time>2023-10-06T13:38:18Z</time>
      </trkpt>
      <trkpt lat="49.87756" lon="2.33963">
        <ele>26.3</ele>
        <time>2023-10-06T13:38:19Z</time>
      </trkpt>
      <trkpt lat="49.87756" lon="2.33963">
        <ele>26.3</ele>
        <time>2023-10-06T13:38:20Z</time>
      </trkpt>
      <trkpt lat="49.87756" lon="2.33963">
        <ele>26.3</ele>
        <time>2023-10-06T13:38:21Z</time>
      </trkpt>
      <trkpt lat="49.87756" lon="2.33963">
        <ele>26.3</ele>
        <time>2023-10-06T13:38:22Z</time>
      </trkpt>
      <trkpt lat="49.87756" lon="2.33963">
        <ele>26.3</ele>
        <time>2023-10-06T13:38:23Z</time>
      </trkpt>
      <trkpt lat="49.87756" lon="2.33963">
        <ele>26.3</ele>
        <time>2023-10-06T13:38:24Z</time>
      </trkpt>
      <trkpt lat="49.87756" lon="2.33963">
        <ele>26.3</ele>
        <time>2023-10-06T13:38:25Z</time>
      </trkpt>
      <trkpt lat="49.87756" lon="2.33963">
        <ele>26.3</ele>
        <time>2023-10-06T13:38:26Z</time>
      </trkpt>
      <trkpt lat="49.87756" lon="2.33963">
        <ele>26.3</ele>
        <time>2023-10-06T13:38:27Z</time>
      </trkpt>
      <trkpt lat="49.87756" lon="2.33963">
        <ele>26.3</ele>
        <time>2023-10-06T13:38:28Z</time>
      </trkpt>
      <trkpt lat="49.87756" lon="2.33963">
        <ele>26.3</ele>
        <time>2023-10-06T13:38:29Z</time>
      </trkpt>
      <trkpt lat="49.87756" lon="2.33963">
        <ele>26.3</ele>
        <time>2023-10-06T13:38:30Z</time>
      </trkpt>
      <trkpt lat="49.87756" lon="2.33963">
        <ele>26.3</ele>
        <time>2023-10-06T13:38:31Z</time>
      </trkpt>
      <trkpt lat="49.87756" lon="2.33963">
        <ele>26.3</ele>
        <time>2023-10-06T13:38:32Z</time>
      </trkpt>
      <trkpt lat="49.87756" lon="2.33963">
        <ele>26.3</ele>
        <time>2023-10-06T13:38:33Z</time>
      </trkpt>
      <trkpt lat="49.87756" lon="2.33963">
        <ele>26.3</ele>
        <time>2023-10-06T13:38:34Z</time>
      </trkpt>
      <trkpt lat="49.87756" lon="2.33963">
        <ele>26.3</ele>
        <time>2023-10-06T13:38:35Z</time>
      </trkpt>
      <trkpt lat="49.87756" lon="2.33963">
        <ele>26.3</ele>
        <time>2023-10-06T13:38:36Z</time>
      </trkpt>
      <trkpt lat="49.87756" lon="2.33963">
        <ele>26.3</ele>
        <time>2023-10-06T13:38:37Z</time>
      </trkpt>
      <trkpt lat="49.87756" lon="2.33963">
        <ele>26.3</ele>
        <time>2023-10-06T13:38:38Z</time>
      </trkpt>
      <trkpt lat="49.87756" lon="2.33963">
        <ele>26.3</ele>
        <time>2023-10-06T13:38:39Z</time>
      </trkpt>
      <trkpt lat="49.87756" lon="2.33963">
        <ele>26.3</ele>
        <time>2023-10-06T13:38:40Z</time>
      </trkpt>
      <trkpt lat="49.87756" lon="2.33963">
        <ele>26.3</ele>
        <time>2023-10-06T13:38:41Z</time>
      </trkpt>
      <trkpt lat="49.87756" lon="2.33963">
        <ele>26.3</ele>
        <time>2023-10-06T13:38:42Z</time>
      </trkpt>
      <trkpt lat="49.87756" lon="2.33963">
        <ele>26.3</ele>
        <time>2023-10-06T13:38:43Z</time>
      </trkpt>
      <trkpt lat="49.87756" lon="2.33963">
        <ele>26.3</ele>
        <time>2023-10-06T13:38:44Z</time>
      </trkpt>
      <trkpt lat="49.87756" lon="2.33963">
        <ele>26.3</ele>
        <time>2023-10-06T13:38:45Z</time>
      </trkpt>
      <trkpt lat="49.87756" lon="2.33963">
        <ele>26.3</ele>
        <time>2023-10-06T13:38:46Z</time>
      </trkpt>
      <trkpt lat="49.87756" lon="2.33963">
        <ele>26.3</ele>
        <time>2023-10-06T13:38:47Z</time>
      </trkpt>
      <trkpt lat="49.87756" lon="2.33963">
        <ele>26.3</ele>
        <time>2023-10-06T13:38:48Z</time>
      </trkpt>
      <trkpt lat="49.87756" lon="2.33963">
        <ele>26.3</ele>
        <time>2023-10-06T13:38:49Z</time>
      </trkpt>
      <trkpt lat="49.87756" lon="2.33963">
        <ele>26.3</ele>
        <time>2023-10-06T13:38:50Z</time>
      </trkpt>
      <trkpt lat="49.87756" lon="2.33963">
        <ele>26.3</ele>
        <time>2023-10-06T13:38:51Z</time>
      </trkpt>
      <trkpt lat="49.87756" lon="2.33963">
        <ele>26.3</ele>
        <time>2023-10-06T13:38:52Z</time>
      </trkpt>
      <trkpt lat="49.87756" lon="2.33963">
        <ele>26.3</ele>
        <time>2023-10-06T13:38:53Z</time>
      </trkpt>
      <trkpt lat="49.87756" lon="2.33963">
        <ele>26.3</ele>
        <time>2023-10-06T13:38:54Z</time>
      </trkpt>
      <trkpt lat="49.87756" lon="2.33963">
        <ele>26.3</ele>
        <time>2023-10-06T13:38:55Z</time>
      </trkpt>
      <trkpt lat="49.87756" lon="2.33963">
        <ele>26.3</ele>
        <time>2023-10-06T13:38:56Z</time>
      </trkpt>
      <trkpt lat="49.87756" lon="2.33963">
        <ele>26.3</ele>
        <time>2023-10-06T13:38:57Z</time>
      </trkpt>
      <trkpt lat="49.87756" lon="2.33963">
        <ele>26.3</ele>
        <time>2023-10-06T13:38:58Z</time>
      </trkpt>
      <trkpt lat="49.87756" lon="2.33963">
        <ele>26.3</ele>
        <time>2023-10-06T13:38:59Z</time>
      </trkpt>
      <trkpt lat="49.87756" lon="2.33963">
        <ele>26.3</ele>
        <time>2023-10-06T13:39:00Z</time>
      </trkpt>
      <trkpt lat="49.87756" lon="2.33963">
        <ele>26.3</ele>
        <time>2023-10-06T13:39:01Z</time>
      </trkpt>
    </trkseg>
  </trk>
</gpx>